<?xml version="1.0"?>
<gpx xmlns="http://www.topografix.com/GPX/1/1" xmlns:xsi="http://www.w3.org/2001/XMLSchema-instance" xmlns:wptx1="http://www.garmin.com/xmlschemas/WaypointExtension/v1" xmlns:gpxtrx="http://www.garmin.com/xmlschemas/GpxExtensions/v3" xmlns:gpxtpx="http://www.garmin.com/xmlschemas/TrackPointExtension/v1" xmlns:gpxx="http://www.garmin.com/xmlschemas/GpxExtensions/v3" xmlns:trp="http://www.garmin.com/xmlschemas/TripExtensions/v1" xmlns:adv="http://www.garmin.com/xmlschemas/AdventuresExtensions/v1" xmlns:prs="http://www.garmin.com/xmlschemas/PressureExtension/v1" xmlns:tmd="http://www.garmin.com/xmlschemas/TripMetaDataExtensions/v1" xmlns:vptm="http://www.garmin.com/xmlschemas/ViaPointTransportationModeExtensions/v1" xmlns:ctx="http://www.garmin.com/xmlschemas/CreationTimeExtension/v1" creator="Garmin Desktop App" version="1.1" xsi:schemaLocation="http://www.topografix.com/GPX/1/1 http://www.topografix.com/GPX/1/1/gpx.xsd http://www.garmin.com/xmlschemas/WaypointExtension/v1 http://www8.garmin.com/xmlschemas/WaypointExtensionv1.xsd http://www.garmin.com/xmlschemas/TrackPointExtension/v1 http://www.garmin.com/xmlschemas/TrackPointExtensionv1.xsd http://www.garmin.com/xmlschemas/GpxExtensions/v3 http://www8.garmin.com/xmlschemas/GpxExtensionsv3.xsd http://www.garmin.com/xmlschemas/ActivityExtension/v1 http://www8.garmin.com/xmlschemas/ActivityExtensionv1.xsd http://www.garmin.com/xmlschemas/AdventuresExtensions/v1 http://www8.garmin.com/xmlschemas/AdventuresExtensionv1.xsd http://www.garmin.com/xmlschemas/PressureExtension/v1 http://www.garmin.com/xmlschemas/PressureExtensionv1.xsd http://www.garmin.com/xmlschemas/TripExtensions/v1 http://www.garmin.com/xmlschemas/TripExtensionsv1.xsd http://www.garmin.com/xmlschemas/TripMetaDataExtensions/v1 http://www.garmin.com/xmlschemas/TripMetaDataExtensionsv1.xsd http://www.garmin.com/xmlschemas/ViaPointTransportationModeExtensions/v1 http://www.garmin.com/xmlschemas/ViaPointTransportationModeExtensionsv1.xsd http://www.garmin.com/xmlschemas/CreationTimeExtensions/v1 http://www.garmin.com/xmlschemas/CreationTimeExtensionsv1.xsd">

  <metadata>
    <link href="http://www.garmin.com">
      <text>Garmin International</text>
    </link>
    <time>2018-02-26T11:22:23Z</time>
    <bounds maxlat="54.5010204333812" maxlon="11.250214073807001" minlat="53.07578475214541" minlon="8.808479513972998"/>
  </metadata>

  <trk>
    <name>Moenchsweg_607km</name>
    <extensions>
      <gpxx:TrackExtension>
        <gpxx:DisplayColor>Magenta</gpxx:DisplayColor>
      </gpxx:TrackExtension>
    </extensions>
    <trkseg>
      <trkpt lat="53.081704890355468" lon="8.815110437572002">
        <ele>0</ele>
        <time>2010-01-01T04:41:00Z</time>
      </trkpt>
      <trkpt lat="53.081448907032609" lon="8.814642727375031"/>
      <trkpt lat="53.081161743029952" lon="8.814258500933647"/>
      <trkpt lat="53.08096912689507" lon="8.813750306144357"/>
      <trkpt lat="53.080461351200938" lon="8.813226604834199"/>
      <trkpt lat="53.080717753618956" lon="8.812667531892657"/>
      <trkpt lat="53.080361019819975" lon="8.812055233865976"/>
      <trkpt lat="53.080141413956881" lon="8.811417119577527"/>
      <trkpt lat="53.080117525532842" lon="8.811153676360846"/>
      <trkpt lat="53.079908732324839" lon="8.810625532642007"/>
      <trkpt lat="53.07967915199697" lon="8.810215489938855"/>
      <trkpt lat="53.079481506720185" lon="8.810004517436028"/>
      <trkpt lat="53.079325184226036" lon="8.809994207695127"/>
      <trkpt lat="53.078901981934905" lon="8.809545524418354"/>
      <trkpt lat="53.078817157074809" lon="8.809327427297831"/>
      <trkpt lat="53.078534351661801" lon="8.808964323252439"/>
      <trkpt lat="53.07770119048655" lon="8.810285478830338"/>
      <trkpt lat="53.076989566907287" lon="8.811254929751158"/>
      <trkpt lat="53.076728219166398" lon="8.81069753319025"/>
      <trkpt lat="53.07578475214541" lon="8.809249643236399">
        <ele>0</ele>
        <time>2010-01-01T04:40:38Z</time>
      </trkpt>
      <trkpt lat="53.075852310284972" lon="8.808479513972998"/>
      <trkpt lat="53.0760926194489" lon="8.808790314942598"/>
      <trkpt lat="53.076217174530029" lon="8.808660143986344"/>
      <trkpt lat="53.076718747615814" lon="8.809565054252744">
        <ele>0</ele>
        <time>2010-01-01T04:40:13Z</time>
      </trkpt>
      <trkpt lat="53.076958386227489" lon="8.809896893799305">
        <ele>0</ele>
        <time>2010-01-01T04:39:49Z</time>
      </trkpt>
      <trkpt lat="53.077016808092594" lon="8.809931175783277">
        <ele>0</ele>
        <time>2010-01-01T04:39:28Z</time>
      </trkpt>
      <trkpt lat="53.077351497486234" lon="8.80952968262136">
        <ele>0</ele>
        <time>2010-01-01T04:39:12Z</time>
      </trkpt>
      <trkpt lat="53.077767658978701" lon="8.809342347085476">
        <ele>0</ele>
        <time>2010-01-01T04:38:55Z</time>
      </trkpt>
      <trkpt lat="53.078290019184351" lon="8.808927442878485">
        <ele>0</ele>
        <time>2010-01-01T04:38:31Z</time>
      </trkpt>
      <trkpt lat="53.078498980030417" lon="8.808752847835422">
        <ele>0</ele>
        <time>2010-01-01T04:38:22Z</time>
      </trkpt>
      <trkpt lat="53.078839536756277" lon="8.80914218723774">
        <ele>0</ele>
        <time>2010-01-01T04:38:06Z</time>
      </trkpt>
      <trkpt lat="53.079704130068421" lon="8.810093868523836">
        <ele>0</ele>
        <time>2010-01-01T04:37:24Z</time>
      </trkpt>
      <trkpt lat="53.080032113939524" lon="8.810765594244003">
        <ele>0</ele>
        <time>2010-01-01T04:37:03Z</time>
      </trkpt>
      <trkpt lat="53.080242080613971" lon="8.8112423568964">
        <ele>0</ele>
        <time>2010-01-01T04:36:49Z</time>
      </trkpt>
      <trkpt lat="53.08047853410244" lon="8.811936294659972">
        <ele>0</ele>
        <time>2010-01-01T04:36:30Z</time>
      </trkpt>
      <trkpt lat="53.080924199894071" lon="8.812607517465949">
        <ele>0</ele>
        <time>2010-01-01T04:36:06Z</time>
      </trkpt>
      <trkpt lat="53.081081695854664" lon="8.813019404187799">
        <ele>0</ele>
        <time>2010-01-01T04:35:54Z</time>
      </trkpt>
      <trkpt lat="53.081226954236627" lon="8.813887434080243">
        <ele>0</ele>
        <time>2010-01-01T04:35:32Z</time>
      </trkpt>
      <trkpt lat="53.08134539052844" lon="8.814408117905259">
        <ele>0</ele>
        <time>2010-01-01T04:35:19Z</time>
      </trkpt>
      <trkpt lat="53.081633560359478" lon="8.814732665196061">
        <ele>0</ele>
        <time>2010-01-01T04:35:05Z</time>
      </trkpt>
      <trkpt lat="53.082039328292012" lon="8.814969789236784">
        <ele>0</ele>
        <time>2010-01-01T04:34:48Z</time>
      </trkpt>
      <trkpt lat="53.082615919411182" lon="8.815770847722888">
        <ele>0</ele>
        <time>2010-01-01T04:34:18Z</time>
      </trkpt>
      <trkpt lat="53.083100561052561" lon="8.816289938986301">
        <ele>0</ele>
        <time>2010-01-01T04:33:55Z</time>
      </trkpt>
      <trkpt lat="53.083481434732676" lon="8.817395931109786">
        <ele>0</ele>
        <time>2010-01-01T04:33:24Z</time>
      </trkpt>
      <trkpt lat="53.083718055859208" lon="8.818198498338461">
        <ele>0</ele>
        <time>2010-01-01T04:33:03Z</time>
      </trkpt>
      <trkpt lat="53.083863314241171" lon="8.819175157696009">
        <ele>0</ele>
        <time>2010-01-01T04:32:38Z</time>
      </trkpt>
      <trkpt lat="53.084166403859854" lon="8.820694126188755">
        <ele>0</ele>
        <time>2010-01-01T04:32:00Z</time>
      </trkpt>
      <trkpt lat="53.084233459085226" lon="8.821844877675176">
        <ele>0</ele>
        <time>2010-01-01T04:31:32Z</time>
      </trkpt>
      <trkpt lat="53.084353404119611" lon="8.823364600539207">
        <ele>0</ele>
        <time>2010-01-01T04:30:55Z</time>
      </trkpt>
      <trkpt lat="53.084341837093234" lon="8.824385348707438">
        <ele>0</ele>
        <time>2010-01-01T04:30:31Z</time>
      </trkpt>
      <trkpt lat="53.0844212975353" lon="8.825080040842295">
        <ele>0</ele>
        <time>2010-01-01T04:30:14Z</time>
      </trkpt>
      <trkpt lat="53.08460452593863" lon="8.825187832117081">
        <ele>0</ele>
        <time>2010-01-01T04:30:06Z</time>
      </trkpt>
      <trkpt lat="53.085246663540602" lon="8.82611914537847">
        <ele>0</ele>
        <time>2010-01-01T04:29:32Z</time>
      </trkpt>
      <trkpt lat="53.085927609354258" lon="8.826833115890622">
        <ele>0</ele>
        <time>2010-01-01T04:29:00Z</time>
      </trkpt>
      <trkpt lat="53.086136486381292" lon="8.826549891382456">
        <ele>0</ele>
        <time>2010-01-01T04:28:49Z</time>
      </trkpt>
      <trkpt lat="53.086358774453402" lon="8.826549053192139">
        <ele>0</ele>
        <time>2010-01-01T04:28:40Z</time>
      </trkpt>
      <trkpt lat="53.086842577904463" lon="8.826568834483624">
        <ele>0</ele>
        <time>2010-01-01T04:28:21Z</time>
      </trkpt>
      <trkpt lat="53.08719570748508" lon="8.826632536947727">
        <ele>0</ele>
        <time>2010-01-01T04:28:06Z</time>
      </trkpt>
      <trkpt lat="53.087575240060687" lon="8.826826494187117">
        <ele>0</ele>
        <time>2010-01-01T04:27:50Z</time>
      </trkpt>
      <trkpt lat="53.087902637198567" lon="8.827194459736347">
        <ele>0</ele>
        <time>2010-01-01T04:27:35Z</time>
      </trkpt>
      <trkpt lat="53.088059797883034" lon="8.827324127778411">
        <ele>0</ele>
        <time>2010-01-01T04:27:28Z</time>
      </trkpt>
      <trkpt lat="53.088387195020914" lon="8.82769200950861">
        <ele>0</ele>
        <time>2010-01-01T04:27:12Z</time>
      </trkpt>
      <trkpt lat="53.088766979053617" lon="8.828103225678205">
        <ele>0</ele>
        <time>2010-01-01T04:26:54Z</time>
      </trkpt>
      <trkpt lat="53.089146511629224" lon="8.828297182917595">
        <ele>0</ele>
        <time>2010-01-01T04:26:38Z</time>
      </trkpt>
      <trkpt lat="53.089604414999485" lon="8.828490888699889">
        <ele>0</ele>
        <time>2010-01-01T04:26:19Z</time>
      </trkpt>
      <trkpt lat="53.089918401092291" lon="8.828576467931271">
        <ele>0</ele>
        <time>2010-01-01T04:26:06Z</time>
      </trkpt>
      <trkpt lat="53.090101713314652" lon="8.828792972490191">
        <ele>0</ele>
        <time>2010-01-01T04:25:57Z</time>
      </trkpt>
      <trkpt lat="53.090494908392429" lon="8.829399570822716">
        <ele>0</ele>
        <time>2010-01-01T04:25:36Z</time>
      </trkpt>
      <trkpt lat="53.090691464021802" lon="8.829681202769279">
        <ele>0</ele>
        <time>2010-01-01T04:25:25Z</time>
      </trkpt>
      <trkpt lat="53.091005617752671" lon="8.829918913543224">
        <ele>0</ele>
        <time>2010-01-01T04:25:11Z</time>
      </trkpt>
      <trkpt lat="53.091319687664509" lon="8.830113122239709">
        <ele>0</ele>
        <time>2010-01-01T04:24:58Z</time>
      </trkpt>
      <trkpt lat="53.091711960732937" lon="8.830111613497138">
        <ele>0</ele>
        <time>2010-01-01T04:24:42Z</time>
      </trkpt>
      <trkpt lat="53.092157291248441" lon="8.830631207674742">
        <ele>0</ele>
        <time>2010-01-01T04:24:21Z</time>
      </trkpt>
      <trkpt lat="53.092719884589314" lon="8.830824494361877">
        <ele>0</ele>
        <time>2010-01-01T04:23:58Z</time>
      </trkpt>
      <trkpt lat="53.093059938400984" lon="8.830888280645013">
        <ele>0</ele>
        <time>2010-01-01T04:23:44Z</time>
      </trkpt>
      <trkpt lat="53.093635523691773" lon="8.831059858202934">
        <ele>0</ele>
        <time>2010-01-01T04:23:21Z</time>
      </trkpt>
      <trkpt lat="53.093988904729486" lon="8.83131911046803">
        <ele>0</ele>
        <time>2010-01-01T04:23:05Z</time>
      </trkpt>
      <trkpt lat="53.094303226098418" lon="8.831643741577864">
        <ele>0</ele>
        <time>2010-01-01T04:22:50Z</time>
      </trkpt>
      <trkpt lat="53.094800775870681" lon="8.832097956910729">
        <ele>0</ele>
        <time>2010-01-01T04:22:28Z</time>
      </trkpt>
      <trkpt lat="53.095193384215236" lon="8.832335416227579">
        <ele>0</ele>
        <time>2010-01-01T04:22:11Z</time>
      </trkpt>
      <trkpt lat="53.095637876540422" lon="8.83226852864027">
        <ele>0</ele>
        <time>2010-01-01T04:21:53Z</time>
      </trkpt>
      <trkpt lat="53.096173731610179" lon="8.832070967182517">
        <ele>0</ele>
        <time>2010-01-01T04:21:31Z</time>
      </trkpt>
      <trkpt lat="53.096775049343705" lon="8.831938281655312">
        <ele>0</ele>
        <time>2010-01-01T04:21:07Z</time>
      </trkpt>
      <trkpt lat="53.097088951617479" lon="8.83200223557651">
        <ele>0</ele>
        <time>2010-01-01T04:20:54Z</time>
      </trkpt>
      <trkpt lat="53.0973244830966" lon="8.832153361290693">
        <ele>0</ele>
        <time>2010-01-01T04:20:44Z</time>
      </trkpt>
      <trkpt lat="53.097364883869886" lon="8.83295701816678">
        <ele>0</ele>
        <time>2010-01-01T04:20:25Z</time>
      </trkpt>
      <trkpt lat="53.097535958513618" lon="8.833716670051217">
        <ele>0</ele>
        <time>2010-01-01T04:20:05Z</time>
      </trkpt>
      <trkpt lat="53.097929237410426" lon="8.834475567564368">
        <ele>0</ele>
        <time>2010-01-01T04:19:41Z</time>
      </trkpt>
      <trkpt lat="53.098584366962314" lon="8.835428925231099">
        <ele>0</ele>
        <time>2010-01-01T04:19:06Z</time>
      </trkpt>
      <trkpt lat="53.09913438744843" lon="8.836035104468465">
        <ele>0</ele>
        <time>2010-01-01T04:18:40Z</time>
      </trkpt>
      <trkpt lat="53.099788846448064" lon="8.836510609835386">
        <ele>0</ele>
        <time>2010-01-01T04:18:11Z</time>
      </trkpt>
      <trkpt lat="53.100207271054387" lon="8.836465599015355">
        <ele>0</ele>
        <time>2010-01-01T04:17:54Z</time>
      </trkpt>
      <trkpt lat="53.100429559126496" lon="8.836464760825038">
        <ele>0</ele>
        <time>2010-01-01T04:17:45Z</time>
      </trkpt>
      <trkpt lat="53.100847480818629" lon="8.836137279868126">
        <ele>0</ele>
        <time>2010-01-01T04:17:27Z</time>
      </trkpt>
      <trkpt lat="53.100978657603264" lon="8.83639745414257">
        <ele>0</ele>
        <time>2010-01-01T04:17:19Z</time>
      </trkpt>
      <trkpt lat="53.101031379774213" lon="8.836701465770602">
        <ele>0</ele>
        <time>2010-01-01T04:17:11Z</time>
      </trkpt>
      <trkpt lat="53.100979579612613" lon="8.837070940062404">
        <ele>0</ele>
        <time>2010-01-01T04:17:02Z</time>
      </trkpt>
      <trkpt lat="53.100862149149179" lon="8.83724519982934">
        <ele>0</ele>
        <time>2010-01-01T04:16:56Z</time>
      </trkpt>
      <trkpt lat="53.100548833608627" lon="8.837680891156197">
        <ele>0</ele>
        <time>2010-01-01T04:16:39Z</time>
      </trkpt>
      <trkpt lat="53.100562077015638" lon="8.837767811492085">
        <ele>0</ele>
        <time>2010-01-01T04:16:37Z</time>
      </trkpt>
      <trkpt lat="53.101308066397905" lon="8.838264690712094">
        <ele>0</ele>
        <time>2010-01-01T04:16:05Z</time>
      </trkpt>
      <trkpt lat="53.102747658267617" lon="8.839193573221564">
        <ele>0</ele>
        <time>2010-01-01T04:15:03Z</time>
      </trkpt>
      <trkpt lat="53.104854952543974" lon="8.840684965252876">
        <ele>0</ele>
        <time>2010-01-01T04:13:32Z</time>
      </trkpt>
      <trkpt lat="53.105993298813701" lon="8.841267423704267">
        <ele>0</ele>
        <time>2010-01-01T04:12:44Z</time>
      </trkpt>
      <trkpt lat="53.106372999027371" lon="8.841591970995069">
        <ele>0</ele>
        <time>2010-01-01T04:12:27Z</time>
      </trkpt>
      <trkpt lat="53.107485780492425" lon="8.842587405815721">
        <ele>0</ele>
        <time>2010-01-01T04:11:36Z</time>
      </trkpt>
      <trkpt lat="53.109659207984805" lon="8.844730826094747">
        <ele>0</ele>
        <time>2010-01-01T04:09:55Z</time>
      </trkpt>
      <trkpt lat="53.110798140987754" lon="8.845791555941105">
        <ele>0</ele>
        <time>2010-01-01T04:09:03Z</time>
      </trkpt>
      <trkpt lat="53.111321926116943" lon="8.846332943066955">
        <ele>0</ele>
        <time>2010-01-01T04:08:38Z</time>
      </trkpt>
      <trkpt lat="53.112762020900846" lon="8.847675221040845">
        <ele>0</ele>
        <time>2010-01-01T04:07:32Z</time>
      </trkpt>
      <trkpt lat="53.112918930128217" lon="8.847696427255869">
        <ele>0</ele>
        <time>2010-01-01T04:07:26Z</time>
      </trkpt>
      <trkpt lat="53.113861475139856" lon="8.848562361672521">
        <ele>0</ele>
        <time>2010-01-01T04:06:43Z</time>
      </trkpt>
      <trkpt lat="53.115052543580532" lon="8.849449250847101">
        <ele>0</ele>
        <time>2010-01-01T04:05:51Z</time>
      </trkpt>
      <trkpt lat="53.115668026730418" lon="8.850142601877451">
        <ele>0</ele>
        <time>2010-01-01T04:05:21Z</time>
      </trkpt>
      <trkpt lat="53.116767900064588" lon="8.851355882361531">
        <ele>0</ele>
        <time>2010-01-01T04:04:28Z</time>
      </trkpt>
      <trkpt lat="53.118483256548643" lon="8.853284390643239">
        <ele>0</ele>
        <time>2010-01-01T04:03:05Z</time>
      </trkpt>
      <trkpt lat="53.120695576071739" lon="8.855298310518265">
        <ele>0</ele>
        <time>2010-01-01T04:01:24Z</time>
      </trkpt>
      <trkpt lat="53.121821349486709" lon="8.856337917968631">
        <ele>0</ele>
        <time>2010-01-01T04:00:33Z</time>
      </trkpt>
      <trkpt lat="53.125434620305896" lon="8.859956217929721">
        <ele>0</ele>
        <time>2010-01-01T03:57:44Z</time>
      </trkpt>
      <trkpt lat="53.126691151410341" lon="8.861017366871238">
        <ele>0</ele>
        <time>2010-01-01T03:56:48Z</time>
      </trkpt>
      <trkpt lat="53.128864159807563" lon="8.863097419962287">
        <ele>0</ele>
        <time>2010-01-01T03:55:07Z</time>
      </trkpt>
      <trkpt lat="53.129950705915689" lon="8.864181032404304">
        <ele>0</ele>
        <time>2010-01-01T03:54:17Z</time>
      </trkpt>
      <trkpt lat="53.129911981523037" lon="8.864615885540843">
        <ele>0</ele>
        <time>2010-01-01T03:54:06Z</time>
      </trkpt>
      <trkpt lat="53.129755491390824" lon="8.865029448643327">
        <ele>0</ele>
        <time>2010-01-01T03:53:54Z</time>
      </trkpt>
      <trkpt lat="53.129390208050609" lon="8.865748029202223">
        <ele>0</ele>
        <time>2010-01-01T03:53:32Z</time>
      </trkpt>
      <trkpt lat="53.129103127866983" lon="8.866292433813214">
        <ele>0</ele>
        <time>2010-01-01T03:53:14Z</time>
      </trkpt>
      <trkpt lat="53.12899935990572" lon="8.866988467052579">
        <ele>0</ele>
        <time>2010-01-01T03:52:57Z</time>
      </trkpt>
      <trkpt lat="53.128842785954475" lon="8.867358528077602">
        <ele>0</ele>
        <time>2010-01-01T03:52:46Z</time>
      </trkpt>
      <trkpt lat="53.128634076565504" lon="8.867815677076578">
        <ele>0</ele>
        <time>2010-01-01T03:52:32Z</time>
      </trkpt>
      <trkpt lat="53.128477670252323" lon="8.868250949308276">
        <ele>0</ele>
        <time>2010-01-01T03:52:20Z</time>
      </trkpt>
      <trkpt lat="53.128126636147499" lon="8.870056411251426">
        <ele>0</ele>
        <time>2010-01-01T03:51:35Z</time>
      </trkpt>
      <trkpt lat="53.128584707155824" lon="8.870446337386966">
        <ele>0</ele>
        <time>2010-01-01T03:51:14Z</time>
      </trkpt>
      <trkpt lat="53.12952658161521" lon="8.870878340676427">
        <ele>0</ele>
        <time>2010-01-01T03:50:35Z</time>
      </trkpt>
      <trkpt lat="53.130795601755381" lon="8.871461553499103">
        <ele>0</ele>
        <time>2010-01-01T03:49:42Z</time>
      </trkpt>
      <trkpt lat="53.13101788982749" lon="8.871439173817635">
        <ele>0</ele>
        <time>2010-01-01T03:49:33Z</time>
      </trkpt>
      <trkpt lat="53.13113565556705" lon="8.871504049748182">
        <ele>0</ele>
        <time>2010-01-01T03:49:28Z</time>
      </trkpt>
      <trkpt lat="53.131305724382401" lon="8.871590467169881">
        <ele>0</ele>
        <time>2010-01-01T03:49:21Z</time>
      </trkpt>
      <trkpt lat="53.131593475118279" lon="8.871698342263699">
        <ele>0</ele>
        <time>2010-01-01T03:49:10Z</time>
      </trkpt>
      <trkpt lat="53.131698332726955" lon="8.871893724426627">
        <ele>0</ele>
        <time>2010-01-01T03:49:03Z</time>
      </trkpt>
      <trkpt lat="53.131881980225444" lon="8.872458413243294">
        <ele>0</ele>
        <time>2010-01-01T03:48:48Z</time>
      </trkpt>
      <trkpt lat="53.132182890549302" lon="8.872631499543786">
        <ele>0</ele>
        <time>2010-01-01T03:48:35Z</time>
      </trkpt>
      <trkpt lat="53.132379362359643" lon="8.872913550585508">
        <ele>0</ele>
        <time>2010-01-01T03:48:25Z</time>
      </trkpt>
      <trkpt lat="53.132995432242751" lon="8.874346688389778">
        <ele>0</ele>
        <time>2010-01-01T03:47:42Z</time>
      </trkpt>
      <trkpt lat="53.133126944303513" lon="8.875063844025135">
        <ele>0</ele>
        <time>2010-01-01T03:47:24Z</time>
      </trkpt>
      <trkpt lat="53.133023008704185" lon="8.875716375187039">
        <ele>0</ele>
        <time>2010-01-01T03:47:08Z</time>
      </trkpt>
      <trkpt lat="53.132984368130565" lon="8.876238316297531">
        <ele>0</ele>
        <time>2010-01-01T03:46:55Z</time>
      </trkpt>
      <trkpt lat="53.133011106401682" lon="8.876847010105848">
        <ele>0</ele>
        <time>2010-01-01T03:46:41Z</time>
      </trkpt>
      <trkpt lat="53.132894095033407" lon="8.877477832138538">
        <ele>0</ele>
        <time>2010-01-01T03:46:25Z</time>
      </trkpt>
      <trkpt lat="53.132621012628078" lon="8.878957070410252">
        <ele>0</ele>
        <time>2010-01-01T03:45:48Z</time>
      </trkpt>
      <trkpt lat="53.132269643247128" lon="8.880653902888298">
        <ele>0</ele>
        <time>2010-01-01T03:45:05Z</time>
      </trkpt>
      <trkpt lat="53.132231086492538" lon="8.881284557282925">
        <ele>0</ele>
        <time>2010-01-01T03:44:49Z</time>
      </trkpt>
      <trkpt lat="53.131983820348978" lon="8.88252449221909">
        <ele>0</ele>
        <time>2010-01-01T03:44:18Z</time>
      </trkpt>
      <trkpt lat="53.132090102881193" lon="8.884241776540875">
        <ele>0</ele>
        <time>2010-01-01T03:43:37Z</time>
      </trkpt>
      <trkpt lat="53.132197558879852" lon="8.887220118194818">
        <ele>0</ele>
        <time>2010-01-01T03:42:25Z</time>
      </trkpt>
      <trkpt lat="53.132251370698214" lon="8.888828856870532">
        <ele>0</ele>
        <time>2010-01-01T03:41:46Z</time>
      </trkpt>
      <trkpt lat="53.132343571633101" lon="8.889567805454135">
        <ele>0</ele>
        <time>2010-01-01T03:41:28Z</time>
      </trkpt>
      <trkpt lat="53.13242269679904" lon="8.890285128727555">
        <ele>0</ele>
        <time>2010-01-01T03:41:11Z</time>
      </trkpt>
      <trkpt lat="53.132396964356303" lon="8.89069827273488">
        <ele>0</ele>
        <time>2010-01-01T03:41:01Z</time>
      </trkpt>
      <trkpt lat="53.132279617711902" lon="8.89106816612184">
        <ele>0</ele>
        <time>2010-01-01T03:40:51Z</time>
      </trkpt>
      <trkpt lat="53.132122959941626" lon="8.891438143327832">
        <ele>0</ele>
        <time>2010-01-01T03:40:40Z</time>
      </trkpt>
      <trkpt lat="53.131171111017466" lon="8.894440876320004">
        <ele>0</ele>
        <time>2010-01-01T03:39:18Z</time>
      </trkpt>
      <trkpt lat="53.13113221898675" lon="8.894788809120655">
        <ele>0</ele>
        <time>2010-01-01T03:39:10Z</time>
      </trkpt>
      <trkpt lat="53.130845222622156" lon="8.895572181791067">
        <ele>0</ele>
        <time>2010-01-01T03:38:48Z</time>
      </trkpt>
      <trkpt lat="53.130362760275602" lon="8.89711688272655">
        <ele>0</ele>
        <time>2010-01-01T03:38:06Z</time>
      </trkpt>
      <trkpt lat="53.130363011732697" lon="8.897443022578955">
        <ele>0</ele>
        <time>2010-01-01T03:37:58Z</time>
      </trkpt>
      <trkpt lat="53.130363347008824" lon="8.897812580689788">
        <ele>0</ele>
        <time>2010-01-01T03:37:49Z</time>
      </trkpt>
      <trkpt lat="53.130324371159077" lon="8.898095302283764">
        <ele>0</ele>
        <time>2010-01-01T03:37:42Z</time>
      </trkpt>
      <trkpt lat="53.130194032564759" lon="8.898595701903105">
        <ele>0</ele>
        <time>2010-01-01T03:37:29Z</time>
      </trkpt>
      <trkpt lat="53.130076434463263" lon="8.898726375773549">
        <ele>0</ele>
        <time>2010-01-01T03:37:23Z</time>
      </trkpt>
      <trkpt lat="53.129841154441237" lon="8.898835675790906">
        <ele>0</ele>
        <time>2010-01-01T03:37:14Z</time>
      </trkpt>
      <trkpt lat="53.129723975434899" lon="8.899422911927104">
        <ele>0</ele>
        <time>2010-01-01T03:36:59Z</time>
      </trkpt>
      <trkpt lat="53.129593469202518" lon="8.899727594107389">
        <ele>0</ele>
        <time>2010-01-01T03:36:50Z</time>
      </trkpt>
      <trkpt lat="53.129202034324408" lon="8.900771979242563">
        <ele>0</ele>
        <time>2010-01-01T03:36:20Z</time>
      </trkpt>
      <trkpt lat="53.128967089578509" lon="8.901272546499968">
        <ele>0</ele>
        <time>2010-01-01T03:36:05Z</time>
      </trkpt>
      <trkpt lat="53.128692833706737" lon="8.90162106603384">
        <ele>0</ele>
        <time>2010-01-01T03:35:51Z</time>
      </trkpt>
      <trkpt lat="53.128444477915764" lon="8.901773784309626">
        <ele>0</ele>
        <time>2010-01-01T03:35:40Z</time>
      </trkpt>
      <trkpt lat="53.128052204847336" lon="8.901818124577403">
        <ele>0</ele>
        <time>2010-01-01T03:35:25Z</time>
      </trkpt>
      <trkpt lat="53.127803932875395" lon="8.90197092667222">
        <ele>0</ele>
        <time>2010-01-01T03:35:14Z</time>
      </trkpt>
      <trkpt lat="53.127725562080741" lon="8.902101516723633">
        <ele>0</ele>
        <time>2010-01-01T03:35:10Z</time>
      </trkpt>
      <trkpt lat="53.127451222389936" lon="8.902384741231799">
        <ele>0</ele>
        <time>2010-01-01T03:34:57Z</time>
      </trkpt>
      <trkpt lat="53.126666843891144" lon="8.902669139206409">
        <ele>0</ele>
        <time>2010-01-01T03:34:25Z</time>
      </trkpt>
      <trkpt lat="53.12660213559866" lon="8.903495343402028">
        <ele>0</ele>
        <time>2010-01-01T03:34:05Z</time>
      </trkpt>
      <trkpt lat="53.126577660441399" lon="8.905517058447003">
        <ele>0</ele>
        <time>2010-01-01T03:33:16Z</time>
      </trkpt>
      <trkpt lat="53.126539019867778" lon="8.906321469694376">
        <ele>0</ele>
        <time>2010-01-01T03:32:57Z</time>
      </trkpt>
      <trkpt lat="53.126447657123208" lon="8.906517354771495">
        <ele>0</ele>
        <time>2010-01-01T03:32:51Z</time>
      </trkpt>
      <trkpt lat="53.125925045460463" lon="8.907083636149764">
        <ele>0</ele>
        <time>2010-01-01T03:32:26Z</time>
      </trkpt>
      <trkpt lat="53.125729160383344" lon="8.907410195097327">
        <ele>0</ele>
        <time>2010-01-01T03:32:15Z</time>
      </trkpt>
      <trkpt lat="53.125494383275509" lon="8.908149814233184">
        <ele>0</ele>
        <time>2010-01-01T03:31:55Z</time>
      </trkpt>
      <trkpt lat="53.125115018337965" lon="8.907911432906985">
        <ele>0</ele>
        <time>2010-01-01T03:31:38Z</time>
      </trkpt>
      <trkpt lat="53.12491930089891" lon="8.908542254939675">
        <ele>0</ele>
        <time>2010-01-01T03:31:21Z</time>
      </trkpt>
      <trkpt lat="53.124632639810443" lon="8.909912360832095">
        <ele>0</ele>
        <time>2010-01-01T03:30:46Z</time>
      </trkpt>
      <trkpt lat="53.124515293166041" lon="8.910347381606698">
        <ele>0</ele>
        <time>2010-01-01T03:30:35Z</time>
      </trkpt>
      <trkpt lat="53.123654052615166" lon="8.912761956453323">
        <ele>0</ele>
        <time>2010-01-01T03:29:28Z</time>
      </trkpt>
      <trkpt lat="53.123367056250572" lon="8.913610288873315">
        <ele>0</ele>
        <time>2010-01-01T03:29:04Z</time>
      </trkpt>
      <trkpt lat="53.123459341004491" lon="8.914653500542045">
        <ele>0</ele>
        <time>2010-01-01T03:28:39Z</time>
      </trkpt>
      <trkpt lat="53.123420365154743" lon="8.915001433342695">
        <ele>0</ele>
        <time>2010-01-01T03:28:30Z</time>
      </trkpt>
      <trkpt lat="53.122637160122395" lon="8.916959278285503">
        <ele>0</ele>
        <time>2010-01-01T03:27:34Z</time>
      </trkpt>
      <trkpt lat="53.122428115457296" lon="8.917220458388329">
        <ele>0</ele>
        <time>2010-01-01T03:27:23Z</time>
      </trkpt>
      <trkpt lat="53.122062161564827" lon="8.917503766715527">
        <ele>0</ele>
        <time>2010-01-01T03:27:07Z</time>
      </trkpt>
      <trkpt lat="53.121957806870341" lon="8.917808281257749">
        <ele>0</ele>
        <time>2010-01-01T03:26:59Z</time>
      </trkpt>
      <trkpt lat="53.121957890689373" lon="8.918025624006987">
        <ele>0</ele>
        <time>2010-01-01T03:26:53Z</time>
      </trkpt>
      <trkpt lat="53.122101975604892" lon="8.918351428583264">
        <ele>0</ele>
        <time>2010-01-01T03:26:44Z</time>
      </trkpt>
      <trkpt lat="53.122049756348133" lon="8.918481934815645">
        <ele>0</ele>
        <time>2010-01-01T03:26:40Z</time>
      </trkpt>
      <trkpt lat="53.121840879321098" lon="8.919025752693415">
        <ele>0</ele>
        <time>2010-01-01T03:26:24Z</time>
      </trkpt>
      <trkpt lat="53.121240483596921" lon="8.920678747817874">
        <ele>0</ele>
        <time>2010-01-01T03:25:38Z</time>
      </trkpt>
      <trkpt lat="53.120809989050031" lon="8.922179359942675">
        <ele>0</ele>
        <time>2010-01-01T03:24:58Z</time>
      </trkpt>
      <trkpt lat="53.120679734274745" lon="8.922983771190047">
        <ele>0</ele>
        <time>2010-01-01T03:24:38Z</time>
      </trkpt>
      <trkpt lat="53.12051041983068" lon="8.924049194902182">
        <ele>0</ele>
        <time>2010-01-01T03:24:12Z</time>
      </trkpt>
      <trkpt lat="53.120406232774258" lon="8.924723183736205">
        <ele>0</ele>
        <time>2010-01-01T03:23:55Z</time>
      </trkpt>
      <trkpt lat="53.120276061818004" lon="8.925571097061038">
        <ele>0</ele>
        <time>2010-01-01T03:23:34Z</time>
      </trkpt>
      <trkpt lat="53.120171623304486" lon="8.925897320732474">
        <ele>0</ele>
        <time>2010-01-01T03:23:25Z</time>
      </trkpt>
      <trkpt lat="53.12015863135457" lon="8.926092954352498">
        <ele>0</ele>
        <time>2010-01-01T03:23:20Z</time>
      </trkpt>
      <trkpt lat="53.120158798992634" lon="8.926375508308411">
        <ele>0</ele>
        <time>2010-01-01T03:23:13Z</time>
      </trkpt>
      <trkpt lat="53.120067771524191" lon="8.927114624530077">
        <ele>0</ele>
        <time>2010-01-01T03:22:55Z</time>
      </trkpt>
      <trkpt lat="53.119937432929873" lon="8.927853908389807">
        <ele>0</ele>
        <time>2010-01-01T03:22:37Z</time>
      </trkpt>
      <trkpt lat="53.11971589922905" lon="8.929136591032147">
        <ele>0</ele>
        <time>2010-01-01T03:22:05Z</time>
      </trkpt>
      <trkpt lat="53.119585644453764" lon="8.930028006434441">
        <ele>0</ele>
        <time>2010-01-01T03:21:43Z</time>
      </trkpt>
      <trkpt lat="53.119455389678478" lon="8.930875835940242">
        <ele>0</ele>
        <time>2010-01-01T03:21:22Z</time>
      </trkpt>
      <trkpt lat="53.1193558126688" lon="8.931669937446713">
        <ele>0</ele>
        <time>2010-01-01T03:21:02Z</time>
      </trkpt>
      <trkpt lat="53.119255062192678" lon="8.93243202008307">
        <ele>0</ele>
        <time>2010-01-01T03:20:43Z</time>
      </trkpt>
      <trkpt lat="53.118877205997705" lon="8.933827690780163">
        <ele>0</ele>
        <time>2010-01-01T03:20:07Z</time>
      </trkpt>
      <trkpt lat="53.118592305108905" lon="8.934539398178458">
        <ele>0</ele>
        <time>2010-01-01T03:19:46Z</time>
      </trkpt>
      <trkpt lat="53.118325173854828" lon="8.935221517458558">
        <ele>0</ele>
        <time>2010-01-01T03:19:27Z</time>
      </trkpt>
      <trkpt lat="53.117648586630821" lon="8.937060087919235">
        <ele>0</ele>
        <time>2010-01-01T03:18:35Z</time>
      </trkpt>
      <trkpt lat="53.116740407422185" lon="8.939432334154844">
        <ele>0</ele>
        <time>2010-01-01T03:17:27Z</time>
      </trkpt>
      <trkpt lat="53.115368960425258" lon="8.942457111552358">
        <ele>0</ele>
        <time>2010-01-01T03:15:56Z</time>
      </trkpt>
      <trkpt lat="53.114371430128813" lon="8.944562561810017">
        <ele>0</ele>
        <time>2010-01-01T03:14:52Z</time>
      </trkpt>
      <trkpt lat="53.113961890339851" lon="8.945807777345181">
        <ele>0</ele>
        <time>2010-01-01T03:14:18Z</time>
      </trkpt>
      <trkpt lat="53.113712361082435" lon="8.946104412898421">
        <ele>0</ele>
        <time>2010-01-01T03:14:05Z</time>
      </trkpt>
      <trkpt lat="53.113658968359232" lon="8.946311948820949">
        <ele>0</ele>
        <time>2010-01-01T03:14:00Z</time>
      </trkpt>
      <trkpt lat="53.113623429089785" lon="8.94663792103529">
        <ele>0</ele>
        <time>2010-01-01T03:13:52Z</time>
      </trkpt>
      <trkpt lat="53.113552266731858" lon="8.94699364900589">
        <ele>0</ele>
        <time>2010-01-01T03:13:43Z</time>
      </trkpt>
      <trkpt lat="53.113285219296813" lon="8.947942312806845">
        <ele>0</ele>
        <time>2010-01-01T03:13:18Z</time>
      </trkpt>
      <trkpt lat="53.112839804962277" lon="8.948891144245863">
        <ele>0</ele>
        <time>2010-01-01T03:12:49Z</time>
      </trkpt>
      <trkpt lat="53.112465552985668" lon="8.94924720749259">
        <ele>0</ele>
        <time>2010-01-01T03:12:31Z</time>
      </trkpt>
      <trkpt lat="53.112002536654472" lon="8.950610859319568">
        <ele>0</ele>
        <time>2010-01-01T03:11:54Z</time>
      </trkpt>
      <trkpt lat="53.11164622195065" lon="8.951470674946904">
        <ele>0</ele>
        <time>2010-01-01T03:11:29Z</time>
      </trkpt>
      <trkpt lat="53.111165184527636" lon="8.952419422566891">
        <ele>0</ele>
        <time>2010-01-01T03:10:59Z</time>
      </trkpt>
      <trkpt lat="53.110505947843194" lon="8.953723981976509">
        <ele>0</ele>
        <time>2010-01-01T03:10:18Z</time>
      </trkpt>
      <trkpt lat="53.110203025862575" lon="8.954257741570473">
        <ele>0</ele>
        <time>2010-01-01T03:10:00Z</time>
      </trkpt>
      <trkpt lat="53.110114010050893" lon="8.954583797603846">
        <ele>0</ele>
        <time>2010-01-01T03:09:52Z</time>
      </trkpt>
      <trkpt lat="53.109561642631888" lon="8.955739997327328">
        <ele>0</ele>
        <time>2010-01-01T03:09:16Z</time>
      </trkpt>
      <trkpt lat="53.109116144478321" lon="8.956421948969364">
        <ele>0</ele>
        <time>2010-01-01T03:08:52Z</time>
      </trkpt>
      <trkpt lat="53.108813054859638" lon="8.956600064411759">
        <ele>0</ele>
        <time>2010-01-01T03:08:39Z</time>
      </trkpt>
      <trkpt lat="53.10906333848834" lon="8.958407370373607">
        <ele>0</ele>
        <time>2010-01-01T03:07:54Z</time>
      </trkpt>
      <trkpt lat="53.109206082299352" lon="8.959281351417303">
        <ele>0</ele>
        <time>2010-01-01T03:07:33Z</time>
      </trkpt>
      <trkpt lat="53.109295601025224" lon="8.95982944406569">
        <ele>0</ele>
        <time>2010-01-01T03:07:19Z</time>
      </trkpt>
      <trkpt lat="53.109617214649916" lon="8.961903462186456">
        <ele>0</ele>
        <time>2010-01-01T03:06:28Z</time>
      </trkpt>
      <trkpt lat="53.110313164070249" lon="8.963680760934949">
        <ele>0</ele>
        <time>2010-01-01T03:05:37Z</time>
      </trkpt>
      <trkpt lat="53.110170671716332" lon="8.964006900787354">
        <ele>0</ele>
        <time>2010-01-01T03:05:27Z</time>
      </trkpt>
      <trkpt lat="53.109975038096309" lon="8.965814625844359">
        <ele>0</ele>
        <time>2010-01-01T03:04:43Z</time>
      </trkpt>
      <trkpt lat="53.108852365985513" lon="8.968452662229538">
        <ele>0</ele>
        <time>2010-01-01T03:03:25Z</time>
      </trkpt>
      <trkpt lat="53.10790772549808" lon="8.969964506104589">
        <ele>0</ele>
        <time>2010-01-01T03:02:33Z</time>
      </trkpt>
      <trkpt lat="53.107266090810299" lon="8.97117979824543">
        <ele>0</ele>
        <time>2010-01-01T03:01:54Z</time>
      </trkpt>
      <trkpt lat="53.108425810933113" lon="8.974142214283347">
        <ele>0</ele>
        <time>2010-01-01T03:00:29Z</time>
      </trkpt>
      <trkpt lat="53.109710337594151" lon="8.977756574749947">
        <ele>0</ele>
        <time>2010-01-01T02:58:48Z</time>
      </trkpt>
      <trkpt lat="53.111297953873873" lon="8.98202296346426">
        <ele>0</ele>
        <time>2010-01-01T02:56:47Z</time>
      </trkpt>
      <trkpt lat="53.111726017668843" lon="8.982645152136683">
        <ele>0</ele>
        <time>2010-01-01T02:56:24Z</time>
      </trkpt>
      <trkpt lat="53.113295445218682" lon="8.985193083062768">
        <ele>0</ele>
        <time>2010-01-01T02:54:57Z</time>
      </trkpt>
      <trkpt lat="53.11575653962791" lon="8.989104330539703">
        <ele>0</ele>
        <time>2010-01-01T02:52:41Z</time>
      </trkpt>
      <trkpt lat="53.117236699908972" lon="8.991356380283833">
        <ele>0</ele>
        <time>2010-01-01T02:51:20Z</time>
      </trkpt>
      <trkpt lat="53.117753779515624" lon="8.991534160450101">
        <ele>0</ele>
        <time>2010-01-01T02:50:59Z</time>
      </trkpt>
      <trkpt lat="53.120392821729183" lon="8.992393221706152">
        <ele>0</ele>
        <time>2010-01-01T02:49:12Z</time>
      </trkpt>
      <trkpt lat="53.121480541303754" lon="8.992659766227007">
        <ele>0</ele>
        <time>2010-01-01T02:48:28Z</time>
      </trkpt>
      <trkpt lat="53.120910068973899" lon="8.995772050693631">
        <ele>0</ele>
        <time>2010-01-01T02:47:09Z</time>
      </trkpt>
      <trkpt lat="53.120321743190289" lon="8.998736059293151">
        <ele>0</ele>
        <time>2010-01-01T02:45:54Z</time>
      </trkpt>
      <trkpt lat="53.11967977322638" lon="9.002411356195807">
        <ele>0</ele>
        <time>2010-01-01T02:44:22Z</time>
      </trkpt>
      <trkpt lat="53.119751019403338" lon="9.003745084628463">
        <ele>0</ele>
        <time>2010-01-01T02:43:50Z</time>
      </trkpt>
      <trkpt lat="53.119697459042072" lon="9.005434541031718">
        <ele>0</ele>
        <time>2010-01-01T02:43:10Z</time>
      </trkpt>
      <trkpt lat="53.119536694139242" lon="9.009613590314984">
        <ele>0</ele>
        <time>2010-01-01T02:41:29Z</time>
      </trkpt>
      <trkpt lat="53.119429405778646" lon="9.012636691331863">
        <ele>0</ele>
        <time>2010-01-01T02:40:16Z</time>
      </trkpt>
      <trkpt lat="53.119553960859776" lon="9.014859655871987">
        <ele>0</ele>
        <time>2010-01-01T02:39:23Z</time>
      </trkpt>
      <trkpt lat="53.11969636939466" lon="9.01675664819777">
        <ele>0</ele>
        <time>2010-01-01T02:38:37Z</time>
      </trkpt>
      <trkpt lat="53.118305308744311" lon="9.018149049952626">
        <ele>0</ele>
        <time>2010-01-01T02:37:32Z</time>
      </trkpt>
      <trkpt lat="53.118001967668533" lon="9.019423350691795">
        <ele>0</ele>
        <time>2010-01-01T02:36:59Z</time>
      </trkpt>
      <trkpt lat="53.117752186954021" lon="9.020668063312769">
        <ele>0</ele>
        <time>2010-01-01T02:36:27Z</time>
      </trkpt>
      <trkpt lat="53.117716228589416" lon="9.021972119808197">
        <ele>0</ele>
        <time>2010-01-01T02:35:56Z</time>
      </trkpt>
      <trkpt lat="53.117591086775064" lon="9.023661408573389">
        <ele>0</ele>
        <time>2010-01-01T02:35:15Z</time>
      </trkpt>
      <trkpt lat="53.117412216961384" lon="9.026387957856059">
        <ele>0</ele>
        <time>2010-01-01T02:34:09Z</time>
      </trkpt>
      <trkpt lat="53.117233430966735" lon="9.028314203023911">
        <ele>0</ele>
        <time>2010-01-01T02:33:22Z</time>
      </trkpt>
      <trkpt lat="53.11730450950563" lon="9.029410891234875">
        <ele>0</ele>
        <time>2010-01-01T02:32:56Z</time>
      </trkpt>
      <trkpt lat="53.117321943864226" lon="9.030892727896571">
        <ele>0</ele>
        <time>2010-01-01T02:32:20Z</time>
      </trkpt>
      <trkpt lat="53.117125472053885" lon="9.032107768580317">
        <ele>0</ele>
        <time>2010-01-01T02:31:50Z</time>
      </trkpt>
      <trkpt lat="53.116839816793799" lon="9.033470833674073">
        <ele>0</ele>
        <time>2010-01-01T02:31:15Z</time>
      </trkpt>
      <trkpt lat="53.116874434053898" lon="9.036790234968066">
        <ele>0</ele>
        <time>2010-01-01T02:29:56Z</time>
      </trkpt>
      <trkpt lat="53.116908129304647" lon="9.042747337371111">
        <ele>0</ele>
        <time>2010-01-01T02:27:32Z</time>
      </trkpt>
      <trkpt lat="53.11688968911767" lon="9.044347694143653">
        <ele>0</ele>
        <time>2010-01-01T02:26:54Z</time>
      </trkpt>
      <trkpt lat="53.116887928918004" lon="9.048734027892351">
        <ele>0</ele>
        <time>2010-01-01T02:25:09Z</time>
      </trkpt>
      <trkpt lat="53.116886587813497" lon="9.051964497193694">
        <ele>0</ele>
        <time>2010-01-01T02:23:51Z</time>
      </trkpt>
      <trkpt lat="53.116902848705649" lon="9.055372746661305">
        <ele>0</ele>
        <time>2010-01-01T02:22:29Z</time>
      </trkpt>
      <trkpt lat="53.116853563115001" lon="9.055926287546754">
        <ele>0</ele>
        <time>2010-01-01T02:22:16Z</time>
      </trkpt>
      <trkpt lat="53.116813162341714" lon="9.056380335241556">
        <ele>0</ele>
        <time>2010-01-01T02:22:05Z</time>
      </trkpt>
      <trkpt lat="53.116634292528033" lon="9.057624796405435">
        <ele>0</ele>
        <time>2010-01-01T02:21:34Z</time>
      </trkpt>
      <trkpt lat="53.116331119090319" lon="9.057624377310276">
        <ele>0</ele>
        <time>2010-01-01T02:21:22Z</time>
      </trkpt>
      <trkpt lat="53.116330867633224" lon="9.058246817439795">
        <ele>0</ele>
        <time>2010-01-01T02:21:07Z</time>
      </trkpt>
      <trkpt lat="53.116401862353086" lon="9.05880999751389">
        <ele>0</ele>
        <time>2010-01-01T02:20:53Z</time>
      </trkpt>
      <trkpt lat="53.116704868152738" lon="9.059017868712544">
        <ele>0</ele>
        <time>2010-01-01T02:20:40Z</time>
      </trkpt>
      <trkpt lat="53.116865213960409" lon="9.059403352439404">
        <ele>0</ele>
        <time>2010-01-01T02:20:29Z</time>
      </trkpt>
      <trkpt lat="53.116954145953059" lon="9.059848012402654">
        <ele>0</ele>
        <time>2010-01-01T02:20:17Z</time>
      </trkpt>
      <trkpt lat="53.116935957223177" lon="9.060529712587595">
        <ele>0</ele>
        <time>2010-01-01T02:20:01Z</time>
      </trkpt>
      <trkpt lat="53.116917768493295" lon="9.061181657016277">
        <ele>0</ele>
        <time>2010-01-01T02:19:45Z</time>
      </trkpt>
      <trkpt lat="53.116524405777454" lon="9.06328534707427">
        <ele>0</ele>
        <time>2010-01-01T02:18:52Z</time>
      </trkpt>
      <trkpt lat="53.116148980334401" lon="9.06506298109889">
        <ele>0</ele>
        <time>2010-01-01T02:18:07Z</time>
      </trkpt>
      <trkpt lat="53.115773722529411" lon="9.066514559090137">
        <ele>0</ele>
        <time>2010-01-01T02:17:29Z</time>
      </trkpt>
      <trkpt lat="53.115326715633273" lon="9.068647669628263">
        <ele>0</ele>
        <time>2010-01-01T02:16:35Z</time>
      </trkpt>
      <trkpt lat="53.114772252738476" lon="9.071521488949656">
        <ele>0</ele>
        <time>2010-01-01T02:15:22Z</time>
      </trkpt>
      <trkpt lat="53.114199936389923" lon="9.07436546869576">
        <ele>0</ele>
        <time>2010-01-01T02:14:10Z</time>
      </trkpt>
      <trkpt lat="53.113699536770582" lon="9.076053835451603">
        <ele>0</ele>
        <time>2010-01-01T02:13:25Z</time>
      </trkpt>
      <trkpt lat="53.113591661676764" lon="9.077416816726327">
        <ele>0</ele>
        <time>2010-01-01T02:12:52Z</time>
      </trkpt>
      <trkpt lat="53.11344875022769" lon="9.077890729531646">
        <ele>0</ele>
        <time>2010-01-01T02:12:39Z</time>
      </trkpt>
      <trkpt lat="53.112970478832722" lon="9.079219847917557">
        <ele>0</ele>
        <time>2010-01-01T02:12:02Z</time>
      </trkpt>
      <trkpt lat="53.112841313704848" lon="9.079578761011362">
        <ele>0</ele>
        <time>2010-01-01T02:11:52Z</time>
      </trkpt>
      <trkpt lat="53.112751459702849" lon="9.080675113946199">
        <ele>0</ele>
        <time>2010-01-01T02:11:25Z</time>
      </trkpt>
      <trkpt lat="53.112428924068809" lon="9.082897072657943">
        <ele>0</ele>
        <time>2010-01-01T02:10:30Z</time>
      </trkpt>
      <trkpt lat="53.114567985758185" lon="9.083879180252552">
        <ele>0</ele>
        <time>2010-01-01T02:09:01Z</time>
      </trkpt>
      <trkpt lat="53.117990400642157" lon="9.08542706631124">
        <ele>0</ele>
        <time>2010-01-01T02:06:40Z</time>
      </trkpt>
      <trkpt lat="53.118792800232768" lon="9.085487918928266">
        <ele>0</ele>
        <time>2010-01-01T02:06:07Z</time>
      </trkpt>
      <trkpt lat="53.119684550911188" lon="9.085104363039136">
        <ele>0</ele>
        <time>2010-01-01T02:05:31Z</time>
      </trkpt>
      <trkpt lat="53.121468219906092" lon="9.084366923198104">
        <ele>0</ele>
        <time>2010-01-01T02:04:17Z</time>
      </trkpt>
      <trkpt lat="53.122859448194504" lon="9.083747249096632">
        <ele>0</ele>
        <time>2010-01-01T02:03:19Z</time>
      </trkpt>
      <trkpt lat="53.123359009623528" lon="9.083303594961762">
        <ele>0</ele>
        <time>2010-01-01T02:02:57Z</time>
      </trkpt>
      <trkpt lat="53.123912215232849" lon="9.082682160660625">
        <ele>0</ele>
        <time>2010-01-01T02:02:30Z</time>
      </trkpt>
      <trkpt lat="53.124763481318951" lon="9.080757005140185">
        <ele>0</ele>
        <time>2010-01-01T02:01:32Z</time>
      </trkpt>
      <trkpt lat="53.125833682715893" lon="9.080284768715501">
        <ele>0</ele>
        <time>2010-01-01T02:00:48Z</time>
      </trkpt>
      <trkpt lat="53.12690363265574" lon="9.080108916386962">
        <ele>0</ele>
        <time>2010-01-01T02:00:05Z</time>
      </trkpt>
      <trkpt lat="53.129721209406853" lon="9.079699125140905">
        <ele>0</ele>
        <time>2010-01-01T01:58:12Z</time>
      </trkpt>
      <trkpt lat="53.132342733442783" lon="9.079170394688845">
        <ele>0</ele>
        <time>2010-01-01T01:56:26Z</time>
      </trkpt>
      <trkpt lat="53.132717236876488" lon="9.079052461311221">
        <ele>0</ele>
        <time>2010-01-01T01:56:11Z</time>
      </trkpt>
      <trkpt lat="53.133361469954252" lon="9.079894255846739">
        <ele>0</ele>
        <time>2010-01-01T01:55:38Z</time>
      </trkpt>
      <trkpt lat="53.133592642843723" lon="9.080784162506461">
        <ele>0</ele>
        <time>2010-01-01T01:55:15Z</time>
      </trkpt>
      <trkpt lat="53.133663134649396" lon="9.082059133797884">
        <ele>0</ele>
        <time>2010-01-01T01:54:44Z</time>
      </trkpt>
      <trkpt lat="53.13371560536325" lon="9.083452792838216">
        <ele>0</ele>
        <time>2010-01-01T01:54:11Z</time>
      </trkpt>
      <trkpt lat="53.133683502674103" lon="9.083645576611161">
        <ele>0</ele>
        <time>2010-01-01T01:54:06Z</time>
      </trkpt>
      <trkpt lat="53.134129587560892" lon="9.083593189716339">
        <ele>0</ele>
        <time>2010-01-01T01:53:48Z</time>
      </trkpt>
      <trkpt lat="53.135850057005882" lon="9.0830132458359">
        <ele>0</ele>
        <time>2010-01-01T01:52:38Z</time>
      </trkpt>
      <trkpt lat="53.136132694780827" lon="9.083021879196167">
        <ele>0</ele>
        <time>2010-01-01T01:52:26Z</time>
      </trkpt>
      <trkpt lat="53.136678691953421" lon="9.083325723186135">
        <ele>0</ele>
        <time>2010-01-01T01:52:03Z</time>
      </trkpt>
      <trkpt lat="53.142084097489715" lon="9.086091667413712">
        <ele>0</ele>
        <time>2010-01-01T01:48:17Z</time>
      </trkpt>
      <trkpt lat="53.144864207133651" lon="9.087711134925485">
        <ele>0</ele>
        <time>2010-01-01T01:46:19Z</time>
      </trkpt>
      <trkpt lat="53.144800085574389" lon="9.088209019973874">
        <ele>0</ele>
        <time>2010-01-01T01:46:07Z</time>
      </trkpt>
      <trkpt lat="53.144421055912971" lon="9.094169139862061">
        <ele>0</ele>
        <time>2010-01-01T01:43:43Z</time>
      </trkpt>
      <trkpt lat="53.144301194697618" lon="9.095473699271679">
        <ele>0</ele>
        <time>2010-01-01T01:43:11Z</time>
      </trkpt>
      <trkpt lat="53.146332716569304" lon="9.096931479871273">
        <ele>0</ele>
        <time>2010-01-01T01:41:43Z</time>
      </trkpt>
      <trkpt lat="53.146332465112209" lon="9.097168771550059">
        <ele>0</ele>
        <time>2010-01-01T01:41:37Z</time>
      </trkpt>
      <trkpt lat="53.148097777739167" lon="9.09717271104455">
        <ele>0</ele>
        <time>2010-01-01T01:40:26Z</time>
      </trkpt>
      <trkpt lat="53.149934755638242" lon="9.096702318638563">
        <ele>0</ele>
        <time>2010-01-01T01:39:12Z</time>
      </trkpt>
      <trkpt lat="53.153838040307164" lon="9.09866888076067">
        <ele>0</ele>
        <time>2010-01-01T01:36:29Z</time>
      </trkpt>
      <trkpt lat="53.154675308614969" lon="9.099590387195349">
        <ele>0</ele>
        <time>2010-01-01T01:35:49Z</time>
      </trkpt>
      <trkpt lat="53.1562071852386" lon="9.101462820544839">
        <ele>0</ele>
        <time>2010-01-01T01:34:33Z</time>
      </trkpt>
      <trkpt lat="53.157044285908341" lon="9.102532770484686">
        <ele>0</ele>
        <time>2010-01-01T01:33:50Z</time>
      </trkpt>
      <trkpt lat="53.157774768769741" lon="9.103187145665288">
        <ele>0</ele>
        <time>2010-01-01T01:33:17Z</time>
      </trkpt>
      <trkpt lat="53.158416235819459" lon="9.103752337396145">
        <ele>0</ele>
        <time>2010-01-01T01:32:48Z</time>
      </trkpt>
      <trkpt lat="53.158791828900576" lon="9.102418273687363">
        <ele>0</ele>
        <time>2010-01-01T01:32:13Z</time>
      </trkpt>
      <trkpt lat="53.15913163125515" lon="9.101202730089426">
        <ele>0</ele>
        <time>2010-01-01T01:31:41Z</time>
      </trkpt>
      <trkpt lat="53.160772053524852" lon="9.101295685395598">
        <ele>0</ele>
        <time>2010-01-01T01:30:35Z</time>
      </trkpt>
      <trkpt lat="53.161128452047706" lon="9.101504143327475">
        <ele>0</ele>
        <time>2010-01-01T01:30:20Z</time>
      </trkpt>
      <trkpt lat="53.161823730915785" lon="9.1017135232687">
        <ele>0</ele>
        <time>2010-01-01T01:29:51Z</time>
      </trkpt>
      <trkpt lat="53.16218021325767" lon="9.101862721145153">
        <ele>0</ele>
        <time>2010-01-01T01:29:37Z</time>
      </trkpt>
      <trkpt lat="53.162268055602908" lon="9.103375989943743">
        <ele>0</ele>
        <time>2010-01-01T01:29:00Z</time>
      </trkpt>
      <trkpt lat="53.162961825728416" lon="9.105157814919949">
        <ele>0</ele>
        <time>2010-01-01T01:28:09Z</time>
      </trkpt>
      <trkpt lat="53.163904706016183" lon="9.107563337311149">
        <ele>0</ele>
        <time>2010-01-01T01:27:00Z</time>
      </trkpt>
      <trkpt lat="53.164419438689947" lon="9.110175557434559">
        <ele>0</ele>
        <time>2010-01-01T01:25:54Z</time>
      </trkpt>
      <trkpt lat="53.165076998993754" lon="9.112432217225432">
        <ele>0</ele>
        <time>2010-01-01T01:24:54Z</time>
      </trkpt>
      <trkpt lat="53.165788119658828" lon="9.114689128473401">
        <ele>0</ele>
        <time>2010-01-01T01:23:53Z</time>
      </trkpt>
      <trkpt lat="53.166285585612059" lon="9.116500373929739">
        <ele>0</ele>
        <time>2010-01-01T01:23:05Z</time>
      </trkpt>
      <trkpt lat="53.168298583477736" lon="9.118434581905603">
        <ele>0</ele>
        <time>2010-01-01T01:21:32Z</time>
      </trkpt>
      <trkpt lat="53.169207014143467" lon="9.1193569265306">
        <ele>0</ele>
        <time>2010-01-01T01:20:49Z</time>
      </trkpt>
      <trkpt lat="53.170027770102024" lon="9.118825094774365">
        <ele>0</ele>
        <time>2010-01-01T01:20:14Z</time>
      </trkpt>
      <trkpt lat="53.170598493888974" lon="9.118707999587059">
        <ele>0</ele>
        <time>2010-01-01T01:19:51Z</time>
      </trkpt>
      <trkpt lat="53.171400725841522" lon="9.118828950449824">
        <ele>0</ele>
        <time>2010-01-01T01:19:19Z</time>
      </trkpt>
      <trkpt lat="53.171953679993749" lon="9.118652427569032">
        <ele>0</ele>
        <time>2010-01-01T01:18:56Z</time>
      </trkpt>
      <trkpt lat="53.173237955197692" lon="9.118181196972728">
        <ele>0</ele>
        <time>2010-01-01T01:18:04Z</time>
      </trkpt>
      <trkpt lat="53.174058543518186" lon="9.117767969146371">
        <ele>0</ele>
        <time>2010-01-01T01:17:29Z</time>
      </trkpt>
      <trkpt lat="53.174415361136198" lon="9.117590859532356">
        <ele>0</ele>
        <time>2010-01-01T01:17:15Z</time>
      </trkpt>
      <trkpt lat="53.175878925248981" lon="9.116111034527421">
        <ele>0</ele>
        <time>2010-01-01T01:16:06Z</time>
      </trkpt>
      <trkpt lat="53.177038980647922" lon="9.115016022697091">
        <ele>0</ele>
        <time>2010-01-01T01:15:13Z</time>
      </trkpt>
      <trkpt lat="53.178984420374036" lon="9.113121796399355">
        <ele>0</ele>
        <time>2010-01-01T01:13:43Z</time>
      </trkpt>
      <trkpt lat="53.179448442533612" lon="9.112618463113904">
        <ele>0</ele>
        <time>2010-01-01T01:13:20Z</time>
      </trkpt>
      <trkpt lat="53.180841011926532" lon="9.110752148553729">
        <ele>0</ele>
        <time>2010-01-01T01:12:09Z</time>
      </trkpt>
      <trkpt lat="53.183108400553465" lon="9.107611700892448">
        <ele>0</ele>
        <time>2010-01-01T01:10:11Z</time>
      </trkpt>
      <trkpt lat="53.185661444440484" lon="9.104026257991791">
        <ele>0</ele>
        <time>2010-01-01T01:07:57Z</time>
      </trkpt>
      <trkpt lat="53.189035495743155" lon="9.099343959242105">
        <ele>0</ele>
        <time>2010-01-01T01:05:02Z</time>
      </trkpt>
      <trkpt lat="53.18989229388535" lon="9.098188178613782">
        <ele>0</ele>
        <time>2010-01-01T01:04:18Z</time>
      </trkpt>
      <trkpt lat="53.192605767399073" lon="9.094305094331503">
        <ele>0</ele>
        <time>2010-01-01T01:01:55Z</time>
      </trkpt>
      <trkpt lat="53.193730283528566" lon="9.09273399040103">
        <ele>0</ele>
        <time>2010-01-01T01:00:56Z</time>
      </trkpt>
      <trkpt lat="53.194728903472424" lon="9.092706413939595">
        <ele>0</ele>
        <time>2010-01-01T01:00:16Z</time>
      </trkpt>
      <trkpt lat="53.194746589288116" lon="9.092854941263795">
        <ele>0</ele>
        <time>2010-01-01T01:00:12Z</time>
      </trkpt>
      <trkpt lat="53.194691855460405" lon="9.094428475946188">
        <ele>0</ele>
        <time>2010-01-01T00:59:34Z</time>
      </trkpt>
      <trkpt lat="53.194815823808312" lon="9.095467915758491">
        <ele>0</ele>
        <time>2010-01-01T00:59:09Z</time>
      </trkpt>
      <trkpt lat="53.195206336677074" lon="9.097636230289936">
        <ele>0</ele>
        <time>2010-01-01T00:58:15Z</time>
      </trkpt>
      <trkpt lat="53.195294849574566" lon="9.098408371210098">
        <ele>0</ele>
        <time>2010-01-01T00:57:56Z</time>
      </trkpt>
      <trkpt lat="53.195275655016303" lon="9.098661337047815">
        <ele>0</ele>
        <time>2010-01-01T00:57:50Z</time>
      </trkpt>
      <trkpt lat="53.195258807390928" lon="9.098883373662829">
        <ele>0</ele>
        <time>2010-01-01T00:57:44Z</time>
      </trkpt>
      <trkpt lat="53.1948630977422" lon="9.102861005812883">
        <ele>0</ele>
        <time>2010-01-01T00:56:08Z</time>
      </trkpt>
      <trkpt lat="53.194233700633049" lon="9.108886672183871">
        <ele>0</ele>
        <time>2010-01-01T00:53:41Z</time>
      </trkpt>
      <trkpt lat="53.193441275507212" lon="9.117138488218188">
        <ele>0</ele>
        <time>2010-01-01T00:50:21Z</time>
      </trkpt>
      <trkpt lat="53.193476060405374" lon="9.117999561131001">
        <ele>0</ele>
        <time>2010-01-01T00:50:00Z</time>
      </trkpt>
      <trkpt lat="53.193649733439088" lon="9.122542636469007">
        <ele>0</ele>
        <time>2010-01-01T00:48:11Z</time>
      </trkpt>
      <trkpt lat="53.19396648555994" lon="9.126551784574986">
        <ele>0</ele>
        <time>2010-01-01T00:46:34Z</time>
      </trkpt>
      <trkpt lat="53.194335959851742" lon="9.1311548743397">
        <ele>0</ele>
        <time>2010-01-01T00:44:42Z</time>
      </trkpt>
      <trkpt lat="53.194511141628027" lon="9.13391662761569">
        <ele>0</ele>
        <time>2010-01-01T00:43:36Z</time>
      </trkpt>
      <trkpt lat="53.194844992831349" lon="9.138193242251873">
        <ele>0</ele>
        <time>2010-01-01T00:41:52Z</time>
      </trkpt>
      <trkpt lat="53.194861421361566" lon="9.139410546049476">
        <ele>0</ele>
        <time>2010-01-01T00:41:23Z</time>
      </trkpt>
      <trkpt lat="53.194750444963574" lon="9.140703957527876">
        <ele>0</ele>
        <time>2010-01-01T00:40:52Z</time>
      </trkpt>
      <trkpt lat="53.194680623710155" lon="9.141518007963896">
        <ele>0</ele>
        <time>2010-01-01T00:40:32Z</time>
      </trkpt>
      <trkpt lat="53.194554643705487" lon="9.142527105286717">
        <ele>0</ele>
        <time>2010-01-01T00:40:07Z</time>
      </trkpt>
      <trkpt lat="53.194232610985637" lon="9.143387088552117">
        <ele>0</ele>
        <time>2010-01-01T00:39:43Z</time>
      </trkpt>
      <trkpt lat="53.192962501198053" lon="9.146767426282167">
        <ele>0</ele>
        <time>2010-01-01T00:38:07Z</time>
      </trkpt>
      <trkpt lat="53.192247273400426" lon="9.148368202149868">
        <ele>0</ele>
        <time>2010-01-01T00:37:19Z</time>
      </trkpt>
      <trkpt lat="53.191049164161086" lon="9.15109533816576">
        <ele>0</ele>
        <time>2010-01-01T00:35:58Z</time>
      </trkpt>
      <trkpt lat="53.189475126564503" lon="9.15494916960597">
        <ele>0</ele>
        <time>2010-01-01T00:34:06Z</time>
      </trkpt>
      <trkpt lat="53.188974391669035" lon="9.15607544593513">
        <ele>0</ele>
        <time>2010-01-01T00:33:33Z</time>
      </trkpt>
      <trkpt lat="53.188599050045013" lon="9.156756810843945">
        <ele>0</ele>
        <time>2010-01-01T00:33:11Z</time>
      </trkpt>
      <trkpt lat="53.188344156369567" lon="9.15703073143959">
        <ele>0</ele>
        <time>2010-01-01T00:32:58Z</time>
      </trkpt>
      <trkpt lat="53.187938304618001" lon="9.157466925680637">
        <ele>0</ele>
        <time>2010-01-01T00:32:39Z</time>
      </trkpt>
      <trkpt lat="53.187705790624022" lon="9.158030105754733">
        <ele>0</ele>
        <time>2010-01-01T00:32:23Z</time>
      </trkpt>
      <trkpt lat="53.187132971361279" lon="9.159720065072179">
        <ele>0</ele>
        <time>2010-01-01T00:31:36Z</time>
      </trkpt>
      <trkpt lat="53.18679291754961" lon="9.160639056935906">
        <ele>0</ele>
        <time>2010-01-01T00:31:10Z</time>
      </trkpt>
      <trkpt lat="53.186541628092527" lon="9.161855187267065">
        <ele>0</ele>
        <time>2010-01-01T00:30:39Z</time>
      </trkpt>
      <trkpt lat="53.185974759981036" lon="9.164799498394132">
        <ele>0</ele>
        <time>2010-01-01T00:29:25Z</time>
      </trkpt>
      <trkpt lat="53.185956403613091" lon="9.16515564545989">
        <ele>0</ele>
        <time>2010-01-01T00:29:17Z</time>
      </trkpt>
      <trkpt lat="53.187160883098841" lon="9.170830277726054">
        <ele>0</ele>
        <time>2010-01-01T00:26:52Z</time>
      </trkpt>
      <trkpt lat="53.187833530828357" lon="9.174217153340578">
        <ele>0</ele>
        <time>2010-01-01T00:25:27Z</time>
      </trkpt>
      <trkpt lat="53.187921708449721" lon="9.174900278449059">
        <ele>0</ele>
        <time>2010-01-01T00:25:10Z</time>
      </trkpt>
      <trkpt lat="53.188044503331184" lon="9.176236689090729">
        <ele>0</ele>
        <time>2010-01-01T00:24:37Z</time>
      </trkpt>
      <trkpt lat="53.188239801675081" lon="9.176831217482686">
        <ele>0</ele>
        <time>2010-01-01T00:24:21Z</time>
      </trkpt>
      <trkpt lat="53.187775108963251" lon="9.177541751414537">
        <ele>0</ele>
        <time>2010-01-01T00:23:56Z</time>
      </trkpt>
      <trkpt lat="53.186916382983327" lon="9.179438073188066">
        <ele>0</ele>
        <time>2010-01-01T00:22:59Z</time>
      </trkpt>
      <trkpt lat="53.186324704438448" lon="9.181602615863085">
        <ele>0</ele>
        <time>2010-01-01T00:22:02Z</time>
      </trkpt>
      <trkpt lat="53.185607045888901" lon="9.184449277818203">
        <ele>0</ele>
        <time>2010-01-01T00:20:48Z</time>
      </trkpt>
      <trkpt lat="53.18599839694798" lon="9.185044644400477">
        <ele>0</ele>
        <time>2010-01-01T00:20:27Z</time>
      </trkpt>
      <trkpt lat="53.186211632564664" lon="9.185520485043526">
        <ele>0</ele>
        <time>2010-01-01T00:20:12Z</time>
      </trkpt>
      <trkpt lat="53.186229150742292" lon="9.18572835624218">
        <ele>0</ele>
        <time>2010-01-01T00:20:07Z</time>
      </trkpt>
      <trkpt lat="53.185960426926613" lon="9.18652874417603">
        <ele>0</ele>
        <time>2010-01-01T00:19:45Z</time>
      </trkpt>
      <trkpt lat="53.184116994962096" lon="9.190854476764798">
        <ele>0</ele>
        <time>2010-01-01T00:17:38Z</time>
      </trkpt>
      <trkpt lat="53.182362578809261" lon="9.195120949298143">
        <ele>0</ele>
        <time>2010-01-01T00:15:34Z</time>
      </trkpt>
      <trkpt lat="53.181678196415305" lon="9.199243588373065">
        <ele>0</ele>
        <time>2010-01-01T00:13:51Z</time>
      </trkpt>
      <trkpt lat="53.181372173130512" lon="9.200963722541928">
        <ele>0</ele>
        <time>2010-01-01T00:13:08Z</time>
      </trkpt>
      <trkpt lat="53.180087981745601" lon="9.201195146888494">
        <ele>0</ele>
        <time>2010-01-01T00:12:16Z</time>
      </trkpt>
      <trkpt lat="53.17971364594996" lon="9.201134042814374">
        <ele>0</ele>
        <time>2010-01-01T00:12:01Z</time>
      </trkpt>
      <trkpt lat="53.179285749793053" lon="9.201102359220386">
        <ele>0</ele>
        <time>2010-01-01T00:11:44Z</time>
      </trkpt>
      <trkpt lat="53.178480165079236" lon="9.202998010441661">
        <ele>0</ele>
        <time>2010-01-01T00:10:49Z</time>
      </trkpt>
      <trkpt lat="53.177549103274941" lon="9.205249221995473">
        <ele>0</ele>
        <time>2010-01-01T00:09:43Z</time>
      </trkpt>
      <trkpt lat="53.177207624539733" lon="9.206790905445814">
        <ele>0</ele>
        <time>2010-01-01T00:09:03Z</time>
      </trkpt>
      <trkpt lat="53.176882406696677" lon="9.209222998470068">
        <ele>0</ele>
        <time>2010-01-01T00:08:04Z</time>
      </trkpt>
      <trkpt lat="53.176680570468307" lon="9.212427232414484">
        <ele>0</ele>
        <time>2010-01-01T00:06:46Z</time>
      </trkpt>
      <trkpt lat="53.176586776971817" lon="9.215008774772286">
        <ele>0</ele>
        <time>2010-01-01T00:05:44Z</time>
      </trkpt>
      <trkpt lat="53.176222080364823" lon="9.219429055228829">
        <ele>0</ele>
        <time>2010-01-01T00:03:57Z</time>
      </trkpt>
      <trkpt lat="53.175727799534798" lon="9.226282015442848">
        <ele>0</ele>
        <time>2010-01-01T00:01:12Z</time>
      </trkpt>
      <trkpt lat="53.175727799534798" lon="9.226282015442848">
        <ele>0</ele>
        <time>2010-01-01T00:00:00Z</time>
      </trkpt>
      <trkpt lat="53.175564436241984" lon="9.227636614814401">
        <ele>0</ele>
        <time>2010-01-01T00:00:33Z</time>
      </trkpt>
      <trkpt lat="53.175509199500084" lon="9.228556277230382">
        <ele>0</ele>
        <time>2010-01-01T00:00:55Z</time>
      </trkpt>
      <trkpt lat="53.175490675494075" lon="9.228942012414336">
        <ele>0</ele>
        <time>2010-01-01T00:01:04Z</time>
      </trkpt>
      <trkpt lat="53.17536536604166" lon="9.229178801178932">
        <ele>0</ele>
        <time>2010-01-01T00:01:12Z</time>
      </trkpt>
      <trkpt lat="53.17536536604166" lon="9.229178801178932">
        <ele>0</ele>
        <time>2010-01-01T00:01:12Z</time>
      </trkpt>
      <trkpt lat="53.175490675494075" lon="9.228942012414336">
        <ele>0</ele>
        <time>2010-01-01T00:01:04Z</time>
      </trkpt>
      <trkpt lat="53.175509199500084" lon="9.228556277230382">
        <ele>0</ele>
        <time>2010-01-01T00:00:55Z</time>
      </trkpt>
      <trkpt lat="53.175564436241984" lon="9.227636614814401">
        <ele>0</ele>
        <time>2010-01-01T00:00:33Z</time>
      </trkpt>
      <trkpt lat="53.175727799534798" lon="9.226282015442848">
        <ele>0</ele>
        <time>2010-01-01T00:00:00Z</time>
      </trkpt>
      <trkpt lat="53.175727799534798" lon="9.226282015442848">
        <ele>0</ele>
        <time>2010-01-01T04:41:00Z</time>
      </trkpt>
      <trkpt lat="53.177417507395148" lon="9.228457538411021">
        <ele>0</ele>
        <time>2010-01-01T04:42:25Z</time>
      </trkpt>
      <trkpt lat="53.177691092714667" lon="9.228836819529533">
        <ele>0</ele>
        <time>2010-01-01T04:42:39Z</time>
      </trkpt>
      <trkpt lat="53.177933245897293" lon="9.229172598570585">
        <ele>0</ele>
        <time>2010-01-01T04:42:52Z</time>
      </trkpt>
      <trkpt lat="53.178075067698956" lon="9.229588843882084">
        <ele>0</ele>
        <time>2010-01-01T04:43:03Z</time>
      </trkpt>
      <trkpt lat="53.17837773822248" lon="9.229827895760536">
        <ele>0</ele>
        <time>2010-01-01T04:43:17Z</time>
      </trkpt>
      <trkpt lat="53.178698010742664" lon="9.230215474963188">
        <ele>0</ele>
        <time>2010-01-01T04:43:33Z</time>
      </trkpt>
      <trkpt lat="53.179107801988721" lon="9.230336425825953">
        <ele>0</ele>
        <time>2010-01-01T04:43:49Z</time>
      </trkpt>
      <trkpt lat="53.182564079761505" lon="9.231868721544743">
        <ele>0</ele>
        <time>2010-01-01T04:46:12Z</time>
      </trkpt>
      <trkpt lat="53.185396827757359" lon="9.2330417688936">
        <ele>0</ele>
        <time>2010-01-01T04:48:09Z</time>
      </trkpt>
      <trkpt lat="53.189708311110735" lon="9.234846476465464">
        <ele>0</ele>
        <time>2010-01-01T04:51:07Z</time>
      </trkpt>
      <trkpt lat="53.190777255222201" lon="9.235297674313188">
        <ele>0</ele>
        <time>2010-01-01T04:51:51Z</time>
      </trkpt>
      <trkpt lat="53.191079925745726" lon="9.235536810010672">
        <ele>0</ele>
        <time>2010-01-01T04:52:05Z</time>
      </trkpt>
      <trkpt lat="53.193765822798014" lon="9.238817486912012">
        <ele>0</ele>
        <time>2010-01-01T04:54:18Z</time>
      </trkpt>
      <trkpt lat="53.194726472720504" lon="9.239921383559704">
        <ele>0</ele>
        <time>2010-01-01T04:55:05Z</time>
      </trkpt>
      <trkpt lat="53.197592413052917" lon="9.242283152416348">
        <ele>0</ele>
        <time>2010-01-01T04:57:13Z</time>
      </trkpt>
      <trkpt lat="53.198820864781737" lon="9.243210610002279">
        <ele>0</ele>
        <time>2010-01-01T04:58:07Z</time>
      </trkpt>
      <trkpt lat="53.200512919574976" lon="9.244111077859998">
        <ele>0</ele>
        <time>2010-01-01T04:59:18Z</time>
      </trkpt>
      <trkpt lat="53.200441086664796" lon="9.24437795765698">
        <ele>0</ele>
        <time>2010-01-01T04:59:25Z</time>
      </trkpt>
      <trkpt lat="53.200243273749948" lon="9.245178597047925">
        <ele>0</ele>
        <time>2010-01-01T04:59:45Z</time>
      </trkpt>
      <trkpt lat="53.200045712292194" lon="9.245860381051898">
        <ele>0</ele>
        <time>2010-01-01T05:00:04Z</time>
      </trkpt>
      <trkpt lat="53.199170809239149" lon="9.24644929356873">
        <ele>0</ele>
        <time>2010-01-01T05:00:41Z</time>
      </trkpt>
      <trkpt lat="53.198561444878578" lon="9.247930459678173">
        <ele>0</ele>
        <time>2010-01-01T05:01:24Z</time>
      </trkpt>
      <trkpt lat="53.198362877592444" lon="9.249117001891136">
        <ele>0</ele>
        <time>2010-01-01T05:01:54Z</time>
      </trkpt>
      <trkpt lat="53.199467025697231" lon="9.249747069552541">
        <ele>0</ele>
        <time>2010-01-01T05:02:41Z</time>
      </trkpt>
      <trkpt lat="53.200304042547941" lon="9.250227017328143">
        <ele>0</ele>
        <time>2010-01-01T05:03:16Z</time>
      </trkpt>
      <trkpt lat="53.200945258140564" lon="9.250557431951165">
        <ele>0</ele>
        <time>2010-01-01T05:03:43Z</time>
      </trkpt>
      <trkpt lat="53.201908841729164" lon="9.250236405059695">
        <ele>0</ele>
        <time>2010-01-01T05:04:22Z</time>
      </trkpt>
      <trkpt lat="53.202640162780881" lon="9.250092152506113">
        <ele>0</ele>
        <time>2010-01-01T05:04:52Z</time>
      </trkpt>
      <trkpt lat="53.20353333838284" lon="9.249325292184949">
        <ele>0</ele>
        <time>2010-01-01T05:05:32Z</time>
      </trkpt>
      <trkpt lat="53.203761409968138" lon="9.251078702509403">
        <ele>0</ele>
        <time>2010-01-01T05:06:15Z</time>
      </trkpt>
      <trkpt lat="53.204221576452255" lon="9.252714766189456">
        <ele>0</ele>
        <time>2010-01-01T05:06:58Z</time>
      </trkpt>
      <trkpt lat="53.205426558852196" lon="9.256226280704141">
        <ele>0</ele>
        <time>2010-01-01T05:08:35Z</time>
      </trkpt>
      <trkpt lat="53.205780694261193" lon="9.257356999441981">
        <ele>0</ele>
        <time>2010-01-01T05:09:06Z</time>
      </trkpt>
      <trkpt lat="53.206486785784364" lon="9.260657792910933">
        <ele>0</ele>
        <time>2010-01-01T05:10:30Z</time>
      </trkpt>
      <trkpt lat="53.207356994971633" lon="9.262237194925547">
        <ele>0</ele>
        <time>2010-01-01T05:11:21Z</time>
      </trkpt>
      <trkpt lat="53.20772965438664" lon="9.263041354715824">
        <ele>0</ele>
        <time>2010-01-01T05:11:46Z</time>
      </trkpt>
      <trkpt lat="53.207941381260753" lon="9.264052463695407">
        <ele>0</ele>
        <time>2010-01-01T05:12:12Z</time>
      </trkpt>
      <trkpt lat="53.208060739561915" lon="9.26651825197041">
        <ele>0</ele>
        <time>2010-01-01T05:13:11Z</time>
      </trkpt>
      <trkpt lat="53.208073731511831" lon="9.268656810745597">
        <ele>0</ele>
        <time>2010-01-01T05:14:02Z</time>
      </trkpt>
      <trkpt lat="53.20804925635457" lon="9.27156725898385">
        <ele>0</ele>
        <time>2010-01-01T05:15:12Z</time>
      </trkpt>
      <trkpt lat="53.207863932475448" lon="9.274625144898891">
        <ele>0</ele>
        <time>2010-01-01T05:16:26Z</time>
      </trkpt>
      <trkpt lat="53.207305697724223" lon="9.276997558772564">
        <ele>0</ele>
        <time>2010-01-01T05:17:27Z</time>
      </trkpt>
      <trkpt lat="53.206585692241788" lon="9.279903396964073">
        <ele>0</ele>
        <time>2010-01-01T05:18:42Z</time>
      </trkpt>
      <trkpt lat="53.206332726404071" lon="9.281297642737627">
        <ele>0</ele>
        <time>2010-01-01T05:19:17Z</time>
      </trkpt>
      <trkpt lat="53.206223342567682" lon="9.282306656241417">
        <ele>0</ele>
        <time>2010-01-01T05:19:42Z</time>
      </trkpt>
      <trkpt lat="53.206291235983372" lon="9.283762341365218">
        <ele>0</ele>
        <time>2010-01-01T05:20:17Z</time>
      </trkpt>
      <trkpt lat="53.20671527646482" lon="9.285368900746107">
        <ele>0</ele>
        <time>2010-01-01T05:20:59Z</time>
      </trkpt>
      <trkpt lat="53.208773788064718" lon="9.289451641961932">
        <ele>0</ele>
        <time>2010-01-01T05:23:07Z</time>
      </trkpt>
      <trkpt lat="53.209359431639314" lon="9.290613876655698">
        <ele>0</ele>
        <time>2010-01-01T05:23:43Z</time>
      </trkpt>
      <trkpt lat="53.209536289796233" lon="9.291179403662682">
        <ele>0</ele>
        <time>2010-01-01T05:23:58Z</time>
      </trkpt>
      <trkpt lat="53.210373725742102" lon="9.291452402248979">
        <ele>0</ele>
        <time>2010-01-01T05:24:32Z</time>
      </trkpt>
      <trkpt lat="53.211050229147077" lon="9.291872838512063">
        <ele>0</ele>
        <time>2010-01-01T05:25:01Z</time>
      </trkpt>
      <trkpt lat="53.211975172162056" lon="9.292799960821867">
        <ele>0</ele>
        <time>2010-01-01T05:25:45Z</time>
      </trkpt>
      <trkpt lat="53.213042104616761" lon="9.293965715914965">
        <ele>0</ele>
        <time>2010-01-01T05:26:36Z</time>
      </trkpt>
      <trkpt lat="53.214304754510522" lon="9.295311011373997">
        <ele>0</ele>
        <time>2010-01-01T05:27:36Z</time>
      </trkpt>
      <trkpt lat="53.214873969554901" lon="9.2958496324718">
        <ele>0</ele>
        <time>2010-01-01T05:28:02Z</time>
      </trkpt>
      <trkpt lat="53.214787384495139" lon="9.296229416504502">
        <ele>0</ele>
        <time>2010-01-01T05:28:12Z</time>
      </trkpt>
      <trkpt lat="53.215389624238014" lon="9.297837652266026">
        <ele>0</ele>
        <time>2010-01-01T05:28:57Z</time>
      </trkpt>
      <trkpt lat="53.216009214520454" lon="9.299624338746071">
        <ele>0</ele>
        <time>2010-01-01T05:29:46Z</time>
      </trkpt>
      <trkpt lat="53.217372111976147" lon="9.303584871813655">
        <ele>0</ele>
        <time>2010-01-01T05:31:36Z</time>
      </trkpt>
      <trkpt lat="53.219584599137306" lon="9.309928379952908">
        <ele>0</ele>
        <time>2010-01-01T05:34:32Z</time>
      </trkpt>
      <trkpt lat="53.219774030148983" lon="9.311153562739491">
        <ele>0</ele>
        <time>2010-01-01T05:35:02Z</time>
      </trkpt>
      <trkpt lat="53.219753997400403" lon="9.312014970928431">
        <ele>0</ele>
        <time>2010-01-01T05:35:23Z</time>
      </trkpt>
      <trkpt lat="53.219446633011103" lon="9.313616920262575">
        <ele>0</ele>
        <time>2010-01-01T05:36:03Z</time>
      </trkpt>
      <trkpt lat="53.219319060444832" lon="9.314655773341656">
        <ele>0</ele>
        <time>2010-01-01T05:36:29Z</time>
      </trkpt>
      <trkpt lat="53.219066932797432" lon="9.315604604780674">
        <ele>0</ele>
        <time>2010-01-01T05:36:54Z</time>
      </trkpt>
      <trkpt lat="53.218509117141366" lon="9.31750176474452">
        <ele>0</ele>
        <time>2010-01-01T05:37:44Z</time>
      </trkpt>
      <trkpt lat="53.218577345833182" lon="9.318660814315081">
        <ele>0</ele>
        <time>2010-01-01T05:38:12Z</time>
      </trkpt>
      <trkpt lat="53.218682706356049" lon="9.319285517558455">
        <ele>0</ele>
        <time>2010-01-01T05:38:28Z</time>
      </trkpt>
      <trkpt lat="53.218948245048523" lon="9.319970738142729">
        <ele>0</ele>
        <time>2010-01-01T05:38:47Z</time>
      </trkpt>
      <trkpt lat="53.219908056780696" lon="9.321106821298599">
        <ele>0</ele>
        <time>2010-01-01T05:39:34Z</time>
      </trkpt>
      <trkpt lat="53.221330130472779" lon="9.322751518338919">
        <ele>0</ele>
        <time>2010-01-01T05:40:44Z</time>
      </trkpt>
      <trkpt lat="53.222112078219652" lon="9.323678389191628">
        <ele>0</ele>
        <time>2010-01-01T05:41:22Z</time>
      </trkpt>
      <trkpt lat="53.223071219399571" lon="9.325052350759506">
        <ele>0</ele>
        <time>2010-01-01T05:42:13Z</time>
      </trkpt>
      <trkpt lat="53.223764738067985" lon="9.325740924105048">
        <ele>0</ele>
        <time>2010-01-01T05:42:45Z</time>
      </trkpt>
      <trkpt lat="53.224387681111693" lon="9.326161611825228">
        <ele>0</ele>
        <time>2010-01-01T05:43:12Z</time>
      </trkpt>
      <trkpt lat="53.224993860349059" lon="9.326166221871972">
        <ele>0</ele>
        <time>2010-01-01T05:43:36Z</time>
      </trkpt>
      <trkpt lat="53.22556366212666" lon="9.326467718929052">
        <ele>0</ele>
        <time>2010-01-01T05:44:00Z</time>
      </trkpt>
      <trkpt lat="53.226008070632815" lon="9.32697624899447">
        <ele>0</ele>
        <time>2010-01-01T05:44:21Z</time>
      </trkpt>
      <trkpt lat="53.227055221796036" lon="9.32873728685081">
        <ele>0</ele>
        <time>2010-01-01T05:45:21Z</time>
      </trkpt>
      <trkpt lat="53.228190969675779" lon="9.330677445977926">
        <ele>0</ele>
        <time>2010-01-01T05:46:26Z</time>
      </trkpt>
      <trkpt lat="53.229273492470384" lon="9.33252808637917">
        <ele>0</ele>
        <time>2010-01-01T05:47:28Z</time>
      </trkpt>
      <trkpt lat="53.230568245053291" lon="9.334974847733974">
        <ele>0</ele>
        <time>2010-01-01T05:48:46Z</time>
      </trkpt>
      <trkpt lat="53.231703909114003" lon="9.336945014074445">
        <ele>0</ele>
        <time>2010-01-01T05:49:52Z</time>
      </trkpt>
      <trkpt lat="53.232803530991077" lon="9.339004196226597">
        <ele>0</ele>
        <time>2010-01-01T05:50:58Z</time>
      </trkpt>
      <trkpt lat="53.235905840992928" lon="9.345269836485386">
        <ele>0</ele>
        <time>2010-01-01T05:54:13Z</time>
      </trkpt>
      <trkpt lat="53.236615620553493" lon="9.346464341506362">
        <ele>0</ele>
        <time>2010-01-01T05:54:53Z</time>
      </trkpt>
      <trkpt lat="53.238691734150052" lon="9.349899077787995">
        <ele>0</ele>
        <time>2010-01-01T05:56:50Z</time>
      </trkpt>
      <trkpt lat="53.239454654976726" lon="9.351213108748198">
        <ele>0</ele>
        <time>2010-01-01T05:57:34Z</time>
      </trkpt>
      <trkpt lat="53.239775011315942" lon="9.351394074037671">
        <ele>0</ele>
        <time>2010-01-01T05:57:47Z</time>
      </trkpt>
      <trkpt lat="53.240557378157973" lon="9.352143500000238">
        <ele>0</ele>
        <time>2010-01-01T05:58:23Z</time>
      </trkpt>
      <trkpt lat="53.241002541035414" lon="9.352355226874352">
        <ele>0</ele>
        <time>2010-01-01T05:58:42Z</time>
      </trkpt>
      <trkpt lat="53.242676239460707" lon="9.353141868487">
        <ele>0</ele>
        <time>2010-01-01T05:59:52Z</time>
      </trkpt>
      <trkpt lat="53.243087707087398" lon="9.352699387818575">
        <ele>0</ele>
        <time>2010-01-01T06:00:11Z</time>
      </trkpt>
      <trkpt lat="53.244357900694013" lon="9.351253258064389">
        <ele>0</ele>
        <time>2010-01-01T06:01:13Z</time>
      </trkpt>
      <trkpt lat="53.24544059112668" lon="9.352956544607878">
        <ele>0</ele>
        <time>2010-01-01T06:02:12Z</time>
      </trkpt>
      <trkpt lat="53.245973344892263" lon="9.353674370795488">
        <ele>0</ele>
        <time>2010-01-01T06:02:40Z</time>
      </trkpt>
      <trkpt lat="53.24648967012763" lon="9.353946195915341">
        <ele>0</ele>
        <time>2010-01-01T06:03:01Z</time>
      </trkpt>
      <trkpt lat="53.246970791369677" lon="9.354039318859577">
        <ele>0</ele>
        <time>2010-01-01T06:03:21Z</time>
      </trkpt>
      <trkpt lat="53.253799611702561" lon="9.354155324399471">
        <ele>0</ele>
        <time>2010-01-01T06:07:54Z</time>
      </trkpt>
      <trkpt lat="53.25773986056447" lon="9.354247357696295">
        <ele>0</ele>
        <time>2010-01-01T06:10:32Z</time>
      </trkpt>
      <trkpt lat="53.260146891698241" lon="9.354297062382102">
        <ele>0</ele>
        <time>2010-01-01T06:12:08Z</time>
      </trkpt>
      <trkpt lat="53.262324258685112" lon="9.353601364418864">
        <ele>0</ele>
        <time>2010-01-01T06:13:37Z</time>
      </trkpt>
      <trkpt lat="53.265197658911347" lon="9.352703159675002">
        <ele>0</ele>
        <time>2010-01-01T06:15:34Z</time>
      </trkpt>
      <trkpt lat="53.267589351162314" lon="9.351890115067363">
        <ele>0</ele>
        <time>2010-01-01T06:17:12Z</time>
      </trkpt>
      <trkpt lat="53.26924804598093" lon="9.351755082607269">
        <ele>0</ele>
        <time>2010-01-01T06:18:18Z</time>
      </trkpt>
      <trkpt lat="53.271566480398178" lon="9.351595658808947">
        <ele>0</ele>
        <time>2010-01-01T06:19:51Z</time>
      </trkpt>
      <trkpt lat="53.273456012830138" lon="9.351759944111109">
        <ele>0</ele>
        <time>2010-01-01T06:21:07Z</time>
      </trkpt>
      <trkpt lat="53.275237670168281" lon="9.35222078114748">
        <ele>0</ele>
        <time>2010-01-01T06:22:19Z</time>
      </trkpt>
      <trkpt lat="53.275923142209649" lon="9.349549133330584">
        <ele>0</ele>
        <time>2010-01-01T06:23:28Z</time>
      </trkpt>
      <trkpt lat="53.277331553399563" lon="9.343492034822702">
        <ele>0</ele>
        <time>2010-01-01T06:26:04Z</time>
      </trkpt>
      <trkpt lat="53.278883630409837" lon="9.336959682404995">
        <ele>0</ele>
        <time>2010-01-01T06:28:52Z</time>
      </trkpt>
      <trkpt lat="53.279984509572387" lon="9.332267828285694">
        <ele>0</ele>
        <time>2010-01-01T06:30:53Z</time>
      </trkpt>
      <trkpt lat="53.280796632170677" lon="9.328763606026769">
        <ele>0</ele>
        <time>2010-01-01T06:32:23Z</time>
      </trkpt>
      <trkpt lat="53.281211452558637" lon="9.327041208744049">
        <ele>0</ele>
        <time>2010-01-01T06:33:07Z</time>
      </trkpt>
      <trkpt lat="53.281482020393014" lon="9.325912753120065">
        <ele>0</ele>
        <time>2010-01-01T06:33:36Z</time>
      </trkpt>
      <trkpt lat="53.282128097489476" lon="9.324370566755533">
        <ele>0</ele>
        <time>2010-01-01T06:34:22Z</time>
      </trkpt>
      <trkpt lat="53.282738300040364" lon="9.322917396202683">
        <ele>0</ele>
        <time>2010-01-01T06:35:04Z</time>
      </trkpt>
      <trkpt lat="53.283329978585243" lon="9.321731775999069">
        <ele>0</ele>
        <time>2010-01-01T06:35:41Z</time>
      </trkpt>
      <trkpt lat="53.283741865307093" lon="9.321050578728318">
        <ele>0</ele>
        <time>2010-01-01T06:36:04Z</time>
      </trkpt>
      <trkpt lat="53.282940974459052" lon="9.320509023964405">
        <ele>0</ele>
        <time>2010-01-01T06:36:39Z</time>
      </trkpt>
      <trkpt lat="53.280555568635464" lon="9.319063145667315">
        <ele>0</ele>
        <time>2010-01-01T06:38:20Z</time>
      </trkpt>
      <trkpt lat="53.280809624120593" lon="9.317399002611637">
        <ele>0</ele>
        <time>2010-01-01T06:39:01Z</time>
      </trkpt>
      <trkpt lat="53.281082455068827" lon="9.315377958118916">
        <ele>0</ele>
        <time>2010-01-01T06:39:51Z</time>
      </trkpt>
      <trkpt lat="53.281213631853461" lon="9.312969082966447">
        <ele>0</ele>
        <time>2010-01-01T06:40:49Z</time>
      </trkpt>
      <trkpt lat="53.281126376241446" lon="9.312254441902041">
        <ele>0</ele>
        <time>2010-01-01T06:41:06Z</time>
      </trkpt>
      <trkpt lat="53.281806064769626" lon="9.311426393687725">
        <ele>0</ele>
        <time>2010-01-01T06:41:40Z</time>
      </trkpt>
      <trkpt lat="53.282986572012305" lon="9.310006834566593">
        <ele>0</ele>
        <time>2010-01-01T06:42:38Z</time>
      </trkpt>
      <trkpt lat="53.28425626270473" lon="9.308587945997715">
        <ele>0</ele>
        <time>2010-01-01T06:43:39Z</time>
      </trkpt>
      <trkpt lat="53.285881597548723" lon="9.300536289811134">
        <ele>0</ele>
        <time>2010-01-01T06:47:03Z</time>
      </trkpt>
      <trkpt lat="53.286928245797753" lon="9.295574622228742">
        <ele>0</ele>
        <time>2010-01-01T06:49:09Z</time>
      </trkpt>
      <trkpt lat="53.288310253992677" lon="9.299065601080656">
        <ele>0</ele>
        <time>2010-01-01T06:50:49Z</time>
      </trkpt>
      <trkpt lat="53.290567249059677" lon="9.302027346566319">
        <ele>0</ele>
        <time>2010-01-01T06:52:44Z</time>
      </trkpt>
      <trkpt lat="53.290959605947137" lon="9.302000356838107">
        <ele>0</ele>
        <time>2010-01-01T06:52:59Z</time>
      </trkpt>
      <trkpt lat="53.29463766887784" lon="9.301513368263841">
        <ele>0</ele>
        <time>2010-01-01T06:55:27Z</time>
      </trkpt>
      <trkpt lat="53.29454236663878" lon="9.299243716523051">
        <ele>0</ele>
        <time>2010-01-01T06:56:21Z</time>
      </trkpt>
      <trkpt lat="53.294264925643802" lon="9.290582528337836">
        <ele>0</ele>
        <time>2010-01-01T06:59:49Z</time>
      </trkpt>
      <trkpt lat="53.294043643400073" lon="9.284950643777847">
        <ele>0</ele>
        <time>2010-01-01T07:02:04Z</time>
      </trkpt>
      <trkpt lat="53.293964937329292" lon="9.282170617952943">
        <ele>0</ele>
        <time>2010-01-01T07:03:11Z</time>
      </trkpt>
      <trkpt lat="53.294030483812094" lon="9.281529653817415">
        <ele>0</ele>
        <time>2010-01-01T07:03:26Z</time>
      </trkpt>
      <trkpt lat="53.294395431876183" lon="9.280676795169711">
        <ele>0</ele>
        <time>2010-01-01T07:03:51Z</time>
      </trkpt>
      <trkpt lat="53.294674549251795" lon="9.280037172138691">
        <ele>0</ele>
        <time>2010-01-01T07:04:10Z</time>
      </trkpt>
      <trkpt lat="53.294848725199699" lon="9.278577296063304">
        <ele>0</ele>
        <time>2010-01-01T07:04:46Z</time>
      </trkpt>
      <trkpt lat="53.29563838429749" lon="9.278724985197186">
        <ele>0</ele>
        <time>2010-01-01T07:05:18Z</time>
      </trkpt>
      <trkpt lat="53.295998806133866" lon="9.281341815367341">
        <ele>0</ele>
        <time>2010-01-01T07:06:22Z</time>
      </trkpt>
      <trkpt lat="53.296422511339188" lon="9.281189013272524">
        <ele>0</ele>
        <time>2010-01-01T07:06:39Z</time>
      </trkpt>
      <trkpt lat="53.296828782185912" lon="9.280942250043154">
        <ele>0</ele>
        <time>2010-01-01T07:06:57Z</time>
      </trkpt>
      <trkpt lat="53.297320213168859" lon="9.280767319723964">
        <ele>0</ele>
        <time>2010-01-01T07:07:17Z</time>
      </trkpt>
      <trkpt lat="53.297597905620933" lon="9.280544947832823">
        <ele>0</ele>
        <time>2010-01-01T07:07:29Z</time>
      </trkpt>
      <trkpt lat="53.298048432916403" lon="9.280039770528674">
        <ele>0</ele>
        <time>2010-01-01T07:07:51Z</time>
      </trkpt>
      <trkpt lat="53.298339201137424" lon="9.279678761959076">
        <ele>0</ele>
        <time>2010-01-01T07:08:05Z</time>
      </trkpt>
      <trkpt lat="53.298540953546762" lon="9.280163990333676">
        <ele>0</ele>
        <time>2010-01-01T07:08:19Z</time>
      </trkpt>
      <trkpt lat="53.298974214121699" lon="9.280820125713944">
        <ele>0</ele>
        <time>2010-01-01T07:08:43Z</time>
      </trkpt>
      <trkpt lat="53.299724813550711" lon="9.282155698165298">
        <ele>0</ele>
        <time>2010-01-01T07:09:27Z</time>
      </trkpt>
      <trkpt lat="53.300117086619139" lon="9.281746996566653">
        <ele>0</ele>
        <time>2010-01-01T07:09:45Z</time>
      </trkpt>
      <trkpt lat="53.302468294277787" lon="9.286504983901978">
        <ele>0</ele>
        <time>2010-01-01T07:12:13Z</time>
      </trkpt>
      <trkpt lat="53.304227739572525" lon="9.290170557796955">
        <ele>0</ele>
        <time>2010-01-01T07:14:05Z</time>
      </trkpt>
      <trkpt lat="53.305007005110383" lon="9.291555164381862">
        <ele>0</ele>
        <time>2010-01-01T07:14:51Z</time>
      </trkpt>
      <trkpt lat="53.305684849619865" lon="9.292963240295649">
        <ele>0</ele>
        <time>2010-01-01T07:15:34Z</time>
      </trkpt>
      <trkpt lat="53.306492194533348" lon="9.29471111856401">
        <ele>0</ele>
        <time>2010-01-01T07:16:27Z</time>
      </trkpt>
      <trkpt lat="53.306636866182089" lon="9.294808935374022">
        <ele>0</ele>
        <time>2010-01-01T07:16:33Z</time>
      </trkpt>
      <trkpt lat="53.307444378733635" lon="9.296731995418668">
        <ele>0</ele>
        <time>2010-01-01T07:17:29Z</time>
      </trkpt>
      <trkpt lat="53.309406079351902" lon="9.297743774950504">
        <ele>0</ele>
        <time>2010-01-01T07:18:52Z</time>
      </trkpt>
      <trkpt lat="53.311517145484686" lon="9.298792351037264">
        <ele>0</ele>
        <time>2010-01-01T07:20:20Z</time>
      </trkpt>
      <trkpt lat="53.315120777115226" lon="9.300635783001781">
        <ele>0</ele>
        <time>2010-01-01T07:22:50Z</time>
      </trkpt>
      <trkpt lat="53.315355386584997" lon="9.300747849047184">
        <ele>0</ele>
        <time>2010-01-01T07:23:00Z</time>
      </trkpt>
      <trkpt lat="53.315722933039069" lon="9.301210194826126">
        <ele>0</ele>
        <time>2010-01-01T07:23:19Z</time>
      </trkpt>
      <trkpt lat="53.31631226465106" lon="9.301774296909571">
        <ele>0</ele>
        <time>2010-01-01T07:23:46Z</time>
      </trkpt>
      <trkpt lat="53.316581659018993" lon="9.302848018705845">
        <ele>0</ele>
        <time>2010-01-01T07:24:14Z</time>
      </trkpt>
      <trkpt lat="53.317142408341169" lon="9.303461825475097">
        <ele>0</ele>
        <time>2010-01-01T07:24:41Z</time>
      </trkpt>
      <trkpt lat="53.317671474069357" lon="9.304035231471062">
        <ele>0</ele>
        <time>2010-01-01T07:25:06Z</time>
      </trkpt>
      <trkpt lat="53.317564520984888" lon="9.305181121453643">
        <ele>0</ele>
        <time>2010-01-01T07:25:33Z</time>
      </trkpt>
      <trkpt lat="53.317623445764184" lon="9.307178193703294">
        <ele>0</ele>
        <time>2010-01-01T07:26:21Z</time>
      </trkpt>
      <trkpt lat="53.31808746792376" lon="9.309356482699513">
        <ele>0</ele>
        <time>2010-01-01T07:27:17Z</time>
      </trkpt>
      <trkpt lat="53.318827589973807" lon="9.312107339501381">
        <ele>0</ele>
        <time>2010-01-01T07:28:29Z</time>
      </trkpt>
      <trkpt lat="53.31892934627831" lon="9.31399779394269">
        <ele>0</ele>
        <time>2010-01-01T07:29:14Z</time>
      </trkpt>
      <trkpt lat="53.318646037951112" lon="9.31617071852088">
        <ele>0</ele>
        <time>2010-01-01T07:30:07Z</time>
      </trkpt>
      <trkpt lat="53.317888816818595" lon="9.319908879697323">
        <ele>0</ele>
        <time>2010-01-01T07:31:42Z</time>
      </trkpt>
      <trkpt lat="53.317457567900419" lon="9.321474451571703">
        <ele>0</ele>
        <time>2010-01-01T07:32:23Z</time>
      </trkpt>
      <trkpt lat="53.316336907446384" lon="9.325316548347473">
        <ele>0</ele>
        <time>2010-01-01T07:34:05Z</time>
      </trkpt>
      <trkpt lat="53.316073045134544" lon="9.328095484524965">
        <ele>0</ele>
        <time>2010-01-01T07:35:12Z</time>
      </trkpt>
      <trkpt lat="53.315911777317524" lon="9.330078139901161">
        <ele>0</ele>
        <time>2010-01-01T07:36:00Z</time>
      </trkpt>
      <trkpt lat="53.315564095973969" lon="9.333713119849563">
        <ele>0</ele>
        <time>2010-01-01T07:37:28Z</time>
      </trkpt>
      <trkpt lat="53.314855406060815" lon="9.334783488884568">
        <ele>0</ele>
        <time>2010-01-01T07:38:07Z</time>
      </trkpt>
      <trkpt lat="53.314854903146625" lon="9.334967052564025">
        <ele>0</ele>
        <time>2010-01-01T07:38:11Z</time>
      </trkpt>
      <trkpt lat="53.314853394404054" lon="9.335500728338957">
        <ele>0</ele>
        <time>2010-01-01T07:38:24Z</time>
      </trkpt>
      <trkpt lat="53.315125051885843" lon="9.337091110646725">
        <ele>0</ele>
        <time>2010-01-01T07:39:03Z</time>
      </trkpt>
      <trkpt lat="53.315578596666455" lon="9.339451538398862">
        <ele>0</ele>
        <time>2010-01-01T07:40:03Z</time>
      </trkpt>
      <trkpt lat="53.316219979897141" lon="9.340481339022517">
        <ele>0</ele>
        <time>2010-01-01T07:40:38Z</time>
      </trkpt>
      <trkpt lat="53.316059047356248" lon="9.343093056231737">
        <ele>0</ele>
        <time>2010-01-01T07:41:41Z</time>
      </trkpt>
      <trkpt lat="53.315519420430064" lon="9.34928803704679">
        <ele>0</ele>
        <time>2010-01-01T07:44:11Z</time>
      </trkpt>
      <trkpt lat="53.315625954419374" lon="9.354771059006453">
        <ele>0</ele>
        <time>2010-01-01T07:46:22Z</time>
      </trkpt>
      <trkpt lat="53.315707594156265" lon="9.358255667611957">
        <ele>0</ele>
        <time>2010-01-01T07:47:45Z</time>
      </trkpt>
      <trkpt lat="53.316365322098136" lon="9.363948320969939">
        <ele>0</ele>
        <time>2010-01-01T07:50:04Z</time>
      </trkpt>
      <trkpt lat="53.31634160131216" lon="9.364072708413005">
        <ele>0</ele>
        <time>2010-01-01T07:50:07Z</time>
      </trkpt>
      <trkpt lat="53.316782070323825" lon="9.364165412262082">
        <ele>0</ele>
        <time>2010-01-01T07:50:25Z</time>
      </trkpt>
      <trkpt lat="53.317726124078035" lon="9.364367667585611">
        <ele>0</ele>
        <time>2010-01-01T07:51:03Z</time>
      </trkpt>
      <trkpt lat="53.320344630628824" lon="9.363588988780975">
        <ele>0</ele>
        <time>2010-01-01T07:52:49Z</time>
      </trkpt>
      <trkpt lat="53.322483440861106" lon="9.362854650244117">
        <ele>0</ele>
        <time>2010-01-01T07:54:17Z</time>
      </trkpt>
      <trkpt lat="53.323630085214972" lon="9.363349936902523">
        <ele>0</ele>
        <time>2010-01-01T07:55:04Z</time>
      </trkpt>
      <trkpt lat="53.324382193386555" lon="9.364545783028007">
        <ele>0</ele>
        <time>2010-01-01T07:55:46Z</time>
      </trkpt>
      <trkpt lat="53.325043525546789" lon="9.365457147359848">
        <ele>0</ele>
        <time>2010-01-01T07:56:20Z</time>
      </trkpt>
      <trkpt lat="53.32553219050169" lon="9.366178829222918">
        <ele>0</ele>
        <time>2010-01-01T07:56:46Z</time>
      </trkpt>
      <trkpt lat="53.326450763270259" lon="9.366801688447595">
        <ele>0</ele>
        <time>2010-01-01T07:57:26Z</time>
      </trkpt>
      <trkpt lat="53.327770326286554" lon="9.366710493341088">
        <ele>0</ele>
        <time>2010-01-01T07:58:19Z</time>
      </trkpt>
      <trkpt lat="53.329610573127866" lon="9.366931272670627">
        <ele>0</ele>
        <time>2010-01-01T07:59:32Z</time>
      </trkpt>
      <trkpt lat="53.330099992454052" lon="9.367396803572774">
        <ele>0</ele>
        <time>2010-01-01T07:59:55Z</time>
      </trkpt>
      <trkpt lat="53.330956203863025" lon="9.368326691910625">
        <ele>0</ele>
        <time>2010-01-01T08:00:36Z</time>
      </trkpt>
      <trkpt lat="53.331962618976831" lon="9.370283028110862">
        <ele>0</ele>
        <time>2010-01-01T08:01:38Z</time>
      </trkpt>
      <trkpt lat="53.333396008238196" lon="9.373063305392861">
        <ele>0</ele>
        <time>2010-01-01T08:03:05Z</time>
      </trkpt>
      <trkpt lat="53.334002187475562" lon="9.375426415354013">
        <ele>0</ele>
        <time>2010-01-01T08:04:07Z</time>
      </trkpt>
      <trkpt lat="53.334549274295568" lon="9.37707144767046">
        <ele>0</ele>
        <time>2010-01-01T08:04:52Z</time>
      </trkpt>
      <trkpt lat="53.335260394960642" lon="9.375334968790412">
        <ele>0</ele>
        <time>2010-01-01T08:05:42Z</time>
      </trkpt>
      <trkpt lat="53.335880488157272" lon="9.373290035873652">
        <ele>0</ele>
        <time>2010-01-01T08:06:37Z</time>
      </trkpt>
      <trkpt lat="53.336708368733525" lon="9.373451052233577">
        <ele>0</ele>
        <time>2010-01-01T08:07:10Z</time>
      </trkpt>
      <trkpt lat="53.337684022262692" lon="9.375407556071877">
        <ele>0</ele>
        <time>2010-01-01T08:08:11Z</time>
      </trkpt>
      <trkpt lat="53.338080318644643" lon="9.376231245696545">
        <ele>0</ele>
        <time>2010-01-01T08:08:37Z</time>
      </trkpt>
      <trkpt lat="53.341848654672503" lon="9.377956241369247">
        <ele>0</ele>
        <time>2010-01-01T08:11:13Z</time>
      </trkpt>
      <trkpt lat="53.343564430251718" lon="9.378689154982567">
        <ele>0</ele>
        <time>2010-01-01T08:12:24Z</time>
      </trkpt>
      <trkpt lat="53.346972931176424" lon="9.377796482294798">
        <ele>0</ele>
        <time>2010-01-01T08:14:42Z</time>
      </trkpt>
      <trkpt lat="53.347495794296265" lon="9.378856373950839">
        <ele>0</ele>
        <time>2010-01-01T08:15:15Z</time>
      </trkpt>
      <trkpt lat="53.34857395850122" lon="9.376016082242131">
        <ele>0</ele>
        <time>2010-01-01T08:16:35Z</time>
      </trkpt>
      <trkpt lat="53.349195644259453" lon="9.373457841575146">
        <ele>0</ele>
        <time>2010-01-01T08:17:41Z</time>
      </trkpt>
      <trkpt lat="53.350443877279758" lon="9.366700267419219">
        <ele>0</ele>
        <time>2010-01-01T08:20:30Z</time>
      </trkpt>
      <trkpt lat="53.350811842828989" lon="9.364620465785265">
        <ele>0</ele>
        <time>2010-01-01T08:21:22Z</time>
      </trkpt>
      <trkpt lat="53.352703470736742" lon="9.364217044785619">
        <ele>0</ele>
        <time>2010-01-01T08:22:38Z</time>
      </trkpt>
      <trkpt lat="53.353010332211852" lon="9.364211764186621">
        <ele>0</ele>
        <time>2010-01-01T08:22:51Z</time>
      </trkpt>
      <trkpt lat="53.35367526859045" lon="9.364200364798307">
        <ele>0</ele>
        <time>2010-01-01T08:23:17Z</time>
      </trkpt>
      <trkpt lat="53.358488157391548" lon="9.364441344514489">
        <ele>0</ele>
        <time>2010-01-01T08:26:30Z</time>
      </trkpt>
      <trkpt lat="53.360133776441216" lon="9.364055609330535">
        <ele>0</ele>
        <time>2010-01-01T08:27:37Z</time>
      </trkpt>
      <trkpt lat="53.361302381381392" lon="9.365881439298391">
        <ele>0</ele>
        <time>2010-01-01T08:28:41Z</time>
      </trkpt>
      <trkpt lat="53.361382847651839" lon="9.366215458139777">
        <ele>0</ele>
        <time>2010-01-01T08:28:49Z</time>
      </trkpt>
      <trkpt lat="53.364683724939823" lon="9.371992014348507">
        <ele>0</ele>
        <time>2010-01-01T08:32:00Z</time>
      </trkpt>
      <trkpt lat="53.365488220006227" lon="9.372848812490702">
        <ele>0</ele>
        <time>2010-01-01T08:32:38Z</time>
      </trkpt>
      <trkpt lat="53.366002114489675" lon="9.380551194772124">
        <ele>0</ele>
        <time>2010-01-01T08:35:43Z</time>
      </trkpt>
      <trkpt lat="53.370761191472411" lon="9.388192389160395">
        <ele>0</ele>
        <time>2010-01-01T08:40:07Z</time>
      </trkpt>
      <trkpt lat="53.371760230511427" lon="9.39020630903542">
        <ele>0</ele>
        <time>2010-01-01T08:41:10Z</time>
      </trkpt>
      <trkpt lat="53.372305724769831" lon="9.391306098550558">
        <ele>0</ele>
        <time>2010-01-01T08:41:44Z</time>
      </trkpt>
      <trkpt lat="53.375100502744317" lon="9.396913507953286">
        <ele>0</ele>
        <time>2010-01-01T08:44:38Z</time>
      </trkpt>
      <trkpt lat="53.379647266119719" lon="9.398626433685422">
        <ele>0</ele>
        <time>2010-01-01T08:47:45Z</time>
      </trkpt>
      <trkpt lat="53.379796296358109" lon="9.398764651268721">
        <ele>0</ele>
        <time>2010-01-01T08:47:52Z</time>
      </trkpt>
      <trkpt lat="53.379819430410862" lon="9.398542698472738">
        <ele>0</ele>
        <time>2010-01-01T08:47:57Z</time>
      </trkpt>
      <trkpt lat="53.388160346075892" lon="9.401274193078279">
        <ele>0</ele>
        <time>2010-01-01T08:53:37Z</time>
      </trkpt>
      <trkpt lat="53.38853451423347" lon="9.401388270780444">
        <ele>0</ele>
        <time>2010-01-01T08:53:53Z</time>
      </trkpt>
      <trkpt lat="53.391333902254701" lon="9.402313716709614">
        <ele>0</ele>
        <time>2010-01-01T08:55:47Z</time>
      </trkpt>
      <trkpt lat="53.402928337454796" lon="9.40614826977253">
        <ele>0</ele>
        <time>2010-01-01T09:03:40Z</time>
      </trkpt>
      <trkpt lat="53.403209885582328" lon="9.40642193891108">
        <ele>0</ele>
        <time>2010-01-01T09:03:53Z</time>
      </trkpt>
      <trkpt lat="53.403365202248096" lon="9.407102968543768">
        <ele>0</ele>
        <time>2010-01-01T09:04:10Z</time>
      </trkpt>
      <trkpt lat="53.403442818671465" lon="9.407797157764435">
        <ele>0</ele>
        <time>2010-01-01T09:04:27Z</time>
      </trkpt>
      <trkpt lat="53.403667453676462" lon="9.408424459397793">
        <ele>0</ele>
        <time>2010-01-01T09:04:45Z</time>
      </trkpt>
      <trkpt lat="53.404028126969934" lon="9.409266505390406">
        <ele>0</ele>
        <time>2010-01-01T09:05:09Z</time>
      </trkpt>
      <trkpt lat="53.406229801476002" lon="9.412556989118457">
        <ele>0</ele>
        <time>2010-01-01T09:07:07Z</time>
      </trkpt>
      <trkpt lat="53.406794741749763" lon="9.413401465862989">
        <ele>0</ele>
        <time>2010-01-01T09:07:38Z</time>
      </trkpt>
      <trkpt lat="53.407658161595464" lon="9.425596967339516">
        <ele>0</ele>
        <time>2010-01-01T09:12:31Z</time>
      </trkpt>
      <trkpt lat="53.408057559281588" lon="9.430595180019736">
        <ele>0</ele>
        <time>2010-01-01T09:14:31Z</time>
      </trkpt>
      <trkpt lat="53.408381352201104" lon="9.431884149089456">
        <ele>0</ele>
        <time>2010-01-01T09:15:05Z</time>
      </trkpt>
      <trkpt lat="53.408899186179042" lon="9.433113019913435">
        <ele>0</ele>
        <time>2010-01-01T09:15:40Z</time>
      </trkpt>
      <trkpt lat="53.409197833389044" lon="9.433584837242961">
        <ele>0</ele>
        <time>2010-01-01T09:15:57Z</time>
      </trkpt>
      <trkpt lat="53.409258769825101" lon="9.434492597356439">
        <ele>0</ele>
        <time>2010-01-01T09:16:19Z</time>
      </trkpt>
      <trkpt lat="53.409318113699555" lon="9.435806209221482">
        <ele>0</ele>
        <time>2010-01-01T09:16:50Z</time>
      </trkpt>
      <trkpt lat="53.409588262438774" lon="9.436047691851854">
        <ele>0</ele>
        <time>2010-01-01T09:17:02Z</time>
      </trkpt>
      <trkpt lat="53.410114394500852" lon="9.436494698747993">
        <ele>0</ele>
        <time>2010-01-01T09:17:26Z</time>
      </trkpt>
      <trkpt lat="53.408980490639806" lon="9.438428655266762">
        <ele>0</ele>
        <time>2010-01-01T09:18:31Z</time>
      </trkpt>
      <trkpt lat="53.408534489572048" lon="9.439450576901436">
        <ele>0</ele>
        <time>2010-01-01T09:19:01Z</time>
      </trkpt>
      <trkpt lat="53.406805135309696" lon="9.444536715745926">
        <ele>0</ele>
        <time>2010-01-01T09:21:21Z</time>
      </trkpt>
      <trkpt lat="53.405270995572209" lon="9.451996358111501">
        <ele>0</ele>
        <time>2010-01-01T09:24:29Z</time>
      </trkpt>
      <trkpt lat="53.406068198382854" lon="9.452434480190277">
        <ele>0</ele>
        <time>2010-01-01T09:25:03Z</time>
      </trkpt>
      <trkpt lat="53.406910076737404" lon="9.45423373952508">
        <ele>0</ele>
        <time>2010-01-01T09:25:57Z</time>
      </trkpt>
      <trkpt lat="53.409414757043123" lon="9.455752456560731">
        <ele>0</ele>
        <time>2010-01-01T09:27:44Z</time>
      </trkpt>
      <trkpt lat="53.413447542116046" lon="9.458648655563593">
        <ele>0</ele>
        <time>2010-01-01T09:30:39Z</time>
      </trkpt>
      <trkpt lat="53.417776878923178" lon="9.462288832291961">
        <ele>0</ele>
        <time>2010-01-01T09:33:53Z</time>
      </trkpt>
      <trkpt lat="53.418446257710457" lon="9.462570631876588">
        <ele>0</ele>
        <time>2010-01-01T09:34:21Z</time>
      </trkpt>
      <trkpt lat="53.418475678190589" lon="9.462574403733015">
        <ele>0</ele>
        <time>2010-01-01T09:34:22Z</time>
      </trkpt>
      <trkpt lat="53.418845571577549" lon="9.465350154787302">
        <ele>0</ele>
        <time>2010-01-01T09:35:30Z</time>
      </trkpt>
      <trkpt lat="53.419161234050989" lon="9.467200376093388">
        <ele>0</ele>
        <time>2010-01-01T09:36:16Z</time>
      </trkpt>
      <trkpt lat="53.419234324246645" lon="9.469138104468584">
        <ele>0</ele>
        <time>2010-01-01T09:37:02Z</time>
      </trkpt>
      <trkpt lat="53.419713685289025" lon="9.470404610037804">
        <ele>0</ele>
        <time>2010-01-01T09:37:38Z</time>
      </trkpt>
      <trkpt lat="53.420136217027903" lon="9.472436299547553">
        <ele>0</ele>
        <time>2010-01-01T09:38:29Z</time>
      </trkpt>
      <trkpt lat="53.420210648328066" lon="9.474013689905405">
        <ele>0</ele>
        <time>2010-01-01T09:39:07Z</time>
      </trkpt>
      <trkpt lat="53.420630414038897" lon="9.476721044629812">
        <ele>0</ele>
        <time>2010-01-01T09:40:14Z</time>
      </trkpt>
      <trkpt lat="53.421019753441215" lon="9.48028402402997">
        <ele>0</ele>
        <time>2010-01-01T09:41:40Z</time>
      </trkpt>
      <trkpt lat="53.421059902757406" lon="9.481885386630893">
        <ele>0</ele>
        <time>2010-01-01T09:42:18Z</time>
      </trkpt>
      <trkpt lat="53.421066105365753" lon="9.482131395488977">
        <ele>0</ele>
        <time>2010-01-01T09:42:24Z</time>
      </trkpt>
      <trkpt lat="53.420417010784149" lon="9.482934884727001">
        <ele>0</ele>
        <time>2010-01-01T09:42:56Z</time>
      </trkpt>
      <trkpt lat="53.420382309705019" lon="9.484871439635754">
        <ele>0</ele>
        <time>2010-01-01T09:43:43Z</time>
      </trkpt>
      <trkpt lat="53.420646926388144" lon="9.485955471172929">
        <ele>0</ele>
        <time>2010-01-01T09:44:11Z</time>
      </trkpt>
      <trkpt lat="53.42063938267529" lon="9.487802255898714">
        <ele>0</ele>
        <time>2010-01-01T09:44:55Z</time>
      </trkpt>
      <trkpt lat="53.421007264405489" lon="9.48996864259243">
        <ele>0</ele>
        <time>2010-01-01T09:45:48Z</time>
      </trkpt>
      <trkpt lat="53.420340064913034" lon="9.495141115039587">
        <ele>0</ele>
        <time>2010-01-01T09:47:55Z</time>
      </trkpt>
      <trkpt lat="53.421110277995467" lon="9.498921856284142">
        <ele>0</ele>
        <time>2010-01-01T09:49:30Z</time>
      </trkpt>
      <trkpt lat="53.421131148934364" lon="9.499024283140898">
        <ele>0</ele>
        <time>2010-01-01T09:49:33Z</time>
      </trkpt>
      <trkpt lat="53.429286405444145" lon="9.492046348750591">
        <ele>0</ele>
        <time>2010-01-01T09:55:39Z</time>
      </trkpt>
      <trkpt lat="53.431125143542886" lon="9.499414544552565">
        <ele>0</ele>
        <time>2010-01-01T09:58:50Z</time>
      </trkpt>
      <trkpt lat="53.43329781666398" lon="9.498040499165654">
        <ele>0</ele>
        <time>2010-01-01T10:00:22Z</time>
      </trkpt>
      <trkpt lat="53.436046997085214" lon="9.496946157887578">
        <ele>0</ele>
        <time>2010-01-01T10:02:16Z</time>
      </trkpt>
      <trkpt lat="53.44360738992691" lon="9.493902185931802">
        <ele>0</ele>
        <time>2010-01-01T10:07:27Z</time>
      </trkpt>
      <trkpt lat="53.444480448961258" lon="9.491673521697521">
        <ele>0</ele>
        <time>2010-01-01T10:08:30Z</time>
      </trkpt>
      <trkpt lat="53.444529566913843" lon="9.491725154221058">
        <ele>0</ele>
        <time>2010-01-01T10:08:33Z</time>
      </trkpt>
      <trkpt lat="53.449323093518615" lon="9.493030635640025">
        <ele>0</ele>
        <time>2010-01-01T10:11:47Z</time>
      </trkpt>
      <trkpt lat="53.450687751173973" lon="9.496505102142692">
        <ele>0</ele>
        <time>2010-01-01T10:13:26Z</time>
      </trkpt>
      <trkpt lat="53.450693031772971" lon="9.496479537338018">
        <ele>0</ele>
        <time>2010-01-01T10:13:27Z</time>
      </trkpt>
      <trkpt lat="53.451172057539225" lon="9.497860120609403">
        <ele>0</ele>
        <time>2010-01-01T10:14:05Z</time>
      </trkpt>
      <trkpt lat="53.45204209908843" lon="9.500040840357542">
        <ele>0</ele>
        <time>2010-01-01T10:15:08Z</time>
      </trkpt>
      <trkpt lat="53.452216442674398" lon="9.500517938286066">
        <ele>0</ele>
        <time>2010-01-01T10:15:21Z</time>
      </trkpt>
      <trkpt lat="53.452541744336486" lon="9.500486589968204">
        <ele>0</ele>
        <time>2010-01-01T10:15:34Z</time>
      </trkpt>
      <trkpt lat="53.45353776589036" lon="9.499998260289431">
        <ele>0</ele>
        <time>2010-01-01T10:16:16Z</time>
      </trkpt>
      <trkpt lat="53.453581016510725" lon="9.500009072944522">
        <ele>0</ele>
        <time>2010-01-01T10:16:17Z</time>
      </trkpt>
      <trkpt lat="53.453956861048937" lon="9.501141551882029">
        <ele>0</ele>
        <time>2010-01-01T10:16:48Z</time>
      </trkpt>
      <trkpt lat="53.45463520847261" lon="9.502599583938718">
        <ele>0</ele>
        <time>2010-01-01T10:17:32Z</time>
      </trkpt>
      <trkpt lat="53.455305676907301" lon="9.501913273707032">
        <ele>0</ele>
        <time>2010-01-01T10:18:04Z</time>
      </trkpt>
      <trkpt lat="53.456439077854156" lon="9.499990046024323">
        <ele>0</ele>
        <time>2010-01-01T10:19:08Z</time>
      </trkpt>
      <trkpt lat="53.45680276863277" lon="9.500197917222977">
        <ele>0</ele>
        <time>2010-01-01T10:19:24Z</time>
      </trkpt>
      <trkpt lat="53.457008460536599" lon="9.499616464599967">
        <ele>0</ele>
        <time>2010-01-01T10:19:40Z</time>
      </trkpt>
      <trkpt lat="53.458887347951531" lon="9.502046294510365">
        <ele>0</ele>
        <time>2010-01-01T10:21:15Z</time>
      </trkpt>
      <trkpt lat="53.458884749561548" lon="9.502044199034572">
        <ele>0</ele>
        <time>2010-01-01T10:21:15Z</time>
      </trkpt>
      <trkpt lat="53.458744520321488" lon="9.502372434362769">
        <ele>0</ele>
        <time>2010-01-01T10:21:24Z</time>
      </trkpt>
      <trkpt lat="53.458721889182925" lon="9.502553315833211">
        <ele>0</ele>
        <time>2010-01-01T10:21:29Z</time>
      </trkpt>
      <trkpt lat="53.458737479522824" lon="9.503039885312319">
        <ele>0</ele>
        <time>2010-01-01T10:21:40Z</time>
      </trkpt>
      <trkpt lat="53.459019530564547" lon="9.503942281007767">
        <ele>0</ele>
        <time>2010-01-01T10:22:05Z</time>
      </trkpt>
      <trkpt lat="53.461624206975102" lon="9.51225939206779">
        <ele>0</ele>
        <time>2010-01-01T10:25:49Z</time>
      </trkpt>
      <trkpt lat="53.462017066776752" lon="9.513430260121822">
        <ele>0</ele>
        <time>2010-01-01T10:26:21Z</time>
      </trkpt>
      <trkpt lat="53.462053276598454" lon="9.513434367254376">
        <ele>0</ele>
        <time>2010-01-01T10:26:22Z</time>
      </trkpt>
      <trkpt lat="53.466052450239658" lon="9.513884391635656">
        <ele>0</ele>
        <time>2010-01-01T10:29:03Z</time>
      </trkpt>
      <trkpt lat="53.468607673421502" lon="9.516366440802813">
        <ele>0</ele>
        <time>2010-01-01T10:31:01Z</time>
      </trkpt>
      <trkpt lat="53.470685295760632" lon="9.517614925280213">
        <ele>0</ele>
        <time>2010-01-01T10:32:29Z</time>
      </trkpt>
      <trkpt lat="53.471668409183621" lon="9.518212052062154">
        <ele>0</ele>
        <time>2010-01-01T10:33:11Z</time>
      </trkpt>
      <trkpt lat="53.472558651119471" lon="9.51875276863575">
        <ele>0</ele>
        <time>2010-01-01T10:33:49Z</time>
      </trkpt>
      <trkpt lat="53.474636692553759" lon="9.52481129206717">
        <ele>0</ele>
        <time>2010-01-01T10:36:35Z</time>
      </trkpt>
      <trkpt lat="53.47482193261385" lon="9.525351254269481">
        <ele>0</ele>
        <time>2010-01-01T10:36:50Z</time>
      </trkpt>
      <trkpt lat="53.474824363365769" lon="9.527407251298428">
        <ele>0</ele>
        <time>2010-01-01T10:37:39Z</time>
      </trkpt>
      <trkpt lat="53.475969498977065" lon="9.544601887464523">
        <ele>0</ele>
        <time>2010-01-01T10:44:32Z</time>
      </trkpt>
      <trkpt lat="53.476909780874848" lon="9.55844166688621">
        <ele>0</ele>
        <time>2010-01-01T10:50:03Z</time>
      </trkpt>
      <trkpt lat="53.477383274585009" lon="9.565699640661478">
        <ele>0</ele>
        <time>2010-01-01T10:52:57Z</time>
      </trkpt>
      <trkpt lat="53.479408845305443" lon="9.566895486786962">
        <ele>0</ele>
        <time>2010-01-01T10:54:23Z</time>
      </trkpt>
      <trkpt lat="53.48139887675643" lon="9.569473173469305">
        <ele>0</ele>
        <time>2010-01-01T10:56:04Z</time>
      </trkpt>
      <trkpt lat="53.482919773086905" lon="9.571418529376388">
        <ele>0</ele>
        <time>2010-01-01T10:57:20Z</time>
      </trkpt>
      <trkpt lat="53.487354889512062" lon="9.574443306773901">
        <ele>0</ele>
        <time>2010-01-01T11:00:32Z</time>
      </trkpt>
      <trkpt lat="53.490425264462829" lon="9.576541380956769">
        <ele>0</ele>
        <time>2010-01-01T11:02:45Z</time>
      </trkpt>
      <trkpt lat="53.491902574896812" lon="9.577757176011801">
        <ele>0</ele>
        <time>2010-01-01T11:03:50Z</time>
      </trkpt>
      <trkpt lat="53.494202150031924" lon="9.579988773912191">
        <ele>0</ele>
        <time>2010-01-01T11:05:37Z</time>
      </trkpt>
      <trkpt lat="53.494882928207517" lon="9.580763345584273">
        <ele>0</ele>
        <time>2010-01-01T11:06:10Z</time>
      </trkpt>
      <trkpt lat="53.496383624151349" lon="9.583032075315714">
        <ele>0</ele>
        <time>2010-01-01T11:07:30Z</time>
      </trkpt>
      <trkpt lat="53.49828002974391" lon="9.586023995652795">
        <ele>0</ele>
        <time>2010-01-01T11:09:15Z</time>
      </trkpt>
      <trkpt lat="53.499808385968208" lon="9.588436977937818">
        <ele>0</ele>
        <time>2010-01-01T11:10:39Z</time>
      </trkpt>
      <trkpt lat="53.500660909339786" lon="9.589070733636618">
        <ele>0</ele>
        <time>2010-01-01T11:11:16Z</time>
      </trkpt>
      <trkpt lat="53.501260383054614" lon="9.58898339420557">
        <ele>0</ele>
        <time>2010-01-01T11:11:40Z</time>
      </trkpt>
      <trkpt lat="53.501545786857605" lon="9.588939473032951">
        <ele>0</ele>
        <time>2010-01-01T11:11:51Z</time>
      </trkpt>
      <trkpt lat="53.502172837033868" lon="9.589043911546469">
        <ele>0</ele>
        <time>2010-01-01T11:12:17Z</time>
      </trkpt>
      <trkpt lat="53.502648342400789" lon="9.589123036712408">
        <ele>0</ele>
        <time>2010-01-01T11:12:36Z</time>
      </trkpt>
      <trkpt lat="53.503364743664861" lon="9.589106105268002">
        <ele>0</ele>
        <time>2010-01-01T11:13:04Z</time>
      </trkpt>
      <trkpt lat="53.503551743924618" lon="9.589922251179814">
        <ele>0</ele>
        <time>2010-01-01T11:13:25Z</time>
      </trkpt>
      <trkpt lat="53.503546882420778" lon="9.590142695233226">
        <ele>0</ele>
        <time>2010-01-01T11:13:31Z</time>
      </trkpt>
      <trkpt lat="53.504139063879848" lon="9.590091062709689">
        <ele>0</ele>
        <time>2010-01-01T11:13:54Z</time>
      </trkpt>
      <trkpt lat="53.504873989149928" lon="9.590051583945751">
        <ele>0</ele>
        <time>2010-01-01T11:14:24Z</time>
      </trkpt>
      <trkpt lat="53.504685731604695" lon="9.588749371469021">
        <ele>0</ele>
        <time>2010-01-01T11:14:56Z</time>
      </trkpt>
      <trkpt lat="53.504690090194345" lon="9.588594390079379">
        <ele>0</ele>
        <time>2010-01-01T11:14:59Z</time>
      </trkpt>
      <trkpt lat="53.505732044577599" lon="9.588139336556196">
        <ele>0</ele>
        <time>2010-01-01T11:15:42Z</time>
      </trkpt>
      <trkpt lat="53.506569061428308" lon="9.5876245200634">
        <ele>0</ele>
        <time>2010-01-01T11:16:18Z</time>
      </trkpt>
      <trkpt lat="53.507255790755153" lon="9.587191343307495">
        <ele>0</ele>
        <time>2010-01-01T11:16:47Z</time>
      </trkpt>
      <trkpt lat="53.508708793669939" lon="9.586146622896194">
        <ele>0</ele>
        <time>2010-01-01T11:17:51Z</time>
      </trkpt>
      <trkpt lat="53.508838880807161" lon="9.585789553821087">
        <ele>0</ele>
        <time>2010-01-01T11:18:01Z</time>
      </trkpt>
      <trkpt lat="53.508904259651899" lon="9.585539186373353">
        <ele>0</ele>
        <time>2010-01-01T11:18:07Z</time>
      </trkpt>
      <trkpt lat="53.509130822494626" lon="9.585560476407409">
        <ele>0</ele>
        <time>2010-01-01T11:18:16Z</time>
      </trkpt>
      <trkpt lat="53.509845463559031" lon="9.585947301238775">
        <ele>0</ele>
        <time>2010-01-01T11:18:46Z</time>
      </trkpt>
      <trkpt lat="53.51013807579875" lon="9.586301436647773">
        <ele>0</ele>
        <time>2010-01-01T11:19:01Z</time>
      </trkpt>
      <trkpt lat="53.510346869006753" lon="9.586637215688825">
        <ele>0</ele>
        <time>2010-01-01T11:19:12Z</time>
      </trkpt>
      <trkpt lat="53.510575527325273" lon="9.587164940312505">
        <ele>0</ele>
        <time>2010-01-01T11:19:28Z</time>
      </trkpt>
      <trkpt lat="53.510719276964664" lon="9.587740609422326">
        <ele>0</ele>
        <time>2010-01-01T11:19:43Z</time>
      </trkpt>
      <trkpt lat="53.510745344683528" lon="9.588402109220624">
        <ele>0</ele>
        <time>2010-01-01T11:19:58Z</time>
      </trkpt>
      <trkpt lat="53.510828074067831" lon="9.588791197165847">
        <ele>0</ele>
        <time>2010-01-01T11:20:08Z</time>
      </trkpt>
      <trkpt lat="53.511006021872163" lon="9.589028572663665">
        <ele>0</ele>
        <time>2010-01-01T11:20:17Z</time>
      </trkpt>
      <trkpt lat="53.511226465925574" lon="9.589239293709397">
        <ele>0</ele>
        <time>2010-01-01T11:20:28Z</time>
      </trkpt>
      <trkpt lat="53.511596862226725" lon="9.58941925317049">
        <ele>0</ele>
        <time>2010-01-01T11:20:43Z</time>
      </trkpt>
      <trkpt lat="53.511946806684136" lon="9.589783446863294">
        <ele>0</ele>
        <time>2010-01-01T11:20:59Z</time>
      </trkpt>
      <trkpt lat="53.512224582955241" lon="9.590329192578793">
        <ele>0</ele>
        <time>2010-01-01T11:21:17Z</time>
      </trkpt>
      <trkpt lat="53.512281579896808" lon="9.59066329523921">
        <ele>0</ele>
        <time>2010-01-01T11:21:25Z</time>
      </trkpt>
      <trkpt lat="53.512300187721848" lon="9.590841326862574">
        <ele>0</ele>
        <time>2010-01-01T11:21:29Z</time>
      </trkpt>
      <trkpt lat="53.513272488489747" lon="9.590887678787112">
        <ele>0</ele>
        <time>2010-01-01T11:22:08Z</time>
      </trkpt>
      <trkpt lat="53.514414438977838" lon="9.590428853407502">
        <ele>0</ele>
        <time>2010-01-01T11:22:55Z</time>
      </trkpt>
      <trkpt lat="53.514989940449595" lon="9.591054562479258">
        <ele>0</ele>
        <time>2010-01-01T11:23:23Z</time>
      </trkpt>
      <trkpt lat="53.515065964311361" lon="9.591629225760698">
        <ele>0</ele>
        <time>2010-01-01T11:23:37Z</time>
      </trkpt>
      <trkpt lat="53.515141317620873" lon="9.592336239293218">
        <ele>0</ele>
        <time>2010-01-01T11:23:54Z</time>
      </trkpt>
      <trkpt lat="53.515310548245907" lon="9.592937640845776">
        <ele>0</ele>
        <time>2010-01-01T11:24:09Z</time>
      </trkpt>
      <trkpt lat="53.515688739717007" lon="9.5933145750314">
        <ele>0</ele>
        <time>2010-01-01T11:24:27Z</time>
      </trkpt>
      <trkpt lat="53.516292236745358" lon="9.59358774125576">
        <ele>0</ele>
        <time>2010-01-01T11:24:52Z</time>
      </trkpt>
      <trkpt lat="53.516686940565705" lon="9.593549184501171">
        <ele>0</ele>
        <time>2010-01-01T11:25:08Z</time>
      </trkpt>
      <trkpt lat="53.517004866153002" lon="9.593068230897188">
        <ele>0</ele>
        <time>2010-01-01T11:25:25Z</time>
      </trkpt>
      <trkpt lat="53.51756427437067" lon="9.592590127140284">
        <ele>0</ele>
        <time>2010-01-01T11:25:50Z</time>
      </trkpt>
      <trkpt lat="53.518112367019057" lon="9.592465991154313">
        <ele>0</ele>
        <time>2010-01-01T11:26:12Z</time>
      </trkpt>
      <trkpt lat="53.518612431362271" lon="9.592384686693549">
        <ele>0</ele>
        <time>2010-01-01T11:26:32Z</time>
      </trkpt>
      <trkpt lat="53.519227914512157" lon="9.593287166208029">
        <ele>0</ele>
        <time>2010-01-01T11:27:05Z</time>
      </trkpt>
      <trkpt lat="53.519591940566897" lon="9.59294225089252">
        <ele>0</ele>
        <time>2010-01-01T11:27:22Z</time>
      </trkpt>
      <trkpt lat="53.520207088440657" lon="9.594304477795959">
        <ele>0</ele>
        <time>2010-01-01T11:28:02Z</time>
      </trkpt>
      <trkpt lat="53.52062257938087" lon="9.595406614243984">
        <ele>0</ele>
        <time>2010-01-01T11:28:34Z</time>
      </trkpt>
      <trkpt lat="53.520488468930125" lon="9.595897039398551">
        <ele>0</ele>
        <time>2010-01-01T11:28:46Z</time>
      </trkpt>
      <trkpt lat="53.520219326019287" lon="9.59712884388864">
        <ele>0</ele>
        <time>2010-01-01T11:29:18Z</time>
      </trkpt>
      <trkpt lat="53.520084545016289" lon="9.597627986222506">
        <ele>0</ele>
        <time>2010-01-01T11:29:31Z</time>
      </trkpt>
      <trkpt lat="53.519917577505112" lon="9.598086224868894">
        <ele>0</ele>
        <time>2010-01-01T11:29:43Z</time>
      </trkpt>
      <trkpt lat="53.519739294424653" lon="9.598617888987064">
        <ele>0</ele>
        <time>2010-01-01T11:29:58Z</time>
      </trkpt>
      <trkpt lat="53.519649943336844" lon="9.5989113394171">
        <ele>0</ele>
        <time>2010-01-01T11:30:06Z</time>
      </trkpt>
      <trkpt lat="53.519461518153548" lon="9.599277125671506">
        <ele>0</ele>
        <time>2010-01-01T11:30:17Z</time>
      </trkpt>
      <trkpt lat="53.519416004419327" lon="9.599589603021741">
        <ele>0</ele>
        <time>2010-01-01T11:30:25Z</time>
      </trkpt>
      <trkpt lat="53.519535697996616" lon="9.59981239400804">
        <ele>0</ele>
        <time>2010-01-01T11:30:32Z</time>
      </trkpt>
      <trkpt lat="53.519953032955527" lon="9.599781380966306">
        <ele>0</ele>
        <time>2010-01-01T11:30:49Z</time>
      </trkpt>
      <trkpt lat="53.520442955195904" lon="9.599735531955957">
        <ele>0</ele>
        <time>2010-01-01T11:31:09Z</time>
      </trkpt>
      <trkpt lat="53.521019294857979" lon="9.599501760676503">
        <ele>0</ele>
        <time>2010-01-01T11:31:32Z</time>
      </trkpt>
      <trkpt lat="53.521339818835258" lon="9.599064141511917">
        <ele>0</ele>
        <time>2010-01-01T11:31:49Z</time>
      </trkpt>
      <trkpt lat="53.521761009469628" lon="9.599075121805072">
        <ele>0</ele>
        <time>2010-01-01T11:32:06Z</time>
      </trkpt>
      <trkpt lat="53.521755309775472" lon="9.599121809005737">
        <ele>0</ele>
        <time>2010-01-01T11:32:07Z</time>
      </trkpt>
      <trkpt lat="53.522152192890644" lon="9.599287016317248">
        <ele>0</ele>
        <time>2010-01-01T11:32:23Z</time>
      </trkpt>
      <trkpt lat="53.522517224773765" lon="9.599623382091522">
        <ele>0</ele>
        <time>2010-01-01T11:32:40Z</time>
      </trkpt>
      <trkpt lat="53.522927351295948" lon="9.600271806120872">
        <ele>0</ele>
        <time>2010-01-01T11:33:02Z</time>
      </trkpt>
      <trkpt lat="53.523307470604777" lon="9.601064482703805">
        <ele>0</ele>
        <time>2010-01-01T11:33:27Z</time>
      </trkpt>
      <trkpt lat="53.52363252080977" lon="9.602063689380884">
        <ele>0</ele>
        <time>2010-01-01T11:33:54Z</time>
      </trkpt>
      <trkpt lat="53.52384022437036" lon="9.603419378399849">
        <ele>0</ele>
        <time>2010-01-01T11:34:27Z</time>
      </trkpt>
      <trkpt lat="53.523821197450161" lon="9.604399558156729">
        <ele>0</ele>
        <time>2010-01-01T11:34:50Z</time>
      </trkpt>
      <trkpt lat="53.524571545422077" lon="9.604915967211127">
        <ele>0</ele>
        <time>2010-01-01T11:35:23Z</time>
      </trkpt>
      <trkpt lat="53.52593838237226" lon="9.604891994968057">
        <ele>0</ele>
        <time>2010-01-01T11:36:18Z</time>
      </trkpt>
      <trkpt lat="53.526650005951524" lon="9.60463316179812">
        <ele>0</ele>
        <time>2010-01-01T11:36:47Z</time>
      </trkpt>
      <trkpt lat="53.527337741106749" lon="9.604461248964071">
        <ele>0</ele>
        <time>2010-01-01T11:37:14Z</time>
      </trkpt>
      <trkpt lat="53.527338160201907" lon="9.604463512077928">
        <ele>0</ele>
        <time>2010-01-01T11:37:15Z</time>
      </trkpt>
      <trkpt lat="53.527389289811254" lon="9.604356056079268">
        <ele>0</ele>
        <time>2010-01-01T11:37:18Z</time>
      </trkpt>
      <trkpt lat="53.527941321954131" lon="9.604125386103988">
        <ele>0</ele>
        <time>2010-01-01T11:37:41Z</time>
      </trkpt>
      <trkpt lat="53.528118263930082" lon="9.604277014732361">
        <ele>0</ele>
        <time>2010-01-01T11:37:49Z</time>
      </trkpt>
      <trkpt lat="53.528489666059613" lon="9.604640202596784">
        <ele>0</ele>
        <time>2010-01-01T11:38:06Z</time>
      </trkpt>
      <trkpt lat="53.529021330177784" lon="9.604916218668222">
        <ele>0</ele>
        <time>2010-01-01T11:38:28Z</time>
      </trkpt>
      <trkpt lat="53.529596999287605" lon="9.605297259986401">
        <ele>0</ele>
        <time>2010-01-01T11:38:53Z</time>
      </trkpt>
      <trkpt lat="53.530493527650833" lon="9.607218895107508">
        <ele>0</ele>
        <time>2010-01-01T11:39:51Z</time>
      </trkpt>
      <trkpt lat="53.530929386615753" lon="9.608865603804588">
        <ele>0</ele>
        <time>2010-01-01T11:40:34Z</time>
      </trkpt>
      <trkpt lat="53.53122141212225" lon="9.610838368535042">
        <ele>0</ele>
        <time>2010-01-01T11:41:22Z</time>
      </trkpt>
      <trkpt lat="53.531836476176977" lon="9.612189447507262">
        <ele>0</ele>
        <time>2010-01-01T11:42:03Z</time>
      </trkpt>
      <trkpt lat="53.532312903553247" lon="9.612852539867163">
        <ele>0</ele>
        <time>2010-01-01T11:42:27Z</time>
      </trkpt>
      <trkpt lat="53.532738955691457" lon="9.61294817738235">
        <ele>0</ele>
        <time>2010-01-01T11:42:45Z</time>
      </trkpt>
      <trkpt lat="53.533218987286091" lon="9.612895455211401">
        <ele>0</ele>
        <time>2010-01-01T11:43:04Z</time>
      </trkpt>
      <trkpt lat="53.533683260902762" lon="9.612454734742641">
        <ele>0</ele>
        <time>2010-01-01T11:43:25Z</time>
      </trkpt>
      <trkpt lat="53.534180978313088" lon="9.612432103604078">
        <ele>0</ele>
        <time>2010-01-01T11:43:45Z</time>
      </trkpt>
      <trkpt lat="53.53457098826766" lon="9.612616673111916">
        <ele>0</ele>
        <time>2010-01-01T11:44:01Z</time>
      </trkpt>
      <trkpt lat="53.534906599670649" lon="9.61300928145647">
        <ele>0</ele>
        <time>2010-01-01T11:44:18Z</time>
      </trkpt>
      <trkpt lat="53.535189991816878" lon="9.613192426040769">
        <ele>0</ele>
        <time>2010-01-01T11:44:30Z</time>
      </trkpt>
      <trkpt lat="53.535975124686956" lon="9.612577278167009">
        <ele>0</ele>
        <time>2010-01-01T11:45:05Z</time>
      </trkpt>
      <trkpt lat="53.536688927561045" lon="9.611991047859192">
        <ele>0</ele>
        <time>2010-01-01T11:45:36Z</time>
      </trkpt>
      <trkpt lat="53.537280187010765" lon="9.61104498244822">
        <ele>0</ele>
        <time>2010-01-01T11:46:09Z</time>
      </trkpt>
      <trkpt lat="53.537902124226093" lon="9.611053951084614">
        <ele>0</ele>
        <time>2010-01-01T11:46:34Z</time>
      </trkpt>
      <trkpt lat="53.538506124168634" lon="9.611092507839203">
        <ele>0</ele>
        <time>2010-01-01T11:46:58Z</time>
      </trkpt>
      <trkpt lat="53.538967380300164" lon="9.61124824360013">
        <ele>0</ele>
        <time>2010-01-01T11:47:17Z</time>
      </trkpt>
      <trkpt lat="53.540174625813961" lon="9.611474554985762">
        <ele>0</ele>
        <time>2010-01-01T11:48:06Z</time>
      </trkpt>
      <trkpt lat="53.541381871327758" lon="9.611700782552361">
        <ele>0</ele>
        <time>2010-01-01T11:48:54Z</time>
      </trkpt>
      <trkpt lat="53.542518205940723" lon="9.61189616471529">
        <ele>0</ele>
        <time>2010-01-01T11:49:40Z</time>
      </trkpt>
      <trkpt lat="53.54258107021451" lon="9.611869929358363">
        <ele>0</ele>
        <time>2010-01-01T11:49:42Z</time>
      </trkpt>
      <trkpt lat="53.542566820979118" lon="9.611992472782731">
        <ele>0</ele>
        <time>2010-01-01T11:49:45Z</time>
      </trkpt>
      <trkpt lat="53.543306775391102" lon="9.612046871334314">
        <ele>0</ele>
        <time>2010-01-01T11:50:15Z</time>
      </trkpt>
      <trkpt lat="53.543763421475887" lon="9.612035388126969">
        <ele>0</ele>
        <time>2010-01-01T11:50:33Z</time>
      </trkpt>
      <trkpt lat="53.543883785605431" lon="9.611822236329317">
        <ele>0</ele>
        <time>2010-01-01T11:50:40Z</time>
      </trkpt>
      <trkpt lat="53.544187713414431" lon="9.611535407602787">
        <ele>0</ele>
        <time>2010-01-01T11:50:54Z</time>
      </trkpt>
      <trkpt lat="53.544669421389699" lon="9.611123688519001">
        <ele>0</ele>
        <time>2010-01-01T11:51:16Z</time>
      </trkpt>
      <trkpt lat="53.544818283990026" lon="9.610951859503984">
        <ele>0</ele>
        <time>2010-01-01T11:51:23Z</time>
      </trkpt>
      <trkpt lat="53.545019617304206" lon="9.610656565055251">
        <ele>0</ele>
        <time>2010-01-01T11:51:34Z</time>
      </trkpt>
      <trkpt lat="53.545190524309874" lon="9.610522370785475">
        <ele>0</ele>
        <time>2010-01-01T11:51:41Z</time>
      </trkpt>
      <trkpt lat="53.546822480857372" lon="9.609787864610553">
        <ele>0</ele>
        <time>2010-01-01T11:52:49Z</time>
      </trkpt>
      <trkpt lat="53.547569727525115" lon="9.609823487699032">
        <ele>0</ele>
        <time>2010-01-01T11:53:19Z</time>
      </trkpt>
      <trkpt lat="53.548124609515071" lon="9.609856260940433">
        <ele>0</ele>
        <time>2010-01-01T11:53:41Z</time>
      </trkpt>
      <trkpt lat="53.548316806554794" lon="9.609908731654286">
        <ele>0</ele>
        <time>2010-01-01T11:53:49Z</time>
      </trkpt>
      <trkpt lat="53.54877345263958" lon="9.61011073552072">
        <ele>0</ele>
        <time>2010-01-01T11:54:08Z</time>
      </trkpt>
      <trkpt lat="53.549144938588142" lon="9.610057342797518">
        <ele>0</ele>
        <time>2010-01-01T11:54:23Z</time>
      </trkpt>
      <trkpt lat="53.549653636291623" lon="9.609778979793191">
        <ele>0</ele>
        <time>2010-01-01T11:54:44Z</time>
      </trkpt>
      <trkpt lat="53.54987190105021" lon="9.609579490497708">
        <ele>0</ele>
        <time>2010-01-01T11:54:54Z</time>
      </trkpt>
      <trkpt lat="53.550078514963388" lon="9.609288638457656">
        <ele>0</ele>
        <time>2010-01-01T11:55:05Z</time>
      </trkpt>
      <trkpt lat="53.552208272740245" lon="9.607267929241061">
        <ele>0</ele>
        <time>2010-01-01T11:56:43Z</time>
      </trkpt>
      <trkpt lat="53.552746390923858" lon="9.60669276304543">
        <ele>0</ele>
        <time>2010-01-01T11:57:08Z</time>
      </trkpt>
      <trkpt lat="53.553538396954536" lon="9.606205774471164">
        <ele>0</ele>
        <time>2010-01-01T11:57:42Z</time>
      </trkpt>
      <trkpt lat="53.554476331919432" lon="9.605815848335624">
        <ele>0</ele>
        <time>2010-01-01T11:58:21Z</time>
      </trkpt>
      <trkpt lat="53.554832311347127" lon="9.605810735374689">
        <ele>0</ele>
        <time>2010-01-01T11:58:35Z</time>
      </trkpt>
      <trkpt lat="53.554946640506387" lon="9.605778465047479">
        <ele>0</ele>
        <time>2010-01-01T11:58:40Z</time>
      </trkpt>
      <trkpt lat="53.555381158366799" lon="9.605605881661177">
        <ele>0</ele>
        <time>2010-01-01T11:58:58Z</time>
      </trkpt>
      <trkpt lat="53.556249774992466" lon="9.605648629367352">
        <ele>0</ele>
        <time>2010-01-01T11:59:32Z</time>
      </trkpt>
      <trkpt lat="53.556796694174409" lon="9.605817357078195">
        <ele>0</ele>
        <time>2010-01-01T11:59:55Z</time>
      </trkpt>
      <trkpt lat="53.556913705542684" lon="9.605830432847142">
        <ele>0</ele>
        <time>2010-01-01T11:59:59Z</time>
      </trkpt>
      <trkpt lat="53.556974641978741" lon="9.605719791725278">
        <ele>0</ele>
        <time>2010-01-01T12:00:03Z</time>
      </trkpt>
      <trkpt lat="53.557072626426816" lon="9.605427347123623">
        <ele>0</ele>
        <time>2010-01-01T12:00:11Z</time>
      </trkpt>
      <trkpt lat="53.557151751592755" lon="9.60529675707221">
        <ele>0</ele>
        <time>2010-01-01T12:00:15Z</time>
      </trkpt>
      <trkpt lat="53.557338751852512" lon="9.605299439281225">
        <ele>0</ele>
        <time>2010-01-01T12:00:23Z</time>
      </trkpt>
      <trkpt lat="53.557608816772699" lon="9.605587022379041">
        <ele>0</ele>
        <time>2010-01-01T12:00:36Z</time>
      </trkpt>
      <trkpt lat="53.557662041857839" lon="9.605800593271852">
        <ele>0</ele>
        <time>2010-01-01T12:00:41Z</time>
      </trkpt>
      <trkpt lat="53.557640835642815" lon="9.60641230456531">
        <ele>0</ele>
        <time>2010-01-01T12:00:56Z</time>
      </trkpt>
      <trkpt lat="53.557658521458507" lon="9.606483466923237">
        <ele>0</ele>
        <time>2010-01-01T12:00:57Z</time>
      </trkpt>
      <trkpt lat="53.559083193540573" lon="9.60799346677959">
        <ele>0</ele>
        <time>2010-01-01T12:02:05Z</time>
      </trkpt>
      <trkpt lat="53.559264494106174" lon="9.607935212552547">
        <ele>0</ele>
        <time>2010-01-01T12:02:12Z</time>
      </trkpt>
      <trkpt lat="53.559742849320173" lon="9.608296807855368">
        <ele>0</ele>
        <time>2010-01-01T12:02:33Z</time>
      </trkpt>
      <trkpt lat="53.559820298105478" lon="9.608500571921468">
        <ele>0</ele>
        <time>2010-01-01T12:02:39Z</time>
      </trkpt>
      <trkpt lat="53.560137720778584" lon="9.608951015397906">
        <ele>0</ele>
        <time>2010-01-01T12:02:56Z</time>
      </trkpt>
      <trkpt lat="53.560236124321818" lon="9.609098369255662">
        <ele>0</ele>
        <time>2010-01-01T12:03:01Z</time>
      </trkpt>
      <trkpt lat="53.560413736850023" lon="9.609258966520429">
        <ele>0</ele>
        <time>2010-01-01T12:03:09Z</time>
      </trkpt>
      <trkpt lat="53.560641556978226" lon="9.609545962885022">
        <ele>0</ele>
        <time>2010-01-01T12:03:20Z</time>
      </trkpt>
      <trkpt lat="53.560932576656342" lon="9.609732544049621">
        <ele>0</ele>
        <time>2010-01-01T12:03:33Z</time>
      </trkpt>
      <trkpt lat="53.561130976304412" lon="9.609877299517393">
        <ele>0</ele>
        <time>2010-01-01T12:03:41Z</time>
      </trkpt>
      <trkpt lat="53.561770264059305" lon="9.610127331689">
        <ele>0</ele>
        <time>2010-01-01T12:04:08Z</time>
      </trkpt>
      <trkpt lat="53.561841258779168" lon="9.610191537067294">
        <ele>0</ele>
        <time>2010-01-01T12:04:11Z</time>
      </trkpt>
      <trkpt lat="53.562280219048262" lon="9.610271416604519">
        <ele>0</ele>
        <time>2010-01-01T12:04:29Z</time>
      </trkpt>
      <trkpt lat="53.562455819919705" lon="9.610352385789156">
        <ele>0</ele>
        <time>2010-01-01T12:04:36Z</time>
      </trkpt>
      <trkpt lat="53.563315467908978" lon="9.610496554523706">
        <ele>0</ele>
        <time>2010-01-01T12:05:10Z</time>
      </trkpt>
      <trkpt lat="53.564519779756665" lon="9.610959822311997">
        <ele>0</ele>
        <time>2010-01-01T12:06:00Z</time>
      </trkpt>
      <trkpt lat="53.564747767522931" lon="9.611206334084272">
        <ele>0</ele>
        <time>2010-01-01T12:06:11Z</time>
      </trkpt>
      <trkpt lat="53.564865030348301" lon="9.611328039318323">
        <ele>0</ele>
        <time>2010-01-01T12:06:16Z</time>
      </trkpt>
      <trkpt lat="53.565533822402358" lon="9.611817626282573">
        <ele>0</ele>
        <time>2010-01-01T12:06:46Z</time>
      </trkpt>
      <trkpt lat="53.565929112955928" lon="9.61197922937572">
        <ele>0</ele>
        <time>2010-01-01T12:07:02Z</time>
      </trkpt>
      <trkpt lat="53.565830877050757" lon="9.612783808261156">
        <ele>0</ele>
        <time>2010-01-01T12:07:21Z</time>
      </trkpt>
      <trkpt lat="53.565870774909854" lon="9.613448074087501">
        <ele>0</ele>
        <time>2010-01-01T12:07:37Z</time>
      </trkpt>
      <trkpt lat="53.565946714952588" lon="9.614272434264421">
        <ele>0</ele>
        <time>2010-01-01T12:07:57Z</time>
      </trkpt>
      <trkpt lat="53.566030701622367" lon="9.615276586264372">
        <ele>0</ele>
        <time>2010-01-01T12:08:21Z</time>
      </trkpt>
      <trkpt lat="53.566053751856089" lon="9.615980414673686">
        <ele>0</ele>
        <time>2010-01-01T12:08:38Z</time>
      </trkpt>
      <trkpt lat="53.566082334145904" lon="9.617357980459929">
        <ele>0</ele>
        <time>2010-01-01T12:09:11Z</time>
      </trkpt>
      <trkpt lat="53.566026678308845" lon="9.619766352698207">
        <ele>0</ele>
        <time>2010-01-01T12:10:08Z</time>
      </trkpt>
      <trkpt lat="53.565485961735249" lon="9.621871802955866">
        <ele>0</ele>
        <time>2010-01-01T12:11:02Z</time>
      </trkpt>
      <trkpt lat="53.565426031127572" lon="9.621997196227312">
        <ele>0</ele>
        <time>2010-01-01T12:11:06Z</time>
      </trkpt>
      <trkpt lat="53.565546311438084" lon="9.621985461562872">
        <ele>0</ele>
        <time>2010-01-01T12:11:11Z</time>
      </trkpt>
      <trkpt lat="53.565777987241745" lon="9.622049834579229">
        <ele>0</ele>
        <time>2010-01-01T12:11:21Z</time>
      </trkpt>
      <trkpt lat="53.565921820700169" lon="9.622030556201935">
        <ele>0</ele>
        <time>2010-01-01T12:11:26Z</time>
      </trkpt>
      <trkpt lat="53.566192639991641" lon="9.62206014432013">
        <ele>0</ele>
        <time>2010-01-01T12:11:37Z</time>
      </trkpt>
      <trkpt lat="53.566249972209334" lon="9.622322078794241">
        <ele>0</ele>
        <time>2010-01-01T12:11:44Z</time>
      </trkpt>
      <trkpt lat="53.566331444308162" lon="9.622542941942811">
        <ele>0</ele>
        <time>2010-01-01T12:11:50Z</time>
      </trkpt>
      <trkpt lat="53.566457005217671" lon="9.622701862826943">
        <ele>0</ele>
        <time>2010-01-01T12:11:56Z</time>
      </trkpt>
      <trkpt lat="53.566519785672426" lon="9.62286832742393">
        <ele>0</ele>
        <time>2010-01-01T12:12:01Z</time>
      </trkpt>
      <trkpt lat="53.566556330770254" lon="9.623014004901052">
        <ele>0</ele>
        <time>2010-01-01T12:12:05Z</time>
      </trkpt>
      <trkpt lat="53.566564796492457" lon="9.623201927170157">
        <ele>0</ele>
        <time>2010-01-01T12:12:09Z</time>
      </trkpt>
      <trkpt lat="53.566568987444043" lon="9.623380126431584">
        <ele>0</ele>
        <time>2010-01-01T12:12:13Z</time>
      </trkpt>
      <trkpt lat="53.566503189504147" lon="9.623645497485995">
        <ele>0</ele>
        <time>2010-01-01T12:12:20Z</time>
      </trkpt>
      <trkpt lat="53.566474271938205" lon="9.623868707567453">
        <ele>0</ele>
        <time>2010-01-01T12:12:26Z</time>
      </trkpt>
      <trkpt lat="53.566485922783613" lon="9.62416366674006">
        <ele>0</ele>
        <time>2010-01-01T12:12:33Z</time>
      </trkpt>
      <trkpt lat="53.566530933603644" lon="9.624506905674934">
        <ele>0</ele>
        <time>2010-01-01T12:12:41Z</time>
      </trkpt>
      <trkpt lat="53.566678874194622" lon="9.624961959198117">
        <ele>0</ele>
        <time>2010-01-01T12:12:53Z</time>
      </trkpt>
      <trkpt lat="53.566815834492445" lon="9.625326571986079">
        <ele>0</ele>
        <time>2010-01-01T12:13:04Z</time>
      </trkpt>
      <trkpt lat="53.566856989637017" lon="9.625607784837484">
        <ele>0</ele>
        <time>2010-01-01T12:13:11Z</time>
      </trkpt>
      <trkpt lat="53.566845757886767" lon="9.625818757340312">
        <ele>0</ele>
        <time>2010-01-01T12:13:16Z</time>
      </trkpt>
      <trkpt lat="53.566720448434353" lon="9.626153698191047">
        <ele>0</ele>
        <time>2010-01-01T12:13:25Z</time>
      </trkpt>
      <trkpt lat="53.56663579121232" lon="9.626542869955301">
        <ele>0</ele>
        <time>2010-01-01T12:13:35Z</time>
      </trkpt>
      <trkpt lat="53.566565802320838" lon="9.626818215474486">
        <ele>0</ele>
        <time>2010-01-01T12:13:42Z</time>
      </trkpt>
      <trkpt lat="53.566848859190941" lon="9.626972023397684">
        <ele>0</ele>
        <time>2010-01-01T12:13:54Z</time>
      </trkpt>
      <trkpt lat="53.567062094807625" lon="9.626937992870808">
        <ele>0</ele>
        <time>2010-01-01T12:14:02Z</time>
      </trkpt>
      <trkpt lat="53.567255549132824" lon="9.626866662874818">
        <ele>0</ele>
        <time>2010-01-01T12:14:10Z</time>
      </trkpt>
      <trkpt lat="53.567624688148499" lon="9.626711262390018">
        <ele>0</ele>
        <time>2010-01-01T12:14:26Z</time>
      </trkpt>
      <trkpt lat="53.56780749745667" lon="9.626685278490186">
        <ele>0</ele>
        <time>2010-01-01T12:14:33Z</time>
      </trkpt>
      <trkpt lat="53.567833816632628" lon="9.626701036468148">
        <ele>0</ele>
        <time>2010-01-01T13:46:19Z</time>
      </trkpt>
      <trkpt lat="53.568203710019588" lon="9.627497065812349">
        <ele>0</ele>
        <time>2010-01-01T13:45:55Z</time>
      </trkpt>
      <trkpt lat="53.568627163767815" lon="9.627967458218336">
        <ele>0</ele>
        <time>2010-01-01T13:45:35Z</time>
      </trkpt>
      <trkpt lat="53.568989345803857" lon="9.628157308325171">
        <ele>0</ele>
        <time>2010-01-01T13:45:20Z</time>
      </trkpt>
      <trkpt lat="53.56918154284358" lon="9.628099976107478">
        <ele>0</ele>
        <time>2010-01-01T13:45:12Z</time>
      </trkpt>
      <trkpt lat="53.569553196430206" lon="9.627794623374939">
        <ele>0</ele>
        <time>2010-01-01T13:44:55Z</time>
      </trkpt>
      <trkpt lat="53.569849999621511" lon="9.627698818221688">
        <ele>0</ele>
        <time>2010-01-01T13:44:43Z</time>
      </trkpt>
      <trkpt lat="53.570212600752711" lon="9.627655232325196">
        <ele>0</ele>
        <time>2010-01-01T13:44:28Z</time>
      </trkpt>
      <trkpt lat="53.570546451956034" lon="9.627911718562245">
        <ele>0</ele>
        <time>2010-01-01T13:44:14Z</time>
      </trkpt>
      <trkpt lat="53.570824563503265" lon="9.627961590886116">
        <ele>0</ele>
        <time>2010-01-01T13:44:03Z</time>
      </trkpt>
      <trkpt lat="53.571041654795408" lon="9.627687754109502">
        <ele>0</ele>
        <time>2010-01-01T13:43:52Z</time>
      </trkpt>
      <trkpt lat="53.57129629701376" lon="9.628454614430666">
        <ele>0</ele>
        <time>2010-01-01T13:43:31Z</time>
      </trkpt>
      <trkpt lat="53.571642134338617" lon="9.630237696692348">
        <ele>0</ele>
        <time>2010-01-01T13:42:46Z</time>
      </trkpt>
      <trkpt lat="53.572046309709549" lon="9.631693968549371">
        <ele>0</ele>
        <time>2010-01-01T13:42:08Z</time>
      </trkpt>
      <trkpt lat="53.572324505075812" lon="9.632186656817794">
        <ele>0</ele>
        <time>2010-01-01T13:41:52Z</time>
      </trkpt>
      <trkpt lat="53.572791544720531" lon="9.631199771538377">
        <ele>0</ele>
        <time>2010-01-01T13:41:22Z</time>
      </trkpt>
      <trkpt lat="53.573331255465746" lon="9.629902252927423">
        <ele>0</ele>
        <time>2010-01-01T13:40:44Z</time>
      </trkpt>
      <trkpt lat="53.574931276962161" lon="9.62602092884481">
        <ele>0</ele>
        <time>2010-01-01T13:38:52Z</time>
      </trkpt>
      <trkpt lat="53.575021801516414" lon="9.625695375725627">
        <ele>0</ele>
        <time>2010-01-01T13:38:43Z</time>
      </trkpt>
      <trkpt lat="53.575126826763153" lon="9.62527971714735">
        <ele>0</ele>
        <time>2010-01-01T13:38:33Z</time>
      </trkpt>
      <trkpt lat="53.575365040451288" lon="9.623105954378843">
        <ele>0</ele>
        <time>2010-01-01T13:37:40Z</time>
      </trkpt>
      <trkpt lat="53.575530163943768" lon="9.621243244037032">
        <ele>0</ele>
        <time>2010-01-01T13:36:55Z</time>
      </trkpt>
      <trkpt lat="53.575541395694017" lon="9.61909219622612">
        <ele>0</ele>
        <time>2010-01-01T13:36:04Z</time>
      </trkpt>
      <trkpt lat="53.575566289946437" lon="9.618557849898934">
        <ele>0</ele>
        <time>2010-01-01T13:35:51Z</time>
      </trkpt>
      <trkpt lat="53.57570668682456" lon="9.61717969737947">
        <ele>0</ele>
        <time>2010-01-01T13:35:18Z</time>
      </trkpt>
      <trkpt lat="53.575898632407188" lon="9.615839514881372">
        <ele>0</ele>
        <time>2010-01-01T13:34:45Z</time>
      </trkpt>
      <trkpt lat="53.576187305152416" lon="9.614388858899474">
        <ele>0</ele>
        <time>2010-01-01T13:34:09Z</time>
      </trkpt>
      <trkpt lat="53.576443204656243" lon="9.613559385761619">
        <ele>0</ele>
        <time>2010-01-01T13:33:47Z</time>
      </trkpt>
      <trkpt lat="53.576788203790784" lon="9.612669143825769">
        <ele>0</ele>
        <time>2010-01-01T13:33:22Z</time>
      </trkpt>
      <trkpt lat="53.577274018898606" lon="9.611731041222811">
        <ele>0</ele>
        <time>2010-01-01T13:32:52Z</time>
      </trkpt>
      <trkpt lat="53.577990420162678" lon="9.610572494566441">
        <ele>0</ele>
        <time>2010-01-01T13:32:12Z</time>
      </trkpt>
      <trkpt lat="53.579210070893168" lon="9.609421156346798">
        <ele>0</ele>
        <time>2010-01-01T13:31:16Z</time>
      </trkpt>
      <trkpt lat="53.579416098073125" lon="9.609007928520441">
        <ele>0</ele>
        <time>2010-01-01T13:31:04Z</time>
      </trkpt>
      <trkpt lat="53.579719271510839" lon="9.60824710316956">
        <ele>0</ele>
        <time>2010-01-01T13:30:42Z</time>
      </trkpt>
      <trkpt lat="53.580119758844376" lon="9.60723415017128">
        <ele>0</ele>
        <time>2010-01-01T13:30:13Z</time>
      </trkpt>
      <trkpt lat="53.580268872901797" lon="9.606401994824409">
        <ele>0</ele>
        <time>2010-01-01T13:29:52Z</time>
      </trkpt>
      <trkpt lat="53.580235010012984" lon="9.605792127549648">
        <ele>0</ele>
        <time>2010-01-01T13:29:38Z</time>
      </trkpt>
      <trkpt lat="53.580188071355224" lon="9.605014873668551">
        <ele>0</ele>
        <time>2010-01-01T13:29:19Z</time>
      </trkpt>
      <trkpt lat="53.579984223470092" lon="9.604159500449896">
        <ele>0</ele>
        <time>2010-01-01T13:28:57Z</time>
      </trkpt>
      <trkpt lat="53.579934351146221" lon="9.603773262351751">
        <ele>0</ele>
        <time>2010-01-01T13:28:48Z</time>
      </trkpt>
      <trkpt lat="53.579936278983951" lon="9.603387778624892">
        <ele>0</ele>
        <time>2010-01-01T13:28:39Z</time>
      </trkpt>
      <trkpt lat="53.580013141036034" lon="9.603355089202523">
        <ele>0</ele>
        <time>2010-01-01T13:28:35Z</time>
      </trkpt>
      <trkpt lat="53.580016409978271" lon="9.603342097252607">
        <ele>0</ele>
        <time>2010-01-01T13:28:35Z</time>
      </trkpt>
      <trkpt lat="53.580395439639688" lon="9.601864702999592">
        <ele>0</ele>
        <time>2010-01-01T13:27:57Z</time>
      </trkpt>
      <trkpt lat="53.580847727134824" lon="9.600229561328888">
        <ele>0</ele>
        <time>2010-01-01T13:27:14Z</time>
      </trkpt>
      <trkpt lat="53.580966498702765" lon="9.599701752886176">
        <ele>0</ele>
        <time>2010-01-01T13:27:01Z</time>
      </trkpt>
      <trkpt lat="53.581054760143161" lon="9.598789885640144">
        <ele>0</ele>
        <time>2010-01-01T13:26:39Z</time>
      </trkpt>
      <trkpt lat="53.581030955538154" lon="9.598217150196433">
        <ele>0</ele>
        <time>2010-01-01T13:26:25Z</time>
      </trkpt>
      <trkpt lat="53.581051072105765" lon="9.598043644800782">
        <ele>0</ele>
        <time>2010-01-01T13:26:21Z</time>
      </trkpt>
      <trkpt lat="53.581376289948821" lon="9.596642944961786">
        <ele>0</ele>
        <time>2010-01-01T13:25:45Z</time>
      </trkpt>
      <trkpt lat="53.581578880548477" lon="9.596086135134101">
        <ele>0</ele>
        <time>2010-01-01T13:25:29Z</time>
      </trkpt>
      <trkpt lat="53.581802677363157" lon="9.595728646963835">
        <ele>0</ele>
        <time>2010-01-01T13:25:17Z</time>
      </trkpt>
      <trkpt lat="53.582243481650949" lon="9.595284489914775">
        <ele>0</ele>
        <time>2010-01-01T13:24:57Z</time>
      </trkpt>
      <trkpt lat="53.582976646721363" lon="9.59480001591146">
        <ele>0</ele>
        <time>2010-01-01T13:24:25Z</time>
      </trkpt>
      <trkpt lat="53.58325014822185" lon="9.594604382291436">
        <ele>0</ele>
        <time>2010-01-01T13:24:13Z</time>
      </trkpt>
      <trkpt lat="53.583529936149716" lon="9.594278493896127">
        <ele>0</ele>
        <time>2010-01-01T13:24:00Z</time>
      </trkpt>
      <trkpt lat="53.58382229693234" lon="9.593789912760258">
        <ele>0</ele>
        <time>2010-01-01T13:23:43Z</time>
      </trkpt>
      <trkpt lat="53.584043076261878" lon="9.593187589198351">
        <ele>0</ele>
        <time>2010-01-01T13:23:26Z</time>
      </trkpt>
      <trkpt lat="53.585432292893529" lon="9.587608342990279">
        <ele>0</ele>
        <time>2010-01-01T13:21:02Z</time>
      </trkpt>
      <trkpt lat="53.585689617320895" lon="9.587004594504833">
        <ele>0</ele>
        <time>2010-01-01T13:20:45Z</time>
      </trkpt>
      <trkpt lat="53.586074430495501" lon="9.586430098861456">
        <ele>0</ele>
        <time>2010-01-01T13:20:24Z</time>
      </trkpt>
      <trkpt lat="53.586758226156235" lon="9.586043106392026">
        <ele>0</ele>
        <time>2010-01-01T13:19:55Z</time>
      </trkpt>
      <trkpt lat="53.587637320160866" lon="9.58595777861774">
        <ele>0</ele>
        <time>2010-01-01T13:19:20Z</time>
      </trkpt>
      <trkpt lat="53.588058426976204" lon="9.585833977907896">
        <ele>0</ele>
        <time>2010-01-01T13:19:03Z</time>
      </trkpt>
      <trkpt lat="53.588474588468671" lon="9.585081366822124">
        <ele>0</ele>
        <time>2010-01-01T13:18:39Z</time>
      </trkpt>
      <trkpt lat="53.590724710375071" lon="9.581004241481423">
        <ele>0</ele>
        <time>2010-01-01T13:16:26Z</time>
      </trkpt>
      <trkpt lat="53.590979017317295" lon="9.580530831590295">
        <ele>0</ele>
        <time>2010-01-01T13:16:11Z</time>
      </trkpt>
      <trkpt lat="53.591059232130647" lon="9.579380666837096">
        <ele>0</ele>
        <time>2010-01-01T13:15:44Z</time>
      </trkpt>
      <trkpt lat="53.591153528541327" lon="9.578511128202081">
        <ele>0</ele>
        <time>2010-01-01T13:15:23Z</time>
      </trkpt>
      <trkpt lat="53.591326363384724" lon="9.577718283981085">
        <ele>0</ele>
        <time>2010-01-01T13:15:02Z</time>
      </trkpt>
      <trkpt lat="53.591657197102904" lon="9.576851930469275">
        <ele>0</ele>
        <time>2010-01-01T13:14:38Z</time>
      </trkpt>
      <trkpt lat="53.591907899826765" lon="9.576249523088336">
        <ele>0</ele>
        <time>2010-01-01T13:14:21Z</time>
      </trkpt>
      <trkpt lat="53.59202248044312" lon="9.575834535062313">
        <ele>0</ele>
        <time>2010-01-01T13:14:10Z</time>
      </trkpt>
      <trkpt lat="53.592205625027418" lon="9.575231205672026">
        <ele>0</ele>
        <time>2010-01-01T13:13:54Z</time>
      </trkpt>
      <trkpt lat="53.592349123209715" lon="9.574581775814295">
        <ele>0</ele>
        <time>2010-01-01T13:13:37Z</time>
      </trkpt>
      <trkpt lat="53.592770900577307" lon="9.572178348898888">
        <ele>0</ele>
        <time>2010-01-01T13:12:38Z</time>
      </trkpt>
      <trkpt lat="53.592888079583645" lon="9.571510646492243">
        <ele>0</ele>
        <time>2010-01-01T13:12:21Z</time>
      </trkpt>
      <trkpt lat="53.593105506151915" lon="9.57079416140914">
        <ele>0</ele>
        <time>2010-01-01T13:12:02Z</time>
      </trkpt>
      <trkpt lat="53.593355705961585" lon="9.570286301895976">
        <ele>0</ele>
        <time>2010-01-01T13:11:46Z</time>
      </trkpt>
      <trkpt lat="53.593684360384941" lon="9.569874247536063">
        <ele>0</ele>
        <time>2010-01-01T13:11:30Z</time>
      </trkpt>
      <trkpt lat="53.594159111380577" lon="9.569520866498351">
        <ele>0</ele>
        <time>2010-01-01T13:11:09Z</time>
      </trkpt>
      <trkpt lat="53.594667557626963" lon="9.569186931475997">
        <ele>0</ele>
        <time>2010-01-01T13:10:47Z</time>
      </trkpt>
      <trkpt lat="53.594960505142808" lon="9.56917192786932">
        <ele>0</ele>
        <time>2010-01-01T13:10:35Z</time>
      </trkpt>
      <trkpt lat="53.598218383267522" lon="9.567189691588283">
        <ele>0</ele>
        <time>2010-01-01T13:08:17Z</time>
      </trkpt>
      <trkpt lat="53.598766811192036" lon="9.566834717988968">
        <ele>0</ele>
        <time>2010-01-01T13:07:53Z</time>
      </trkpt>
      <trkpt lat="53.599643222987652" lon="9.566015806049109">
        <ele>0</ele>
        <time>2010-01-01T13:07:13Z</time>
      </trkpt>
      <trkpt lat="53.60011369921267" lon="9.565613307058811">
        <ele>0</ele>
        <time>2010-01-01T13:06:52Z</time>
      </trkpt>
      <trkpt lat="53.600623067468405" lon="9.564984664320946">
        <ele>0</ele>
        <time>2010-01-01T13:06:27Z</time>
      </trkpt>
      <trkpt lat="53.600881565362215" lon="9.564616363495588">
        <ele>0</ele>
        <time>2010-01-01T13:06:13Z</time>
      </trkpt>
      <trkpt lat="53.6010757740587" lon="9.564271280542016">
        <ele>0</ele>
        <time>2010-01-01T13:06:02Z</time>
      </trkpt>
      <trkpt lat="53.601222625002265" lon="9.563915636390448">
        <ele>0</ele>
        <time>2010-01-01T13:05:52Z</time>
      </trkpt>
      <trkpt lat="53.601314658299088" lon="9.563519088551402">
        <ele>0</ele>
        <time>2010-01-01T13:05:41Z</time>
      </trkpt>
      <trkpt lat="53.601359082385898" lon="9.563171993941069">
        <ele>0</ele>
        <time>2010-01-01T13:05:33Z</time>
      </trkpt>
      <trkpt lat="53.60150727443397" lon="9.561986876651645">
        <ele>0</ele>
        <time>2010-01-01T13:05:04Z</time>
      </trkpt>
      <trkpt lat="53.601637613028288" lon="9.561568954959512">
        <ele>0</ele>
        <time>2010-01-01T13:04:53Z</time>
      </trkpt>
      <trkpt lat="53.60193282365799" lon="9.560973336920142">
        <ele>0</ele>
        <time>2010-01-01T13:04:35Z</time>
      </trkpt>
      <trkpt lat="53.602406233549118" lon="9.560404121875763">
        <ele>0</ele>
        <time>2010-01-01T13:04:11Z</time>
      </trkpt>
      <trkpt lat="53.603015094995499" lon="9.559836583212018">
        <ele>0</ele>
        <time>2010-01-01T13:03:44Z</time>
      </trkpt>
      <trkpt lat="53.604767834767699" lon="9.558672672137618">
        <ele>0</ele>
        <time>2010-01-01T13:02:28Z</time>
      </trkpt>
      <trkpt lat="53.605957981199026" lon="9.55758017487824">
        <ele>0</ele>
        <time>2010-01-01T13:01:34Z</time>
      </trkpt>
      <trkpt lat="53.606243804097176" lon="9.557217238470912">
        <ele>0</ele>
        <time>2010-01-01T13:01:20Z</time>
      </trkpt>
      <trkpt lat="53.606373220682144" lon="9.556991094723344">
        <ele>0</ele>
        <time>2010-01-01T13:01:12Z</time>
      </trkpt>
      <trkpt lat="53.606496267020702" lon="9.556608963757753">
        <ele>0</ele>
        <time>2010-01-01T13:01:02Z</time>
      </trkpt>
      <trkpt lat="53.606822658330202" lon="9.555438095703721">
        <ele>0</ele>
        <time>2010-01-01T13:00:31Z</time>
      </trkpt>
      <trkpt lat="53.607135387137532" lon="9.554135045036674">
        <ele>0</ele>
        <time>2010-01-01T12:59:58Z</time>
      </trkpt>
      <trkpt lat="53.607433866709471" lon="9.552819840610027">
        <ele>0</ele>
        <time>2010-01-01T12:59:24Z</time>
      </trkpt>
      <trkpt lat="53.607485415413976" lon="9.552472745999694">
        <ele>0</ele>
        <time>2010-01-01T12:59:16Z</time>
      </trkpt>
      <trkpt lat="53.607751708477736" lon="9.550389591604471">
        <ele>0</ele>
        <time>2010-01-01T12:58:25Z</time>
      </trkpt>
      <trkpt lat="53.608219083398581" lon="9.547947691753507">
        <ele>0</ele>
        <time>2010-01-01T12:57:24Z</time>
      </trkpt>
      <trkpt lat="53.608525609597564" lon="9.546332499012351">
        <ele>0</ele>
        <time>2010-01-01T12:56:44Z</time>
      </trkpt>
      <trkpt lat="53.60867153853178" lon="9.545599920675159">
        <ele>0</ele>
        <time>2010-01-01T12:56:26Z</time>
      </trkpt>
      <trkpt lat="53.60877220518887" lon="9.545031543821096">
        <ele>0</ele>
        <time>2010-01-01T12:56:11Z</time>
      </trkpt>
      <trkpt lat="53.608934981748462" lon="9.54452401958406">
        <ele>0</ele>
        <time>2010-01-01T12:55:58Z</time>
      </trkpt>
      <trkpt lat="53.609507298097014" lon="9.542854763567448">
        <ele>0</ele>
        <time>2010-01-01T12:55:12Z</time>
      </trkpt>
      <trkpt lat="53.609523810446262" lon="9.54246299341321">
        <ele>0</ele>
        <time>2010-01-01T12:55:03Z</time>
      </trkpt>
      <trkpt lat="53.609579717740417" lon="9.541924120858312">
        <ele>0</ele>
        <time>2010-01-01T12:54:50Z</time>
      </trkpt>
      <trkpt lat="53.609716510400176" lon="9.541251305490732">
        <ele>0</ele>
        <time>2010-01-01T12:54:33Z</time>
      </trkpt>
      <trkpt lat="53.610058827325702" lon="9.540461227297783">
        <ele>0</ele>
        <time>2010-01-01T12:54:09Z</time>
      </trkpt>
      <trkpt lat="53.610439617186785" lon="9.539631083607674">
        <ele>0</ele>
        <time>2010-01-01T12:53:45Z</time>
      </trkpt>
      <trkpt lat="53.610648829489946" lon="9.539094055071473">
        <ele>0</ele>
        <time>2010-01-01T12:53:29Z</time>
      </trkpt>
      <trkpt lat="53.611765215173364" lon="9.535078620538116">
        <ele>0</ele>
        <time>2010-01-01T12:51:44Z</time>
      </trkpt>
      <trkpt lat="53.611831264570355" lon="9.534659693017602">
        <ele>0</ele>
        <time>2010-01-01T12:51:34Z</time>
      </trkpt>
      <trkpt lat="53.61204793676734" lon="9.533290006220341">
        <ele>0</ele>
        <time>2010-01-01T12:51:00Z</time>
      </trkpt>
      <trkpt lat="53.612224208191037" lon="9.532913574948907">
        <ele>0</ele>
        <time>2010-01-01T12:50:49Z</time>
      </trkpt>
      <trkpt lat="53.612396037206054" lon="9.532759850844741">
        <ele>0</ele>
        <time>2010-01-01T12:50:41Z</time>
      </trkpt>
      <trkpt lat="53.612774647772312" lon="9.532608725130558">
        <ele>0</ele>
        <time>2010-01-01T12:50:25Z</time>
      </trkpt>
      <trkpt lat="53.612953349947929" lon="9.532527001574636">
        <ele>0</ele>
        <time>2010-01-01T12:50:18Z</time>
      </trkpt>
      <trkpt lat="53.613086622208357" lon="9.532312341034412">
        <ele>0</ele>
        <time>2010-01-01T12:50:10Z</time>
      </trkpt>
      <trkpt lat="53.613861948251724" lon="9.530283669009805">
        <ele>0</ele>
        <time>2010-01-01T12:49:13Z</time>
      </trkpt>
      <trkpt lat="53.614974897354841" lon="9.526963261887431">
        <ele>0</ele>
        <time>2010-01-01T12:47:43Z</time>
      </trkpt>
      <trkpt lat="53.615161813795567" lon="9.526629745960236">
        <ele>0</ele>
        <time>2010-01-01T12:47:32Z</time>
      </trkpt>
      <trkpt lat="53.614957798272371" lon="9.525991464033723">
        <ele>0</ele>
        <time>2010-01-01T12:47:15Z</time>
      </trkpt>
      <trkpt lat="53.614661497995257" lon="9.525256203487515">
        <ele>0</ele>
        <time>2010-01-01T12:46:53Z</time>
      </trkpt>
      <trkpt lat="53.61432840116322" lon="9.524772316217422">
        <ele>0</ele>
        <time>2010-01-01T12:46:36Z</time>
      </trkpt>
      <trkpt lat="53.614058839157224" lon="9.524445086717606">
        <ele>0</ele>
        <time>2010-01-01T12:46:23Z</time>
      </trkpt>
      <trkpt lat="53.614033190533519" lon="9.523667581379414">
        <ele>0</ele>
        <time>2010-01-01T12:46:04Z</time>
      </trkpt>
      <trkpt lat="53.614009218290448" lon="9.522753367200494">
        <ele>0</ele>
        <time>2010-01-01T12:45:42Z</time>
      </trkpt>
      <trkpt lat="53.613968398422003" lon="9.522309042513371">
        <ele>0</ele>
        <time>2010-01-01T12:45:32Z</time>
      </trkpt>
      <trkpt lat="53.613872341811657" lon="9.521432379260659">
        <ele>0</ele>
        <time>2010-01-01T12:45:10Z</time>
      </trkpt>
      <trkpt lat="53.61381190828979" lon="9.520580023527145">
        <ele>0</ele>
        <time>2010-01-01T12:44:50Z</time>
      </trkpt>
      <trkpt lat="53.613815428689122" lon="9.519752478227019">
        <ele>0</ele>
        <time>2010-01-01T12:44:30Z</time>
      </trkpt>
      <trkpt lat="53.613878460600972" lon="9.518385976552963">
        <ele>0</ele>
        <time>2010-01-01T12:43:58Z</time>
      </trkpt>
      <trkpt lat="53.613862199708819" lon="9.51719842851162">
        <ele>0</ele>
        <time>2010-01-01T12:43:30Z</time>
      </trkpt>
      <trkpt lat="53.613498006016016" lon="9.514003666117787">
        <ele>0</ele>
        <time>2010-01-01T12:42:12Z</time>
      </trkpt>
      <trkpt lat="53.613492893055081" lon="9.513535872101784">
        <ele>0</ele>
        <time>2010-01-01T12:42:01Z</time>
      </trkpt>
      <trkpt lat="53.613495156168938" lon="9.511376358568668">
        <ele>0</ele>
        <time>2010-01-01T12:41:10Z</time>
      </trkpt>
      <trkpt lat="53.613343862816691" lon="9.510019915178418">
        <ele>0</ele>
        <time>2010-01-01T12:40:37Z</time>
      </trkpt>
      <trkpt lat="53.613282842561603" lon="9.509287504479289">
        <ele>0</ele>
        <time>2010-01-01T12:40:20Z</time>
      </trkpt>
      <trkpt lat="53.61333548091352" lon="9.508640505373478">
        <ele>0</ele>
        <time>2010-01-01T12:40:04Z</time>
      </trkpt>
      <trkpt lat="53.613342186436057" lon="9.508245131000876">
        <ele>0</ele>
        <time>2010-01-01T12:39:55Z</time>
      </trkpt>
      <trkpt lat="53.613245878368616" lon="9.507903233170509">
        <ele>0</ele>
        <time>2010-01-01T12:39:46Z</time>
      </trkpt>
      <trkpt lat="53.613211931660771" lon="9.507507020607591">
        <ele>0</ele>
        <time>2010-01-01T12:39:36Z</time>
      </trkpt>
      <trkpt lat="53.613299522548914" lon="9.507040316238999">
        <ele>0</ele>
        <time>2010-01-01T12:39:25Z</time>
      </trkpt>
      <trkpt lat="53.613485433161259" lon="9.506707554683089">
        <ele>0</ele>
        <time>2010-01-01T12:39:14Z</time>
      </trkpt>
      <trkpt lat="53.613502280786633" lon="9.506311090663075">
        <ele>0</ele>
        <time>2010-01-01T12:39:04Z</time>
      </trkpt>
      <trkpt lat="53.61348987556994" lon="9.505879171192646">
        <ele>0</ele>
        <time>2010-01-01T12:38:54Z</time>
      </trkpt>
      <trkpt lat="53.613469591364264" lon="9.505645735189319">
        <ele>0</ele>
        <time>2010-01-01T12:38:48Z</time>
      </trkpt>
      <trkpt lat="53.613374205306172" lon="9.504546532407403">
        <ele>0</ele>
        <time>2010-01-01T12:38:22Z</time>
      </trkpt>
      <trkpt lat="53.613348472863436" lon="9.504058454185724">
        <ele>0</ele>
        <time>2010-01-01T12:38:10Z</time>
      </trkpt>
      <trkpt lat="53.613357609137893" lon="9.503418914973736">
        <ele>0</ele>
        <time>2010-01-01T12:37:55Z</time>
      </trkpt>
      <trkpt lat="53.613451654091477" lon="9.503096211701632">
        <ele>0</ele>
        <time>2010-01-01T12:37:47Z</time>
      </trkpt>
      <trkpt lat="53.613609485328197" lon="9.502882221713662">
        <ele>0</ele>
        <time>2010-01-01T12:37:39Z</time>
      </trkpt>
      <trkpt lat="53.613891871646047" lon="9.50268667191267">
        <ele>0</ele>
        <time>2010-01-01T12:37:26Z</time>
      </trkpt>
      <trkpt lat="53.61396973952651" lon="9.502505287528038">
        <ele>0</ele>
        <time>2010-01-01T12:37:21Z</time>
      </trkpt>
      <trkpt lat="53.614021455869079" lon="9.502279814332724">
        <ele>0</ele>
        <time>2010-01-01T12:37:15Z</time>
      </trkpt>
      <trkpt lat="53.614026568830013" lon="9.502059621736407">
        <ele>0</ele>
        <time>2010-01-01T12:37:10Z</time>
      </trkpt>
      <trkpt lat="53.614001087844372" lon="9.5019063167274">
        <ele>0</ele>
        <time>2010-01-01T12:37:06Z</time>
      </trkpt>
      <trkpt lat="53.613950042054057" lon="9.50160289183259">
        <ele>0</ele>
        <time>2010-01-01T12:36:59Z</time>
      </trkpt>
      <trkpt lat="53.613773435354233" lon="9.501205002889037">
        <ele>0</ele>
        <time>2010-01-01T12:36:47Z</time>
      </trkpt>
      <trkpt lat="53.613554248586297" lon="9.500746680423617">
        <ele>0</ele>
        <time>2010-01-01T12:36:33Z</time>
      </trkpt>
      <trkpt lat="53.613441679626703" lon="9.50037351809442">
        <ele>0</ele>
        <time>2010-01-01T12:36:23Z</time>
      </trkpt>
      <trkpt lat="53.613337408751249" lon="9.499736661091447">
        <ele>0</ele>
        <time>2010-01-01T12:36:07Z</time>
      </trkpt>
      <trkpt lat="53.613359788432717" lon="9.499497022479773">
        <ele>0</ele>
        <time>2010-01-01T12:36:02Z</time>
      </trkpt>
      <trkpt lat="53.613608228042722" lon="9.498072685673833">
        <ele>0</ele>
        <time>2010-01-01T12:35:26Z</time>
      </trkpt>
      <trkpt lat="53.613580735400319" lon="9.497820558026433">
        <ele>0</ele>
        <time>2010-01-01T12:35:20Z</time>
      </trkpt>
      <trkpt lat="53.613178068771958" lon="9.496892262250185">
        <ele>0</ele>
        <time>2010-01-01T12:34:53Z</time>
      </trkpt>
      <trkpt lat="53.613057620823383" lon="9.496710961684585">
        <ele>0</ele>
        <time>2010-01-01T12:34:47Z</time>
      </trkpt>
      <trkpt lat="53.612517155706882" lon="9.496332854032516">
        <ele>0</ele>
        <time>2010-01-01T12:34:23Z</time>
      </trkpt>
      <trkpt lat="53.612388912588358" lon="9.496307289227843">
        <ele>0</ele>
        <time>2010-01-01T12:34:18Z</time>
      </trkpt>
      <trkpt lat="53.611925644800067" lon="9.496217938140035">
        <ele>0</ele>
        <time>2010-01-01T12:33:59Z</time>
      </trkpt>
      <trkpt lat="53.611391969025135" lon="9.495935803279281">
        <ele>0</ele>
        <time>2010-01-01T12:33:37Z</time>
      </trkpt>
      <trkpt lat="53.611079324036837" lon="9.495656350627542">
        <ele>0</ele>
        <time>2010-01-01T12:33:23Z</time>
      </trkpt>
      <trkpt lat="53.610781012102962" lon="9.495353009551764">
        <ele>0</ele>
        <time>2010-01-01T12:33:09Z</time>
      </trkpt>
      <trkpt lat="53.610618319362402" lon="9.495039274916053">
        <ele>0</ele>
        <time>2010-01-01T12:32:59Z</time>
      </trkpt>
      <trkpt lat="53.610350769013166" lon="9.494301835075021">
        <ele>0</ele>
        <time>2010-01-01T12:32:38Z</time>
      </trkpt>
      <trkpt lat="53.610111381858587" lon="9.493450317531824">
        <ele>0</ele>
        <time>2010-01-01T12:32:16Z</time>
      </trkpt>
      <trkpt lat="53.609998980537057" lon="9.493041280657053">
        <ele>0</ele>
        <time>2010-01-01T12:32:05Z</time>
      </trkpt>
      <trkpt lat="53.609937373548746" lon="9.492416912689805">
        <ele>0</ele>
        <time>2010-01-01T12:31:50Z</time>
      </trkpt>
      <trkpt lat="53.609873503446579" lon="9.492214908823371">
        <ele>0</ele>
        <time>2010-01-01T12:31:45Z</time>
      </trkpt>
      <trkpt lat="53.609662530943751" lon="9.491598168388009">
        <ele>0</ele>
        <time>2010-01-01T12:31:28Z</time>
      </trkpt>
      <trkpt lat="53.609471591189504" lon="9.491212265565991">
        <ele>0</ele>
        <time>2010-01-01T12:31:16Z</time>
      </trkpt>
      <trkpt lat="53.609344102442265" lon="9.490994922816753">
        <ele>0</ele>
        <time>2010-01-01T12:31:09Z</time>
      </trkpt>
      <trkpt lat="53.609189204871655" lon="9.490513382479548">
        <ele>0</ele>
        <time>2010-01-01T12:30:56Z</time>
      </trkpt>
      <trkpt lat="53.608885193243623" lon="9.489862276241183">
        <ele>0</ele>
        <time>2010-01-01T12:30:36Z</time>
      </trkpt>
      <trkpt lat="53.60834657214582" lon="9.48902852833271">
        <ele>0</ele>
        <time>2010-01-01T12:30:07Z</time>
      </trkpt>
      <trkpt lat="53.607844328507781" lon="9.488015407696366">
        <ele>0</ele>
        <time>2010-01-01T12:29:35Z</time>
      </trkpt>
      <trkpt lat="53.607695130631328" lon="9.487893786281347">
        <ele>0</ele>
        <time>2010-01-01T12:29:29Z</time>
      </trkpt>
      <trkpt lat="53.607438812032342" lon="9.487782893702388">
        <ele>0</ele>
        <time>2010-01-01T12:29:18Z</time>
      </trkpt>
      <trkpt lat="53.607296487316489" lon="9.487697314471006">
        <ele>0</ele>
        <time>2010-01-01T12:29:12Z</time>
      </trkpt>
      <trkpt lat="53.606883008033037" lon="9.48707546107471">
        <ele>0</ele>
        <time>2010-01-01T12:28:50Z</time>
      </trkpt>
      <trkpt lat="53.606536248698831" lon="9.486861638724804">
        <ele>0</ele>
        <time>2010-01-01T12:28:35Z</time>
      </trkpt>
      <trkpt lat="53.605652041733265" lon="9.486517896875739">
        <ele>0</ele>
        <time>2010-01-01T12:27:59Z</time>
      </trkpt>
      <trkpt lat="53.605274939909577" lon="9.485737960785627">
        <ele>0</ele>
        <time>2010-01-01T12:27:35Z</time>
      </trkpt>
      <trkpt lat="53.604864981025457" lon="9.484931956976652">
        <ele>0</ele>
        <time>2010-01-01T12:27:10Z</time>
      </trkpt>
      <trkpt lat="53.604489639401436" lon="9.4845478143543">
        <ele>0</ele>
        <time>2010-01-01T12:26:52Z</time>
      </trkpt>
      <trkpt lat="53.605451798066497" lon="9.483968876302242">
        <ele>0</ele>
        <time>2010-01-01T12:26:11Z</time>
      </trkpt>
      <trkpt lat="53.605360686779022" lon="9.483534023165703">
        <ele>0</ele>
        <time>2010-01-01T12:26:00Z</time>
      </trkpt>
      <trkpt lat="53.604993643239141" lon="9.482419230043888">
        <ele>0</ele>
        <time>2010-01-01T12:25:30Z</time>
      </trkpt>
      <trkpt lat="53.60467747785151" lon="9.481495963409543">
        <ele>0</ele>
        <time>2010-01-01T12:25:05Z</time>
      </trkpt>
      <trkpt lat="53.604207169264555" lon="9.480379996821284">
        <ele>0</ele>
        <time>2010-01-01T12:24:32Z</time>
      </trkpt>
      <trkpt lat="53.604055708274245" lon="9.479545410722494">
        <ele>0</ele>
        <time>2010-01-01T12:24:11Z</time>
      </trkpt>
      <trkpt lat="53.603012664243579" lon="9.479707097634673">
        <ele>0</ele>
        <time>2010-01-01T12:23:30Z</time>
      </trkpt>
      <trkpt lat="53.601891417056322" lon="9.479771303012967">
        <ele>0</ele>
        <time>2010-01-01T12:22:45Z</time>
      </trkpt>
      <trkpt lat="53.601616155356169" lon="9.478615773841739">
        <ele>0</ele>
        <time>2010-01-01T12:22:15Z</time>
      </trkpt>
      <trkpt lat="53.601313903927803" lon="9.478781400248408">
        <ele>0</ele>
        <time>2010-01-01T12:22:02Z</time>
      </trkpt>
      <trkpt lat="53.60081342048943" lon="9.479167135432363">
        <ele>0</ele>
        <time>2010-01-01T12:21:40Z</time>
      </trkpt>
      <trkpt lat="53.599845394492149" lon="9.480050755664706">
        <ele>0</ele>
        <time>2010-01-01T12:20:56Z</time>
      </trkpt>
      <trkpt lat="53.599482206627727" lon="9.480541767552495">
        <ele>0</ele>
        <time>2010-01-01T12:20:38Z</time>
      </trkpt>
      <trkpt lat="53.599039474502206" lon="9.481168398633599">
        <ele>0</ele>
        <time>2010-01-01T12:20:14Z</time>
      </trkpt>
      <trkpt lat="53.598575536161661" lon="9.481546003371477">
        <ele>0</ele>
        <time>2010-01-01T12:19:54Z</time>
      </trkpt>
      <trkpt lat="53.598107909783721" lon="9.482043804600835">
        <ele>0</ele>
        <time>2010-01-01T12:19:32Z</time>
      </trkpt>
      <trkpt lat="53.597966842353344" lon="9.482315042987466">
        <ele>0</ele>
        <time>2010-01-01T12:19:23Z</time>
      </trkpt>
      <trkpt lat="53.597918814048171" lon="9.48224195279181">
        <ele>0</ele>
        <time>2010-01-01T12:19:20Z</time>
      </trkpt>
      <trkpt lat="53.5978620685637" lon="9.481901815161109">
        <ele>0</ele>
        <time>2010-01-01T12:19:12Z</time>
      </trkpt>
      <trkpt lat="53.597850669175386" lon="9.481821684166789">
        <ele>0</ele>
        <time>2010-01-01T12:19:10Z</time>
      </trkpt>
      <trkpt lat="53.597402237355709" lon="9.479466620832682">
        <ele>0</ele>
        <time>2010-01-01T12:18:11Z</time>
      </trkpt>
      <trkpt lat="53.596387440338731" lon="9.477422190830112">
        <ele>0</ele>
        <time>2010-01-01T12:17:08Z</time>
      </trkpt>
      <trkpt lat="53.596751466393471" lon="9.475059667602181">
        <ele>0</ele>
        <time>2010-01-01T12:16:10Z</time>
      </trkpt>
      <trkpt lat="53.596764877438545" lon="9.475023206323385">
        <ele>0</ele>
        <time>2010-01-01T12:16:09Z</time>
      </trkpt>
      <trkpt lat="53.596900831907988" lon="9.474653312936425">
        <ele>0</ele>
        <time>2010-01-01T12:15:59Z</time>
      </trkpt>
      <trkpt lat="53.598276218399405" lon="9.471886027604342">
        <ele>0</ele>
        <time>2010-01-01T12:14:33Z</time>
      </trkpt>
      <trkpt lat="53.598287953063846" lon="9.471886111423373">
        <ele>0</ele>
        <time>2010-01-01T13:46:19Z</time>
      </trkpt>
      <trkpt lat="53.597974721342325" lon="9.47099176235497">
        <ele>0</ele>
        <time>2010-01-01T13:46:44Z</time>
      </trkpt>
      <trkpt lat="53.59796617180109" lon="9.470771653577685">
        <ele>0</ele>
        <time>2010-01-01T13:46:49Z</time>
      </trkpt>
      <trkpt lat="53.597964411601424" lon="9.470726810395718">
        <ele>0</ele>
        <time>2010-01-01T13:46:50Z</time>
      </trkpt>
      <trkpt lat="53.597472393885255" lon="9.469338515773416">
        <ele>0</ele>
        <time>2010-01-01T13:47:28Z</time>
      </trkpt>
      <trkpt lat="53.597470717504621" lon="9.468170329928398">
        <ele>0</ele>
        <time>2010-01-01T13:47:56Z</time>
      </trkpt>
      <trkpt lat="53.597690155729651" lon="9.465253511443734">
        <ele>0</ele>
        <time>2010-01-01T13:49:06Z</time>
      </trkpt>
      <trkpt lat="53.597704991698265" lon="9.46504027582705">
        <ele>0</ele>
        <time>2010-01-01T13:49:11Z</time>
      </trkpt>
      <trkpt lat="53.597758635878563" lon="9.464271571487188">
        <ele>0</ele>
        <time>2010-01-01T13:49:30Z</time>
      </trkpt>
      <trkpt lat="53.598033729940653" lon="9.460386140272021">
        <ele>0</ele>
        <time>2010-01-01T13:51:02Z</time>
      </trkpt>
      <trkpt lat="53.598467074334621" lon="9.453275017440319">
        <ele>0</ele>
        <time>2010-01-01T13:53:52Z</time>
      </trkpt>
      <trkpt lat="53.598528429865837" lon="9.451700560748577">
        <ele>0</ele>
        <time>2010-01-01T13:54:30Z</time>
      </trkpt>
      <trkpt lat="53.59860579483211" lon="9.450487280264497">
        <ele>0</ele>
        <time>2010-01-01T13:54:59Z</time>
      </trkpt>
      <trkpt lat="53.598936963826418" lon="9.449497377499938">
        <ele>0</ele>
        <time>2010-01-01T13:55:26Z</time>
      </trkpt>
      <trkpt lat="53.599404087290168" lon="9.448310080915689">
        <ele>0</ele>
        <time>2010-01-01T13:56:00Z</time>
      </trkpt>
      <trkpt lat="53.599498132243752" lon="9.447991317138076">
        <ele>0</ele>
        <time>2010-01-01T13:56:08Z</time>
      </trkpt>
      <trkpt lat="53.599755708128214" lon="9.447947982698679">
        <ele>0</ele>
        <time>2010-01-01T13:56:18Z</time>
      </trkpt>
      <trkpt lat="53.600191986188293" lon="9.447879334911704">
        <ele>0</ele>
        <time>2010-01-01T13:56:36Z</time>
      </trkpt>
      <trkpt lat="53.600628850981593" lon="9.447676241397858">
        <ele>0</ele>
        <time>2010-01-01T13:56:54Z</time>
      </trkpt>
      <trkpt lat="53.600971587002277" lon="9.44736217148602">
        <ele>0</ele>
        <time>2010-01-01T13:57:10Z</time>
      </trkpt>
      <trkpt lat="53.601285321637988" lon="9.447035612538457">
        <ele>0</ele>
        <time>2010-01-01T13:57:24Z</time>
      </trkpt>
      <trkpt lat="53.601598469540477" lon="9.446843415498734">
        <ele>0</ele>
        <time>2010-01-01T13:57:38Z</time>
      </trkpt>
      <trkpt lat="53.601889405399561" lon="9.446785412728786">
        <ele>0</ele>
        <time>2010-01-01T13:57:50Z</time>
      </trkpt>
      <trkpt lat="53.601669212803245" lon="9.445426873862743">
        <ele>0</ele>
        <time>2010-01-01T13:58:23Z</time>
      </trkpt>
      <trkpt lat="53.601586986333132" lon="9.444094151258469">
        <ele>0</ele>
        <time>2010-01-01T13:58:55Z</time>
      </trkpt>
      <trkpt lat="53.601440386846662" lon="9.442337974905968">
        <ele>0</ele>
        <time>2010-01-01T13:59:37Z</time>
      </trkpt>
      <trkpt lat="53.60144130885601" lon="9.442338142544031">
        <ele>0</ele>
        <time>2010-01-01T13:59:37Z</time>
      </trkpt>
      <trkpt lat="53.601339217275381" lon="9.441258385777473">
        <ele>0</ele>
        <time>2010-01-01T14:00:03Z</time>
      </trkpt>
      <trkpt lat="53.601284148171544" lon="9.439761629328132">
        <ele>0</ele>
        <time>2010-01-01T14:00:39Z</time>
      </trkpt>
      <trkpt lat="53.601195719093084" lon="9.436865262687206">
        <ele>0</ele>
        <time>2010-01-01T14:01:47Z</time>
      </trkpt>
      <trkpt lat="53.601159676909447" lon="9.434106945991516">
        <ele>0</ele>
        <time>2010-01-01T14:02:53Z</time>
      </trkpt>
      <trkpt lat="53.601166130974889" lon="9.432568363845348">
        <ele>0</ele>
        <time>2010-01-01T14:03:30Z</time>
      </trkpt>
      <trkpt lat="53.601020537316799" lon="9.432159159332514">
        <ele>0</ele>
        <time>2010-01-01T14:03:41Z</time>
      </trkpt>
      <trkpt lat="53.600742928683758" lon="9.431111672893167">
        <ele>0</ele>
        <time>2010-01-01T14:04:08Z</time>
      </trkpt>
      <trkpt lat="53.600575625896454" lon="9.430463248863816">
        <ele>0</ele>
        <time>2010-01-01T14:04:25Z</time>
      </trkpt>
      <trkpt lat="53.600240098312497" lon="9.43024842068553">
        <ele>0</ele>
        <time>2010-01-01T14:04:39Z</time>
      </trkpt>
      <trkpt lat="53.600348476320505" lon="9.429495055228472">
        <ele>0</ele>
        <time>2010-01-01T14:04:58Z</time>
      </trkpt>
      <trkpt lat="53.600132223218679" lon="9.428416974842548">
        <ele>0</ele>
        <time>2010-01-01T14:05:25Z</time>
      </trkpt>
      <trkpt lat="53.59977750107646" lon="9.426719471812248">
        <ele>0</ele>
        <time>2010-01-01T14:06:08Z</time>
      </trkpt>
      <trkpt lat="53.599006701260805" lon="9.422786179929972">
        <ele>0</ele>
        <time>2010-01-01T14:07:46Z</time>
      </trkpt>
      <trkpt lat="53.598818695172668" lon="9.421893591061234">
        <ele>0</ele>
        <time>2010-01-01T14:08:08Z</time>
      </trkpt>
      <trkpt lat="53.598628342151642" lon="9.419793672859669">
        <ele>0</ele>
        <time>2010-01-01T14:08:59Z</time>
      </trkpt>
      <trkpt lat="53.598507391288877" lon="9.41820471547544">
        <ele>0</ele>
        <time>2010-01-01T14:09:37Z</time>
      </trkpt>
      <trkpt lat="53.598414184525609" lon="9.417004846036434">
        <ele>0</ele>
        <time>2010-01-01T14:10:06Z</time>
      </trkpt>
      <trkpt lat="53.59842985868454" lon="9.416434038430452">
        <ele>0</ele>
        <time>2010-01-01T14:10:19Z</time>
      </trkpt>
      <trkpt lat="53.598632533103228" lon="9.415138196200132">
        <ele>0</ele>
        <time>2010-01-01T14:10:51Z</time>
      </trkpt>
      <trkpt lat="53.598749963566661" lon="9.414689764380455">
        <ele>0</ele>
        <time>2010-01-01T14:11:03Z</time>
      </trkpt>
      <trkpt lat="53.598778126761317" lon="9.41428542137146">
        <ele>0</ele>
        <time>2010-01-01T14:11:12Z</time>
      </trkpt>
      <trkpt lat="53.598894719034433" lon="9.41407679580152">
        <ele>0</ele>
        <time>2010-01-01T14:11:19Z</time>
      </trkpt>
      <trkpt lat="53.598940400406718" lon="9.413762558251619">
        <ele>0</ele>
        <time>2010-01-01T14:11:27Z</time>
      </trkpt>
      <trkpt lat="53.599039306864142" lon="9.413493750616908">
        <ele>0</ele>
        <time>2010-01-01T14:11:34Z</time>
      </trkpt>
      <trkpt lat="53.599613634869456" lon="9.411388384178281">
        <ele>0</ele>
        <time>2010-01-01T14:12:29Z</time>
      </trkpt>
      <trkpt lat="53.60012979246676" lon="9.409461300820112">
        <ele>0</ele>
        <time>2010-01-01T14:13:20Z</time>
      </trkpt>
      <trkpt lat="53.600510582327843" lon="9.408299652859569">
        <ele>0</ele>
        <time>2010-01-01T14:13:51Z</time>
      </trkpt>
      <trkpt lat="53.601049454882741" lon="9.406602066010237">
        <ele>0</ele>
        <time>2010-01-01T14:14:37Z</time>
      </trkpt>
      <trkpt lat="53.601053394377232" lon="9.406589493155479">
        <ele>0</ele>
        <time>2010-01-01T14:14:37Z</time>
      </trkpt>
      <trkpt lat="53.601063033565879" lon="9.40655923448503">
        <ele>0</ele>
        <time>2010-01-01T14:14:38Z</time>
      </trkpt>
      <trkpt lat="53.600826244801283" lon="9.406319092959166">
        <ele>0</ele>
        <time>2010-01-01T14:14:49Z</time>
      </trkpt>
      <trkpt lat="53.600715938955545" lon="9.406076185405254">
        <ele>0</ele>
        <time>2010-01-01T14:14:56Z</time>
      </trkpt>
      <trkpt lat="53.600624911487103" lon="9.405305637046695">
        <ele>0</ele>
        <time>2010-01-01T14:15:15Z</time>
      </trkpt>
      <trkpt lat="53.600406562909484" lon="9.403536049649119">
        <ele>0</ele>
        <time>2010-01-01T14:15:58Z</time>
      </trkpt>
      <trkpt lat="53.600252671167254" lon="9.403156684711576">
        <ele>0</ele>
        <time>2010-01-01T14:16:09Z</time>
      </trkpt>
      <trkpt lat="53.599791415035725" lon="9.402056392282248">
        <ele>0</ele>
        <time>2010-01-01T14:16:41Z</time>
      </trkpt>
      <trkpt lat="53.599255392327905" lon="9.400826850906014">
        <ele>0</ele>
        <time>2010-01-01T14:17:17Z</time>
      </trkpt>
      <trkpt lat="53.599038636311889" lon="9.399825381115079">
        <ele>0</ele>
        <time>2010-01-01T14:17:42Z</time>
      </trkpt>
      <trkpt lat="53.59856472350657" lon="9.397774580866098">
        <ele>0</ele>
        <time>2010-01-01T14:18:35Z</time>
      </trkpt>
      <trkpt lat="53.598705623298883" lon="9.396684346720576">
        <ele>0</ele>
        <time>2010-01-01T14:19:01Z</time>
      </trkpt>
      <trkpt lat="53.599121198058128" lon="9.393871715292335">
        <ele>0</ele>
        <time>2010-01-01T14:20:10Z</time>
      </trkpt>
      <trkpt lat="53.599307611584663" lon="9.392081256955862">
        <ele>0</ele>
        <time>2010-01-01T14:20:53Z</time>
      </trkpt>
      <trkpt lat="53.599435603246093" lon="9.391123373061419">
        <ele>0</ele>
        <time>2010-01-01T14:21:17Z</time>
      </trkpt>
      <trkpt lat="53.599544232711196" lon="9.390614842996001">
        <ele>0</ele>
        <time>2010-01-01T14:21:29Z</time>
      </trkpt>
      <trkpt lat="53.599814465269446" lon="9.389842953532934">
        <ele>0</ele>
        <time>2010-01-01T14:21:51Z</time>
      </trkpt>
      <trkpt lat="53.600026611238718" lon="9.389238450676203">
        <ele>0</ele>
        <time>2010-01-01T14:22:07Z</time>
      </trkpt>
      <trkpt lat="53.600341938436031" lon="9.388503776863217">
        <ele>0</ele>
        <time>2010-01-01T14:22:29Z</time>
      </trkpt>
      <trkpt lat="53.600436821579933" lon="9.388145701959729">
        <ele>0</ele>
        <time>2010-01-01T14:22:38Z</time>
      </trkpt>
      <trkpt lat="53.600559113547206" lon="9.387402394786477">
        <ele>0</ele>
        <time>2010-01-01T14:22:57Z</time>
      </trkpt>
      <trkpt lat="53.600948620587587" lon="9.384513236582279">
        <ele>0</ele>
        <time>2010-01-01T14:24:07Z</time>
      </trkpt>
      <trkpt lat="53.601321531459689" lon="9.382138727232814">
        <ele>0</ele>
        <time>2010-01-01T14:25:05Z</time>
      </trkpt>
      <trkpt lat="53.601696202531457" lon="9.379301285371184">
        <ele>0</ele>
        <time>2010-01-01T14:26:14Z</time>
      </trkpt>
      <trkpt lat="53.602758441120386" lon="9.372197287157178">
        <ele>0</ele>
        <time>2010-01-01T14:29:08Z</time>
      </trkpt>
      <trkpt lat="53.603524211794138" lon="9.366775536909699">
        <ele>0</ele>
        <time>2010-01-01T14:31:21Z</time>
      </trkpt>
      <trkpt lat="53.602720303460956" lon="9.366557355970144">
        <ele>0</ele>
        <time>2010-01-01T14:31:53Z</time>
      </trkpt>
      <trkpt lat="53.602731954306364" lon="9.36636314727366">
        <ele>0</ele>
        <time>2010-01-01T14:31:58Z</time>
      </trkpt>
      <trkpt lat="53.602895904332399" lon="9.363628383725882">
        <ele>0</ele>
        <time>2010-01-01T14:33:03Z</time>
      </trkpt>
      <trkpt lat="53.603101680055261" lon="9.359893826767802">
        <ele>0</ele>
        <time>2010-01-01T14:34:32Z</time>
      </trkpt>
      <trkpt lat="53.603540807962418" lon="9.352354891598225">
        <ele>0</ele>
        <time>2010-01-01T14:37:32Z</time>
      </trkpt>
      <trkpt lat="53.603746918961406" lon="9.348386730998755">
        <ele>0</ele>
        <time>2010-01-01T14:39:07Z</time>
      </trkpt>
      <trkpt lat="53.603953532874584" lon="9.344185050576925">
        <ele>0</ele>
        <time>2010-01-01T14:40:47Z</time>
      </trkpt>
      <trkpt lat="53.603983875364065" lon="9.34329790994525">
        <ele>0</ele>
        <time>2010-01-01T14:41:08Z</time>
      </trkpt>
      <trkpt lat="53.604208510369062" lon="9.342459049075842">
        <ele>0</ele>
        <time>2010-01-01T14:41:30Z</time>
      </trkpt>
      <trkpt lat="53.604992805048823" lon="9.340176824480295">
        <ele>0</ele>
        <time>2010-01-01T14:42:33Z</time>
      </trkpt>
      <trkpt lat="53.605386083945632" lon="9.338638661429286">
        <ele>0</ele>
        <time>2010-01-01T14:43:12Z</time>
      </trkpt>
      <trkpt lat="53.60575002618134" lon="9.337660744786263">
        <ele>0</ele>
        <time>2010-01-01T14:43:40Z</time>
      </trkpt>
      <trkpt lat="53.606254616752267" lon="9.33603004552424">
        <ele>0</ele>
        <time>2010-01-01T14:44:24Z</time>
      </trkpt>
      <trkpt lat="53.607153659686446" lon="9.332393975928426">
        <ele>0</ele>
        <time>2010-01-01T14:45:57Z</time>
      </trkpt>
      <trkpt lat="53.607492540031672" lon="9.330411488190293">
        <ele>0</ele>
        <time>2010-01-01T14:46:46Z</time>
      </trkpt>
      <trkpt lat="53.607943318784237" lon="9.325327780097723">
        <ele>0</ele>
        <time>2010-01-01T14:48:48Z</time>
      </trkpt>
      <trkpt lat="53.607983132824302" lon="9.323689285665751">
        <ele>0</ele>
        <time>2010-01-01T14:49:27Z</time>
      </trkpt>
      <trkpt lat="53.609512997791171" lon="9.322953606024384">
        <ele>0</ele>
        <time>2010-01-01T14:50:31Z</time>
      </trkpt>
      <trkpt lat="53.611709978431463" lon="9.322036122903228">
        <ele>0</ele>
        <time>2010-01-01T14:52:01Z</time>
      </trkpt>
      <trkpt lat="53.613601187244058" lon="9.321186365559697">
        <ele>0</ele>
        <time>2010-01-01T14:53:20Z</time>
      </trkpt>
      <trkpt lat="53.614227399230003" lon="9.320167880505323">
        <ele>0</ele>
        <time>2010-01-01T14:53:55Z</time>
      </trkpt>
      <trkpt lat="53.614722937345505" lon="9.317223988473415">
        <ele>0</ele>
        <time>2010-01-01T14:55:07Z</time>
      </trkpt>
      <trkpt lat="53.614864507690072" lon="9.316197289153934">
        <ele>0</ele>
        <time>2010-01-01T14:55:32Z</time>
      </trkpt>
      <trkpt lat="53.614844223484397" lon="9.315145695582032">
        <ele>0</ele>
        <time>2010-01-01T14:55:57Z</time>
      </trkpt>
      <trkpt lat="53.614985793828964" lon="9.314053533598781">
        <ele>0</ele>
        <time>2010-01-01T14:56:24Z</time>
      </trkpt>
      <trkpt lat="53.615094171836972" lon="9.313376946374774">
        <ele>0</ele>
        <time>2010-01-01T14:56:41Z</time>
      </trkpt>
      <trkpt lat="53.615032229572535" lon="9.312825920060277">
        <ele>0</ele>
        <time>2010-01-01T14:56:54Z</time>
      </trkpt>
      <trkpt lat="53.614683290943503" lon="9.311762424185872">
        <ele>0</ele>
        <time>2010-01-01T14:57:23Z</time>
      </trkpt>
      <trkpt lat="53.614533841609955" lon="9.310421068221331">
        <ele>0</ele>
        <time>2010-01-01T14:57:55Z</time>
      </trkpt>
      <trkpt lat="53.614380201324821" lon="9.308813754469156">
        <ele>0</ele>
        <time>2010-01-01T14:58:34Z</time>
      </trkpt>
      <trkpt lat="53.614391265437007" lon="9.307541381567717">
        <ele>0</ele>
        <time>2010-01-01T14:59:04Z</time>
      </trkpt>
      <trkpt lat="53.614552197977901" lon="9.305738853290677">
        <ele>0</ele>
        <time>2010-01-01T14:59:47Z</time>
      </trkpt>
      <trkpt lat="53.615491390228271" lon="9.30623447522521">
        <ele>0</ele>
        <time>2010-01-01T15:00:27Z</time>
      </trkpt>
      <trkpt lat="53.615889865905046" lon="9.306223830208182">
        <ele>0</ele>
        <time>2010-01-01T15:00:43Z</time>
      </trkpt>
      <trkpt lat="53.616718836128712" lon="9.306045211851597">
        <ele>0</ele>
        <time>2010-01-01T15:01:16Z</time>
      </trkpt>
      <trkpt lat="53.617866570129991" lon="9.306221902370453">
        <ele>0</ele>
        <time>2010-01-01T15:02:02Z</time>
      </trkpt>
      <trkpt lat="53.618716327473521" lon="9.306262219324708">
        <ele>0</ele>
        <time>2010-01-01T15:02:36Z</time>
      </trkpt>
      <trkpt lat="53.62001652829349" lon="9.307100409641862">
        <ele>0</ele>
        <time>2010-01-01T15:03:32Z</time>
      </trkpt>
      <trkpt lat="53.620940381661057" lon="9.307730477303267">
        <ele>0</ele>
        <time>2010-01-01T15:04:12Z</time>
      </trkpt>
      <trkpt lat="53.622250724583864" lon="9.308624155819416">
        <ele>0</ele>
        <time>2010-01-01T15:05:08Z</time>
      </trkpt>
      <trkpt lat="53.623195867985487" lon="9.309272412210703">
        <ele>0</ele>
        <time>2010-01-01T15:05:49Z</time>
      </trkpt>
      <trkpt lat="53.623688137158751" lon="9.309371234849095">
        <ele>0</ele>
        <time>2010-01-01T15:06:09Z</time>
      </trkpt>
      <trkpt lat="53.623871449381113" lon="9.30936561897397">
        <ele>0</ele>
        <time>2010-01-01T15:06:16Z</time>
      </trkpt>
      <trkpt lat="53.624575110152364" lon="9.308968149125576">
        <ele>0</ele>
        <time>2010-01-01T15:06:46Z</time>
      </trkpt>
      <trkpt lat="53.625506926327944" lon="9.308048905804753">
        <ele>0</ele>
        <time>2010-01-01T15:07:29Z</time>
      </trkpt>
      <trkpt lat="53.626137161627412" lon="9.307613465934992">
        <ele>0</ele>
        <time>2010-01-01T15:07:57Z</time>
      </trkpt>
      <trkpt lat="53.627517577260733" lon="9.306556591764092">
        <ele>0</ele>
        <time>2010-01-01T15:08:57Z</time>
      </trkpt>
      <trkpt lat="53.628598172217607" lon="9.305796856060624">
        <ele>0</ele>
        <time>2010-01-01T15:09:44Z</time>
      </trkpt>
      <trkpt lat="53.629604754969478" lon="9.305052543058991">
        <ele>0</ele>
        <time>2010-01-01T15:10:28Z</time>
      </trkpt>
      <trkpt lat="53.630761792883277" lon="9.304103292524815">
        <ele>0</ele>
        <time>2010-01-01T15:11:20Z</time>
      </trkpt>
      <trkpt lat="53.631211398169398" lon="9.30359149351716">
        <ele>0</ele>
        <time>2010-01-01T15:11:41Z</time>
      </trkpt>
      <trkpt lat="53.631975408643484" lon="9.302508132532239">
        <ele>0</ele>
        <time>2010-01-01T15:12:21Z</time>
      </trkpt>
      <trkpt lat="53.632460972294211" lon="9.301924919709563">
        <ele>0</ele>
        <time>2010-01-01T15:12:45Z</time>
      </trkpt>
      <trkpt lat="53.63284301944077" lon="9.301373809576035">
        <ele>0</ele>
        <time>2010-01-01T15:13:05Z</time>
      </trkpt>
      <trkpt lat="53.633429333567619" lon="9.300423301756382">
        <ele>0</ele>
        <time>2010-01-01T15:13:38Z</time>
      </trkpt>
      <trkpt lat="53.633963344618678" lon="9.299578908830881">
        <ele>0</ele>
        <time>2010-01-01T15:14:07Z</time>
      </trkpt>
      <trkpt lat="53.634464163333178" lon="9.299255283549428">
        <ele>0</ele>
        <time>2010-01-01T15:14:29Z</time>
      </trkpt>
      <trkpt lat="53.635966368019581" lon="9.298383900895715">
        <ele>0</ele>
        <time>2010-01-01T15:15:32Z</time>
      </trkpt>
      <trkpt lat="53.637719191610813" lon="9.29727447219193">
        <ele>0</ele>
        <time>2010-01-01T15:16:47Z</time>
      </trkpt>
      <trkpt lat="53.638603482395411" lon="9.296816987916827">
        <ele>0</ele>
        <time>2010-01-01T15:17:24Z</time>
      </trkpt>
      <trkpt lat="53.638604320585728" lon="9.296816904097795">
        <ele>0</ele>
        <time>2010-01-01T15:17:24Z</time>
      </trkpt>
      <trkpt lat="53.638764247298241" lon="9.296733839437366">
        <ele>0</ele>
        <time>2010-01-01T15:17:31Z</time>
      </trkpt>
      <trkpt lat="53.639312004670501" lon="9.2965576518327">
        <ele>0</ele>
        <time>2010-01-01T15:17:53Z</time>
      </trkpt>
      <trkpt lat="53.640407100319862" lon="9.296813048422337">
        <ele>0</ele>
        <time>2010-01-01T15:18:38Z</time>
      </trkpt>
      <trkpt lat="53.641831018030643" lon="9.297022931277752">
        <ele>0</ele>
        <time>2010-01-01T15:19:35Z</time>
      </trkpt>
      <trkpt lat="53.642858471721411" lon="9.297147067263722">
        <ele>0</ele>
        <time>2010-01-01T15:20:16Z</time>
      </trkpt>
      <trkpt lat="53.643469596281648" lon="9.29715134203434">
        <ele>0</ele>
        <time>2010-01-01T15:20:40Z</time>
      </trkpt>
      <trkpt lat="53.6459138430655" lon="9.297262066975236">
        <ele>0</ele>
        <time>2010-01-01T15:22:18Z</time>
      </trkpt>
      <trkpt lat="53.647553427144885" lon="9.296993091702461">
        <ele>0</ele>
        <time>2010-01-01T15:23:24Z</time>
      </trkpt>
      <trkpt lat="53.648775676265359" lon="9.296978339552879">
        <ele>0</ele>
        <time>2010-01-01T15:24:13Z</time>
      </trkpt>
      <trkpt lat="53.651940850540996" lon="9.297608491033316">
        <ele>0</ele>
        <time>2010-01-01T15:26:21Z</time>
      </trkpt>
      <trkpt lat="53.652940392494202" lon="9.297802615910769">
        <ele>0</ele>
        <time>2010-01-01T15:27:01Z</time>
      </trkpt>
      <trkpt lat="53.653720496222377" lon="9.296872895210981">
        <ele>0</ele>
        <time>2010-01-01T15:27:39Z</time>
      </trkpt>
      <trkpt lat="53.65422248840332" lon="9.296058174222708">
        <ele>0</ele>
        <time>2010-01-01T15:28:07Z</time>
      </trkpt>
      <trkpt lat="53.654808467254043" lon="9.29498671554029">
        <ele>0</ele>
        <time>2010-01-01T15:28:42Z</time>
      </trkpt>
      <trkpt lat="53.655478181317449" lon="9.293775614351034">
        <ele>0</ele>
        <time>2010-01-01T15:29:21Z</time>
      </trkpt>
      <trkpt lat="53.655951339751482" lon="9.293404882773757">
        <ele>0</ele>
        <time>2010-01-01T15:29:42Z</time>
      </trkpt>
      <trkpt lat="53.656562548130751" lon="9.293338917195797">
        <ele>0</ele>
        <time>2010-01-01T15:30:06Z</time>
      </trkpt>
      <trkpt lat="53.662890046834946" lon="9.29531704634428">
        <ele>0</ele>
        <time>2010-01-01T15:34:24Z</time>
      </trkpt>
      <trkpt lat="53.670180542394519" lon="9.297596924006939">
        <ele>0</ele>
        <time>2010-01-01T15:39:21Z</time>
      </trkpt>
      <trkpt lat="53.670213650912046" lon="9.297577226534486">
        <ele>0</ele>
        <time>2010-01-01T15:39:22Z</time>
      </trkpt>
      <trkpt lat="53.670413726940751" lon="9.297458287328482">
        <ele>0</ele>
        <time>2010-01-01T15:39:31Z</time>
      </trkpt>
      <trkpt lat="53.670600140467286" lon="9.297036593779922">
        <ele>0</ele>
        <time>2010-01-01T15:39:43Z</time>
      </trkpt>
      <trkpt lat="53.671676628291607" lon="9.292227895930409">
        <ele>0</ele>
        <time>2010-01-01T15:41:45Z</time>
      </trkpt>
      <trkpt lat="53.672265708446503" lon="9.289892949163914">
        <ele>0</ele>
        <time>2010-01-01T15:42:45Z</time>
      </trkpt>
      <trkpt lat="53.672827463597059" lon="9.287323895841837">
        <ele>0</ele>
        <time>2010-01-01T15:43:50Z</time>
      </trkpt>
      <trkpt lat="53.673136755824089" lon="9.285782212391496">
        <ele>0</ele>
        <time>2010-01-01T15:44:29Z</time>
      </trkpt>
      <trkpt lat="53.67341972887516" lon="9.283585483208299">
        <ele>0</ele>
        <time>2010-01-01T15:45:22Z</time>
      </trkpt>
      <trkpt lat="53.673701947554946" lon="9.28171606734395">
        <ele>0</ele>
        <time>2010-01-01T15:46:08Z</time>
      </trkpt>
      <trkpt lat="53.673901436850429" lon="9.279565438628197">
        <ele>0</ele>
        <time>2010-01-01T15:47:00Z</time>
      </trkpt>
      <trkpt lat="53.674124982208014" lon="9.279005527496338">
        <ele>0</ele>
        <time>2010-01-01T15:47:16Z</time>
      </trkpt>
      <trkpt lat="53.674460342153907" lon="9.278118889778852">
        <ele>0</ele>
        <time>2010-01-01T15:47:41Z</time>
      </trkpt>
      <trkpt lat="53.675270956009626" lon="9.27597220055759">
        <ele>0</ele>
        <time>2010-01-01T15:48:41Z</time>
      </trkpt>
      <trkpt lat="53.676081569865346" lon="9.273778656497598">
        <ele>0</ele>
        <time>2010-01-01T15:49:42Z</time>
      </trkpt>
      <trkpt lat="53.676779950037599" lon="9.272052152082324">
        <ele>0</ele>
        <time>2010-01-01T15:50:32Z</time>
      </trkpt>
      <trkpt lat="53.677394846454263" lon="9.270371831953526">
        <ele>0</ele>
        <time>2010-01-01T15:51:19Z</time>
      </trkpt>
      <trkpt lat="53.677955009043217" lon="9.268316840752959">
        <ele>0</ele>
        <time>2010-01-01T15:52:12Z</time>
      </trkpt>
      <trkpt lat="53.678264133632183" lon="9.266728051006794">
        <ele>0</ele>
        <time>2010-01-01T15:52:52Z</time>
      </trkpt>
      <trkpt lat="53.678687503561378" lon="9.263736382126808">
        <ele>0</ele>
        <time>2010-01-01T15:54:05Z</time>
      </trkpt>
      <trkpt lat="53.679251102730632" lon="9.260043650865555">
        <ele>0</ele>
        <time>2010-01-01T15:55:35Z</time>
      </trkpt>
      <trkpt lat="53.679871279746294" lon="9.255883377045393">
        <ele>0</ele>
        <time>2010-01-01T15:57:17Z</time>
      </trkpt>
      <trkpt lat="53.680181661620736" lon="9.253592602908611">
        <ele>0</ele>
        <time>2010-01-01T15:58:13Z</time>
      </trkpt>
      <trkpt lat="53.680463545024395" lon="9.251675913110375">
        <ele>0</ele>
        <time>2010-01-01T15:58:59Z</time>
      </trkpt>
      <trkpt lat="53.68092019110918" lon="9.248496992513537">
        <ele>0</ele>
        <time>2010-01-01T16:00:17Z</time>
      </trkpt>
      <trkpt lat="53.681406928226352" lon="9.244883386418223">
        <ele>0</ele>
        <time>2010-01-01T16:01:45Z</time>
      </trkpt>
      <trkpt lat="53.68164187297225" lon="9.243453685194254">
        <ele>0</ele>
        <time>2010-01-01T16:02:20Z</time>
      </trkpt>
      <trkpt lat="53.681976310908794" lon="9.241824829950929">
        <ele>0</ele>
        <time>2010-01-01T16:03:01Z</time>
      </trkpt>
      <trkpt lat="53.682105895131826" lon="9.241446973755956">
        <ele>0</ele>
        <time>2010-01-01T16:03:11Z</time>
      </trkpt>
      <trkpt lat="53.682485679164529" lon="9.240926038473845">
        <ele>0</ele>
        <time>2010-01-01T16:03:31Z</time>
      </trkpt>
      <trkpt lat="53.68340483866632" lon="9.239714685827494">
        <ele>0</ele>
        <time>2010-01-01T16:04:18Z</time>
      </trkpt>
      <trkpt lat="53.684602277353406" lon="9.238224131986499">
        <ele>0</ele>
        <time>2010-01-01T16:05:17Z</time>
      </trkpt>
      <trkpt lat="53.685471815988421" lon="9.237083438783884">
        <ele>0</ele>
        <time>2010-01-01T16:06:01Z</time>
      </trkpt>
      <trkpt lat="53.684726161882281" lon="9.231720445677638">
        <ele>0</ele>
        <time>2010-01-01T16:08:12Z</time>
      </trkpt>
      <trkpt lat="53.684088969603181" lon="9.226756934076548">
        <ele>0</ele>
        <time>2010-01-01T16:10:12Z</time>
      </trkpt>
      <trkpt lat="53.683302076533437" lon="9.220950454473495">
        <ele>0</ele>
        <time>2010-01-01T16:12:33Z</time>
      </trkpt>
      <trkpt lat="53.683172492310405" lon="9.219987457618117">
        <ele>0</ele>
        <time>2010-01-01T16:12:57Z</time>
      </trkpt>
      <trkpt lat="53.683058163151145" lon="9.219826525077224">
        <ele>0</ele>
        <time>2010-01-01T16:13:03Z</time>
      </trkpt>
      <trkpt lat="53.683109292760491" lon="9.21952142380178">
        <ele>0</ele>
        <time>2010-01-01T16:13:10Z</time>
      </trkpt>
      <trkpt lat="53.683305010199547" lon="9.218841399997473">
        <ele>0</ele>
        <time>2010-01-01T16:13:28Z</time>
      </trkpt>
      <trkpt lat="53.683543978258967" lon="9.217709256336093">
        <ele>0</ele>
        <time>2010-01-01T16:13:57Z</time>
      </trkpt>
      <trkpt lat="53.683735085651278" lon="9.217016994953156">
        <ele>0</ele>
        <time>2010-01-01T16:14:15Z</time>
      </trkpt>
      <trkpt lat="53.683802057057619" lon="9.216693202033639">
        <ele>0</ele>
        <time>2010-01-01T16:14:23Z</time>
      </trkpt>
      <trkpt lat="53.683907836675644" lon="9.216258935630322">
        <ele>0</ele>
        <time>2010-01-01T16:14:34Z</time>
      </trkpt>
      <trkpt lat="53.68406692519784" lon="9.215912595391273">
        <ele>0</ele>
        <time>2010-01-01T16:14:44Z</time>
      </trkpt>
      <trkpt lat="53.684346713125706" lon="9.216078137978911">
        <ele>0</ele>
        <time>2010-01-01T16:14:56Z</time>
      </trkpt>
      <trkpt lat="53.684884663671255" lon="9.216837119311094">
        <ele>0</ele>
        <time>2010-01-01T16:15:24Z</time>
      </trkpt>
      <trkpt lat="53.685220945626497" lon="9.217244731262326">
        <ele>0</ele>
        <time>2010-01-01T16:15:41Z</time>
      </trkpt>
      <trkpt lat="53.685936089605093" lon="9.217951577156782">
        <ele>0</ele>
        <time>2010-01-01T16:16:14Z</time>
      </trkpt>
      <trkpt lat="53.686182266101241" lon="9.218308478593826">
        <ele>0</ele>
        <time>2010-01-01T16:16:27Z</time>
      </trkpt>
      <trkpt lat="53.686381336301565" lon="9.218532275408506">
        <ele>0</ele>
        <time>2010-01-01T16:16:37Z</time>
      </trkpt>
      <trkpt lat="53.686563558876514" lon="9.218608550727367">
        <ele>0</ele>
        <time>2010-01-01T16:16:44Z</time>
      </trkpt>
      <trkpt lat="53.686802526935935" lon="9.218835532665253">
        <ele>0</ele>
        <time>2010-01-01T16:16:55Z</time>
      </trkpt>
      <trkpt lat="53.687222627922893" lon="9.219186399132013">
        <ele>0</ele>
        <time>2010-01-01T16:17:14Z</time>
      </trkpt>
      <trkpt lat="53.687884546816349" lon="9.219651510939002">
        <ele>0</ele>
        <time>2010-01-01T16:17:43Z</time>
      </trkpt>
      <trkpt lat="53.688905630260706" lon="9.220191556960344">
        <ele>0</ele>
        <time>2010-01-01T16:18:26Z</time>
      </trkpt>
      <trkpt lat="53.689922774210572" lon="9.220676366239786">
        <ele>0</ele>
        <time>2010-01-01T16:19:08Z</time>
      </trkpt>
      <trkpt lat="53.690206333994865" lon="9.220976270735264">
        <ele>0</ele>
        <time>2010-01-01T16:19:21Z</time>
      </trkpt>
      <trkpt lat="53.690973864868283" lon="9.221045169979334">
        <ele>0</ele>
        <time>2010-01-01T16:19:52Z</time>
      </trkpt>
      <trkpt lat="53.691467558965087" lon="9.221268212422729">
        <ele>0</ele>
        <time>2010-01-01T16:20:12Z</time>
      </trkpt>
      <trkpt lat="53.691950356587768" lon="9.221667777746916">
        <ele>0</ele>
        <time>2010-01-01T16:20:34Z</time>
      </trkpt>
      <trkpt lat="53.692398620769382" lon="9.221933986991644">
        <ele>0</ele>
        <time>2010-01-01T16:20:53Z</time>
      </trkpt>
      <trkpt lat="53.692575814202428" lon="9.222010429948568">
        <ele>0</ele>
        <time>2010-01-01T16:21:00Z</time>
      </trkpt>
      <trkpt lat="53.692575814202428" lon="9.222010429948568">
        <ele>0</ele>
        <time>2010-01-01T16:21:00Z</time>
      </trkpt>
      <trkpt lat="53.692575814202428" lon="9.222010429948568">
        <ele>0</ele>
        <time>2010-01-01T16:21:00Z</time>
      </trkpt>
      <trkpt lat="53.692610515281558" lon="9.222001545131207">
        <ele>0</ele>
        <time>2010-01-01T16:21:02Z</time>
      </trkpt>
      <trkpt lat="53.693353403359652" lon="9.221838181838393">
        <ele>0</ele>
        <time>2010-01-01T16:21:32Z</time>
      </trkpt>
      <trkpt lat="53.693667557090521" lon="9.221900040283799">
        <ele>0</ele>
        <time>2010-01-01T16:21:44Z</time>
      </trkpt>
      <trkpt lat="53.694423940032721" lon="9.222065918147564">
        <ele>0</ele>
        <time>2010-01-01T16:22:15Z</time>
      </trkpt>
      <trkpt lat="53.695030957460403" lon="9.221996935084462">
        <ele>0</ele>
        <time>2010-01-01T16:22:39Z</time>
      </trkpt>
      <trkpt lat="53.695526914671063" lon="9.221688732504845">
        <ele>0</ele>
        <time>2010-01-01T16:23:00Z</time>
      </trkpt>
      <trkpt lat="53.695711484178901" lon="9.221386145800352">
        <ele>0</ele>
        <time>2010-01-01T16:23:11Z</time>
      </trkpt>
      <trkpt lat="53.695914996787906" lon="9.220879962667823">
        <ele>0</ele>
        <time>2010-01-01T16:23:25Z</time>
      </trkpt>
      <trkpt lat="53.696132255718112" lon="9.220190299674869">
        <ele>0</ele>
        <time>2010-01-01T16:23:44Z</time>
      </trkpt>
      <trkpt lat="53.69637792930007" lon="9.219827279448509">
        <ele>0</ele>
        <time>2010-01-01T16:23:57Z</time>
      </trkpt>
      <trkpt lat="53.696434339508414" lon="9.219150524586439">
        <ele>0</ele>
        <time>2010-01-01T16:24:13Z</time>
      </trkpt>
      <trkpt lat="53.696345826610923" lon="9.218367654830217">
        <ele>0</ele>
        <time>2010-01-01T16:24:32Z</time>
      </trkpt>
      <trkpt lat="53.696232587099075" lon="9.217793829739094">
        <ele>0</ele>
        <time>2010-01-01T16:24:46Z</time>
      </trkpt>
      <trkpt lat="53.695965204387903" lon="9.217204498127103">
        <ele>0</ele>
        <time>2010-01-01T16:25:04Z</time>
      </trkpt>
      <trkpt lat="53.695673011243343" lon="9.216755898669362">
        <ele>0</ele>
        <time>2010-01-01T16:25:20Z</time>
      </trkpt>
      <trkpt lat="53.695435468107462" lon="9.216665206477046">
        <ele>0</ele>
        <time>2010-01-01T16:25:29Z</time>
      </trkpt>
      <trkpt lat="53.695263890549541" lon="9.216576777398586">
        <ele>0</ele>
        <time>2010-01-01T16:25:37Z</time>
      </trkpt>
      <trkpt lat="53.695002207532525" lon="9.216197663918138">
        <ele>0</ele>
        <time>2010-01-01T16:25:50Z</time>
      </trkpt>
      <trkpt lat="53.694731891155243" lon="9.215715872123837">
        <ele>0</ele>
        <time>2010-01-01T16:26:06Z</time>
      </trkpt>
      <trkpt lat="53.694331487640738" lon="9.215513449162245">
        <ele>0</ele>
        <time>2010-01-01T16:26:23Z</time>
      </trkpt>
      <trkpt lat="53.693965952843428" lon="9.215297112241387">
        <ele>0</ele>
        <time>2010-01-01T16:26:38Z</time>
      </trkpt>
      <trkpt lat="53.693621791899204" lon="9.215027382597327">
        <ele>0</ele>
        <time>2010-01-01T16:26:53Z</time>
      </trkpt>
      <trkpt lat="53.693284671753645" lon="9.214459592476487">
        <ele>0</ele>
        <time>2010-01-01T16:27:13Z</time>
      </trkpt>
      <trkpt lat="53.693053247407079" lon="9.213574295863509">
        <ele>0</ele>
        <time>2010-01-01T16:27:35Z</time>
      </trkpt>
      <trkpt lat="53.692934978753328" lon="9.212725041434169">
        <ele>0</ele>
        <time>2010-01-01T16:27:56Z</time>
      </trkpt>
      <trkpt lat="53.692939169704914" lon="9.211660120636225">
        <ele>0</ele>
        <time>2010-01-01T16:28:21Z</time>
      </trkpt>
      <trkpt lat="53.693048218265176" lon="9.21098118647933">
        <ele>0</ele>
        <time>2010-01-01T16:28:38Z</time>
      </trkpt>
      <trkpt lat="53.693202948197722" lon="9.210611041635275">
        <ele>0</ele>
        <time>2010-01-01T16:28:49Z</time>
      </trkpt>
      <trkpt lat="53.693433366715908" lon="9.210290685296059">
        <ele>0</ele>
        <time>2010-01-01T16:29:01Z</time>
      </trkpt>
      <trkpt lat="53.693551132455468" lon="9.210050543770194">
        <ele>0</ele>
        <time>2010-01-01T16:29:08Z</time>
      </trkpt>
      <trkpt lat="53.693639561533928" lon="9.209787771105766">
        <ele>0</ele>
        <time>2010-01-01T16:29:15Z</time>
      </trkpt>
      <trkpt lat="53.693653307855129" lon="9.209238085895777">
        <ele>0</ele>
        <time>2010-01-01T16:29:28Z</time>
      </trkpt>
      <trkpt lat="53.693848857656121" lon="9.208897277712822">
        <ele>0</ele>
        <time>2010-01-01T16:29:40Z</time>
      </trkpt>
      <trkpt lat="53.694008113816381" lon="9.208624865859747">
        <ele>0</ele>
        <time>2010-01-01T16:29:49Z</time>
      </trkpt>
      <trkpt lat="53.694046000018716" lon="9.20841297134757">
        <ele>0</ele>
        <time>2010-01-01T16:29:54Z</time>
      </trkpt>
      <trkpt lat="53.694003839045763" lon="9.208156233653426">
        <ele>0</ele>
        <time>2010-01-01T16:30:00Z</time>
      </trkpt>
      <trkpt lat="53.693864531815052" lon="9.207839062437415">
        <ele>0</ele>
        <time>2010-01-01T16:30:10Z</time>
      </trkpt>
      <trkpt lat="53.69379747658968" lon="9.20767025090754">
        <ele>0</ele>
        <time>2010-01-01T16:30:14Z</time>
      </trkpt>
      <trkpt lat="53.693932509049773" lon="9.207517113536596">
        <ele>0</ele>
        <time>2010-01-01T16:30:21Z</time>
      </trkpt>
      <trkpt lat="53.694058824330568" lon="9.207373866811395">
        <ele>0</ele>
        <time>2010-01-01T16:30:27Z</time>
      </trkpt>
      <trkpt lat="53.694241298362613" lon="9.207116207107902">
        <ele>0</ele>
        <time>2010-01-01T16:30:37Z</time>
      </trkpt>
      <trkpt lat="53.694324111565948" lon="9.206786211580038">
        <ele>0</ele>
        <time>2010-01-01T16:30:45Z</time>
      </trkpt>
      <trkpt lat="53.694430561736226" lon="9.206295032054186">
        <ele>0</ele>
        <time>2010-01-01T16:30:57Z</time>
      </trkpt>
      <trkpt lat="53.694409020245075" lon="9.206094620749354">
        <ele>0</ele>
        <time>2010-01-01T16:31:02Z</time>
      </trkpt>
      <trkpt lat="53.69427633471787" lon="9.20569128356874">
        <ele>0</ele>
        <time>2010-01-01T16:31:13Z</time>
      </trkpt>
      <trkpt lat="53.694157311692834" lon="9.205412501469254">
        <ele>0</ele>
        <time>2010-01-01T16:31:21Z</time>
      </trkpt>
      <trkpt lat="53.693989338353276" lon="9.20523589476943">
        <ele>0</ele>
        <time>2010-01-01T16:31:29Z</time>
      </trkpt>
      <trkpt lat="53.693848187103868" lon="9.205050151795149">
        <ele>0</ele>
        <time>2010-01-01T16:31:36Z</time>
      </trkpt>
      <trkpt lat="53.693783143535256" lon="9.204832892864943">
        <ele>0</ele>
        <time>2010-01-01T16:31:42Z</time>
      </trkpt>
      <trkpt lat="53.693509893491864" lon="9.204170638695359">
        <ele>0</ele>
        <time>2010-01-01T16:32:01Z</time>
      </trkpt>
      <trkpt lat="53.692976804450154" lon="9.203196493908763">
        <ele>0</ele>
        <time>2010-01-01T16:32:33Z</time>
      </trkpt>
      <trkpt lat="53.692324189469218" lon="9.201757740229368">
        <ele>0</ele>
        <time>2010-01-01T16:33:16Z</time>
      </trkpt>
      <trkpt lat="53.692116737365723" lon="9.201115518808365">
        <ele>0</ele>
        <time>2010-01-01T16:33:33Z</time>
      </trkpt>
      <trkpt lat="53.692151606082916" lon="9.198025530204177">
        <ele>0</ele>
        <time>2010-01-01T16:34:46Z</time>
      </trkpt>
      <trkpt lat="53.692191084846854" lon="9.197251629084349">
        <ele>0</ele>
        <time>2010-01-01T16:35:05Z</time>
      </trkpt>
      <trkpt lat="53.692217236384749" lon="9.196661040186882">
        <ele>0</ele>
        <time>2010-01-01T16:35:19Z</time>
      </trkpt>
      <trkpt lat="53.692209022119641" lon="9.196395669132471">
        <ele>0</ele>
        <time>2010-01-01T16:35:25Z</time>
      </trkpt>
      <trkpt lat="53.69235553778708" lon="9.195262854918838">
        <ele>0</ele>
        <time>2010-01-01T16:35:53Z</time>
      </trkpt>
      <trkpt lat="53.692448325455189" lon="9.194647707045078">
        <ele>0</ele>
        <time>2010-01-01T16:36:08Z</time>
      </trkpt>
      <trkpt lat="53.692536754533648" lon="9.194264821708202">
        <ele>0</ele>
        <time>2010-01-01T16:36:17Z</time>
      </trkpt>
      <trkpt lat="53.69270640425384" lon="9.193911021575332">
        <ele>0</ele>
        <time>2010-01-01T16:36:28Z</time>
      </trkpt>
      <trkpt lat="53.692846046760678" lon="9.19330257922411">
        <ele>0</ele>
        <time>2010-01-01T16:36:44Z</time>
      </trkpt>
      <trkpt lat="53.692983258515596" lon="9.192697321996093">
        <ele>0</ele>
        <time>2010-01-01T16:36:59Z</time>
      </trkpt>
      <trkpt lat="53.693102113902569" lon="9.192268922924995">
        <ele>0</ele>
        <time>2010-01-01T16:37:10Z</time>
      </trkpt>
      <trkpt lat="53.693343512713909" lon="9.191805487498641">
        <ele>0</ele>
        <time>2010-01-01T16:37:25Z</time>
      </trkpt>
      <trkpt lat="53.693557670339942" lon="9.191285641863942">
        <ele>0</ele>
        <time>2010-01-01T16:37:40Z</time>
      </trkpt>
      <trkpt lat="53.693517185747623" lon="9.190706368535757">
        <ele>0</ele>
        <time>2010-01-01T16:37:54Z</time>
      </trkpt>
      <trkpt lat="53.693495644256473" lon="9.189965324476361">
        <ele>0</ele>
        <time>2010-01-01T16:38:11Z</time>
      </trkpt>
      <trkpt lat="53.69400467723608" lon="9.188111498951912">
        <ele>0</ele>
        <time>2010-01-01T16:39:00Z</time>
      </trkpt>
      <trkpt lat="53.693977938964963" lon="9.187636496499181">
        <ele>0</ele>
        <time>2010-01-01T16:39:11Z</time>
      </trkpt>
      <trkpt lat="53.693968718871474" lon="9.187475563958287">
        <ele>0</ele>
        <time>2010-01-01T16:39:15Z</time>
      </trkpt>
      <trkpt lat="53.693968718871474" lon="9.187475563958287">
        <ele>0</ele>
        <time>2010-01-01T16:39:15Z</time>
      </trkpt>
      <trkpt lat="53.693977938964963" lon="9.187636496499181">
        <ele>0</ele>
        <time>2010-01-01T16:39:11Z</time>
      </trkpt>
      <trkpt lat="53.69400467723608" lon="9.188111498951912">
        <ele>0</ele>
        <time>2010-01-01T16:39:00Z</time>
      </trkpt>
      <trkpt lat="53.693495644256473" lon="9.189965324476361">
        <ele>0</ele>
        <time>2010-01-01T16:38:11Z</time>
      </trkpt>
      <trkpt lat="53.693517185747623" lon="9.190706368535757">
        <ele>0</ele>
        <time>2010-01-01T16:37:54Z</time>
      </trkpt>
      <trkpt lat="53.693557670339942" lon="9.191285641863942">
        <ele>0</ele>
        <time>2010-01-01T16:37:40Z</time>
      </trkpt>
      <trkpt lat="53.693343512713909" lon="9.191805487498641">
        <ele>0</ele>
        <time>2010-01-01T16:37:25Z</time>
      </trkpt>
      <trkpt lat="53.693102113902569" lon="9.192268922924995">
        <ele>0</ele>
        <time>2010-01-01T16:37:10Z</time>
      </trkpt>
      <trkpt lat="53.692983258515596" lon="9.192697321996093">
        <ele>0</ele>
        <time>2010-01-01T16:36:59Z</time>
      </trkpt>
      <trkpt lat="53.692846046760678" lon="9.19330257922411">
        <ele>0</ele>
        <time>2010-01-01T16:36:44Z</time>
      </trkpt>
      <trkpt lat="53.69270640425384" lon="9.193911021575332">
        <ele>0</ele>
        <time>2010-01-01T16:36:28Z</time>
      </trkpt>
      <trkpt lat="53.692536754533648" lon="9.194264821708202">
        <ele>0</ele>
        <time>2010-01-01T16:36:17Z</time>
      </trkpt>
      <trkpt lat="53.692448325455189" lon="9.194647707045078">
        <ele>0</ele>
        <time>2010-01-01T16:36:08Z</time>
      </trkpt>
      <trkpt lat="53.69235553778708" lon="9.195262854918838">
        <ele>0</ele>
        <time>2010-01-01T16:35:53Z</time>
      </trkpt>
      <trkpt lat="53.692209022119641" lon="9.196395669132471">
        <ele>0</ele>
        <time>2010-01-01T16:35:25Z</time>
      </trkpt>
      <trkpt lat="53.692217236384749" lon="9.196661040186882">
        <ele>0</ele>
        <time>2010-01-01T16:35:19Z</time>
      </trkpt>
      <trkpt lat="53.692191084846854" lon="9.197251629084349">
        <ele>0</ele>
        <time>2010-01-01T16:35:05Z</time>
      </trkpt>
      <trkpt lat="53.692151606082916" lon="9.198025530204177">
        <ele>0</ele>
        <time>2010-01-01T16:34:46Z</time>
      </trkpt>
      <trkpt lat="53.692116737365723" lon="9.201115518808365">
        <ele>0</ele>
        <time>2010-01-01T16:33:33Z</time>
      </trkpt>
      <trkpt lat="53.692324189469218" lon="9.201757740229368">
        <ele>0</ele>
        <time>2010-01-01T16:33:16Z</time>
      </trkpt>
      <trkpt lat="53.692976804450154" lon="9.203196493908763">
        <ele>0</ele>
        <time>2010-01-01T16:32:33Z</time>
      </trkpt>
      <trkpt lat="53.693509893491864" lon="9.204170638695359">
        <ele>0</ele>
        <time>2010-01-01T16:32:01Z</time>
      </trkpt>
      <trkpt lat="53.693783143535256" lon="9.204832892864943">
        <ele>0</ele>
        <time>2010-01-01T16:31:42Z</time>
      </trkpt>
      <trkpt lat="53.693848187103868" lon="9.205050151795149">
        <ele>0</ele>
        <time>2010-01-01T16:31:36Z</time>
      </trkpt>
      <trkpt lat="53.693989338353276" lon="9.20523589476943">
        <ele>0</ele>
        <time>2010-01-01T16:31:29Z</time>
      </trkpt>
      <trkpt lat="53.694157311692834" lon="9.205412501469254">
        <ele>0</ele>
        <time>2010-01-01T16:31:21Z</time>
      </trkpt>
      <trkpt lat="53.69427633471787" lon="9.20569128356874">
        <ele>0</ele>
        <time>2010-01-01T16:31:13Z</time>
      </trkpt>
      <trkpt lat="53.694409020245075" lon="9.206094620749354">
        <ele>0</ele>
        <time>2010-01-01T16:31:02Z</time>
      </trkpt>
      <trkpt lat="53.694430561736226" lon="9.206295032054186">
        <ele>0</ele>
        <time>2010-01-01T16:30:57Z</time>
      </trkpt>
      <trkpt lat="53.694324111565948" lon="9.206786211580038">
        <ele>0</ele>
        <time>2010-01-01T16:30:45Z</time>
      </trkpt>
      <trkpt lat="53.694241298362613" lon="9.207116207107902">
        <ele>0</ele>
        <time>2010-01-01T16:30:37Z</time>
      </trkpt>
      <trkpt lat="53.694058824330568" lon="9.207373866811395">
        <ele>0</ele>
        <time>2010-01-01T16:30:27Z</time>
      </trkpt>
      <trkpt lat="53.693932509049773" lon="9.207517113536596">
        <ele>0</ele>
        <time>2010-01-01T16:30:21Z</time>
      </trkpt>
      <trkpt lat="53.69379747658968" lon="9.20767025090754">
        <ele>0</ele>
        <time>2010-01-01T16:30:14Z</time>
      </trkpt>
      <trkpt lat="53.693864531815052" lon="9.207839062437415">
        <ele>0</ele>
        <time>2010-01-01T16:30:10Z</time>
      </trkpt>
      <trkpt lat="53.694003839045763" lon="9.208156233653426">
        <ele>0</ele>
        <time>2010-01-01T16:30:00Z</time>
      </trkpt>
      <trkpt lat="53.694046000018716" lon="9.20841297134757">
        <ele>0</ele>
        <time>2010-01-01T16:29:54Z</time>
      </trkpt>
      <trkpt lat="53.694008113816381" lon="9.208624865859747">
        <ele>0</ele>
        <time>2010-01-01T16:29:49Z</time>
      </trkpt>
      <trkpt lat="53.693848857656121" lon="9.208897277712822">
        <ele>0</ele>
        <time>2010-01-01T16:29:40Z</time>
      </trkpt>
      <trkpt lat="53.693653307855129" lon="9.209238085895777">
        <ele>0</ele>
        <time>2010-01-01T16:29:28Z</time>
      </trkpt>
      <trkpt lat="53.693639561533928" lon="9.209787771105766">
        <ele>0</ele>
        <time>2010-01-01T16:29:15Z</time>
      </trkpt>
      <trkpt lat="53.693551132455468" lon="9.210050543770194">
        <ele>0</ele>
        <time>2010-01-01T16:29:08Z</time>
      </trkpt>
      <trkpt lat="53.693433366715908" lon="9.210290685296059">
        <ele>0</ele>
        <time>2010-01-01T16:29:01Z</time>
      </trkpt>
      <trkpt lat="53.693202948197722" lon="9.210611041635275">
        <ele>0</ele>
        <time>2010-01-01T16:28:49Z</time>
      </trkpt>
      <trkpt lat="53.693048218265176" lon="9.21098118647933">
        <ele>0</ele>
        <time>2010-01-01T16:28:38Z</time>
      </trkpt>
      <trkpt lat="53.692939169704914" lon="9.211660120636225">
        <ele>0</ele>
        <time>2010-01-01T16:28:21Z</time>
      </trkpt>
      <trkpt lat="53.692934978753328" lon="9.212725041434169">
        <ele>0</ele>
        <time>2010-01-01T16:27:56Z</time>
      </trkpt>
      <trkpt lat="53.693053247407079" lon="9.213574295863509">
        <ele>0</ele>
        <time>2010-01-01T16:27:35Z</time>
      </trkpt>
      <trkpt lat="53.693284671753645" lon="9.214459592476487">
        <ele>0</ele>
        <time>2010-01-01T16:27:13Z</time>
      </trkpt>
      <trkpt lat="53.693621791899204" lon="9.215027382597327">
        <ele>0</ele>
        <time>2010-01-01T16:26:53Z</time>
      </trkpt>
      <trkpt lat="53.693965952843428" lon="9.215297112241387">
        <ele>0</ele>
        <time>2010-01-01T16:26:38Z</time>
      </trkpt>
      <trkpt lat="53.694331487640738" lon="9.215513449162245">
        <ele>0</ele>
        <time>2010-01-01T16:26:23Z</time>
      </trkpt>
      <trkpt lat="53.694731891155243" lon="9.215715872123837">
        <ele>0</ele>
        <time>2010-01-01T16:26:06Z</time>
      </trkpt>
      <trkpt lat="53.695002207532525" lon="9.216197663918138">
        <ele>0</ele>
        <time>2010-01-01T16:25:50Z</time>
      </trkpt>
      <trkpt lat="53.695263890549541" lon="9.216576777398586">
        <ele>0</ele>
        <time>2010-01-01T16:25:37Z</time>
      </trkpt>
      <trkpt lat="53.695435468107462" lon="9.216665206477046">
        <ele>0</ele>
        <time>2010-01-01T16:25:29Z</time>
      </trkpt>
      <trkpt lat="53.695673011243343" lon="9.216755898669362">
        <ele>0</ele>
        <time>2010-01-01T16:25:20Z</time>
      </trkpt>
      <trkpt lat="53.695965204387903" lon="9.217204498127103">
        <ele>0</ele>
        <time>2010-01-01T16:25:04Z</time>
      </trkpt>
      <trkpt lat="53.696232587099075" lon="9.217793829739094">
        <ele>0</ele>
        <time>2010-01-01T16:24:46Z</time>
      </trkpt>
      <trkpt lat="53.696345826610923" lon="9.218367654830217">
        <ele>0</ele>
        <time>2010-01-01T16:24:32Z</time>
      </trkpt>
      <trkpt lat="53.696434339508414" lon="9.219150524586439">
        <ele>0</ele>
        <time>2010-01-01T16:24:13Z</time>
      </trkpt>
      <trkpt lat="53.69637792930007" lon="9.219827279448509">
        <ele>0</ele>
        <time>2010-01-01T16:23:57Z</time>
      </trkpt>
      <trkpt lat="53.696132255718112" lon="9.220190299674869">
        <ele>0</ele>
        <time>2010-01-01T16:23:44Z</time>
      </trkpt>
      <trkpt lat="53.695914996787906" lon="9.220879962667823">
        <ele>0</ele>
        <time>2010-01-01T16:23:25Z</time>
      </trkpt>
      <trkpt lat="53.695711484178901" lon="9.221386145800352">
        <ele>0</ele>
        <time>2010-01-01T16:23:11Z</time>
      </trkpt>
      <trkpt lat="53.695526914671063" lon="9.221688732504845">
        <ele>0</ele>
        <time>2010-01-01T16:23:00Z</time>
      </trkpt>
      <trkpt lat="53.695030957460403" lon="9.221996935084462">
        <ele>0</ele>
        <time>2010-01-01T16:22:39Z</time>
      </trkpt>
      <trkpt lat="53.694423940032721" lon="9.222065918147564">
        <ele>0</ele>
        <time>2010-01-01T16:22:15Z</time>
      </trkpt>
      <trkpt lat="53.693667557090521" lon="9.221900040283799">
        <ele>0</ele>
        <time>2010-01-01T16:21:44Z</time>
      </trkpt>
      <trkpt lat="53.693353403359652" lon="9.221838181838393">
        <ele>0</ele>
        <time>2010-01-01T16:21:32Z</time>
      </trkpt>
      <trkpt lat="53.692610515281558" lon="9.222001545131207">
        <ele>0</ele>
        <time>2010-01-01T16:21:02Z</time>
      </trkpt>
      <trkpt lat="53.692575814202428" lon="9.222010429948568">
        <ele>0</ele>
        <time>2010-01-01T16:21:00Z</time>
      </trkpt>
      <trkpt lat="53.692575814202428" lon="9.222010429948568">
        <ele>0</ele>
        <time>2010-01-01T16:21:00Z</time>
      </trkpt>
      <trkpt lat="53.692575814202428" lon="9.222010429948568">
        <ele>0</ele>
        <time>2010-01-01T16:39:15Z</time>
      </trkpt>
      <trkpt lat="53.692614287137985" lon="9.222340006381273">
        <ele>0</ele>
        <time>2010-01-01T16:39:23Z</time>
      </trkpt>
      <trkpt lat="53.692793073132634" lon="9.22249180264771">
        <ele>0</ele>
        <time>2010-01-01T16:39:31Z</time>
      </trkpt>
      <trkpt lat="53.693083673715591" lon="9.22268190421164">
        <ele>0</ele>
        <time>2010-01-01T16:39:43Z</time>
      </trkpt>
      <trkpt lat="53.693351643159986" lon="9.223022712394595">
        <ele>0</ele>
        <time>2010-01-01T16:39:57Z</time>
      </trkpt>
      <trkpt lat="53.693496147170663" lon="9.22353258356452">
        <ele>0</ele>
        <time>2010-01-01T16:40:10Z</time>
      </trkpt>
      <trkpt lat="53.693640399724245" lon="9.224193328991532">
        <ele>0</ele>
        <time>2010-01-01T16:40:27Z</time>
      </trkpt>
      <trkpt lat="53.693774007260799" lon="9.224552242085338">
        <ele>0</ele>
        <time>2010-01-01T16:40:37Z</time>
      </trkpt>
      <trkpt lat="53.693929156288505" lon="9.225345086306334">
        <ele>0</ele>
        <time>2010-01-01T16:40:57Z</time>
      </trkpt>
      <trkpt lat="53.694073408842087" lon="9.226005747914314">
        <ele>0</ele>
        <time>2010-01-01T16:41:13Z</time>
      </trkpt>
      <trkpt lat="53.6941849719733" lon="9.22617606818676">
        <ele>0</ele>
        <time>2010-01-01T16:41:19Z</time>
      </trkpt>
      <trkpt lat="53.694240124896169" lon="9.226610083132982">
        <ele>0</ele>
        <time>2010-01-01T16:41:30Z</time>
      </trkpt>
      <trkpt lat="53.694340204820037" lon="9.226931193843484">
        <ele>0</ele>
        <time>2010-01-01T16:41:38Z</time>
      </trkpt>
      <trkpt lat="53.694529719650745" lon="9.227347020059824">
        <ele>0</ele>
        <time>2010-01-01T16:41:51Z</time>
      </trkpt>
      <trkpt lat="53.694673804566264" lon="9.228045484051108">
        <ele>0</ele>
        <time>2010-01-01T16:42:08Z</time>
      </trkpt>
      <trkpt lat="53.694874132052064" lon="9.228631127625704">
        <ele>0</ele>
        <time>2010-01-01T16:42:24Z</time>
      </trkpt>
      <trkpt lat="53.69489936158061" lon="9.229495888575912">
        <ele>0</ele>
        <time>2010-01-01T16:42:45Z</time>
      </trkpt>
      <trkpt lat="53.695083428174257" lon="9.229881623759866">
        <ele>0</ele>
        <time>2010-01-01T16:42:57Z</time>
      </trkpt>
      <trkpt lat="53.695206977427006" lon="9.230141462758183">
        <ele>0</ele>
        <time>2010-01-01T16:43:05Z</time>
      </trkpt>
      <trkpt lat="53.695273026823997" lon="9.230726351961493">
        <ele>0</ele>
        <time>2010-01-01T16:43:19Z</time>
      </trkpt>
      <trkpt lat="53.695350643247366" lon="9.231085013598204">
        <ele>0</ele>
        <time>2010-01-01T16:43:28Z</time>
      </trkpt>
      <trkpt lat="53.69547301903367" lon="9.231444010511041">
        <ele>0</ele>
        <time>2010-01-01T16:43:38Z</time>
      </trkpt>
      <trkpt lat="53.695528339594603" lon="9.231783729046583">
        <ele>0</ele>
        <time>2010-01-01T16:43:46Z</time>
      </trkpt>
      <trkpt lat="53.695695642381907" lon="9.23206745646894">
        <ele>0</ele>
        <time>2010-01-01T16:43:55Z</time>
      </trkpt>
      <trkpt lat="53.695973418653011" lon="9.233125001192093">
        <ele>0</ele>
        <time>2010-01-01T16:44:23Z</time>
      </trkpt>
      <trkpt lat="53.696062099188566" lon="9.233559183776379">
        <ele>0</ele>
        <time>2010-01-01T16:44:34Z</time>
      </trkpt>
      <trkpt lat="53.696173410862684" lon="9.233823800459504">
        <ele>0</ele>
        <time>2010-01-01T16:44:41Z</time>
      </trkpt>
      <trkpt lat="53.696250943467021" lon="9.234239123761654">
        <ele>0</ele>
        <time>2010-01-01T16:44:52Z</time>
      </trkpt>
      <trkpt lat="53.696339540183544" lon="9.234711024910212">
        <ele>0</ele>
        <time>2010-01-01T16:45:03Z</time>
      </trkpt>
      <trkpt lat="53.696517823264003" lon="9.235107991844416">
        <ele>0</ele>
        <time>2010-01-01T16:45:15Z</time>
      </trkpt>
      <trkpt lat="53.696751510724425" lon="9.23576932400465">
        <ele>0</ele>
        <time>2010-01-01T16:45:34Z</time>
      </trkpt>
      <trkpt lat="53.696884699165821" lon="9.236335773020983">
        <ele>0</ele>
        <time>2010-01-01T16:45:48Z</time>
      </trkpt>
      <trkpt lat="53.696961812674999" lon="9.236977323889732">
        <ele>0</ele>
        <time>2010-01-01T16:46:03Z</time>
      </trkpt>
      <trkpt lat="53.697165492922068" lon="9.237654665485024">
        <ele>0</ele>
        <time>2010-01-01T16:46:22Z</time>
      </trkpt>
      <trkpt lat="53.697227938100696" lon="9.238185742869973">
        <ele>0</ele>
        <time>2010-01-01T16:46:34Z</time>
      </trkpt>
      <trkpt lat="53.697384847328067" lon="9.238600311800838">
        <ele>0</ele>
        <time>2010-01-01T16:46:46Z</time>
      </trkpt>
      <trkpt lat="53.697572350502014" lon="9.23945115879178">
        <ele>0</ele>
        <time>2010-01-01T16:47:08Z</time>
      </trkpt>
      <trkpt lat="53.697760608047247" lon="9.240451622754335">
        <ele>0</ele>
        <time>2010-01-01T16:47:32Z</time>
      </trkpt>
      <trkpt lat="53.697994714602828" lon="9.24088672734797">
        <ele>0</ele>
        <time>2010-01-01T16:47:46Z</time>
      </trkpt>
      <trkpt lat="53.698194958269596" lon="9.241491314023733">
        <ele>0</ele>
        <time>2010-01-01T16:48:03Z</time>
      </trkpt>
      <trkpt lat="53.698372067883611" lon="9.242454059422016">
        <ele>0</ele>
        <time>2010-01-01T16:48:27Z</time>
      </trkpt>
      <trkpt lat="53.698561247438192" lon="9.242964349687099">
        <ele>0</ele>
        <time>2010-01-01T16:48:41Z</time>
      </trkpt>
      <trkpt lat="53.699071537703276" lon="9.24515487626195">
        <ele>0</ele>
        <time>2010-01-01T16:49:37Z</time>
      </trkpt>
      <trkpt lat="53.699360713362694" lon="9.246042855083942">
        <ele>0</ele>
        <time>2010-01-01T16:50:01Z</time>
      </trkpt>
      <trkpt lat="53.699682829901576" lon="9.247195115312934">
        <ele>0</ele>
        <time>2010-01-01T16:50:31Z</time>
      </trkpt>
      <trkpt lat="53.700083736330271" lon="9.248178144916892">
        <ele>0</ele>
        <time>2010-01-01T16:50:59Z</time>
      </trkpt>
      <trkpt lat="53.700505932793021" lon="9.249632740393281">
        <ele>0</ele>
        <time>2010-01-01T16:51:38Z</time>
      </trkpt>
      <trkpt lat="53.702230090275407" lon="9.254584182053804">
        <ele>0</ele>
        <time>2010-01-01T16:53:54Z</time>
      </trkpt>
      <trkpt lat="53.702470567077398" lon="9.254271453246474">
        <ele>0</ele>
        <time>2010-01-01T16:54:06Z</time>
      </trkpt>
      <trkpt lat="53.704802663996816" lon="9.250902011990547">
        <ele>0</ele>
        <time>2010-01-01T16:56:09Z</time>
      </trkpt>
      <trkpt lat="53.704821607097983" lon="9.250576458871365">
        <ele>0</ele>
        <time>2010-01-01T16:56:16Z</time>
      </trkpt>
      <trkpt lat="53.704912969842553" lon="9.250299856066704">
        <ele>0</ele>
        <time>2010-01-01T16:56:24Z</time>
      </trkpt>
      <trkpt lat="53.713081805035472" lon="9.266177527606487">
        <ele>0</ele>
        <time>2010-01-01T17:04:42Z</time>
      </trkpt>
      <trkpt lat="53.71333334594965" lon="9.266485730186105">
        <ele>0</ele>
        <time>2010-01-01T17:04:55Z</time>
      </trkpt>
      <trkpt lat="53.713477263227105" lon="9.266754956915975">
        <ele>0</ele>
        <time>2010-01-01T17:05:03Z</time>
      </trkpt>
      <trkpt lat="53.713634088635445" lon="9.267048155888915">
        <ele>0</ele>
        <time>2010-01-01T17:05:13Z</time>
      </trkpt>
      <trkpt lat="53.713651187717915" lon="9.267310844734311">
        <ele>0</ele>
        <time>2010-01-01T17:05:19Z</time>
      </trkpt>
      <trkpt lat="53.715623114258051" lon="9.271116396412253">
        <ele>0</ele>
        <time>2010-01-01T17:07:19Z</time>
      </trkpt>
      <trkpt lat="53.715638536959887" lon="9.271146235987544">
        <ele>0</ele>
        <time>2010-01-01T17:07:20Z</time>
      </trkpt>
      <trkpt lat="53.715978171676397" lon="9.271801700815558">
        <ele>0</ele>
        <time>2010-01-01T17:07:40Z</time>
      </trkpt>
      <trkpt lat="53.718011369928718" lon="9.275790313258767">
        <ele>0</ele>
        <time>2010-01-01T17:09:45Z</time>
      </trkpt>
      <trkpt lat="53.714460460469127" lon="9.2768126539886">
        <ele>0</ele>
        <time>2010-01-01T17:12:09Z</time>
      </trkpt>
      <trkpt lat="53.715232098475099" lon="9.287986317649484">
        <ele>0</ele>
        <time>2010-01-01T17:16:36Z</time>
      </trkpt>
      <trkpt lat="53.715594531968236" lon="9.289780547842383">
        <ele>0</ele>
        <time>2010-01-01T17:17:21Z</time>
      </trkpt>
      <trkpt lat="53.717016186565161" lon="9.316541785374284">
        <ele>0</ele>
        <time>2010-01-01T17:27:57Z</time>
      </trkpt>
      <trkpt lat="53.723939973860979" lon="9.310364322736859">
        <ele>0</ele>
        <time>2010-01-01T17:33:11Z</time>
      </trkpt>
      <trkpt lat="53.724434422329068" lon="9.310129964724183">
        <ele>0</ele>
        <time>2010-01-01T17:33:31Z</time>
      </trkpt>
      <trkpt lat="53.724929541349411" lon="9.30965781211853">
        <ele>0</ele>
        <time>2010-01-01T17:33:54Z</time>
      </trkpt>
      <trkpt lat="53.72608607634902" lon="9.312581000849605">
        <ele>0</ele>
        <time>2010-01-01T17:35:17Z</time>
      </trkpt>
      <trkpt lat="53.726749587804079" lon="9.315143851563334">
        <ele>0</ele>
        <time>2010-01-01T17:36:24Z</time>
      </trkpt>
      <trkpt lat="53.728912035003304" lon="9.320971956476569">
        <ele>0</ele>
        <time>2010-01-01T17:39:06Z</time>
      </trkpt>
      <trkpt lat="53.72921328060329" lon="9.320696862414479">
        <ele>0</ele>
        <time>2010-01-01T17:39:20Z</time>
      </trkpt>
      <trkpt lat="53.730082232505083" lon="9.319903263822198">
        <ele>0</ele>
        <time>2010-01-01T17:40:00Z</time>
      </trkpt>
      <trkpt lat="53.730293037369847" lon="9.319637641310692">
        <ele>0</ele>
        <time>2010-01-01T17:40:10Z</time>
      </trkpt>
      <trkpt lat="53.73047249391675" lon="9.319360116496682">
        <ele>0</ele>
        <time>2010-01-01T17:40:20Z</time>
      </trkpt>
      <trkpt lat="53.731070123612881" lon="9.317910298705101">
        <ele>0</ele>
        <time>2010-01-01T17:41:02Z</time>
      </trkpt>
      <trkpt lat="53.731365334242582" lon="9.316618731245399">
        <ele>0</ele>
        <time>2010-01-01T17:41:35Z</time>
      </trkpt>
      <trkpt lat="53.731488045305014" lon="9.314261991530657">
        <ele>0</ele>
        <time>2010-01-01T17:42:31Z</time>
      </trkpt>
      <trkpt lat="53.731463151052594" lon="9.312620982527733">
        <ele>0</ele>
        <time>2010-01-01T17:43:10Z</time>
      </trkpt>
      <trkpt lat="53.731535654515028" lon="9.310918701812625">
        <ele>0</ele>
        <time>2010-01-01T17:43:50Z</time>
      </trkpt>
      <trkpt lat="53.731705136597157" lon="9.309856463223696">
        <ele>0</ele>
        <time>2010-01-01T17:44:16Z</time>
      </trkpt>
      <trkpt lat="53.731911666691303" lon="9.309193706139922">
        <ele>0</ele>
        <time>2010-01-01T17:44:34Z</time>
      </trkpt>
      <trkpt lat="53.732279296964407" lon="9.308302626013756">
        <ele>0</ele>
        <time>2010-01-01T17:44:59Z</time>
      </trkpt>
      <trkpt lat="53.732908023521304" lon="9.307440128177404">
        <ele>0</ele>
        <time>2010-01-01T17:45:32Z</time>
      </trkpt>
      <trkpt lat="53.736405288800597" lon="9.304893286898732">
        <ele>0</ele>
        <time>2010-01-01T17:48:04Z</time>
      </trkpt>
      <trkpt lat="53.737260913476348" lon="9.304375536739826">
        <ele>0</ele>
        <time>2010-01-01T17:48:41Z</time>
      </trkpt>
      <trkpt lat="53.743596626445651" lon="9.30206305347383">
        <ele>0</ele>
        <time>2010-01-01T17:53:00Z</time>
      </trkpt>
      <trkpt lat="53.745182566344738" lon="9.302074452862144">
        <ele>0</ele>
        <time>2010-01-01T17:54:04Z</time>
      </trkpt>
      <trkpt lat="53.745449697598815" lon="9.301886111497879">
        <ele>0</ele>
        <time>2010-01-01T17:54:15Z</time>
      </trkpt>
      <trkpt lat="53.745753960683942" lon="9.301448576152325">
        <ele>0</ele>
        <time>2010-01-01T17:54:31Z</time>
      </trkpt>
      <trkpt lat="53.745917994529009" lon="9.30129636079073">
        <ele>0</ele>
        <time>2010-01-01T17:54:39Z</time>
      </trkpt>
      <trkpt lat="53.746196944266558" lon="9.301237016916275">
        <ele>0</ele>
        <time>2010-01-01T17:54:50Z</time>
      </trkpt>
      <trkpt lat="53.752808086574078" lon="9.301998261362314">
        <ele>0</ele>
        <time>2010-01-01T17:59:15Z</time>
      </trkpt>
      <trkpt lat="53.753700172528625" lon="9.302397826686502">
        <ele>0</ele>
        <time>2010-01-01T17:59:52Z</time>
      </trkpt>
      <trkpt lat="53.754614219069481" lon="9.30302076973021">
        <ele>0</ele>
        <time>2010-01-01T18:00:32Z</time>
      </trkpt>
      <trkpt lat="53.755486188456416" lon="9.303422933444381">
        <ele>0</ele>
        <time>2010-01-01T18:01:08Z</time>
      </trkpt>
      <trkpt lat="53.756396630778909" lon="9.303555032238364">
        <ele>0</ele>
        <time>2010-01-01T18:01:44Z</time>
      </trkpt>
      <trkpt lat="53.757014377042651" lon="9.303231406956911">
        <ele>0</ele>
        <time>2010-01-01T18:02:10Z</time>
      </trkpt>
      <trkpt lat="53.757738657295704" lon="9.302492374554276">
        <ele>0</ele>
        <time>2010-01-01T18:02:44Z</time>
      </trkpt>
      <trkpt lat="53.758714227005839" lon="9.300598986446857">
        <ele>0</ele>
        <time>2010-01-01T18:03:44Z</time>
      </trkpt>
      <trkpt lat="53.759000636637211" lon="9.300250550732017">
        <ele>0</ele>
        <time>2010-01-01T18:03:58Z</time>
      </trkpt>
      <trkpt lat="53.759347228333354" lon="9.299795497208834">
        <ele>0</ele>
        <time>2010-01-01T18:04:15Z</time>
      </trkpt>
      <trkpt lat="53.761230558156967" lon="9.299403810873628">
        <ele>0</ele>
        <time>2010-01-01T18:05:31Z</time>
      </trkpt>
      <trkpt lat="53.763893991708755" lon="9.299036096781492">
        <ele>0</ele>
        <time>2010-01-01T18:07:18Z</time>
      </trkpt>
      <trkpt lat="53.766290713101625" lon="9.298426900058985">
        <ele>0</ele>
        <time>2010-01-01T18:08:55Z</time>
      </trkpt>
      <trkpt lat="53.767423527315259" lon="9.298014594241977">
        <ele>0</ele>
        <time>2010-01-01T18:09:42Z</time>
      </trkpt>
      <trkpt lat="53.768063904717565" lon="9.297501035034657">
        <ele>0</ele>
        <time>2010-01-01T18:10:10Z</time>
      </trkpt>
      <trkpt lat="53.76922219991684" lon="9.296305440366268">
        <ele>0</ele>
        <time>2010-01-01T18:11:04Z</time>
      </trkpt>
      <trkpt lat="53.770487364381552" lon="9.29515871219337">
        <ele>0</ele>
        <time>2010-01-01T18:12:02Z</time>
      </trkpt>
      <trkpt lat="53.77129496075213" lon="9.294442059472203">
        <ele>0</ele>
        <time>2010-01-01T18:12:38Z</time>
      </trkpt>
      <trkpt lat="53.771710200235248" lon="9.293794892728329">
        <ele>0</ele>
        <time>2010-01-01T18:13:01Z</time>
      </trkpt>
      <trkpt lat="53.772176317870617" lon="9.292750842869282">
        <ele>0</ele>
        <time>2010-01-01T18:13:32Z</time>
      </trkpt>
      <trkpt lat="53.773065386340022" lon="9.290806660428643">
        <ele>0</ele>
        <time>2010-01-01T18:14:30Z</time>
      </trkpt>
      <trkpt lat="53.773128837347031" lon="9.290632400661707">
        <ele>0</ele>
        <time>2010-01-01T18:14:35Z</time>
      </trkpt>
      <trkpt lat="53.774790801107883" lon="9.292539451271296">
        <ele>0</ele>
        <time>2010-01-01T18:15:55Z</time>
      </trkpt>
      <trkpt lat="53.776134336367249" lon="9.294306691735983">
        <ele>0</ele>
        <time>2010-01-01T18:17:03Z</time>
      </trkpt>
      <trkpt lat="53.776404652744532" lon="9.294573403894901">
        <ele>0</ele>
        <time>2010-01-01T18:17:16Z</time>
      </trkpt>
      <trkpt lat="53.776753172278404" lon="9.294949164614081">
        <ele>0</ele>
        <time>2010-01-01T18:17:32Z</time>
      </trkpt>
      <trkpt lat="53.777613742277026" lon="9.295918364077806">
        <ele>0</ele>
        <time>2010-01-01T18:18:14Z</time>
      </trkpt>
      <trkpt lat="53.777705943211913" lon="9.296123720705509">
        <ele>0</ele>
        <time>2010-01-01T18:18:20Z</time>
      </trkpt>
      <trkpt lat="53.77770971506834" lon="9.29925243370235">
        <ele>0</ele>
        <time>2010-01-01T18:19:34Z</time>
      </trkpt>
      <trkpt lat="53.777875592932105" lon="9.299664488062263">
        <ele>0</ele>
        <time>2010-01-01T18:19:46Z</time>
      </trkpt>
      <trkpt lat="53.778984937816858" lon="9.301449246704578">
        <ele>0</ele>
        <time>2010-01-01T18:20:47Z</time>
      </trkpt>
      <trkpt lat="53.779115192592144" lon="9.301763316616416">
        <ele>0</ele>
        <time>2010-01-01T18:20:56Z</time>
      </trkpt>
      <trkpt lat="53.786971969529986" lon="9.314374728128314">
        <ele>0</ele>
        <time>2010-01-01T18:28:09Z</time>
      </trkpt>
      <trkpt lat="53.789878645911813" lon="9.319048896431923">
        <ele>0</ele>
        <time>2010-01-01T18:30:50Z</time>
      </trkpt>
      <trkpt lat="53.789949640631676" lon="9.319519959390163">
        <ele>0</ele>
        <time>2010-01-01T18:31:01Z</time>
      </trkpt>
      <trkpt lat="53.789907395839691" lon="9.319885578006506">
        <ele>0</ele>
        <time>2010-01-01T18:31:10Z</time>
      </trkpt>
      <trkpt lat="53.789874706417322" lon="9.320530062541366">
        <ele>0</ele>
        <time>2010-01-01T18:31:26Z</time>
      </trkpt>
      <trkpt lat="53.789872694760561" lon="9.32127932086587">
        <ele>0</ele>
        <time>2010-01-01T18:31:43Z</time>
      </trkpt>
      <trkpt lat="53.790253149345517" lon="9.321787599474192">
        <ele>0</ele>
        <time>2010-01-01T18:32:03Z</time>
      </trkpt>
      <trkpt lat="53.790417267009616" lon="9.32213737629354">
        <ele>0</ele>
        <time>2010-01-01T18:32:13Z</time>
      </trkpt>
      <trkpt lat="53.790580546483397" lon="9.322800803929567">
        <ele>0</ele>
        <time>2010-01-01T18:32:30Z</time>
      </trkpt>
      <trkpt lat="53.790640560910106" lon="9.323498262092471">
        <ele>0</ele>
        <time>2010-01-01T18:32:47Z</time>
      </trkpt>
      <trkpt lat="53.791020177304745" lon="9.323732201009989">
        <ele>0</ele>
        <time>2010-01-01T18:33:03Z</time>
      </trkpt>
      <trkpt lat="53.791344640776515" lon="9.323917608708143">
        <ele>0</ele>
        <time>2010-01-01T18:33:17Z</time>
      </trkpt>
      <trkpt lat="53.791776979342103" lon="9.324241066351533">
        <ele>0</ele>
        <time>2010-01-01T18:33:36Z</time>
      </trkpt>
      <trkpt lat="53.792087780311704" lon="9.324426390230656">
        <ele>0</ele>
        <time>2010-01-01T18:33:49Z</time>
      </trkpt>
      <trkpt lat="53.792331609874964" lon="9.324405351653695">
        <ele>0</ele>
        <time>2010-01-01T18:33:59Z</time>
      </trkpt>
      <trkpt lat="53.792411992326379" lon="9.324703244492412">
        <ele>0</ele>
        <time>2010-01-01T18:34:06Z</time>
      </trkpt>
      <trkpt lat="53.792397910729051" lon="9.324908936396241">
        <ele>0</ele>
        <time>2010-01-01T18:34:11Z</time>
      </trkpt>
      <trkpt lat="53.792288862168789" lon="9.325182437896729">
        <ele>0</ele>
        <time>2010-01-01T18:34:19Z</time>
      </trkpt>
      <trkpt lat="53.791759293526411" lon="9.325749892741442">
        <ele>0</ele>
        <time>2010-01-01T18:34:44Z</time>
      </trkpt>
      <trkpt lat="53.791284123435616" lon="9.32624920271337">
        <ele>0</ele>
        <time>2010-01-01T18:35:07Z</time>
      </trkpt>
      <trkpt lat="53.79067400470376" lon="9.326587412506342">
        <ele>0</ele>
        <time>2010-01-01T18:35:32Z</time>
      </trkpt>
      <trkpt lat="53.790185758844018" lon="9.326903745532036">
        <ele>0</ele>
        <time>2010-01-01T18:35:53Z</time>
      </trkpt>
      <trkpt lat="53.789670104160905" lon="9.327356955036521">
        <ele>0</ele>
        <time>2010-01-01T18:36:16Z</time>
      </trkpt>
      <trkpt lat="53.789208680391312" lon="9.32776490226388">
        <ele>0</ele>
        <time>2010-01-01T18:36:37Z</time>
      </trkpt>
      <trkpt lat="53.788367304950953" lon="9.328489936888218">
        <ele>0</ele>
        <time>2010-01-01T18:37:15Z</time>
      </trkpt>
      <trkpt lat="53.787811165675521" lon="9.32889704592526">
        <ele>0</ele>
        <time>2010-01-01T18:37:39Z</time>
      </trkpt>
      <trkpt lat="53.787281513214111" lon="9.329487299546599">
        <ele>0</ele>
        <time>2010-01-01T18:38:05Z</time>
      </trkpt>
      <trkpt lat="53.786818413063884" lon="9.330512406304479">
        <ele>0</ele>
        <time>2010-01-01T18:38:35Z</time>
      </trkpt>
      <trkpt lat="53.786219777539372" lon="9.331582188606262">
        <ele>0</ele>
        <time>2010-01-01T18:39:10Z</time>
      </trkpt>
      <trkpt lat="53.785485103726387" lon="9.332879455760121">
        <ele>0</ele>
        <time>2010-01-01T18:39:53Z</time>
      </trkpt>
      <trkpt lat="53.78514370881021" lon="9.333439115434885">
        <ele>0</ele>
        <time>2010-01-01T18:40:12Z</time>
      </trkpt>
      <trkpt lat="53.78560789860785" lon="9.335221694782376">
        <ele>0</ele>
        <time>2010-01-01T18:40:58Z</time>
      </trkpt>
      <trkpt lat="53.785614101216197" lon="9.335254384204745">
        <ele>0</ele>
        <time>2010-01-01T18:40:58Z</time>
      </trkpt>
      <trkpt lat="53.786242576315999" lon="9.33763375505805">
        <ele>0</ele>
        <time>2010-01-01T18:42:00Z</time>
      </trkpt>
      <trkpt lat="53.78726240247488" lon="9.341811882331967">
        <ele>0</ele>
        <time>2010-01-01T18:43:47Z</time>
      </trkpt>
      <trkpt lat="53.787689041346312" lon="9.343594294041395">
        <ele>0</ele>
        <time>2010-01-01T18:44:32Z</time>
      </trkpt>
      <trkpt lat="53.787823989987373" lon="9.344703638926148">
        <ele>0</ele>
        <time>2010-01-01T18:44:59Z</time>
      </trkpt>
      <trkpt lat="53.794735372066498" lon="9.402988376095891">
        <ele>0</ele>
        <time>2010-01-01T19:04:51Z</time>
      </trkpt>
      <trkpt lat="53.79508095793426" lon="9.403071440756321">
        <ele>0</ele>
        <time>2010-01-01T19:04:37Z</time>
      </trkpt>
      <trkpt lat="53.795348340645432" lon="9.403047384694219">
        <ele>0</ele>
        <time>2010-01-01T19:04:26Z</time>
      </trkpt>
      <trkpt lat="53.795599965378642" lon="9.403049815446138">
        <ele>0</ele>
        <time>2010-01-01T19:04:16Z</time>
      </trkpt>
      <trkpt lat="53.795929877087474" lon="9.403132712468505">
        <ele>0</ele>
        <time>2010-01-01T19:04:03Z</time>
      </trkpt>
      <trkpt lat="53.796337824314833" lon="9.403375620022416">
        <ele>0</ele>
        <time>2010-01-01T19:03:46Z</time>
      </trkpt>
      <trkpt lat="53.796823807060719" lon="9.403805192559958">
        <ele>0</ele>
        <time>2010-01-01T19:03:24Z</time>
      </trkpt>
      <trkpt lat="53.797371899709105" lon="9.404474487528205">
        <ele>0</ele>
        <time>2010-01-01T19:02:57Z</time>
      </trkpt>
      <trkpt lat="53.797887470573187" lon="9.405435556545854">
        <ele>0</ele>
        <time>2010-01-01T19:02:26Z</time>
      </trkpt>
      <trkpt lat="53.798277229070663" lon="9.406422022730112">
        <ele>0</ele>
        <time>2010-01-01T19:01:58Z</time>
      </trkpt>
      <trkpt lat="53.798525333404541" lon="9.407460205256939">
        <ele>0</ele>
        <time>2010-01-01T19:01:32Z</time>
      </trkpt>
      <trkpt lat="53.798800259828568" lon="9.408884374424815">
        <ele>0</ele>
        <time>2010-01-01T19:00:56Z</time>
      </trkpt>
      <trkpt lat="53.798800259828568" lon="9.408884374424815">
        <ele>0</ele>
        <time>2010-01-01T19:00:56Z</time>
      </trkpt>
      <trkpt lat="53.798027951270342" lon="9.409384019672871">
        <ele>0</ele>
        <time>2010-01-01T19:00:23Z</time>
      </trkpt>
      <trkpt lat="53.796588778495789" lon="9.410119699314237">
        <ele>0</ele>
        <time>2010-01-01T18:59:23Z</time>
      </trkpt>
      <trkpt lat="53.789271460846066" lon="9.41380656324327">
        <ele>0</ele>
        <time>2010-01-01T18:54:17Z</time>
      </trkpt>
      <trkpt lat="53.788682883605361" lon="9.414086015895009">
        <ele>0</ele>
        <time>2010-01-01T18:53:53Z</time>
      </trkpt>
      <trkpt lat="53.788361018523574" lon="9.414163297042251">
        <ele>0</ele>
        <time>2010-01-01T18:53:40Z</time>
      </trkpt>
      <trkpt lat="53.787906467914581" lon="9.414128428325057">
        <ele>0</ele>
        <time>2010-01-01T18:53:21Z</time>
      </trkpt>
      <trkpt lat="53.787798509001732" lon="9.414183497428894">
        <ele>0</ele>
        <time>2010-01-01T18:53:17Z</time>
      </trkpt>
      <trkpt lat="53.787074061110616" lon="9.414529921486974">
        <ele>0</ele>
        <time>2010-01-01T18:52:47Z</time>
      </trkpt>
      <trkpt lat="53.786992924287915" lon="9.414589768275619">
        <ele>0</ele>
        <time>2010-01-01T18:52:43Z</time>
      </trkpt>
      <trkpt lat="53.786997282877564" lon="9.415143644437194">
        <ele>0</ele>
        <time>2010-01-01T18:52:30Z</time>
      </trkpt>
      <trkpt lat="53.787062410265207" lon="9.416446946561337">
        <ele>0</ele>
        <time>2010-01-01T18:51:59Z</time>
      </trkpt>
      <trkpt lat="53.786367969587445" lon="9.416567059233785">
        <ele>0</ele>
        <time>2010-01-01T18:51:31Z</time>
      </trkpt>
      <trkpt lat="53.786231847479939" lon="9.416554067283869">
        <ele>0</ele>
        <time>2010-01-01T18:51:26Z</time>
      </trkpt>
      <trkpt lat="53.785839742049575" lon="9.416283750906587">
        <ele>0</ele>
        <time>2010-01-01T18:51:09Z</time>
      </trkpt>
      <trkpt lat="53.785759946331382" lon="9.416220718994737">
        <ele>0</ele>
        <time>2010-01-01T18:51:05Z</time>
      </trkpt>
      <trkpt lat="53.785892631858587" lon="9.418895300477743">
        <ele>0</ele>
        <time>2010-01-01T18:50:02Z</time>
      </trkpt>
      <trkpt lat="53.785873185843229" lon="9.419259997084737">
        <ele>0</ele>
        <time>2010-01-01T18:49:53Z</time>
      </trkpt>
      <trkpt lat="53.785604042932391" lon="9.421582454815507">
        <ele>0</ele>
        <time>2010-01-01T18:48:57Z</time>
      </trkpt>
      <trkpt lat="53.785622650757432" lon="9.422046728432178">
        <ele>0</ele>
        <time>2010-01-01T18:48:46Z</time>
      </trkpt>
      <trkpt lat="53.785670343786478" lon="9.422320397570729">
        <ele>0</ele>
        <time>2010-01-01T18:48:40Z</time>
      </trkpt>
      <trkpt lat="53.78583169542253" lon="9.422941077500582">
        <ele>0</ele>
        <time>2010-01-01T18:48:24Z</time>
      </trkpt>
      <trkpt lat="53.786131013184786" lon="9.424132062122226">
        <ele>0</ele>
        <time>2010-01-01T18:47:53Z</time>
      </trkpt>
      <trkpt lat="53.786334525793791" lon="9.425475597381592">
        <ele>0</ele>
        <time>2010-01-01T18:47:20Z</time>
      </trkpt>
      <trkpt lat="53.786410046741366" lon="9.425564110279083">
        <ele>0</ele>
        <time>2010-01-01T18:47:16Z</time>
      </trkpt>
      <trkpt lat="53.786421027034521" lon="9.425680115818977">
        <ele>0</ele>
        <time>2010-01-01T18:47:14Z</time>
      </trkpt>
      <trkpt lat="53.78635355271399" lon="9.425805676728487">
        <ele>0</ele>
        <time>2010-01-01T18:47:10Z</time>
      </trkpt>
      <trkpt lat="53.786624372005463" lon="9.426513444632292">
        <ele>0</ele>
        <time>2010-01-01T18:46:50Z</time>
      </trkpt>
      <trkpt lat="53.786689918488264" lon="9.426685106009245">
        <ele>0</ele>
        <time>2010-01-01T18:46:45Z</time>
      </trkpt>
      <trkpt lat="53.787035923451185" lon="9.42690865136683">
        <ele>0</ele>
        <time>2010-01-01T18:46:30Z</time>
      </trkpt>
      <trkpt lat="53.787617459893227" lon="9.42716320976615">
        <ele>0</ele>
        <time>2010-01-01T18:46:06Z</time>
      </trkpt>
      <trkpt lat="53.787757018581033" lon="9.426245307549834">
        <ele>0</ele>
        <time>2010-01-01T18:45:44Z</time>
      </trkpt>
      <trkpt lat="53.788031106814742" lon="9.424431463703513">
        <ele>0</ele>
        <time>2010-01-01T18:44:59Z</time>
      </trkpt>
      <trkpt lat="53.788031106814742" lon="9.424431463703513">
        <ele>0</ele>
        <time>2010-01-01T18:44:59Z</time>
      </trkpt>
      <trkpt lat="53.787757018581033" lon="9.426245307549834">
        <ele>0</ele>
        <time>2010-01-01T18:45:44Z</time>
      </trkpt>
      <trkpt lat="53.787617459893227" lon="9.42716320976615">
        <ele>0</ele>
        <time>2010-01-01T18:46:06Z</time>
      </trkpt>
      <trkpt lat="53.787035923451185" lon="9.42690865136683">
        <ele>0</ele>
        <time>2010-01-01T18:46:30Z</time>
      </trkpt>
      <trkpt lat="53.786689918488264" lon="9.426685106009245">
        <ele>0</ele>
        <time>2010-01-01T18:46:45Z</time>
      </trkpt>
      <trkpt lat="53.786624372005463" lon="9.426513444632292">
        <ele>0</ele>
        <time>2010-01-01T18:46:50Z</time>
      </trkpt>
      <trkpt lat="53.78635355271399" lon="9.425805676728487">
        <ele>0</ele>
        <time>2010-01-01T18:47:10Z</time>
      </trkpt>
      <trkpt lat="53.786421027034521" lon="9.425680115818977">
        <ele>0</ele>
        <time>2010-01-01T18:47:14Z</time>
      </trkpt>
      <trkpt lat="53.786410046741366" lon="9.425564110279083">
        <ele>0</ele>
        <time>2010-01-01T18:47:16Z</time>
      </trkpt>
      <trkpt lat="53.786334525793791" lon="9.425475597381592">
        <ele>0</ele>
        <time>2010-01-01T18:47:20Z</time>
      </trkpt>
      <trkpt lat="53.786131013184786" lon="9.424132062122226">
        <ele>0</ele>
        <time>2010-01-01T18:47:53Z</time>
      </trkpt>
      <trkpt lat="53.78583169542253" lon="9.422941077500582">
        <ele>0</ele>
        <time>2010-01-01T18:48:24Z</time>
      </trkpt>
      <trkpt lat="53.785670343786478" lon="9.422320397570729">
        <ele>0</ele>
        <time>2010-01-01T18:48:40Z</time>
      </trkpt>
      <trkpt lat="53.785622650757432" lon="9.422046728432178">
        <ele>0</ele>
        <time>2010-01-01T18:48:46Z</time>
      </trkpt>
      <trkpt lat="53.785604042932391" lon="9.421582454815507">
        <ele>0</ele>
        <time>2010-01-01T18:48:57Z</time>
      </trkpt>
      <trkpt lat="53.785873185843229" lon="9.419259997084737">
        <ele>0</ele>
        <time>2010-01-01T18:49:53Z</time>
      </trkpt>
      <trkpt lat="53.785892631858587" lon="9.418895300477743">
        <ele>0</ele>
        <time>2010-01-01T18:50:02Z</time>
      </trkpt>
      <trkpt lat="53.785759946331382" lon="9.416220718994737">
        <ele>0</ele>
        <time>2010-01-01T18:51:05Z</time>
      </trkpt>
      <trkpt lat="53.785839742049575" lon="9.416283750906587">
        <ele>0</ele>
        <time>2010-01-01T18:51:09Z</time>
      </trkpt>
      <trkpt lat="53.786231847479939" lon="9.416554067283869">
        <ele>0</ele>
        <time>2010-01-01T18:51:26Z</time>
      </trkpt>
      <trkpt lat="53.786367969587445" lon="9.416567059233785">
        <ele>0</ele>
        <time>2010-01-01T18:51:31Z</time>
      </trkpt>
      <trkpt lat="53.787062410265207" lon="9.416446946561337">
        <ele>0</ele>
        <time>2010-01-01T18:51:59Z</time>
      </trkpt>
      <trkpt lat="53.786997282877564" lon="9.415143644437194">
        <ele>0</ele>
        <time>2010-01-01T18:52:30Z</time>
      </trkpt>
      <trkpt lat="53.786992924287915" lon="9.414589768275619">
        <ele>0</ele>
        <time>2010-01-01T18:52:43Z</time>
      </trkpt>
      <trkpt lat="53.787074061110616" lon="9.414529921486974">
        <ele>0</ele>
        <time>2010-01-01T18:52:47Z</time>
      </trkpt>
      <trkpt lat="53.787798509001732" lon="9.414183497428894">
        <ele>0</ele>
        <time>2010-01-01T18:53:17Z</time>
      </trkpt>
      <trkpt lat="53.787906467914581" lon="9.414128428325057">
        <ele>0</ele>
        <time>2010-01-01T18:53:21Z</time>
      </trkpt>
      <trkpt lat="53.788361018523574" lon="9.414163297042251">
        <ele>0</ele>
        <time>2010-01-01T18:53:40Z</time>
      </trkpt>
      <trkpt lat="53.788682883605361" lon="9.414086015895009">
        <ele>0</ele>
        <time>2010-01-01T18:53:53Z</time>
      </trkpt>
      <trkpt lat="53.789271460846066" lon="9.41380656324327">
        <ele>0</ele>
        <time>2010-01-01T18:54:17Z</time>
      </trkpt>
      <trkpt lat="53.796588778495789" lon="9.410119699314237">
        <ele>0</ele>
        <time>2010-01-01T18:59:23Z</time>
      </trkpt>
      <trkpt lat="53.798027951270342" lon="9.409384019672871">
        <ele>0</ele>
        <time>2010-01-01T19:00:23Z</time>
      </trkpt>
      <trkpt lat="53.798800259828568" lon="9.408884374424815">
        <ele>0</ele>
        <time>2010-01-01T19:00:56Z</time>
      </trkpt>
      <trkpt lat="53.798800259828568" lon="9.408884374424815">
        <ele>0</ele>
        <time>2010-01-01T19:04:51Z</time>
      </trkpt>
      <trkpt lat="53.799721766263247" lon="9.408532418310642">
        <ele>0</ele>
        <time>2010-01-01T19:05:29Z</time>
      </trkpt>
      <trkpt lat="53.807527581229806" lon="9.404588900506496">
        <ele>0</ele>
        <time>2010-01-01T19:10:55Z</time>
      </trkpt>
      <trkpt lat="53.808315312489867" lon="9.404104677960277">
        <ele>0</ele>
        <time>2010-01-01T19:11:29Z</time>
      </trkpt>
      <trkpt lat="53.809915753081441" lon="9.402978485450149">
        <ele>0</ele>
        <time>2010-01-01T19:12:38Z</time>
      </trkpt>
      <trkpt lat="53.809932433068752" lon="9.402808584272861">
        <ele>0</ele>
        <time>2010-01-01T19:12:42Z</time>
      </trkpt>
      <trkpt lat="53.809945257380605" lon="9.402740439400077">
        <ele>0</ele>
        <time>2010-01-01T19:12:44Z</time>
      </trkpt>
      <trkpt lat="53.8099679723382" lon="9.402663242071867">
        <ele>0</ele>
        <time>2010-01-01T19:12:46Z</time>
      </trkpt>
      <trkpt lat="53.810001416131854" lon="9.40260280855">
        <ele>0</ele>
        <time>2010-01-01T19:12:48Z</time>
      </trkpt>
      <trkpt lat="53.810219680890441" lon="9.40235897898674">
        <ele>0</ele>
        <time>2010-01-01T19:12:58Z</time>
      </trkpt>
      <trkpt lat="53.81048396229744" lon="9.402062427252531">
        <ele>0</ele>
        <time>2010-01-01T19:13:11Z</time>
      </trkpt>
      <trkpt lat="53.810796355828643" lon="9.401686415076256">
        <ele>0</ele>
        <time>2010-01-01T19:13:26Z</time>
      </trkpt>
      <trkpt lat="53.811011184006929" lon="9.401364214718342">
        <ele>0</ele>
        <time>2010-01-01T19:13:38Z</time>
      </trkpt>
      <trkpt lat="53.811456263065338" lon="9.400662984699011">
        <ele>0</ele>
        <time>2010-01-01T19:14:02Z</time>
      </trkpt>
      <trkpt lat="53.811701014637947" lon="9.400296444073319">
        <ele>0</ele>
        <time>2010-01-01T19:14:15Z</time>
      </trkpt>
      <trkpt lat="53.811759687960148" lon="9.400214971974492">
        <ele>0</ele>
        <time>2010-01-01T19:14:18Z</time>
      </trkpt>
      <trkpt lat="53.811856163665652" lon="9.400105085223913">
        <ele>0</ele>
        <time>2010-01-01T19:14:23Z</time>
      </trkpt>
      <trkpt lat="53.812037380412221" lon="9.39991096034646">
        <ele>0</ele>
        <time>2010-01-01T19:14:31Z</time>
      </trkpt>
      <trkpt lat="53.812723606824875" lon="9.399181231856346">
        <ele>0</ele>
        <time>2010-01-01T19:15:04Z</time>
      </trkpt>
      <trkpt lat="53.815472200512886" lon="9.396412270143628">
        <ele>0</ele>
        <time>2010-01-01T19:17:12Z</time>
      </trkpt>
      <trkpt lat="53.815965307876468" lon="9.395909775048494">
        <ele>0</ele>
        <time>2010-01-01T19:17:35Z</time>
      </trkpt>
      <trkpt lat="53.816495463252068" lon="9.395362185314298">
        <ele>0</ele>
        <time>2010-01-01T19:18:00Z</time>
      </trkpt>
      <trkpt lat="53.816630579531193" lon="9.395235870033503">
        <ele>0</ele>
        <time>2010-01-01T19:18:06Z</time>
      </trkpt>
      <trkpt lat="53.816755805164576" lon="9.395145932212472">
        <ele>0</ele>
        <time>2010-01-01T19:18:11Z</time>
      </trkpt>
      <trkpt lat="53.816870050504804" lon="9.395089354366064">
        <ele>0</ele>
        <time>2010-01-01T19:18:16Z</time>
      </trkpt>
      <trkpt lat="53.816968118771911" lon="9.395053815096617">
        <ele>0</ele>
        <time>2010-01-01T19:18:20Z</time>
      </trkpt>
      <trkpt lat="53.817046321928501" lon="9.395042415708303">
        <ele>0</ele>
        <time>2010-01-01T19:18:23Z</time>
      </trkpt>
      <trkpt lat="53.817123603075743" lon="9.395046187564731">
        <ele>0</ele>
        <time>2010-01-01T19:18:26Z</time>
      </trkpt>
      <trkpt lat="53.817184623330832" lon="9.395060436800122">
        <ele>0</ele>
        <time>2010-01-01T19:18:29Z</time>
      </trkpt>
      <trkpt lat="53.817245727404952" lon="9.395077703520656">
        <ele>0</ele>
        <time>2010-01-01T19:18:31Z</time>
      </trkpt>
      <trkpt lat="53.817312028259039" lon="9.395111734047532">
        <ele>0</ele>
        <time>2010-01-01T19:18:34Z</time>
      </trkpt>
      <trkpt lat="53.817375730723143" lon="9.395141154527664">
        <ele>0</ele>
        <time>2010-01-01T19:18:37Z</time>
      </trkpt>
      <trkpt lat="53.817462734878063" lon="9.395201252773404">
        <ele>0</ele>
        <time>2010-01-01T19:18:41Z</time>
      </trkpt>
      <trkpt lat="53.817557618021965" lon="9.395290184766054">
        <ele>0</ele>
        <time>2010-01-01T19:18:45Z</time>
      </trkpt>
      <trkpt lat="53.817656189203262" lon="9.395389761775732">
        <ele>0</ele>
        <time>2010-01-01T19:18:49Z</time>
      </trkpt>
      <trkpt lat="53.81775819696486" lon="9.39551523886621">
        <ele>0</ele>
        <time>2010-01-01T19:18:55Z</time>
      </trkpt>
      <trkpt lat="53.823276590555906" lon="9.402335593476892">
        <ele>0</ele>
        <time>2010-01-01T19:23:28Z</time>
      </trkpt>
      <trkpt lat="53.823396619409323" lon="9.402673300355673">
        <ele>0</ele>
        <time>2010-01-01T19:23:37Z</time>
      </trkpt>
      <trkpt lat="53.823495777323842" lon="9.402884691953659">
        <ele>0</ele>
        <time>2010-01-01T19:23:44Z</time>
      </trkpt>
      <trkpt lat="53.823579512536526" lon="9.403011091053486">
        <ele>0</ele>
        <time>2010-01-01T19:23:48Z</time>
      </trkpt>
      <trkpt lat="53.823680682107806" lon="9.403119888156652">
        <ele>0</ele>
        <time>2010-01-01T19:23:53Z</time>
      </trkpt>
      <trkpt lat="53.823829460889101" lon="9.403227595612407">
        <ele>0</ele>
        <time>2010-01-01T19:23:59Z</time>
      </trkpt>
      <trkpt lat="53.82390464656055" lon="9.403301188722253">
        <ele>0</ele>
        <time>2010-01-01T19:24:03Z</time>
      </trkpt>
      <trkpt lat="53.823992321267724" lon="9.403422055765986">
        <ele>0</ele>
        <time>2010-01-01T19:24:07Z</time>
      </trkpt>
      <trkpt lat="53.824049569666386" lon="9.403515094891191">
        <ele>0</ele>
        <time>2010-01-01T19:24:11Z</time>
      </trkpt>
      <trkpt lat="53.822766551747918" lon="9.40550621598959">
        <ele>0</ele>
        <time>2010-01-01T19:25:20Z</time>
      </trkpt>
      <trkpt lat="53.822794547304511" lon="9.40558047965169">
        <ele>0</ele>
        <time>2010-01-01T19:25:22Z</time>
      </trkpt>
      <trkpt lat="53.822911223396659" lon="9.405891364440322">
        <ele>0</ele>
        <time>2010-01-01T19:25:31Z</time>
      </trkpt>
      <trkpt lat="53.823206098750234" lon="9.406633749604225">
        <ele>0</ele>
        <time>2010-01-01T19:25:52Z</time>
      </trkpt>
      <trkpt lat="53.823759304359555" lon="9.407480405643582">
        <ele>0</ele>
        <time>2010-01-01T19:26:22Z</time>
      </trkpt>
      <trkpt lat="53.824136238545179" lon="9.408144671469927">
        <ele>0</ele>
        <time>2010-01-01T19:26:44Z</time>
      </trkpt>
      <trkpt lat="53.824462965130806" lon="9.409164497628808">
        <ele>0</ele>
        <time>2010-01-01T19:27:11Z</time>
      </trkpt>
      <trkpt lat="53.824762618169188" lon="9.410147527232766">
        <ele>0</ele>
        <time>2010-01-01T19:27:37Z</time>
      </trkpt>
      <trkpt lat="53.824818525463343" lon="9.410490849986672">
        <ele>0</ele>
        <time>2010-01-01T19:27:46Z</time>
      </trkpt>
      <trkpt lat="53.824807880446315" lon="9.411159558221698">
        <ele>0</ele>
        <time>2010-01-01T19:28:02Z</time>
      </trkpt>
      <trkpt lat="53.824877953156829" lon="9.411856345832348">
        <ele>0</ele>
        <time>2010-01-01T19:28:18Z</time>
      </trkpt>
      <trkpt lat="53.824965795502067" lon="9.41224199719727">
        <ele>0</ele>
        <time>2010-01-01T19:28:28Z</time>
      </trkpt>
      <trkpt lat="53.825163105502725" lon="9.412876004353166">
        <ele>0</ele>
        <time>2010-01-01T19:28:45Z</time>
      </trkpt>
      <trkpt lat="53.825377011671662" lon="9.413297278806567">
        <ele>0</ele>
        <time>2010-01-01T19:28:58Z</time>
      </trkpt>
      <trkpt lat="53.825496286153793" lon="9.413435412570834">
        <ele>0</ele>
        <time>2010-01-01T19:29:04Z</time>
      </trkpt>
      <trkpt lat="53.825718741863966" lon="9.413564829155803">
        <ele>0</ele>
        <time>2010-01-01T19:29:13Z</time>
      </trkpt>
      <trkpt lat="53.826176729053259" lon="9.413611935451627">
        <ele>0</ele>
        <time>2010-01-01T19:29:32Z</time>
      </trkpt>
      <trkpt lat="53.826632620766759" lon="9.413768257945776">
        <ele>0</ele>
        <time>2010-01-01T19:29:50Z</time>
      </trkpt>
      <trkpt lat="53.826951719820499" lon="9.414002280682325">
        <ele>0</ele>
        <time>2010-01-01T19:30:04Z</time>
      </trkpt>
      <trkpt lat="53.82730895653367" lon="9.414438894018531">
        <ele>0</ele>
        <time>2010-01-01T19:30:22Z</time>
      </trkpt>
      <trkpt lat="53.827468380331993" lon="9.414754556491971">
        <ele>0</ele>
        <time>2010-01-01T19:30:32Z</time>
      </trkpt>
      <trkpt lat="53.827580278739333" lon="9.415138363838196">
        <ele>0</ele>
        <time>2010-01-01T19:30:42Z</time>
      </trkpt>
      <trkpt lat="53.827719585970044" lon="9.415911259129643">
        <ele>0</ele>
        <time>2010-01-01T19:31:01Z</time>
      </trkpt>
      <trkpt lat="53.827789826318622" lon="9.416204458102584">
        <ele>0</ele>
        <time>2010-01-01T19:31:08Z</time>
      </trkpt>
      <trkpt lat="53.827830059453845" lon="9.41634988412261">
        <ele>0</ele>
        <time>2010-01-01T19:31:12Z</time>
      </trkpt>
      <trkpt lat="53.828096520155668" lon="9.417318245396018">
        <ele>0</ele>
        <time>2010-01-01T19:31:37Z</time>
      </trkpt>
      <trkpt lat="53.828293327242136" lon="9.418582320213318">
        <ele>0</ele>
        <time>2010-01-01T19:32:08Z</time>
      </trkpt>
      <trkpt lat="53.828421486541629" lon="9.419446242973208">
        <ele>0</ele>
        <time>2010-01-01T19:32:29Z</time>
      </trkpt>
      <trkpt lat="53.828430790454149" lon="9.419865505769849">
        <ele>0</ele>
        <time>2010-01-01T19:32:39Z</time>
      </trkpt>
      <trkpt lat="53.828209927305579" lon="9.421110134571791">
        <ele>0</ele>
        <time>2010-01-01T19:33:10Z</time>
      </trkpt>
      <trkpt lat="53.828032398596406" lon="9.422273207455873">
        <ele>0</ele>
        <time>2010-01-01T19:33:38Z</time>
      </trkpt>
      <trkpt lat="53.828007755801082" lon="9.422903191298246">
        <ele>0</ele>
        <time>2010-01-01T19:33:53Z</time>
      </trkpt>
      <trkpt lat="53.828029800206423" lon="9.423529151827097">
        <ele>0</ele>
        <time>2010-01-01T19:34:08Z</time>
      </trkpt>
      <trkpt lat="53.828237671405077" lon="9.425206454470754">
        <ele>0</ele>
        <time>2010-01-01T19:34:49Z</time>
      </trkpt>
      <trkpt lat="53.828259715810418" lon="9.425648432224989">
        <ele>0</ele>
        <time>2010-01-01T19:34:59Z</time>
      </trkpt>
      <trkpt lat="53.828238174319267" lon="9.425878934562206">
        <ele>0</ele>
        <time>2010-01-01T19:35:05Z</time>
      </trkpt>
      <trkpt lat="53.828170951455832" lon="9.426129888743162">
        <ele>0</ele>
        <time>2010-01-01T19:35:11Z</time>
      </trkpt>
      <trkpt lat="53.828087383881211" lon="9.426317811012268">
        <ele>0</ele>
        <time>2010-01-01T19:35:17Z</time>
      </trkpt>
      <trkpt lat="53.827893259003758" lon="9.426562143489718">
        <ele>0</ele>
        <time>2010-01-01T19:35:26Z</time>
      </trkpt>
      <trkpt lat="53.827312812209129" lon="9.42707872018218">
        <ele>0</ele>
        <time>2010-01-01T19:35:53Z</time>
      </trkpt>
      <trkpt lat="53.826991030946374" lon="9.427359430119395">
        <ele>0</ele>
        <time>2010-01-01T19:36:07Z</time>
      </trkpt>
      <trkpt lat="53.826721049845219" lon="9.427478117868304">
        <ele>0</ele>
        <time>2010-01-01T19:36:18Z</time>
      </trkpt>
      <trkpt lat="53.826826242730021" lon="9.427971225231886">
        <ele>0</ele>
        <time>2010-01-01T19:36:31Z</time>
      </trkpt>
      <trkpt lat="53.826859099790454" lon="9.42807792685926">
        <ele>0</ele>
        <time>2010-01-01T19:36:33Z</time>
      </trkpt>
      <trkpt lat="53.826897321268916" lon="9.428201308473945">
        <ele>0</ele>
        <time>2010-01-01T19:36:37Z</time>
      </trkpt>
      <trkpt lat="53.827035203576088" lon="9.428570279851556">
        <ele>0</ele>
        <time>2010-01-01T19:36:47Z</time>
      </trkpt>
      <trkpt lat="53.826377978548408" lon="9.429190708324313">
        <ele>0</ele>
        <time>2010-01-01T19:37:17Z</time>
      </trkpt>
      <trkpt lat="53.8257463183254" lon="9.429782722145319">
        <ele>0</ele>
        <time>2010-01-01T19:37:46Z</time>
      </trkpt>
      <trkpt lat="53.825351949781179" lon="9.430364761501551">
        <ele>0</ele>
        <time>2010-01-01T19:38:07Z</time>
      </trkpt>
      <trkpt lat="53.825062522664666" lon="9.430973790585995">
        <ele>0</ele>
        <time>2010-01-01T19:38:25Z</time>
      </trkpt>
      <trkpt lat="53.825028659775853" lon="9.431191803887486">
        <ele>0</ele>
        <time>2010-01-01T19:38:31Z</time>
      </trkpt>
      <trkpt lat="53.825015248730779" lon="9.431647527962923">
        <ele>0</ele>
        <time>2010-01-01T19:38:42Z</time>
      </trkpt>
      <trkpt lat="53.825068306177855" lon="9.432369461283088">
        <ele>0</ele>
        <time>2010-01-01T19:38:59Z</time>
      </trkpt>
      <trkpt lat="53.825095547363162" lon="9.432785790413618">
        <ele>0</ele>
        <time>2010-01-01T19:39:09Z</time>
      </trkpt>
      <trkpt lat="53.825033102184534" lon="9.433154175058007">
        <ele>0</ele>
        <time>2010-01-01T19:39:18Z</time>
      </trkpt>
      <trkpt lat="53.825027821585536" lon="9.433167921379209">
        <ele>0</ele>
        <time>2010-01-01T19:39:18Z</time>
      </trkpt>
      <trkpt lat="53.824391299858689" lon="9.434737516567111">
        <ele>0</ele>
        <time>2010-01-01T19:40:03Z</time>
      </trkpt>
      <trkpt lat="53.82389735430479" lon="9.435666315257549">
        <ele>0</ele>
        <time>2010-01-01T19:40:33Z</time>
      </trkpt>
      <trkpt lat="53.823798531666398" lon="9.436142155900598">
        <ele>0</ele>
        <time>2010-01-01T19:40:45Z</time>
      </trkpt>
      <trkpt lat="53.823811858892441" lon="9.436688907444477">
        <ele>0</ele>
        <time>2010-01-01T19:40:57Z</time>
      </trkpt>
      <trkpt lat="53.82392467930913" lon="9.437535982578993">
        <ele>0</ele>
        <time>2010-01-01T19:41:18Z</time>
      </trkpt>
      <trkpt lat="53.823878578841686" lon="9.437852818518877">
        <ele>0</ele>
        <time>2010-01-01T19:41:26Z</time>
      </trkpt>
      <trkpt lat="53.823821414262056" lon="9.438007129356265">
        <ele>0</ele>
        <time>2010-01-01T19:41:30Z</time>
      </trkpt>
      <trkpt lat="53.823076179251075" lon="9.439337169751525">
        <ele>0</ele>
        <time>2010-01-01T19:42:13Z</time>
      </trkpt>
      <trkpt lat="53.822661442682147" lon="9.440713226795197">
        <ele>0</ele>
        <time>2010-01-01T19:42:50Z</time>
      </trkpt>
      <trkpt lat="53.822657335549593" lon="9.440854378044605">
        <ele>0</ele>
        <time>2010-01-01T19:42:53Z</time>
      </trkpt>
      <trkpt lat="53.823380777612329" lon="9.442994026467204">
        <ele>0</ele>
        <time>2010-01-01T19:43:51Z</time>
      </trkpt>
      <trkpt lat="53.823832059279084" lon="9.444139245897532">
        <ele>0</ele>
        <time>2010-01-01T19:44:24Z</time>
      </trkpt>
      <trkpt lat="53.824189882725477" lon="9.444812731817365">
        <ele>0</ele>
        <time>2010-01-01T19:44:45Z</time>
      </trkpt>
      <trkpt lat="53.824765551835299" lon="9.44608686491847">
        <ele>0</ele>
        <time>2010-01-01T19:45:23Z</time>
      </trkpt>
      <trkpt lat="53.825392350554466" lon="9.447607593610883">
        <ele>0</ele>
        <time>2010-01-01T19:46:07Z</time>
      </trkpt>
      <trkpt lat="53.825664762407541" lon="9.448284767568111">
        <ele>0</ele>
        <time>2010-01-01T19:46:26Z</time>
      </trkpt>
      <trkpt lat="53.826108081266284" lon="9.449392016977072">
        <ele>0</ele>
        <time>2010-01-01T19:46:58Z</time>
      </trkpt>
      <trkpt lat="53.826207239180803" lon="9.449544986709952">
        <ele>0</ele>
        <time>2010-01-01T19:47:03Z</time>
      </trkpt>
      <trkpt lat="53.826316874474287" lon="9.44953853264451">
        <ele>0</ele>
        <time>2010-01-01T19:47:08Z</time>
      </trkpt>
      <trkpt lat="53.826516615226865" lon="9.4492247980088">
        <ele>0</ele>
        <time>2010-01-01T19:47:19Z</time>
      </trkpt>
      <trkpt lat="53.826742926612496" lon="9.449013071134686">
        <ele>0</ele>
        <time>2010-01-01T19:47:29Z</time>
      </trkpt>
      <trkpt lat="53.826860608533025" lon="9.449006784707308">
        <ele>0</ele>
        <time>2010-01-01T19:47:34Z</time>
      </trkpt>
      <trkpt lat="53.826960101723671" lon="9.449077695608139">
        <ele>0</ele>
        <time>2010-01-01T19:47:38Z</time>
      </trkpt>
      <trkpt lat="53.827162273228168" lon="9.449544567614794">
        <ele>0</ele>
        <time>2010-01-01T19:47:52Z</time>
      </trkpt>
      <trkpt lat="53.82773257791996" lon="9.450815767049789">
        <ele>0</ele>
        <time>2010-01-01T19:48:30Z</time>
      </trkpt>
      <trkpt lat="53.828171538189054" lon="9.452331634238362">
        <ele>0</ele>
        <time>2010-01-01T19:49:09Z</time>
      </trkpt>
      <trkpt lat="53.828369854018092" lon="9.452875955030322">
        <ele>0</ele>
        <time>2010-01-01T19:49:25Z</time>
      </trkpt>
      <trkpt lat="53.828561464324594" lon="9.453291110694408">
        <ele>0</ele>
        <time>2010-01-01T19:49:37Z</time>
      </trkpt>
      <trkpt lat="53.828701358288527" lon="9.453594870865345">
        <ele>0</ele>
        <time>2010-01-01T19:49:46Z</time>
      </trkpt>
      <trkpt lat="53.828772185370326" lon="9.453888740390539">
        <ele>0</ele>
        <time>2010-01-01T19:49:54Z</time>
      </trkpt>
      <trkpt lat="53.828792301937938" lon="9.454257963225245">
        <ele>0</ele>
        <time>2010-01-01T19:50:02Z</time>
      </trkpt>
      <trkpt lat="53.828760534524918" lon="9.454584186896682">
        <ele>0</ele>
        <time>2010-01-01T19:50:10Z</time>
      </trkpt>
      <trkpt lat="53.828697334975004" lon="9.455140912905335">
        <ele>0</ele>
        <time>2010-01-01T19:50:24Z</time>
      </trkpt>
      <trkpt lat="53.828624915331602" lon="9.456927683204412">
        <ele>0</ele>
        <time>2010-01-01T19:51:06Z</time>
      </trkpt>
      <trkpt lat="53.828636147081852" lon="9.457517014816403">
        <ele>0</ele>
        <time>2010-01-01T19:51:20Z</time>
      </trkpt>
      <trkpt lat="53.828756343573332" lon="9.45875309407711">
        <ele>0</ele>
        <time>2010-01-01T19:51:49Z</time>
      </trkpt>
      <trkpt lat="53.828786602243781" lon="9.459046544507146">
        <ele>0</ele>
        <time>2010-01-01T19:51:56Z</time>
      </trkpt>
      <trkpt lat="53.828835217282176" lon="9.459508806467056">
        <ele>0</ele>
        <time>2010-01-01T19:52:08Z</time>
      </trkpt>
      <trkpt lat="53.829131266102195" lon="9.460552353411913">
        <ele>0</ele>
        <time>2010-01-01T19:52:35Z</time>
      </trkpt>
      <trkpt lat="53.829647088423371" lon="9.462865004315972">
        <ele>0</ele>
        <time>2010-01-01T19:53:33Z</time>
      </trkpt>
      <trkpt lat="53.829901814460754" lon="9.464087756350636">
        <ele>0</ele>
        <time>2010-01-01T19:54:04Z</time>
      </trkpt>
      <trkpt lat="53.829953027889132" lon="9.464359832927585">
        <ele>0</ele>
        <time>2010-01-01T19:54:11Z</time>
      </trkpt>
      <trkpt lat="53.830164754763246" lon="9.465372199192643">
        <ele>0</ele>
        <time>2010-01-01T19:54:36Z</time>
      </trkpt>
      <trkpt lat="53.830366171896458" lon="9.466261435300112">
        <ele>0</ele>
        <time>2010-01-01T19:54:59Z</time>
      </trkpt>
      <trkpt lat="53.831157088279724" lon="9.468707945197821">
        <ele>0</ele>
        <time>2010-01-01T19:56:04Z</time>
      </trkpt>
      <trkpt lat="53.831657320261002" lon="9.470606027171016">
        <ele>0</ele>
        <time>2010-01-01T19:56:54Z</time>
      </trkpt>
      <trkpt lat="53.832103991881013" lon="9.471936989575624">
        <ele>0</ele>
        <time>2010-01-01T19:57:30Z</time>
      </trkpt>
      <trkpt lat="53.83330243639648" lon="9.475158406421542">
        <ele>0</ele>
        <time>2010-01-01T19:59:00Z</time>
      </trkpt>
      <trkpt lat="53.833696469664574" lon="9.476264230906963">
        <ele>0</ele>
        <time>2010-01-01T19:59:30Z</time>
      </trkpt>
      <trkpt lat="53.833863772451878" lon="9.476741915568709">
        <ele>0</ele>
        <time>2010-01-01T19:59:43Z</time>
      </trkpt>
      <trkpt lat="53.834181949496269" lon="9.477670127525926">
        <ele>0</ele>
        <time>2010-01-01T20:00:09Z</time>
      </trkpt>
      <trkpt lat="53.834252106025815" lon="9.47785746306181">
        <ele>0</ele>
        <time>2010-01-01T20:00:14Z</time>
      </trkpt>
      <trkpt lat="53.834317903965712" lon="9.478045301511884">
        <ele>0</ele>
        <time>2010-01-01T20:00:19Z</time>
      </trkpt>
      <trkpt lat="53.834545891731977" lon="9.479315495118499">
        <ele>0</ele>
        <time>2010-01-01T20:00:50Z</time>
      </trkpt>
      <trkpt lat="53.83456751704216" lon="9.479436445981264">
        <ele>0</ele>
        <time>2010-01-01T20:00:53Z</time>
      </trkpt>
      <trkpt lat="53.834850238636136" lon="9.481305023655295">
        <ele>0</ele>
        <time>2010-01-01T20:01:39Z</time>
      </trkpt>
      <trkpt lat="53.834836576133966" lon="9.481569137424231">
        <ele>0</ele>
        <time>2010-01-01T20:01:45Z</time>
      </trkpt>
      <trkpt lat="53.835137486457825" lon="9.482031315565109">
        <ele>0</ele>
        <time>2010-01-01T20:02:02Z</time>
      </trkpt>
      <trkpt lat="53.835200518369675" lon="9.482223428785801">
        <ele>0</ele>
        <time>2010-01-01T20:02:07Z</time>
      </trkpt>
      <trkpt lat="53.835260700434446" lon="9.482444208115339">
        <ele>0</ele>
        <time>2010-01-01T20:02:12Z</time>
      </trkpt>
      <trkpt lat="53.835417442023754" lon="9.48301887139678">
        <ele>0</ele>
        <time>2010-01-01T20:02:27Z</time>
      </trkpt>
      <trkpt lat="53.835032964125276" lon="9.483302095904946">
        <ele>0</ele>
        <time>2010-01-01T20:02:44Z</time>
      </trkpt>
      <trkpt lat="53.834871361032128" lon="9.483421202749014">
        <ele>0</ele>
        <time>2010-01-01T20:02:51Z</time>
      </trkpt>
      <trkpt lat="53.834313713014126" lon="9.483792940154672">
        <ele>0</ele>
        <time>2010-01-01T20:03:15Z</time>
      </trkpt>
      <trkpt lat="53.834185721352696" lon="9.483879609033465">
        <ele>0</ele>
        <time>2010-01-01T20:03:21Z</time>
      </trkpt>
      <trkpt lat="53.834125706925988" lon="9.484023610129952">
        <ele>0</ele>
        <time>2010-01-01T20:03:25Z</time>
      </trkpt>
      <trkpt lat="53.834128472954035" lon="9.48426928371191">
        <ele>0</ele>
        <time>2010-01-01T20:03:31Z</time>
      </trkpt>
      <trkpt lat="53.834236096590757" lon="9.484982918947935">
        <ele>0</ele>
        <time>2010-01-01T20:03:48Z</time>
      </trkpt>
      <trkpt lat="53.834632560610771" lon="9.487583404406905">
        <ele>0</ele>
        <time>2010-01-01T20:04:52Z</time>
      </trkpt>
      <trkpt lat="53.83471118286252" lon="9.488120516762137">
        <ele>0</ele>
        <time>2010-01-01T20:05:05Z</time>
      </trkpt>
      <trkpt lat="53.835139079019427" lon="9.491058038547635">
        <ele>0</ele>
        <time>2010-01-01T20:06:16Z</time>
      </trkpt>
      <trkpt lat="53.835407551378012" lon="9.49078319594264">
        <ele>0</ele>
        <time>2010-01-01T20:06:29Z</time>
      </trkpt>
      <trkpt lat="53.835808709263802" lon="9.490379607304931">
        <ele>0</ele>
        <time>2010-01-01T20:06:47Z</time>
      </trkpt>
      <trkpt lat="53.836249010637403" lon="9.489985490217805">
        <ele>0</ele>
        <time>2010-01-01T20:07:07Z</time>
      </trkpt>
      <trkpt lat="53.836349761113524" lon="9.489954812452197">
        <ele>0</ele>
        <time>2010-01-01T20:07:11Z</time>
      </trkpt>
      <trkpt lat="53.836649246513844" lon="9.489865629002452">
        <ele>0</ele>
        <time>2010-01-01T20:07:24Z</time>
      </trkpt>
      <trkpt lat="53.836499964818358" lon="9.488367699086666">
        <ele>0</ele>
        <time>2010-01-01T20:07:59Z</time>
      </trkpt>
      <trkpt lat="53.836366441100836" lon="9.487624811008573">
        <ele>0</ele>
        <time>2010-01-01T20:08:18Z</time>
      </trkpt>
      <trkpt lat="53.837259113788605" lon="9.48750302195549">
        <ele>0</ele>
        <time>2010-01-01T20:08:54Z</time>
      </trkpt>
      <trkpt lat="53.837997978553176" lon="9.487415933981538">
        <ele>0</ele>
        <time>2010-01-01T20:09:23Z</time>
      </trkpt>
      <trkpt lat="53.83865780197084" lon="9.487335467711091">
        <ele>0</ele>
        <time>2010-01-01T20:09:50Z</time>
      </trkpt>
      <trkpt lat="53.840136872604489" lon="9.487176211550832">
        <ele>0</ele>
        <time>2010-01-01T20:10:49Z</time>
      </trkpt>
      <trkpt lat="53.841002052649856" lon="9.487066492438316">
        <ele>0</ele>
        <time>2010-01-01T20:11:24Z</time>
      </trkpt>
      <trkpt lat="53.841635389253497" lon="9.486987283453345">
        <ele>0</ele>
        <time>2010-01-01T20:11:49Z</time>
      </trkpt>
      <trkpt lat="53.842655969783664" lon="9.486888209357858">
        <ele>0</ele>
        <time>2010-01-01T20:12:30Z</time>
      </trkpt>
      <trkpt lat="53.842717073857784" lon="9.486879827454686">
        <ele>0</ele>
        <time>2010-01-01T20:12:33Z</time>
      </trkpt>
      <trkpt lat="53.842798881232738" lon="9.486870188266039">
        <ele>0</ele>
        <time>2010-01-01T20:12:36Z</time>
      </trkpt>
      <trkpt lat="53.843194423243403" lon="9.486821573227644">
        <ele>0</ele>
        <time>2010-01-01T20:12:52Z</time>
      </trkpt>
      <trkpt lat="53.84327245876193" lon="9.486812185496092">
        <ele>0</ele>
        <time>2010-01-01T20:12:55Z</time>
      </trkpt>
      <trkpt lat="53.843293329700828" lon="9.487810134887695">
        <ele>0</ele>
        <time>2010-01-01T20:13:19Z</time>
      </trkpt>
      <trkpt lat="53.843364994972944" lon="9.487946759909391">
        <ele>0</ele>
        <time>2010-01-01T20:13:23Z</time>
      </trkpt>
      <trkpt lat="53.843413190916181" lon="9.487947262823582">
        <ele>0</ele>
        <time>2010-01-01T20:13:25Z</time>
      </trkpt>
      <trkpt lat="53.843461638316512" lon="9.487879956141114">
        <ele>0</ele>
        <time>2010-01-01T20:13:27Z</time>
      </trkpt>
      <trkpt lat="53.843534477055073" lon="9.487745007500052">
        <ele>0</ele>
        <time>2010-01-01T20:13:32Z</time>
      </trkpt>
      <trkpt lat="53.843551659956574" lon="9.487460106611252">
        <ele>0</ele>
        <time>2010-01-01T20:13:38Z</time>
      </trkpt>
      <trkpt lat="53.843521233648062" lon="9.487052410840988">
        <ele>0</ele>
        <time>2010-01-01T20:13:48Z</time>
      </trkpt>
      <trkpt lat="53.843459542840719" lon="9.486427204683423">
        <ele>0</ele>
        <time>2010-01-01T20:14:03Z</time>
      </trkpt>
      <trkpt lat="53.843310764059424" lon="9.485488682985306">
        <ele>0</ele>
        <time>2010-01-01T20:14:26Z</time>
      </trkpt>
      <trkpt lat="53.84319668635726" lon="9.485126752406359">
        <ele>0</ele>
        <time>2010-01-01T20:14:36Z</time>
      </trkpt>
      <trkpt lat="53.84319668635726" lon="9.485126752406359">
        <ele>0</ele>
        <time>2010-01-02T00:21:43Z</time>
      </trkpt>
      <trkpt lat="53.843104653060436" lon="9.484834559261799">
        <ele>0</ele>
        <time>2010-01-02T00:21:51Z</time>
      </trkpt>
      <trkpt lat="53.842953611165285" lon="9.484466258436441">
        <ele>0</ele>
        <time>2010-01-02T00:22:01Z</time>
      </trkpt>
      <trkpt lat="53.842674577608705" lon="9.483974240720272">
        <ele>0</ele>
        <time>2010-01-02T00:22:17Z</time>
      </trkpt>
      <trkpt lat="53.842458911240101" lon="9.483686657622457">
        <ele>0</ele>
        <time>2010-01-02T00:22:28Z</time>
      </trkpt>
      <trkpt lat="53.842171244323254" lon="9.483343921601772">
        <ele>0</ele>
        <time>2010-01-02T00:22:42Z</time>
      </trkpt>
      <trkpt lat="53.841971000656486" lon="9.483219366520643">
        <ele>0</ele>
        <time>2010-01-02T00:22:51Z</time>
      </trkpt>
      <trkpt lat="53.841730356216431" lon="9.483162285760045">
        <ele>0</ele>
        <time>2010-01-02T00:23:01Z</time>
      </trkpt>
      <trkpt lat="53.841584846377373" lon="9.483405025675893">
        <ele>0</ele>
        <time>2010-01-02T00:23:09Z</time>
      </trkpt>
      <trkpt lat="53.84155148640275" lon="9.483716916292906">
        <ele>0</ele>
        <time>2010-01-02T00:23:16Z</time>
      </trkpt>
      <trkpt lat="53.84165458381176" lon="9.484043894335628">
        <ele>0</ele>
        <time>2010-01-02T00:23:25Z</time>
      </trkpt>
      <trkpt lat="53.841870333999395" lon="9.484290825203061">
        <ele>0</ele>
        <time>2010-01-02T00:23:35Z</time>
      </trkpt>
      <trkpt lat="53.842160934582353" lon="9.484655605629086">
        <ele>0</ele>
        <time>2010-01-02T00:23:50Z</time>
      </trkpt>
      <trkpt lat="53.842747500166297" lon="9.48493086732924">
        <ele>0</ele>
        <time>2010-01-02T00:24:14Z</time>
      </trkpt>
      <trkpt lat="53.843082608655095" lon="9.48508526198566">
        <ele>0</ele>
        <time>2010-01-02T00:24:28Z</time>
      </trkpt>
      <trkpt lat="53.84319668635726" lon="9.485126752406359">
        <ele>0</ele>
        <time>2010-01-02T00:24:33Z</time>
      </trkpt>
      <trkpt lat="53.84319668635726" lon="9.485126752406359">
        <ele>0</ele>
        <time>2010-01-02T00:24:33Z</time>
      </trkpt>
      <trkpt lat="53.843291737139225" lon="9.485161202028394">
        <ele>0</ele>
        <time>2010-01-02T00:24:37Z</time>
      </trkpt>
      <trkpt lat="53.843291737139225" lon="9.485161202028394">
        <ele>0</ele>
        <time>2010-01-02T00:24:37Z</time>
      </trkpt>
      <trkpt lat="53.845289647579193" lon="9.48582018725574">
        <ele>0</ele>
        <time>2010-01-02T00:25:58Z</time>
      </trkpt>
      <trkpt lat="53.847043644636869" lon="9.486282868310809">
        <ele>0</ele>
        <time>2010-01-02T00:27:09Z</time>
      </trkpt>
      <trkpt lat="53.847514959052205" lon="9.486342966556549">
        <ele>0</ele>
        <time>2010-01-02T00:27:28Z</time>
      </trkpt>
      <trkpt lat="53.848238484933972" lon="9.486292423680425">
        <ele>0</ele>
        <time>2010-01-02T00:27:57Z</time>
      </trkpt>
      <trkpt lat="53.848313838243484" lon="9.486286975443363">
        <ele>0</ele>
        <time>2010-01-02T00:28:00Z</time>
      </trkpt>
      <trkpt lat="53.848399417474866" lon="9.486279264092445">
        <ele>0</ele>
        <time>2010-01-02T00:28:04Z</time>
      </trkpt>
      <trkpt lat="53.849462075158954" lon="9.486166527494788">
        <ele>0</ele>
        <time>2010-01-02T00:28:46Z</time>
      </trkpt>
      <trkpt lat="53.850741405040026" lon="9.485979275777936">
        <ele>0</ele>
        <time>2010-01-02T00:29:38Z</time>
      </trkpt>
      <trkpt lat="53.852499844506383" lon="9.485713988542557">
        <ele>0</ele>
        <time>2010-01-02T00:30:48Z</time>
      </trkpt>
      <trkpt lat="53.853762997314334" lon="9.485523467883468">
        <ele>0</ele>
        <time>2010-01-02T00:31:39Z</time>
      </trkpt>
      <trkpt lat="53.855553874745965" lon="9.485229682177305">
        <ele>0</ele>
        <time>2010-01-02T00:32:51Z</time>
      </trkpt>
      <trkpt lat="53.857032023370266" lon="9.484961125999689">
        <ele>0</ele>
        <time>2010-01-02T00:33:51Z</time>
      </trkpt>
      <trkpt lat="53.858374552801251" lon="9.48471687734127">
        <ele>0</ele>
        <time>2010-01-02T00:34:45Z</time>
      </trkpt>
      <trkpt lat="53.858564151450992" lon="9.484694581478834">
        <ele>0</ele>
        <time>2010-01-02T00:34:52Z</time>
      </trkpt>
      <trkpt lat="53.859335286542773" lon="9.484632136300206">
        <ele>0</ele>
        <time>2010-01-02T00:35:23Z</time>
      </trkpt>
      <trkpt lat="53.859340315684676" lon="9.484497187659144">
        <ele>0</ele>
        <time>2010-01-02T00:35:26Z</time>
      </trkpt>
      <trkpt lat="53.859362192451954" lon="9.484181022271514">
        <ele>0</ele>
        <time>2010-01-02T00:35:34Z</time>
      </trkpt>
      <trkpt lat="53.859631670638919" lon="9.482653671875596">
        <ele>0</ele>
        <time>2010-01-02T00:36:11Z</time>
      </trkpt>
      <trkpt lat="53.860038025304675" lon="9.480366166681051">
        <ele>0</ele>
        <time>2010-01-02T00:37:08Z</time>
      </trkpt>
      <trkpt lat="53.860118826851249" lon="9.479918908327818">
        <ele>0</ele>
        <time>2010-01-02T00:37:19Z</time>
      </trkpt>
      <trkpt lat="53.860321836546063" lon="9.479249445721507">
        <ele>0</ele>
        <time>2010-01-02T00:37:37Z</time>
      </trkpt>
      <trkpt lat="53.86101015843451" lon="9.477881770581007">
        <ele>0</ele>
        <time>2010-01-02T00:38:19Z</time>
      </trkpt>
      <trkpt lat="53.862374229356647" lon="9.475118843838573">
        <ele>0</ele>
        <time>2010-01-02T00:39:44Z</time>
      </trkpt>
      <trkpt lat="53.862554021179676" lon="9.474510233849287">
        <ele>0</ele>
        <time>2010-01-02T00:40:00Z</time>
      </trkpt>
      <trkpt lat="53.862727023661137" lon="9.473590739071369">
        <ele>0</ele>
        <time>2010-01-02T00:40:23Z</time>
      </trkpt>
      <trkpt lat="53.862850740551949" lon="9.473219756036997">
        <ele>0</ele>
        <time>2010-01-02T00:40:33Z</time>
      </trkpt>
      <trkpt lat="53.863193225115538" lon="9.472484914585948">
        <ele>0</ele>
        <time>2010-01-02T00:40:55Z</time>
      </trkpt>
      <trkpt lat="53.864083047956228" lon="9.470566045492887">
        <ele>0</ele>
        <time>2010-01-02T00:41:53Z</time>
      </trkpt>
      <trkpt lat="53.864430980756879" lon="9.469816032797098">
        <ele>0</ele>
        <time>2010-01-02T00:42:15Z</time>
      </trkpt>
      <trkpt lat="53.864657124504447" lon="9.469361649826169">
        <ele>0</ele>
        <time>2010-01-02T00:42:29Z</time>
      </trkpt>
      <trkpt lat="53.864979157224298" lon="9.468887317925692">
        <ele>0</ele>
        <time>2010-01-02T00:42:46Z</time>
      </trkpt>
      <trkpt lat="53.864842113107443" lon="9.468549862504005">
        <ele>0</ele>
        <time>2010-01-02T00:42:56Z</time>
      </trkpt>
      <trkpt lat="53.864644300192595" lon="9.467900097370148">
        <ele>0</ele>
        <time>2010-01-02T00:43:13Z</time>
      </trkpt>
      <trkpt lat="53.860462149605155" lon="9.45334299467504">
        <ele>0</ele>
        <time>2010-01-02T00:49:36Z</time>
      </trkpt>
      <trkpt lat="53.860421413555741" lon="9.453199664130807">
        <ele>0</ele>
        <time>2010-01-02T00:49:39Z</time>
      </trkpt>
      <trkpt lat="53.86016920208931" lon="9.452418722212315">
        <ele>0</ele>
        <time>2010-01-02T00:50:00Z</time>
      </trkpt>
      <trkpt lat="53.859831830486655" lon="9.451573072001338">
        <ele>0</ele>
        <time>2010-01-02T00:50:25Z</time>
      </trkpt>
      <trkpt lat="53.858855506405234" lon="9.449111055582762">
        <ele>0</ele>
        <time>2010-01-02T00:51:35Z</time>
      </trkpt>
      <trkpt lat="53.858593488112092" lon="9.44852314889431">
        <ele>0</ele>
        <time>2010-01-02T00:51:52Z</time>
      </trkpt>
      <trkpt lat="53.858552668243647" lon="9.448446119204164">
        <ele>0</ele>
        <time>2010-01-02T00:51:54Z</time>
      </trkpt>
      <trkpt lat="53.857888067141175" lon="9.44736510515213">
        <ele>0</ele>
        <time>2010-01-02T00:52:31Z</time>
      </trkpt>
      <trkpt lat="53.85781841352582" lon="9.447256475687027">
        <ele>0</ele>
        <time>2010-01-02T00:52:35Z</time>
      </trkpt>
      <trkpt lat="53.856829600408673" lon="9.445733735337853">
        <ele>0</ele>
        <time>2010-01-02T00:53:29Z</time>
      </trkpt>
      <trkpt lat="53.856015549972653" lon="9.444734193384647">
        <ele>0</ele>
        <time>2010-01-02T00:54:09Z</time>
      </trkpt>
      <trkpt lat="53.855753028765321" lon="9.444546019658446">
        <ele>0</ele>
        <time>2010-01-02T00:54:20Z</time>
      </trkpt>
      <trkpt lat="53.855850510299206" lon="9.443939169868827">
        <ele>0</ele>
        <time>2010-01-02T00:54:35Z</time>
      </trkpt>
      <trkpt lat="53.855861909687519" lon="9.443535078316927">
        <ele>0</ele>
        <time>2010-01-02T00:54:45Z</time>
      </trkpt>
      <trkpt lat="53.855839362367988" lon="9.443087233230472">
        <ele>0</ele>
        <time>2010-01-02T00:54:55Z</time>
      </trkpt>
      <trkpt lat="53.855799967423081" lon="9.442304950207472">
        <ele>0</ele>
        <time>2010-01-02T00:55:14Z</time>
      </trkpt>
      <trkpt lat="53.85581161826849" lon="9.442057348787785">
        <ele>0</ele>
        <time>2010-01-02T00:55:20Z</time>
      </trkpt>
      <trkpt lat="53.856193833053112" lon="9.440875668078661">
        <ele>0</ele>
        <time>2010-01-02T00:55:51Z</time>
      </trkpt>
      <trkpt lat="53.856472196057439" lon="9.439937314018607">
        <ele>0</ele>
        <time>2010-01-02T00:56:16Z</time>
      </trkpt>
      <trkpt lat="53.856544028967619" lon="9.439469520002604">
        <ele>0</ele>
        <time>2010-01-02T00:56:28Z</time>
      </trkpt>
      <trkpt lat="53.856542184948921" lon="9.439259301871061">
        <ele>0</ele>
        <time>2010-01-02T00:56:33Z</time>
      </trkpt>
      <trkpt lat="53.857089607045054" lon="9.437484182417393">
        <ele>0</ele>
        <time>2010-01-02T00:57:20Z</time>
      </trkpt>
      <trkpt lat="53.857373669743538" lon="9.436470810323954">
        <ele>0</ele>
        <time>2010-01-02T00:57:46Z</time>
      </trkpt>
      <trkpt lat="53.857806259766221" lon="9.434836255386472">
        <ele>0</ele>
        <time>2010-01-02T00:58:29Z</time>
      </trkpt>
      <trkpt lat="53.857756722718477" lon="9.434717483818531">
        <ele>0</ele>
        <time>2010-01-02T00:58:32Z</time>
      </trkpt>
      <trkpt lat="53.857680363580585" lon="9.434536015614867">
        <ele>0</ele>
        <time>2010-01-02T00:58:37Z</time>
      </trkpt>
      <trkpt lat="53.857554299756885" lon="9.434361336752772">
        <ele>0</ele>
        <time>2010-01-02T00:58:44Z</time>
      </trkpt>
      <trkpt lat="53.85775244794786" lon="9.433721294626594">
        <ele>0</ele>
        <time>2010-01-02T00:59:01Z</time>
      </trkpt>
      <trkpt lat="53.857814557850361" lon="9.433611994609237">
        <ele>0</ele>
        <time>2010-01-02T00:59:05Z</time>
      </trkpt>
      <trkpt lat="53.85787608101964" lon="9.433573605492711">
        <ele>0</ele>
        <time>2010-01-02T00:59:07Z</time>
      </trkpt>
      <trkpt lat="53.857931569218636" lon="9.433567821979523">
        <ele>0</ele>
        <time>2010-01-02T00:59:09Z</time>
      </trkpt>
      <trkpt lat="53.857986303046346" lon="9.433575617149472">
        <ele>0</ele>
        <time>2010-01-02T00:59:12Z</time>
      </trkpt>
      <trkpt lat="53.858057968318462" lon="9.433603445068002">
        <ele>0</ele>
        <time>2010-01-02T00:59:15Z</time>
      </trkpt>
      <trkpt lat="53.858104487881064" lon="9.433628674596548">
        <ele>0</ele>
        <time>2010-01-02T00:59:17Z</time>
      </trkpt>
      <trkpt lat="53.858148911967874" lon="9.43362289108336">
        <ele>0</ele>
        <time>2010-01-02T00:59:18Z</time>
      </trkpt>
      <trkpt lat="53.858186630532146" lon="9.4336155988276">
        <ele>0</ele>
        <time>2010-01-02T00:59:20Z</time>
      </trkpt>
      <trkpt lat="53.858215296640992" lon="9.433592883870006">
        <ele>0</ele>
        <time>2010-01-02T00:59:21Z</time>
      </trkpt>
      <trkpt lat="53.858273299410939" lon="9.433504119515419">
        <ele>0</ele>
        <time>2010-01-02T00:59:24Z</time>
      </trkpt>
      <trkpt lat="53.858384191989899" lon="9.433269007131457">
        <ele>0</ele>
        <time>2010-01-02T00:59:31Z</time>
      </trkpt>
      <trkpt lat="53.858449151739478" lon="9.433183930814266">
        <ele>0</ele>
        <time>2010-01-02T00:59:35Z</time>
      </trkpt>
      <trkpt lat="53.858476728200912" lon="9.433147888630629">
        <ele>0</ele>
        <time>2010-01-02T00:59:36Z</time>
      </trkpt>
      <trkpt lat="53.85858410038054" lon="9.433005396276712">
        <ele>0</ele>
        <time>2010-01-02T00:59:41Z</time>
      </trkpt>
      <trkpt lat="53.858755510300398" lon="9.432740109041333">
        <ele>0</ele>
        <time>2010-01-02T00:59:51Z</time>
      </trkpt>
      <trkpt lat="53.85890613310039" lon="9.432495273649693">
        <ele>0</ele>
        <time>2010-01-02T00:59:59Z</time>
      </trkpt>
      <trkpt lat="53.859056923538446" lon="9.432227723300457">
        <ele>0</ele>
        <time>2010-01-02T01:00:08Z</time>
      </trkpt>
      <trkpt lat="53.859194135293365" lon="9.431981211528182">
        <ele>0</ele>
        <time>2010-01-02T01:00:16Z</time>
      </trkpt>
      <trkpt lat="53.859377196058631" lon="9.431692538782954">
        <ele>0</ele>
        <time>2010-01-02T01:00:26Z</time>
      </trkpt>
      <trkpt lat="53.859495967626572" lon="9.431528672575951">
        <ele>0</ele>
        <time>2010-01-02T01:00:32Z</time>
      </trkpt>
      <trkpt lat="53.859831243753433" lon="9.431253997609019">
        <ele>0</ele>
        <time>2010-01-02T01:00:47Z</time>
      </trkpt>
      <trkpt lat="53.86082055978477" lon="9.430476743727922">
        <ele>0</ele>
        <time>2010-01-02T01:01:31Z</time>
      </trkpt>
      <trkpt lat="53.860845705494285" lon="9.430457381531596">
        <ele>0</ele>
        <time>2010-01-02T01:01:32Z</time>
      </trkpt>
      <trkpt lat="53.861793614923954" lon="9.429699573665857">
        <ele>0</ele>
        <time>2010-01-02T01:02:14Z</time>
      </trkpt>
      <trkpt lat="53.862788546830416" lon="9.428987028077245">
        <ele>0</ele>
        <time>2010-01-02T01:02:57Z</time>
      </trkpt>
      <trkpt lat="53.863593293353915" lon="9.428445808589458">
        <ele>0</ele>
        <time>2010-01-02T01:03:31Z</time>
      </trkpt>
      <trkpt lat="53.86391750536859" lon="9.428230226039886">
        <ele>0</ele>
        <time>2010-01-02T01:03:45Z</time>
      </trkpt>
      <trkpt lat="53.86411976069212" lon="9.428319660946727">
        <ele>0</ele>
        <time>2010-01-02T01:03:54Z</time>
      </trkpt>
      <trkpt lat="53.864205172285438" lon="9.428426194936037">
        <ele>0</ele>
        <time>2010-01-02T01:03:58Z</time>
      </trkpt>
      <trkpt lat="53.864439865574241" lon="9.42811849527061">
        <ele>0</ele>
        <time>2010-01-02T01:04:10Z</time>
      </trkpt>
      <trkpt lat="53.864690316841006" lon="9.428175827488303">
        <ele>0</ele>
        <time>2010-01-02T01:04:20Z</time>
      </trkpt>
      <trkpt lat="53.86488938704133" lon="9.428300969302654">
        <ele>0</ele>
        <time>2010-01-02T01:04:29Z</time>
      </trkpt>
      <trkpt lat="53.864942444488406" lon="9.428286300972104">
        <ele>0</ele>
        <time>2010-01-02T01:04:31Z</time>
      </trkpt>
      <trkpt lat="53.865173449739814" lon="9.428008943796158">
        <ele>0</ele>
        <time>2010-01-02T01:04:42Z</time>
      </trkpt>
      <trkpt lat="53.865849282592535" lon="9.427685989066958">
        <ele>0</ele>
        <time>2010-01-02T01:05:10Z</time>
      </trkpt>
      <trkpt lat="53.865963444113731" lon="9.427425730973482">
        <ele>0</ele>
        <time>2010-01-02T01:05:18Z</time>
      </trkpt>
      <trkpt lat="53.866372816264629" lon="9.427543999627233">
        <ele>0</ele>
        <time>2010-01-02T01:05:34Z</time>
      </trkpt>
      <trkpt lat="53.86659812182188" lon="9.427526229992509">
        <ele>0</ele>
        <time>2010-01-02T01:05:43Z</time>
      </trkpt>
      <trkpt lat="53.866764418780804" lon="9.427427658811212">
        <ele>0</ele>
        <time>2010-01-02T01:05:50Z</time>
      </trkpt>
      <trkpt lat="53.866983018815517" lon="9.427610384300351">
        <ele>0</ele>
        <time>2010-01-02T01:06:00Z</time>
      </trkpt>
      <trkpt lat="53.867199858650565" lon="9.427559254691005">
        <ele>0</ele>
        <time>2010-01-02T01:06:09Z</time>
      </trkpt>
      <trkpt lat="53.867525076493621" lon="9.426853749901056">
        <ele>0</ele>
        <time>2010-01-02T01:06:30Z</time>
      </trkpt>
      <trkpt lat="53.868756797164679" lon="9.42716714926064">
        <ele>0</ele>
        <time>2010-01-02T01:07:20Z</time>
      </trkpt>
      <trkpt lat="53.869058378040791" lon="9.427360771223903">
        <ele>0</ele>
        <time>2010-01-02T01:07:33Z</time>
      </trkpt>
      <trkpt lat="53.869441598653793" lon="9.427946330979466">
        <ele>0</ele>
        <time>2010-01-02T01:07:54Z</time>
      </trkpt>
      <trkpt lat="53.869630275294185" lon="9.428219078108668">
        <ele>0</ele>
        <time>2010-01-02T01:08:03Z</time>
      </trkpt>
      <trkpt lat="53.869861364364624" lon="9.428324438631535">
        <ele>0</ele>
        <time>2010-01-02T01:08:13Z</time>
      </trkpt>
      <trkpt lat="53.870231173932552" lon="9.428159482777119">
        <ele>0</ele>
        <time>2010-01-02T01:08:28Z</time>
      </trkpt>
      <trkpt lat="53.870534766465425" lon="9.428186975419521">
        <ele>0</ele>
        <time>2010-01-02T01:08:41Z</time>
      </trkpt>
      <trkpt lat="53.87094983831048" lon="9.428451173007488">
        <ele>0</ele>
        <time>2010-01-02T01:08:58Z</time>
      </trkpt>
      <trkpt lat="53.871350828558207" lon="9.428862724453211">
        <ele>0</ele>
        <time>2010-01-02T01:09:17Z</time>
      </trkpt>
      <trkpt lat="53.87165199033916" lon="9.429575772956014">
        <ele>0</ele>
        <time>2010-01-02T01:09:38Z</time>
      </trkpt>
      <trkpt lat="53.871883247047663" lon="9.430475067347288">
        <ele>0</ele>
        <time>2010-01-02T01:10:01Z</time>
      </trkpt>
      <trkpt lat="53.872048538178205" lon="9.430736750364304">
        <ele>0</ele>
        <time>2010-01-02T01:10:10Z</time>
      </trkpt>
      <trkpt lat="53.872367218136787" lon="9.431073032319546">
        <ele>0</ele>
        <time>2010-01-02T01:10:25Z</time>
      </trkpt>
      <trkpt lat="53.872500071302056" lon="9.431107817217708">
        <ele>0</ele>
        <time>2010-01-02T01:10:30Z</time>
      </trkpt>
      <trkpt lat="53.874355824664235" lon="9.429965363815427">
        <ele>0</ele>
        <time>2010-01-02T01:11:49Z</time>
      </trkpt>
      <trkpt lat="53.874964350834489" lon="9.429655401036143">
        <ele>0</ele>
        <time>2010-01-02T01:12:15Z</time>
      </trkpt>
      <trkpt lat="53.875022772699594" lon="9.429637715220451">
        <ele>0</ele>
        <time>2010-01-02T01:12:17Z</time>
      </trkpt>
      <trkpt lat="53.875547479838133" lon="9.428763063624501">
        <ele>0</ele>
        <time>2010-01-02T01:12:47Z</time>
      </trkpt>
      <trkpt lat="53.875952996313572" lon="9.427377535030246">
        <ele>0</ele>
        <time>2010-01-02T01:13:23Z</time>
      </trkpt>
      <trkpt lat="53.87633646838367" lon="9.426568010821939">
        <ele>0</ele>
        <time>2010-01-02T01:13:48Z</time>
      </trkpt>
      <trkpt lat="53.876740392297506" lon="9.425623035058379">
        <ele>0</ele>
        <time>2010-01-02T01:14:15Z</time>
      </trkpt>
      <trkpt lat="53.877343637868762" lon="9.42495122551918">
        <ele>0</ele>
        <time>2010-01-02T01:14:44Z</time>
      </trkpt>
      <trkpt lat="53.878000946715474" lon="9.424668839201331">
        <ele>0</ele>
        <time>2010-01-02T01:15:11Z</time>
      </trkpt>
      <trkpt lat="53.877979321405292" lon="9.423671141266823">
        <ele>0</ele>
        <time>2010-01-02T01:15:35Z</time>
      </trkpt>
      <trkpt lat="53.878015615046024" lon="9.423045013099909">
        <ele>0</ele>
        <time>2010-01-02T01:15:50Z</time>
      </trkpt>
      <trkpt lat="53.878093147650361" lon="9.422672186046839">
        <ele>0</ele>
        <time>2010-01-02T01:15:59Z</time>
      </trkpt>
      <trkpt lat="53.878309400752187" lon="9.422044465318322">
        <ele>0</ele>
        <time>2010-01-02T01:16:16Z</time>
      </trkpt>
      <trkpt lat="53.878380479291081" lon="9.421506933867931">
        <ele>0</ele>
        <time>2010-01-02T01:16:29Z</time>
      </trkpt>
      <trkpt lat="53.878312669694424" lon="9.420856917276978">
        <ele>0</ele>
        <time>2010-01-02T01:16:45Z</time>
      </trkpt>
      <trkpt lat="53.878038330003619" lon="9.419908421114087">
        <ele>0</ele>
        <time>2010-01-02T01:17:10Z</time>
      </trkpt>
      <trkpt lat="53.877439694479108" lon="9.416893366724253">
        <ele>0</ele>
        <time>2010-01-02T01:18:25Z</time>
      </trkpt>
      <trkpt lat="53.877372890710831" lon="9.416742157191038">
        <ele>0</ele>
        <time>2010-01-02T01:18:29Z</time>
      </trkpt>
      <trkpt lat="53.87718471698463" lon="9.416499249637127">
        <ele>0</ele>
        <time>2010-01-02T01:18:39Z</time>
      </trkpt>
      <trkpt lat="53.877107352018356" lon="9.416103959083557">
        <ele>0</ele>
        <time>2010-01-02T01:18:48Z</time>
      </trkpt>
      <trkpt lat="53.877143645659089" lon="9.415753092616796">
        <ele>0</ele>
        <time>2010-01-02T01:18:57Z</time>
      </trkpt>
      <trkpt lat="53.877372806891799" lon="9.415088156238198">
        <ele>0</ele>
        <time>2010-01-02T01:19:15Z</time>
      </trkpt>
      <trkpt lat="53.877549413591623" lon="9.414797639474273">
        <ele>0</ele>
        <time>2010-01-02T01:19:25Z</time>
      </trkpt>
      <trkpt lat="53.877884522080421" lon="9.414534866809845">
        <ele>0</ele>
        <time>2010-01-02T01:19:40Z</time>
      </trkpt>
      <trkpt lat="53.878664458170533" lon="9.414261281490326">
        <ele>0</ele>
        <time>2010-01-02T01:20:12Z</time>
      </trkpt>
      <trkpt lat="53.878887752071023" lon="9.414116023108363">
        <ele>0</ele>
        <time>2010-01-02T01:20:21Z</time>
      </trkpt>
      <trkpt lat="53.879299471154809" lon="9.413506994023919">
        <ele>0</ele>
        <time>2010-01-02T01:20:43Z</time>
      </trkpt>
      <trkpt lat="53.879418075084686" lon="9.413268193602562">
        <ele>0</ele>
        <time>2010-01-02T01:20:50Z</time>
      </trkpt>
      <trkpt lat="53.880274789407849" lon="9.41313374787569">
        <ele>0</ele>
        <time>2010-01-02T01:21:25Z</time>
      </trkpt>
      <trkpt lat="53.880768734961748" lon="9.413210107013583">
        <ele>0</ele>
        <time>2010-01-02T01:21:45Z</time>
      </trkpt>
      <trkpt lat="53.881248515099287" lon="9.413188984617591">
        <ele>0</ele>
        <time>2010-01-02T01:22:04Z</time>
      </trkpt>
      <trkpt lat="53.881858298555017" lon="9.413015563040972">
        <ele>0</ele>
        <time>2010-01-02T01:22:29Z</time>
      </trkpt>
      <trkpt lat="53.882288709282875" lon="9.412990920245647">
        <ele>0</ele>
        <time>2010-01-02T01:22:46Z</time>
      </trkpt>
      <trkpt lat="53.882855158299208" lon="9.413151601329446">
        <ele>0</ele>
        <time>2010-01-02T01:23:09Z</time>
      </trkpt>
      <trkpt lat="53.883291268721223" lon="9.413306498900056">
        <ele>0</ele>
        <time>2010-01-02T01:23:27Z</time>
      </trkpt>
      <trkpt lat="53.883863585069776" lon="9.413563068956137">
        <ele>0</ele>
        <time>2010-01-02T01:23:50Z</time>
      </trkpt>
      <trkpt lat="53.884217217564583" lon="9.413923909887671">
        <ele>0</ele>
        <time>2010-01-02T01:24:07Z</time>
      </trkpt>
      <trkpt lat="53.88457571156323" lon="9.414430847391486">
        <ele>0</ele>
        <time>2010-01-02T01:24:26Z</time>
      </trkpt>
      <trkpt lat="53.884843429550529" lon="9.414710300043225">
        <ele>0</ele>
        <time>2010-01-02T01:24:38Z</time>
      </trkpt>
      <trkpt lat="53.885229835286736" lon="9.414948346093297">
        <ele>0</ele>
        <time>2010-01-02T01:24:55Z</time>
      </trkpt>
      <trkpt lat="53.88574892655015" lon="9.415268283337355">
        <ele>0</ele>
        <time>2010-01-02T01:25:17Z</time>
      </trkpt>
      <trkpt lat="53.885940788313746" lon="9.415387306362391">
        <ele>0</ele>
        <time>2010-01-02T01:25:25Z</time>
      </trkpt>
      <trkpt lat="53.887456990778446" lon="9.416273776441813">
        <ele>0</ele>
        <time>2010-01-02T01:26:29Z</time>
      </trkpt>
      <trkpt lat="53.887668382376432" lon="9.416450802236795">
        <ele>0</ele>
        <time>2010-01-02T01:26:39Z</time>
      </trkpt>
      <trkpt lat="53.887740718200803" lon="9.416579296812415">
        <ele>0</ele>
        <time>2010-01-02T01:26:43Z</time>
      </trkpt>
      <trkpt lat="53.887833673506975" lon="9.416889678686857">
        <ele>0</ele>
        <time>2010-01-02T01:26:51Z</time>
      </trkpt>
      <trkpt lat="53.888137517496943" lon="9.418395822867751">
        <ele>0</ele>
        <time>2010-01-02T01:27:28Z</time>
      </trkpt>
      <trkpt lat="53.888334073126316" lon="9.419053634628654">
        <ele>0</ele>
        <time>2010-01-02T01:27:46Z</time>
      </trkpt>
      <trkpt lat="53.888683095574379" lon="9.420220563188195">
        <ele>0</ele>
        <time>2010-01-02T01:28:17Z</time>
      </trkpt>
      <trkpt lat="53.888893313705921" lon="9.421241730451584">
        <ele>0</ele>
        <time>2010-01-02T01:28:42Z</time>
      </trkpt>
      <trkpt lat="53.888972857967019" lon="9.421873725950718">
        <ele>0</ele>
        <time>2010-01-02T01:28:58Z</time>
      </trkpt>
      <trkpt lat="53.889079308137298" lon="9.423292279243469">
        <ele>0</ele>
        <time>2010-01-02T01:29:31Z</time>
      </trkpt>
      <trkpt lat="53.889153655618429" lon="9.424375891685486">
        <ele>0</ele>
        <time>2010-01-02T01:29:57Z</time>
      </trkpt>
      <trkpt lat="53.88924065977335" lon="9.425938781350851">
        <ele>0</ele>
        <time>2010-01-02T01:30:34Z</time>
      </trkpt>
      <trkpt lat="53.88926605693996" lon="9.429379384964705">
        <ele>0</ele>
        <time>2010-01-02T01:31:55Z</time>
      </trkpt>
      <trkpt lat="53.889297489076853" lon="9.429650455713272">
        <ele>0</ele>
        <time>2010-01-02T01:32:02Z</time>
      </trkpt>
      <trkpt lat="53.889388181269169" lon="9.429899314418435">
        <ele>0</ele>
        <time>2010-01-02T01:32:09Z</time>
      </trkpt>
      <trkpt lat="53.88956998474896" lon="9.43005932494998">
        <ele>0</ele>
        <time>2010-01-02T01:32:17Z</time>
      </trkpt>
      <trkpt lat="53.889843821525574" lon="9.43013065494597">
        <ele>0</ele>
        <time>2010-01-02T01:32:28Z</time>
      </trkpt>
      <trkpt lat="53.890506830066442" lon="9.43014046177268">
        <ele>0</ele>
        <time>2010-01-02T01:32:54Z</time>
      </trkpt>
      <trkpt lat="53.891456415876746" lon="9.43040725775063">
        <ele>0</ele>
        <time>2010-01-02T01:33:33Z</time>
      </trkpt>
      <trkpt lat="53.891772581264377" lon="9.430439444258809">
        <ele>0</ele>
        <time>2010-01-02T01:33:46Z</time>
      </trkpt>
      <trkpt lat="53.893054174259305" lon="9.430318744853139">
        <ele>0</ele>
        <time>2010-01-02T01:34:37Z</time>
      </trkpt>
      <trkpt lat="53.893584245815873" lon="9.430088493973017">
        <ele>0</ele>
        <time>2010-01-02T01:34:59Z</time>
      </trkpt>
      <trkpt lat="53.894560569897294" lon="9.429420121014118">
        <ele>0</ele>
        <time>2010-01-02T01:35:41Z</time>
      </trkpt>
      <trkpt lat="53.89583763666451" lon="9.428549408912659">
        <ele>0</ele>
        <time>2010-01-02T01:36:36Z</time>
      </trkpt>
      <trkpt lat="53.896126812323928" lon="9.428348494693637">
        <ele>0</ele>
        <time>2010-01-02T01:36:49Z</time>
      </trkpt>
      <trkpt lat="53.896155562251806" lon="9.42833055742085">
        <ele>0</ele>
        <time>2010-01-02T01:36:50Z</time>
      </trkpt>
      <trkpt lat="53.896628469228745" lon="9.427993101999164">
        <ele>0</ele>
        <time>2010-01-02T01:37:10Z</time>
      </trkpt>
      <trkpt lat="53.897508066147566" lon="9.427257673814893">
        <ele>0</ele>
        <time>2010-01-02T01:37:50Z</time>
      </trkpt>
      <trkpt lat="53.897792967036366" lon="9.426966067403555">
        <ele>0</ele>
        <time>2010-01-02T01:38:03Z</time>
      </trkpt>
      <trkpt lat="53.899836055934429" lon="9.425203939899802">
        <ele>0</ele>
        <time>2010-01-02T01:39:35Z</time>
      </trkpt>
      <trkpt lat="53.901262572035193" lon="9.424244714900851">
        <ele>0</ele>
        <time>2010-01-02T01:40:36Z</time>
      </trkpt>
      <trkpt lat="53.902568724006414" lon="9.423550525680184">
        <ele>0</ele>
        <time>2010-01-02T01:41:31Z</time>
      </trkpt>
      <trkpt lat="53.902992848306894" lon="9.423273419961333">
        <ele>0</ele>
        <time>2010-01-02T01:41:49Z</time>
      </trkpt>
      <trkpt lat="53.903201054781675" lon="9.423077702522278">
        <ele>0</ele>
        <time>2010-01-02T01:41:59Z</time>
      </trkpt>
      <trkpt lat="53.90345293097198" lon="9.422750053927302">
        <ele>0</ele>
        <time>2010-01-02T01:42:11Z</time>
      </trkpt>
      <trkpt lat="53.903565248474479" lon="9.422483425587416">
        <ele>0</ele>
        <time>2010-01-02T01:42:19Z</time>
      </trkpt>
      <trkpt lat="53.903653593733907" lon="9.422145048156381">
        <ele>0</ele>
        <time>2010-01-02T01:42:28Z</time>
      </trkpt>
      <trkpt lat="53.903681086376309" lon="9.421729976311326">
        <ele>0</ele>
        <time>2010-01-02T01:42:38Z</time>
      </trkpt>
      <trkpt lat="53.903651749715209" lon="9.421393442898989">
        <ele>0</ele>
        <time>2010-01-02T01:42:46Z</time>
      </trkpt>
      <trkpt lat="53.903549993410707" lon="9.420943586155772">
        <ele>0</ele>
        <time>2010-01-02T01:42:57Z</time>
      </trkpt>
      <trkpt lat="53.903361484408379" lon="9.42056480795145">
        <ele>0</ele>
        <time>2010-01-02T01:43:09Z</time>
      </trkpt>
      <trkpt lat="53.902234453707933" lon="9.419475914910436">
        <ele>0</ele>
        <time>2010-01-02T01:44:01Z</time>
      </trkpt>
      <trkpt lat="53.901940081268549" lon="9.41911842674017">
        <ele>0</ele>
        <time>2010-01-02T01:44:15Z</time>
      </trkpt>
      <trkpt lat="53.901629699394107" lon="9.418474864214659">
        <ele>0</ele>
        <time>2010-01-02T01:44:35Z</time>
      </trkpt>
      <trkpt lat="53.901493493467569" lon="9.41809818148613">
        <ele>0</ele>
        <time>2010-01-02T01:44:45Z</time>
      </trkpt>
      <trkpt lat="53.90138897113502" lon="9.417666094377637">
        <ele>0</ele>
        <time>2010-01-02T01:44:56Z</time>
      </trkpt>
      <trkpt lat="53.901358461007476" lon="9.417047509923577">
        <ele>0</ele>
        <time>2010-01-02T01:45:11Z</time>
      </trkpt>
      <trkpt lat="53.901388300582767" lon="9.416576782241464">
        <ele>0</ele>
        <time>2010-01-02T01:45:22Z</time>
      </trkpt>
      <trkpt lat="53.901617377996445" lon="9.414762519299984">
        <ele>0</ele>
        <time>2010-01-02T01:46:06Z</time>
      </trkpt>
      <trkpt lat="53.901619641110301" lon="9.414383741095662">
        <ele>0</ele>
        <time>2010-01-02T01:46:15Z</time>
      </trkpt>
      <trkpt lat="53.901540851220489" lon="9.413001565262675">
        <ele>0</ele>
        <time>2010-01-02T01:46:47Z</time>
      </trkpt>
      <trkpt lat="53.90152039937675" lon="9.412404941394925">
        <ele>0</ele>
        <time>2010-01-02T01:47:02Z</time>
      </trkpt>
      <trkpt lat="53.901648810133338" lon="9.410083070397377">
        <ele>0</ele>
        <time>2010-01-02T01:47:57Z</time>
      </trkpt>
      <trkpt lat="53.901766743510962" lon="9.409220069646835">
        <ele>0</ele>
        <time>2010-01-02T01:48:17Z</time>
      </trkpt>
      <trkpt lat="53.901930442079902" lon="9.408371234312654">
        <ele>0</ele>
        <time>2010-01-02T01:48:39Z</time>
      </trkpt>
      <trkpt lat="53.902203608304262" lon="9.407030465081334">
        <ele>0</ele>
        <time>2010-01-02T01:49:12Z</time>
      </trkpt>
      <trkpt lat="53.902279464527965" lon="9.40667062997818">
        <ele>0</ele>
        <time>2010-01-02T01:49:21Z</time>
      </trkpt>
      <trkpt lat="53.902525221928954" lon="9.405183596536517">
        <ele>0</ele>
        <time>2010-01-02T01:49:57Z</time>
      </trkpt>
      <trkpt lat="53.902616919949651" lon="9.404916716739535">
        <ele>0</ele>
        <time>2010-01-02T01:50:05Z</time>
      </trkpt>
      <trkpt lat="53.902792269363999" lon="9.404871286824346">
        <ele>0</ele>
        <time>2010-01-02T01:50:12Z</time>
      </trkpt>
      <trkpt lat="53.902922356501222" lon="9.404870951548219">
        <ele>0</ele>
        <time>2010-01-02T01:50:17Z</time>
      </trkpt>
      <trkpt lat="53.903030315414071" lon="9.404885703697801">
        <ele>0</ele>
        <time>2010-01-02T01:50:21Z</time>
      </trkpt>
      <trkpt lat="53.903841683641076" lon="9.405123330652714">
        <ele>0</ele>
        <time>2010-01-02T01:50:54Z</time>
      </trkpt>
      <trkpt lat="53.904118621721864" lon="9.405054515227675">
        <ele>0</ele>
        <time>2010-01-02T01:51:06Z</time>
      </trkpt>
      <trkpt lat="53.90436178073287" lon="9.404894085600972">
        <ele>0</ele>
        <time>2010-01-02T01:51:16Z</time>
      </trkpt>
      <trkpt lat="53.904503434896469" lon="9.404720412567258">
        <ele>0</ele>
        <time>2010-01-02T01:51:23Z</time>
      </trkpt>
      <trkpt lat="53.904782719910145" lon="9.403944164514542">
        <ele>0</ele>
        <time>2010-01-02T01:51:44Z</time>
      </trkpt>
      <trkpt lat="53.904897468164563" lon="9.403762696310878">
        <ele>0</ele>
        <time>2010-01-02T01:51:51Z</time>
      </trkpt>
      <trkpt lat="53.905015401542187" lon="9.403701424598694">
        <ele>0</ele>
        <time>2010-01-02T01:51:56Z</time>
      </trkpt>
      <trkpt lat="53.905421672388911" lon="9.403641493991017">
        <ele>0</ele>
        <time>2010-01-02T01:52:12Z</time>
      </trkpt>
      <trkpt lat="53.906069593504071" lon="9.403615761548281">
        <ele>0</ele>
        <time>2010-01-02T01:52:38Z</time>
      </trkpt>
      <trkpt lat="53.906416017562151" lon="9.403724055737257">
        <ele>0</ele>
        <time>2010-01-02T01:52:52Z</time>
      </trkpt>
      <trkpt lat="53.906889008358121" lon="9.404124291613698">
        <ele>0</ele>
        <time>2010-01-02T01:53:13Z</time>
      </trkpt>
      <trkpt lat="53.907241635024548" lon="9.404535507783294">
        <ele>0</ele>
        <time>2010-01-02T01:53:30Z</time>
      </trkpt>
      <trkpt lat="53.907703729346395" lon="9.405235312879086">
        <ele>0</ele>
        <time>2010-01-02T01:53:55Z</time>
      </trkpt>
      <trkpt lat="53.907876396551728" lon="9.40546371974051">
        <ele>0</ele>
        <time>2010-01-02T01:54:04Z</time>
      </trkpt>
      <trkpt lat="53.908298593014479" lon="9.40585607662797">
        <ele>0</ele>
        <time>2010-01-02T01:54:23Z</time>
      </trkpt>
      <trkpt lat="53.908968809992075" lon="9.40629294142127">
        <ele>0</ele>
        <time>2010-01-02T01:54:52Z</time>
      </trkpt>
      <trkpt lat="53.9090262260288" lon="9.406325463205576">
        <ele>0</ele>
        <time>2010-01-02T01:54:54Z</time>
      </trkpt>
      <trkpt lat="53.909621089696884" lon="9.406812116503716">
        <ele>0</ele>
        <time>2010-01-02T01:55:21Z</time>
      </trkpt>
      <trkpt lat="53.910199860110879" lon="9.407298602163792">
        <ele>0</ele>
        <time>2010-01-02T01:55:47Z</time>
      </trkpt>
      <trkpt lat="53.910656590014696" lon="9.407464312389493">
        <ele>0</ele>
        <time>2010-01-02T01:56:05Z</time>
      </trkpt>
      <trkpt lat="53.910939898341894" lon="9.407645110040903">
        <ele>0</ele>
        <time>2010-01-02T01:56:17Z</time>
      </trkpt>
      <trkpt lat="53.911129496991634" lon="9.407904194667935">
        <ele>0</ele>
        <time>2010-01-02T01:56:27Z</time>
      </trkpt>
      <trkpt lat="53.911129496991634" lon="9.407904194667935">
        <ele>0</ele>
        <time>2010-01-02T03:26:41Z</time>
      </trkpt>
      <trkpt lat="53.911218596622348" lon="9.407594567164779">
        <ele>0</ele>
        <time>2010-01-02T03:26:33Z</time>
      </trkpt>
      <trkpt lat="53.911341140046716" lon="9.407219896093011">
        <ele>0</ele>
        <time>2010-01-02T03:26:23Z</time>
      </trkpt>
      <trkpt lat="53.911474412307143" lon="9.40686509013176">
        <ele>0</ele>
        <time>2010-01-02T03:26:13Z</time>
      </trkpt>
      <trkpt lat="53.91163014806807" lon="9.406527299433947">
        <ele>0</ele>
        <time>2010-01-02T03:26:03Z</time>
      </trkpt>
      <trkpt lat="53.91166627407074" lon="9.406457645818591">
        <ele>0</ele>
        <time>2010-01-02T03:26:01Z</time>
      </trkpt>
      <trkpt lat="53.911927454173565" lon="9.406072329729795">
        <ele>0</ele>
        <time>2010-01-02T03:25:47Z</time>
      </trkpt>
      <trkpt lat="53.912380244582891" lon="9.405501270666718">
        <ele>0</ele>
        <time>2010-01-02T03:25:24Z</time>
      </trkpt>
      <trkpt lat="53.912688614800572" lon="9.40514512360096">
        <ele>0</ele>
        <time>2010-01-02T03:25:10Z</time>
      </trkpt>
      <trkpt lat="53.912893384695053" lon="9.40491889603436">
        <ele>0</ele>
        <time>2010-01-02T03:25:00Z</time>
      </trkpt>
      <trkpt lat="53.913108045235276" lon="9.404686633497477">
        <ele>0</ele>
        <time>2010-01-02T03:24:50Z</time>
      </trkpt>
      <trkpt lat="53.913283059373498" lon="9.404476750642061">
        <ele>0</ele>
        <time>2010-01-02T03:24:41Z</time>
      </trkpt>
      <trkpt lat="53.913566283881664" lon="9.404068468138576">
        <ele>0</ele>
        <time>2010-01-02T03:24:26Z</time>
      </trkpt>
      <trkpt lat="53.913814974948764" lon="9.403664711862803">
        <ele>0</ele>
        <time>2010-01-02T03:24:12Z</time>
      </trkpt>
      <trkpt lat="53.914053691551089" lon="9.403228098526597">
        <ele>0</ele>
        <time>2010-01-02T03:23:58Z</time>
      </trkpt>
      <trkpt lat="53.914184030145407" lon="9.402911933138967">
        <ele>0</ele>
        <time>2010-01-02T03:23:49Z</time>
      </trkpt>
      <trkpt lat="53.91436105594039" lon="9.402370965108275">
        <ele>0</ele>
        <time>2010-01-02T03:23:35Z</time>
      </trkpt>
      <trkpt lat="53.914491897448897" lon="9.401852795854211">
        <ele>0</ele>
        <time>2010-01-02T03:23:21Z</time>
      </trkpt>
      <trkpt lat="53.914591558277607" lon="9.401372093707323">
        <ele>0</ele>
        <time>2010-01-02T03:23:09Z</time>
      </trkpt>
      <trkpt lat="53.914664229378104" lon="9.400943778455257">
        <ele>0</ele>
        <time>2010-01-02T03:22:59Z</time>
      </trkpt>
      <trkpt lat="53.914900850504637" lon="9.399425564333797">
        <ele>0</ele>
        <time>2010-01-02T03:22:22Z</time>
      </trkpt>
      <trkpt lat="53.91493278555572" lon="9.399184919893742">
        <ele>0</ele>
        <time>2010-01-02T03:22:16Z</time>
      </trkpt>
      <trkpt lat="53.914955835789442" lon="9.39896690659225">
        <ele>0</ele>
        <time>2010-01-02T03:22:11Z</time>
      </trkpt>
      <trkpt lat="53.914979640394449" lon="9.398507997393608">
        <ele>0</ele>
        <time>2010-01-02T03:22:00Z</time>
      </trkpt>
      <trkpt lat="53.914999002590775" lon="9.398034000769258">
        <ele>0</ele>
        <time>2010-01-02T03:21:49Z</time>
      </trkpt>
      <trkpt lat="53.915028003975749" lon="9.397356826812029">
        <ele>0</ele>
        <time>2010-01-02T03:21:33Z</time>
      </trkpt>
      <trkpt lat="53.915024483576417" lon="9.397070668637753">
        <ele>0</ele>
        <time>2010-01-02T03:21:26Z</time>
      </trkpt>
      <trkpt lat="53.915012162178755" lon="9.396769590675831">
        <ele>0</ele>
        <time>2010-01-02T03:21:19Z</time>
      </trkpt>
      <trkpt lat="53.914964804425836" lon="9.396257288753986">
        <ele>0</ele>
        <time>2010-01-02T03:21:07Z</time>
      </trkpt>
      <trkpt lat="53.91491275280714" lon="9.395827800035477">
        <ele>0</ele>
        <time>2010-01-02T03:20:56Z</time>
      </trkpt>
      <trkpt lat="53.914847373962402" lon="9.395405603572726">
        <ele>0</ele>
        <time>2010-01-02T03:20:46Z</time>
      </trkpt>
      <trkpt lat="53.914732290431857" lon="9.394750893115997">
        <ele>0</ele>
        <time>2010-01-02T03:20:30Z</time>
      </trkpt>
      <trkpt lat="53.914704043418169" lon="9.394604545086622">
        <ele>0</ele>
        <time>2010-01-02T03:20:26Z</time>
      </trkpt>
      <trkpt lat="53.914645453915" lon="9.394357446581125">
        <ele>0</ele>
        <time>2010-01-02T03:20:20Z</time>
      </trkpt>
      <trkpt lat="53.914555180817842" lon="9.394064415246248">
        <ele>0</ele>
        <time>2010-01-02T03:20:12Z</time>
      </trkpt>
      <trkpt lat="53.914449401199818" lon="9.39380164258182">
        <ele>0</ele>
        <time>2010-01-02T03:20:05Z</time>
      </trkpt>
      <trkpt lat="53.914426518604159" lon="9.393752692267299">
        <ele>0</ele>
        <time>2010-01-02T03:20:03Z</time>
      </trkpt>
      <trkpt lat="53.91421596519649" lon="9.393307864665985">
        <ele>0</ele>
        <time>2010-01-02T03:19:50Z</time>
      </trkpt>
      <trkpt lat="53.913873396813869" lon="9.392563551664352">
        <ele>0</ele>
        <time>2010-01-02T03:19:27Z</time>
      </trkpt>
      <trkpt lat="53.913849340751767" lon="9.392484175041318">
        <ele>0</ele>
        <time>2010-01-02T03:19:25Z</time>
      </trkpt>
      <trkpt lat="53.913824446499348" lon="9.392404798418283">
        <ele>0</ele>
        <time>2010-01-02T03:19:23Z</time>
      </trkpt>
      <trkpt lat="53.913791002705693" lon="9.392192987725139">
        <ele>0</ele>
        <time>2010-01-02T03:19:18Z</time>
      </trkpt>
      <trkpt lat="53.913781614974141" lon="9.392063487321138">
        <ele>0</ele>
        <time>2010-01-02T03:19:15Z</time>
      </trkpt>
      <trkpt lat="53.913775831460953" lon="9.391902135685086">
        <ele>0</ele>
        <time>2010-01-02T03:19:11Z</time>
      </trkpt>
      <trkpt lat="53.913769964128733" lon="9.391777329146862">
        <ele>0</ele>
        <time>2010-01-02T03:19:08Z</time>
      </trkpt>
      <trkpt lat="53.913767449557781" lon="9.391716392710805">
        <ele>0</ele>
        <time>2010-01-02T03:19:07Z</time>
      </trkpt>
      <trkpt lat="53.913764264434576" lon="9.391577923670411">
        <ele>0</ele>
        <time>2010-01-02T03:19:03Z</time>
      </trkpt>
      <trkpt lat="53.913764851167798" lon="9.39141808077693">
        <ele>0</ele>
        <time>2010-01-02T03:19:00Z</time>
      </trkpt>
      <trkpt lat="53.913767952471972" lon="9.391279611736536">
        <ele>0</ele>
        <time>2010-01-02T03:18:56Z</time>
      </trkpt>
      <trkpt lat="53.913774825632572" lon="9.391100155189633">
        <ele>0</ele>
        <time>2010-01-02T03:18:52Z</time>
      </trkpt>
      <trkpt lat="53.9138079341501" lon="9.390863031148911">
        <ele>0</ele>
        <time>2010-01-02T03:18:46Z</time>
      </trkpt>
      <trkpt lat="53.913849843665957" lon="9.390683826059103">
        <ele>0</ele>
        <time>2010-01-02T03:18:42Z</time>
      </trkpt>
      <trkpt lat="53.913878090679646" lon="9.390573017299175">
        <ele>0</ele>
        <time>2010-01-02T03:18:39Z</time>
      </trkpt>
      <trkpt lat="53.913908936083317" lon="9.390480481088161">
        <ele>0</ele>
        <time>2010-01-02T03:18:37Z</time>
      </trkpt>
      <trkpt lat="53.913957048207521" lon="9.390321141108871">
        <ele>0</ele>
        <time>2010-01-02T03:18:32Z</time>
      </trkpt>
      <trkpt lat="53.91400683671236" lon="9.390208991244435">
        <ele>0</ele>
        <time>2010-01-02T03:18:29Z</time>
      </trkpt>
      <trkpt lat="53.914053859189153" lon="9.390119640156627">
        <ele>0</ele>
        <time>2010-01-02T03:18:26Z</time>
      </trkpt>
      <trkpt lat="53.914155950769782" lon="9.389951666817069">
        <ele>0</ele>
        <time>2010-01-02T03:18:21Z</time>
      </trkpt>
      <trkpt lat="53.91422719694674" lon="9.389862567186356">
        <ele>0</ele>
        <time>2010-01-02T03:18:17Z</time>
      </trkpt>
      <trkpt lat="53.914696332067251" lon="9.389270385727286">
        <ele>0</ele>
        <time>2010-01-02T03:17:54Z</time>
      </trkpt>
      <trkpt lat="53.915133867412806" lon="9.388715922832489">
        <ele>0</ele>
        <time>2010-01-02T03:17:32Z</time>
      </trkpt>
      <trkpt lat="53.915424300357699" lon="9.388373186811805">
        <ele>0</ele>
        <time>2010-01-02T03:17:18Z</time>
      </trkpt>
      <trkpt lat="53.915609288960695" lon="9.388103960081935">
        <ele>0</ele>
        <time>2010-01-02T03:17:08Z</time>
      </trkpt>
      <trkpt lat="53.915682462975383" lon="9.387988960370421">
        <ele>0</ele>
        <time>2010-01-02T03:17:04Z</time>
      </trkpt>
      <trkpt lat="53.915747590363026" lon="9.387848060578108">
        <ele>0</ele>
        <time>2010-01-02T03:17:00Z</time>
      </trkpt>
      <trkpt lat="53.915849011391401" lon="9.387610098347068">
        <ele>0</ele>
        <time>2010-01-02T03:16:53Z</time>
      </trkpt>
      <trkpt lat="53.91593785956502" lon="9.387361323460937">
        <ele>0</ele>
        <time>2010-01-02T03:16:46Z</time>
      </trkpt>
      <trkpt lat="53.915989911183715" lon="9.387112213298678">
        <ele>0</ele>
        <time>2010-01-02T03:16:40Z</time>
      </trkpt>
      <trkpt lat="53.916017571464181" lon="9.38689629547298">
        <ele>0</ele>
        <time>2010-01-02T03:16:34Z</time>
      </trkpt>
      <trkpt lat="53.916023941710591" lon="9.386595049872994">
        <ele>0</ele>
        <time>2010-01-02T03:16:27Z</time>
      </trkpt>
      <trkpt lat="53.9160131290555" lon="9.386321045458317">
        <ele>0</ele>
        <time>2010-01-02T03:16:21Z</time>
      </trkpt>
      <trkpt lat="53.915993180125952" lon="9.386081909760833">
        <ele>0</ele>
        <time>2010-01-02T03:16:15Z</time>
      </trkpt>
      <trkpt lat="53.91597306355834" lon="9.385931035503745">
        <ele>0</ele>
        <time>2010-01-02T03:16:11Z</time>
      </trkpt>
      <trkpt lat="53.91593936830759" lon="9.385778568685055">
        <ele>0</ele>
        <time>2010-01-02T03:16:08Z</time>
      </trkpt>
      <trkpt lat="53.915896788239479" lon="9.385613780468702">
        <ele>0</ele>
        <time>2010-01-02T03:16:03Z</time>
      </trkpt>
      <trkpt lat="53.915757983922958" lon="9.38518026843667">
        <ele>0</ele>
        <time>2010-01-02T03:15:52Z</time>
      </trkpt>
      <trkpt lat="53.915596883744001" lon="9.384729824960232">
        <ele>0</ele>
        <time>2010-01-02T03:15:39Z</time>
      </trkpt>
      <trkpt lat="53.915515830740333" lon="9.384505357593298">
        <ele>0</ele>
        <time>2010-01-02T03:15:33Z</time>
      </trkpt>
      <trkpt lat="53.915293207392097" lon="9.383880905807018">
        <ele>0</ele>
        <time>2010-01-02T03:15:16Z</time>
      </trkpt>
      <trkpt lat="53.915051221847534" lon="9.383140532299876">
        <ele>0</ele>
        <time>2010-01-02T03:14:56Z</time>
      </trkpt>
      <trkpt lat="53.914974024519324" lon="9.382837023586035">
        <ele>0</ele>
        <time>2010-01-02T03:14:48Z</time>
      </trkpt>
      <trkpt lat="53.914935132488608" lon="9.382631164044142">
        <ele>0</ele>
        <time>2010-01-02T03:14:43Z</time>
      </trkpt>
      <trkpt lat="53.914905376732349" lon="9.382369145750999">
        <ele>0</ele>
        <time>2010-01-02T03:14:37Z</time>
      </trkpt>
      <trkpt lat="53.914881991222501" lon="9.382091956213117">
        <ele>0</ele>
        <time>2010-01-02T03:14:30Z</time>
      </trkpt>
      <trkpt lat="53.914879392832518" lon="9.381795153021812">
        <ele>0</ele>
        <time>2010-01-02T03:14:23Z</time>
      </trkpt>
      <trkpt lat="53.914908478036523" lon="9.381404304876924">
        <ele>0</ele>
        <time>2010-01-02T03:14:14Z</time>
      </trkpt>
      <trkpt lat="53.914911076426506" lon="9.381385948508978">
        <ele>0</ele>
        <time>2010-01-02T03:14:13Z</time>
      </trkpt>
      <trkpt lat="53.91496455296874" lon="9.381006080657244">
        <ele>0</ele>
        <time>2010-01-02T03:14:04Z</time>
      </trkpt>
      <trkpt lat="53.915033955127001" lon="9.380646077916026">
        <ele>0</ele>
        <time>2010-01-02T03:13:55Z</time>
      </trkpt>
      <trkpt lat="53.915092209354043" lon="9.380427394062281">
        <ele>0</ele>
        <time>2010-01-02T03:13:50Z</time>
      </trkpt>
      <trkpt lat="53.915144763886929" lon="9.380277274176478">
        <ele>0</ele>
        <time>2010-01-02T03:13:45Z</time>
      </trkpt>
      <trkpt lat="53.915285831317306" lon="9.379998492076993">
        <ele>0</ele>
        <time>2010-01-02T03:13:37Z</time>
      </trkpt>
      <trkpt lat="53.915509963408113" lon="9.379581995308399">
        <ele>0</ele>
        <time>2010-01-02T03:13:24Z</time>
      </trkpt>
      <trkpt lat="53.915527984499931" lon="9.379547210410237">
        <ele>0</ele>
        <time>2010-01-02T03:13:22Z</time>
      </trkpt>
      <trkpt lat="53.915816238150001" lon="9.379036920145154">
        <ele>0</ele>
        <time>2010-01-02T03:13:06Z</time>
      </trkpt>
      <trkpt lat="53.915837947279215" lon="9.379000626504421">
        <ele>0</ele>
        <time>2010-01-02T03:13:05Z</time>
      </trkpt>
      <trkpt lat="53.916226280853152" lon="9.378354214131832">
        <ele>0</ele>
        <time>2010-01-02T03:12:43Z</time>
      </trkpt>
      <trkpt lat="53.916313955560327" lon="9.378186073154211">
        <ele>0</ele>
        <time>2010-01-02T03:12:37Z</time>
      </trkpt>
      <trkpt lat="53.916369276121259" lon="9.378025308251381">
        <ele>0</ele>
        <time>2010-01-02T03:12:33Z</time>
      </trkpt>
      <trkpt lat="53.916369276121259" lon="9.378025308251381">
        <ele>0</ele>
        <time>2010-01-02T03:12:33Z</time>
      </trkpt>
      <trkpt lat="53.916369276121259" lon="9.378025308251381">
        <ele>0</ele>
        <time>2010-01-02T03:12:33Z</time>
      </trkpt>
      <trkpt lat="53.916369276121259" lon="9.378025308251381">
        <ele>0</ele>
        <time>2010-01-02T03:12:33Z</time>
      </trkpt>
      <trkpt lat="53.916401378810406" lon="9.377649044618011">
        <ele>0</ele>
        <time>2010-01-02T03:12:24Z</time>
      </trkpt>
      <trkpt lat="53.916396098211408" lon="9.377462295815349">
        <ele>0</ele>
        <time>2010-01-02T03:12:20Z</time>
      </trkpt>
      <trkpt lat="53.91636298969388" lon="9.377172952517867">
        <ele>0</ele>
        <time>2010-01-02T03:12:13Z</time>
      </trkpt>
      <trkpt lat="53.916330970823765" lon="9.376979079097509">
        <ele>0</ele>
        <time>2010-01-02T03:12:08Z</time>
      </trkpt>
      <trkpt lat="53.916328120976686" lon="9.376962147653103">
        <ele>0</ele>
        <time>2010-01-02T03:06:29Z</time>
      </trkpt>
      <trkpt lat="53.916634395718575" lon="9.376968601718545">
        <ele>0</ele>
        <time>2010-01-02T03:06:42Z</time>
      </trkpt>
      <trkpt lat="53.916806224733591" lon="9.376967512071133">
        <ele>0</ele>
        <time>2010-01-02T03:06:49Z</time>
      </trkpt>
      <trkpt lat="53.917069165036082" lon="9.37593393959105">
        <ele>0</ele>
        <time>2010-01-02T03:07:15Z</time>
      </trkpt>
      <trkpt lat="53.917398154735565" lon="9.375400096178055">
        <ele>0</ele>
        <time>2010-01-02T03:07:33Z</time>
      </trkpt>
      <trkpt lat="53.917507957667112" lon="9.37519121915102">
        <ele>0</ele>
        <time>2010-01-02T03:07:40Z</time>
      </trkpt>
      <trkpt lat="53.917699903249741" lon="9.374864073470235">
        <ele>0</ele>
        <time>2010-01-02T03:07:51Z</time>
      </trkpt>
      <trkpt lat="53.917912887409329" lon="9.374573724344373">
        <ele>0</ele>
        <time>2010-01-02T03:08:02Z</time>
      </trkpt>
      <trkpt lat="53.918280769139528" lon="9.374155467376113">
        <ele>0</ele>
        <time>2010-01-02T03:08:20Z</time>
      </trkpt>
      <trkpt lat="53.918577237054706" lon="9.373864363878965">
        <ele>0</ele>
        <time>2010-01-02T03:08:33Z</time>
      </trkpt>
      <trkpt lat="53.918931288644671" lon="9.373572254553437">
        <ele>0</ele>
        <time>2010-01-02T03:08:49Z</time>
      </trkpt>
      <trkpt lat="53.919093310832977" lon="9.373448872938752">
        <ele>0</ele>
        <time>2010-01-02T03:08:56Z</time>
      </trkpt>
      <trkpt lat="53.919203281402588" lon="9.373350972309709">
        <ele>0</ele>
        <time>2010-01-02T03:09:01Z</time>
      </trkpt>
      <trkpt lat="53.919258266687393" lon="9.37330118380487">
        <ele>0</ele>
        <time>2010-01-02T03:09:04Z</time>
      </trkpt>
      <trkpt lat="53.919372679665685" lon="9.373197248205543">
        <ele>0</ele>
        <time>2010-01-02T03:09:09Z</time>
      </trkpt>
      <trkpt lat="53.919523134827614" lon="9.373061545193195">
        <ele>0</ele>
        <time>2010-01-02T03:09:16Z</time>
      </trkpt>
      <trkpt lat="53.91965732909739" lon="9.372939504683018">
        <ele>0</ele>
        <time>2010-01-02T03:09:22Z</time>
      </trkpt>
      <trkpt lat="53.919765539467335" lon="9.372812602669001">
        <ele>0</ele>
        <time>2010-01-02T03:09:27Z</time>
      </trkpt>
      <trkpt lat="53.920151609927416" lon="9.372339611873031">
        <ele>0</ele>
        <time>2010-01-02T03:09:46Z</time>
      </trkpt>
      <trkpt lat="53.920174241065979" lon="9.372407421469688">
        <ele>0</ele>
        <time>2010-01-02T03:09:48Z</time>
      </trkpt>
      <trkpt lat="53.920219587162137" lon="9.372543124482036">
        <ele>0</ele>
        <time>2010-01-02T03:09:52Z</time>
      </trkpt>
      <trkpt lat="53.920238865539432" lon="9.372599199414253">
        <ele>0</ele>
        <time>2010-01-02T03:09:53Z</time>
      </trkpt>
      <trkpt lat="53.920270800590515" lon="9.372713612392545">
        <ele>0</ele>
        <time>2010-01-02T03:09:56Z</time>
      </trkpt>
      <trkpt lat="53.920313464477658" lon="9.372861636802554">
        <ele>0</ele>
        <time>2010-01-02T03:10:00Z</time>
      </trkpt>
      <trkpt lat="53.920373814180493" lon="9.373113345354795">
        <ele>0</ele>
        <time>2010-01-02T03:10:06Z</time>
      </trkpt>
      <trkpt lat="53.920426620170474" lon="9.373396737501025">
        <ele>0</ele>
        <time>2010-01-02T03:10:13Z</time>
      </trkpt>
      <trkpt lat="53.920481605455279" lon="9.37369110994041">
        <ele>0</ele>
        <time>2010-01-02T03:10:21Z</time>
      </trkpt>
      <trkpt lat="53.920573722571135" lon="9.374101404100657">
        <ele>0</ele>
        <time>2010-01-02T03:10:31Z</time>
      </trkpt>
      <trkpt lat="53.920609429478645" lon="9.374197628349066">
        <ele>0</ele>
        <time>2010-01-02T03:10:34Z</time>
      </trkpt>
      <trkpt lat="53.920658966526389" lon="9.374264432117343">
        <ele>0</ele>
        <time>2010-01-02T03:10:36Z</time>
      </trkpt>
      <trkpt lat="53.920663995668292" lon="9.37427113763988">
        <ele>0</ele>
        <time>2010-01-02T03:10:36Z</time>
      </trkpt>
      <trkpt lat="53.920727698132396" lon="9.374291505664587">
        <ele>0</ele>
        <time>2010-01-02T03:10:39Z</time>
      </trkpt>
      <trkpt lat="53.920827442780137" lon="9.374293936416507">
        <ele>0</ele>
        <time>2010-01-02T03:10:43Z</time>
      </trkpt>
      <trkpt lat="53.92088133841753" lon="9.374300474300981">
        <ele>0</ele>
        <time>2010-01-02T03:10:45Z</time>
      </trkpt>
      <trkpt lat="53.920926181599498" lon="9.374322183430195">
        <ele>0</ele>
        <time>2010-01-02T03:10:47Z</time>
      </trkpt>
      <trkpt lat="53.920970940962434" lon="9.374374402686954">
        <ele>0</ele>
        <time>2010-01-02T03:10:49Z</time>
      </trkpt>
      <trkpt lat="53.921139668673277" lon="9.374713785946369">
        <ele>0</ele>
        <time>2010-01-02T03:11:00Z</time>
      </trkpt>
      <trkpt lat="53.921302109956741" lon="9.375068340450525">
        <ele>0</ele>
        <time>2010-01-02T03:11:10Z</time>
      </trkpt>
      <trkpt lat="53.92141099087894" lon="9.375283923000097">
        <ele>0</ele>
        <time>2010-01-02T03:11:17Z</time>
      </trkpt>
      <trkpt lat="53.92150042578578" lon="9.375415686517954">
        <ele>0</ele>
        <time>2010-01-02T03:11:22Z</time>
      </trkpt>
      <trkpt lat="53.921540910378098" lon="9.375471258535981">
        <ele>0</ele>
        <time>2010-01-02T03:11:24Z</time>
      </trkpt>
      <trkpt lat="53.921663453802466" lon="9.375595226883888">
        <ele>0</ele>
        <time>2010-01-02T03:11:30Z</time>
      </trkpt>
      <trkpt lat="53.921722378581762" lon="9.37569011002779">
        <ele>0</ele>
        <time>2010-01-02T03:11:33Z</time>
      </trkpt>
      <trkpt lat="53.921796306967735" lon="9.375613164156675">
        <ele>0</ele>
        <time>2010-01-02T03:11:36Z</time>
      </trkpt>
      <trkpt lat="53.921904684975743" lon="9.375439072027802">
        <ele>0</ele>
        <time>2010-01-02T03:11:42Z</time>
      </trkpt>
      <trkpt lat="53.921953048557043" lon="9.375323066487908">
        <ele>0</ele>
        <time>2010-01-02T03:11:46Z</time>
      </trkpt>
      <trkpt lat="53.92197978682816" lon="9.375258609652519">
        <ele>0</ele>
        <time>2010-01-02T03:11:47Z</time>
      </trkpt>
      <trkpt lat="53.922169134020805" lon="9.374765669927001">
        <ele>0</ele>
        <time>2010-01-02T03:12:01Z</time>
      </trkpt>
      <trkpt lat="53.922272231429815" lon="9.374539777636528">
        <ele>0</ele>
        <time>2010-01-02T03:12:08Z</time>
      </trkpt>
      <trkpt lat="53.922272231429815" lon="9.374539777636528">
        <ele>0</ele>
        <time>2010-01-02T03:12:08Z</time>
      </trkpt>
      <trkpt lat="53.922169134020805" lon="9.374765669927001">
        <ele>0</ele>
        <time>2010-01-02T03:12:01Z</time>
      </trkpt>
      <trkpt lat="53.92197978682816" lon="9.375258609652519">
        <ele>0</ele>
        <time>2010-01-02T03:11:47Z</time>
      </trkpt>
      <trkpt lat="53.921953048557043" lon="9.375323066487908">
        <ele>0</ele>
        <time>2010-01-02T03:11:46Z</time>
      </trkpt>
      <trkpt lat="53.921904684975743" lon="9.375439072027802">
        <ele>0</ele>
        <time>2010-01-02T03:11:42Z</time>
      </trkpt>
      <trkpt lat="53.921796306967735" lon="9.375613164156675">
        <ele>0</ele>
        <time>2010-01-02T03:11:36Z</time>
      </trkpt>
      <trkpt lat="53.921722378581762" lon="9.37569011002779">
        <ele>0</ele>
        <time>2010-01-02T03:11:33Z</time>
      </trkpt>
      <trkpt lat="53.921663453802466" lon="9.375595226883888">
        <ele>0</ele>
        <time>2010-01-02T03:11:30Z</time>
      </trkpt>
      <trkpt lat="53.921540910378098" lon="9.375471258535981">
        <ele>0</ele>
        <time>2010-01-02T03:11:24Z</time>
      </trkpt>
      <trkpt lat="53.92150042578578" lon="9.375415686517954">
        <ele>0</ele>
        <time>2010-01-02T03:11:22Z</time>
      </trkpt>
      <trkpt lat="53.92141099087894" lon="9.375283923000097">
        <ele>0</ele>
        <time>2010-01-02T03:11:17Z</time>
      </trkpt>
      <trkpt lat="53.921302109956741" lon="9.375068340450525">
        <ele>0</ele>
        <time>2010-01-02T03:11:10Z</time>
      </trkpt>
      <trkpt lat="53.921139668673277" lon="9.374713785946369">
        <ele>0</ele>
        <time>2010-01-02T03:11:00Z</time>
      </trkpt>
      <trkpt lat="53.920970940962434" lon="9.374374402686954">
        <ele>0</ele>
        <time>2010-01-02T03:10:49Z</time>
      </trkpt>
      <trkpt lat="53.920926181599498" lon="9.374322183430195">
        <ele>0</ele>
        <time>2010-01-02T03:10:47Z</time>
      </trkpt>
      <trkpt lat="53.92088133841753" lon="9.374300474300981">
        <ele>0</ele>
        <time>2010-01-02T03:10:45Z</time>
      </trkpt>
      <trkpt lat="53.920827442780137" lon="9.374293936416507">
        <ele>0</ele>
        <time>2010-01-02T03:10:43Z</time>
      </trkpt>
      <trkpt lat="53.920727698132396" lon="9.374291505664587">
        <ele>0</ele>
        <time>2010-01-02T03:10:39Z</time>
      </trkpt>
      <trkpt lat="53.920663995668292" lon="9.37427113763988">
        <ele>0</ele>
        <time>2010-01-02T03:10:36Z</time>
      </trkpt>
      <trkpt lat="53.920658966526389" lon="9.374264432117343">
        <ele>0</ele>
        <time>2010-01-02T03:10:36Z</time>
      </trkpt>
      <trkpt lat="53.920609429478645" lon="9.374197628349066">
        <ele>0</ele>
        <time>2010-01-02T03:10:34Z</time>
      </trkpt>
      <trkpt lat="53.920573722571135" lon="9.374101404100657">
        <ele>0</ele>
        <time>2010-01-02T03:10:31Z</time>
      </trkpt>
      <trkpt lat="53.920481605455279" lon="9.37369110994041">
        <ele>0</ele>
        <time>2010-01-02T03:10:21Z</time>
      </trkpt>
      <trkpt lat="53.920426620170474" lon="9.373396737501025">
        <ele>0</ele>
        <time>2010-01-02T03:10:13Z</time>
      </trkpt>
      <trkpt lat="53.920373814180493" lon="9.373113345354795">
        <ele>0</ele>
        <time>2010-01-02T03:10:06Z</time>
      </trkpt>
      <trkpt lat="53.920313464477658" lon="9.372861636802554">
        <ele>0</ele>
        <time>2010-01-02T03:10:00Z</time>
      </trkpt>
      <trkpt lat="53.920270800590515" lon="9.372713612392545">
        <ele>0</ele>
        <time>2010-01-02T03:09:56Z</time>
      </trkpt>
      <trkpt lat="53.920238865539432" lon="9.372599199414253">
        <ele>0</ele>
        <time>2010-01-02T03:09:53Z</time>
      </trkpt>
      <trkpt lat="53.920219587162137" lon="9.372543124482036">
        <ele>0</ele>
        <time>2010-01-02T03:09:52Z</time>
      </trkpt>
      <trkpt lat="53.920174241065979" lon="9.372407421469688">
        <ele>0</ele>
        <time>2010-01-02T03:09:48Z</time>
      </trkpt>
      <trkpt lat="53.920151609927416" lon="9.372339611873031">
        <ele>0</ele>
        <time>2010-01-02T03:09:46Z</time>
      </trkpt>
      <trkpt lat="53.919765539467335" lon="9.372812602669001">
        <ele>0</ele>
        <time>2010-01-02T03:09:27Z</time>
      </trkpt>
      <trkpt lat="53.91965732909739" lon="9.372939504683018">
        <ele>0</ele>
        <time>2010-01-02T03:09:22Z</time>
      </trkpt>
      <trkpt lat="53.919523134827614" lon="9.373061545193195">
        <ele>0</ele>
        <time>2010-01-02T03:09:16Z</time>
      </trkpt>
      <trkpt lat="53.919372679665685" lon="9.373197248205543">
        <ele>0</ele>
        <time>2010-01-02T03:09:09Z</time>
      </trkpt>
      <trkpt lat="53.919258266687393" lon="9.37330118380487">
        <ele>0</ele>
        <time>2010-01-02T03:09:04Z</time>
      </trkpt>
      <trkpt lat="53.919203281402588" lon="9.373350972309709">
        <ele>0</ele>
        <time>2010-01-02T03:09:01Z</time>
      </trkpt>
      <trkpt lat="53.919093310832977" lon="9.373448872938752">
        <ele>0</ele>
        <time>2010-01-02T03:08:56Z</time>
      </trkpt>
      <trkpt lat="53.918931288644671" lon="9.373572254553437">
        <ele>0</ele>
        <time>2010-01-02T03:08:49Z</time>
      </trkpt>
      <trkpt lat="53.918577237054706" lon="9.373864363878965">
        <ele>0</ele>
        <time>2010-01-02T03:08:33Z</time>
      </trkpt>
      <trkpt lat="53.918280769139528" lon="9.374155467376113">
        <ele>0</ele>
        <time>2010-01-02T03:08:20Z</time>
      </trkpt>
      <trkpt lat="53.917912887409329" lon="9.374573724344373">
        <ele>0</ele>
        <time>2010-01-02T03:08:02Z</time>
      </trkpt>
      <trkpt lat="53.917699903249741" lon="9.374864073470235">
        <ele>0</ele>
        <time>2010-01-02T03:07:51Z</time>
      </trkpt>
      <trkpt lat="53.917507957667112" lon="9.37519121915102">
        <ele>0</ele>
        <time>2010-01-02T03:07:40Z</time>
      </trkpt>
      <trkpt lat="53.917398154735565" lon="9.375400096178055">
        <ele>0</ele>
        <time>2010-01-02T03:07:33Z</time>
      </trkpt>
      <trkpt lat="53.917069165036082" lon="9.37593393959105">
        <ele>0</ele>
        <time>2010-01-02T03:07:15Z</time>
      </trkpt>
      <trkpt lat="53.916806224733591" lon="9.376967512071133">
        <ele>0</ele>
        <time>2010-01-02T03:06:49Z</time>
      </trkpt>
      <trkpt lat="53.916634395718575" lon="9.376968601718545">
        <ele>0</ele>
        <time>2010-01-02T03:06:42Z</time>
      </trkpt>
      <trkpt lat="53.916328120976686" lon="9.376962147653103">
        <ele>0</ele>
        <time>2010-01-02T03:06:29Z</time>
      </trkpt>
      <trkpt lat="53.916330970823765" lon="9.376979079097509">
        <ele>0</ele>
        <time>2010-01-02T03:12:08Z</time>
      </trkpt>
      <trkpt lat="53.91636298969388" lon="9.377172952517867">
        <ele>0</ele>
        <time>2010-01-02T03:12:13Z</time>
      </trkpt>
      <trkpt lat="53.916396098211408" lon="9.377462295815349">
        <ele>0</ele>
        <time>2010-01-02T03:12:20Z</time>
      </trkpt>
      <trkpt lat="53.916401378810406" lon="9.377649044618011">
        <ele>0</ele>
        <time>2010-01-02T03:12:24Z</time>
      </trkpt>
      <trkpt lat="53.916369276121259" lon="9.378025308251381">
        <ele>0</ele>
        <time>2010-01-02T03:12:33Z</time>
      </trkpt>
      <trkpt lat="53.916369276121259" lon="9.378025308251381">
        <ele>0</ele>
        <time>2010-01-02T03:26:41Z</time>
      </trkpt>
      <trkpt lat="53.916578656062484" lon="9.378149276599288">
        <ele>0</ele>
        <time>2010-01-02T03:26:50Z</time>
      </trkpt>
      <trkpt lat="53.916661636903882" lon="9.378198394551873">
        <ele>0</ele>
        <time>2010-01-02T03:26:54Z</time>
      </trkpt>
      <trkpt lat="53.916692147031426" lon="9.378216918557882">
        <ele>0</ele>
        <time>2010-01-02T03:26:55Z</time>
      </trkpt>
      <trkpt lat="53.916837405413389" lon="9.378305012360215">
        <ele>0</ele>
        <time>2010-01-02T03:27:01Z</time>
      </trkpt>
      <trkpt lat="53.916866993531585" lon="9.378323536366224">
        <ele>0</ele>
        <time>2010-01-02T03:27:02Z</time>
      </trkpt>
      <trkpt lat="53.917154911905527" lon="9.378478350117803">
        <ele>0</ele>
        <time>2010-01-02T03:27:15Z</time>
      </trkpt>
      <trkpt lat="53.917734269052744" lon="9.378794096410275">
        <ele>0</ele>
        <time>2010-01-02T03:27:39Z</time>
      </trkpt>
      <trkpt lat="53.917910121381283" lon="9.378871712833643">
        <ele>0</ele>
        <time>2010-01-02T03:27:46Z</time>
      </trkpt>
      <trkpt lat="53.917947839945555" lon="9.378888811916113">
        <ele>0</ele>
        <time>2010-01-02T03:27:48Z</time>
      </trkpt>
      <trkpt lat="53.91807172447443" lon="9.378923429176211">
        <ele>0</ele>
        <time>2010-01-02T03:27:53Z</time>
      </trkpt>
      <trkpt lat="53.918037107214332" lon="9.37991090118885">
        <ele>0</ele>
        <time>2010-01-02T03:28:16Z</time>
      </trkpt>
      <trkpt lat="53.91803509555757" lon="9.379982398822904">
        <ele>0</ele>
        <time>2010-01-02T03:28:18Z</time>
      </trkpt>
      <trkpt lat="53.918022103607655" lon="9.380396297201514">
        <ele>0</ele>
        <time>2010-01-02T03:28:28Z</time>
      </trkpt>
      <trkpt lat="53.918021265417337" lon="9.380428232252598">
        <ele>0</ele>
        <time>2010-01-02T03:28:28Z</time>
      </trkpt>
      <trkpt lat="53.918020091950893" lon="9.38047232106328">
        <ele>0</ele>
        <time>2010-01-02T03:28:29Z</time>
      </trkpt>
      <trkpt lat="53.918000143021345" lon="9.381091576069593">
        <ele>0</ele>
        <time>2010-01-02T03:28:44Z</time>
      </trkpt>
      <trkpt lat="53.917995784431696" lon="9.381716614589095">
        <ele>0</ele>
        <time>2010-01-02T03:28:59Z</time>
      </trkpt>
      <trkpt lat="53.917991844937205" lon="9.382278705015779">
        <ele>0</ele>
        <time>2010-01-02T03:29:12Z</time>
      </trkpt>
      <trkpt lat="53.917988492175937" lon="9.382770219817758">
        <ele>0</ele>
        <time>2010-01-02T03:29:24Z</time>
      </trkpt>
      <trkpt lat="53.917977930977941" lon="9.383264752104878">
        <ele>0</ele>
        <time>2010-01-02T03:29:35Z</time>
      </trkpt>
      <trkpt lat="53.917961334809661" lon="9.384237136691809">
        <ele>0</ele>
        <time>2010-01-02T03:29:58Z</time>
      </trkpt>
      <trkpt lat="53.917937446385622" lon="9.384396728128195">
        <ele>0</ele>
        <time>2010-01-02T03:30:02Z</time>
      </trkpt>
      <trkpt lat="53.917933674529195" lon="9.384413659572601">
        <ele>0</ele>
        <time>2010-01-02T03:30:02Z</time>
      </trkpt>
      <trkpt lat="53.91790559515357" lon="9.384536454454064">
        <ele>0</ele>
        <time>2010-01-02T03:30:06Z</time>
      </trkpt>
      <trkpt lat="53.917871648445725" lon="9.384633013978601">
        <ele>0</ele>
        <time>2010-01-02T03:30:08Z</time>
      </trkpt>
      <trkpt lat="53.91771943308413" lon="9.384874161332846">
        <ele>0</ele>
        <time>2010-01-02T03:30:17Z</time>
      </trkpt>
      <trkpt lat="53.917463282123208" lon="9.385170126333833">
        <ele>0</ele>
        <time>2010-01-02T03:30:29Z</time>
      </trkpt>
      <trkpt lat="53.917191289365292" lon="9.385392833501101">
        <ele>0</ele>
        <time>2010-01-02T03:30:41Z</time>
      </trkpt>
      <trkpt lat="53.916832795366645" lon="9.38566348515451">
        <ele>0</ele>
        <time>2010-01-02T03:30:57Z</time>
      </trkpt>
      <trkpt lat="53.916723746806383" lon="9.385762978345156">
        <ele>0</ele>
        <time>2010-01-02T03:31:02Z</time>
      </trkpt>
      <trkpt lat="53.916677394881845" lon="9.385836655274034">
        <ele>0</ele>
        <time>2010-01-02T03:31:04Z</time>
      </trkpt>
      <trkpt lat="53.916654009371996" lon="9.385932795703411">
        <ele>0</ele>
        <time>2010-01-02T03:31:07Z</time>
      </trkpt>
      <trkpt lat="53.916603634133935" lon="9.386233622208238">
        <ele>0</ele>
        <time>2010-01-02T03:31:14Z</time>
      </trkpt>
      <trkpt lat="53.91655795276165" lon="9.3864721711725">
        <ele>0</ele>
        <time>2010-01-02T03:31:20Z</time>
      </trkpt>
      <trkpt lat="53.916525095701218" lon="9.386630086228251">
        <ele>0</ele>
        <time>2010-01-02T03:31:24Z</time>
      </trkpt>
      <trkpt lat="53.916496932506561" lon="9.386733351275325">
        <ele>0</ele>
        <time>2010-01-02T03:31:27Z</time>
      </trkpt>
      <trkpt lat="53.916479665786028" lon="9.386795628815889">
        <ele>0</ele>
        <time>2010-01-02T03:31:28Z</time>
      </trkpt>
      <trkpt lat="53.916421579197049" lon="9.38697156496346">
        <ele>0</ele>
        <time>2010-01-02T03:31:33Z</time>
      </trkpt>
      <trkpt lat="53.916321750730276" lon="9.387275073677301">
        <ele>0</ele>
        <time>2010-01-02T03:31:41Z</time>
      </trkpt>
      <trkpt lat="53.916260981932282" lon="9.387464756146073">
        <ele>0</ele>
        <time>2010-01-02T03:31:46Z</time>
      </trkpt>
      <trkpt lat="53.916209097951651" lon="9.387671202421188">
        <ele>0</ele>
        <time>2010-01-02T03:31:52Z</time>
      </trkpt>
      <trkpt lat="53.916161740198731" lon="9.387873206287622">
        <ele>0</ele>
        <time>2010-01-02T03:31:57Z</time>
      </trkpt>
      <trkpt lat="53.916128799319267" lon="9.388055512681603">
        <ele>0</ele>
        <time>2010-01-02T03:32:01Z</time>
      </trkpt>
      <trkpt lat="53.916084123775363" lon="9.388265144079924">
        <ele>0</ele>
        <time>2010-01-02T03:32:06Z</time>
      </trkpt>
      <trkpt lat="53.916074987500906" lon="9.388310741633177">
        <ele>0</ele>
        <time>2010-01-02T03:32:08Z</time>
      </trkpt>
      <trkpt lat="53.916046740487218" lon="9.388412414118648">
        <ele>0</ele>
        <time>2010-01-02T03:32:10Z</time>
      </trkpt>
      <trkpt lat="53.916029557585716" lon="9.388467064127326">
        <ele>0</ele>
        <time>2010-01-02T03:32:12Z</time>
      </trkpt>
      <trkpt lat="53.915923777967691" lon="9.388674600049853">
        <ele>0</ele>
        <time>2010-01-02T03:32:18Z</time>
      </trkpt>
      <trkpt lat="53.915837109088898" lon="9.388783313333988">
        <ele>0</ele>
        <time>2010-01-02T03:32:23Z</time>
      </trkpt>
      <trkpt lat="53.915736107155681" lon="9.388910215348005">
        <ele>0</ele>
        <time>2010-01-02T03:32:28Z</time>
      </trkpt>
      <trkpt lat="53.915383564308286" lon="9.389287400990725">
        <ele>0</ele>
        <time>2010-01-02T03:32:44Z</time>
      </trkpt>
      <trkpt lat="53.915236545726657" lon="9.389461074024439">
        <ele>0</ele>
        <time>2010-01-02T03:32:51Z</time>
      </trkpt>
      <trkpt lat="53.915151637047529" lon="9.389615468680859">
        <ele>0</ele>
        <time>2010-01-02T03:32:56Z</time>
      </trkpt>
      <trkpt lat="53.91508374363184" lon="9.389774641022086">
        <ele>0</ele>
        <time>2010-01-02T03:33:01Z</time>
      </trkpt>
      <trkpt lat="53.915014760568738" lon="9.389987122267485">
        <ele>0</ele>
        <time>2010-01-02T03:33:07Z</time>
      </trkpt>
      <trkpt lat="53.914908310398459" lon="9.390396997332573">
        <ele>0</ele>
        <time>2010-01-02T03:33:17Z</time>
      </trkpt>
      <trkpt lat="53.914860030636191" lon="9.390594391152263">
        <ele>0</ele>
        <time>2010-01-02T03:33:22Z</time>
      </trkpt>
      <trkpt lat="53.914847038686275" lon="9.39071299508214">
        <ele>0</ele>
        <time>2010-01-02T03:33:25Z</time>
      </trkpt>
      <trkpt lat="53.914838740602136" lon="9.390795053914189">
        <ele>0</ele>
        <time>2010-01-02T03:33:27Z</time>
      </trkpt>
      <trkpt lat="53.914830693975091" lon="9.39103695563972">
        <ele>0</ele>
        <time>2010-01-02T03:33:33Z</time>
      </trkpt>
      <trkpt lat="53.914811415597796" lon="9.391368376091123">
        <ele>0</ele>
        <time>2010-01-02T03:33:41Z</time>
      </trkpt>
      <trkpt lat="53.914768164977431" lon="9.391708765178919">
        <ele>0</ele>
        <time>2010-01-02T03:33:49Z</time>
      </trkpt>
      <trkpt lat="53.914732458069921" lon="9.392029205337167">
        <ele>0</ele>
        <time>2010-01-02T03:33:57Z</time>
      </trkpt>
      <trkpt lat="53.914738325402141" lon="9.392226180061698">
        <ele>0</ele>
        <time>2010-01-02T03:34:01Z</time>
      </trkpt>
      <trkpt lat="53.914780234917998" lon="9.392460957169533">
        <ele>0</ele>
        <time>2010-01-02T03:34:07Z</time>
      </trkpt>
      <trkpt lat="53.914843937382102" lon="9.392762873321772">
        <ele>0</ele>
        <time>2010-01-02T03:34:15Z</time>
      </trkpt>
      <trkpt lat="53.915114421397448" lon="9.393839864060283">
        <ele>0</ele>
        <time>2010-01-02T03:34:42Z</time>
      </trkpt>
      <trkpt lat="53.915319945663214" lon="9.394610328599811">
        <ele>0</ele>
        <time>2010-01-02T03:35:02Z</time>
      </trkpt>
      <trkpt lat="53.915414409711957" lon="9.394981982186437">
        <ele>0</ele>
        <time>2010-01-02T03:35:12Z</time>
      </trkpt>
      <trkpt lat="53.915466042235494" lon="9.395284401252866">
        <ele>0</ele>
        <time>2010-01-02T03:35:19Z</time>
      </trkpt>
      <trkpt lat="53.915489511564374" lon="9.395526638254523">
        <ele>0</ele>
        <time>2010-01-02T03:35:25Z</time>
      </trkpt>
      <trkpt lat="53.915525553748012" lon="9.395887646824121">
        <ele>0</ele>
        <time>2010-01-02T03:35:34Z</time>
      </trkpt>
      <trkpt lat="53.915642062202096" lon="9.396689292043447">
        <ele>0</ele>
        <time>2010-01-02T03:35:53Z</time>
      </trkpt>
      <trkpt lat="53.915677601471543" lon="9.397010738030076">
        <ele>0</ele>
        <time>2010-01-02T03:36:01Z</time>
      </trkpt>
      <trkpt lat="53.915704758837819" lon="9.397393455728889">
        <ele>0</ele>
        <time>2010-01-02T03:36:10Z</time>
      </trkpt>
      <trkpt lat="53.915692437440157" lon="9.397834176197648">
        <ele>0</ele>
        <time>2010-01-02T03:36:20Z</time>
      </trkpt>
      <trkpt lat="53.915671315044165" lon="9.398077921941876">
        <ele>0</ele>
        <time>2010-01-02T03:36:26Z</time>
      </trkpt>
      <trkpt lat="53.915543323382735" lon="9.398919381201267">
        <ele>0</ele>
        <time>2010-01-02T03:36:46Z</time>
      </trkpt>
      <trkpt lat="53.915464617311954" lon="9.399337135255337">
        <ele>0</ele>
        <time>2010-01-02T03:36:57Z</time>
      </trkpt>
      <trkpt lat="53.915376774966717" lon="9.399817250669003">
        <ele>0</ele>
        <time>2010-01-02T03:37:09Z</time>
      </trkpt>
      <trkpt lat="53.915334949269891" lon="9.400122100487351">
        <ele>0</ele>
        <time>2010-01-02T03:37:16Z</time>
      </trkpt>
      <trkpt lat="53.915320364758372" lon="9.400483276695013">
        <ele>0</ele>
        <time>2010-01-02T03:37:25Z</time>
      </trkpt>
      <trkpt lat="53.91528801061213" lon="9.400836825370789">
        <ele>0</ele>
        <time>2010-01-02T03:37:33Z</time>
      </trkpt>
      <trkpt lat="53.915229085832834" lon="9.401167407631874">
        <ele>0</ele>
        <time>2010-01-02T03:37:41Z</time>
      </trkpt>
      <trkpt lat="53.915152391418815" lon="9.401445183902979">
        <ele>0</ele>
        <time>2010-01-02T03:37:48Z</time>
      </trkpt>
      <trkpt lat="53.915075780823827" lon="9.401730420067906">
        <ele>0</ele>
        <time>2010-01-02T03:37:56Z</time>
      </trkpt>
      <trkpt lat="53.91502121463418" lon="9.402061169967055">
        <ele>0</ele>
        <time>2010-01-02T03:38:04Z</time>
      </trkpt>
      <trkpt lat="53.914953069761395" lon="9.402451766654849">
        <ele>0</ele>
        <time>2010-01-02T03:38:14Z</time>
      </trkpt>
      <trkpt lat="53.914836142212152" lon="9.40281193703413">
        <ele>0</ele>
        <time>2010-01-02T03:38:23Z</time>
      </trkpt>
      <trkpt lat="53.914597677066922" lon="9.403502270579338">
        <ele>0</ele>
        <time>2010-01-02T03:38:42Z</time>
      </trkpt>
      <trkpt lat="53.914404725655913" lon="9.403959503397346">
        <ele>0</ele>
        <time>2010-01-02T03:38:55Z</time>
      </trkpt>
      <trkpt lat="53.914179084822536" lon="9.404383460059762">
        <ele>0</ele>
        <time>2010-01-02T03:39:09Z</time>
      </trkpt>
      <trkpt lat="53.913988396525383" lon="9.404717981815338">
        <ele>0</ele>
        <time>2010-01-02T03:39:20Z</time>
      </trkpt>
      <trkpt lat="53.913826877251267" lon="9.404915710911155">
        <ele>0</ele>
        <time>2010-01-02T03:39:28Z</time>
      </trkpt>
      <trkpt lat="53.913624873384833" lon="9.405151158571243">
        <ele>0</ele>
        <time>2010-01-02T03:39:38Z</time>
      </trkpt>
      <trkpt lat="53.913490511476994" lon="9.405294489115477">
        <ele>0</ele>
        <time>2010-01-02T03:39:44Z</time>
      </trkpt>
      <trkpt lat="53.913251543417573" lon="9.405549298971891">
        <ele>0</ele>
        <time>2010-01-02T03:39:55Z</time>
      </trkpt>
      <trkpt lat="53.913111817091703" lon="9.405695563182235">
        <ele>0</ele>
        <time>2010-01-02T03:40:02Z</time>
      </trkpt>
      <trkpt lat="53.913067979738116" lon="9.405772928148508">
        <ele>0</ele>
        <time>2010-01-02T03:40:04Z</time>
      </trkpt>
      <trkpt lat="53.913044007495046" lon="9.405815172940493">
        <ele>0</ele>
        <time>2010-01-02T03:40:06Z</time>
      </trkpt>
      <trkpt lat="53.912964295595884" lon="9.406007621437311">
        <ele>0</ele>
        <time>2010-01-02T03:40:11Z</time>
      </trkpt>
      <trkpt lat="53.912912411615252" lon="9.406194286420941">
        <ele>0</ele>
        <time>2010-01-02T03:40:16Z</time>
      </trkpt>
      <trkpt lat="53.912887601181865" lon="9.406372150406241">
        <ele>0</ele>
        <time>2010-01-02T03:40:20Z</time>
      </trkpt>
      <trkpt lat="53.912884667515755" lon="9.406443648040295">
        <ele>0</ele>
        <time>2010-01-02T03:40:22Z</time>
      </trkpt>
      <trkpt lat="53.912879638373852" lon="9.406595779582858">
        <ele>0</ele>
        <time>2010-01-02T03:40:26Z</time>
      </trkpt>
      <trkpt lat="53.912885254248977" lon="9.406802812591195">
        <ele>0</ele>
        <time>2010-01-02T03:40:31Z</time>
      </trkpt>
      <trkpt lat="53.912891121581197" lon="9.407039433717728">
        <ele>0</ele>
        <time>2010-01-02T03:40:36Z</time>
      </trkpt>
      <trkpt lat="53.912884667515755" lon="9.407224338501692">
        <ele>0</ele>
        <time>2010-01-02T03:40:41Z</time>
      </trkpt>
      <trkpt lat="53.912863964214921" lon="9.407516280189157">
        <ele>0</ele>
        <time>2010-01-02T03:40:47Z</time>
      </trkpt>
      <trkpt lat="53.912862287834287" lon="9.407750638201833">
        <ele>0</ele>
        <time>2010-01-02T03:40:53Z</time>
      </trkpt>
      <trkpt lat="53.912862874567509" lon="9.408103683963418">
        <ele>0</ele>
        <time>2010-01-02T03:41:01Z</time>
      </trkpt>
      <trkpt lat="53.912878716364503" lon="9.408458406105638">
        <ele>0</ele>
        <time>2010-01-02T03:41:10Z</time>
      </trkpt>
      <trkpt lat="53.912894809618592" lon="9.408914800733328">
        <ele>0</ele>
        <time>2010-01-02T03:41:20Z</time>
      </trkpt>
      <trkpt lat="53.91288734972477" lon="9.409082438796759">
        <ele>0</ele>
        <time>2010-01-02T03:41:24Z</time>
      </trkpt>
      <trkpt lat="53.912871005013585" lon="9.40914161503315">
        <ele>0</ele>
        <time>2010-01-02T03:41:26Z</time>
      </trkpt>
      <trkpt lat="53.912842087447643" lon="9.40918855369091">
        <ele>0</ele>
        <time>2010-01-02T03:41:28Z</time>
      </trkpt>
      <trkpt lat="53.912780815735459" lon="9.409241192042828">
        <ele>0</ele>
        <time>2010-01-02T03:41:30Z</time>
      </trkpt>
      <trkpt lat="53.912651231512427" lon="9.409287124872208">
        <ele>0</ele>
        <time>2010-01-02T03:41:36Z</time>
      </trkpt>
      <trkpt lat="53.91250915825367" lon="9.409329872578382">
        <ele>0</ele>
        <time>2010-01-02T03:41:41Z</time>
      </trkpt>
      <trkpt lat="53.912436235696077" lon="9.409376308321953">
        <ele>0</ele>
        <time>2010-01-02T03:41:45Z</time>
      </trkpt>
      <trkpt lat="53.912375802174211" lon="9.409441100433469">
        <ele>0</ele>
        <time>2010-01-02T03:41:47Z</time>
      </trkpt>
      <trkpt lat="53.912261053919792" lon="9.409571355208755">
        <ele>0</ele>
        <time>2010-01-02T03:41:53Z</time>
      </trkpt>
      <trkpt lat="53.912261053919792" lon="9.409571355208755">
        <ele>0</ele>
        <time>2010-01-02T01:56:27Z</time>
      </trkpt>
      <trkpt lat="53.9119394402951" lon="9.40935468301177">
        <ele>0</ele>
        <time>2010-01-02T01:56:41Z</time>
      </trkpt>
      <trkpt lat="53.911771969869733" lon="9.40923591144383">
        <ele>0</ele>
        <time>2010-01-02T01:56:48Z</time>
      </trkpt>
      <trkpt lat="53.911748249083757" lon="9.409219063818455">
        <ele>0</ele>
        <time>2010-01-02T01:56:49Z</time>
      </trkpt>
      <trkpt lat="53.911684965714812" lon="9.409173969179392">
        <ele>0</ele>
        <time>2010-01-02T01:56:52Z</time>
      </trkpt>
      <trkpt lat="53.911625454202294" lon="9.409131892025471">
        <ele>0</ele>
        <time>2010-01-02T01:56:55Z</time>
      </trkpt>
      <trkpt lat="53.911597291007638" lon="9.409112446010113">
        <ele>0</ele>
        <time>2010-01-02T01:56:56Z</time>
      </trkpt>
      <trkpt lat="53.911511795595288" lon="9.409010857343674">
        <ele>0</ele>
        <time>2010-01-02T01:57:00Z</time>
      </trkpt>
      <trkpt lat="53.911232594400644" lon="9.408219270408154">
        <ele>0</ele>
        <time>2010-01-02T01:57:22Z</time>
      </trkpt>
      <trkpt lat="53.911129496991634" lon="9.407904194667935">
        <ele>0</ele>
        <time>2010-01-02T01:57:30Z</time>
      </trkpt>
      <trkpt lat="53.911129496991634" lon="9.407904194667935">
        <ele>0</ele>
        <time>2010-01-02T01:57:30Z</time>
      </trkpt>
      <trkpt lat="53.911232594400644" lon="9.408219270408154">
        <ele>0</ele>
        <time>2010-01-02T01:57:22Z</time>
      </trkpt>
      <trkpt lat="53.911511795595288" lon="9.409010857343674">
        <ele>0</ele>
        <time>2010-01-02T01:57:00Z</time>
      </trkpt>
      <trkpt lat="53.911597291007638" lon="9.409112446010113">
        <ele>0</ele>
        <time>2010-01-02T01:56:56Z</time>
      </trkpt>
      <trkpt lat="53.911625454202294" lon="9.409131892025471">
        <ele>0</ele>
        <time>2010-01-02T01:56:55Z</time>
      </trkpt>
      <trkpt lat="53.911684965714812" lon="9.409173969179392">
        <ele>0</ele>
        <time>2010-01-02T01:56:52Z</time>
      </trkpt>
      <trkpt lat="53.911748249083757" lon="9.409219063818455">
        <ele>0</ele>
        <time>2010-01-02T01:56:49Z</time>
      </trkpt>
      <trkpt lat="53.911771969869733" lon="9.40923591144383">
        <ele>0</ele>
        <time>2010-01-02T01:56:48Z</time>
      </trkpt>
      <trkpt lat="53.9119394402951" lon="9.40935468301177">
        <ele>0</ele>
        <time>2010-01-02T01:56:41Z</time>
      </trkpt>
      <trkpt lat="53.912261053919792" lon="9.409571355208755">
        <ele>0</ele>
        <time>2010-01-02T01:56:27Z</time>
      </trkpt>
      <trkpt lat="53.912261053919792" lon="9.409571355208755">
        <ele>0</ele>
        <time>2010-01-02T01:57:30Z</time>
      </trkpt>
      <trkpt lat="53.912358870729804" lon="9.409645535051823">
        <ele>0</ele>
        <time>2010-01-02T01:57:35Z</time>
      </trkpt>
      <trkpt lat="53.912402037531137" lon="9.409709656611085">
        <ele>0</ele>
        <time>2010-01-02T01:57:37Z</time>
      </trkpt>
      <trkpt lat="53.912439001724124" lon="9.409805126488209">
        <ele>0</ele>
        <time>2010-01-02T01:57:40Z</time>
      </trkpt>
      <trkpt lat="53.912459788843989" lon="9.409885425120592">
        <ele>0</ele>
        <time>2010-01-02T01:57:42Z</time>
      </trkpt>
      <trkpt lat="53.912508152425289" lon="9.410156160593033">
        <ele>0</ele>
        <time>2010-01-02T01:57:48Z</time>
      </trkpt>
      <trkpt lat="53.912551151588559" lon="9.4104237947613">
        <ele>0</ele>
        <time>2010-01-02T01:57:55Z</time>
      </trkpt>
      <trkpt lat="53.912574620917439" lon="9.410684891045094">
        <ele>0</ele>
        <time>2010-01-02T01:58:01Z</time>
      </trkpt>
      <trkpt lat="53.91258493065834" lon="9.410827970132232">
        <ele>0</ele>
        <time>2010-01-02T01:58:04Z</time>
      </trkpt>
      <trkpt lat="53.912606053054333" lon="9.411208676174283">
        <ele>0</ele>
        <time>2010-01-02T01:58:13Z</time>
      </trkpt>
      <trkpt lat="53.912607477977872" lon="9.411319736391306">
        <ele>0</ele>
        <time>2010-01-02T01:58:16Z</time>
      </trkpt>
      <trkpt lat="53.912608735263348" lon="9.411474969238043">
        <ele>0</ele>
        <time>2010-01-02T01:58:20Z</time>
      </trkpt>
      <trkpt lat="53.912609405815601" lon="9.41157647408545">
        <ele>0</ele>
        <time>2010-01-02T01:58:22Z</time>
      </trkpt>
      <trkpt lat="53.912609908729792" lon="9.411657610908151">
        <ele>0</ele>
        <time>2010-01-02T01:58:24Z</time>
      </trkpt>
      <trkpt lat="53.91260496340692" lon="9.411799097433686">
        <ele>0</ele>
        <time>2010-01-02T01:58:27Z</time>
      </trkpt>
      <trkpt lat="53.912588115781546" lon="9.411978470161557">
        <ele>0</ele>
        <time>2010-01-02T01:58:32Z</time>
      </trkpt>
      <trkpt lat="53.912536483258009" lon="9.412359930574894">
        <ele>0</ele>
        <time>2010-01-02T01:58:41Z</time>
      </trkpt>
      <trkpt lat="53.912411173805594" lon="9.41302377730608">
        <ele>0</ele>
        <time>2010-01-02T01:58:57Z</time>
      </trkpt>
      <trkpt lat="53.912284858524799" lon="9.413689048960805">
        <ele>0</ele>
        <time>2010-01-02T01:59:14Z</time>
      </trkpt>
      <trkpt lat="53.912184191867709" lon="9.414209984242916">
        <ele>0</ele>
        <time>2010-01-02T01:59:27Z</time>
      </trkpt>
      <trkpt lat="53.91213046386838" lon="9.414431601762772">
        <ele>0</ele>
        <time>2010-01-02T01:59:32Z</time>
      </trkpt>
      <trkpt lat="53.912064163014293" lon="9.41463184542954">
        <ele>0</ele>
        <time>2010-01-02T01:59:38Z</time>
      </trkpt>
      <trkpt lat="53.911999873816967" lon="9.414777271449566">
        <ele>0</ele>
        <time>2010-01-02T01:59:42Z</time>
      </trkpt>
      <trkpt lat="53.911923011764884" lon="9.41492110490799">
        <ele>0</ele>
        <time>2010-01-02T01:59:47Z</time>
      </trkpt>
      <trkpt lat="53.911917563527822" lon="9.414931666105986">
        <ele>0</ele>
        <time>2010-01-02T01:59:47Z</time>
      </trkpt>
      <trkpt lat="53.911792086437345" lon="9.415119169279933">
        <ele>0</ele>
        <time>2010-01-02T01:59:54Z</time>
      </trkpt>
      <trkpt lat="53.911739615723491" lon="9.415209945291281">
        <ele>0</ele>
        <time>2010-01-02T01:59:57Z</time>
      </trkpt>
      <trkpt lat="53.911689911037683" lon="9.415311366319656">
        <ele>0</ele>
        <time>2010-01-02T02:00:00Z</time>
      </trkpt>
      <trkpt lat="53.91165554523468" lon="9.415368866175413">
        <ele>0</ele>
        <time>2010-01-02T02:00:02Z</time>
      </trkpt>
      <trkpt lat="53.91161547973752" lon="9.415528289973736">
        <ele>0</ele>
        <time>2010-01-02T02:00:06Z</time>
      </trkpt>
      <trkpt lat="53.911586059257388" lon="9.415702968835831">
        <ele>0</ele>
        <time>2010-01-02T02:00:10Z</time>
      </trkpt>
      <trkpt lat="53.911439292132854" lon="9.417090844362974">
        <ele>0</ele>
        <time>2010-01-02T02:00:43Z</time>
      </trkpt>
      <trkpt lat="53.911415236070752" lon="9.41730516962707">
        <ele>0</ele>
        <time>2010-01-02T02:00:48Z</time>
      </trkpt>
      <trkpt lat="53.911383133381605" lon="9.417490493506193">
        <ele>0</ele>
        <time>2010-01-02T02:00:53Z</time>
      </trkpt>
      <trkpt lat="53.911330327391624" lon="9.417680259793997">
        <ele>0</ele>
        <time>2010-01-02T02:00:58Z</time>
      </trkpt>
      <trkpt lat="53.911283975467086" lon="9.417833480983973">
        <ele>0</ele>
        <time>2010-01-02T02:01:02Z</time>
      </trkpt>
      <trkpt lat="53.911188757047057" lon="9.418098768219352">
        <ele>0</ele>
        <time>2010-01-02T02:01:09Z</time>
      </trkpt>
      <trkpt lat="53.911094460636377" lon="9.418301777914166">
        <ele>0</ele>
        <time>2010-01-02T02:01:15Z</time>
      </trkpt>
      <trkpt lat="53.911062860861421" lon="9.418369922786951">
        <ele>0</ele>
        <time>2010-01-02T02:01:18Z</time>
      </trkpt>
      <trkpt lat="53.910973258316517" lon="9.418571423739195">
        <ele>0</ele>
        <time>2010-01-02T02:01:23Z</time>
      </trkpt>
      <trkpt lat="53.91093235462904" lon="9.418706456199288">
        <ele>0</ele>
        <time>2010-01-02T02:01:27Z</time>
      </trkpt>
      <trkpt lat="53.910889690741897" lon="9.418836878612638">
        <ele>0</ele>
        <time>2010-01-02T02:01:31Z</time>
      </trkpt>
      <trkpt lat="53.910868903622031" lon="9.418959505856037">
        <ele>0</ele>
        <time>2010-01-02T02:01:34Z</time>
      </trkpt>
      <trkpt lat="53.910852055996656" lon="9.419058663770556">
        <ele>0</ele>
        <time>2010-01-02T02:01:36Z</time>
      </trkpt>
      <trkpt lat="53.910791371017694" lon="9.41946585662663">
        <ele>0</ele>
        <time>2010-01-02T02:01:46Z</time>
      </trkpt>
      <trkpt lat="53.910734206438065" lon="9.419877659529448">
        <ele>0</ele>
        <time>2010-01-02T02:01:56Z</time>
      </trkpt>
      <trkpt lat="53.910706713795662" lon="9.42003414966166">
        <ele>0</ele>
        <time>2010-01-02T02:02:00Z</time>
      </trkpt>
      <trkpt lat="53.910659104585648" lon="9.42028627730906">
        <ele>0</ele>
        <time>2010-01-02T02:02:06Z</time>
      </trkpt>
      <trkpt lat="53.910634210333228" lon="9.420448886230588">
        <ele>0</ele>
        <time>2010-01-02T02:02:10Z</time>
      </trkpt>
      <trkpt lat="53.91062549315393" lon="9.420638987794518">
        <ele>0</ele>
        <time>2010-01-02T02:02:14Z</time>
      </trkpt>
      <trkpt lat="53.910633875057101" lon="9.420800339430571">
        <ele>0</ele>
        <time>2010-01-02T02:02:18Z</time>
      </trkpt>
      <trkpt lat="53.910649716854095" lon="9.420911651104689">
        <ele>0</ele>
        <time>2010-01-02T02:02:21Z</time>
      </trkpt>
      <trkpt lat="53.910692632198334" lon="9.421230079606175">
        <ele>0</ele>
        <time>2010-01-02T02:02:29Z</time>
      </trkpt>
      <trkpt lat="53.910770332440734" lon="9.421617407351732">
        <ele>0</ele>
        <time>2010-01-02T02:02:38Z</time>
      </trkpt>
      <trkpt lat="53.910824311897159" lon="9.421850759536028">
        <ele>0</ele>
        <time>2010-01-02T02:02:44Z</time>
      </trkpt>
      <trkpt lat="53.910909555852413" lon="9.422128535807133">
        <ele>0</ele>
        <time>2010-01-02T02:02:52Z</time>
      </trkpt>
      <trkpt lat="53.911010306328535" lon="9.422391643747687">
        <ele>0</ele>
        <time>2010-01-02T02:02:59Z</time>
      </trkpt>
      <trkpt lat="53.911054395139217" lon="9.422583505511284">
        <ele>0</ele>
        <time>2010-01-02T02:03:04Z</time>
      </trkpt>
      <trkpt lat="53.911073757335544" lon="9.422964127734303">
        <ele>0</ele>
        <time>2010-01-02T02:03:13Z</time>
      </trkpt>
      <trkpt lat="53.911074427887797" lon="9.423268474638462">
        <ele>0</ele>
        <time>2010-01-02T02:03:20Z</time>
      </trkpt>
      <trkpt lat="53.911090353503823" lon="9.423597296699882">
        <ele>0</ele>
        <time>2010-01-02T02:03:28Z</time>
      </trkpt>
      <trkpt lat="53.91111658886075" lon="9.423908600583673">
        <ele>0</ele>
        <time>2010-01-02T02:03:35Z</time>
      </trkpt>
      <trkpt lat="53.911164617165923" lon="9.424155782908201">
        <ele>0</ele>
        <time>2010-01-02T02:03:41Z</time>
      </trkpt>
      <trkpt lat="53.911235192790627" lon="9.424352338537574">
        <ele>0</ele>
        <time>2010-01-02T02:03:47Z</time>
      </trkpt>
      <trkpt lat="53.911303924396634" lon="9.424439510330558">
        <ele>0</ele>
        <time>2010-01-02T02:03:50Z</time>
      </trkpt>
      <trkpt lat="53.911442896351218" lon="9.424521569162607">
        <ele>0</ele>
        <time>2010-01-02T02:03:56Z</time>
      </trkpt>
      <trkpt lat="53.911761241033673" lon="9.424687614664435">
        <ele>0</ele>
        <time>2010-01-02T02:04:09Z</time>
      </trkpt>
      <trkpt lat="53.912248816341162" lon="9.42501668818295">
        <ele>0</ele>
        <time>2010-01-02T02:04:30Z</time>
      </trkpt>
      <trkpt lat="53.913291608914733" lon="9.425623873248696">
        <ele>0</ele>
        <time>2010-01-02T02:05:15Z</time>
      </trkpt>
      <trkpt lat="53.913518590852618" lon="9.425697717815638">
        <ele>0</ele>
        <time>2010-01-02T02:05:24Z</time>
      </trkpt>
      <trkpt lat="53.913724198937416" lon="9.425740884616971">
        <ele>0</ele>
        <time>2010-01-02T02:05:32Z</time>
      </trkpt>
      <trkpt lat="53.914105240255594" lon="9.425720432773232">
        <ele>0</ele>
        <time>2010-01-02T02:05:47Z</time>
      </trkpt>
      <trkpt lat="53.914296599105" lon="9.425722360610962">
        <ele>0</ele>
        <time>2010-01-02T02:05:55Z</time>
      </trkpt>
      <trkpt lat="53.914497848600149" lon="9.425722863525152">
        <ele>0</ele>
        <time>2010-01-02T02:06:03Z</time>
      </trkpt>
      <trkpt lat="53.914867239072919" lon="9.425760330632329">
        <ele>0</ele>
        <time>2010-01-02T02:06:18Z</time>
      </trkpt>
      <trkpt lat="53.915110230445862" lon="9.425826547667384">
        <ele>0</ele>
        <time>2010-01-02T02:06:28Z</time>
      </trkpt>
      <trkpt lat="53.915267726406455" lon="9.425945151597261">
        <ele>0</ele>
        <time>2010-01-02T02:06:35Z</time>
      </trkpt>
      <trkpt lat="53.915379708632827" lon="9.426098624244332">
        <ele>0</ele>
        <time>2010-01-02T02:06:40Z</time>
      </trkpt>
      <trkpt lat="53.915462773293257" lon="9.426242541521788">
        <ele>0</ele>
        <time>2010-01-02T02:06:45Z</time>
      </trkpt>
      <trkpt lat="53.915657484903932" lon="9.426642190665007">
        <ele>0</ele>
        <time>2010-01-02T02:06:57Z</time>
      </trkpt>
      <trkpt lat="53.915787152945995" lon="9.426979394629598">
        <ele>0</ele>
        <time>2010-01-02T02:07:07Z</time>
      </trkpt>
      <trkpt lat="53.915796037763357" lon="9.427000852301717">
        <ele>0</ele>
        <time>2010-01-02T02:07:08Z</time>
      </trkpt>
      <trkpt lat="53.915859237313271" lon="9.427184080705047">
        <ele>0</ele>
        <time>2010-01-02T02:07:13Z</time>
      </trkpt>
      <trkpt lat="53.915909612551332" lon="9.427403770387173">
        <ele>0</ele>
        <time>2010-01-02T02:07:18Z</time>
      </trkpt>
      <trkpt lat="53.915965436026454" lon="9.427626561373472">
        <ele>0</ele>
        <time>2010-01-02T02:07:24Z</time>
      </trkpt>
      <trkpt lat="53.91603609547019" lon="9.4279635977">
        <ele>0</ele>
        <time>2010-01-02T02:07:32Z</time>
      </trkpt>
      <trkpt lat="53.916080603376031" lon="9.428093433380127">
        <ele>0</ele>
        <time>2010-01-02T02:07:36Z</time>
      </trkpt>
      <trkpt lat="53.91613039188087" lon="9.428221760317683">
        <ele>0</ele>
        <time>2010-01-02T02:07:39Z</time>
      </trkpt>
      <trkpt lat="53.916199877858162" lon="9.428389901295304">
        <ele>0</ele>
        <time>2010-01-02T02:07:44Z</time>
      </trkpt>
      <trkpt lat="53.916287217289209" lon="9.428588636219501">
        <ele>0</ele>
        <time>2010-01-02T02:07:50Z</time>
      </trkpt>
      <trkpt lat="53.91633172519505" lon="9.428709335625172">
        <ele>0</ele>
        <time>2010-01-02T02:07:53Z</time>
      </trkpt>
      <trkpt lat="53.916357457637787" lon="9.428794831037521">
        <ele>0</ele>
        <time>2010-01-02T02:07:56Z</time>
      </trkpt>
      <trkpt lat="53.916413364931941" lon="9.42900387570262">
        <ele>0</ele>
        <time>2010-01-02T02:08:01Z</time>
      </trkpt>
      <trkpt lat="53.916447814553976" lon="9.429171681404114">
        <ele>0</ele>
        <time>2010-01-02T02:08:05Z</time>
      </trkpt>
      <trkpt lat="53.916721232235432" lon="9.43059291690588">
        <ele>0</ele>
        <time>2010-01-02T02:08:41Z</time>
      </trkpt>
      <trkpt lat="53.916724752634764" lon="9.430614206939936">
        <ele>0</ele>
        <time>2010-01-02T02:08:41Z</time>
      </trkpt>
      <trkpt lat="53.916778396815062" lon="9.430920733138919">
        <ele>0</ele>
        <time>2010-01-02T02:08:49Z</time>
      </trkpt>
      <trkpt lat="53.916822737082839" lon="9.431332116946578">
        <ele>0</ele>
        <time>2010-01-02T02:08:58Z</time>
      </trkpt>
      <trkpt lat="53.916851319372654" lon="9.431626070290804">
        <ele>0</ele>
        <time>2010-01-02T02:09:06Z</time>
      </trkpt>
      <trkpt lat="53.916882835328579" lon="9.4321149867028">
        <ele>0</ele>
        <time>2010-01-02T02:09:17Z</time>
      </trkpt>
      <trkpt lat="53.916895492002368" lon="9.432340376079082">
        <ele>0</ele>
        <time>2010-01-02T02:09:22Z</time>
      </trkpt>
      <trkpt lat="53.916916949674487" lon="9.432876314967871">
        <ele>0</ele>
        <time>2010-01-02T02:09:35Z</time>
      </trkpt>
      <trkpt lat="53.916918206959963" lon="9.433359950780869">
        <ele>0</ele>
        <time>2010-01-02T02:09:47Z</time>
      </trkpt>
      <trkpt lat="53.916918458417058" lon="9.433448547497392">
        <ele>0</ele>
        <time>2010-01-02T02:09:49Z</time>
      </trkpt>
      <trkpt lat="53.916901778429747" lon="9.4338349532336">
        <ele>0</ele>
        <time>2010-01-02T02:09:58Z</time>
      </trkpt>
      <trkpt lat="53.916842853650451" lon="9.434470552951097">
        <ele>0</ele>
        <time>2010-01-02T02:10:13Z</time>
      </trkpt>
      <trkpt lat="53.916797675192356" lon="9.434800297021866">
        <ele>0</ele>
        <time>2010-01-02T02:10:21Z</time>
      </trkpt>
      <trkpt lat="53.916620314121246" lon="9.435646198689938">
        <ele>0</ele>
        <time>2010-01-02T02:10:42Z</time>
      </trkpt>
      <trkpt lat="53.916349159553647" lon="9.436835004016757">
        <ele>0</ele>
        <time>2010-01-02T02:11:12Z</time>
      </trkpt>
      <trkpt lat="53.916316386312246" lon="9.436938185244799">
        <ele>0</ele>
        <time>2010-01-02T02:11:15Z</time>
      </trkpt>
      <trkpt lat="53.916262909770012" lon="9.437077660113573">
        <ele>0</ele>
        <time>2010-01-02T02:11:19Z</time>
      </trkpt>
      <trkpt lat="53.916062833741307" lon="9.437492564320564">
        <ele>0</ele>
        <time>2010-01-02T02:11:31Z</time>
      </trkpt>
      <trkpt lat="53.916011201217771" lon="9.437610665336251">
        <ele>0</ele>
        <time>2010-01-02T02:11:35Z</time>
      </trkpt>
      <trkpt lat="53.915921347215772" lon="9.437853237614036">
        <ele>0</ele>
        <time>2010-01-02T02:11:42Z</time>
      </trkpt>
      <trkpt lat="53.915833253413439" lon="9.438101928681135">
        <ele>0</ele>
        <time>2010-01-02T02:11:48Z</time>
      </trkpt>
      <trkpt lat="53.915693275630474" lon="9.438552455976605">
        <ele>0</ele>
        <time>2010-01-02T02:12:01Z</time>
      </trkpt>
      <trkpt lat="53.915567463263869" lon="9.439048832282424">
        <ele>0</ele>
        <time>2010-01-02T02:12:13Z</time>
      </trkpt>
      <trkpt lat="53.915478866547346" lon="9.439446637406945">
        <ele>0</ele>
        <time>2010-01-02T02:12:23Z</time>
      </trkpt>
      <trkpt lat="53.915413403883576" lon="9.439898254349828">
        <ele>0</ele>
        <time>2010-01-02T02:12:34Z</time>
      </trkpt>
      <trkpt lat="53.91539404168725" lon="9.440518682822585">
        <ele>0</ele>
        <time>2010-01-02T02:12:49Z</time>
      </trkpt>
      <trkpt lat="53.915409715846181" lon="9.440907686948776">
        <ele>0</ele>
        <time>2010-01-02T02:12:58Z</time>
      </trkpt>
      <trkpt lat="53.915452631190419" lon="9.441222343593836">
        <ele>0</ele>
        <time>2010-01-02T02:13:06Z</time>
      </trkpt>
      <trkpt lat="53.915545418858528" lon="9.441620567813516">
        <ele>0</ele>
        <time>2010-01-02T02:13:16Z</time>
      </trkpt>
      <trkpt lat="53.91584062948823" lon="9.442524304613471">
        <ele>0</ele>
        <time>2010-01-02T02:13:40Z</time>
      </trkpt>
      <trkpt lat="53.916077837347984" lon="9.443198293447495">
        <ele>0</ele>
        <time>2010-01-02T02:13:59Z</time>
      </trkpt>
      <trkpt lat="53.916228208690882" lon="9.443577323108912">
        <ele>0</ele>
        <time>2010-01-02T02:14:09Z</time>
      </trkpt>
      <trkpt lat="53.916266597807407" lon="9.443661477416754">
        <ele>0</ele>
        <time>2010-01-02T02:14:12Z</time>
      </trkpt>
      <trkpt lat="53.916421663016081" lon="9.44399943575263">
        <ele>0</ele>
        <time>2010-01-02T02:14:22Z</time>
      </trkpt>
      <trkpt lat="53.916771356016397" lon="9.444668227806687">
        <ele>0</ele>
        <time>2010-01-02T02:14:43Z</time>
      </trkpt>
      <trkpt lat="53.916839249432087" lon="9.444778533652425">
        <ele>0</ele>
        <time>2010-01-02T02:14:47Z</time>
      </trkpt>
      <trkpt lat="53.917104452848434" lon="9.445209028199315">
        <ele>0</ele>
        <time>2010-01-02T02:15:02Z</time>
      </trkpt>
      <trkpt lat="53.917230516672134" lon="9.445391502231359">
        <ele>0</ele>
        <time>2010-01-02T02:15:08Z</time>
      </trkpt>
      <trkpt lat="53.917400250211358" lon="9.445638349279761">
        <ele>0</ele>
        <time>2010-01-02T02:15:17Z</time>
      </trkpt>
      <trkpt lat="53.917685402557254" lon="9.446043195202947">
        <ele>0</ele>
        <time>2010-01-02T02:15:32Z</time>
      </trkpt>
      <trkpt lat="53.918117238208652" lon="9.446598747745156">
        <ele>0</ele>
        <time>2010-01-02T02:15:54Z</time>
      </trkpt>
      <trkpt lat="53.918317900970578" lon="9.446763787418604">
        <ele>0</ele>
        <time>2010-01-02T02:16:03Z</time>
      </trkpt>
      <trkpt lat="53.918351931497455" lon="9.446790022775531">
        <ele>0</ele>
        <time>2010-01-02T02:16:04Z</time>
      </trkpt>
      <trkpt lat="53.918464835733175" lon="9.446880966424942">
        <ele>0</ele>
        <time>2010-01-02T02:16:09Z</time>
      </trkpt>
      <trkpt lat="53.918503392487764" lon="9.446902675554156">
        <ele>0</ele>
        <time>2010-01-02T02:16:11Z</time>
      </trkpt>
      <trkpt lat="53.918599281460047" lon="9.446956990286708">
        <ele>0</ele>
        <time>2010-01-02T02:16:15Z</time>
      </trkpt>
      <trkpt lat="53.918710509315133" lon="9.447009963914752">
        <ele>0</ele>
        <time>2010-01-02T02:16:19Z</time>
      </trkpt>
      <trkpt lat="53.918833555653691" lon="9.447026476264">
        <ele>0</ele>
        <time>2010-01-02T02:16:24Z</time>
      </trkpt>
      <trkpt lat="53.919013263657689" lon="9.447017759084702">
        <ele>0</ele>
        <time>2010-01-02T02:16:32Z</time>
      </trkpt>
      <trkpt lat="53.919441075995564" lon="9.446966042742133">
        <ele>0</ele>
        <time>2010-01-02T02:16:49Z</time>
      </trkpt>
      <trkpt lat="53.92021237872541" lon="9.446850959211588">
        <ele>0</ele>
        <time>2010-01-02T02:17:20Z</time>
      </trkpt>
      <trkpt lat="53.921084431931376" lon="9.446720285341144">
        <ele>0</ele>
        <time>2010-01-02T02:17:55Z</time>
      </trkpt>
      <trkpt lat="53.921535545960069" lon="9.446636801585555">
        <ele>0</ele>
        <time>2010-01-02T02:18:13Z</time>
      </trkpt>
      <trkpt lat="53.921672254800797" lon="9.446641327813268">
        <ele>0</ele>
        <time>2010-01-02T02:18:18Z</time>
      </trkpt>
      <trkpt lat="53.92178725451231" lon="9.446675609797239">
        <ele>0</ele>
        <time>2010-01-02T02:18:23Z</time>
      </trkpt>
      <trkpt lat="53.921892866492271" lon="9.446751717478037">
        <ele>0</ele>
        <time>2010-01-02T02:18:28Z</time>
      </trkpt>
      <trkpt lat="53.92197878099978" lon="9.446847019717097">
        <ele>0</ele>
        <time>2010-01-02T02:18:32Z</time>
      </trkpt>
      <trkpt lat="53.921986827626824" lon="9.446859341114759">
        <ele>0</ele>
        <time>2010-01-02T02:18:32Z</time>
      </trkpt>
      <trkpt lat="53.922003842890263" lon="9.44688381627202">
        <ele>0</ele>
        <time>2010-01-02T02:18:33Z</time>
      </trkpt>
      <trkpt lat="53.922049272805452" lon="9.446974089369178">
        <ele>0</ele>
        <time>2010-01-02T02:18:36Z</time>
      </trkpt>
      <trkpt lat="53.922107107937336" lon="9.447126975283027">
        <ele>0</ele>
        <time>2010-01-02T02:18:40Z</time>
      </trkpt>
      <trkpt lat="53.922167541459203" lon="9.447316322475672">
        <ele>0</ele>
        <time>2010-01-02T02:18:45Z</time>
      </trkpt>
      <trkpt lat="53.922230741009116" lon="9.447470800951123">
        <ele>0</ele>
        <time>2010-01-02T02:18:50Z</time>
      </trkpt>
      <trkpt lat="53.922241386026144" lon="9.447498293593526">
        <ele>0</ele>
        <time>2010-01-02T02:18:51Z</time>
      </trkpt>
      <trkpt lat="53.922301316633821" lon="9.447581106796861">
        <ele>0</ele>
        <time>2010-01-02T02:18:54Z</time>
      </trkpt>
      <trkpt lat="53.922371221706271" lon="9.447632068768144">
        <ele>0</ele>
        <time>2010-01-02T02:18:57Z</time>
      </trkpt>
      <trkpt lat="53.922359067946672" lon="9.447746146470308">
        <ele>0</ele>
        <time>2010-01-02T02:18:59Z</time>
      </trkpt>
      <trkpt lat="53.922367701306939" lon="9.447849746793509">
        <ele>0</ele>
        <time>2010-01-02T02:19:02Z</time>
      </trkpt>
      <trkpt lat="53.92239511013031" lon="9.447955023497343">
        <ele>0</ele>
        <time>2010-01-02T02:19:05Z</time>
      </trkpt>
      <trkpt lat="53.922463757917285" lon="9.448101874440908">
        <ele>0</ele>
        <time>2010-01-02T02:19:09Z</time>
      </trkpt>
      <trkpt lat="53.922795010730624" lon="9.448650386184454">
        <ele>0</ele>
        <time>2010-01-02T02:19:27Z</time>
      </trkpt>
      <trkpt lat="53.922888720408082" lon="9.448820371180773">
        <ele>0</ele>
        <time>2010-01-02T02:19:33Z</time>
      </trkpt>
      <trkpt lat="53.923081252723932" lon="9.44931180216372">
        <ele>0</ele>
        <time>2010-01-02T02:19:47Z</time>
      </trkpt>
      <trkpt lat="53.923262134194374" lon="9.449865510687232">
        <ele>0</ele>
        <time>2010-01-02T02:20:02Z</time>
      </trkpt>
      <trkpt lat="53.923371937125921" lon="9.45029441267252">
        <ele>0</ele>
        <time>2010-01-02T02:20:13Z</time>
      </trkpt>
      <trkpt lat="53.923416780307889" lon="9.450556766241789">
        <ele>0</ele>
        <time>2010-01-02T02:20:19Z</time>
      </trkpt>
      <trkpt lat="53.923476124182343" lon="9.451023135334253">
        <ele>0</ele>
        <time>2010-01-02T02:20:31Z</time>
      </trkpt>
      <trkpt lat="53.923515602946281" lon="9.451525881886482">
        <ele>0</ele>
        <time>2010-01-02T02:20:42Z</time>
      </trkpt>
      <trkpt lat="53.923553070053458" lon="9.452299615368247">
        <ele>0</ele>
        <time>2010-01-02T02:21:01Z</time>
      </trkpt>
      <trkpt lat="53.923571091145277" lon="9.452762547880411">
        <ele>0</ele>
        <time>2010-01-02T02:21:12Z</time>
      </trkpt>
      <trkpt lat="53.923594560474157" lon="9.452981986105442">
        <ele>0</ele>
        <time>2010-01-02T02:21:17Z</time>
      </trkpt>
      <trkpt lat="53.923623478040099" lon="9.453172590583563">
        <ele>0</ele>
        <time>2010-01-02T02:21:22Z</time>
      </trkpt>
      <trkpt lat="53.923694724217057" lon="9.45357215590775">
        <ele>0</ele>
        <time>2010-01-02T02:21:31Z</time>
      </trkpt>
      <trkpt lat="53.923746440559626" lon="9.453930398449302">
        <ele>0</ele>
        <time>2010-01-02T02:21:40Z</time>
      </trkpt>
      <trkpt lat="53.92376915551722" lon="9.454254442825913">
        <ele>0</ele>
        <time>2010-01-02T02:21:48Z</time>
      </trkpt>
      <trkpt lat="53.92375448718667" lon="9.454869674518704">
        <ele>0</ele>
        <time>2010-01-02T02:22:02Z</time>
      </trkpt>
      <trkpt lat="53.923750212416053" lon="9.455366302281618">
        <ele>0</ele>
        <time>2010-01-02T02:22:14Z</time>
      </trkpt>
      <trkpt lat="53.923759181052446" lon="9.455838957801461">
        <ele>0</ele>
        <time>2010-01-02T02:22:25Z</time>
      </trkpt>
      <trkpt lat="53.923766305670142" lon="9.456025203689933">
        <ele>0</ele>
        <time>2010-01-02T02:22:30Z</time>
      </trkpt>
      <trkpt lat="53.923789607360959" lon="9.456521663814783">
        <ele>0</ele>
        <time>2010-01-02T02:22:41Z</time>
      </trkpt>
      <trkpt lat="53.923814501613379" lon="9.456826345995069">
        <ele>0</ele>
        <time>2010-01-02T02:22:49Z</time>
      </trkpt>
      <trkpt lat="53.923847023397684" lon="9.457015441730618">
        <ele>0</ele>
        <time>2010-01-02T02:22:53Z</time>
      </trkpt>
      <trkpt lat="53.9238859154284" lon="9.457180313766003">
        <ele>0</ele>
        <time>2010-01-02T02:22:57Z</time>
      </trkpt>
      <trkpt lat="53.923922376707196" lon="9.457272011786699">
        <ele>0</ele>
        <time>2010-01-02T02:23:00Z</time>
      </trkpt>
      <trkpt lat="53.923958083614707" lon="9.4573272485286">
        <ele>0</ele>
        <time>2010-01-02T02:23:02Z</time>
      </trkpt>
      <trkpt lat="53.923995718359947" lon="9.457364128902555">
        <ele>0</ele>
        <time>2010-01-02T02:23:04Z</time>
      </trkpt>
      <trkpt lat="53.924071155488491" lon="9.457369577139616">
        <ele>0</ele>
        <time>2010-01-02T02:23:07Z</time>
      </trkpt>
      <trkpt lat="53.924270560964942" lon="9.457374773919582">
        <ele>0</ele>
        <time>2010-01-02T02:23:15Z</time>
      </trkpt>
      <trkpt lat="53.924683788791299" lon="9.457397572696209">
        <ele>0</ele>
        <time>2010-01-02T02:23:31Z</time>
      </trkpt>
      <trkpt lat="53.924808511510491" lon="9.457429340109229">
        <ele>0</ele>
        <time>2010-01-02T02:23:36Z</time>
      </trkpt>
      <trkpt lat="53.925033817067742" lon="9.457494299858809">
        <ele>0</ele>
        <time>2010-01-02T02:23:45Z</time>
      </trkpt>
      <trkpt lat="53.925328776240349" lon="9.457658836618066">
        <ele>0</ele>
        <time>2010-01-02T02:23:58Z</time>
      </trkpt>
      <trkpt lat="53.925622561946511" lon="9.457885818555951">
        <ele>0</ele>
        <time>2010-01-02T02:24:11Z</time>
      </trkpt>
      <trkpt lat="53.925900002941489" lon="9.458171976730227">
        <ele>0</ele>
        <time>2010-01-02T02:24:24Z</time>
      </trkpt>
      <trkpt lat="53.926141317933798" lon="9.458512617275119">
        <ele>0</ele>
        <time>2010-01-02T02:24:36Z</time>
      </trkpt>
      <trkpt lat="53.926309961825609" lon="9.458805229514837">
        <ele>0</ele>
        <time>2010-01-02T02:24:46Z</time>
      </trkpt>
      <trkpt lat="53.926368802785873" lon="9.458932215347886">
        <ele>0</ele>
        <time>2010-01-02T02:24:50Z</time>
      </trkpt>
      <trkpt lat="53.926434768363833" lon="9.459074540063739">
        <ele>0</ele>
        <time>2010-01-02T02:24:54Z</time>
      </trkpt>
      <trkpt lat="53.926487322896719" lon="9.459187695756555">
        <ele>0</ele>
        <time>2010-01-02T02:24:58Z</time>
      </trkpt>
      <trkpt lat="53.926580864936113" lon="9.459386682137847">
        <ele>0</ele>
        <time>2010-01-02T02:25:04Z</time>
      </trkpt>
      <trkpt lat="53.926655631512403" lon="9.459579298272729">
        <ele>0</ele>
        <time>2010-01-02T02:25:09Z</time>
      </trkpt>
      <trkpt lat="53.926717825233936" lon="9.45977333933115">
        <ele>0</ele>
        <time>2010-01-02T02:25:14Z</time>
      </trkpt>
      <trkpt lat="53.926769960671663" lon="9.459979366511106">
        <ele>0</ele>
        <time>2010-01-02T02:25:19Z</time>
      </trkpt>
      <trkpt lat="53.926837099716067" lon="9.460277007892728">
        <ele>0</ele>
        <time>2010-01-02T02:25:27Z</time>
      </trkpt>
      <trkpt lat="53.926914632320404" lon="9.460696438327432">
        <ele>0</ele>
        <time>2010-01-02T02:25:37Z</time>
      </trkpt>
      <trkpt lat="53.926951596513391" lon="9.460893245413899">
        <ele>0</ele>
        <time>2010-01-02T02:25:42Z</time>
      </trkpt>
      <trkpt lat="53.927010605111718" lon="9.46119231171906">
        <ele>0</ele>
        <time>2010-01-02T02:25:50Z</time>
      </trkpt>
      <trkpt lat="53.927085539326072" lon="9.461569078266621">
        <ele>0</ele>
        <time>2010-01-02T02:25:59Z</time>
      </trkpt>
      <trkpt lat="53.927212441340089" lon="9.4622159935534">
        <ele>0</ele>
        <time>2010-01-02T02:26:15Z</time>
      </trkpt>
      <trkpt lat="53.927334481850266" lon="9.462724272161722">
        <ele>0</ele>
        <time>2010-01-02T02:26:28Z</time>
      </trkpt>
      <trkpt lat="53.927400028333068" lon="9.462963994592428">
        <ele>0</ele>
        <time>2010-01-02T02:26:34Z</time>
      </trkpt>
      <trkpt lat="53.927495833486319" lon="9.463287787511945">
        <ele>0</ele>
        <time>2010-01-02T02:26:43Z</time>
      </trkpt>
      <trkpt lat="53.927540173754096" lon="9.463420724496245">
        <ele>0</ele>
        <time>2010-01-02T02:26:46Z</time>
      </trkpt>
      <trkpt lat="53.927595410495996" lon="9.463553745299578">
        <ele>0</ele>
        <time>2010-01-02T02:26:50Z</time>
      </trkpt>
      <trkpt lat="53.927663136273623" lon="9.463697662577033">
        <ele>0</ele>
        <time>2010-01-02T02:26:55Z</time>
      </trkpt>
      <trkpt lat="53.927733544260263" lon="9.463850632309914">
        <ele>0</ele>
        <time>2010-01-02T02:26:59Z</time>
      </trkpt>
      <trkpt lat="53.927889615297318" lon="9.464134024456143">
        <ele>0</ele>
        <time>2010-01-02T02:27:08Z</time>
      </trkpt>
      <trkpt lat="53.928006459027529" lon="9.464362096041441">
        <ele>0</ele>
        <time>2010-01-02T02:27:15Z</time>
      </trkpt>
      <trkpt lat="53.928200751543045" lon="9.464757051318884">
        <ele>0</ele>
        <time>2010-01-02T02:27:28Z</time>
      </trkpt>
      <trkpt lat="53.928244588896632" lon="9.46480474434793">
        <ele>0</ele>
        <time>2010-01-02T02:27:30Z</time>
      </trkpt>
      <trkpt lat="53.928282307460904" lon="9.464823435992002">
        <ele>0</ele>
        <time>2010-01-02T02:27:31Z</time>
      </trkpt>
      <trkpt lat="53.928329078480601" lon="9.464805666357279">
        <ele>0</ele>
        <time>2010-01-02T02:27:33Z</time>
      </trkpt>
      <trkpt lat="53.928679190576077" lon="9.464562507346272">
        <ele>0</ele>
        <time>2010-01-02T02:27:48Z</time>
      </trkpt>
      <trkpt lat="53.92879175953567" lon="9.465068271383643">
        <ele>0</ele>
        <time>2010-01-02T02:28:01Z</time>
      </trkpt>
      <trkpt lat="53.928817911073565" lon="9.465181175619364">
        <ele>0</ele>
        <time>2010-01-02T02:28:04Z</time>
      </trkpt>
      <trkpt lat="53.928844146430492" lon="9.465293996036053">
        <ele>0</ele>
        <time>2010-01-02T02:28:07Z</time>
      </trkpt>
      <trkpt lat="53.928948836401105" lon="9.46577712893486">
        <ele>0</ele>
        <time>2010-01-02T02:28:19Z</time>
      </trkpt>
      <trkpt lat="53.929060399532318" lon="9.466209886595607">
        <ele>0</ele>
        <time>2010-01-02T02:28:30Z</time>
      </trkpt>
      <trkpt lat="53.929100381210446" lon="9.466324467211962">
        <ele>0</ele>
        <time>2010-01-02T02:28:33Z</time>
      </trkpt>
      <trkpt lat="53.929168023169041" lon="9.466486573219299">
        <ele>0</ele>
        <time>2010-01-02T02:28:38Z</time>
      </trkpt>
      <trkpt lat="53.929234826937318" lon="9.466622862964869">
        <ele>0</ele>
        <time>2010-01-02T02:28:42Z</time>
      </trkpt>
      <trkpt lat="53.929301714524627" lon="9.466757560148835">
        <ele>0</ele>
        <time>2010-01-02T02:28:46Z</time>
      </trkpt>
      <trkpt lat="53.929365081712604" lon="9.466870883479714">
        <ele>0</ele>
        <time>2010-01-02T02:28:50Z</time>
      </trkpt>
      <trkpt lat="53.929425766691566" lon="9.466966018080711">
        <ele>0</ele>
        <time>2010-01-02T02:28:53Z</time>
      </trkpt>
      <trkpt lat="53.929484775289893" lon="9.467047322541475">
        <ele>0</ele>
        <time>2010-01-02T02:28:56Z</time>
      </trkpt>
      <trkpt lat="53.929552668705583" lon="9.467133320868015">
        <ele>0</ele>
        <time>2010-01-02T02:29:00Z</time>
      </trkpt>
      <trkpt lat="53.929646629840136" lon="9.467239435762167">
        <ele>0</ele>
        <time>2010-01-02T02:29:04Z</time>
      </trkpt>
      <trkpt lat="53.929812172427773" lon="9.467411767691374">
        <ele>0</ele>
        <time>2010-01-02T02:29:12Z</time>
      </trkpt>
      <trkpt lat="53.930321289226413" lon="9.467959525063634">
        <ele>0</ele>
        <time>2010-01-02T02:29:36Z</time>
      </trkpt>
      <trkpt lat="53.9304911904037" lon="9.46815624833107">
        <ele>0</ele>
        <time>2010-01-02T02:29:44Z</time>
      </trkpt>
      <trkpt lat="53.930606609210372" lon="9.468331094831228">
        <ele>0</ele>
        <time>2010-01-02T02:29:50Z</time>
      </trkpt>
      <trkpt lat="53.930736696347594" lon="9.468562435358763">
        <ele>0</ele>
        <time>2010-01-02T02:29:58Z</time>
      </trkpt>
      <trkpt lat="53.930878434330225" lon="9.468853287398815">
        <ele>0</ele>
        <time>2010-01-02T02:30:07Z</time>
      </trkpt>
      <trkpt lat="53.931052861735225" lon="9.469273975118995">
        <ele>0</ele>
        <time>2010-01-02T02:30:19Z</time>
      </trkpt>
      <trkpt lat="53.931182865053415" lon="9.469576813280582">
        <ele>0</ele>
        <time>2010-01-02T02:30:28Z</time>
      </trkpt>
      <trkpt lat="53.931353688240051" lon="9.469999009743333">
        <ele>0</ele>
        <time>2010-01-02T02:30:40Z</time>
      </trkpt>
      <trkpt lat="53.931911252439022" lon="9.469413030892611">
        <ele>0</ele>
        <time>2010-01-02T02:31:06Z</time>
      </trkpt>
      <trkpt lat="53.931995155289769" lon="9.469324098899961">
        <ele>0</ele>
        <time>2010-01-02T02:31:10Z</time>
      </trkpt>
      <trkpt lat="53.932060115039349" lon="9.469254780560732">
        <ele>0</ele>
        <time>2010-01-02T02:31:13Z</time>
      </trkpt>
      <trkpt lat="53.932213336229324" lon="9.469130141660571">
        <ele>0</ele>
        <time>2010-01-02T02:31:20Z</time>
      </trkpt>
      <trkpt lat="53.932352978736162" lon="9.469025200232863">
        <ele>0</ele>
        <time>2010-01-02T02:31:26Z</time>
      </trkpt>
      <trkpt lat="53.93251315690577" lon="9.468958480283618">
        <ele>0</ele>
        <time>2010-01-02T02:31:33Z</time>
      </trkpt>
      <trkpt lat="53.932655230164528" lon="9.468923527747393">
        <ele>0</ele>
        <time>2010-01-02T02:31:38Z</time>
      </trkpt>
      <trkpt lat="53.932798141613603" lon="9.468929646536708">
        <ele>0</ele>
        <time>2010-01-02T02:31:44Z</time>
      </trkpt>
      <trkpt lat="53.932938119396567" lon="9.468958647921681">
        <ele>0</ele>
        <time>2010-01-02T02:31:50Z</time>
      </trkpt>
      <trkpt lat="53.933099638670683" lon="9.469025954604149">
        <ele>0</ele>
        <time>2010-01-02T02:31:56Z</time>
      </trkpt>
      <trkpt lat="53.933244897052646" lon="9.469094518572092">
        <ele>0</ele>
        <time>2010-01-02T02:32:02Z</time>
      </trkpt>
      <trkpt lat="53.93337314017117" lon="9.469153862446547">
        <ele>0</ele>
        <time>2010-01-02T02:32:08Z</time>
      </trkpt>
      <trkpt lat="53.933522086590528" lon="9.469202728942037">
        <ele>0</ele>
        <time>2010-01-02T02:32:14Z</time>
      </trkpt>
      <trkpt lat="53.933690981939435" lon="9.46921220049262">
        <ele>0</ele>
        <time>2010-01-02T02:32:21Z</time>
      </trkpt>
      <trkpt lat="53.933771783486009" lon="9.469211613759398">
        <ele>0</ele>
        <time>2010-01-02T02:32:24Z</time>
      </trkpt>
      <trkpt lat="53.933864319697022" lon="9.469211110845208">
        <ele>0</ele>
        <time>2010-01-02T02:32:28Z</time>
      </trkpt>
      <trkpt lat="53.93407822586596" lon="9.469199795275927">
        <ele>0</ele>
        <time>2010-01-02T02:32:36Z</time>
      </trkpt>
      <trkpt lat="53.934282241389155" lon="9.469179259613156">
        <ele>0</ele>
        <time>2010-01-02T02:32:44Z</time>
      </trkpt>
      <trkpt lat="53.934293054044247" lon="9.46917942725122">
        <ele>0</ele>
        <time>2010-01-02T02:32:45Z</time>
      </trkpt>
      <trkpt lat="53.934398833662271" lon="9.469174984842539">
        <ele>0</ele>
        <time>2010-01-02T02:32:49Z</time>
      </trkpt>
      <trkpt lat="53.934583654627204" lon="9.469180097803473">
        <ele>0</ele>
        <time>2010-01-02T02:32:56Z</time>
      </trkpt>
      <trkpt lat="53.934804098680615" lon="9.469217145815492">
        <ele>0</ele>
        <time>2010-01-02T02:33:05Z</time>
      </trkpt>
      <trkpt lat="53.934894790872931" lon="9.469234915450215">
        <ele>0</ele>
        <time>2010-01-02T02:33:09Z</time>
      </trkpt>
      <trkpt lat="53.935012305155396" lon="9.469284955412149">
        <ele>0</ele>
        <time>2010-01-02T02:33:14Z</time>
      </trkpt>
      <trkpt lat="53.93512973561883" lon="9.469347149133682">
        <ele>0</ele>
        <time>2010-01-02T02:33:19Z</time>
      </trkpt>
      <trkpt lat="53.935250770300627" lon="9.469420071691275">
        <ele>0</ele>
        <time>2010-01-02T02:33:24Z</time>
      </trkpt>
      <trkpt lat="53.935285722836852" lon="9.469446390867233">
        <ele>0</ele>
        <time>2010-01-02T02:33:25Z</time>
      </trkpt>
      <trkpt lat="53.935375241562724" lon="9.469514368101954">
        <ele>0</ele>
        <time>2010-01-02T02:33:29Z</time>
      </trkpt>
      <trkpt lat="53.935509519651532" lon="9.469639174640179">
        <ele>0</ele>
        <time>2010-01-02T02:33:35Z</time>
      </trkpt>
      <trkpt lat="53.935992820188403" lon="9.470116691663861">
        <ele>0</ele>
        <time>2010-01-02T02:33:58Z</time>
      </trkpt>
      <trkpt lat="53.936149561777711" lon="9.470257004722953">
        <ele>0</ele>
        <time>2010-01-02T02:34:05Z</time>
      </trkpt>
      <trkpt lat="53.936297250911593" lon="9.470389606431127">
        <ele>0</ele>
        <time>2010-01-02T02:34:12Z</time>
      </trkpt>
      <trkpt lat="53.936414010822773" lon="9.47050116956234">
        <ele>0</ele>
        <time>2010-01-02T02:34:17Z</time>
      </trkpt>
      <trkpt lat="53.936536805704236" lon="9.470596052706242">
        <ele>0</ele>
        <time>2010-01-02T02:34:22Z</time>
      </trkpt>
      <trkpt lat="53.936651051044464" lon="9.470663107931614">
        <ele>0</ele>
        <time>2010-01-02T02:34:27Z</time>
      </trkpt>
      <trkpt lat="53.936793711036444" lon="9.4707225356251">
        <ele>0</ele>
        <time>2010-01-02T02:34:33Z</time>
      </trkpt>
      <trkpt lat="53.936829585582018" lon="9.470732090994716">
        <ele>0</ele>
        <time>2010-01-02T02:34:34Z</time>
      </trkpt>
      <trkpt lat="53.936970485374331" lon="9.470768719911575">
        <ele>0</ele>
        <time>2010-01-02T02:34:40Z</time>
      </trkpt>
      <trkpt lat="53.937118090689182" lon="9.47078213095665">
        <ele>0</ele>
        <time>2010-01-02T02:34:46Z</time>
      </trkpt>
      <trkpt lat="53.937317915260792" lon="9.470755727961659">
        <ele>0</ele>
        <time>2010-01-02T02:34:54Z</time>
      </trkpt>
      <trkpt lat="53.937493767589331" lon="9.470677189528942">
        <ele>0</ele>
        <time>2010-01-02T02:35:01Z</time>
      </trkpt>
      <trkpt lat="53.937692921608686" lon="9.470579205080867">
        <ele>0</ele>
        <time>2010-01-02T02:35:10Z</time>
      </trkpt>
      <trkpt lat="53.937933314591646" lon="9.470439059659839">
        <ele>0</ele>
        <time>2010-01-02T02:35:20Z</time>
      </trkpt>
      <trkpt lat="53.938126349821687" lon="9.470319449901581">
        <ele>0</ele>
        <time>2010-01-02T02:35:28Z</time>
      </trkpt>
      <trkpt lat="53.938490124419332" lon="9.470054749399424">
        <ele>0</ele>
        <time>2010-01-02T02:35:44Z</time>
      </trkpt>
      <trkpt lat="53.938641920685768" lon="9.469945449382067">
        <ele>0</ele>
        <time>2010-01-02T02:35:51Z</time>
      </trkpt>
      <trkpt lat="53.9387974049896" lon="9.469877975061536">
        <ele>0</ele>
        <time>2010-01-02T02:35:57Z</time>
      </trkpt>
      <trkpt lat="53.938909387215972" lon="9.469854086637497">
        <ele>0</ele>
        <time>2010-01-02T02:36:01Z</time>
      </trkpt>
      <trkpt lat="53.939010305330157" lon="9.470716752111912">
        <ele>0</ele>
        <time>2010-01-02T02:36:22Z</time>
      </trkpt>
      <trkpt lat="53.939097225666046" lon="9.471244644373655">
        <ele>0</ele>
        <time>2010-01-02T02:36:35Z</time>
      </trkpt>
      <trkpt lat="53.939236951991916" lon="9.471900863572955">
        <ele>0</ele>
        <time>2010-01-02T02:36:52Z</time>
      </trkpt>
      <trkpt lat="53.939376175403595" lon="9.472463205456734">
        <ele>0</ele>
        <time>2010-01-02T02:37:06Z</time>
      </trkpt>
      <trkpt lat="53.939439039677382" lon="9.472707621753216">
        <ele>0</ele>
        <time>2010-01-02T02:37:12Z</time>
      </trkpt>
      <trkpt lat="53.939493857324123" lon="9.472922952845693">
        <ele>0</ele>
        <time>2010-01-02T02:37:18Z</time>
      </trkpt>
      <trkpt lat="53.939567618072033" lon="9.47313392534852">
        <ele>0</ele>
        <time>2010-01-02T02:37:24Z</time>
      </trkpt>
      <trkpt lat="53.939628889784217" lon="9.47330055758357">
        <ele>0</ele>
        <time>2010-01-02T02:37:28Z</time>
      </trkpt>
      <trkpt lat="53.939662668853998" lon="9.473404493182898">
        <ele>0</ele>
        <time>2010-01-02T02:37:31Z</time>
      </trkpt>
      <trkpt lat="53.939678594470024" lon="9.47346861474216">
        <ele>0</ele>
        <time>2010-01-02T02:37:33Z</time>
      </trkpt>
      <trkpt lat="53.939681947231293" lon="9.47353265248239">
        <ele>0</ele>
        <time>2010-01-02T02:37:34Z</time>
      </trkpt>
      <trkpt lat="53.939604917541146" lon="9.473927691578865">
        <ele>0</ele>
        <time>2010-01-02T02:37:44Z</time>
      </trkpt>
      <trkpt lat="53.938862197101116" lon="9.474066998809576">
        <ele>0</ele>
        <time>2010-01-02T02:38:14Z</time>
      </trkpt>
      <trkpt lat="53.938809055835009" lon="9.474107483401895">
        <ele>0</ele>
        <time>2010-01-02T02:38:16Z</time>
      </trkpt>
      <trkpt lat="53.938770163804293" lon="9.474181663244963">
        <ele>0</ele>
        <time>2010-01-02T02:38:19Z</time>
      </trkpt>
      <trkpt lat="53.938749209046364" lon="9.474254501983523">
        <ele>0</ele>
        <time>2010-01-02T02:38:20Z</time>
      </trkpt>
      <trkpt lat="53.938482580706477" lon="9.476692378520966">
        <ele>0</ele>
        <time>2010-01-02T02:39:19Z</time>
      </trkpt>
      <trkpt lat="53.938478557392955" lon="9.476795895025134">
        <ele>0</ele>
        <time>2010-01-02T02:39:21Z</time>
      </trkpt>
      <trkpt lat="53.938489034771919" lon="9.476861525326967">
        <ele>0</ele>
        <time>2010-01-02T02:39:23Z</time>
      </trkpt>
      <trkpt lat="53.938521137461066" lon="9.476922797039151">
        <ele>0</ele>
        <time>2010-01-02T02:39:25Z</time>
      </trkpt>
      <trkpt lat="53.938587354496121" lon="9.476995132863522">
        <ele>0</ele>
        <time>2010-01-02T02:39:28Z</time>
      </trkpt>
      <trkpt lat="53.938781647011638" lon="9.477177020162344">
        <ele>0</ele>
        <time>2010-01-02T02:39:37Z</time>
      </trkpt>
      <trkpt lat="53.938831686973572" lon="9.477241560816765">
        <ele>0</ele>
        <time>2010-01-02T02:39:39Z</time>
      </trkpt>
      <trkpt lat="53.938858341425657" lon="9.477310376241803">
        <ele>0</ele>
        <time>2010-01-02T02:39:41Z</time>
      </trkpt>
      <trkpt lat="53.938859095796943" lon="9.477349938824773">
        <ele>0</ele>
        <time>2010-01-02T02:39:42Z</time>
      </trkpt>
      <trkpt lat="53.938860688358545" lon="9.477404756471515">
        <ele>0</ele>
        <time>2010-01-02T02:39:44Z</time>
      </trkpt>
      <trkpt lat="53.938830429688096" lon="9.477553702890873">
        <ele>0</ele>
        <time>2010-01-02T02:39:47Z</time>
      </trkpt>
      <trkpt lat="53.938630102202296" lon="9.478230541571975">
        <ele>0</ele>
        <time>2010-01-02T02:40:05Z</time>
      </trkpt>
      <trkpt lat="53.938537146896124" lon="9.478543102741241">
        <ele>0</ele>
        <time>2010-01-02T02:40:13Z</time>
      </trkpt>
      <trkpt lat="53.938380321487784" lon="9.479127572849393">
        <ele>0</ele>
        <time>2010-01-02T02:40:29Z</time>
      </trkpt>
      <trkpt lat="53.938273452222347" lon="9.479554211720824">
        <ele>0</ele>
        <time>2010-01-02T02:40:39Z</time>
      </trkpt>
      <trkpt lat="53.938215868547559" lon="9.47981396690011">
        <ele>0</ele>
        <time>2010-01-02T02:40:46Z</time>
      </trkpt>
      <trkpt lat="53.938178988173604" lon="9.480054108425975">
        <ele>0</ele>
        <time>2010-01-02T02:40:52Z</time>
      </trkpt>
      <trkpt lat="53.938138922676444" lon="9.480394748970866">
        <ele>0</ele>
        <time>2010-01-02T02:41:00Z</time>
      </trkpt>
      <trkpt lat="53.938131295144558" lon="9.480468677356839">
        <ele>0</ele>
        <time>2010-01-02T02:41:02Z</time>
      </trkpt>
      <trkpt lat="53.938074968755245" lon="9.481115760281682">
        <ele>0</ele>
        <time>2010-01-02T02:41:17Z</time>
      </trkpt>
      <trkpt lat="53.938078489154577" lon="9.481368642300367">
        <ele>0</ele>
        <time>2010-01-02T02:41:23Z</time>
      </trkpt>
      <trkpt lat="53.938104305416346" lon="9.481638455763459">
        <ele>0</ele>
        <time>2010-01-02T02:41:30Z</time>
      </trkpt>
      <trkpt lat="53.938194159418344" lon="9.482536325231194">
        <ele>0</ele>
        <time>2010-01-02T02:41:51Z</time>
      </trkpt>
      <trkpt lat="53.938214359804988" lon="9.482865482568741">
        <ele>0</ele>
        <time>2010-01-02T02:41:59Z</time>
      </trkpt>
      <trkpt lat="53.938236152753234" lon="9.483266221359372">
        <ele>0</ele>
        <time>2010-01-02T02:42:08Z</time>
      </trkpt>
      <trkpt lat="53.938236068934202" lon="9.483469650149345">
        <ele>0</ele>
        <time>2010-01-02T02:42:13Z</time>
      </trkpt>
      <trkpt lat="53.938217544928193" lon="9.483639048412442">
        <ele>0</ele>
        <time>2010-01-02T02:42:17Z</time>
      </trkpt>
      <trkpt lat="53.937929458916187" lon="9.484681840986013">
        <ele>0</ele>
        <time>2010-01-02T02:42:44Z</time>
      </trkpt>
      <trkpt lat="53.937864750623703" lon="9.484895747154951">
        <ele>0</ele>
        <time>2010-01-02T02:42:50Z</time>
      </trkpt>
      <trkpt lat="53.937786463648081" lon="9.485162878409028">
        <ele>0</ele>
        <time>2010-01-02T02:42:57Z</time>
      </trkpt>
      <trkpt lat="53.937635673210025" lon="9.485112419351935">
        <ele>0</ele>
        <time>2010-01-02T02:43:03Z</time>
      </trkpt>
      <trkpt lat="53.937593512237072" lon="9.485102780163288">
        <ele>0</ele>
        <time>2010-01-02T02:43:05Z</time>
      </trkpt>
      <trkpt lat="53.93756115809083" lon="9.48510236106813">
        <ele>0</ele>
        <time>2010-01-02T02:43:06Z</time>
      </trkpt>
      <trkpt lat="53.937538526952267" lon="9.48514929972589">
        <ele>0</ele>
        <time>2010-01-02T02:43:08Z</time>
      </trkpt>
      <trkpt lat="53.937512123957276" lon="9.485238818451762">
        <ele>0</ele>
        <time>2010-01-02T02:43:10Z</time>
      </trkpt>
      <trkpt lat="53.937488486990333" lon="9.485311657190323">
        <ele>0</ele>
        <time>2010-01-02T02:43:12Z</time>
      </trkpt>
      <trkpt lat="53.937468454241753" lon="9.485358679667115">
        <ele>0</ele>
        <time>2010-01-02T02:43:13Z</time>
      </trkpt>
      <trkpt lat="53.937409780919552" lon="9.48543562553823">
        <ele>0</ele>
        <time>2010-01-02T02:43:16Z</time>
      </trkpt>
      <trkpt lat="53.937325878068805" lon="9.485530592501163">
        <ele>0</ele>
        <time>2010-01-02T02:43:20Z</time>
      </trkpt>
      <trkpt lat="53.937322190031409" lon="9.485535118728876">
        <ele>0</ele>
        <time>2010-01-02T02:43:20Z</time>
      </trkpt>
      <trkpt lat="53.93725723028183" lon="9.485611980780959">
        <ele>0</ele>
        <time>2010-01-02T02:43:24Z</time>
      </trkpt>
      <trkpt lat="53.937228145077825" lon="9.485698482021689">
        <ele>0</ele>
        <time>2010-01-02T02:43:26Z</time>
      </trkpt>
      <trkpt lat="53.937176009640098" lon="9.485920183360577">
        <ele>0</ele>
        <time>2010-01-02T02:43:32Z</time>
      </trkpt>
      <trkpt lat="53.937132759019732" lon="9.486177004873753">
        <ele>0</ele>
        <time>2010-01-02T02:43:38Z</time>
      </trkpt>
      <trkpt lat="53.937097219750285" lon="9.486519154161215">
        <ele>0</ele>
        <time>2010-01-02T02:43:46Z</time>
      </trkpt>
      <trkpt lat="53.937092777341604" lon="9.486726187169552">
        <ele>0</ele>
        <time>2010-01-02T02:43:51Z</time>
      </trkpt>
      <trkpt lat="53.937086407095194" lon="9.486974291503429">
        <ele>0</ele>
        <time>2010-01-02T02:43:57Z</time>
      </trkpt>
      <trkpt lat="53.937081377953291" lon="9.487333623692393">
        <ele>0</ele>
        <time>2010-01-02T02:44:05Z</time>
      </trkpt>
      <trkpt lat="53.937084311619401" lon="9.4877097196877">
        <ele>0</ele>
        <time>2010-01-02T02:44:14Z</time>
      </trkpt>
      <trkpt lat="53.937085065990686" lon="9.487964026629925">
        <ele>0</ele>
        <time>2010-01-02T02:44:20Z</time>
      </trkpt>
      <trkpt lat="53.937067883089185" lon="9.488209029659629">
        <ele>0</ele>
        <time>2010-01-02T02:44:26Z</time>
      </trkpt>
      <trkpt lat="53.937047095969319" lon="9.488453948870301">
        <ele>0</ele>
        <time>2010-01-02T02:44:32Z</time>
      </trkpt>
      <trkpt lat="53.937003677710891" lon="9.488747315481305">
        <ele>0</ele>
        <time>2010-01-02T02:44:39Z</time>
      </trkpt>
      <trkpt lat="53.936948776245117" lon="9.488990223035216">
        <ele>0</ele>
        <time>2010-01-02T02:44:45Z</time>
      </trkpt>
      <trkpt lat="53.936909716576338" lon="9.489113101735711">
        <ele>0</ele>
        <time>2010-01-02T02:44:48Z</time>
      </trkpt>
      <trkpt lat="53.936896054074168" lon="9.489155597984791">
        <ele>0</ele>
        <time>2010-01-02T02:44:50Z</time>
      </trkpt>
      <trkpt lat="53.936844086274505" lon="9.48932558298111">
        <ele>0</ele>
        <time>2010-01-02T02:44:54Z</time>
      </trkpt>
      <trkpt lat="53.936755992472172" lon="9.489555917680264">
        <ele>0</ele>
        <time>2010-01-02T02:45:00Z</time>
      </trkpt>
      <trkpt lat="53.936644429340959" lon="9.489831766113639">
        <ele>0</ele>
        <time>2010-01-02T02:45:08Z</time>
      </trkpt>
      <trkpt lat="53.936426499858499" lon="9.490389581769705">
        <ele>0</ele>
        <time>2010-01-02T02:45:24Z</time>
      </trkpt>
      <trkpt lat="53.936401102691889" lon="9.490453200414777">
        <ele>0</ele>
        <time>2010-01-02T02:45:26Z</time>
      </trkpt>
      <trkpt lat="53.936328012496233" lon="9.491190807893872">
        <ele>0</ele>
        <time>2010-01-02T02:45:44Z</time>
      </trkpt>
      <trkpt lat="53.936288952827454" lon="9.491733955219388">
        <ele>0</ele>
        <time>2010-01-02T02:45:56Z</time>
      </trkpt>
      <trkpt lat="53.936263723298907" lon="9.491968145594001">
        <ele>0</ele>
        <time>2010-01-02T02:46:02Z</time>
      </trkpt>
      <trkpt lat="53.936192309483886" lon="9.492727126926184">
        <ele>0</ele>
        <time>2010-01-02T02:46:20Z</time>
      </trkpt>
      <trkpt lat="53.936174791306257" lon="9.493045136332512">
        <ele>0</ele>
        <time>2010-01-02T02:46:28Z</time>
      </trkpt>
      <trkpt lat="53.936180491000414" lon="9.493194418027997">
        <ele>0</ele>
        <time>2010-01-02T02:46:31Z</time>
      </trkpt>
      <trkpt lat="53.936204044148326" lon="9.493359122425318">
        <ele>0</ele>
        <time>2010-01-02T02:46:35Z</time>
      </trkpt>
      <trkpt lat="53.936241092160344" lon="9.493528604507446">
        <ele>0</ele>
        <time>2010-01-02T02:46:40Z</time>
      </trkpt>
      <trkpt lat="53.936333041638136" lon="9.493889026343822">
        <ele>0</ele>
        <time>2010-01-02T02:46:49Z</time>
      </trkpt>
      <trkpt lat="53.936433624476194" lon="9.494339386001229">
        <ele>0</ele>
        <time>2010-01-02T02:47:00Z</time>
      </trkpt>
      <trkpt lat="53.936550300568342" lon="9.494803659617901">
        <ele>0</ele>
        <time>2010-01-02T02:47:12Z</time>
      </trkpt>
      <trkpt lat="53.936750879511237" lon="9.494541138410568">
        <ele>0</ele>
        <time>2010-01-02T02:47:22Z</time>
      </trkpt>
      <trkpt lat="53.936918098479509" lon="9.49495118111372">
        <ele>0</ele>
        <time>2010-01-02T02:47:34Z</time>
      </trkpt>
      <trkpt lat="53.937003342434764" lon="9.495188221335411">
        <ele>0</ele>
        <time>2010-01-02T02:47:40Z</time>
      </trkpt>
      <trkpt lat="53.937065368518233" lon="9.495406653732061">
        <ele>0</ele>
        <time>2010-01-02T02:47:46Z</time>
      </trkpt>
      <trkpt lat="53.937145918607712" lon="9.495684765279293">
        <ele>0</ele>
        <time>2010-01-02T02:47:53Z</time>
      </trkpt>
      <trkpt lat="53.937231497839093" lon="9.496064884588122">
        <ele>0</ele>
        <time>2010-01-02T02:48:03Z</time>
      </trkpt>
      <trkpt lat="53.937293859198689" lon="9.496412817388773">
        <ele>0</ele>
        <time>2010-01-02T02:48:12Z</time>
      </trkpt>
      <trkpt lat="53.937341636046767" lon="9.496818417683244">
        <ele>0</ele>
        <time>2010-01-02T02:48:21Z</time>
      </trkpt>
      <trkpt lat="53.937377007678151" lon="9.497176660224795">
        <ele>0</ele>
        <time>2010-01-02T02:48:30Z</time>
      </trkpt>
      <trkpt lat="53.937400141730905" lon="9.497434319928288">
        <ele>0</ele>
        <time>2010-01-02T02:48:36Z</time>
      </trkpt>
      <trkpt lat="53.937430651858449" lon="9.497658452019095">
        <ele>0</ele>
        <time>2010-01-02T02:48:42Z</time>
      </trkpt>
      <trkpt lat="53.93744389526546" lon="9.497719556093216">
        <ele>0</ele>
        <time>2010-01-02T02:48:43Z</time>
      </trkpt>
      <trkpt lat="53.937467699870467" lon="9.49783556163311">
        <ele>0</ele>
        <time>2010-01-02T02:48:46Z</time>
      </trkpt>
      <trkpt lat="53.937565349042416" lon="9.498104704543948">
        <ele>0</ele>
        <time>2010-01-02T02:48:53Z</time>
      </trkpt>
      <trkpt lat="53.937719911336899" lon="9.498531427234411">
        <ele>0</ele>
        <time>2010-01-02T02:49:05Z</time>
      </trkpt>
      <trkpt lat="53.937407601624727" lon="9.498885478824377">
        <ele>0</ele>
        <time>2010-01-02T02:49:20Z</time>
      </trkpt>
      <trkpt lat="53.937196293845773" lon="9.49915093369782">
        <ele>0</ele>
        <time>2010-01-02T02:49:31Z</time>
      </trkpt>
      <trkpt lat="53.936949530616403" lon="9.499498195946217">
        <ele>0</ele>
        <time>2010-01-02T02:49:44Z</time>
      </trkpt>
      <trkpt lat="53.936690781265497" lon="9.499924499541521">
        <ele>0</ele>
        <time>2010-01-02T02:49:58Z</time>
      </trkpt>
      <trkpt lat="53.936545187607408" lon="9.500161875039339">
        <ele>0</ele>
        <time>2010-01-02T02:50:06Z</time>
      </trkpt>
      <trkpt lat="53.936440413817763" lon="9.500316940248013">
        <ele>0</ele>
        <time>2010-01-02T02:50:12Z</time>
      </trkpt>
      <trkpt lat="53.936394229531288" lon="9.500385420396924">
        <ele>0</ele>
        <time>2010-01-02T02:50:14Z</time>
      </trkpt>
      <trkpt lat="53.936264896765351" lon="9.50057870708406">
        <ele>0</ele>
        <time>2010-01-02T02:50:21Z</time>
      </trkpt>
      <trkpt lat="53.936151908710599" lon="9.500738801434636">
        <ele>0</ele>
        <time>2010-01-02T02:50:27Z</time>
      </trkpt>
      <trkpt lat="53.935943199321628" lon="9.50101800262928">
        <ele>0</ele>
        <time>2010-01-02T02:50:38Z</time>
      </trkpt>
      <trkpt lat="53.935750164091587" lon="9.50121053494513">
        <ele>0</ele>
        <time>2010-01-02T02:50:46Z</time>
      </trkpt>
      <trkpt lat="53.935607671737671" lon="9.501342801377177">
        <ele>0</ele>
        <time>2010-01-02T02:50:53Z</time>
      </trkpt>
      <trkpt lat="53.935366775840521" lon="9.501580512151122">
        <ele>0</ele>
        <time>2010-01-02T02:51:04Z</time>
      </trkpt>
      <trkpt lat="53.935122359544039" lon="9.501792239025235">
        <ele>0</ele>
        <time>2010-01-02T02:51:15Z</time>
      </trkpt>
      <trkpt lat="53.93510433845222" lon="9.501807242631912">
        <ele>0</ele>
        <time>2010-01-02T02:51:16Z</time>
      </trkpt>
      <trkpt lat="53.935093525797129" lon="9.501816295087337">
        <ele>0</ele>
        <time>2010-01-02T02:51:16Z</time>
      </trkpt>
      <trkpt lat="53.934641825035214" lon="9.502203706651926">
        <ele>0</ele>
        <time>2010-01-02T02:51:37Z</time>
      </trkpt>
      <trkpt lat="53.934357762336731" lon="9.502452984452248">
        <ele>0</ele>
        <time>2010-01-02T02:51:49Z</time>
      </trkpt>
      <trkpt lat="53.934035645797849" lon="9.502779543399811">
        <ele>0</ele>
        <time>2010-01-02T02:52:04Z</time>
      </trkpt>
      <trkpt lat="53.933838922530413" lon="9.502981211990118">
        <ele>0</ele>
        <time>2010-01-02T02:52:14Z</time>
      </trkpt>
      <trkpt lat="53.93354463391006" lon="9.50331112369895">
        <ele>0</ele>
        <time>2010-01-02T02:52:28Z</time>
      </trkpt>
      <trkpt lat="53.933337014168501" lon="9.503540033474565">
        <ele>0</ele>
        <time>2010-01-02T02:52:38Z</time>
      </trkpt>
      <trkpt lat="53.933478416875005" lon="9.503894923254848">
        <ele>0</ele>
        <time>2010-01-02T02:52:48Z</time>
      </trkpt>
      <trkpt lat="53.933529881760478" lon="9.504047809168696">
        <ele>0</ele>
        <time>2010-01-02T02:52:52Z</time>
      </trkpt>
      <trkpt lat="53.933536754921079" lon="9.504125509411097">
        <ele>0</ele>
        <time>2010-01-02T02:52:54Z</time>
      </trkpt>
      <trkpt lat="53.933515548706055" lon="9.504250148311257">
        <ele>0</ele>
        <time>2010-01-02T02:52:57Z</time>
      </trkpt>
      <trkpt lat="53.933423431590199" lon="9.504576371982694">
        <ele>0</ele>
        <time>2010-01-02T02:53:05Z</time>
      </trkpt>
      <trkpt lat="53.933186810463667" lon="9.505302831530571">
        <ele>0</ele>
        <time>2010-01-02T02:53:25Z</time>
      </trkpt>
      <trkpt lat="53.932901741936803" lon="9.506203718483448">
        <ele>0</ele>
        <time>2010-01-02T02:53:49Z</time>
      </trkpt>
      <trkpt lat="53.932481808587909" lon="9.507556725293398">
        <ele>0</ele>
        <time>2010-01-02T02:54:25Z</time>
      </trkpt>
      <trkpt lat="53.932043518871069" lon="9.509008470922709">
        <ele>0</ele>
        <time>2010-01-02T02:55:04Z</time>
      </trkpt>
      <trkpt lat="53.931780075654387" lon="9.509898964315653">
        <ele>0</ele>
        <time>2010-01-02T02:55:27Z</time>
      </trkpt>
      <trkpt lat="53.931745458394289" lon="9.510027877986431">
        <ele>0</ele>
        <time>2010-01-02T02:55:30Z</time>
      </trkpt>
      <trkpt lat="53.931461479514837" lon="9.510886184871197">
        <ele>0</ele>
        <time>2010-01-02T02:55:54Z</time>
      </trkpt>
      <trkpt lat="53.931262912228703" lon="9.511521616950631">
        <ele>0</ele>
        <time>2010-01-02T02:56:11Z</time>
      </trkpt>
      <trkpt lat="53.931246483698487" lon="9.511573249474168">
        <ele>0</ele>
        <time>2010-01-02T02:56:12Z</time>
      </trkpt>
      <trkpt lat="53.930955966934562" lon="9.512483105063438">
        <ele>0</ele>
        <time>2010-01-02T02:56:36Z</time>
      </trkpt>
      <trkpt lat="53.930873991921544" lon="9.512742441147566">
        <ele>0</ele>
        <time>2010-01-02T02:56:43Z</time>
      </trkpt>
      <trkpt lat="53.930841218680143" lon="9.512844029814005">
        <ele>0</ele>
        <time>2010-01-02T02:56:46Z</time>
      </trkpt>
      <trkpt lat="53.930804841220379" lon="9.512951737269759">
        <ele>0</ele>
        <time>2010-01-02T02:56:49Z</time>
      </trkpt>
      <trkpt lat="53.930771229788661" lon="9.51304268091917">
        <ele>0</ele>
        <time>2010-01-02T02:56:51Z</time>
      </trkpt>
      <trkpt lat="53.930730326101184" lon="9.513142593204975">
        <ele>0</ele>
        <time>2010-01-02T02:56:54Z</time>
      </trkpt>
      <trkpt lat="53.930678693577647" lon="9.513254659250379">
        <ele>0</ele>
        <time>2010-01-02T02:56:58Z</time>
      </trkpt>
      <trkpt lat="53.930622534826398" lon="9.513360522687435">
        <ele>0</ele>
        <time>2010-01-02T02:57:01Z</time>
      </trkpt>
      <trkpt lat="53.930545756593347" lon="9.513455489650369">
        <ele>0</ele>
        <time>2010-01-02T02:57:05Z</time>
      </trkpt>
      <trkpt lat="53.930454393848777" lon="9.513588342815638">
        <ele>0</ele>
        <time>2010-01-02T02:57:10Z</time>
      </trkpt>
      <trkpt lat="53.930358672514558" lon="9.513710467144847">
        <ele>0</ele>
        <time>2010-01-02T02:57:14Z</time>
      </trkpt>
      <trkpt lat="53.930290108546615" lon="9.51377660036087">
        <ele>0</ele>
        <time>2010-01-02T02:57:18Z</time>
      </trkpt>
      <trkpt lat="53.930224226787686" lon="9.513835189864039">
        <ele>0</ele>
        <time>2010-01-02T02:57:21Z</time>
      </trkpt>
      <trkpt lat="53.930152980610728" lon="9.513898305594921">
        <ele>0</ele>
        <time>2010-01-02T02:57:24Z</time>
      </trkpt>
      <trkpt lat="53.930086344480515" lon="9.513941640034318">
        <ele>0</ele>
        <time>2010-01-02T02:57:27Z</time>
      </trkpt>
      <trkpt lat="53.930021468549967" lon="9.513989500701427">
        <ele>0</ele>
        <time>2010-01-02T02:57:29Z</time>
      </trkpt>
      <trkpt lat="53.929893560707569" lon="9.514070134609938">
        <ele>0</ele>
        <time>2010-01-02T02:57:35Z</time>
      </trkpt>
      <trkpt lat="53.929877299815416" lon="9.514079103246331">
        <ele>0</ele>
        <time>2010-01-02T02:57:36Z</time>
      </trkpt>
      <trkpt lat="53.929742267355323" lon="9.514152025803924">
        <ele>0</ele>
        <time>2010-01-02T02:57:41Z</time>
      </trkpt>
      <trkpt lat="53.929469352588058" lon="9.514307007193565">
        <ele>0</ele>
        <time>2010-01-02T02:57:53Z</time>
      </trkpt>
      <trkpt lat="53.929006587713957" lon="9.514528121799231">
        <ele>0</ele>
        <time>2010-01-02T02:58:12Z</time>
      </trkpt>
      <trkpt lat="53.928897706791759" lon="9.514569444581866">
        <ele>0</ele>
        <time>2010-01-02T02:58:16Z</time>
      </trkpt>
      <trkpt lat="53.928840961307287" lon="9.514594590291381">
        <ele>0</ele>
        <time>2010-01-02T02:58:19Z</time>
      </trkpt>
      <trkpt lat="53.928823862224817" lon="9.514601966366172">
        <ele>0</ele>
        <time>2010-01-02T02:58:20Z</time>
      </trkpt>
      <trkpt lat="53.928789664059877" lon="9.514616802334785">
        <ele>0</ele>
        <time>2010-01-02T02:58:21Z</time>
      </trkpt>
      <trkpt lat="53.928731242194772" lon="9.514623675495386">
        <ele>0</ele>
        <time>2010-01-02T02:58:23Z</time>
      </trkpt>
      <trkpt lat="53.928682710975409" lon="9.514629207551479">
        <ele>0</ele>
        <time>2010-01-02T02:58:25Z</time>
      </trkpt>
      <trkpt lat="53.928623450919986" lon="9.514619316905737">
        <ele>0</ele>
        <time>2010-01-02T02:58:28Z</time>
      </trkpt>
      <trkpt lat="53.928493363782763" lon="9.514578161761165">
        <ele>0</ele>
        <time>2010-01-02T02:58:33Z</time>
      </trkpt>
      <trkpt lat="53.927769251167774" lon="9.51435461640358">
        <ele>0</ele>
        <time>2010-01-02T02:59:02Z</time>
      </trkpt>
      <trkpt lat="53.927605971693993" lon="9.514294685795903">
        <ele>0</ele>
        <time>2010-01-02T02:59:09Z</time>
      </trkpt>
      <trkpt lat="53.927534222602844" lon="9.514270965009928">
        <ele>0</ele>
        <time>2010-01-02T02:59:12Z</time>
      </trkpt>
      <trkpt lat="53.927466999739408" lon="9.514233665540814">
        <ele>0</ele>
        <time>2010-01-02T02:59:15Z</time>
      </trkpt>
      <trkpt lat="53.927405225113034" lon="9.514184128493071">
        <ele>0</ele>
        <time>2010-01-02T02:59:18Z</time>
      </trkpt>
      <trkpt lat="53.927345294505358" lon="9.514116402715445">
        <ele>0</ele>
        <time>2010-01-02T02:59:20Z</time>
      </trkpt>
      <trkpt lat="53.927281927317381" lon="9.514019759371877">
        <ele>0</ele>
        <time>2010-01-02T02:59:24Z</time>
      </trkpt>
      <trkpt lat="53.92721151933074" lon="9.51388799585402">
        <ele>0</ele>
        <time>2010-01-02T02:59:28Z</time>
      </trkpt>
      <trkpt lat="53.92714211717248" lon="9.513733349740505">
        <ele>0</ele>
        <time>2010-01-02T02:59:33Z</time>
      </trkpt>
      <trkpt lat="53.926958721131086" lon="9.513308554887772">
        <ele>0</ele>
        <time>2010-01-02T02:59:45Z</time>
      </trkpt>
      <trkpt lat="53.926900969818234" lon="9.513174779713154">
        <ele>0</ele>
        <time>2010-01-02T02:59:49Z</time>
      </trkpt>
      <trkpt lat="53.926688320934772" lon="9.512695670127869">
        <ele>0</ele>
        <time>2010-01-02T03:00:03Z</time>
      </trkpt>
      <trkpt lat="53.926458405330777" lon="9.513100851327181">
        <ele>0</ele>
        <time>2010-01-02T03:00:16Z</time>
      </trkpt>
      <trkpt lat="53.926343489438295" lon="9.51328206807375">
        <ele>0</ele>
        <time>2010-01-02T03:00:23Z</time>
      </trkpt>
      <trkpt lat="53.926257574930787" lon="9.513416513800621">
        <ele>0</ele>
        <time>2010-01-02T03:00:27Z</time>
      </trkpt>
      <trkpt lat="53.926096390932798" lon="9.513702252879739">
        <ele>0</ele>
        <time>2010-01-02T03:00:37Z</time>
      </trkpt>
      <trkpt lat="53.925970578566194" lon="9.513933593407273">
        <ele>0</ele>
        <time>2010-01-02T03:00:44Z</time>
      </trkpt>
      <trkpt lat="53.92586731351912" lon="9.514124114066362">
        <ele>0</ele>
        <time>2010-01-02T03:00:50Z</time>
      </trkpt>
      <trkpt lat="53.925777627155185" lon="9.514304157346487">
        <ele>0</ele>
        <time>2010-01-02T03:00:56Z</time>
      </trkpt>
      <trkpt lat="53.925702357664704" lon="9.514455450698733">
        <ele>0</ele>
        <time>2010-01-02T03:01:00Z</time>
      </trkpt>
      <trkpt lat="53.925657095387578" lon="9.514538682997227">
        <ele>0</ele>
        <time>2010-01-02T03:01:03Z</time>
      </trkpt>
      <trkpt lat="53.925587190315127" lon="9.514712858945131">
        <ele>0</ele>
        <time>2010-01-02T03:01:08Z</time>
      </trkpt>
      <trkpt lat="53.925509992986917" lon="9.51490824110806">
        <ele>0</ele>
        <time>2010-01-02T03:01:14Z</time>
      </trkpt>
      <trkpt lat="53.925462635233998" lon="9.515046207234263">
        <ele>0</ele>
        <time>2010-01-02T03:01:17Z</time>
      </trkpt>
      <trkpt lat="53.925414439290762" lon="9.51518869958818">
        <ele>0</ele>
        <time>2010-01-02T03:01:21Z</time>
      </trkpt>
      <trkpt lat="53.925369763746858" lon="9.515340412035584">
        <ele>0</ele>
        <time>2010-01-02T03:01:25Z</time>
      </trkpt>
      <trkpt lat="53.925345875322819" lon="9.515455747023225">
        <ele>0</ele>
        <time>2010-01-02T03:01:28Z</time>
      </trkpt>
      <trkpt lat="53.925309330224991" lon="9.515610560774803">
        <ele>0</ele>
        <time>2010-01-02T03:01:32Z</time>
      </trkpt>
      <trkpt lat="53.925274461507797" lon="9.515763949602842">
        <ele>0</ele>
        <time>2010-01-02T03:01:36Z</time>
      </trkpt>
      <trkpt lat="53.925238754600286" lon="9.515921780839562">
        <ele>0</ele>
        <time>2010-01-02T03:01:40Z</time>
      </trkpt>
      <trkpt lat="53.925230205059052" lon="9.516035858541727">
        <ele>0</ele>
        <time>2010-01-02T03:01:43Z</time>
      </trkpt>
      <trkpt lat="53.925213608890772" lon="9.516125461086631">
        <ele>0</ele>
        <time>2010-01-02T03:01:45Z</time>
      </trkpt>
      <trkpt lat="53.925206232815981" lon="9.516171058639884">
        <ele>0</ele>
        <time>2010-01-02T03:01:46Z</time>
      </trkpt>
      <trkpt lat="53.925207741558552" lon="9.516242640092969">
        <ele>0</ele>
        <time>2010-01-02T03:01:48Z</time>
      </trkpt>
      <trkpt lat="53.925228277221322" lon="9.516483368352056">
        <ele>0</ele>
        <time>2010-01-02T03:01:53Z</time>
      </trkpt>
      <trkpt lat="53.925230791792274" lon="9.516530558466911">
        <ele>0</ele>
        <time>2010-01-02T03:01:54Z</time>
      </trkpt>
      <trkpt lat="53.924998780712485" lon="9.51677430421114">
        <ele>0</ele>
        <time>2010-01-02T03:02:05Z</time>
      </trkpt>
      <trkpt lat="53.924813708290458" lon="9.516988210380077">
        <ele>0</ele>
        <time>2010-01-02T03:02:14Z</time>
      </trkpt>
      <trkpt lat="53.924691919237375" lon="9.517097845673561">
        <ele>0</ele>
        <time>2010-01-02T03:02:20Z</time>
      </trkpt>
      <trkpt lat="53.924571219831705" lon="9.517167834565043">
        <ele>0</ele>
        <time>2010-01-02T03:02:25Z</time>
      </trkpt>
      <trkpt lat="53.924458818510175" lon="9.517193902283907">
        <ele>0</ele>
        <time>2010-01-02T03:02:30Z</time>
      </trkpt>
      <trkpt lat="53.924317834898829" lon="9.517186023294926">
        <ele>0</ele>
        <time>2010-01-02T03:02:35Z</time>
      </trkpt>
      <trkpt lat="53.924060259014368" lon="9.517105221748352">
        <ele>0</ele>
        <time>2010-01-02T03:02:46Z</time>
      </trkpt>
      <trkpt lat="53.923818105831742" lon="9.517007824033499">
        <ele>0</ele>
        <time>2010-01-02T03:02:56Z</time>
      </trkpt>
      <trkpt lat="53.923554411157966" lon="9.516901038587093">
        <ele>0</ele>
        <time>2010-01-02T03:03:06Z</time>
      </trkpt>
      <trkpt lat="53.923488277941942" lon="9.517241260036826">
        <ele>0</ele>
        <time>2010-01-02T03:03:15Z</time>
      </trkpt>
      <trkpt lat="53.923437902703881" lon="9.517471930012107">
        <ele>0</ele>
        <time>2010-01-02T03:03:21Z</time>
      </trkpt>
      <trkpt lat="53.923345031216741" lon="9.517744844779372">
        <ele>0</ele>
        <time>2010-01-02T03:03:28Z</time>
      </trkpt>
      <trkpt lat="53.92324679531157" lon="9.518032846972346">
        <ele>0</ele>
        <time>2010-01-02T03:03:36Z</time>
      </trkpt>
      <trkpt lat="53.923146966844797" lon="9.51826904900372">
        <ele>0</ele>
        <time>2010-01-02T03:03:43Z</time>
      </trkpt>
      <trkpt lat="53.923023669049144" lon="9.518511034548283">
        <ele>0</ele>
        <time>2010-01-02T03:03:50Z</time>
      </trkpt>
      <trkpt lat="53.923009168356657" lon="9.518539784476161">
        <ele>0</ele>
        <time>2010-01-02T03:03:51Z</time>
      </trkpt>
      <trkpt lat="53.92280850559473" lon="9.518829546868801">
        <ele>0</ele>
        <time>2010-01-02T03:04:02Z</time>
      </trkpt>
      <trkpt lat="53.922677747905254" lon="9.518520422279835">
        <ele>0</ele>
        <time>2010-01-02T03:04:11Z</time>
      </trkpt>
      <trkpt lat="53.922596694901586" lon="9.518352029845119">
        <ele>0</ele>
        <time>2010-01-02T03:04:16Z</time>
      </trkpt>
      <trkpt lat="53.922509187832475" lon="9.518226133659482">
        <ele>0</ele>
        <time>2010-01-02T03:04:21Z</time>
      </trkpt>
      <trkpt lat="53.922459231689572" lon="9.518150864169002">
        <ele>0</ele>
        <time>2010-01-02T03:04:23Z</time>
      </trkpt>
      <trkpt lat="53.9223438128829" lon="9.51803837902844">
        <ele>0</ele>
        <time>2010-01-02T03:04:29Z</time>
      </trkpt>
      <trkpt lat="53.922217497602105" lon="9.517954559996724">
        <ele>0</ele>
        <time>2010-01-02T03:04:34Z</time>
      </trkpt>
      <trkpt lat="53.922108113765717" lon="9.517906028777361">
        <ele>0</ele>
        <time>2010-01-02T03:04:38Z</time>
      </trkpt>
      <trkpt lat="53.921894878149033" lon="9.51776186004281">
        <ele>0</ele>
        <time>2010-01-02T03:04:48Z</time>
      </trkpt>
      <trkpt lat="53.921799072995782" lon="9.51768608763814">
        <ele>0</ele>
        <time>2010-01-02T03:04:52Z</time>
      </trkpt>
      <trkpt lat="53.921711398288608" lon="9.517601262778044">
        <ele>0</ele>
        <time>2010-01-02T03:04:56Z</time>
      </trkpt>
      <trkpt lat="53.921646187081933" lon="9.517516773194075">
        <ele>0</ele>
        <time>2010-01-02T03:04:59Z</time>
      </trkpt>
      <trkpt lat="53.921535545960069" lon="9.517335807904601">
        <ele>0</ele>
        <time>2010-01-02T03:05:05Z</time>
      </trkpt>
      <trkpt lat="53.921311497688293" lon="9.516989048570395">
        <ele>0</ele>
        <time>2010-01-02T03:05:17Z</time>
      </trkpt>
      <trkpt lat="53.921217536553741" lon="9.51685250736773">
        <ele>0</ele>
        <time>2010-01-02T03:05:22Z</time>
      </trkpt>
      <trkpt lat="53.920919811353087" lon="9.517006566748023">
        <ele>0</ele>
        <time>2010-01-02T03:05:35Z</time>
      </trkpt>
      <trkpt lat="53.920648070052266" lon="9.517265148460865">
        <ele>0</ele>
        <time>2010-01-02T03:05:47Z</time>
      </trkpt>
      <trkpt lat="53.920260742306709" lon="9.51743496581912">
        <ele>0</ele>
        <time>2010-01-02T03:06:03Z</time>
      </trkpt>
      <trkpt lat="53.920027809217572" lon="9.517672257497907">
        <ele>0</ele>
        <time>2010-01-02T03:06:14Z</time>
      </trkpt>
      <trkpt lat="53.919666381552815" lon="9.517873087897897">
        <ele>0</ele>
        <time>2010-01-02T03:06:29Z</time>
      </trkpt>
      <trkpt lat="53.919430514797568" lon="9.517531944438815">
        <ele>0</ele>
        <time>2010-01-02T03:44:09Z</time>
      </trkpt>
      <trkpt lat="53.919586585834622" lon="9.517791112884879">
        <ele>0</ele>
        <time>2010-01-02T03:44:18Z</time>
      </trkpt>
      <trkpt lat="53.919659173116088" lon="9.517888594418764">
        <ele>0</ele>
        <time>2010-01-02T03:44:22Z</time>
      </trkpt>
      <trkpt lat="53.919430514797568" lon="9.517531944438815">
        <ele>0</ele>
        <time>2010-01-02T03:44:09Z</time>
      </trkpt>
      <trkpt lat="53.919386593624949" lon="9.517612243071198">
        <ele>0</ele>
        <time>2010-01-02T03:44:07Z</time>
      </trkpt>
      <trkpt lat="53.919321214780211" lon="9.517561364918947">
        <ele>0</ele>
        <time>2010-01-02T03:44:04Z</time>
      </trkpt>
      <trkpt lat="53.919181069359183" lon="9.517509983852506">
        <ele>0</ele>
        <time>2010-01-02T03:43:58Z</time>
      </trkpt>
      <trkpt lat="53.919028686359525" lon="9.517487352713943">
        <ele>0</ele>
        <time>2010-01-02T03:43:52Z</time>
      </trkpt>
      <trkpt lat="53.918796004727483" lon="9.517458183690906">
        <ele>0</ele>
        <time>2010-01-02T03:43:43Z</time>
      </trkpt>
      <trkpt lat="53.918610345572233" lon="9.517413256689906">
        <ele>0</ele>
        <time>2010-01-02T03:43:35Z</time>
      </trkpt>
      <trkpt lat="53.918501297011971" lon="9.517356092110276">
        <ele>0</ele>
        <time>2010-01-02T03:43:31Z</time>
      </trkpt>
      <trkpt lat="53.918449245393276" lon="9.517326923087239">
        <ele>0</ele>
        <time>2010-01-02T03:43:29Z</time>
      </trkpt>
      <trkpt lat="53.918404318392277" lon="9.517301861196756">
        <ele>0</ele>
        <time>2010-01-02T03:43:27Z</time>
      </trkpt>
      <trkpt lat="53.918327540159225" lon="9.517275374382734">
        <ele>0</ele>
        <time>2010-01-02T03:43:23Z</time>
      </trkpt>
      <trkpt lat="53.918244978412986" lon="9.517248971387744">
        <ele>0</ele>
        <time>2010-01-02T03:43:20Z</time>
      </trkpt>
      <trkpt lat="53.918114555999637" lon="9.51721653342247">
        <ele>0</ele>
        <time>2010-01-02T03:43:15Z</time>
      </trkpt>
      <trkpt lat="53.917985977604985" lon="9.517211755737662">
        <ele>0</ele>
        <time>2010-01-02T03:43:10Z</time>
      </trkpt>
      <trkpt lat="53.917805682867765" lon="9.517229357734323">
        <ele>0</ele>
        <time>2010-01-02T03:43:02Z</time>
      </trkpt>
      <trkpt lat="53.917577276006341" lon="9.517241260036826">
        <ele>0</ele>
        <time>2010-01-02T03:42:53Z</time>
      </trkpt>
      <trkpt lat="53.91731534153223" lon="9.517273949459195">
        <ele>0</ele>
        <time>2010-01-02T03:42:43Z</time>
      </trkpt>
      <trkpt lat="53.917378289625049" lon="9.517144281417131">
        <ele>0</ele>
        <time>2010-01-02T03:42:39Z</time>
      </trkpt>
      <trkpt lat="53.917431179434061" lon="9.516962310299277">
        <ele>0</ele>
        <time>2010-01-02T03:42:34Z</time>
      </trkpt>
      <trkpt lat="53.917483482509851" lon="9.516705740243196">
        <ele>0</ele>
        <time>2010-01-02T03:42:28Z</time>
      </trkpt>
      <trkpt lat="53.917519021779299" lon="9.516388066112995">
        <ele>0</ele>
        <time>2010-01-02T03:42:20Z</time>
      </trkpt>
      <trkpt lat="53.917543077841401" lon="9.516224032267928">
        <ele>0</ele>
        <time>2010-01-02T03:42:16Z</time>
      </trkpt>
      <trkpt lat="53.917555483058095" lon="9.516053711995482">
        <ele>0</ele>
        <time>2010-01-02T03:42:12Z</time>
      </trkpt>
      <trkpt lat="53.917555231601" lon="9.515915242955089">
        <ele>0</ele>
        <time>2010-01-02T03:42:09Z</time>
      </trkpt>
      <trkpt lat="53.917555902153254" lon="9.515758501365781">
        <ele>0</ele>
        <time>2010-01-02T03:42:05Z</time>
      </trkpt>
      <trkpt lat="53.917556656524539" lon="9.515577368438244">
        <ele>0</ele>
        <time>2010-01-02T03:42:01Z</time>
      </trkpt>
      <trkpt lat="53.917511058971286" lon="9.515263717621565">
        <ele>0</ele>
        <time>2010-01-02T03:41:53Z</time>
      </trkpt>
      <trkpt lat="53.917509634047747" lon="9.515253910794854">
        <ele>0</ele>
        <time>2010-01-02T03:41:53Z</time>
      </trkpt>
      <trkpt lat="53.917511058971286" lon="9.515263717621565">
        <ele>0</ele>
        <time>2010-01-02T03:41:53Z</time>
      </trkpt>
      <trkpt lat="53.917460851371288" lon="9.51529766432941">
        <ele>0</ele>
        <time>2010-01-02T03:44:24Z</time>
      </trkpt>
      <trkpt lat="53.917376194149256" lon="9.515340747311711">
        <ele>0</ele>
        <time>2010-01-02T03:44:28Z</time>
      </trkpt>
      <trkpt lat="53.917369907721877" lon="9.515343680977821">
        <ele>0</ele>
        <time>2010-01-02T03:44:28Z</time>
      </trkpt>
      <trkpt lat="53.917333865538239" lon="9.515364551916718">
        <ele>0</ele>
        <time>2010-01-02T03:44:29Z</time>
      </trkpt>
      <trkpt lat="53.917190618813038" lon="9.515445018187165">
        <ele>0</ele>
        <time>2010-01-02T03:44:35Z</time>
      </trkpt>
      <trkpt lat="53.917051982134581" lon="9.515513330698013">
        <ele>0</ele>
        <time>2010-01-02T03:44:41Z</time>
      </trkpt>
      <trkpt lat="53.916896246373653" lon="9.515581391751766">
        <ele>0</ele>
        <time>2010-01-02T03:44:48Z</time>
      </trkpt>
      <trkpt lat="53.91684134490788" lon="9.51560502871871">
        <ele>0</ele>
        <time>2010-01-02T03:44:50Z</time>
      </trkpt>
      <trkpt lat="53.916626265272498" lon="9.515690691769123">
        <ele>0</ele>
        <time>2010-01-02T03:44:59Z</time>
      </trkpt>
      <trkpt lat="53.916467009112239" lon="9.515749616548419">
        <ele>0</ele>
        <time>2010-01-02T03:45:05Z</time>
      </trkpt>
      <trkpt lat="53.9163722936064" lon="9.51577065512538">
        <ele>0</ele>
        <time>2010-01-02T03:45:09Z</time>
      </trkpt>
      <trkpt lat="53.916352344676852" lon="9.516073912382126">
        <ele>0</ele>
        <time>2010-01-02T03:45:16Z</time>
      </trkpt>
      <trkpt lat="53.916275650262833" lon="9.516372727230191">
        <ele>0</ele>
        <time>2010-01-02T03:45:24Z</time>
      </trkpt>
      <trkpt lat="53.916263831779361" lon="9.516409104689956">
        <ele>0</ele>
        <time>2010-01-02T03:45:25Z</time>
      </trkpt>
      <trkpt lat="53.916099043563008" lon="9.516897182911634">
        <ele>0</ele>
        <time>2010-01-02T03:45:38Z</time>
      </trkpt>
      <trkpt lat="53.915987312793732" lon="9.517177306115627">
        <ele>0</ele>
        <time>2010-01-02T03:45:46Z</time>
      </trkpt>
      <trkpt lat="53.915930232033134" lon="9.517287695780396">
        <ele>0</ele>
        <time>2010-01-02T03:45:50Z</time>
      </trkpt>
      <trkpt lat="53.915893100202084" lon="9.517360283061862">
        <ele>0</ele>
        <time>2010-01-02T03:45:52Z</time>
      </trkpt>
      <trkpt lat="53.91581816598773" lon="9.517456758767366">
        <ele>0</ele>
        <time>2010-01-02T03:45:56Z</time>
      </trkpt>
      <trkpt lat="53.91579469665885" lon="9.51748232357204">
        <ele>0</ele>
        <time>2010-01-02T03:45:57Z</time>
      </trkpt>
      <trkpt lat="53.915756810456514" lon="9.517503194510937">
        <ele>0</ele>
        <time>2010-01-02T03:45:58Z</time>
      </trkpt>
      <trkpt lat="53.915724707767367" lon="9.517667144536972">
        <ele>0</ele>
        <time>2010-01-02T03:46:02Z</time>
      </trkpt>
      <trkpt lat="53.91568916849792" lon="9.517768649384379">
        <ele>0</ele>
        <time>2010-01-02T03:46:05Z</time>
      </trkpt>
      <trkpt lat="53.915684642270207" lon="9.517782311886549">
        <ele>0</ele>
        <time>2010-01-02T03:46:06Z</time>
      </trkpt>
      <trkpt lat="53.915614653378725" lon="9.517980795353651">
        <ele>0</ele>
        <time>2010-01-02T03:46:11Z</time>
      </trkpt>
      <trkpt lat="53.915513567626476" lon="9.51827785000205">
        <ele>0</ele>
        <time>2010-01-02T03:46:19Z</time>
      </trkpt>
      <trkpt lat="53.91547073610127" lon="9.51842344366014">
        <ele>0</ele>
        <time>2010-01-02T03:46:23Z</time>
      </trkpt>
      <trkpt lat="53.915431508794427" lon="9.518559901043773">
        <ele>0</ele>
        <time>2010-01-02T03:46:27Z</time>
      </trkpt>
      <trkpt lat="53.915365375578403" lon="9.518890902400017">
        <ele>0</ele>
        <time>2010-01-02T03:46:35Z</time>
      </trkpt>
      <trkpt lat="53.915320951491594" lon="9.519191645085812">
        <ele>0</ele>
        <time>2010-01-02T03:46:42Z</time>
      </trkpt>
      <trkpt lat="53.915286501869559" lon="9.51946665532887">
        <ele>0</ele>
        <time>2010-01-02T03:46:49Z</time>
      </trkpt>
      <trkpt lat="53.915268899872899" lon="9.519796734675765">
        <ele>0</ele>
        <time>2010-01-02T03:46:57Z</time>
      </trkpt>
      <trkpt lat="53.915254734456539" lon="9.520167885348201">
        <ele>0</ele>
        <time>2010-01-02T03:47:05Z</time>
      </trkpt>
      <trkpt lat="53.915273761376739" lon="9.520556218922138">
        <ele>0</ele>
        <time>2010-01-02T03:47:15Z</time>
      </trkpt>
      <trkpt lat="53.915274515748024" lon="9.520589662715793">
        <ele>0</ele>
        <time>2010-01-02T03:47:15Z</time>
      </trkpt>
      <trkpt lat="53.91528407111764" lon="9.520856123417616">
        <ele>0</ele>
        <time>2010-01-02T03:47:22Z</time>
      </trkpt>
      <trkpt lat="53.915326315909624" lon="9.521272117272019">
        <ele>0</ele>
        <time>2010-01-02T03:47:32Z</time>
      </trkpt>
      <trkpt lat="53.915340984240174" lon="9.521418465301394">
        <ele>0</ele>
        <time>2010-01-02T03:47:35Z</time>
      </trkpt>
      <trkpt lat="53.915387503802776" lon="9.521881649270654">
        <ele>0</ele>
        <time>2010-01-02T03:47:46Z</time>
      </trkpt>
      <trkpt lat="53.915458163246512" lon="9.522358914837241">
        <ele>0</ele>
        <time>2010-01-02T03:47:58Z</time>
      </trkpt>
      <trkpt lat="53.91555187292397" lon="9.522918574512005">
        <ele>0</ele>
        <time>2010-01-02T03:48:11Z</time>
      </trkpt>
      <trkpt lat="53.91562613658607" lon="9.523403467610478">
        <ele>0</ele>
        <time>2010-01-02T03:48:23Z</time>
      </trkpt>
      <trkpt lat="53.915641643106937" lon="9.523542188107967">
        <ele>0</ele>
        <time>2010-01-02T03:48:27Z</time>
      </trkpt>
      <trkpt lat="53.915654299780726" lon="9.523729523643851">
        <ele>0</ele>
        <time>2010-01-02T03:48:31Z</time>
      </trkpt>
      <trkpt lat="53.915623957291245" lon="9.523893557488918">
        <ele>0</ele>
        <time>2010-01-02T03:48:35Z</time>
      </trkpt>
      <trkpt lat="53.915579617023468" lon="9.523970587179065">
        <ele>0</ele>
        <time>2010-01-02T03:48:38Z</time>
      </trkpt>
      <trkpt lat="53.91534861177206" lon="9.524208130314946">
        <ele>0</ele>
        <time>2010-01-02T03:48:48Z</time>
      </trkpt>
      <trkpt lat="53.914799094200134" lon="9.524736944586039">
        <ele>0</ele>
        <time>2010-01-02T03:49:14Z</time>
      </trkpt>
      <trkpt lat="53.914537495002151" lon="9.524986306205392">
        <ele>0</ele>
        <time>2010-01-02T03:49:26Z</time>
      </trkpt>
      <trkpt lat="53.914457196369767" lon="9.525046152994037">
        <ele>0</ele>
        <time>2010-01-02T03:49:29Z</time>
      </trkpt>
      <trkpt lat="53.914399612694979" lon="9.525074316188693">
        <ele>0</ele>
        <time>2010-01-02T03:49:32Z</time>
      </trkpt>
      <trkpt lat="53.914299784228206" lon="9.52508982270956">
        <ele>0</ele>
        <time>2010-01-02T03:49:36Z</time>
      </trkpt>
      <trkpt lat="53.914050171151757" lon="9.525060821324587">
        <ele>0</ele>
        <time>2010-01-02T03:49:46Z</time>
      </trkpt>
      <trkpt lat="53.913711626082659" lon="9.52502922154963">
        <ele>0</ele>
        <time>2010-01-02T03:49:59Z</time>
      </trkpt>
      <trkpt lat="53.913397304713726" lon="9.524991754442453">
        <ele>0</ele>
        <time>2010-01-02T03:50:12Z</time>
      </trkpt>
      <trkpt lat="53.913229247555137" lon="9.525000303983688">
        <ele>0</ele>
        <time>2010-01-02T03:50:19Z</time>
      </trkpt>
      <trkpt lat="53.913114164024591" lon="9.525009524077177">
        <ele>0</ele>
        <time>2010-01-02T03:50:23Z</time>
      </trkpt>
      <trkpt lat="53.91298558562994" lon="9.525035256519914">
        <ele>0</ele>
        <time>2010-01-02T03:50:28Z</time>
      </trkpt>
      <trkpt lat="53.912839740514755" lon="9.525098875164986">
        <ele>0</ele>
        <time>2010-01-02T03:50:34Z</time>
      </trkpt>
      <trkpt lat="53.912718035280704" lon="9.525208426639438">
        <ele>0</ele>
        <time>2010-01-02T03:50:40Z</time>
      </trkpt>
      <trkpt lat="53.912587277591228" lon="9.525308758020401">
        <ele>0</ele>
        <time>2010-01-02T03:50:46Z</time>
      </trkpt>
      <trkpt lat="53.912457274273038" lon="9.525450160726905">
        <ele>0</ele>
        <time>2010-01-02T03:50:52Z</time>
      </trkpt>
      <trkpt lat="53.912351410835981" lon="9.525623833760619">
        <ele>0</ele>
        <time>2010-01-02T03:50:58Z</time>
      </trkpt>
      <trkpt lat="53.912300616502762" lon="9.525725170969963">
        <ele>0</ele>
        <time>2010-01-02T03:51:01Z</time>
      </trkpt>
      <trkpt lat="53.912225347012281" lon="9.525894653052092">
        <ele>0</ele>
        <time>2010-01-02T03:51:06Z</time>
      </trkpt>
      <trkpt lat="53.912171619012952" lon="9.52605533413589">
        <ele>0</ele>
        <time>2010-01-02T03:51:10Z</time>
      </trkpt>
      <trkpt lat="53.912085955962539" lon="9.526328165084124">
        <ele>0</ele>
        <time>2010-01-02T03:51:18Z</time>
      </trkpt>
      <trkpt lat="53.912009848281741" lon="9.526684815064073">
        <ele>0</ele>
        <time>2010-01-02T03:51:27Z</time>
      </trkpt>
      <trkpt lat="53.911922760307789" lon="9.527274146676064">
        <ele>0</ele>
        <time>2010-01-02T03:51:41Z</time>
      </trkpt>
      <trkpt lat="53.911854783073068" lon="9.527831794694066">
        <ele>0</ele>
        <time>2010-01-02T03:51:54Z</time>
      </trkpt>
      <trkpt lat="53.911800971254706" lon="9.528206968680024">
        <ele>0</ele>
        <time>2010-01-02T03:52:03Z</time>
      </trkpt>
      <trkpt lat="53.91175570897758" lon="9.52869638800621">
        <ele>0</ele>
        <time>2010-01-02T03:52:15Z</time>
      </trkpt>
      <trkpt lat="53.911649258807302" lon="9.529804391786456">
        <ele>0</ele>
        <time>2010-01-02T03:52:42Z</time>
      </trkpt>
      <trkpt lat="53.911510705947876" lon="9.530872413888574">
        <ele>0</ele>
        <time>2010-01-02T03:53:07Z</time>
      </trkpt>
      <trkpt lat="53.911431916058064" lon="9.531408604234457">
        <ele>0</ele>
        <time>2010-01-02T03:53:20Z</time>
      </trkpt>
      <trkpt lat="53.911300403997302" lon="9.532103883102536">
        <ele>0</ele>
        <time>2010-01-02T03:53:38Z</time>
      </trkpt>
      <trkpt lat="53.911215076223016" lon="9.532500011846423">
        <ele>0</ele>
        <time>2010-01-02T03:53:47Z</time>
      </trkpt>
      <trkpt lat="53.911100579425693" lon="9.533002255484462">
        <ele>0</ele>
        <time>2010-01-02T03:54:00Z</time>
      </trkpt>
      <trkpt lat="53.911063950508833" lon="9.533143322914839">
        <ele>0</ele>
        <time>2010-01-02T03:54:04Z</time>
      </trkpt>
      <trkpt lat="53.911019191145897" lon="9.533313140273094">
        <ele>0</ele>
        <time>2010-01-02T03:54:08Z</time>
      </trkpt>
      <trkpt lat="53.910888936370611" lon="9.533705580979586">
        <ele>0</ele>
        <time>2010-01-02T03:54:19Z</time>
      </trkpt>
      <trkpt lat="53.910710820928216" lon="9.53416901640594">
        <ele>0</ele>
        <time>2010-01-02T03:54:32Z</time>
      </trkpt>
      <trkpt lat="53.910539913922548" lon="9.534609653055668">
        <ele>0</ele>
        <time>2010-01-02T03:54:44Z</time>
      </trkpt>
      <trkpt lat="53.91037286259234" lon="9.534995555877686">
        <ele>0</ele>
        <time>2010-01-02T03:54:56Z</time>
      </trkpt>
      <trkpt lat="53.910137414932251" lon="9.535415573045611">
        <ele>0</ele>
        <time>2010-01-02T03:55:09Z</time>
      </trkpt>
      <trkpt lat="53.909948989748955" lon="9.535755543038249">
        <ele>0</ele>
        <time>2010-01-02T03:55:20Z</time>
      </trkpt>
      <trkpt lat="53.909833235666156" lon="9.535927539691329">
        <ele>0</ele>
        <time>2010-01-02T03:55:26Z</time>
      </trkpt>
      <trkpt lat="53.909637099131942" lon="9.536192826926708">
        <ele>0</ele>
        <time>2010-01-02T03:55:36Z</time>
      </trkpt>
      <trkpt lat="53.909324705600739" lon="9.536537239328027">
        <ele>0</ele>
        <time>2010-01-02T03:55:51Z</time>
      </trkpt>
      <trkpt lat="53.909176765009761" lon="9.536664728075266">
        <ele>0</ele>
        <time>2010-01-02T03:55:58Z</time>
      </trkpt>
      <trkpt lat="53.909027231857181" lon="9.536757096648216">
        <ele>0</ele>
        <time>2010-01-02T03:56:04Z</time>
      </trkpt>
      <trkpt lat="53.908790610730648" lon="9.536834713071585">
        <ele>0</ele>
        <time>2010-01-02T03:56:14Z</time>
      </trkpt>
      <trkpt lat="53.9087447617203" lon="9.536844771355391">
        <ele>0</ele>
        <time>2010-01-02T03:56:16Z</time>
      </trkpt>
      <trkpt lat="53.908597240224481" lon="9.536879388615489">
        <ele>0</ele>
        <time>2010-01-02T03:56:22Z</time>
      </trkpt>
      <trkpt lat="53.908261796459556" lon="9.536935966461897">
        <ele>0</ele>
        <time>2010-01-02T03:56:35Z</time>
      </trkpt>
      <trkpt lat="53.907924676313996" lon="9.53698642551899">
        <ele>0</ele>
        <time>2010-01-02T03:56:49Z</time>
      </trkpt>
      <trkpt lat="53.90771864913404" lon="9.537046188488603">
        <ele>0</ele>
        <time>2010-01-02T03:56:57Z</time>
      </trkpt>
      <trkpt lat="53.907579090446234" lon="9.537120452150702">
        <ele>0</ele>
        <time>2010-01-02T03:57:03Z</time>
      </trkpt>
      <trkpt lat="53.90750071965158" lon="9.537157500162721">
        <ele>0</ele>
        <time>2010-01-02T03:57:06Z</time>
      </trkpt>
      <trkpt lat="53.907431233674288" lon="9.537238804623485">
        <ele>0</ele>
        <time>2010-01-02T03:57:10Z</time>
      </trkpt>
      <trkpt lat="53.907384127378464" lon="9.537311224266887">
        <ele>0</ele>
        <time>2010-01-02T03:57:12Z</time>
      </trkpt>
      <trkpt lat="53.907337859272957" lon="9.537418680265546">
        <ele>0</ele>
        <time>2010-01-02T03:57:15Z</time>
      </trkpt>
      <trkpt lat="53.90727985650301" lon="9.537535021081567">
        <ele>0</ele>
        <time>2010-01-02T03:57:19Z</time>
      </trkpt>
      <trkpt lat="53.907179860398173" lon="9.537797039374709">
        <ele>0</ele>
        <time>2010-01-02T03:57:26Z</time>
      </trkpt>
      <trkpt lat="53.907093275338411" lon="9.538057632744312">
        <ele>0</ele>
        <time>2010-01-02T03:57:33Z</time>
      </trkpt>
      <trkpt lat="53.907034937292337" lon="9.538250081241131">
        <ele>0</ele>
        <time>2010-01-02T03:57:39Z</time>
      </trkpt>
      <trkpt lat="53.907023956999183" lon="9.538287967443466">
        <ele>0</ele>
        <time>2010-01-02T03:57:40Z</time>
      </trkpt>
      <trkpt lat="53.906959751620889" lon="9.53858083114028">
        <ele>0</ele>
        <time>2010-01-02T03:57:47Z</time>
      </trkpt>
      <trkpt lat="53.906933516263962" lon="9.538825498893857">
        <ele>0</ele>
        <time>2010-01-02T03:57:53Z</time>
      </trkpt>
      <trkpt lat="53.906906694173813" lon="9.53900009393692">
        <ele>0</ele>
        <time>2010-01-02T03:57:57Z</time>
      </trkpt>
      <trkpt lat="53.906874759122729" lon="9.539112327620387">
        <ele>0</ele>
        <time>2010-01-02T03:58:00Z</time>
      </trkpt>
      <trkpt lat="53.906835867092013" lon="9.539162032306194">
        <ele>0</ele>
        <time>2010-01-02T03:58:02Z</time>
      </trkpt>
      <trkpt lat="53.90679806470871" lon="9.539185836911201">
        <ele>0</ele>
        <time>2010-01-02T03:58:04Z</time>
      </trkpt>
      <trkpt lat="53.906604023650289" lon="9.539178796112537">
        <ele>0</ele>
        <time>2010-01-02T03:58:11Z</time>
      </trkpt>
      <trkpt lat="53.906293222680688" lon="9.539153482764959">
        <ele>0</ele>
        <time>2010-01-02T03:58:24Z</time>
      </trkpt>
      <trkpt lat="53.906025588512421" lon="9.539131773635745">
        <ele>0</ele>
        <time>2010-01-02T03:58:35Z</time>
      </trkpt>
      <trkpt lat="53.90575435012579" lon="9.539114590734243">
        <ele>0</ele>
        <time>2010-01-02T03:58:45Z</time>
      </trkpt>
      <trkpt lat="53.905432820320129" lon="9.539095228537917">
        <ele>0</ele>
        <time>2010-01-02T03:58:58Z</time>
      </trkpt>
      <trkpt lat="53.905349252745509" lon="9.539089612662792">
        <ele>0</ele>
        <time>2010-01-02T03:59:02Z</time>
      </trkpt>
      <trkpt lat="53.904947759583592" lon="9.53906312584877">
        <ele>0</ele>
        <time>2010-01-02T03:59:18Z</time>
      </trkpt>
      <trkpt lat="53.904866371303797" lon="9.539185333997011">
        <ele>0</ele>
        <time>2010-01-02T03:59:22Z</time>
      </trkpt>
      <trkpt lat="53.903815280646086" lon="9.54074495472014">
        <ele>0</ele>
        <time>2010-01-02T04:00:18Z</time>
      </trkpt>
      <trkpt lat="53.903768258169293" lon="9.540811255574226">
        <ele>0</ele>
        <time>2010-01-02T04:00:20Z</time>
      </trkpt>
      <trkpt lat="53.903743028640747" lon="9.540841430425644">
        <ele>0</ele>
        <time>2010-01-02T04:00:22Z</time>
      </trkpt>
      <trkpt lat="53.903684690594673" lon="9.54088032245636">
        <ele>0</ele>
        <time>2010-01-02T04:00:24Z</time>
      </trkpt>
      <trkpt lat="53.903322760015726" lon="9.540989622473717">
        <ele>0</ele>
        <time>2010-01-02T04:00:39Z</time>
      </trkpt>
      <trkpt lat="53.903279593214393" lon="9.541002782061696">
        <ele>0</ele>
        <time>2010-01-02T04:00:41Z</time>
      </trkpt>
      <trkpt lat="53.903012545779347" lon="9.541061371564865">
        <ele>0</ele>
        <time>2010-01-02T04:00:51Z</time>
      </trkpt>
      <trkpt lat="53.902763351798058" lon="9.541111746802926">
        <ele>0</ele>
        <time>2010-01-02T04:01:01Z</time>
      </trkpt>
      <trkpt lat="53.902635695412755" lon="9.541129851713777">
        <ele>0</ele>
        <time>2010-01-02T04:01:07Z</time>
      </trkpt>
      <trkpt lat="53.902367390692234" lon="9.541248036548495">
        <ele>0</ele>
        <time>2010-01-02T04:01:18Z</time>
      </trkpt>
      <trkpt lat="53.902162201702595" lon="9.541338225826621">
        <ele>0</ele>
        <time>2010-01-02T04:01:26Z</time>
      </trkpt>
      <trkpt lat="53.902045106515288" lon="9.541389942169189">
        <ele>0</ele>
        <time>2010-01-02T04:01:31Z</time>
      </trkpt>
      <trkpt lat="53.901704801246524" lon="9.541542241349816">
        <ele>0</ele>
        <time>2010-01-02T04:01:45Z</time>
      </trkpt>
      <trkpt lat="53.901408584788442" lon="9.541682973504066">
        <ele>0</ele>
        <time>2010-01-02T04:01:57Z</time>
      </trkpt>
      <trkpt lat="53.901209682226181" lon="9.54177014529705">
        <ele>0</ele>
        <time>2010-01-02T04:02:06Z</time>
      </trkpt>
      <trkpt lat="53.901037685573101" lon="9.541847007349133">
        <ele>0</ele>
        <time>2010-01-02T04:02:13Z</time>
      </trkpt>
      <trkpt lat="53.900714479386806" lon="9.541990421712399">
        <ele>0</ele>
        <time>2010-01-02T04:02:26Z</time>
      </trkpt>
      <trkpt lat="53.900437206029892" lon="9.542120676487684">
        <ele>0</ele>
        <time>2010-01-02T04:02:38Z</time>
      </trkpt>
      <trkpt lat="53.900297563523054" lon="9.542204076424241">
        <ele>0</ele>
        <time>2010-01-02T04:02:44Z</time>
      </trkpt>
      <trkpt lat="53.90021818690002" lon="9.542273059487343">
        <ele>0</ele>
        <time>2010-01-02T04:02:47Z</time>
      </trkpt>
      <trkpt lat="53.900149622932076" lon="9.542332990095019">
        <ele>0</ele>
        <time>2010-01-02T04:02:50Z</time>
      </trkpt>
      <trkpt lat="53.900117101147771" lon="9.54237213358283">
        <ele>0</ele>
        <time>2010-01-02T04:02:52Z</time>
      </trkpt>
      <trkpt lat="53.900056416168809" lon="9.542480846866965">
        <ele>0</ele>
        <time>2010-01-02T04:02:55Z</time>
      </trkpt>
      <trkpt lat="53.899971004575491" lon="9.542688215151429">
        <ele>0</ele>
        <time>2010-01-02T04:03:01Z</time>
      </trkpt>
      <trkpt lat="53.899895315989852" lon="9.542941264808178">
        <ele>0</ele>
        <time>2010-01-02T04:03:08Z</time>
      </trkpt>
      <trkpt lat="53.899443112313747" lon="9.54461588524282">
        <ele>0</ele>
        <time>2010-01-02T04:03:51Z</time>
      </trkpt>
      <trkpt lat="53.899299697950482" lon="9.545095330104232">
        <ele>0</ele>
        <time>2010-01-02T04:04:04Z</time>
      </trkpt>
      <trkpt lat="53.899248652160168" lon="9.545257436111569">
        <ele>0</ele>
        <time>2010-01-02T04:04:08Z</time>
      </trkpt>
      <trkpt lat="53.899193163961172" lon="9.545421050861478">
        <ele>0</ele>
        <time>2010-01-02T04:04:13Z</time>
      </trkpt>
      <trkpt lat="53.89954537153244" lon="9.545798320323229">
        <ele>0</ele>
        <time>2010-01-02T04:04:30Z</time>
      </trkpt>
      <trkpt lat="53.899726001545787" lon="9.545996971428394">
        <ele>0</ele>
        <time>2010-01-02T04:04:38Z</time>
      </trkpt>
      <trkpt lat="53.899953989312053" lon="9.54624792560935">
        <ele>0</ele>
        <time>2010-01-02T04:04:49Z</time>
      </trkpt>
      <trkpt lat="53.900029007345438" lon="9.546341635286808">
        <ele>0</ele>
        <time>2010-01-02T04:04:53Z</time>
      </trkpt>
      <trkpt lat="53.900068150833249" lon="9.546427382156253">
        <ele>0</ele>
        <time>2010-01-02T04:04:55Z</time>
      </trkpt>
      <trkpt lat="53.900096984580159" lon="9.546599630266428">
        <ele>0</ele>
        <time>2010-01-02T04:05:00Z</time>
      </trkpt>
      <trkpt lat="53.900147108361125" lon="9.546887967735529">
        <ele>0</ele>
        <time>2010-01-02T04:05:07Z</time>
      </trkpt>
      <trkpt lat="53.90020938590169" lon="9.54714210703969">
        <ele>0</ele>
        <time>2010-01-02T04:05:13Z</time>
      </trkpt>
      <trkpt lat="53.900284068658948" lon="9.547341512516141">
        <ele>0</ele>
        <time>2010-01-02T04:05:19Z</time>
      </trkpt>
      <trkpt lat="53.900688495486975" lon="9.548102924600244">
        <ele>0</ele>
        <time>2010-01-02T04:05:43Z</time>
      </trkpt>
      <trkpt lat="53.9006423112005" lon="9.548374582082033">
        <ele>0</ele>
        <time>2010-01-02T04:05:50Z</time>
      </trkpt>
      <trkpt lat="53.900611633434892" lon="9.548608520999551">
        <ele>0</ele>
        <time>2010-01-02T04:05:55Z</time>
      </trkpt>
      <trkpt lat="53.900597132742405" lon="9.548825863748789">
        <ele>0</ele>
        <time>2010-01-02T04:06:00Z</time>
      </trkpt>
      <trkpt lat="53.900586739182472" lon="9.549136077985168">
        <ele>0</ele>
        <time>2010-01-02T04:06:08Z</time>
      </trkpt>
      <trkpt lat="53.900601407513022" lon="9.549467917531729">
        <ele>0</ele>
        <time>2010-01-02T04:06:16Z</time>
      </trkpt>
      <trkpt lat="53.90061791986227" lon="9.549974771216512">
        <ele>0</ele>
        <time>2010-01-02T04:06:28Z</time>
      </trkpt>
      <trkpt lat="53.900621104985476" lon="9.550063032656908">
        <ele>0</ele>
        <time>2010-01-02T04:06:30Z</time>
      </trkpt>
      <trkpt lat="53.900647843256593" lon="9.55070081166923">
        <ele>0</ele>
        <time>2010-01-02T04:06:45Z</time>
      </trkpt>
      <trkpt lat="53.900680281221867" lon="9.551267176866531">
        <ele>0</ele>
        <time>2010-01-02T04:06:58Z</time>
      </trkpt>
      <trkpt lat="53.900726465508342" lon="9.551775958389044">
        <ele>0</ele>
        <time>2010-01-02T04:07:10Z</time>
      </trkpt>
      <trkpt lat="53.900796454399824" lon="9.552572574466467">
        <ele>0</ele>
        <time>2010-01-02T04:07:29Z</time>
      </trkpt>
      <trkpt lat="53.900803914293647" lon="9.552913382649422">
        <ele>0</ele>
        <time>2010-01-02T04:07:37Z</time>
      </trkpt>
      <trkpt lat="53.900676090270281" lon="9.556079227477312">
        <ele>0</ele>
        <time>2010-01-02T04:08:52Z</time>
      </trkpt>
      <trkpt lat="53.900648429989815" lon="9.556577112525702">
        <ele>0</ele>
        <time>2010-01-02T04:09:04Z</time>
      </trkpt>
      <trkpt lat="53.900613225996494" lon="9.55709109082818">
        <ele>0</ele>
        <time>2010-01-02T04:09:16Z</time>
      </trkpt>
      <trkpt lat="53.900575758889318" lon="9.557568356394768">
        <ele>0</ele>
        <time>2010-01-02T04:09:27Z</time>
      </trkpt>
      <trkpt lat="53.900463273748755" lon="9.558753976598382">
        <ele>0</ele>
        <time>2010-01-02T04:09:56Z</time>
      </trkpt>
      <trkpt lat="53.900429829955101" lon="9.559257812798023">
        <ele>0</ele>
        <time>2010-01-02T04:10:08Z</time>
      </trkpt>
      <trkpt lat="53.900411138311028" lon="9.559720829129219">
        <ele>0</ele>
        <time>2010-01-02T04:10:19Z</time>
      </trkpt>
      <trkpt lat="53.900399068370461" lon="9.560189209878445">
        <ele>0</ele>
        <time>2010-01-02T04:10:30Z</time>
      </trkpt>
      <trkpt lat="53.900385154411197" lon="9.56201009452343">
        <ele>0</ele>
        <time>2010-01-02T04:11:13Z</time>
      </trkpt>
      <trkpt lat="53.90038481913507" lon="9.562276303768158">
        <ele>0</ele>
        <time>2010-01-02T04:11:19Z</time>
      </trkpt>
      <trkpt lat="53.900383478030562" lon="9.562370600178838">
        <ele>0</ele>
        <time>2010-01-02T04:11:21Z</time>
      </trkpt>
      <trkpt lat="53.900372749194503" lon="9.563310714438558">
        <ele>0</ele>
        <time>2010-01-02T04:11:43Z</time>
      </trkpt>
      <trkpt lat="53.900383813306689" lon="9.563631825149059">
        <ele>0</ele>
        <time>2010-01-02T04:11:51Z</time>
      </trkpt>
      <trkpt lat="53.90040535479784" lon="9.563840534538031">
        <ele>0</ele>
        <time>2010-01-02T04:11:56Z</time>
      </trkpt>
      <trkpt lat="53.900432428345084" lon="9.563999120146036">
        <ele>0</ele>
        <time>2010-01-02T04:12:00Z</time>
      </trkpt>
      <trkpt lat="53.90048305504024" lon="9.564115460962057">
        <ele>0</ele>
        <time>2010-01-02T04:12:03Z</time>
      </trkpt>
      <trkpt lat="53.9004937838763" lon="9.564132308587432">
        <ele>0</ele>
        <time>2010-01-02T04:12:04Z</time>
      </trkpt>
      <trkpt lat="53.900562515482306" lon="9.564236663281918">
        <ele>0</ele>
        <time>2010-01-02T04:12:08Z</time>
      </trkpt>
      <trkpt lat="53.900582967326045" lon="9.564268933609128">
        <ele>0</ele>
        <time>2010-01-02T04:12:09Z</time>
      </trkpt>
      <trkpt lat="53.900730488821864" lon="9.564436739310622">
        <ele>0</ele>
        <time>2010-01-02T04:12:16Z</time>
      </trkpt>
      <trkpt lat="53.900804752483964" lon="9.564490970224142">
        <ele>0</ele>
        <time>2010-01-02T04:12:19Z</time>
      </trkpt>
      <trkpt lat="53.900885554030538" lon="9.564511841163039">
        <ele>0</ele>
        <time>2010-01-02T04:12:22Z</time>
      </trkpt>
      <trkpt lat="53.900930397212505" lon="9.564524665474892">
        <ele>0</ele>
        <time>2010-01-02T04:12:24Z</time>
      </trkpt>
      <trkpt lat="53.900959147140384" lon="9.564531119540334">
        <ele>0</ele>
        <time>2010-01-02T04:12:25Z</time>
      </trkpt>
      <trkpt lat="53.904243176802993" lon="9.565250957384706">
        <ele>0</ele>
        <time>2010-01-02T04:14:38Z</time>
      </trkpt>
      <trkpt lat="53.904411736875772" lon="9.565323209390044">
        <ele>0</ele>
        <time>2010-01-02T04:14:45Z</time>
      </trkpt>
      <trkpt lat="53.904469991102815" lon="9.565368136391044">
        <ele>0</ele>
        <time>2010-01-02T04:14:47Z</time>
      </trkpt>
      <trkpt lat="53.904495891183615" lon="9.565388252958655">
        <ele>0</ele>
        <time>2010-01-02T04:14:48Z</time>
      </trkpt>
      <trkpt lat="53.904550457373261" lon="9.565446842461824">
        <ele>0</ele>
        <time>2010-01-02T04:14:51Z</time>
      </trkpt>
      <trkpt lat="53.904618686065078" lon="9.565654881298542">
        <ele>0</ele>
        <time>2010-01-02T04:14:57Z</time>
      </trkpt>
      <trkpt lat="53.904685154557228" lon="9.566030977293849">
        <ele>0</ele>
        <time>2010-01-02T04:15:06Z</time>
      </trkpt>
      <trkpt lat="53.904723711311817" lon="9.566435152664781">
        <ele>0</ele>
        <time>2010-01-02T04:15:16Z</time>
      </trkpt>
      <trkpt lat="53.904724046587944" lon="9.566825078800321">
        <ele>0</ele>
        <time>2010-01-02T04:15:25Z</time>
      </trkpt>
      <trkpt lat="53.904711725190282" lon="9.567247442901134">
        <ele>0</ele>
        <time>2010-01-02T04:15:35Z</time>
      </trkpt>
      <trkpt lat="53.904689764603972" lon="9.567522536963224">
        <ele>0</ele>
        <time>2010-01-02T04:15:41Z</time>
      </trkpt>
      <trkpt lat="53.904640143737197" lon="9.567950936034322">
        <ele>0</ele>
        <time>2010-01-02T04:15:52Z</time>
      </trkpt>
      <trkpt lat="53.904590187594295" lon="9.568443205207586">
        <ele>0</ele>
        <time>2010-01-02T04:16:03Z</time>
      </trkpt>
      <trkpt lat="53.90458314679563" lon="9.568641521036625">
        <ele>0</ele>
        <time>2010-01-02T04:16:08Z</time>
      </trkpt>
      <trkpt lat="53.904592953622341" lon="9.568811422213912">
        <ele>0</ele>
        <time>2010-01-02T04:16:12Z</time>
      </trkpt>
      <trkpt lat="53.904639137908816" lon="9.569117864593863">
        <ele>0</ele>
        <time>2010-01-02T04:16:20Z</time>
      </trkpt>
      <trkpt lat="53.904647016897798" lon="9.569157594814897">
        <ele>0</ele>
        <time>2010-01-02T04:16:21Z</time>
      </trkpt>
      <trkpt lat="53.904710300266743" lon="9.569446016103029">
        <ele>0</ele>
        <time>2010-01-02T04:16:28Z</time>
      </trkpt>
      <trkpt lat="53.904758663848042" lon="9.569674842059612">
        <ele>0</ele>
        <time>2010-01-02T04:16:34Z</time>
      </trkpt>
      <trkpt lat="53.904814990237355" lon="9.569916073232889">
        <ele>0</ele>
        <time>2010-01-02T04:16:40Z</time>
      </trkpt>
      <trkpt lat="53.90488849952817" lon="9.570284793153405">
        <ele>0</ele>
        <time>2010-01-02T04:16:49Z</time>
      </trkpt>
      <trkpt lat="53.904952621087432" lon="9.57064219750464">
        <ele>0</ele>
        <time>2010-01-02T04:16:58Z</time>
      </trkpt>
      <trkpt lat="53.905028142035007" lon="9.571195486932993">
        <ele>0</ele>
        <time>2010-01-02T04:17:11Z</time>
      </trkpt>
      <trkpt lat="53.905057311058044" lon="9.571427749469876">
        <ele>0</ele>
        <time>2010-01-02T04:17:17Z</time>
      </trkpt>
      <trkpt lat="53.905106093734503" lon="9.571809712797403">
        <ele>0</ele>
        <time>2010-01-02T04:17:26Z</time>
      </trkpt>
      <trkpt lat="53.905180189758539" lon="9.572282452136278">
        <ele>0</ele>
        <time>2010-01-02T04:17:37Z</time>
      </trkpt>
      <trkpt lat="53.904928648844361" lon="9.572473727166653">
        <ele>0</ele>
        <time>2010-01-02T04:17:48Z</time>
      </trkpt>
      <trkpt lat="53.904766291379929" lon="9.572593253105879">
        <ele>0</ele>
        <time>2010-01-02T04:17:56Z</time>
      </trkpt>
      <trkpt lat="53.904874166473746" lon="9.572961386293173">
        <ele>0</ele>
        <time>2010-01-02T04:18:05Z</time>
      </trkpt>
      <trkpt lat="53.904944909736514" lon="9.573205802589655">
        <ele>0</ele>
        <time>2010-01-02T04:18:12Z</time>
      </trkpt>
      <trkpt lat="53.905216148123145" lon="9.574162010103464">
        <ele>0</ele>
        <time>2010-01-02T04:18:37Z</time>
      </trkpt>
      <trkpt lat="53.905401807278395" lon="9.574786880984902">
        <ele>0</ele>
        <time>2010-01-02T04:18:53Z</time>
      </trkpt>
      <trkpt lat="53.905505994334817" lon="9.575164066627622">
        <ele>0</ele>
        <time>2010-01-02T04:19:03Z</time>
      </trkpt>
      <trkpt lat="53.90570648945868" lon="9.575898740440607">
        <ele>0</ele>
        <time>2010-01-02T04:19:22Z</time>
      </trkpt>
      <trkpt lat="53.905859878286719" lon="9.576326301321387">
        <ele>0</ele>
        <time>2010-01-02T04:19:34Z</time>
      </trkpt>
      <trkpt lat="53.906032629311085" lon="9.576771883293986">
        <ele>0</ele>
        <time>2010-01-02T04:19:46Z</time>
      </trkpt>
      <trkpt lat="53.906124662607908" lon="9.577109590172768">
        <ele>0</ele>
        <time>2010-01-02T04:19:55Z</time>
      </trkpt>
      <trkpt lat="53.906196746975183" lon="9.577455930411816">
        <ele>0</ele>
        <time>2010-01-02T04:20:04Z</time>
      </trkpt>
      <trkpt lat="53.906361451372504" lon="9.578313315287232">
        <ele>0</ele>
        <time>2010-01-02T04:20:25Z</time>
      </trkpt>
      <trkpt lat="53.906424734741449" lon="9.578739451244473">
        <ele>0</ele>
        <time>2010-01-02T04:20:36Z</time>
      </trkpt>
      <trkpt lat="53.906456334516406" lon="9.579034075140953">
        <ele>0</ele>
        <time>2010-01-02T04:20:43Z</time>
      </trkpt>
      <trkpt lat="53.906499752774835" lon="9.579529194161296">
        <ele>0</ele>
        <time>2010-01-02T04:20:54Z</time>
      </trkpt>
      <trkpt lat="53.906513834372163" lon="9.579690964892507">
        <ele>0</ele>
        <time>2010-01-02T04:20:58Z</time>
      </trkpt>
      <trkpt lat="53.906523976475" lon="9.579834127798676">
        <ele>0</ele>
        <time>2010-01-02T04:21:02Z</time>
      </trkpt>
      <trkpt lat="53.906543338671327" lon="9.58009765483439">
        <ele>0</ele>
        <time>2010-01-02T04:21:08Z</time>
      </trkpt>
      <trkpt lat="53.906621541827917" lon="9.581013126298785">
        <ele>0</ele>
        <time>2010-01-02T04:21:30Z</time>
      </trkpt>
      <trkpt lat="53.906788090243936" lon="9.583170041441917">
        <ele>0</ele>
        <time>2010-01-02T04:22:21Z</time>
      </trkpt>
      <trkpt lat="53.90687232837081" lon="9.58414301276207">
        <ele>0</ele>
        <time>2010-01-02T04:22:44Z</time>
      </trkpt>
      <trkpt lat="53.906898647546768" lon="9.584448197856545">
        <ele>0</ele>
        <time>2010-01-02T04:22:52Z</time>
      </trkpt>
      <trkpt lat="53.906913148239255" lon="9.584617260843515">
        <ele>0</ele>
        <time>2010-01-02T04:22:56Z</time>
      </trkpt>
      <trkpt lat="53.906934941187501" lon="9.584941724315286">
        <ele>0</ele>
        <time>2010-01-02T04:23:03Z</time>
      </trkpt>
      <trkpt lat="53.906946256756783" lon="9.585188319906592">
        <ele>0</ele>
        <time>2010-01-02T04:23:09Z</time>
      </trkpt>
      <trkpt lat="53.906972240656614" lon="9.585757786408067">
        <ele>0</ele>
        <time>2010-01-02T04:23:23Z</time>
      </trkpt>
      <trkpt lat="53.906999062746763" lon="9.58633940666914">
        <ele>0</ele>
        <time>2010-01-02T04:23:36Z</time>
      </trkpt>
      <trkpt lat="53.907006522640586" lon="9.586505033075809">
        <ele>0</ele>
        <time>2010-01-02T04:23:40Z</time>
      </trkpt>
      <trkpt lat="53.907064693048596" lon="9.587802551686764">
        <ele>0</ele>
        <time>2010-01-02T04:24:11Z</time>
      </trkpt>
      <trkpt lat="53.907069470733404" lon="9.587896345183253">
        <ele>0</ele>
        <time>2010-01-02T04:24:13Z</time>
      </trkpt>
      <trkpt lat="53.907123282551765" lon="9.588965456932783">
        <ele>0</ele>
        <time>2010-01-02T04:24:38Z</time>
      </trkpt>
      <trkpt lat="53.90715722925961" lon="9.589637434110045">
        <ele>0</ele>
        <time>2010-01-02T04:24:54Z</time>
      </trkpt>
      <trkpt lat="53.907245742157102" lon="9.590994380414486">
        <ele>0</ele>
        <time>2010-01-02T04:25:27Z</time>
      </trkpt>
      <trkpt lat="53.907287148758769" lon="9.591526044532657">
        <ele>0</ele>
        <time>2010-01-02T04:25:39Z</time>
      </trkpt>
      <trkpt lat="53.907323526218534" lon="9.591981517150998">
        <ele>0</ele>
        <time>2010-01-02T04:25:50Z</time>
      </trkpt>
      <trkpt lat="53.907329393550754" lon="9.592066761106253">
        <ele>0</ele>
        <time>2010-01-02T04:25:52Z</time>
      </trkpt>
      <trkpt lat="53.907384714111686" lon="9.592877039685845">
        <ele>0</ele>
        <time>2010-01-02T04:26:11Z</time>
      </trkpt>
      <trkpt lat="53.907405165955424" lon="9.593172837048769">
        <ele>0</ele>
        <time>2010-01-02T04:26:18Z</time>
      </trkpt>
      <trkpt lat="53.907416565343738" lon="9.593337038531899">
        <ele>0</ele>
        <time>2010-01-02T04:26:22Z</time>
      </trkpt>
      <trkpt lat="53.907431233674288" lon="9.593468131497502">
        <ele>0</ele>
        <time>2010-01-02T04:26:25Z</time>
      </trkpt>
      <trkpt lat="53.907450092956424" lon="9.593641804531217">
        <ele>0</ele>
        <time>2010-01-02T04:26:30Z</time>
      </trkpt>
      <trkpt lat="53.907499127089977" lon="9.594077747315168">
        <ele>0</ele>
        <time>2010-01-02T04:26:40Z</time>
      </trkpt>
      <trkpt lat="53.907531062141061" lon="9.594344459474087">
        <ele>0</ele>
        <time>2010-01-02T04:26:46Z</time>
      </trkpt>
      <trkpt lat="53.907556040212512" lon="9.594557862728834">
        <ele>0</ele>
        <time>2010-01-02T04:26:52Z</time>
      </trkpt>
      <trkpt lat="53.907574564218521" lon="9.594727763906121">
        <ele>0</ele>
        <time>2010-01-02T04:26:56Z</time>
      </trkpt>
      <trkpt lat="53.907612785696983" lon="9.59507904946804">
        <ele>0</ele>
        <time>2010-01-02T04:27:04Z</time>
      </trkpt>
      <trkpt lat="53.907772796228528" lon="9.596505565568805">
        <ele>0</ele>
        <time>2010-01-02T04:27:38Z</time>
      </trkpt>
      <trkpt lat="53.907820573076606" lon="9.596906220540404">
        <ele>0</ele>
        <time>2010-01-02T04:27:48Z</time>
      </trkpt>
      <trkpt lat="53.907844377681613" lon="9.597106045112014">
        <ele>0</ele>
        <time>2010-01-02T04:27:53Z</time>
      </trkpt>
      <trkpt lat="53.907846976071596" lon="9.597131945192814">
        <ele>0</ele>
        <time>2010-01-02T04:27:53Z</time>
      </trkpt>
      <trkpt lat="53.90795024111867" lon="9.598052529618144">
        <ele>0</ele>
        <time>2010-01-02T04:28:15Z</time>
      </trkpt>
      <trkpt lat="53.907961389049888" lon="9.598150094971061">
        <ele>0</ele>
        <time>2010-01-02T04:28:18Z</time>
      </trkpt>
      <trkpt lat="53.908070856705308" lon="9.599075289443135">
        <ele>0</ele>
        <time>2010-01-02T04:28:40Z</time>
      </trkpt>
      <trkpt lat="53.908111425116658" lon="9.599415175616741">
        <ele>0</ele>
        <time>2010-01-02T04:28:48Z</time>
      </trkpt>
      <trkpt lat="53.908212510868907" lon="9.600395020097494">
        <ele>0</ele>
        <time>2010-01-02T04:29:12Z</time>
      </trkpt>
      <trkpt lat="53.908243356272578" lon="9.60069827735424">
        <ele>0</ele>
        <time>2010-01-02T04:29:19Z</time>
      </trkpt>
      <trkpt lat="53.908250983804464" lon="9.600785113871098">
        <ele>0</ele>
        <time>2010-01-02T04:29:21Z</time>
      </trkpt>
      <trkpt lat="53.908288031816483" lon="9.601202448830009">
        <ele>0</ele>
        <time>2010-01-02T04:29:31Z</time>
      </trkpt>
      <trkpt lat="53.908292138949037" lon="9.601249471306801">
        <ele>0</ele>
        <time>2010-01-02T04:29:32Z</time>
      </trkpt>
      <trkpt lat="53.908294402062893" lon="9.601274197921157">
        <ele>0</ele>
        <time>2010-01-02T04:29:33Z</time>
      </trkpt>
      <trkpt lat="53.908296078443527" lon="9.601296996697783">
        <ele>0</ele>
        <time>2010-01-02T04:29:33Z</time>
      </trkpt>
      <trkpt lat="53.908304292708635" lon="9.601444769650698">
        <ele>0</ele>
        <time>2010-01-02T04:29:37Z</time>
      </trkpt>
      <trkpt lat="53.908302700147033" lon="9.601578628644347">
        <ele>0</ele>
        <time>2010-01-02T04:29:40Z</time>
      </trkpt>
      <trkpt lat="53.908290462568402" lon="9.601694131270051">
        <ele>0</ele>
        <time>2010-01-02T04:29:43Z</time>
      </trkpt>
      <trkpt lat="53.908280236646533" lon="9.601759342476726">
        <ele>0</ele>
        <time>2010-01-02T04:29:44Z</time>
      </trkpt>
      <trkpt lat="53.908276297152042" lon="9.601777112111449">
        <ele>0</ele>
        <time>2010-01-02T04:29:45Z</time>
      </trkpt>
      <trkpt lat="53.908264646306634" lon="9.601829163730145">
        <ele>0</ele>
        <time>2010-01-02T04:29:46Z</time>
      </trkpt>
      <trkpt lat="53.908249977976084" lon="9.60188222117722">
        <ele>0</ele>
        <time>2010-01-02T04:29:47Z</time>
      </trkpt>
      <trkpt lat="53.90821997076273" lon="9.601966962218285">
        <ele>0</ele>
        <time>2010-01-02T04:29:50Z</time>
      </trkpt>
      <trkpt lat="53.908194405958056" lon="9.602033598348498">
        <ele>0</ele>
        <time>2010-01-02T04:29:52Z</time>
      </trkpt>
      <trkpt lat="53.908164482563734" lon="9.602092439308763">
        <ele>0</ele>
        <time>2010-01-02T04:29:53Z</time>
      </trkpt>
      <trkpt lat="53.908133720979095" lon="9.602145245298743">
        <ele>0</ele>
        <time>2010-01-02T04:29:55Z</time>
      </trkpt>
      <trkpt lat="53.908107401803136" lon="9.602188998833299">
        <ele>0</ele>
        <time>2010-01-02T04:29:57Z</time>
      </trkpt>
      <trkpt lat="53.90806213952601" lon="9.602262927219272">
        <ele>0</ele>
        <time>2010-01-02T04:29:59Z</time>
      </trkpt>
      <trkpt lat="53.908052751794457" lon="9.602272566407919">
        <ele>0</ele>
        <time>2010-01-02T04:30:00Z</time>
      </trkpt>
      <trkpt lat="53.908029617741704" lon="9.602295951917768">
        <ele>0</ele>
        <time>2010-01-02T04:30:01Z</time>
      </trkpt>
      <trkpt lat="53.907984439283609" lon="9.60234398022294">
        <ele>0</ele>
        <time>2010-01-02T04:30:03Z</time>
      </trkpt>
      <trkpt lat="53.907854352146387" lon="9.602480605244637">
        <ele>0</ele>
        <time>2010-01-02T04:30:09Z</time>
      </trkpt>
      <trkpt lat="53.907790146768093" lon="9.602566352114081">
        <ele>0</ele>
        <time>2010-01-02T04:30:12Z</time>
      </trkpt>
      <trkpt lat="53.907737592235208" lon="9.602661486715078">
        <ele>0</ele>
        <time>2010-01-02T04:30:15Z</time>
      </trkpt>
      <trkpt lat="53.907695598900318" lon="9.602779587730765">
        <ele>0</ele>
        <time>2010-01-02T04:30:19Z</time>
      </trkpt>
      <trkpt lat="53.907657293602824" lon="9.602896180003881">
        <ele>0</ele>
        <time>2010-01-02T04:30:22Z</time>
      </trkpt>
      <trkpt lat="53.907636171206832" lon="9.602984106168151">
        <ele>0</ele>
        <time>2010-01-02T04:30:24Z</time>
      </trkpt>
      <trkpt lat="53.907627705484629" lon="9.6030661650002">
        <ele>0</ele>
        <time>2010-01-02T04:30:26Z</time>
      </trkpt>
      <trkpt lat="53.907629130408168" lon="9.60314529016614">
        <ele>0</ele>
        <time>2010-01-02T04:30:28Z</time>
      </trkpt>
      <trkpt lat="53.907636003568769" lon="9.603204801678658">
        <ele>0</ele>
        <time>2010-01-02T04:30:29Z</time>
      </trkpt>
      <trkpt lat="53.907676823437214" lon="9.603483835235238">
        <ele>0</ele>
        <time>2010-01-02T04:30:36Z</time>
      </trkpt>
      <trkpt lat="53.907738514244556" lon="9.603897063061595">
        <ele>0</ele>
        <time>2010-01-02T04:30:46Z</time>
      </trkpt>
      <trkpt lat="53.907801965251565" lon="9.604324037209153">
        <ele>0</ele>
        <time>2010-01-02T04:30:56Z</time>
      </trkpt>
      <trkpt lat="53.907860135659575" lon="9.604720501229167">
        <ele>0</ele>
        <time>2010-01-02T04:31:06Z</time>
      </trkpt>
      <trkpt lat="53.907950660213828" lon="9.605312179774046">
        <ele>0</ele>
        <time>2010-01-02T04:31:20Z</time>
      </trkpt>
      <trkpt lat="53.908171271905303" lon="9.606627048924565">
        <ele>0</ele>
        <time>2010-01-02T04:31:53Z</time>
      </trkpt>
      <trkpt lat="53.908219132572412" lon="9.606935083866119">
        <ele>0</ele>
        <time>2010-01-02T04:32:00Z</time>
      </trkpt>
      <trkpt lat="53.90830990858376" lon="9.607518464326859">
        <ele>0</ele>
        <time>2010-01-02T04:32:14Z</time>
      </trkpt>
      <trkpt lat="53.908318374305964" lon="9.607572611421347">
        <ele>0</ele>
        <time>2010-01-02T04:32:16Z</time>
      </trkpt>
      <trkpt lat="53.908363049849868" lon="9.607792384922504">
        <ele>0</ele>
        <time>2010-01-02T04:32:21Z</time>
      </trkpt>
      <trkpt lat="53.90842909924686" lon="9.608050463721156">
        <ele>0</ele>
        <time>2010-01-02T04:32:28Z</time>
      </trkpt>
      <trkpt lat="53.908438822254539" lon="9.608087092638016">
        <ele>0</ele>
        <time>2010-01-02T04:32:29Z</time>
      </trkpt>
      <trkpt lat="53.908476708456874" lon="9.608232267200947">
        <ele>0</ele>
        <time>2010-01-02T04:32:33Z</time>
      </trkpt>
      <trkpt lat="53.908525323495269" lon="9.608394205570221">
        <ele>0</ele>
        <time>2010-01-02T04:32:37Z</time>
      </trkpt>
      <trkpt lat="53.908601347357035" lon="9.608638789504766">
        <ele>0</ele>
        <time>2010-01-02T04:32:43Z</time>
      </trkpt>
      <trkpt lat="53.90866513364017" lon="9.608813216909766">
        <ele>0</ele>
        <time>2010-01-02T04:32:48Z</time>
      </trkpt>
      <trkpt lat="53.908720118924975" lon="9.60895705036819">
        <ele>0</ele>
        <time>2010-01-02T04:32:52Z</time>
      </trkpt>
      <trkpt lat="53.908728081732988" lon="9.608978424221277">
        <ele>0</ele>
        <time>2010-01-02T04:32:53Z</time>
      </trkpt>
      <trkpt lat="53.908798322081566" lon="9.609122509136796">
        <ele>0</ele>
        <time>2010-01-02T04:32:57Z</time>
      </trkpt>
      <trkpt lat="53.90887132845819" lon="9.609260559082031">
        <ele>0</ele>
        <time>2010-01-02T04:33:02Z</time>
      </trkpt>
      <trkpt lat="53.908941736444831" lon="9.609380252659321">
        <ele>0</ele>
        <time>2010-01-02T04:33:06Z</time>
      </trkpt>
      <trkpt lat="53.909020274877548" lon="9.609480332583189">
        <ele>0</ele>
        <time>2010-01-02T04:33:10Z</time>
      </trkpt>
      <trkpt lat="53.909094454720616" lon="9.609558954834938">
        <ele>0</ele>
        <time>2010-01-02T04:33:13Z</time>
      </trkpt>
      <trkpt lat="53.909172238782048" lon="9.609627099707723">
        <ele>0</ele>
        <time>2010-01-02T04:33:17Z</time>
      </trkpt>
      <trkpt lat="53.909243904054165" lon="9.60967680439353">
        <ele>0</ele>
        <time>2010-01-02T04:33:20Z</time>
      </trkpt>
      <trkpt lat="53.909365693107247" lon="9.609744027256966">
        <ele>0</ele>
        <time>2010-01-02T04:33:25Z</time>
      </trkpt>
      <trkpt lat="53.909477842971683" lon="9.609783673658967">
        <ele>0</ele>
        <time>2010-01-02T04:33:29Z</time>
      </trkpt>
      <trkpt lat="53.909578341990709" lon="9.609797336161137">
        <ele>0</ele>
        <time>2010-01-02T04:33:33Z</time>
      </trkpt>
      <trkpt lat="53.909712200984359" lon="9.60980236530304">
        <ele>0</ele>
        <time>2010-01-02T04:33:39Z</time>
      </trkpt>
      <trkpt lat="53.910065414384007" lon="9.60978920571506">
        <ele>0</ele>
        <time>2010-01-02T04:33:53Z</time>
      </trkpt>
      <trkpt lat="53.910463470965624" lon="9.609776800498366">
        <ele>0</ele>
        <time>2010-01-02T04:34:09Z</time>
      </trkpt>
      <trkpt lat="53.910549720749259" lon="9.609773447737098">
        <ele>0</ele>
        <time>2010-01-02T04:34:12Z</time>
      </trkpt>
      <trkpt lat="53.910635970532894" lon="9.609774705022573">
        <ele>0</ele>
        <time>2010-01-02T04:34:16Z</time>
      </trkpt>
      <trkpt lat="53.910733032971621" lon="9.609779147431254">
        <ele>0</ele>
        <time>2010-01-02T04:34:20Z</time>
      </trkpt>
      <trkpt lat="53.910842500627041" lon="9.609808148816228">
        <ele>0</ele>
        <time>2010-01-02T04:34:24Z</time>
      </trkpt>
      <trkpt lat="53.910932103171945" lon="9.609855087473989">
        <ele>0</ele>
        <time>2010-01-02T04:34:28Z</time>
      </trkpt>
      <trkpt lat="53.911023465916514" lon="9.609911246225238">
        <ele>0</ele>
        <time>2010-01-02T04:34:32Z</time>
      </trkpt>
      <trkpt lat="53.911107536405325" lon="9.609987018629909">
        <ele>0</ele>
        <time>2010-01-02T04:34:35Z</time>
      </trkpt>
      <trkpt lat="53.911189679056406" lon="9.610087098553777">
        <ele>0</ele>
        <time>2010-01-02T04:34:40Z</time>
      </trkpt>
      <trkpt lat="53.91126461327076" lon="9.610190195962787">
        <ele>0</ele>
        <time>2010-01-02T04:34:43Z</time>
      </trkpt>
      <trkpt lat="53.911350192502141" lon="9.610325312241912">
        <ele>0</ele>
        <time>2010-01-02T04:34:48Z</time>
      </trkpt>
      <trkpt lat="53.911428479477763" lon="9.610477108508348">
        <ele>0</ele>
        <time>2010-01-02T04:34:53Z</time>
      </trkpt>
      <trkpt lat="53.911472987383604" lon="9.610560005530715">
        <ele>0</ele>
        <time>2010-01-02T04:34:55Z</time>
      </trkpt>
      <trkpt lat="53.911647414788604" lon="9.610883630812168">
        <ele>0</ele>
        <time>2010-01-02T04:35:06Z</time>
      </trkpt>
      <trkpt lat="53.911665687337518" lon="9.610921433195472">
        <ele>0</ele>
        <time>2010-01-02T04:35:07Z</time>
      </trkpt>
      <trkpt lat="53.911717822775245" lon="9.611029392108321">
        <ele>0</ele>
        <time>2010-01-02T04:35:10Z</time>
      </trkpt>
      <trkpt lat="53.911759229376912" lon="9.611114887520671">
        <ele>0</ele>
        <time>2010-01-02T04:35:13Z</time>
      </trkpt>
      <trkpt lat="53.912092829123139" lon="9.611804718151689">
        <ele>0</ele>
        <time>2010-01-02T04:35:34Z</time>
      </trkpt>
      <trkpt lat="53.912254683673382" lon="9.612138820812106">
        <ele>0</ele>
        <time>2010-01-02T04:35:44Z</time>
      </trkpt>
      <trkpt lat="53.912333725020289" lon="9.612321043387055">
        <ele>0</ele>
        <time>2010-01-02T04:35:49Z</time>
      </trkpt>
      <trkpt lat="53.912409162148833" lon="9.612501757219434">
        <ele>0</ele>
        <time>2010-01-02T04:35:55Z</time>
      </trkpt>
      <trkpt lat="53.91245442442596" lon="9.612608961760998">
        <ele>0</ele>
        <time>2010-01-02T04:35:58Z</time>
      </trkpt>
      <trkpt lat="53.912535896524787" lon="9.612841475754976">
        <ele>0</ele>
        <time>2010-01-02T04:36:04Z</time>
      </trkpt>
      <trkpt lat="53.912617200985551" lon="9.613105924800038">
        <ele>0</ele>
        <time>2010-01-02T04:36:11Z</time>
      </trkpt>
      <trkpt lat="53.912654416635633" lon="9.613239280879498">
        <ele>0</ele>
        <time>2010-01-02T04:36:15Z</time>
      </trkpt>
      <trkpt lat="53.912692219018936" lon="9.613374816253781">
        <ele>0</ele>
        <time>2010-01-02T04:36:18Z</time>
      </trkpt>
      <trkpt lat="53.912765393033624" lon="9.613633062690496">
        <ele>0</ele>
        <time>2010-01-02T04:36:25Z</time>
      </trkpt>
      <trkpt lat="53.912826078012586" lon="9.613892734050751">
        <ele>0</ele>
        <time>2010-01-02T04:36:32Z</time>
      </trkpt>
      <trkpt lat="53.912875195965171" lon="9.614137066528201">
        <ele>0</ele>
        <time>2010-01-02T04:36:38Z</time>
      </trkpt>
      <trkpt lat="53.912882152944803" lon="9.614172019064426">
        <ele>0</ele>
        <time>2010-01-02T04:36:39Z</time>
      </trkpt>
      <trkpt lat="53.91292498447001" lon="9.614400928840041">
        <ele>0</ele>
        <time>2010-01-02T04:36:44Z</time>
      </trkpt>
      <trkpt lat="53.912937641143799" lon="9.614480221644044">
        <ele>0</ele>
        <time>2010-01-02T04:36:46Z</time>
      </trkpt>
      <trkpt lat="53.912959853187203" lon="9.614619025960565">
        <ele>0</ele>
        <time>2010-01-02T04:36:50Z</time>
      </trkpt>
      <trkpt lat="53.912994638085365" lon="9.614846259355545">
        <ele>0</ele>
        <time>2010-01-02T04:36:55Z</time>
      </trkpt>
      <trkpt lat="53.913013581186533" lon="9.615001827478409">
        <ele>0</ele>
        <time>2010-01-02T04:36:59Z</time>
      </trkpt>
      <trkpt lat="53.913034284487367" lon="9.615174075588584">
        <ele>0</ele>
        <time>2010-01-02T04:37:03Z</time>
      </trkpt>
      <trkpt lat="53.913057334721088" lon="9.615402650088072">
        <ele>0</ele>
        <time>2010-01-02T04:37:08Z</time>
      </trkpt>
      <trkpt lat="53.91307108104229" lon="9.615536844357848">
        <ele>0</ele>
        <time>2010-01-02T04:37:12Z</time>
      </trkpt>
      <trkpt lat="53.913091281428933" lon="9.615794252604246">
        <ele>0</ele>
        <time>2010-01-02T04:37:18Z</time>
      </trkpt>
      <trkpt lat="53.913098573684692" lon="9.615948060527444">
        <ele>0</ele>
        <time>2010-01-02T04:37:21Z</time>
      </trkpt>
      <trkpt lat="53.913104943931103" lon="9.616101868450642">
        <ele>0</ele>
        <time>2010-01-02T04:37:25Z</time>
      </trkpt>
      <trkpt lat="53.913110727444291" lon="9.616385009139776">
        <ele>0</ele>
        <time>2010-01-02T04:37:32Z</time>
      </trkpt>
      <trkpt lat="53.913108296692371" lon="9.616681728512049">
        <ele>0</ele>
        <time>2010-01-02T04:37:39Z</time>
      </trkpt>
      <trkpt lat="53.913108045235276" lon="9.616698073223233">
        <ele>0</ele>
        <time>2010-01-02T04:37:39Z</time>
      </trkpt>
      <trkpt lat="53.913100836798549" lon="9.617075761780143">
        <ele>0</ele>
        <time>2010-01-02T04:37:48Z</time>
      </trkpt>
      <trkpt lat="53.913093293085694" lon="9.617503322660923">
        <ele>0</ele>
        <time>2010-01-02T04:37:58Z</time>
      </trkpt>
      <trkpt lat="53.913084575906396" lon="9.617970362305641">
        <ele>0</ele>
        <time>2010-01-02T04:38:09Z</time>
      </trkpt>
      <trkpt lat="53.913072003051639" lon="9.618493728339672">
        <ele>0</ele>
        <time>2010-01-02T04:38:21Z</time>
      </trkpt>
      <trkpt lat="53.91306278295815" lon="9.618884660303593">
        <ele>0</ele>
        <time>2010-01-02T04:38:31Z</time>
      </trkpt>
      <trkpt lat="53.913054568693042" lon="9.619258912280202">
        <ele>0</ele>
        <time>2010-01-02T04:38:39Z</time>
      </trkpt>
      <trkpt lat="53.913043504580855" lon="9.619844639673829">
        <ele>0</ele>
        <time>2010-01-02T04:38:53Z</time>
      </trkpt>
      <trkpt lat="53.913035625591874" lon="9.620319306850433">
        <ele>0</ele>
        <time>2010-01-02T04:39:05Z</time>
      </trkpt>
      <trkpt lat="53.913023052737117" lon="9.620832027867436">
        <ele>0</ele>
        <time>2010-01-02T04:39:17Z</time>
      </trkpt>
      <trkpt lat="53.913018526509404" lon="9.621188007295132">
        <ele>0</ele>
        <time>2010-01-02T04:39:25Z</time>
      </trkpt>
      <trkpt lat="53.913017101585865" lon="9.621460419148207">
        <ele>0</ele>
        <time>2010-01-02T04:39:31Z</time>
      </trkpt>
      <trkpt lat="53.91302322037518" lon="9.621672062203288">
        <ele>0</ele>
        <time>2010-01-02T04:39:36Z</time>
      </trkpt>
      <trkpt lat="53.913032189011574" lon="9.622029801830649">
        <ele>0</ele>
        <time>2010-01-02T04:39:45Z</time>
      </trkpt>
      <trkpt lat="53.91304518096149" lon="9.622293245047331">
        <ele>0</ele>
        <time>2010-01-02T04:39:51Z</time>
      </trkpt>
      <trkpt lat="53.913061777129769" lon="9.622556772083044">
        <ele>0</ele>
        <time>2010-01-02T04:39:57Z</time>
      </trkpt>
      <trkpt lat="53.913089940324426" lon="9.622835721820593">
        <ele>0</ele>
        <time>2010-01-02T04:40:04Z</time>
      </trkpt>
      <trkpt lat="53.913125144317746" lon="9.623160352930427">
        <ele>0</ele>
        <time>2010-01-02T04:40:12Z</time>
      </trkpt>
      <trkpt lat="53.913180883973837" lon="9.623494455590844">
        <ele>0</ele>
        <time>2010-01-02T04:40:20Z</time>
      </trkpt>
      <trkpt lat="53.913238467648625" lon="9.623817997053266">
        <ele>0</ele>
        <time>2010-01-02T04:40:28Z</time>
      </trkpt>
      <trkpt lat="53.913264786824584" lon="9.623949257656932">
        <ele>0</ele>
        <time>2010-01-02T04:40:31Z</time>
      </trkpt>
      <trkpt lat="53.913352210074663" lon="9.624277744442225">
        <ele>0</ele>
        <time>2010-01-02T04:40:40Z</time>
      </trkpt>
      <trkpt lat="53.913448099046946" lon="9.624638333916664">
        <ele>0</ele>
        <time>2010-01-02T04:40:49Z</time>
      </trkpt>
      <trkpt lat="53.913523033261299" lon="9.624910326674581">
        <ele>0</ele>
        <time>2010-01-02T04:40:56Z</time>
      </trkpt>
      <trkpt lat="53.913788823410869" lon="9.625793946906924">
        <ele>0</ele>
        <time>2010-01-02T04:41:20Z</time>
      </trkpt>
      <trkpt lat="53.914068108424544" lon="9.626685362309217">
        <ele>0</ele>
        <time>2010-01-02T04:41:43Z</time>
      </trkpt>
      <trkpt lat="53.914199871942401" lon="9.627092136070132">
        <ele>0</ele>
        <time>2010-01-02T04:41:54Z</time>
      </trkpt>
      <trkpt lat="53.914272291585803" lon="9.62732607498765">
        <ele>0</ele>
        <time>2010-01-02T04:42:01Z</time>
      </trkpt>
      <trkpt lat="53.914342867210507" lon="9.627579711377621">
        <ele>0</ele>
        <time>2010-01-02T04:42:07Z</time>
      </trkpt>
      <trkpt lat="53.914383267983794" lon="9.627759922295809">
        <ele>0</ele>
        <time>2010-01-02T04:42:12Z</time>
      </trkpt>
      <trkpt lat="53.914412017911673" lon="9.627932338044047">
        <ele>0</ele>
        <time>2010-01-02T04:42:16Z</time>
      </trkpt>
      <trkpt lat="53.914434481412172" lon="9.628098551183939">
        <ele>0</ele>
        <time>2010-01-02T04:42:20Z</time>
      </trkpt>
      <trkpt lat="53.914467003196478" lon="9.628414046019316">
        <ele>0</ele>
        <time>2010-01-02T04:42:27Z</time>
      </trkpt>
      <trkpt lat="53.914549062028527" lon="9.629206638783216">
        <ele>0</ele>
        <time>2010-01-02T04:42:46Z</time>
      </trkpt>
      <trkpt lat="53.914641430601478" lon="9.630098389461637">
        <ele>0</ele>
        <time>2010-01-02T04:43:08Z</time>
      </trkpt>
      <trkpt lat="53.914662804454565" lon="9.630301063880324">
        <ele>0</ele>
        <time>2010-01-02T04:43:13Z</time>
      </trkpt>
      <trkpt lat="53.914672862738371" lon="9.630441209301353">
        <ele>0</ele>
        <time>2010-01-02T04:43:16Z</time>
      </trkpt>
      <trkpt lat="53.914675042033195" lon="9.630538690835238">
        <ele>0</ele>
        <time>2010-01-02T04:43:18Z</time>
      </trkpt>
      <trkpt lat="53.914672527462244" lon="9.630671041086316">
        <ele>0</ele>
        <time>2010-01-02T04:43:21Z</time>
      </trkpt>
      <trkpt lat="53.914667414501309" lon="9.63079878129065">
        <ele>0</ele>
        <time>2010-01-02T04:43:24Z</time>
      </trkpt>
      <trkpt lat="53.914654087275267" lon="9.630937082692981">
        <ele>0</ele>
        <time>2010-01-02T04:43:28Z</time>
      </trkpt>
      <trkpt lat="53.914639921858907" lon="9.631069265305996">
        <ele>0</ele>
        <time>2010-01-02T04:43:31Z</time>
      </trkpt>
      <trkpt lat="53.914557863026857" lon="9.63163873180747">
        <ele>0</ele>
        <time>2010-01-02T04:43:45Z</time>
      </trkpt>
      <trkpt lat="53.914540847763419" lon="9.631801340728998">
        <ele>0</ele>
        <time>2010-01-02T04:43:49Z</time>
      </trkpt>
      <trkpt lat="53.914518970996141" lon="9.632023209705949">
        <ele>0</ele>
        <time>2010-01-02T04:43:54Z</time>
      </trkpt>
      <trkpt lat="53.914506062865257" lon="9.632255807518959">
        <ele>0</ele>
        <time>2010-01-02T04:43:59Z</time>
      </trkpt>
      <trkpt lat="53.914501620456576" lon="9.632423194125295">
        <ele>0</ele>
        <time>2010-01-02T04:44:03Z</time>
      </trkpt>
      <trkpt lat="53.914503548294306" lon="9.632566273212433">
        <ele>0</ele>
        <time>2010-01-02T04:44:07Z</time>
      </trkpt>
      <trkpt lat="53.914510505273938" lon="9.632783951237798">
        <ele>0</ele>
        <time>2010-01-02T04:44:12Z</time>
      </trkpt>
      <trkpt lat="53.914527436718345" lon="9.632982099428773">
        <ele>0</ele>
        <time>2010-01-02T04:44:17Z</time>
      </trkpt>
      <trkpt lat="53.914548978209496" lon="9.633151330053806">
        <ele>0</ele>
        <time>2010-01-02T04:44:21Z</time>
      </trkpt>
      <trkpt lat="53.914651907980442" lon="9.633729681372643">
        <ele>0</ele>
        <time>2010-01-02T04:44:35Z</time>
      </trkpt>
      <trkpt lat="53.914708234369755" lon="9.633955825120211">
        <ele>0</ele>
        <time>2010-01-02T04:44:41Z</time>
      </trkpt>
      <trkpt lat="53.914793059229851" lon="9.634232511743903">
        <ele>0</ele>
        <time>2010-01-02T04:44:48Z</time>
      </trkpt>
      <trkpt lat="53.915151469409466" lon="9.635357027873397">
        <ele>0</ele>
        <time>2010-01-02T04:45:18Z</time>
      </trkpt>
      <trkpt lat="53.915162365883589" lon="9.635391309857368">
        <ele>0</ele>
        <time>2010-01-02T04:45:19Z</time>
      </trkpt>
      <trkpt lat="53.915378954261541" lon="9.636070746928453">
        <ele>0</ele>
        <time>2010-01-02T04:45:37Z</time>
      </trkpt>
      <trkpt lat="53.915622029453516" lon="9.63683383539319">
        <ele>0</ele>
        <time>2010-01-02T04:45:58Z</time>
      </trkpt>
      <trkpt lat="53.915862506255507" lon="9.637563480064273">
        <ele>0</ele>
        <time>2010-01-02T04:46:18Z</time>
      </trkpt>
      <trkpt lat="53.915881114080548" lon="9.637620057910681">
        <ele>0</ele>
        <time>2010-01-02T04:46:19Z</time>
      </trkpt>
      <trkpt lat="53.916043723002076" lon="9.6381233073771">
        <ele>0</ele>
        <time>2010-01-02T04:46:33Z</time>
      </trkpt>
      <trkpt lat="53.916138438507915" lon="9.638392617926002">
        <ele>0</ele>
        <time>2010-01-02T04:46:40Z</time>
      </trkpt>
      <trkpt lat="53.916210103780031" lon="9.638596130535007">
        <ele>0</ele>
        <time>2010-01-02T04:46:46Z</time>
      </trkpt>
      <trkpt lat="53.916257042437792" lon="9.638729235157371">
        <ele>0</ele>
        <time>2010-01-02T04:46:49Z</time>
      </trkpt>
      <trkpt lat="53.916344549506903" lon="9.638992343097925">
        <ele>0</ele>
        <time>2010-01-02T04:46:56Z</time>
      </trkpt>
      <trkpt lat="53.916487041860819" lon="9.63940691202879">
        <ele>0</ele>
        <time>2010-01-02T04:47:08Z</time>
      </trkpt>
      <trkpt lat="53.916572034358978" lon="9.639644119888544">
        <ele>0</ele>
        <time>2010-01-02T04:47:14Z</time>
      </trkpt>
      <trkpt lat="53.91665174625814" lon="9.639856936410069">
        <ele>0</ele>
        <time>2010-01-02T04:47:20Z</time>
      </trkpt>
      <trkpt lat="53.916830029338598" lon="9.640294890850782">
        <ele>0</ele>
        <time>2010-01-02T04:47:33Z</time>
      </trkpt>
      <trkpt lat="53.916970090940595" lon="9.640637962147593">
        <ele>0</ele>
        <time>2010-01-02T04:47:43Z</time>
      </trkpt>
      <trkpt lat="53.916990542784333" lon="9.640686996281147">
        <ele>0</ele>
        <time>2010-01-02T04:47:44Z</time>
      </trkpt>
      <trkpt lat="53.917239736765623" lon="9.64129351079464">
        <ele>0</ele>
        <time>2010-01-02T04:48:01Z</time>
      </trkpt>
      <trkpt lat="53.917324058711529" lon="9.641494173556566">
        <ele>0</ele>
        <time>2010-01-02T04:48:07Z</time>
      </trkpt>
      <trkpt lat="53.917396813631058" lon="9.641665751114488">
        <ele>0</ele>
        <time>2010-01-02T04:48:12Z</time>
      </trkpt>
      <trkpt lat="53.917518351227045" lon="9.641955262050033">
        <ele>0</ele>
        <time>2010-01-02T04:48:21Z</time>
      </trkpt>
      <trkpt lat="53.917614240199327" lon="9.642171347513795">
        <ele>0</ele>
        <time>2010-01-02T04:48:27Z</time>
      </trkpt>
      <trkpt lat="53.917698645964265" lon="9.642349211499095">
        <ele>0</ele>
        <time>2010-01-02T04:48:32Z</time>
      </trkpt>
      <trkpt lat="53.917706608772278" lon="9.64236605912447">
        <ele>0</ele>
        <time>2010-01-02T04:48:33Z</time>
      </trkpt>
      <trkpt lat="53.917847005650401" lon="9.642649786546826">
        <ele>0</ele>
        <time>2010-01-02T04:48:42Z</time>
      </trkpt>
      <trkpt lat="53.91830675303936" lon="9.643550254404545">
        <ele>0</ele>
        <time>2010-01-02T04:49:10Z</time>
      </trkpt>
      <trkpt lat="53.918899772688746" lon="9.644713075831532">
        <ele>0</ele>
        <time>2010-01-02T04:49:46Z</time>
      </trkpt>
      <trkpt lat="53.918936820700765" lon="9.644671082496643">
        <ele>0</ele>
        <time>2010-01-02T04:49:48Z</time>
      </trkpt>
      <trkpt lat="53.919661855325103" lon="9.643837502226233">
        <ele>0</ele>
        <time>2010-01-02T04:50:23Z</time>
      </trkpt>
      <trkpt lat="53.922267286106944" lon="9.640842480584979">
        <ele>0</ele>
        <time>2010-01-02T04:52:29Z</time>
      </trkpt>
      <trkpt lat="53.922956110909581" lon="9.640050809830427">
        <ele>0</ele>
        <time>2010-01-02T04:53:02Z</time>
      </trkpt>
      <trkpt lat="53.923321310430765" lon="9.639630205929279">
        <ele>0</ele>
        <time>2010-01-02T04:53:20Z</time>
      </trkpt>
      <trkpt lat="53.923367410898209" lon="9.63958527892828">
        <ele>0</ele>
        <time>2010-01-02T04:53:22Z</time>
      </trkpt>
      <trkpt lat="53.923408063128591" lon="9.639544794335961">
        <ele>0</ele>
        <time>2010-01-02T04:53:24Z</time>
      </trkpt>
      <trkpt lat="53.923655664548278" lon="9.63927305303514">
        <ele>0</ele>
        <time>2010-01-02T04:53:36Z</time>
      </trkpt>
      <trkpt lat="53.923950539901853" lon="9.63940691202879">
        <ele>0</ele>
        <time>2010-01-02T04:53:48Z</time>
      </trkpt>
      <trkpt lat="53.924001669511199" lon="9.639427531510592">
        <ele>0</ele>
        <time>2010-01-02T04:53:50Z</time>
      </trkpt>
      <trkpt lat="53.92407258041203" lon="9.639439266175032">
        <ele>0</ele>
        <time>2010-01-02T04:53:53Z</time>
      </trkpt>
      <trkpt lat="53.924164194613695" lon="9.639439182356">
        <ele>0</ele>
        <time>2010-01-02T04:53:56Z</time>
      </trkpt>
      <trkpt lat="53.924707593396306" lon="9.639302808791399">
        <ele>0</ele>
        <time>2010-01-02T04:54:18Z</time>
      </trkpt>
      <trkpt lat="53.924787724390626" lon="9.639275148510933">
        <ele>0</ele>
        <time>2010-01-02T04:54:22Z</time>
      </trkpt>
      <trkpt lat="53.924888642504811" lon="9.639212787151337">
        <ele>0</ele>
        <time>2010-01-02T04:54:26Z</time>
      </trkpt>
      <trkpt lat="53.924976736307144" lon="9.639380006119609">
        <ele>0</ele>
        <time>2010-01-02T04:54:31Z</time>
      </trkpt>
      <trkpt lat="53.925024010241032" lon="9.639443121850491">
        <ele>0</ele>
        <time>2010-01-02T04:54:34Z</time>
      </trkpt>
      <trkpt lat="53.925145631656051" lon="9.639550074934959">
        <ele>0</ele>
        <time>2010-01-02T04:54:39Z</time>
      </trkpt>
      <trkpt lat="53.925410332158208" lon="9.639782421290874">
        <ele>0</ele>
        <time>2010-01-02T04:54:51Z</time>
      </trkpt>
      <trkpt lat="53.925483673810959" lon="9.639845956116915">
        <ele>0</ele>
        <time>2010-01-02T04:54:54Z</time>
      </trkpt>
      <trkpt lat="53.925540000200272" lon="9.639894068241119">
        <ele>0</ele>
        <time>2010-01-02T04:54:57Z</time>
      </trkpt>
      <trkpt lat="53.92562055028975" lon="9.63995617814362">
        <ele>0</ele>
        <time>2010-01-02T04:55:00Z</time>
      </trkpt>
      <trkpt lat="53.925702106207609" lon="9.639995489269495">
        <ele>0</ele>
        <time>2010-01-02T04:55:04Z</time>
      </trkpt>
      <trkpt lat="53.925851052626967" lon="9.640026669949293">
        <ele>0</ele>
        <time>2010-01-02T04:55:10Z</time>
      </trkpt>
      <trkpt lat="53.926014499738812" lon="9.640051983296871">
        <ele>0</ele>
        <time>2010-01-02T04:55:16Z</time>
      </trkpt>
      <trkpt lat="53.926215665414929" lon="9.640064220875502">
        <ele>0</ele>
        <time>2010-01-02T04:55:24Z</time>
      </trkpt>
      <trkpt lat="53.926488747820258" lon="9.640071429312229">
        <ele>0</ele>
        <time>2010-01-02T04:55:35Z</time>
      </trkpt>
      <trkpt lat="53.926811199635267" lon="9.640097664669156">
        <ele>0</ele>
        <time>2010-01-02T04:55:48Z</time>
      </trkpt>
      <trkpt lat="53.927028374746442" lon="9.640142088755965">
        <ele>0</ele>
        <time>2010-01-02T04:55:57Z</time>
      </trkpt>
      <trkpt lat="53.927408661693335" lon="9.640270080417395">
        <ele>0</ele>
        <time>2010-01-02T04:56:13Z</time>
      </trkpt>
      <trkpt lat="53.927756510674953" lon="9.640402933582664">
        <ele>0</ele>
        <time>2010-01-02T04:56:27Z</time>
      </trkpt>
      <trkpt lat="53.927826415747404" lon="9.640429923310876">
        <ele>0</ele>
        <time>2010-01-02T04:56:30Z</time>
      </trkpt>
      <trkpt lat="53.928243583068252" lon="9.640551963821054">
        <ele>0</ele>
        <time>2010-01-02T04:56:47Z</time>
      </trkpt>
      <trkpt lat="53.928324384614825" lon="9.640565374866128">
        <ele>0</ele>
        <time>2010-01-02T04:56:50Z</time>
      </trkpt>
      <trkpt lat="53.928542481735349" lon="9.640599237754941">
        <ele>0</ele>
        <time>2010-01-02T04:56:59Z</time>
      </trkpt>
      <trkpt lat="53.928777510300279" lon="9.640675848349929">
        <ele>0</ele>
        <time>2010-01-02T04:57:08Z</time>
      </trkpt>
      <trkpt lat="53.92893785610795" lon="9.640758996829391">
        <ele>0</ele>
        <time>2010-01-02T04:57:15Z</time>
      </trkpt>
      <trkpt lat="53.929080180823803" lon="9.640861675143242">
        <ele>0</ele>
        <time>2010-01-02T04:57:21Z</time>
      </trkpt>
      <trkpt lat="53.929237509146333" lon="9.641008693724871">
        <ele>0</ele>
        <time>2010-01-02T04:57:28Z</time>
      </trkpt>
      <trkpt lat="53.929536826908588" lon="9.641331480816007">
        <ele>0</ele>
        <time>2010-01-02T04:57:43Z</time>
      </trkpt>
      <trkpt lat="53.929976876825094" lon="9.641866497695446">
        <ele>0</ele>
        <time>2010-01-02T04:58:04Z</time>
      </trkpt>
      <trkpt lat="53.930414328351617" lon="9.642393970862031">
        <ele>0</ele>
        <time>2010-01-02T04:58:26Z</time>
      </trkpt>
      <trkpt lat="53.931105500087142" lon="9.643174912780523">
        <ele>0</ele>
        <time>2010-01-02T04:58:59Z</time>
      </trkpt>
      <trkpt lat="53.931191246956587" lon="9.643275244161487">
        <ele>0</ele>
        <time>2010-01-02T04:59:03Z</time>
      </trkpt>
      <trkpt lat="53.931226031854749" lon="9.643325954675674">
        <ele>0</ele>
        <time>2010-01-02T04:59:05Z</time>
      </trkpt>
      <trkpt lat="53.931276826187968" lon="9.643399883061647">
        <ele>0</ele>
        <time>2010-01-02T04:59:08Z</time>
      </trkpt>
      <trkpt lat="53.931351592764258" lon="9.643530389294028">
        <ele>0</ele>
        <time>2010-01-02T04:59:12Z</time>
      </trkpt>
      <trkpt lat="53.931399453431368" lon="9.643657542765141">
        <ele>0</ele>
        <time>2010-01-02T04:59:15Z</time>
      </trkpt>
      <trkpt lat="53.931431137025356" lon="9.643772207200527">
        <ele>0</ele>
        <time>2010-01-02T04:59:18Z</time>
      </trkpt>
      <trkpt lat="53.931458378210664" lon="9.643892906606197">
        <ele>0</ele>
        <time>2010-01-02T04:59:21Z</time>
      </trkpt>
      <trkpt lat="53.931472962722182" lon="9.644017964601517">
        <ele>0</ele>
        <time>2010-01-02T04:59:24Z</time>
      </trkpt>
      <trkpt lat="53.93148310482502" lon="9.644138412550092">
        <ele>0</ele>
        <time>2010-01-02T04:59:27Z</time>
      </trkpt>
      <trkpt lat="53.931483188644052" lon="9.644289119169116">
        <ele>0</ele>
        <time>2010-01-02T04:59:31Z</time>
      </trkpt>
      <trkpt lat="53.931483523920178" lon="9.644392635673285">
        <ele>0</ele>
        <time>2010-01-02T04:59:33Z</time>
      </trkpt>
      <trkpt lat="53.931484697386622" lon="9.644508389756083">
        <ele>0</ele>
        <time>2010-01-02T04:59:36Z</time>
      </trkpt>
      <trkpt lat="53.931486709043384" lon="9.644636297598481">
        <ele>0</ele>
        <time>2010-01-02T04:59:39Z</time>
      </trkpt>
      <trkpt lat="53.931490397080779" lon="9.644788596779108">
        <ele>0</ele>
        <time>2010-01-02T04:59:43Z</time>
      </trkpt>
      <trkpt lat="53.931500120088458" lon="9.644979033619165">
        <ele>0</ele>
        <time>2010-01-02T04:59:47Z</time>
      </trkpt>
      <trkpt lat="53.931504646316171" lon="9.645043825730681">
        <ele>0</ele>
        <time>2010-01-02T04:59:49Z</time>
      </trkpt>
      <trkpt lat="53.931518476456404" lon="9.645244237035513">
        <ele>0</ele>
        <time>2010-01-02T04:59:53Z</time>
      </trkpt>
      <trkpt lat="53.931530714035034" lon="9.645480439066887">
        <ele>0</ele>
        <time>2010-01-02T04:59:59Z</time>
      </trkpt>
      <trkpt lat="53.931536749005318" lon="9.645693674683571">
        <ele>0</ele>
        <time>2010-01-02T05:00:04Z</time>
      </trkpt>
      <trkpt lat="53.931551165878773" lon="9.645853769034147">
        <ele>0</ele>
        <time>2010-01-02T05:00:08Z</time>
      </trkpt>
      <trkpt lat="53.93156910315156" lon="9.646018473431468">
        <ele>0</ele>
        <time>2010-01-02T05:00:12Z</time>
      </trkpt>
      <trkpt lat="53.931576143950224" lon="9.646055437624454">
        <ele>0</ele>
        <time>2010-01-02T05:00:13Z</time>
      </trkpt>
      <trkpt lat="53.931594416499138" lon="9.646152835339308">
        <ele>0</ele>
        <time>2010-01-02T05:00:15Z</time>
      </trkpt>
      <trkpt lat="53.931627944111824" lon="9.646279737353325">
        <ele>0</ele>
        <time>2010-01-02T05:00:18Z</time>
      </trkpt>
      <trkpt lat="53.931663315743208" lon="9.646380739286542">
        <ele>0</ele>
        <time>2010-01-02T05:00:21Z</time>
      </trkpt>
      <trkpt lat="53.931738752871752" lon="9.646553993225098">
        <ele>0</ele>
        <time>2010-01-02T05:00:26Z</time>
      </trkpt>
      <trkpt lat="53.931837575510144" lon="9.646713836118579">
        <ele>0</ele>
        <time>2010-01-02T05:00:32Z</time>
      </trkpt>
      <trkpt lat="53.931945450603962" lon="9.646879881620407">
        <ele>0</ele>
        <time>2010-01-02T05:00:38Z</time>
      </trkpt>
      <trkpt lat="53.932000603526831" lon="9.646984320133924">
        <ele>0</ele>
        <time>2010-01-02T05:00:41Z</time>
      </trkpt>
      <trkpt lat="53.932050308212638" lon="9.647093201056123">
        <ele>0</ele>
        <time>2010-01-02T05:00:44Z</time>
      </trkpt>
      <trkpt lat="53.932090122252703" lon="9.647198813036084">
        <ele>0</ele>
        <time>2010-01-02T05:00:47Z</time>
      </trkpt>
      <trkpt lat="53.932122811675072" lon="9.647310459986329">
        <ele>0</ele>
        <time>2010-01-02T05:00:50Z</time>
      </trkpt>
      <trkpt lat="53.932161368429661" lon="9.647495280951262">
        <ele>0</ele>
        <time>2010-01-02T05:00:55Z</time>
      </trkpt>
      <trkpt lat="53.93220235593617" lon="9.64771362952888">
        <ele>0</ele>
        <time>2010-01-02T05:01:00Z</time>
      </trkpt>
      <trkpt lat="53.932221382856369" lon="9.647852517664433">
        <ele>0</ele>
        <time>2010-01-02T05:01:03Z</time>
      </trkpt>
      <trkpt lat="53.932247115299106" lon="9.648084361106157">
        <ele>0</ele>
        <time>2010-01-02T05:01:09Z</time>
      </trkpt>
      <trkpt lat="53.93226932734251" lon="9.648291729390621">
        <ele>0</ele>
        <time>2010-01-02T05:01:14Z</time>
      </trkpt>
      <trkpt lat="53.932279301807284" lon="9.648439586162567">
        <ele>0</ele>
        <time>2010-01-02T05:01:17Z</time>
      </trkpt>
      <trkpt lat="53.932290617376566" lon="9.648669669404626">
        <ele>0</ele>
        <time>2010-01-02T05:01:23Z</time>
      </trkpt>
      <trkpt lat="53.932290114462376" lon="9.648764049634337">
        <ele>0</ele>
        <time>2010-01-02T05:01:25Z</time>
      </trkpt>
      <trkpt lat="53.932289527729154" lon="9.648879719898105">
        <ele>0</ele>
        <time>2010-01-02T05:01:28Z</time>
      </trkpt>
      <trkpt lat="53.932291371747851" lon="9.649038137868047">
        <ele>0</ele>
        <time>2010-01-02T05:01:32Z</time>
      </trkpt>
      <trkpt lat="53.932292042300105" lon="9.649187754839659">
        <ele>0</ele>
        <time>2010-01-02T05:01:35Z</time>
      </trkpt>
      <trkpt lat="53.932292209938169" lon="9.649211727082729">
        <ele>0</ele>
        <time>2010-01-02T05:01:36Z</time>
      </trkpt>
      <trkpt lat="53.932292880490422" lon="9.649237710982561">
        <ele>0</ele>
        <time>2010-01-02T05:01:36Z</time>
      </trkpt>
      <trkpt lat="53.932296652346849" lon="9.649392943829298">
        <ele>0</ele>
        <time>2010-01-02T05:01:40Z</time>
      </trkpt>
      <trkpt lat="53.93231182359159" lon="9.649552619084716">
        <ele>0</ele>
        <time>2010-01-02T05:01:44Z</time>
      </trkpt>
      <trkpt lat="53.932313667610288" lon="9.649571310728788">
        <ele>0</ele>
        <time>2010-01-02T05:01:44Z</time>
      </trkpt>
      <trkpt lat="53.932338897138834" lon="9.649710282683372">
        <ele>0</ele>
        <time>2010-01-02T05:01:48Z</time>
      </trkpt>
      <trkpt lat="53.932391367852688" lon="9.649989735335112">
        <ele>0</ele>
        <time>2010-01-02T05:01:55Z</time>
      </trkpt>
      <trkpt lat="53.932429673150182" lon="9.650214118883014">
        <ele>0</ele>
        <time>2010-01-02T05:02:00Z</time>
      </trkpt>
      <trkpt lat="53.932440066710114" lon="9.650281257927418">
        <ele>0</ele>
        <time>2010-01-02T05:02:02Z</time>
      </trkpt>
      <trkpt lat="53.93245305866003" lon="9.65037127956748">
        <ele>0</ele>
        <time>2010-01-02T05:02:04Z</time>
      </trkpt>
      <trkpt lat="53.932478791102767" lon="9.650593986734748">
        <ele>0</ele>
        <time>2010-01-02T05:02:09Z</time>
      </trkpt>
      <trkpt lat="53.932486418634653" lon="9.650673279538751">
        <ele>0</ele>
        <time>2010-01-02T05:02:11Z</time>
      </trkpt>
      <trkpt lat="53.932499159127474" lon="9.650807473808527">
        <ele>0</ele>
        <time>2010-01-02T05:02:14Z</time>
      </trkpt>
      <trkpt lat="53.932509049773216" lon="9.650972094386816">
        <ele>0</ele>
        <time>2010-01-02T05:02:18Z</time>
      </trkpt>
      <trkpt lat="53.932513911277056" lon="9.651093799620867">
        <ele>0</ele>
        <time>2010-01-02T05:02:21Z</time>
      </trkpt>
      <trkpt lat="53.932515420019627" lon="9.651132021099329">
        <ele>0</ele>
        <time>2010-01-02T05:02:22Z</time>
      </trkpt>
      <trkpt lat="53.932511731982231" lon="9.651307035237551">
        <ele>0</ele>
        <time>2010-01-02T05:02:26Z</time>
      </trkpt>
      <trkpt lat="53.93250385299325" lon="9.651447013020515">
        <ele>0</ele>
        <time>2010-01-02T05:02:29Z</time>
      </trkpt>
      <trkpt lat="53.932494046166539" lon="9.651594534516335">
        <ele>0</ele>
        <time>2010-01-02T05:02:33Z</time>
      </trkpt>
      <trkpt lat="53.932490106672049" lon="9.651653878390789">
        <ele>0</ele>
        <time>2010-01-02T05:02:34Z</time>
      </trkpt>
      <trkpt lat="53.932438641786575" lon="9.652035171166062">
        <ele>0</ele>
        <time>2010-01-02T05:02:44Z</time>
      </trkpt>
      <trkpt lat="53.93239488825202" lon="9.65234144590795">
        <ele>0</ele>
        <time>2010-01-02T05:02:51Z</time>
      </trkpt>
      <trkpt lat="53.932335125282407" lon="9.6527308691293">
        <ele>0</ele>
        <time>2010-01-02T05:03:00Z</time>
      </trkpt>
      <trkpt lat="53.93232355825603" lon="9.652876881882548">
        <ele>0</ele>
        <time>2010-01-02T05:03:04Z</time>
      </trkpt>
      <trkpt lat="53.932316601276398" lon="9.652995485812426">
        <ele>0</ele>
        <time>2010-01-02T05:03:07Z</time>
      </trkpt>
      <trkpt lat="53.932321462780237" lon="9.653099169954658">
        <ele>0</ele>
        <time>2010-01-02T05:03:09Z</time>
      </trkpt>
      <trkpt lat="53.932333532720804" lon="9.653190700337291">
        <ele>0</ele>
        <time>2010-01-02T05:03:11Z</time>
      </trkpt>
      <trkpt lat="53.932358929887414" lon="9.653305280953646">
        <ele>0</ele>
        <time>2010-01-02T05:03:14Z</time>
      </trkpt>
      <trkpt lat="53.932393463328481" lon="9.653407791629434">
        <ele>0</ele>
        <time>2010-01-02T05:03:17Z</time>
      </trkpt>
      <trkpt lat="53.932483149692416" lon="9.653591942042112">
        <ele>0</ele>
        <time>2010-01-02T05:03:23Z</time>
      </trkpt>
      <trkpt lat="53.932504439726472" lon="9.653639467433095">
        <ele>0</ele>
        <time>2010-01-02T05:03:24Z</time>
      </trkpt>
      <trkpt lat="53.932512486353517" lon="9.65365631505847">
        <ele>0</ele>
        <time>2010-01-02T05:03:25Z</time>
      </trkpt>
      <trkpt lat="53.932528411969543" lon="9.653696129098535">
        <ele>0</ele>
        <time>2010-01-02T05:03:26Z</time>
      </trkpt>
      <trkpt lat="53.932549702003598" lon="9.65374524705112">
        <ele>0</ele>
        <time>2010-01-02T05:03:27Z</time>
      </trkpt>
      <trkpt lat="53.932619858533144" lon="9.653903162106872">
        <ele>0</ele>
        <time>2010-01-02T05:03:32Z</time>
      </trkpt>
      <trkpt lat="53.93268808722496" lon="9.654074739664793">
        <ele>0</ele>
        <time>2010-01-02T05:03:37Z</time>
      </trkpt>
      <trkpt lat="53.932749778032303" lon="9.654291914775968">
        <ele>0</ele>
        <time>2010-01-02T05:03:42Z</time>
      </trkpt>
      <trkpt lat="53.932846672832966" lon="9.654648145660758">
        <ele>0</ele>
        <time>2010-01-02T05:03:52Z</time>
      </trkpt>
      <trkpt lat="53.932926552370191" lon="9.65498736128211">
        <ele>0</ele>
        <time>2010-01-02T05:04:00Z</time>
      </trkpt>
      <trkpt lat="53.933012550696731" lon="9.655363289639354">
        <ele>0</ele>
        <time>2010-01-02T05:04:10Z</time>
      </trkpt>
      <trkpt lat="53.933044904842973" lon="9.655505698174238">
        <ele>0</ele>
        <time>2010-01-02T05:04:13Z</time>
      </trkpt>
      <trkpt lat="53.933127550408244" lon="9.655870562419295">
        <ele>0</ele>
        <time>2010-01-02T05:04:23Z</time>
      </trkpt>
      <trkpt lat="53.933189073577523" lon="9.656109027564526">
        <ele>0</ele>
        <time>2010-01-02T05:04:29Z</time>
      </trkpt>
      <trkpt lat="53.933240873739123" lon="9.656341290101409">
        <ele>0</ele>
        <time>2010-01-02T05:04:35Z</time>
      </trkpt>
      <trkpt lat="53.933274485170841" lon="9.656460899859667">
        <ele>0</ele>
        <time>2010-01-02T05:04:38Z</time>
      </trkpt>
      <trkpt lat="53.933298122137785" lon="9.656544718891382">
        <ele>0</ele>
        <time>2010-01-02T05:04:40Z</time>
      </trkpt>
      <trkpt lat="53.933361740782857" lon="9.656748231500387">
        <ele>0</ele>
        <time>2010-01-02T05:04:45Z</time>
      </trkpt>
      <trkpt lat="53.933439943939447" lon="9.65699122287333">
        <ele>0</ele>
        <time>2010-01-02T05:04:52Z</time>
      </trkpt>
      <trkpt lat="53.933472130447626" lon="9.657090967521071">
        <ele>0</ele>
        <time>2010-01-02T05:04:55Z</time>
      </trkpt>
      <trkpt lat="53.933593165129423" lon="9.657470500096679">
        <ele>0</ele>
        <time>2010-01-02T05:05:05Z</time>
      </trkpt>
      <trkpt lat="53.933699363842607" lon="9.657759927213192">
        <ele>0</ele>
        <time>2010-01-02T05:05:13Z</time>
      </trkpt>
      <trkpt lat="53.933793157339096" lon="9.658018760383129">
        <ele>0</ele>
        <time>2010-01-02T05:05:20Z</time>
      </trkpt>
      <trkpt lat="53.933870941400528" lon="9.65825286693871">
        <ele>0</ele>
        <time>2010-01-02T05:05:26Z</time>
      </trkpt>
      <trkpt lat="53.933919472619891" lon="9.658425701782107">
        <ele>0</ele>
        <time>2010-01-02T05:05:31Z</time>
      </trkpt>
      <trkpt lat="53.933979403227568" lon="9.658624604344368">
        <ele>0</ele>
        <time>2010-01-02T05:05:36Z</time>
      </trkpt>
      <trkpt lat="53.934075040742755" lon="9.658892573788762">
        <ele>0</ele>
        <time>2010-01-02T05:05:43Z</time>
      </trkpt>
      <trkpt lat="53.934185765683651" lon="9.659168338403106">
        <ele>0</ele>
        <time>2010-01-02T05:05:51Z</time>
      </trkpt>
      <trkpt lat="53.934283498674631" lon="9.659378472715616">
        <ele>0</ele>
        <time>2010-01-02T05:05:58Z</time>
      </trkpt>
      <trkpt lat="53.934350805357099" lon="9.659548541530967">
        <ele>0</ele>
        <time>2010-01-02T05:06:02Z</time>
      </trkpt>
      <trkpt lat="53.934393972158432" lon="9.659706121310592">
        <ele>0</ele>
        <time>2010-01-02T05:06:06Z</time>
      </trkpt>
      <trkpt lat="53.934427248314023" lon="9.659860348328948">
        <ele>0</ele>
        <time>2010-01-02T05:06:10Z</time>
      </trkpt>
      <trkpt lat="53.934499248862267" lon="9.660169053822756">
        <ele>0</ele>
        <time>2010-01-02T05:06:18Z</time>
      </trkpt>
      <trkpt lat="53.934560688212514" lon="9.660430401563644">
        <ele>0</ele>
        <time>2010-01-02T05:06:25Z</time>
      </trkpt>
      <trkpt lat="53.934644004330039" lon="9.660800211131573">
        <ele>0</ele>
        <time>2010-01-02T05:06:34Z</time>
      </trkpt>
      <trkpt lat="53.934698402881622" lon="9.661034066230059">
        <ele>0</ele>
        <time>2010-01-02T05:06:40Z</time>
      </trkpt>
      <trkpt lat="53.934796135872602" lon="9.661396415904164">
        <ele>0</ele>
        <time>2010-01-02T05:06:49Z</time>
      </trkpt>
      <trkpt lat="53.934816336259246" lon="9.66148660518229">
        <ele>0</ele>
        <time>2010-01-02T05:06:52Z</time>
      </trkpt>
      <trkpt lat="53.934836536645889" lon="9.661576710641384">
        <ele>0</ele>
        <time>2010-01-02T05:06:54Z</time>
      </trkpt>
      <trkpt lat="53.934951201081276" lon="9.661959176883101">
        <ele>0</ele>
        <time>2010-01-02T05:07:04Z</time>
      </trkpt>
      <trkpt lat="53.935077097266912" lon="9.662422528490424">
        <ele>0</ele>
        <time>2010-01-02T05:07:16Z</time>
      </trkpt>
      <trkpt lat="53.935219924896955" lon="9.662921167910099">
        <ele>0</ele>
        <time>2010-01-02T05:07:29Z</time>
      </trkpt>
      <trkpt lat="53.935308689251542" lon="9.663271280005574">
        <ele>0</ele>
        <time>2010-01-02T05:07:38Z</time>
      </trkpt>
      <trkpt lat="53.935384377837181" lon="9.663567915558815">
        <ele>0</ele>
        <time>2010-01-02T05:07:46Z</time>
      </trkpt>
      <trkpt lat="53.935460653156042" lon="9.663902521133423">
        <ele>0</ele>
        <time>2010-01-02T05:07:54Z</time>
      </trkpt>
      <trkpt lat="53.935580011457205" lon="9.664422115311027">
        <ele>0</ele>
        <time>2010-01-02T05:08:07Z</time>
      </trkpt>
      <trkpt lat="53.935659136623144" lon="9.66473551467061">
        <ele>0</ele>
        <time>2010-01-02T05:08:15Z</time>
      </trkpt>
      <trkpt lat="53.935749493539333" lon="9.665120663121343">
        <ele>0</ele>
        <time>2010-01-02T05:08:25Z</time>
      </trkpt>
      <trkpt lat="53.935753013938665" lon="9.665137510746717">
        <ele>0</ele>
        <time>2010-01-02T05:08:26Z</time>
      </trkpt>
      <trkpt lat="53.935835575684905" lon="9.665484437718987">
        <ele>0</ele>
        <time>2010-01-02T05:08:34Z</time>
      </trkpt>
      <trkpt lat="53.935866253450513" lon="9.665621984750032">
        <ele>0</ele>
        <time>2010-01-02T05:08:38Z</time>
      </trkpt>
      <trkpt lat="53.935896763578057" lon="9.665783839300275">
        <ele>0</ele>
        <time>2010-01-02T05:08:42Z</time>
      </trkpt>
      <trkpt lat="53.935906067490578" lon="9.665896659716964">
        <ele>0</ele>
        <time>2010-01-02T05:08:45Z</time>
      </trkpt>
      <trkpt lat="53.935902630910277" lon="9.666024567559361">
        <ele>0</ele>
        <time>2010-01-02T05:08:48Z</time>
      </trkpt>
      <trkpt lat="53.935874216258526" lon="9.666129173710942">
        <ele>0</ele>
        <time>2010-01-02T05:08:50Z</time>
      </trkpt>
      <trkpt lat="53.935823338106275" lon="9.666227325797081">
        <ele>0</ele>
        <time>2010-01-02T05:08:53Z</time>
      </trkpt>
      <trkpt lat="53.935754438862205" lon="9.666335787624121">
        <ele>0</ele>
        <time>2010-01-02T05:08:57Z</time>
      </trkpt>
      <trkpt lat="53.935585040599108" lon="9.666590429842472">
        <ele>0</ele>
        <time>2010-01-02T05:09:06Z</time>
      </trkpt>
      <trkpt lat="53.935359986498952" lon="9.666925454512239">
        <ele>0</ele>
        <time>2010-01-02T05:09:18Z</time>
      </trkpt>
      <trkpt lat="53.935282453894615" lon="9.667040873318911">
        <ele>0</ele>
        <time>2010-01-02T05:09:22Z</time>
      </trkpt>
      <trkpt lat="53.934902837499976" lon="9.667607322335243">
        <ele>0</ele>
        <time>2010-01-02T05:09:43Z</time>
      </trkpt>
      <trkpt lat="53.934673927724361" lon="9.667899096384645">
        <ele>0</ele>
        <time>2010-01-02T05:09:54Z</time>
      </trkpt>
      <trkpt lat="53.934462117031217" lon="9.668171256780624">
        <ele>0</ele>
        <time>2010-01-02T05:10:05Z</time>
      </trkpt>
      <trkpt lat="53.934409562498331" lon="9.66825264506042">
        <ele>0</ele>
        <time>2010-01-02T05:10:08Z</time>
      </trkpt>
      <trkpt lat="53.934380393475294" lon="9.668331351131201">
        <ele>0</ele>
        <time>2010-01-02T05:10:10Z</time>
      </trkpt>
      <trkpt lat="53.934372682124376" lon="9.668421037495136">
        <ele>0</ele>
        <time>2010-01-02T05:10:12Z</time>
      </trkpt>
      <trkpt lat="53.934376621618867" lon="9.668524637818336">
        <ele>0</ele>
        <time>2010-01-02T05:10:14Z</time>
      </trkpt>
      <trkpt lat="53.934397660195827" lon="9.668622454628348">
        <ele>0</ele>
        <time>2010-01-02T05:10:17Z</time>
      </trkpt>
      <trkpt lat="53.934453818947077" lon="9.668856309726834">
        <ele>0</ele>
        <time>2010-01-02T05:10:23Z</time>
      </trkpt>
      <trkpt lat="53.934530261904001" lon="9.669171217828989">
        <ele>0</ele>
        <time>2010-01-02T05:10:31Z</time>
      </trkpt>
      <trkpt lat="53.934554820880294" lon="9.669276662170887">
        <ele>0</ele>
        <time>2010-01-02T05:10:33Z</time>
      </trkpt>
      <trkpt lat="53.934626821428537" lon="9.669577740132809">
        <ele>0</ele>
        <time>2010-01-02T05:10:41Z</time>
      </trkpt>
      <trkpt lat="53.934661019593477" lon="9.669721405953169">
        <ele>0</ele>
        <time>2010-01-02T05:10:45Z</time>
      </trkpt>
      <trkpt lat="53.934747101739049" lon="9.670071434229612">
        <ele>0</ele>
        <time>2010-01-02T05:10:54Z</time>
      </trkpt>
      <trkpt lat="53.934838129207492" lon="9.670351557433605">
        <ele>0</ele>
        <time>2010-01-02T05:11:01Z</time>
      </trkpt>
      <trkpt lat="53.934877775609493" lon="9.670490780845284">
        <ele>0</ele>
        <time>2010-01-02T05:11:05Z</time>
      </trkpt>
      <trkpt lat="53.934902502223849" lon="9.670571833848953">
        <ele>0</ele>
        <time>2010-01-02T05:11:07Z</time>
      </trkpt>
      <trkpt lat="53.934919852763414" lon="9.670642158016562">
        <ele>0</ele>
        <time>2010-01-02T05:11:09Z</time>
      </trkpt>
      <trkpt lat="53.934927061200142" lon="9.670671243220568">
        <ele>0</ele>
        <time>2010-01-02T05:11:10Z</time>
      </trkpt>
      <trkpt lat="53.934947177767754" lon="9.670773586258292">
        <ele>0</ele>
        <time>2010-01-02T05:11:12Z</time>
      </trkpt>
      <trkpt lat="53.934965366497636" lon="9.670887999236584">
        <ele>0</ele>
        <time>2010-01-02T05:11:15Z</time>
      </trkpt>
      <trkpt lat="53.934977436438203" lon="9.67098112218082">
        <ele>0</ele>
        <time>2010-01-02T05:11:17Z</time>
      </trkpt>
      <trkpt lat="53.934992020949721" lon="9.671109281480312">
        <ele>0</ele>
        <time>2010-01-02T05:11:20Z</time>
      </trkpt>
      <trkpt lat="53.935002246871591" lon="9.671200728043914">
        <ele>0</ele>
        <time>2010-01-02T05:11:22Z</time>
      </trkpt>
      <trkpt lat="53.935019513592124" lon="9.671335006132722">
        <ele>0</ele>
        <time>2010-01-02T05:11:26Z</time>
      </trkpt>
      <trkpt lat="53.935047341510653" lon="9.671492334455252">
        <ele>0</ele>
        <time>2010-01-02T05:11:29Z</time>
      </trkpt>
      <trkpt lat="53.935080450028181" lon="9.671686207875609">
        <ele>0</ele>
        <time>2010-01-02T05:11:34Z</time>
      </trkpt>
      <trkpt lat="53.935173824429512" lon="9.672174956649542">
        <ele>0</ele>
        <time>2010-01-02T05:11:46Z</time>
      </trkpt>
      <trkpt lat="53.935208609327674" lon="9.672373440116644">
        <ele>0</ele>
        <time>2010-01-02T05:11:51Z</time>
      </trkpt>
      <trkpt lat="53.935239790007472" lon="9.672596231102943">
        <ele>0</ele>
        <time>2010-01-02T05:11:57Z</time>
      </trkpt>
      <trkpt lat="53.935261163860559" lon="9.672780884429812">
        <ele>0</ele>
        <time>2010-01-02T05:12:01Z</time>
      </trkpt>
      <trkpt lat="53.935277089476585" lon="9.672985151410103">
        <ele>0</ele>
        <time>2010-01-02T05:12:06Z</time>
      </trkpt>
      <trkpt lat="53.935282789170742" lon="9.673096379265189">
        <ele>0</ele>
        <time>2010-01-02T05:12:09Z</time>
      </trkpt>
      <trkpt lat="53.93528999760747" lon="9.673248762264848">
        <ele>0</ele>
        <time>2010-01-02T05:12:12Z</time>
      </trkpt>
      <trkpt lat="53.935300726443529" lon="9.673411874100566">
        <ele>0</ele>
        <time>2010-01-02T05:12:16Z</time>
      </trkpt>
      <trkpt lat="53.935304163023829" lon="9.673443892970681">
        <ele>0</ele>
        <time>2010-01-02T05:12:17Z</time>
      </trkpt>
      <trkpt lat="53.935318579897285" lon="9.673596359789371">
        <ele>0</ele>
        <time>2010-01-02T05:12:20Z</time>
      </trkpt>
      <trkpt lat="53.935332410037518" lon="9.673701636493206">
        <ele>0</ele>
        <time>2010-01-02T05:12:23Z</time>
      </trkpt>
      <trkpt lat="53.935352191329002" lon="9.67385427094996">
        <ele>0</ele>
        <time>2010-01-02T05:12:27Z</time>
      </trkpt>
      <trkpt lat="53.935390328988433" lon="9.674093909561634">
        <ele>0</ele>
        <time>2010-01-02T05:12:33Z</time>
      </trkpt>
      <trkpt lat="53.935404242947698" lon="9.674185523763299">
        <ele>0</ele>
        <time>2010-01-02T05:12:35Z</time>
      </trkpt>
      <trkpt lat="53.935428466647863" lon="9.674350311979651">
        <ele>0</ele>
        <time>2010-01-02T05:12:39Z</time>
      </trkpt>
      <trkpt lat="53.935461491346359" lon="9.674554914236069">
        <ele>0</ele>
        <time>2010-01-02T05:12:44Z</time>
      </trkpt>
      <trkpt lat="53.935476997867227" lon="9.674661699682474">
        <ele>0</ele>
        <time>2010-01-02T05:12:46Z</time>
      </trkpt>
      <trkpt lat="53.935487391427159" lon="9.674736466258764">
        <ele>0</ele>
        <time>2010-01-02T05:12:48Z</time>
      </trkpt>
      <trkpt lat="53.935499293729663" lon="9.674860015511513">
        <ele>0</ele>
        <time>2010-01-02T05:12:51Z</time>
      </trkpt>
      <trkpt lat="53.935503149405122" lon="9.674965124577284">
        <ele>0</ele>
        <time>2010-01-02T05:12:54Z</time>
      </trkpt>
      <trkpt lat="53.935513542965055" lon="9.675195207819343">
        <ele>0</ele>
        <time>2010-01-02T05:12:59Z</time>
      </trkpt>
      <trkpt lat="53.935486972332001" lon="9.675289252772927">
        <ele>0</ele>
        <time>2010-01-02T05:13:01Z</time>
      </trkpt>
      <trkpt lat="53.935444140806794" lon="9.675396624952555">
        <ele>0</ele>
        <time>2010-01-02T05:13:05Z</time>
      </trkpt>
      <trkpt lat="53.935425952076912" lon="9.675431326031685">
        <ele>0</ele>
        <time>2010-01-02T05:13:06Z</time>
      </trkpt>
      <trkpt lat="53.935391418635845" lon="9.675497794523835">
        <ele>0</ele>
        <time>2010-01-02T05:13:08Z</time>
      </trkpt>
      <trkpt lat="53.935364177450538" lon="9.675550684332848">
        <ele>0</ele>
        <time>2010-01-02T05:13:09Z</time>
      </trkpt>
      <trkpt lat="53.935345150530338" lon="9.67558840289712">
        <ele>0</ele>
        <time>2010-01-02T05:13:11Z</time>
      </trkpt>
      <trkpt lat="53.935319669544697" lon="9.675644310191274">
        <ele>0</ele>
        <time>2010-01-02T05:13:12Z</time>
      </trkpt>
      <trkpt lat="53.935301396995783" lon="9.675703402608633">
        <ele>0</ele>
        <time>2010-01-02T05:13:14Z</time>
      </trkpt>
      <trkpt lat="53.935288488864899" lon="9.675756460055709">
        <ele>0</ele>
        <time>2010-01-02T05:13:15Z</time>
      </trkpt>
      <trkpt lat="53.935281950980425" lon="9.675806667655706">
        <ele>0</ele>
        <time>2010-01-02T05:13:16Z</time>
      </trkpt>
      <trkpt lat="53.93527440726757" lon="9.675864335149527">
        <ele>0</ele>
        <time>2010-01-02T05:13:18Z</time>
      </trkpt>
      <trkpt lat="53.935274071991444" lon="9.675916135311127">
        <ele>0</ele>
        <time>2010-01-02T05:13:19Z</time>
      </trkpt>
      <trkpt lat="53.935279939323664" lon="9.676003055647016">
        <ele>0</ele>
        <time>2010-01-02T05:13:21Z</time>
      </trkpt>
      <trkpt lat="53.935287483036518" lon="9.676091484725475">
        <ele>0</ele>
        <time>2010-01-02T05:13:23Z</time>
      </trkpt>
      <trkpt lat="53.935299469158053" lon="9.676190642639995">
        <ele>0</ele>
        <time>2010-01-02T05:13:26Z</time>
      </trkpt>
      <trkpt lat="53.935400974005461" lon="9.676833283156157">
        <ele>0</ele>
        <time>2010-01-02T05:13:41Z</time>
      </trkpt>
      <trkpt lat="53.93543466925621" lon="9.677082058042288">
        <ele>0</ele>
        <time>2010-01-02T05:13:47Z</time>
      </trkpt>
      <trkpt lat="53.935463083907962" lon="9.677289593964815">
        <ele>0</ele>
        <time>2010-01-02T05:13:52Z</time>
      </trkpt>
      <trkpt lat="53.935549249872565" lon="9.677953273057938">
        <ele>0</ele>
        <time>2010-01-02T05:14:08Z</time>
      </trkpt>
      <trkpt lat="53.935561990365386" lon="9.678085958585143">
        <ele>0</ele>
        <time>2010-01-02T05:14:11Z</time>
      </trkpt>
      <trkpt lat="53.935621334239841" lon="9.678699010983109">
        <ele>0</ele>
        <time>2010-01-02T05:14:26Z</time>
      </trkpt>
      <trkpt lat="53.935632398352027" lon="9.678807305172086">
        <ele>0</ele>
        <time>2010-01-02T05:14:29Z</time>
      </trkpt>
      <trkpt lat="53.935645474120975" lon="9.678888274356723">
        <ele>0</ele>
        <time>2010-01-02T05:14:31Z</time>
      </trkpt>
      <trkpt lat="53.935656035318971" lon="9.678936805576086">
        <ele>0</ele>
        <time>2010-01-02T05:14:32Z</time>
      </trkpt>
      <trkpt lat="53.935880837962031" lon="9.679843727499247">
        <ele>0</ele>
        <time>2010-01-02T05:14:55Z</time>
      </trkpt>
      <trkpt lat="53.935905313119292" lon="9.679967444390059">
        <ele>0</ele>
        <time>2010-01-02T05:14:58Z</time>
      </trkpt>
      <trkpt lat="53.935912940651178" lon="9.680051347240806">
        <ele>0</ele>
        <time>2010-01-02T05:15:00Z</time>
      </trkpt>
      <trkpt lat="53.935914281755686" lon="9.680124437436461">
        <ele>0</ele>
        <time>2010-01-02T05:15:02Z</time>
      </trkpt>
      <trkpt lat="53.935906738042831" lon="9.680185206234455">
        <ele>0</ele>
        <time>2010-01-02T05:15:03Z</time>
      </trkpt>
      <trkpt lat="53.935888381674886" lon="9.680251926183701">
        <ele>0</ele>
        <time>2010-01-02T05:15:05Z</time>
      </trkpt>
      <trkpt lat="53.935834905132651" lon="9.680343959480524">
        <ele>0</ele>
        <time>2010-01-02T05:15:08Z</time>
      </trkpt>
      <trkpt lat="53.935763407498598" lon="9.680437166243792">
        <ele>0</ele>
        <time>2010-01-02T05:15:12Z</time>
      </trkpt>
      <trkpt lat="53.935701884329319" lon="9.680512268096209">
        <ele>0</ele>
        <time>2010-01-02T05:15:15Z</time>
      </trkpt>
      <trkpt lat="53.935612365603447" lon="9.680612850934267">
        <ele>0</ele>
        <time>2010-01-02T05:15:19Z</time>
      </trkpt>
      <trkpt lat="53.93482924439013" lon="9.681493872776628">
        <ele>0</ele>
        <time>2010-01-02T05:15:57Z</time>
      </trkpt>
      <trkpt lat="53.934716256335378" lon="9.681612309068441">
        <ele>0</ele>
        <time>2010-01-02T05:16:02Z</time>
      </trkpt>
      <trkpt lat="53.934630425646901" lon="9.681705348193645">
        <ele>0</ele>
        <time>2010-01-02T05:16:06Z</time>
      </trkpt>
      <trkpt lat="53.934453316032887" lon="9.681872986257076">
        <ele>0</ele>
        <time>2010-01-02T05:16:14Z</time>
      </trkpt>
      <trkpt lat="53.93432691693306" lon="9.681992679834366">
        <ele>0</ele>
        <time>2010-01-02T05:16:20Z</time>
      </trkpt>
      <trkpt lat="53.934283582493663" lon="9.682027045637369">
        <ele>0</ele>
        <time>2010-01-02T05:16:22Z</time>
      </trkpt>
      <trkpt lat="53.934225831180811" lon="9.682073313742876">
        <ele>0</ele>
        <time>2010-01-02T05:16:24Z</time>
      </trkpt>
      <trkpt lat="53.934118459001184" lon="9.682146152481437">
        <ele>0</ele>
        <time>2010-01-02T05:16:29Z</time>
      </trkpt>
      <trkpt lat="53.933798437938094" lon="9.682332733646035">
        <ele>0</ele>
        <time>2010-01-02T05:16:43Z</time>
      </trkpt>
      <trkpt lat="53.933803299441934" lon="9.682751577347517">
        <ele>0</ele>
        <time>2010-01-02T05:16:52Z</time>
      </trkpt>
      <trkpt lat="53.933791313320398" lon="9.68311526812613">
        <ele>0</ele>
        <time>2010-01-02T05:17:01Z</time>
      </trkpt>
      <trkpt lat="53.933770610019565" lon="9.683428583666682">
        <ele>0</ele>
        <time>2010-01-02T05:17:08Z</time>
      </trkpt>
      <trkpt lat="53.933750744909048" lon="9.683606363832951">
        <ele>0</ele>
        <time>2010-01-02T05:17:13Z</time>
      </trkpt>
      <trkpt lat="53.933738423511386" lon="9.683717340230942">
        <ele>0</ele>
        <time>2010-01-02T05:17:15Z</time>
      </trkpt>
      <trkpt lat="53.933699615299702" lon="9.684068374335766">
        <ele>0</ele>
        <time>2010-01-02T05:17:24Z</time>
      </trkpt>
      <trkpt lat="53.933646809309721" lon="9.68450297601521">
        <ele>0</ele>
        <time>2010-01-02T05:17:34Z</time>
      </trkpt>
      <trkpt lat="53.933603558689356" lon="9.684837246313691">
        <ele>0</ele>
        <time>2010-01-02T05:17:42Z</time>
      </trkpt>
      <trkpt lat="53.933575144037604" lon="9.685098677873611">
        <ele>0</ele>
        <time>2010-01-02T05:17:49Z</time>
      </trkpt>
      <trkpt lat="53.933554859831929" lon="9.68534192070365">
        <ele>0</ele>
        <time>2010-01-02T05:17:54Z</time>
      </trkpt>
      <trkpt lat="53.933510854840279" lon="9.685659427195787">
        <ele>0</ele>
        <time>2010-01-02T05:18:02Z</time>
      </trkpt>
      <trkpt lat="53.933483948931098" lon="9.685957403853536">
        <ele>0</ele>
        <time>2010-01-02T05:18:09Z</time>
      </trkpt>
      <trkpt lat="53.93346450291574" lon="9.686226546764374">
        <ele>0</ele>
        <time>2010-01-02T05:18:16Z</time>
      </trkpt>
      <trkpt lat="53.933448577299714" lon="9.686491247266531">
        <ele>0</ele>
        <time>2010-01-02T05:18:22Z</time>
      </trkpt>
      <trkpt lat="53.933443548157811" lon="9.686593171209097">
        <ele>0</ele>
        <time>2010-01-02T05:18:24Z</time>
      </trkpt>
      <trkpt lat="53.933430472388864" lon="9.686827445402741">
        <ele>0</ele>
        <time>2010-01-02T05:18:30Z</time>
      </trkpt>
      <trkpt lat="53.933420162647963" lon="9.687226172536612">
        <ele>0</ele>
        <time>2010-01-02T05:18:39Z</time>
      </trkpt>
      <trkpt lat="53.933411613106728" lon="9.68760821968317">
        <ele>0</ele>
        <time>2010-01-02T05:18:48Z</time>
      </trkpt>
      <trkpt lat="53.933410355821252" lon="9.687681226059794">
        <ele>0</ele>
        <time>2010-01-02T05:18:50Z</time>
      </trkpt>
      <trkpt lat="53.933410355821252" lon="9.6881471760571">
        <ele>0</ele>
        <time>2010-01-02T05:19:01Z</time>
      </trkpt>
      <trkpt lat="53.933424269780517" lon="9.688540203496814">
        <ele>0</ele>
        <time>2010-01-02T05:19:10Z</time>
      </trkpt>
      <trkpt lat="53.933425694704056" lon="9.688611784949899">
        <ele>0</ele>
        <time>2010-01-02T05:19:12Z</time>
      </trkpt>
      <trkpt lat="53.9334268681705" lon="9.68871689401567">
        <ele>0</ele>
        <time>2010-01-02T05:19:14Z</time>
      </trkpt>
      <trkpt lat="53.933441201224923" lon="9.688878497108817">
        <ele>0</ele>
        <time>2010-01-02T05:19:18Z</time>
      </trkpt>
      <trkpt lat="53.933469112962484" lon="9.689023587852716">
        <ele>0</ele>
        <time>2010-01-02T05:19:22Z</time>
      </trkpt>
      <trkpt lat="53.933500964194536" lon="9.689116962254047">
        <ele>0</ele>
        <time>2010-01-02T05:19:24Z</time>
      </trkpt>
      <trkpt lat="53.933562403544784" lon="9.689212432131171">
        <ele>0</ele>
        <time>2010-01-02T05:19:28Z</time>
      </trkpt>
      <trkpt lat="53.933636583387852" lon="9.689273033291101">
        <ele>0</ele>
        <time>2010-01-02T05:19:31Z</time>
      </trkpt>
      <trkpt lat="53.933728113770485" lon="9.689351404085755">
        <ele>0</ele>
        <time>2010-01-02T05:19:35Z</time>
      </trkpt>
      <trkpt lat="53.933844035491347" lon="9.689398510381579">
        <ele>0</ele>
        <time>2010-01-02T05:19:40Z</time>
      </trkpt>
      <trkpt lat="53.934218706563115" lon="9.689515605568886">
        <ele>0</ele>
        <time>2010-01-02T05:19:55Z</time>
      </trkpt>
      <trkpt lat="53.935101823881269" lon="9.689766895025969">
        <ele>0</ele>
        <time>2010-01-02T05:20:31Z</time>
      </trkpt>
      <trkpt lat="53.93524163402617" lon="9.689794387668371">
        <ele>0</ele>
        <time>2010-01-02T05:20:37Z</time>
      </trkpt>
      <trkpt lat="53.935415390878916" lon="9.689841829240322">
        <ele>0</ele>
        <time>2010-01-02T05:20:44Z</time>
      </trkpt>
      <trkpt lat="53.935634242370725" lon="9.689901592209935">
        <ele>0</ele>
        <time>2010-01-02T05:20:52Z</time>
      </trkpt>
      <trkpt lat="53.935759132727981" lon="9.689943920820951">
        <ele>0</ele>
        <time>2010-01-02T05:20:58Z</time>
      </trkpt>
      <trkpt lat="53.935913611203432" lon="9.690011898055673">
        <ele>0</ele>
        <time>2010-01-02T05:21:04Z</time>
      </trkpt>
      <trkpt lat="53.935999441891909" lon="9.690099069848657">
        <ele>0</ele>
        <time>2010-01-02T05:21:08Z</time>
      </trkpt>
      <trkpt lat="53.936111927032471" lon="9.690236868336797">
        <ele>0</ele>
        <time>2010-01-02T05:21:14Z</time>
      </trkpt>
      <trkpt lat="53.936173701658845" lon="9.690368883311749">
        <ele>0</ele>
        <time>2010-01-02T05:21:17Z</time>
      </trkpt>
      <trkpt lat="53.936235057190061" lon="9.690561247989535">
        <ele>0</ele>
        <time>2010-01-02T05:21:23Z</time>
      </trkpt>
      <trkpt lat="53.936269506812096" lon="9.690788565203547">
        <ele>0</ele>
        <time>2010-01-02T05:21:28Z</time>
      </trkpt>
      <trkpt lat="53.936279397457838" lon="9.691146221011877">
        <ele>0</ele>
        <time>2010-01-02T05:21:37Z</time>
      </trkpt>
      <trkpt lat="53.936301609501243" lon="9.692451199516654">
        <ele>0</ele>
        <time>2010-01-02T05:22:07Z</time>
      </trkpt>
      <trkpt lat="53.936310075223446" lon="9.692623112350702">
        <ele>0</ele>
        <time>2010-01-02T05:22:11Z</time>
      </trkpt>
      <trkpt lat="53.936319211497903" lon="9.693050840869546">
        <ele>0</ele>
        <time>2010-01-02T05:22:22Z</time>
      </trkpt>
      <trkpt lat="53.936323150992393" lon="9.693143796175718">
        <ele>0</ele>
        <time>2010-01-02T05:22:24Z</time>
      </trkpt>
      <trkpt lat="53.93633421510458" lon="9.693413525819778">
        <ele>0</ele>
        <time>2010-01-02T05:22:30Z</time>
      </trkpt>
      <trkpt lat="53.936355505138636" lon="9.693770175799727">
        <ele>0</ele>
        <time>2010-01-02T05:22:39Z</time>
      </trkpt>
      <trkpt lat="53.936363216489553" lon="9.693983411416411">
        <ele>0</ele>
        <time>2010-01-02T05:22:44Z</time>
      </trkpt>
      <trkpt lat="53.93637478351593" lon="9.694320112466812">
        <ele>0</ele>
        <time>2010-01-02T05:22:52Z</time>
      </trkpt>
      <trkpt lat="53.936387859284878" lon="9.694853285327554">
        <ele>0</ele>
        <time>2010-01-02T05:23:04Z</time>
      </trkpt>
      <trkpt lat="53.936401354148984" lon="9.695474803447723">
        <ele>0</ele>
        <time>2010-01-02T05:23:19Z</time>
      </trkpt>
      <trkpt lat="53.936410322785378" lon="9.695784011855721">
        <ele>0</ele>
        <time>2010-01-02T05:23:26Z</time>
      </trkpt>
      <trkpt lat="53.936416357755661" lon="9.695979058742523">
        <ele>0</ele>
        <time>2010-01-02T05:23:31Z</time>
      </trkpt>
      <trkpt lat="53.936444772407413" lon="9.696192713454366">
        <ele>0</ele>
        <time>2010-01-02T05:23:36Z</time>
      </trkpt>
      <trkpt lat="53.936476204544306" lon="9.696351550519466">
        <ele>0</ele>
        <time>2010-01-02T05:23:40Z</time>
      </trkpt>
      <trkpt lat="53.936487520113587" lon="9.696409637108445">
        <ele>0</ele>
        <time>2010-01-02T05:23:41Z</time>
      </trkpt>
      <trkpt lat="53.936526998877525" lon="9.696579286828637">
        <ele>0</ele>
        <time>2010-01-02T05:23:46Z</time>
      </trkpt>
      <trkpt lat="53.936596568673849" lon="9.69682713970542">
        <ele>0</ele>
        <time>2010-01-02T05:23:52Z</time>
      </trkpt>
      <trkpt lat="53.936638226732612" lon="9.696922190487385">
        <ele>0</ele>
        <time>2010-01-02T05:23:55Z</time>
      </trkpt>
      <trkpt lat="53.9366958104074" lon="9.697052612900734">
        <ele>0</ele>
        <time>2010-01-02T05:23:59Z</time>
      </trkpt>
      <trkpt lat="53.936813157051802" lon="9.697275320068002">
        <ele>0</ele>
        <time>2010-01-02T05:24:06Z</time>
      </trkpt>
      <trkpt lat="53.936932347714901" lon="9.697485957294703">
        <ele>0</ele>
        <time>2010-01-02T05:24:13Z</time>
      </trkpt>
      <trkpt lat="53.936962522566319" lon="9.697539769113064">
        <ele>0</ele>
        <time>2010-01-02T05:24:14Z</time>
      </trkpt>
      <trkpt lat="53.93703343346715" lon="9.697705395519733">
        <ele>0</ele>
        <time>2010-01-02T05:24:19Z</time>
      </trkpt>
      <trkpt lat="53.937099734321237" lon="9.697892228141427">
        <ele>0</ele>
        <time>2010-01-02T05:24:24Z</time>
      </trkpt>
      <trkpt lat="53.937172992154956" lon="9.69812641851604">
        <ele>0</ele>
        <time>2010-01-02T05:24:31Z</time>
      </trkpt>
      <trkpt lat="53.937241639941931" lon="9.698363626375794">
        <ele>0</ele>
        <time>2010-01-02T05:24:37Z</time>
      </trkpt>
      <trkpt lat="53.937545819208026" lon="9.699359983205795">
        <ele>0</ele>
        <time>2010-01-02T05:25:03Z</time>
      </trkpt>
      <trkpt lat="53.937668278813362" lon="9.699776228517294">
        <ele>0</ele>
        <time>2010-01-02T05:25:14Z</time>
      </trkpt>
      <trkpt lat="53.937832061201334" lon="9.700345443561673">
        <ele>0</ele>
        <time>2010-01-02T05:25:29Z</time>
      </trkpt>
      <trkpt lat="53.937966506928205" lon="9.700719192624092">
        <ele>0</ele>
        <time>2010-01-02T05:25:39Z</time>
      </trkpt>
      <trkpt lat="53.93808888271451" lon="9.700996885076165">
        <ele>0</ele>
        <time>2010-01-02T05:25:48Z</time>
      </trkpt>
      <trkpt lat="53.938243612647057" lon="9.701267452910542">
        <ele>0</ele>
        <time>2010-01-02T05:25:56Z</time>
      </trkpt>
      <trkpt lat="53.938659271225333" lon="9.701941441744566">
        <ele>0</ele>
        <time>2010-01-02T05:26:19Z</time>
      </trkpt>
      <trkpt lat="53.939123125746846" lon="9.702664883807302">
        <ele>0</ele>
        <time>2010-01-02T05:26:45Z</time>
      </trkpt>
      <trkpt lat="53.939343821257353" lon="9.703018851578236">
        <ele>0</ele>
        <time>2010-01-02T05:26:57Z</time>
      </trkpt>
      <trkpt lat="53.939503077417612" lon="9.703286485746503">
        <ele>0</ele>
        <time>2010-01-02T05:27:06Z</time>
      </trkpt>
      <trkpt lat="53.939674571156502" lon="9.703624444082379">
        <ele>0</ele>
        <time>2010-01-02T05:27:16Z</time>
      </trkpt>
      <trkpt lat="53.940676376223564" lon="9.70560877583921">
        <ele>0</ele>
        <time>2010-01-02T05:28:18Z</time>
      </trkpt>
      <trkpt lat="53.940828340128064" lon="9.705882361158729">
        <ele>0</ele>
        <time>2010-01-02T05:28:27Z</time>
      </trkpt>
      <trkpt lat="53.940962785854936" lon="9.706096351146698">
        <ele>0</ele>
        <time>2010-01-02T05:28:34Z</time>
      </trkpt>
      <trkpt lat="53.941080467775464" lon="9.70625820569694">
        <ele>0</ele>
        <time>2010-01-02T05:28:40Z</time>
      </trkpt>
      <trkpt lat="53.941186582669616" lon="9.706390975043178">
        <ele>0</ele>
        <time>2010-01-02T05:28:45Z</time>
      </trkpt>
      <trkpt lat="53.941322201862931" lon="9.706547129899263">
        <ele>0</ele>
        <time>2010-01-02T05:28:52Z</time>
      </trkpt>
      <trkpt lat="53.941349945962429" lon="9.706718120723963">
        <ele>0</ele>
        <time>2010-01-02T05:28:56Z</time>
      </trkpt>
      <trkpt lat="53.941422365605831" lon="9.706938648596406">
        <ele>0</ele>
        <time>2010-01-02T05:29:02Z</time>
      </trkpt>
      <trkpt lat="53.941499311476946" lon="9.707142496481538">
        <ele>0</ele>
        <time>2010-01-02T05:29:08Z</time>
      </trkpt>
      <trkpt lat="53.941631158813834" lon="9.707484310492873">
        <ele>0</ele>
        <time>2010-01-02T05:29:17Z</time>
      </trkpt>
      <trkpt lat="53.941668290644884" lon="9.707581205293536">
        <ele>0</ele>
        <time>2010-01-02T05:29:20Z</time>
      </trkpt>
      <trkpt lat="53.941828468814492" lon="9.707999378442764">
        <ele>0</ele>
        <time>2010-01-02T05:29:32Z</time>
      </trkpt>
      <trkpt lat="53.941878089681268" lon="9.708125023171306">
        <ele>0</ele>
        <time>2010-01-02T05:29:36Z</time>
      </trkpt>
      <trkpt lat="53.941925028339028" lon="9.70822786912322">
        <ele>0</ele>
        <time>2010-01-02T05:29:39Z</time>
      </trkpt>
      <trkpt lat="53.941966770216823" lon="9.708307748660445">
        <ele>0</ele>
        <time>2010-01-02T05:29:41Z</time>
      </trkpt>
      <trkpt lat="53.942010439932346" lon="9.708367930725217">
        <ele>0</ele>
        <time>2010-01-02T05:29:43Z</time>
      </trkpt>
      <trkpt lat="53.942039022222161" lon="9.70839885994792">
        <ele>0</ele>
        <time>2010-01-02T05:29:45Z</time>
      </trkpt>
      <trkpt lat="53.942064084112644" lon="9.708414534106851">
        <ele>0</ele>
        <time>2010-01-02T05:29:46Z</time>
      </trkpt>
      <trkpt lat="53.94209467805922" lon="9.70841352827847">
        <ele>0</ele>
        <time>2010-01-02T05:29:47Z</time>
      </trkpt>
      <trkpt lat="53.942138850688934" lon="9.708391400054097">
        <ele>0</ele>
        <time>2010-01-02T05:29:49Z</time>
      </trkpt>
      <trkpt lat="53.942206408828497" lon="9.70835292711854">
        <ele>0</ele>
        <time>2010-01-02T05:29:52Z</time>
      </trkpt>
      <trkpt lat="53.942246055230498" lon="9.708339935168624">
        <ele>0</ele>
        <time>2010-01-02T05:29:53Z</time>
      </trkpt>
      <trkpt lat="53.942271200940013" lon="9.708341863006353">
        <ele>0</ele>
        <time>2010-01-02T05:29:54Z</time>
      </trkpt>
      <trkpt lat="53.942300705239177" lon="9.708363655954599">
        <ele>0</ele>
        <time>2010-01-02T05:29:56Z</time>
      </trkpt>
      <trkpt lat="53.94227690063417" lon="9.708437919616699">
        <ele>0</ele>
        <time>2010-01-02T05:29:58Z</time>
      </trkpt>
      <trkpt lat="53.942267429083586" lon="9.708529114723206">
        <ele>0</ele>
        <time>2010-01-02T05:30:00Z</time>
      </trkpt>
      <trkpt lat="53.942262316122651" lon="9.708626512438059">
        <ele>0</ele>
        <time>2010-01-02T05:30:02Z</time>
      </trkpt>
      <trkpt lat="53.942272290587425" lon="9.70892365090549">
        <ele>0</ele>
        <time>2010-01-02T05:30:09Z</time>
      </trkpt>
      <trkpt lat="53.942288467660546" lon="9.709219364449382">
        <ele>0</ele>
        <time>2010-01-02T05:30:16Z</time>
      </trkpt>
      <trkpt lat="53.942299028858542" lon="9.709414495155215">
        <ele>0</ele>
        <time>2010-01-02T05:30:21Z</time>
      </trkpt>
      <trkpt lat="53.942316798493266" lon="9.709595963358879">
        <ele>0</ele>
        <time>2010-01-02T05:30:25Z</time>
      </trkpt>
      <trkpt lat="53.942338172346354" lon="9.709785142913461">
        <ele>0</ele>
        <time>2010-01-02T05:30:30Z</time>
      </trkpt>
      <trkpt lat="53.942358791828156" lon="9.709922103211284">
        <ele>0</ele>
        <time>2010-01-02T05:30:33Z</time>
      </trkpt>
      <trkpt lat="53.942376142367721" lon="9.710037102922797">
        <ele>0</ele>
        <time>2010-01-02T05:30:36Z</time>
      </trkpt>
      <trkpt lat="53.942483682185411" lon="9.710846040397882">
        <ele>0</ele>
        <time>2010-01-02T05:30:55Z</time>
      </trkpt>
      <trkpt lat="53.942493153735995" lon="9.710914772003889">
        <ele>0</ele>
        <time>2010-01-02T05:30:57Z</time>
      </trkpt>
      <trkpt lat="53.942618127912283" lon="9.711812306195498">
        <ele>0</ele>
        <time>2010-01-02T05:31:19Z</time>
      </trkpt>
      <trkpt lat="53.942625168710947" lon="9.71207088790834">
        <ele>0</ele>
        <time>2010-01-02T05:31:25Z</time>
      </trkpt>
      <trkpt lat="53.94260480068624" lon="9.712232574820518">
        <ele>0</ele>
        <time>2010-01-02T05:31:29Z</time>
      </trkpt>
      <trkpt lat="53.942596586421132" lon="9.712360566481948">
        <ele>0</ele>
        <time>2010-01-02T05:31:32Z</time>
      </trkpt>
      <trkpt lat="53.942644614726305" lon="9.712431393563747">
        <ele>0</ele>
        <time>2010-01-02T05:31:34Z</time>
      </trkpt>
      <trkpt lat="53.942718878388405" lon="9.712514877319336">
        <ele>0</ele>
        <time>2010-01-02T05:31:38Z</time>
      </trkpt>
      <trkpt lat="53.942825999110937" lon="9.712635073810816">
        <ele>0</ele>
        <time>2010-01-02T05:31:43Z</time>
      </trkpt>
      <trkpt lat="53.942871680483222" lon="9.712640438228846">
        <ele>0</ele>
        <time>2010-01-02T05:31:45Z</time>
      </trkpt>
      <trkpt lat="53.942900178954005" lon="9.712627613916993">
        <ele>0</ele>
        <time>2010-01-02T05:31:46Z</time>
      </trkpt>
      <trkpt lat="53.94292239099741" lon="9.71257271245122">
        <ele>0</ele>
        <time>2010-01-02T05:31:48Z</time>
      </trkpt>
      <trkpt lat="53.942985171452165" lon="9.712400212883949">
        <ele>0</ele>
        <time>2010-01-02T05:31:52Z</time>
      </trkpt>
      <trkpt lat="53.94323218613863" lon="9.711701581254601">
        <ele>0</ele>
        <time>2010-01-02T05:32:12Z</time>
      </trkpt>
      <trkpt lat="53.943412313237786" lon="9.711209731176496">
        <ele>0</ele>
        <time>2010-01-02T05:32:25Z</time>
      </trkpt>
      <trkpt lat="53.943599900230765" lon="9.710710337385535">
        <ele>0</ele>
        <time>2010-01-02T05:32:39Z</time>
      </trkpt>
      <trkpt lat="53.943688245490193" lon="9.710494503378868">
        <ele>0</ele>
        <time>2010-01-02T05:32:45Z</time>
      </trkpt>
      <trkpt lat="53.94377457909286" lon="9.710536329075694">
        <ele>0</ele>
        <time>2010-01-02T05:32:49Z</time>
      </trkpt>
      <trkpt lat="53.943907935172319" lon="9.710539178922772">
        <ele>0</ele>
        <time>2010-01-02T05:32:54Z</time>
      </trkpt>
      <trkpt lat="53.944097366183996" lon="9.710515793412924">
        <ele>0</ele>
        <time>2010-01-02T05:33:02Z</time>
      </trkpt>
      <trkpt lat="53.944346057251096" lon="9.71046625636518">
        <ele>0</ele>
        <time>2010-01-02T05:33:12Z</time>
      </trkpt>
      <trkpt lat="53.944531045854092" lon="9.710431974381208">
        <ele>0</ele>
        <time>2010-01-02T05:33:19Z</time>
      </trkpt>
      <trkpt lat="53.944621570408344" lon="9.710464077070355">
        <ele>0</ele>
        <time>2010-01-02T05:33:23Z</time>
      </trkpt>
      <trkpt lat="53.944706227630377" lon="9.710478326305747">
        <ele>0</ele>
        <time>2010-01-02T05:33:26Z</time>
      </trkpt>
      <trkpt lat="53.944793399423361" lon="9.710468268021941">
        <ele>0</ele>
        <time>2010-01-02T05:33:30Z</time>
      </trkpt>
      <trkpt lat="53.944831620901823" lon="9.710505316033959">
        <ele>0</ele>
        <time>2010-01-02T05:33:32Z</time>
      </trkpt>
      <trkpt lat="53.944921893998981" lon="9.710575388744473">
        <ele>0</ele>
        <time>2010-01-02T05:33:36Z</time>
      </trkpt>
      <trkpt lat="53.945046281442046" lon="9.71066121943295">
        <ele>0</ele>
        <time>2010-01-02T05:33:41Z</time>
      </trkpt>
      <trkpt lat="53.945228923112154" lon="9.710773956030607">
        <ele>0</ele>
        <time>2010-01-02T05:33:49Z</time>
      </trkpt>
      <trkpt lat="53.945411648601294" lon="9.710862385109067">
        <ele>0</ele>
        <time>2010-01-02T05:33:56Z</time>
      </trkpt>
      <trkpt lat="53.945504017174244" lon="9.710900522768497">
        <ele>0</ele>
        <time>2010-01-02T05:34:00Z</time>
      </trkpt>
      <trkpt lat="53.945562355220318" lon="9.710913682356477">
        <ele>0</ele>
        <time>2010-01-02T05:34:03Z</time>
      </trkpt>
      <trkpt lat="53.945601917803288" lon="9.710908234119415">
        <ele>0</ele>
        <time>2010-01-02T05:34:04Z</time>
      </trkpt>
      <trkpt lat="53.945614490658045" lon="9.710903875529766">
        <ele>0</ele>
        <time>2010-01-02T05:34:05Z</time>
      </trkpt>
      <trkpt lat="53.945696130394936" lon="9.71091871149838">
        <ele>0</ele>
        <time>2010-01-02T05:34:08Z</time>
      </trkpt>
      <trkpt lat="53.945800233632326" lon="9.710897002369165">
        <ele>0</ele>
        <time>2010-01-02T05:34:12Z</time>
      </trkpt>
      <trkpt lat="53.9460623357445" lon="9.710847130045295">
        <ele>0</ele>
        <time>2010-01-02T05:34:23Z</time>
      </trkpt>
      <trkpt lat="53.946260064840317" lon="9.710811171680689">
        <ele>0</ele>
        <time>2010-01-02T05:34:31Z</time>
      </trkpt>
      <trkpt lat="53.946304908022285" lon="9.710831874981523">
        <ele>0</ele>
        <time>2010-01-02T05:34:33Z</time>
      </trkpt>
      <trkpt lat="53.946355534717441" lon="9.710850901901722">
        <ele>0</ele>
        <time>2010-01-02T05:34:35Z</time>
      </trkpt>
      <trkpt lat="53.946441197767854" lon="9.710882920771837">
        <ele>0</ele>
        <time>2010-01-02T05:34:38Z</time>
      </trkpt>
      <trkpt lat="53.946563238278031" lon="9.710904797539115">
        <ele>0</ele>
        <time>2010-01-02T05:34:43Z</time>
      </trkpt>
      <trkpt lat="53.946580337360501" lon="9.710908150300384">
        <ele>0</ele>
        <time>2010-01-02T05:34:44Z</time>
      </trkpt>
      <trkpt lat="53.946728445589542" lon="9.710933547466993">
        <ele>0</ele>
        <time>2010-01-02T05:34:50Z</time>
      </trkpt>
      <trkpt lat="53.946818048134446" lon="9.710970092564821">
        <ele>0</ele>
        <time>2010-01-02T05:34:53Z</time>
      </trkpt>
      <trkpt lat="53.946832967922091" lon="9.710980402305722">
        <ele>0</ele>
        <time>2010-01-02T05:34:54Z</time>
      </trkpt>
      <trkpt lat="53.946894994005561" lon="9.711023150011897">
        <ele>0</ele>
        <time>2010-01-02T05:34:57Z</time>
      </trkpt>
      <trkpt lat="53.946944195777178" lon="9.7110575158149">
        <ele>0</ele>
        <time>2010-01-02T05:34:59Z</time>
      </trkpt>
      <trkpt lat="53.947073696181178" lon="9.711190704256296">
        <ele>0</ele>
        <time>2010-01-02T05:35:05Z</time>
      </trkpt>
      <trkpt lat="53.947112001478672" lon="9.711244683712721">
        <ele>0</ele>
        <time>2010-01-02T05:35:07Z</time>
      </trkpt>
      <trkpt lat="53.947211829945445" lon="9.711386505514383">
        <ele>0</ele>
        <time>2010-01-02T05:35:12Z</time>
      </trkpt>
      <trkpt lat="53.947355998679996" lon="9.711609799414873">
        <ele>0</ele>
        <time>2010-01-02T05:35:20Z</time>
      </trkpt>
      <trkpt lat="53.947472339496017" lon="9.711843319237232">
        <ele>0</ele>
        <time>2010-01-02T05:35:27Z</time>
      </trkpt>
      <trkpt lat="53.947485415264964" lon="9.711877014487982">
        <ele>0</ele>
        <time>2010-01-02T05:35:28Z</time>
      </trkpt>
      <trkpt lat="53.947561690583825" lon="9.712073318660259">
        <ele>0</ele>
        <time>2010-01-02T05:35:34Z</time>
      </trkpt>
      <trkpt lat="53.947653640061617" lon="9.712330726906657">
        <ele>0</ele>
        <time>2010-01-02T05:35:41Z</time>
      </trkpt>
      <trkpt lat="53.947755144909024" lon="9.712638594210148">
        <ele>0</ele>
        <time>2010-01-02T05:35:49Z</time>
      </trkpt>
      <trkpt lat="53.947768304497004" lon="9.712690562009811">
        <ele>0</ele>
        <time>2010-01-02T05:35:50Z</time>
      </trkpt>
      <trkpt lat="53.947829743847251" lon="9.712939923629165">
        <ele>0</ele>
        <time>2010-01-02T05:35:57Z</time>
      </trkpt>
      <trkpt lat="53.947871988639235" lon="9.713153410702944">
        <ele>0</ele>
        <time>2010-01-02T05:36:02Z</time>
      </trkpt>
      <trkpt lat="53.94787416793406" lon="9.713164558634162">
        <ele>0</ele>
        <time>2010-01-02T05:36:02Z</time>
      </trkpt>
      <trkpt lat="53.947889925912023" lon="9.7132333740592">
        <ele>0</ele>
        <time>2010-01-02T05:36:04Z</time>
      </trkpt>
      <trkpt lat="53.947930242866278" lon="9.713406208902597">
        <ele>0</ele>
        <time>2010-01-02T05:36:08Z</time>
      </trkpt>
      <trkpt lat="53.947965949773788" lon="9.713592622429132">
        <ele>0</ele>
        <time>2010-01-02T05:36:13Z</time>
      </trkpt>
      <trkpt lat="53.947971314191818" lon="9.713607961311936">
        <ele>0</ele>
        <time>2010-01-02T05:36:13Z</time>
      </trkpt>
      <trkpt lat="53.948013642802835" lon="9.713733522221446">
        <ele>0</ele>
        <time>2010-01-02T05:36:17Z</time>
      </trkpt>
      <trkpt lat="53.948079021647573" lon="9.713926557451487">
        <ele>0</ele>
        <time>2010-01-02T05:36:22Z</time>
      </trkpt>
      <trkpt lat="53.948140544816852" lon="9.714156053960323">
        <ele>0</ele>
        <time>2010-01-02T05:36:28Z</time>
      </trkpt>
      <trkpt lat="53.948169210925698" lon="9.714316483587027">
        <ele>0</ele>
        <time>2010-01-02T05:36:32Z</time>
      </trkpt>
      <trkpt lat="53.948190584778786" lon="9.714502645656466">
        <ele>0</ele>
        <time>2010-01-02T05:36:36Z</time>
      </trkpt>
      <trkpt lat="53.94820592366159" lon="9.714635415002704">
        <ele>0</ele>
        <time>2010-01-02T05:36:40Z</time>
      </trkpt>
      <trkpt lat="53.948096204549074" lon="9.714663997292519">
        <ele>0</ele>
        <time>2010-01-02T05:36:44Z</time>
      </trkpt>
      <trkpt lat="53.947952874004841" lon="9.714737758040428">
        <ele>0</ele>
        <time>2010-01-02T05:36:50Z</time>
      </trkpt>
      <trkpt lat="53.947824714705348" lon="9.714837586507201">
        <ele>0</ele>
        <time>2010-01-02T05:36:56Z</time>
      </trkpt>
      <trkpt lat="53.947723461315036" lon="9.714934900403023">
        <ele>0</ele>
        <time>2010-01-02T05:37:00Z</time>
      </trkpt>
      <trkpt lat="53.947618519887328" lon="9.715065574273467">
        <ele>0</ele>
        <time>2010-01-02T05:37:06Z</time>
      </trkpt>
      <trkpt lat="53.947542328387499" lon="9.715186106041074">
        <ele>0</ele>
        <time>2010-01-02T05:37:10Z</time>
      </trkpt>
      <trkpt lat="53.947477787733078" lon="9.715305296704173">
        <ele>0</ele>
        <time>2010-01-02T05:37:14Z</time>
      </trkpt>
      <trkpt lat="53.947445936501026" lon="9.715382494032383">
        <ele>0</ele>
        <time>2010-01-02T05:37:16Z</time>
      </trkpt>
      <trkpt lat="53.947411151602864" lon="9.715477796271443">
        <ele>0</ele>
        <time>2010-01-02T05:37:18Z</time>
      </trkpt>
      <trkpt lat="53.947379970923066" lon="9.71559002995491">
        <ele>0</ele>
        <time>2010-01-02T05:37:21Z</time>
      </trkpt>
      <trkpt lat="53.947354909032583" lon="9.715731181204319">
        <ele>0</ele>
        <time>2010-01-02T05:37:25Z</time>
      </trkpt>
      <trkpt lat="53.947338564321399" lon="9.715903010219336">
        <ele>0</ele>
        <time>2010-01-02T05:37:29Z</time>
      </trkpt>
      <trkpt lat="53.947346527129412" lon="9.716070732101798">
        <ele>0</ele>
        <time>2010-01-02T05:37:33Z</time>
      </trkpt>
      <trkpt lat="53.947439314797521" lon="9.716792749240994">
        <ele>0</ele>
        <time>2010-01-02T05:37:50Z</time>
      </trkpt>
      <trkpt lat="53.947494300082326" lon="9.71736179664731">
        <ele>0</ele>
        <time>2010-01-02T05:38:04Z</time>
      </trkpt>
      <trkpt lat="53.947969051077962" lon="9.722543824464083">
        <ele>0</ele>
        <time>2010-01-02T05:40:07Z</time>
      </trkpt>
      <trkpt lat="53.948051612824202" lon="9.723451500758529">
        <ele>0</ele>
        <time>2010-01-02T05:40:29Z</time>
      </trkpt>
      <trkpt lat="53.948085475713015" lon="9.723939495161176">
        <ele>0</ele>
        <time>2010-01-02T05:40:41Z</time>
      </trkpt>
      <trkpt lat="53.948121182620525" lon="9.724425980821252">
        <ele>0</ele>
        <time>2010-01-02T05:40:52Z</time>
      </trkpt>
      <trkpt lat="53.948148926720023" lon="9.724898636341095">
        <ele>0</ele>
        <time>2010-01-02T05:41:03Z</time>
      </trkpt>
      <trkpt lat="53.948168372735381" lon="9.725395515561104">
        <ele>0</ele>
        <time>2010-01-02T05:41:15Z</time>
      </trkpt>
      <trkpt lat="53.948199469596148" lon="9.725744873285294">
        <ele>0</ele>
        <time>2010-01-02T05:41:23Z</time>
      </trkpt>
      <trkpt lat="53.948243726044893" lon="9.726003035902977">
        <ele>0</ele>
        <time>2010-01-02T05:41:30Z</time>
      </trkpt>
      <trkpt lat="53.948293346911669" lon="9.726275028660893">
        <ele>0</ele>
        <time>2010-01-02T05:41:37Z</time>
      </trkpt>
      <trkpt lat="53.948272056877613" lon="9.726375108584762">
        <ele>0</ele>
        <time>2010-01-02T05:41:39Z</time>
      </trkpt>
      <trkpt lat="53.948256466537714" lon="9.726429674774408">
        <ele>0</ele>
        <time>2010-01-02T05:41:40Z</time>
      </trkpt>
      <trkpt lat="53.948238277807832" lon="9.726468985900283">
        <ele>0</ele>
        <time>2010-01-02T05:41:42Z</time>
      </trkpt>
      <trkpt lat="53.948220927268267" lon="9.72651282325387">
        <ele>0</ele>
        <time>2010-01-02T05:41:43Z</time>
      </trkpt>
      <trkpt lat="53.948198212310672" lon="9.726547524333">
        <ele>0</ele>
        <time>2010-01-02T05:41:44Z</time>
      </trkpt>
      <trkpt lat="53.948172898963094" lon="9.726582057774067">
        <ele>0</ele>
        <time>2010-01-02T05:41:45Z</time>
      </trkpt>
      <trkpt lat="53.948139455169439" lon="9.726616507396102">
        <ele>0</ele>
        <time>2010-01-02T05:41:47Z</time>
      </trkpt>
      <trkpt lat="53.948101401329041" lon="9.72665548324585">
        <ele>0</ele>
        <time>2010-01-02T05:41:49Z</time>
      </trkpt>
      <trkpt lat="53.948073573410511" lon="9.726664116606116">
        <ele>0</ele>
        <time>2010-01-02T05:41:50Z</time>
      </trkpt>
      <trkpt lat="53.948000650852919" lon="9.726678114384413">
        <ele>0</ele>
        <time>2010-01-02T05:41:53Z</time>
      </trkpt>
      <trkpt lat="53.947944827377796" lon="9.72669848240912">
        <ele>0</ele>
        <time>2010-01-02T05:41:55Z</time>
      </trkpt>
      <trkpt lat="53.947882633656263" lon="9.726730836555362">
        <ele>0</ele>
        <time>2010-01-02T05:41:58Z</time>
      </trkpt>
      <trkpt lat="53.947808789089322" lon="9.726760005578399">
        <ele>0</ele>
        <time>2010-01-02T05:42:01Z</time>
      </trkpt>
      <trkpt lat="53.947727652266622" lon="9.726811973378062">
        <ele>0</ele>
        <time>2010-01-02T05:42:04Z</time>
      </trkpt>
      <trkpt lat="53.947649113833904" lon="9.726874502375722">
        <ele>0</ele>
        <time>2010-01-02T05:42:08Z</time>
      </trkpt>
      <trkpt lat="53.947590356692672" lon="9.726929906755686">
        <ele>0</ele>
        <time>2010-01-02T05:42:10Z</time>
      </trkpt>
      <trkpt lat="53.947527073323727" lon="9.726997297257185">
        <ele>0</ele>
        <time>2010-01-02T05:42:13Z</time>
      </trkpt>
      <trkpt lat="53.947458257898688" lon="9.727079859003425">
        <ele>0</ele>
        <time>2010-01-02T05:42:17Z</time>
      </trkpt>
      <trkpt lat="53.947433782741427" lon="9.727117577567697">
        <ele>0</ele>
        <time>2010-01-02T05:42:18Z</time>
      </trkpt>
      <trkpt lat="53.947347616776824" lon="9.727248502895236">
        <ele>0</ele>
        <time>2010-01-02T05:42:23Z</time>
      </trkpt>
      <trkpt lat="53.94731861539185" lon="9.727298291400075">
        <ele>0</ele>
        <time>2010-01-02T05:42:24Z</time>
      </trkpt>
      <trkpt lat="53.947233287617564" lon="9.727438436821103">
        <ele>0</ele>
        <time>2010-01-02T05:42:29Z</time>
      </trkpt>
      <trkpt lat="53.947098338976502" lon="9.72732343710959">
        <ele>0</ele>
        <time>2010-01-02T05:42:35Z</time>
      </trkpt>
      <trkpt lat="53.946958780288696" lon="9.727226542308927">
        <ele>0</ele>
        <time>2010-01-02T05:42:41Z</time>
      </trkpt>
      <trkpt lat="53.946864819154143" lon="9.727164013311267">
        <ele>0</ele>
        <time>2010-01-02T05:42:45Z</time>
      </trkpt>
      <trkpt lat="53.946751998737454" lon="9.72708891145885">
        <ele>0</ele>
        <time>2010-01-02T05:42:50Z</time>
      </trkpt>
      <trkpt lat="53.946588970720768" lon="9.72700534388423">
        <ele>0</ele>
        <time>2010-01-02T05:42:57Z</time>
      </trkpt>
      <trkpt lat="53.946387469768524" lon="9.726910460740328">
        <ele>0</ele>
        <time>2010-01-02T05:43:05Z</time>
      </trkpt>
      <trkpt lat="53.946322174742818" lon="9.726862097159028">
        <ele>0</ele>
        <time>2010-01-02T05:43:08Z</time>
      </trkpt>
      <trkpt lat="53.946257047355175" lon="9.726786324754357">
        <ele>0</ele>
        <time>2010-01-02T05:43:11Z</time>
      </trkpt>
      <trkpt lat="53.94623483531177" lon="9.726740308105946">
        <ele>0</ele>
        <time>2010-01-02T05:43:13Z</time>
      </trkpt>
      <trkpt lat="53.946194099262357" lon="9.726636037230492">
        <ele>0</ele>
        <time>2010-01-02T05:43:16Z</time>
      </trkpt>
      <trkpt lat="53.94614196382463" lon="9.726494969800115">
        <ele>0</ele>
        <time>2010-01-02T05:43:20Z</time>
      </trkpt>
      <trkpt lat="53.945977846160531" lon="9.725998677313328">
        <ele>0</ele>
        <time>2010-01-02T05:43:33Z</time>
      </trkpt>
      <trkpt lat="53.945823200047016" lon="9.725569523870945">
        <ele>0</ele>
        <time>2010-01-02T05:43:45Z</time>
      </trkpt>
      <trkpt lat="53.945712810382247" lon="9.725549323484302">
        <ele>0</ele>
        <time>2010-01-02T05:43:49Z</time>
      </trkpt>
      <trkpt lat="53.945486750453711" lon="9.725496685132384">
        <ele>0</ele>
        <time>2010-01-02T05:43:58Z</time>
      </trkpt>
      <trkpt lat="53.945390693843365" lon="9.725476736202836">
        <ele>0</ele>
        <time>2010-01-02T05:44:02Z</time>
      </trkpt>
      <trkpt lat="53.945299163460732" lon="9.725456871092319">
        <ele>0</ele>
        <time>2010-01-02T05:44:06Z</time>
      </trkpt>
      <trkpt lat="53.94523361697793" lon="9.725463325157762">
        <ele>0</ele>
        <time>2010-01-02T05:44:09Z</time>
      </trkpt>
      <trkpt lat="53.94518768414855" lon="9.725470114499331">
        <ele>0</ele>
        <time>2010-01-02T05:44:10Z</time>
      </trkpt>
      <trkpt lat="53.945135464891791" lon="9.725487548857927">
        <ele>0</ele>
        <time>2010-01-02T05:44:13Z</time>
      </trkpt>
      <trkpt lat="53.945091376081109" lon="9.725501965731382">
        <ele>0</ele>
        <time>2010-01-02T05:44:14Z</time>
      </trkpt>
      <trkpt lat="53.945058099925518" lon="9.72551210783422">
        <ele>0</ele>
        <time>2010-01-02T05:44:16Z</time>
      </trkpt>
      <trkpt lat="53.945008646696806" lon="9.725514287129045">
        <ele>0</ele>
        <time>2010-01-02T05:44:18Z</time>
      </trkpt>
      <trkpt lat="53.944916110485792" lon="9.725509593263268">
        <ele>0</ele>
        <time>2010-01-02T05:44:21Z</time>
      </trkpt>
      <trkpt lat="53.944827262312174" lon="9.725500456988811">
        <ele>0</ele>
        <time>2010-01-02T05:44:25Z</time>
      </trkpt>
      <trkpt lat="53.94473665393889" lon="9.725477574393153">
        <ele>0</ele>
        <time>2010-01-02T05:44:29Z</time>
      </trkpt>
      <trkpt lat="53.944683680310845" lon="9.725462906062603">
        <ele>0</ele>
        <time>2010-01-02T05:44:31Z</time>
      </trkpt>
      <trkpt lat="53.944646129384637" lon="9.725439436733723">
        <ele>0</ele>
        <time>2010-01-02T05:44:32Z</time>
      </trkpt>
      <trkpt lat="53.944616792723536" lon="9.725393252447248">
        <ele>0</ele>
        <time>2010-01-02T05:44:34Z</time>
      </trkpt>
      <trkpt lat="53.944604387506843" lon="9.725357964634895">
        <ele>0</ele>
        <time>2010-01-02T05:44:35Z</time>
      </trkpt>
      <trkpt lat="53.944585109129548" lon="9.725276911631227">
        <ele>0</ele>
        <time>2010-01-02T05:44:37Z</time>
      </trkpt>
      <trkpt lat="53.944511599838734" lon="9.724952783435583">
        <ele>0</ele>
        <time>2010-01-02T05:44:45Z</time>
      </trkpt>
      <trkpt lat="53.944499278441072" lon="9.724905341863632">
        <ele>0</ele>
        <time>2010-01-02T05:44:46Z</time>
      </trkpt>
      <trkpt lat="53.944475641474128" lon="9.724807441234589">
        <ele>0</ele>
        <time>2010-01-02T05:44:49Z</time>
      </trkpt>
      <trkpt lat="53.944317726418376" lon="9.724177289754152">
        <ele>0</ele>
        <time>2010-01-02T05:45:05Z</time>
      </trkpt>
      <trkpt lat="53.944229297339916" lon="9.723787363618612">
        <ele>0</ele>
        <time>2010-01-02T05:45:15Z</time>
      </trkpt>
      <trkpt lat="53.944203816354275" lon="9.723697090521455">
        <ele>0</ele>
        <time>2010-01-02T05:45:17Z</time>
      </trkpt>
      <trkpt lat="53.944164840504527" lon="9.723612684756517">
        <ele>0</ele>
        <time>2010-01-02T05:45:20Z</time>
      </trkpt>
      <trkpt lat="53.944108765572309" lon="9.723515706136823">
        <ele>0</ele>
        <time>2010-01-02T05:45:23Z</time>
      </trkpt>
      <trkpt lat="53.943959986791015" lon="9.7233044821769">
        <ele>0</ele>
        <time>2010-01-02T05:45:31Z</time>
      </trkpt>
      <trkpt lat="53.943433435633779" lon="9.722576597705483">
        <ele>0</ele>
        <time>2010-01-02T05:45:58Z</time>
      </trkpt>
      <trkpt lat="53.943367470055819" lon="9.722485570237041">
        <ele>0</ele>
        <time>2010-01-02T05:46:01Z</time>
      </trkpt>
      <trkpt lat="53.942883666604757" lon="9.723594998940825">
        <ele>0</ele>
        <time>2010-01-02T05:46:34Z</time>
      </trkpt>
      <trkpt lat="53.942680824548006" lon="9.724013339728117">
        <ele>0</ele>
        <time>2010-01-02T05:46:47Z</time>
      </trkpt>
      <trkpt lat="53.942469516769052" lon="9.72448943182826">
        <ele>0</ele>
        <time>2010-01-02T05:47:01Z</time>
      </trkpt>
      <trkpt lat="53.942412184551358" lon="9.72460568882525">
        <ele>0</ele>
        <time>2010-01-02T05:47:04Z</time>
      </trkpt>
      <trkpt lat="53.942334232851863" lon="9.724424639716744">
        <ele>0</ele>
        <time>2010-01-02T05:47:10Z</time>
      </trkpt>
      <trkpt lat="53.942229626700282" lon="9.724182235077024">
        <ele>0</ele>
        <time>2010-01-02T05:47:17Z</time>
      </trkpt>
      <trkpt lat="53.942170282825828" lon="9.724042592570186">
        <ele>0</ele>
        <time>2010-01-02T05:47:21Z</time>
      </trkpt>
      <trkpt lat="53.942128792405128" lon="9.72392457537353">
        <ele>0</ele>
        <time>2010-01-02T05:47:24Z</time>
      </trkpt>
      <trkpt lat="53.942078333348036" lon="9.723794320598245">
        <ele>0</ele>
        <time>2010-01-02T05:47:28Z</time>
      </trkpt>
      <trkpt lat="53.942029802128673" lon="9.723651828244328">
        <ele>0</ele>
        <time>2010-01-02T05:47:31Z</time>
      </trkpt>
      <trkpt lat="53.941983869299293" lon="9.72351704724133">
        <ele>0</ele>
        <time>2010-01-02T05:47:35Z</time>
      </trkpt>
      <trkpt lat="53.941781278699636" lon="9.72373740747571">
        <ele>0</ele>
        <time>2010-01-02T05:47:45Z</time>
      </trkpt>
      <trkpt lat="53.941757474094629" lon="9.723666915670037">
        <ele>0</ele>
        <time>2010-01-02T05:47:47Z</time>
      </trkpt>
      <trkpt lat="53.941730735823512" lon="9.723626850172877">
        <ele>0</ele>
        <time>2010-01-02T05:47:48Z</time>
      </trkpt>
      <trkpt lat="53.941591009497643" lon="9.723566584289074">
        <ele>0</ele>
        <time>2010-01-02T05:47:54Z</time>
      </trkpt>
      <trkpt lat="53.941435944288969" lon="9.723502965644002">
        <ele>0</ele>
        <time>2010-01-02T05:48:00Z</time>
      </trkpt>
      <trkpt lat="53.941264366731048" lon="9.723454182967544">
        <ele>0</ele>
        <time>2010-01-02T05:48:07Z</time>
      </trkpt>
      <trkpt lat="53.94116235896945" lon="9.723425097763538">
        <ele>0</ele>
        <time>2010-01-02T05:48:11Z</time>
      </trkpt>
      <trkpt lat="53.941008131951094" lon="9.723378326743841">
        <ele>0</ele>
        <time>2010-01-02T05:48:18Z</time>
      </trkpt>
      <trkpt lat="53.940813504159451" lon="9.723320072516799">
        <ele>0</ele>
        <time>2010-01-02T05:48:26Z</time>
      </trkpt>
      <trkpt lat="53.940695989876986" lon="9.723290652036667">
        <ele>0</ele>
        <time>2010-01-02T05:48:30Z</time>
      </trkpt>
      <trkpt lat="53.940476132556796" lon="9.72323658876121">
        <ele>0</ele>
        <time>2010-01-02T05:48:39Z</time>
      </trkpt>
      <trkpt lat="53.940373035147786" lon="9.723208928480744">
        <ele>0</ele>
        <time>2010-01-02T05:48:43Z</time>
      </trkpt>
      <trkpt lat="53.940330035984516" lon="9.723191410303116">
        <ele>0</ele>
        <time>2010-01-02T05:48:45Z</time>
      </trkpt>
      <trkpt lat="53.940271781757474" lon="9.723166013136506">
        <ele>0</ele>
        <time>2010-01-02T05:48:48Z</time>
      </trkpt>
      <trkpt lat="53.940211767330766" lon="9.723126953467727">
        <ele>0</ele>
        <time>2010-01-02T05:48:50Z</time>
      </trkpt>
      <trkpt lat="53.940130295231938" lon="9.723079847171903">
        <ele>0</ele>
        <time>2010-01-02T05:48:54Z</time>
      </trkpt>
      <trkpt lat="53.940047984942794" lon="9.723029723390937">
        <ele>0</ele>
        <time>2010-01-02T05:48:57Z</time>
      </trkpt>
      <trkpt lat="53.9400131162256" lon="9.723000135272741">
        <ele>0</ele>
        <time>2010-01-02T05:48:59Z</time>
      </trkpt>
      <trkpt lat="53.939957711845636" lon="9.722953531891108">
        <ele>0</ele>
        <time>2010-01-02T05:49:01Z</time>
      </trkpt>
      <trkpt lat="53.939886214211583" lon="9.722885303199291">
        <ele>0</ele>
        <time>2010-01-02T05:49:04Z</time>
      </trkpt>
      <trkpt lat="53.939816309139132" lon="9.722877172753215">
        <ele>0</ele>
        <time>2010-01-02T05:49:07Z</time>
      </trkpt>
      <trkpt lat="53.939753277227283" lon="9.722876083105803">
        <ele>0</ele>
        <time>2010-01-02T05:49:10Z</time>
      </trkpt>
      <trkpt lat="53.939695106819272" lon="9.722908437252045">
        <ele>0</ele>
        <time>2010-01-02T05:49:12Z</time>
      </trkpt>
      <trkpt lat="53.939641797915101" lon="9.722961746156216">
        <ele>0</ele>
        <time>2010-01-02T05:49:15Z</time>
      </trkpt>
      <trkpt lat="53.939598631113768" lon="9.723011115565896">
        <ele>0</ele>
        <time>2010-01-02T05:49:17Z</time>
      </trkpt>
      <trkpt lat="53.939583292230964" lon="9.723044224083424">
        <ele>0</ele>
        <time>2010-01-02T05:49:18Z</time>
      </trkpt>
      <trkpt lat="53.939573066309094" lon="9.723073225468397">
        <ele>0</ele>
        <time>2010-01-02T05:49:18Z</time>
      </trkpt>
      <trkpt lat="53.939556302502751" lon="9.723118152469397">
        <ele>0</ele>
        <time>2010-01-02T05:49:20Z</time>
      </trkpt>
      <trkpt lat="53.9395537879318" lon="9.723185626789927">
        <ele>0</ele>
        <time>2010-01-02T05:49:21Z</time>
      </trkpt>
      <trkpt lat="53.939552027732134" lon="9.723324179649353">
        <ele>0</ele>
        <time>2010-01-02T05:49:25Z</time>
      </trkpt>
      <trkpt lat="53.939555212855339" lon="9.723544958978891">
        <ele>0</ele>
        <time>2010-01-02T05:49:30Z</time>
      </trkpt>
      <trkpt lat="53.939566779881716" lon="9.723999006673694">
        <ele>0</ele>
        <time>2010-01-02T05:49:41Z</time>
      </trkpt>
      <trkpt lat="53.939568372443318" lon="9.724186342209578">
        <ele>0</ele>
        <time>2010-01-02T05:49:45Z</time>
      </trkpt>
      <trkpt lat="53.939568707719445" lon="9.72428223118186">
        <ele>0</ele>
        <time>2010-01-02T05:49:47Z</time>
      </trkpt>
      <trkpt lat="53.939566193148494" lon="9.724407121539116">
        <ele>0</ele>
        <time>2010-01-02T05:49:50Z</time>
      </trkpt>
      <trkpt lat="53.939557056874037" lon="9.72457442432642">
        <ele>0</ele>
        <time>2010-01-02T05:49:54Z</time>
      </trkpt>
      <trkpt lat="53.939544316381216" lon="9.724756982177496">
        <ele>0</ele>
        <time>2010-01-02T05:49:58Z</time>
      </trkpt>
      <trkpt lat="53.939528558403254" lon="9.72497901879251">
        <ele>0</ele>
        <time>2010-01-02T05:50:04Z</time>
      </trkpt>
      <trkpt lat="53.939502323046327" lon="9.725301386788487">
        <ele>0</ele>
        <time>2010-01-02T05:50:11Z</time>
      </trkpt>
      <trkpt lat="53.939467454329133" lon="9.725727187469602">
        <ele>0</ele>
        <time>2010-01-02T05:50:21Z</time>
      </trkpt>
      <trkpt lat="53.939432250335813" lon="9.726194059476256">
        <ele>0</ele>
        <time>2010-01-02T05:50:33Z</time>
      </trkpt>
      <trkpt lat="53.939404087141156" lon="9.726546853780746">
        <ele>0</ele>
        <time>2010-01-02T05:50:41Z</time>
      </trkpt>
      <trkpt lat="53.939387407153845" lon="9.726773416623473">
        <ele>0</ele>
        <time>2010-01-02T05:50:46Z</time>
      </trkpt>
      <trkpt lat="53.939366871491075" lon="9.727057814598083">
        <ele>0</ele>
        <time>2010-01-02T05:50:53Z</time>
      </trkpt>
      <trkpt lat="53.939355723559856" lon="9.727257136255503">
        <ele>0</ele>
        <time>2010-01-02T05:50:58Z</time>
      </trkpt>
      <trkpt lat="53.939343569800258" lon="9.727488392964005">
        <ele>0</ele>
        <time>2010-01-02T05:51:03Z</time>
      </trkpt>
      <trkpt lat="53.939332757145166" lon="9.727637423202395">
        <ele>0</ele>
        <time>2010-01-02T05:51:07Z</time>
      </trkpt>
      <trkpt lat="53.939323537051678" lon="9.727824591100216">
        <ele>0</ele>
        <time>2010-01-02T05:51:11Z</time>
      </trkpt>
      <trkpt lat="53.939313059672713" lon="9.728072611615062">
        <ele>0</ele>
        <time>2010-01-02T05:51:17Z</time>
      </trkpt>
      <trkpt lat="53.939303336665034" lon="9.72835105843842">
        <ele>0</ele>
        <time>2010-01-02T05:51:24Z</time>
      </trkpt>
      <trkpt lat="53.93928799778223" lon="9.728804603219032">
        <ele>0</ele>
        <time>2010-01-02T05:51:34Z</time>
      </trkpt>
      <trkpt lat="53.939280705526471" lon="9.729264350607991">
        <ele>0</ele>
        <time>2010-01-02T05:51:45Z</time>
      </trkpt>
      <trkpt lat="53.939272658899426" lon="9.729844378307462">
        <ele>0</ele>
        <time>2010-01-02T05:51:59Z</time>
      </trkpt>
      <trkpt lat="53.939280118793249" lon="9.730383586138487">
        <ele>0</ele>
        <time>2010-01-02T05:52:12Z</time>
      </trkpt>
      <trkpt lat="53.939280370250344" lon="9.730645520612597">
        <ele>0</ele>
        <time>2010-01-02T05:52:18Z</time>
      </trkpt>
      <trkpt lat="53.939287830144167" lon="9.730898402631283">
        <ele>0</ele>
        <time>2010-01-02T05:52:24Z</time>
      </trkpt>
      <trkpt lat="53.939293278381228" lon="9.731324873864651">
        <ele>0</ele>
        <time>2010-01-02T05:52:34Z</time>
      </trkpt>
      <trkpt lat="53.939303504303098" lon="9.731565685942769">
        <ele>0</ele>
        <time>2010-01-02T05:52:39Z</time>
      </trkpt>
      <trkpt lat="53.939317166805267" lon="9.731827871873975">
        <ele>0</ele>
        <time>2010-01-02T05:52:46Z</time>
      </trkpt>
      <trkpt lat="53.939335187897086" lon="9.732112940400839">
        <ele>0</ele>
        <time>2010-01-02T05:52:52Z</time>
      </trkpt>
      <trkpt lat="53.93935538828373" lon="9.73248484544456">
        <ele>0</ele>
        <time>2010-01-02T05:53:01Z</time>
      </trkpt>
      <trkpt lat="53.939375756308436" lon="9.73282934166491">
        <ele>0</ele>
        <time>2010-01-02T05:53:09Z</time>
      </trkpt>
      <trkpt lat="53.939398052170873" lon="9.733157157897949">
        <ele>0</ele>
        <time>2010-01-02T05:53:17Z</time>
      </trkpt>
      <trkpt lat="53.939413307234645" lon="9.733449770137668">
        <ele>0</ele>
        <time>2010-01-02T05:53:24Z</time>
      </trkpt>
      <trkpt lat="53.93942235969007" lon="9.733725534752011">
        <ele>0</ele>
        <time>2010-01-02T05:53:31Z</time>
      </trkpt>
      <trkpt lat="53.939423281699419" lon="9.733879342675209">
        <ele>0</ele>
        <time>2010-01-02T05:53:34Z</time>
      </trkpt>
      <trkpt lat="53.939420515671372" lon="9.734030049294233">
        <ele>0</ele>
        <time>2010-01-02T05:53:38Z</time>
      </trkpt>
      <trkpt lat="53.93941305577755" lon="9.73422484472394">
        <ele>0</ele>
        <time>2010-01-02T05:53:42Z</time>
      </trkpt>
      <trkpt lat="53.939400315284729" lon="9.734393656253815">
        <ele>0</ele>
        <time>2010-01-02T05:53:46Z</time>
      </trkpt>
      <trkpt lat="53.939383216202259" lon="9.734547128900886">
        <ele>0</ele>
        <time>2010-01-02T05:53:50Z</time>
      </trkpt>
      <trkpt lat="53.93935396336019" lon="9.734781151637435">
        <ele>0</ele>
        <time>2010-01-02T05:53:56Z</time>
      </trkpt>
      <trkpt lat="53.938973760232329" lon="9.734663302078843">
        <ele>0</ele>
        <time>2010-01-02T05:54:11Z</time>
      </trkpt>
      <trkpt lat="53.937910180538893" lon="9.734330959618092">
        <ele>0</ele>
        <time>2010-01-02T05:54:54Z</time>
      </trkpt>
      <trkpt lat="53.937855195254087" lon="9.734312770888209">
        <ele>0</ele>
        <time>2010-01-02T05:54:57Z</time>
      </trkpt>
      <trkpt lat="53.937803478911519" lon="9.734295504167676">
        <ele>0</ele>
        <time>2010-01-02T05:54:59Z</time>
      </trkpt>
      <trkpt lat="53.935898942872882" lon="9.733674321323633">
        <ele>0</ele>
        <time>2010-01-02T05:56:16Z</time>
      </trkpt>
      <trkpt lat="53.935596775263548" lon="9.733577677980065">
        <ele>0</ele>
        <time>2010-01-02T05:56:29Z</time>
      </trkpt>
      <trkpt lat="53.935398543253541" lon="9.733513304963708">
        <ele>0</ele>
        <time>2010-01-02T05:56:37Z</time>
      </trkpt>
      <trkpt lat="53.935299133881927" lon="9.733468880876899">
        <ele>0</ele>
        <time>2010-01-02T05:56:41Z</time>
      </trkpt>
      <trkpt lat="53.935126215219498" lon="9.73339126445353">
        <ele>0</ele>
        <time>2010-01-02T05:56:48Z</time>
      </trkpt>
      <trkpt lat="53.934686165302992" lon="9.733208455145359">
        <ele>0</ele>
        <time>2010-01-02T05:57:06Z</time>
      </trkpt>
      <trkpt lat="53.933899942785501" lon="9.732929673045874">
        <ele>0</ele>
        <time>2010-01-02T05:57:38Z</time>
      </trkpt>
      <trkpt lat="53.934028269723058" lon="9.733241060748696">
        <ele>0</ele>
        <time>2010-01-02T05:57:47Z</time>
      </trkpt>
      <trkpt lat="53.934180065989494" lon="9.73354515619576">
        <ele>0</ele>
        <time>2010-01-02T05:57:57Z</time>
      </trkpt>
      <trkpt lat="53.93456538207829" lon="9.734293492510915">
        <ele>0</ele>
        <time>2010-01-02T05:58:20Z</time>
      </trkpt>
      <trkpt lat="53.93489277921617" lon="9.734970666468143">
        <ele>0</ele>
        <time>2010-01-02T05:58:41Z</time>
      </trkpt>
      <trkpt lat="53.935014232993126" lon="9.735246850177646">
        <ele>0</ele>
        <time>2010-01-02T05:58:49Z</time>
      </trkpt>
      <trkpt lat="53.935060249641538" lon="9.735363442450762">
        <ele>0</ele>
        <time>2010-01-02T05:58:52Z</time>
      </trkpt>
      <trkpt lat="53.935096375644207" lon="9.735469138249755">
        <ele>0</ele>
        <time>2010-01-02T05:58:55Z</time>
      </trkpt>
      <trkpt lat="53.935123533010483" lon="9.735586820170283">
        <ele>0</ele>
        <time>2010-01-02T05:58:58Z</time>
      </trkpt>
      <trkpt lat="53.935142643749714" lon="9.735695281997323">
        <ele>0</ele>
        <time>2010-01-02T05:59:01Z</time>
      </trkpt>
      <trkpt lat="53.935153540223837" lon="9.735821848735213">
        <ele>0</ele>
        <time>2010-01-02T05:59:04Z</time>
      </trkpt>
      <trkpt lat="53.935151780024171" lon="9.735964927822351">
        <ele>0</ele>
        <time>2010-01-02T05:59:07Z</time>
      </trkpt>
      <trkpt lat="53.935141805559397" lon="9.736118568107486">
        <ele>0</ele>
        <time>2010-01-02T05:59:11Z</time>
      </trkpt>
      <trkpt lat="53.935093693435192" lon="9.736641515046358">
        <ele>0</ele>
        <time>2010-01-02T05:59:23Z</time>
      </trkpt>
      <trkpt lat="53.935070224106312" lon="9.736802447587252">
        <ele>0</ele>
        <time>2010-01-02T05:59:27Z</time>
      </trkpt>
      <trkpt lat="53.935054298490286" lon="9.736908813938498">
        <ele>0</ele>
        <time>2010-01-02T05:59:30Z</time>
      </trkpt>
      <trkpt lat="53.935033092275262" lon="9.737005876377225">
        <ele>0</ele>
        <time>2010-01-02T05:59:32Z</time>
      </trkpt>
      <trkpt lat="53.934999983757734" lon="9.737125569954515">
        <ele>0</ele>
        <time>2010-01-02T05:59:35Z</time>
      </trkpt>
      <trkpt lat="53.934659762308002" lon="9.738249331712723">
        <ele>0</ele>
        <time>2010-01-02T06:00:05Z</time>
      </trkpt>
      <trkpt lat="53.934415765106678" lon="9.739059610292315">
        <ele>0</ele>
        <time>2010-01-02T06:00:27Z</time>
      </trkpt>
      <trkpt lat="53.934070933610201" lon="9.740200052037835">
        <ele>0</ele>
        <time>2010-01-02T06:00:57Z</time>
      </trkpt>
      <trkpt lat="53.933981917798519" lon="9.740502974018455">
        <ele>0</ele>
        <time>2010-01-02T06:01:05Z</time>
      </trkpt>
      <trkpt lat="53.933935146778822" lon="9.74064982496202">
        <ele>0</ele>
        <time>2010-01-02T06:01:09Z</time>
      </trkpt>
      <trkpt lat="53.933916036039591" lon="9.740689052268863">
        <ele>0</ele>
        <time>2010-01-02T06:01:10Z</time>
      </trkpt>
      <trkpt lat="53.933877814561129" lon="9.740766081959009">
        <ele>0</ele>
        <time>2010-01-02T06:01:12Z</time>
      </trkpt>
      <trkpt lat="53.93380556255579" lon="9.740855349227786">
        <ele>0</ele>
        <time>2010-01-02T06:01:16Z</time>
      </trkpt>
      <trkpt lat="53.933736579492688" lon="9.740946292877197">
        <ele>0</ele>
        <time>2010-01-02T06:01:19Z</time>
      </trkpt>
      <trkpt lat="53.933450672775507" lon="9.741260949522257">
        <ele>0</ele>
        <time>2010-01-02T06:01:33Z</time>
      </trkpt>
      <trkpt lat="53.933368278667331" lon="9.741367567330599">
        <ele>0</ele>
        <time>2010-01-02T06:01:37Z</time>
      </trkpt>
      <trkpt lat="53.933312958106399" lon="9.74144727922976">
        <ele>0</ele>
        <time>2010-01-02T06:01:40Z</time>
      </trkpt>
      <trkpt lat="53.933304827660322" lon="9.741462366655469">
        <ele>0</ele>
        <time>2010-01-02T06:01:41Z</time>
      </trkpt>
      <trkpt lat="53.933258559554815" lon="9.741537636145949">
        <ele>0</ele>
        <time>2010-01-02T06:01:43Z</time>
      </trkpt>
      <trkpt lat="53.933211201801896" lon="9.74163880571723">
        <ele>0</ele>
        <time>2010-01-02T06:01:46Z</time>
      </trkpt>
      <trkpt lat="53.933157222345471" lon="9.741787081584334">
        <ele>0</ele>
        <time>2010-01-02T06:01:50Z</time>
      </trkpt>
      <trkpt lat="53.933096034452319" lon="9.741956563666463">
        <ele>0</ele>
        <time>2010-01-02T06:01:55Z</time>
      </trkpt>
      <trkpt lat="53.932822281494737" lon="9.742633737623692">
        <ele>0</ele>
        <time>2010-01-02T06:02:14Z</time>
      </trkpt>
      <trkpt lat="53.932527489960194" lon="9.743382157757878">
        <ele>0</ele>
        <time>2010-01-02T06:02:36Z</time>
      </trkpt>
      <trkpt lat="53.932276535779238" lon="9.743994371965528">
        <ele>0</ele>
        <time>2010-01-02T06:02:53Z</time>
      </trkpt>
      <trkpt lat="53.932121470570564" lon="9.744372228160501">
        <ele>0</ele>
        <time>2010-01-02T06:03:04Z</time>
      </trkpt>
      <trkpt lat="53.931466257199645" lon="9.746438702568412">
        <ele>0</ele>
        <time>2010-01-02T06:03:59Z</time>
      </trkpt>
      <trkpt lat="53.931439686566591" lon="9.746520509943366">
        <ele>0</ele>
        <time>2010-01-02T06:04:01Z</time>
      </trkpt>
      <trkpt lat="53.931435998529196" lon="9.746532579883933">
        <ele>0</ele>
        <time>2010-01-02T06:04:02Z</time>
      </trkpt>
      <trkpt lat="53.931412193924189" lon="9.746608268469572">
        <ele>0</ele>
        <time>2010-01-02T06:04:04Z</time>
      </trkpt>
      <trkpt lat="53.93139467574656" lon="9.746681023389101">
        <ele>0</ele>
        <time>2010-01-02T06:04:06Z</time>
      </trkpt>
      <trkpt lat="53.931369781494141" lon="9.746787222102284">
        <ele>0</ele>
        <time>2010-01-02T06:04:08Z</time>
      </trkpt>
      <trkpt lat="53.931309264153242" lon="9.746973384171724">
        <ele>0</ele>
        <time>2010-01-02T06:04:13Z</time>
      </trkpt>
      <trkpt lat="53.931265342980623" lon="9.747103555127978">
        <ele>0</ele>
        <time>2010-01-02T06:04:17Z</time>
      </trkpt>
      <trkpt lat="53.931212285533547" lon="9.747268510982394">
        <ele>0</ele>
        <time>2010-01-02T06:04:21Z</time>
      </trkpt>
      <trkpt lat="53.93110784702003" lon="9.747593561187387">
        <ele>0</ele>
        <time>2010-01-02T06:04:30Z</time>
      </trkpt>
      <trkpt lat="53.931069290265441" lon="9.747713590040803">
        <ele>0</ele>
        <time>2010-01-02T06:04:33Z</time>
      </trkpt>
      <trkpt lat="53.931025955826044" lon="9.747847197577357">
        <ele>0</ele>
        <time>2010-01-02T06:04:37Z</time>
      </trkpt>
      <trkpt lat="53.930622451007366" lon="9.747621808201075">
        <ele>0</ele>
        <time>2010-01-02T06:04:54Z</time>
      </trkpt>
      <trkpt lat="53.930584816262126" lon="9.747593812644482">
        <ele>0</ele>
        <time>2010-01-02T06:04:56Z</time>
      </trkpt>
      <trkpt lat="53.930549109354615" lon="9.747565733268857">
        <ele>0</ele>
        <time>2010-01-02T06:04:57Z</time>
      </trkpt>
      <trkpt lat="53.930500829592347" lon="9.747528349980712">
        <ele>0</ele>
        <time>2010-01-02T06:04:59Z</time>
      </trkpt>
      <trkpt lat="53.93047752790153" lon="9.74751116707921">
        <ele>0</ele>
        <time>2010-01-02T06:05:00Z</time>
      </trkpt>
      <trkpt lat="53.930432014167309" lon="9.747460121288896">
        <ele>0</ele>
        <time>2010-01-02T06:05:02Z</time>
      </trkpt>
      <trkpt lat="53.930417010560632" lon="9.747424833476543">
        <ele>0</ele>
        <time>2010-01-02T06:05:03Z</time>
      </trkpt>
      <trkpt lat="53.930385997518897" lon="9.747351156547666">
        <ele>0</ele>
        <time>2010-01-02T06:05:06Z</time>
      </trkpt>
      <trkpt lat="53.93019950017333" lon="9.746574489399791">
        <ele>0</ele>
        <time>2010-01-02T06:05:25Z</time>
      </trkpt>
      <trkpt lat="53.930159183219075" lon="9.746404755860567">
        <ele>0</ele>
        <time>2010-01-02T06:05:30Z</time>
      </trkpt>
      <trkpt lat="53.93011786043644" lon="9.746260922402143">
        <ele>0</ele>
        <time>2010-01-02T06:05:33Z</time>
      </trkpt>
      <trkpt lat="53.930091289803386" lon="9.746197974309325">
        <ele>0</ele>
        <time>2010-01-02T06:05:35Z</time>
      </trkpt>
      <trkpt lat="53.929995652288198" lon="9.746114071458578">
        <ele>0</ele>
        <time>2010-01-02T06:05:40Z</time>
      </trkpt>
      <trkpt lat="53.92990630120039" lon="9.746036371216178">
        <ele>0</ele>
        <time>2010-01-02T06:05:44Z</time>
      </trkpt>
      <trkpt lat="53.929460300132632" lon="9.745803102850914">
        <ele>0</ele>
        <time>2010-01-02T06:06:02Z</time>
      </trkpt>
      <trkpt lat="53.929299199953675" lon="9.745705788955092">
        <ele>0</ele>
        <time>2010-01-02T06:06:09Z</time>
      </trkpt>
      <trkpt lat="53.929236587136984" lon="9.74566362798214">
        <ele>0</ele>
        <time>2010-01-02T06:06:12Z</time>
      </trkpt>
      <trkpt lat="53.929194509983063" lon="9.745635464787483">
        <ele>0</ele>
        <time>2010-01-02T06:06:14Z</time>
      </trkpt>
      <trkpt lat="53.928791340440512" lon="9.745310079306364">
        <ele>0</ele>
        <time>2010-01-02T06:06:31Z</time>
      </trkpt>
      <trkpt lat="53.928771140053868" lon="9.74509047344327">
        <ele>0</ele>
        <time>2010-01-02T06:06:37Z</time>
      </trkpt>
      <trkpt lat="53.9287712238729" lon="9.744938258081675">
        <ele>0</ele>
        <time>2010-01-02T06:06:40Z</time>
      </trkpt>
      <trkpt lat="53.928810534998775" lon="9.7443878185004">
        <ele>0</ele>
        <time>2010-01-02T06:06:53Z</time>
      </trkpt>
      <trkpt lat="53.928846409544349" lon="9.74410836584866">
        <ele>0</ele>
        <time>2010-01-02T06:07:00Z</time>
      </trkpt>
      <trkpt lat="53.928875243291259" lon="9.743947517126799">
        <ele>0</ele>
        <time>2010-01-02T06:07:04Z</time>
      </trkpt>
      <trkpt lat="53.928933078423142" lon="9.743746016174555">
        <ele>0</ele>
        <time>2010-01-02T06:07:09Z</time>
      </trkpt>
      <trkpt lat="53.92899158410728" lon="9.743588771671057">
        <ele>0</ele>
        <time>2010-01-02T06:07:14Z</time>
      </trkpt>
      <trkpt lat="53.929068949073553" lon="9.743430269882083">
        <ele>0</ele>
        <time>2010-01-02T06:07:19Z</time>
      </trkpt>
      <trkpt lat="53.929079845547676" lon="9.74340763874352">
        <ele>0</ele>
        <time>2010-01-02T06:07:19Z</time>
      </trkpt>
      <trkpt lat="53.929169783368707" lon="9.743249388411641">
        <ele>0</ele>
        <time>2010-01-02T06:07:24Z</time>
      </trkpt>
      <trkpt lat="53.929251423105597" lon="9.743126006796956">
        <ele>0</ele>
        <time>2010-01-02T06:07:29Z</time>
      </trkpt>
      <trkpt lat="53.929343791678548" lon="9.743011929094791">
        <ele>0</ele>
        <time>2010-01-02T06:07:33Z</time>
      </trkpt>
      <trkpt lat="53.929419899359345" lon="9.742905227467418">
        <ele>0</ele>
        <time>2010-01-02T06:07:37Z</time>
      </trkpt>
      <trkpt lat="53.929474130272865" lon="9.742848314344883">
        <ele>0</ele>
        <time>2010-01-02T06:07:40Z</time>
      </trkpt>
      <trkpt lat="53.929577311500907" lon="9.742737505584955">
        <ele>0</ele>
        <time>2010-01-02T06:07:45Z</time>
      </trkpt>
      <trkpt lat="53.929806975647807" lon="9.742499459534883">
        <ele>0</ele>
        <time>2010-01-02T06:07:56Z</time>
      </trkpt>
      <trkpt lat="53.929875288158655" lon="9.742415640503168">
        <ele>0</ele>
        <time>2010-01-02T06:07:59Z</time>
      </trkpt>
      <trkpt lat="53.929928261786699" lon="9.742350932210684">
        <ele>0</ele>
        <time>2010-01-02T06:08:02Z</time>
      </trkpt>
      <trkpt lat="53.930026078596711" lon="9.742230903357267">
        <ele>0</ele>
        <time>2010-01-02T06:08:06Z</time>
      </trkpt>
      <trkpt lat="53.930092295631766" lon="9.74212696775794">
        <ele>0</ele>
        <time>2010-01-02T06:08:10Z</time>
      </trkpt>
      <trkpt lat="53.930162200704217" lon="9.742003418505192">
        <ele>0</ele>
        <time>2010-01-02T06:08:14Z</time>
      </trkpt>
      <trkpt lat="53.930237889289856" lon="9.741820525377989">
        <ele>0</ele>
        <time>2010-01-02T06:08:19Z</time>
      </trkpt>
      <trkpt lat="53.930364204570651" lon="9.741452811285853">
        <ele>0</ele>
        <time>2010-01-02T06:08:29Z</time>
      </trkpt>
      <trkpt lat="53.930451795458794" lon="9.741230607032776">
        <ele>0</ele>
        <time>2010-01-02T06:08:36Z</time>
      </trkpt>
      <trkpt lat="53.930460009723902" lon="9.741209400817752">
        <ele>0</ele>
        <time>2010-01-02T06:08:36Z</time>
      </trkpt>
      <trkpt lat="53.93050585873425" lon="9.74106858484447">
        <ele>0</ele>
        <time>2010-01-02T06:08:40Z</time>
      </trkpt>
      <trkpt lat="53.93053075298667" lon="9.740960961207747">
        <ele>0</ele>
        <time>2010-01-02T06:08:43Z</time>
      </trkpt>
      <trkpt lat="53.930541817098856" lon="9.740910921245813">
        <ele>0</ele>
        <time>2010-01-02T06:08:44Z</time>
      </trkpt>
      <trkpt lat="53.930567968636751" lon="9.740754598751664">
        <ele>0</ele>
        <time>2010-01-02T06:08:48Z</time>
      </trkpt>
      <trkpt lat="53.930583978071809" lon="9.740636078640819">
        <ele>0</ele>
        <time>2010-01-02T06:08:51Z</time>
      </trkpt>
      <trkpt lat="53.930597808212042" lon="9.740429297089577">
        <ele>0</ele>
        <time>2010-01-02T06:08:56Z</time>
      </trkpt>
      <trkpt lat="53.930607866495848" lon="9.740261994302273">
        <ele>0</ele>
        <time>2010-01-02T06:09:00Z</time>
      </trkpt>
      <trkpt lat="53.930624797940254" lon="9.740129811689258">
        <ele>0</ele>
        <time>2010-01-02T06:09:03Z</time>
      </trkpt>
      <trkpt lat="53.930640639737248" lon="9.740041801705956">
        <ele>0</ele>
        <time>2010-01-02T06:09:05Z</time>
      </trkpt>
      <trkpt lat="53.930649859830737" lon="9.740000898018479">
        <ele>0</ele>
        <time>2010-01-02T06:09:06Z</time>
      </trkpt>
      <trkpt lat="53.930663773790002" lon="9.739938704296947">
        <ele>0</ele>
        <time>2010-01-02T06:09:08Z</time>
      </trkpt>
      <trkpt lat="53.9308175817132" lon="9.73932028748095">
        <ele>0</ele>
        <time>2010-01-02T06:09:23Z</time>
      </trkpt>
      <trkpt lat="53.930885894224048" lon="9.739061705768108">
        <ele>0</ele>
        <time>2010-01-02T06:09:30Z</time>
      </trkpt>
      <trkpt lat="53.930900394916534" lon="9.739005044102669">
        <ele>0</ele>
        <time>2010-01-02T06:09:32Z</time>
      </trkpt>
      <trkpt lat="53.930923528969288" lon="9.738894319161773">
        <ele>0</ele>
        <time>2010-01-02T06:09:34Z</time>
      </trkpt>
      <trkpt lat="53.930949429050088" lon="9.738772949203849">
        <ele>0</ele>
        <time>2010-01-02T06:09:37Z</time>
      </trkpt>
      <trkpt lat="53.93098471686244" lon="9.738597013056278">
        <ele>0</ele>
        <time>2010-01-02T06:09:42Z</time>
      </trkpt>
      <trkpt lat="53.931018160656095" lon="9.738405738025904">
        <ele>0</ele>
        <time>2010-01-02T06:09:46Z</time>
      </trkpt>
      <trkpt lat="53.931062249466777" lon="9.738109689205885">
        <ele>0</ele>
        <time>2010-01-02T06:09:54Z</time>
      </trkpt>
      <trkpt lat="53.931085634976625" lon="9.737965436652303">
        <ele>0</ele>
        <time>2010-01-02T06:09:57Z</time>
      </trkpt>
      <trkpt lat="53.931092591956258" lon="9.737855968996882">
        <ele>0</ele>
        <time>2010-01-02T06:10:00Z</time>
      </trkpt>
      <trkpt lat="53.931089574471116" lon="9.737753877416253">
        <ele>0</ele>
        <time>2010-01-02T06:10:02Z</time>
      </trkpt>
      <trkpt lat="53.931080270558596" lon="9.737659329548478">
        <ele>0</ele>
        <time>2010-01-02T06:10:04Z</time>
      </trkpt>
      <trkpt lat="53.931064764037728" lon="9.737557070329785">
        <ele>0</ele>
        <time>2010-01-02T06:10:07Z</time>
      </trkpt>
      <trkpt lat="53.93105604685843" lon="9.737514238804579">
        <ele>0</ele>
        <time>2010-01-02T06:10:08Z</time>
      </trkpt>
      <trkpt lat="53.931043809279799" lon="9.737459253519773">
        <ele>0</ele>
        <time>2010-01-02T06:10:09Z</time>
      </trkpt>
      <trkpt lat="53.930573668330908" lon="9.735741214826703">
        <ele>0</ele>
        <time>2010-01-02T06:10:54Z</time>
      </trkpt>
      <trkpt lat="53.930492615327239" lon="9.735474837943912">
        <ele>0</ele>
        <time>2010-01-02T06:11:01Z</time>
      </trkpt>
      <trkpt lat="53.930428326129913" lon="9.735266715288162">
        <ele>0</ele>
        <time>2010-01-02T06:11:07Z</time>
      </trkpt>
      <trkpt lat="53.930356660857797" lon="9.735082732513547">
        <ele>0</ele>
        <time>2010-01-02T06:11:12Z</time>
      </trkpt>
      <trkpt lat="53.930289270356297" lon="9.73493386991322">
        <ele>0</ele>
        <time>2010-01-02T06:11:16Z</time>
      </trkpt>
      <trkpt lat="53.930205870419741" lon="9.734763382002711">
        <ele>0</ele>
        <time>2010-01-02T06:11:21Z</time>
      </trkpt>
      <trkpt lat="53.930082824081182" lon="9.734458280727267">
        <ele>0</ele>
        <time>2010-01-02T06:11:30Z</time>
      </trkpt>
      <trkpt lat="53.929976541548967" lon="9.734072797000408">
        <ele>0</ele>
        <time>2010-01-02T06:11:40Z</time>
      </trkpt>
      <trkpt lat="53.929618634283543" lon="9.73264753818512">
        <ele>0</ele>
        <time>2010-01-02T06:12:17Z</time>
      </trkpt>
      <trkpt lat="53.929383773356676" lon="9.731675237417221">
        <ele>0</ele>
        <time>2010-01-02T06:12:41Z</time>
      </trkpt>
      <trkpt lat="53.929280256852508" lon="9.731268463656306">
        <ele>0</ele>
        <time>2010-01-02T06:12:52Z</time>
      </trkpt>
      <trkpt lat="53.929213285446167" lon="9.730909466743469">
        <ele>0</ele>
        <time>2010-01-02T06:13:01Z</time>
      </trkpt>
      <trkpt lat="53.929172800853848" lon="9.730622554197907">
        <ele>0</ele>
        <time>2010-01-02T06:13:08Z</time>
      </trkpt>
      <trkpt lat="53.92914354801178" lon="9.730264311656356">
        <ele>0</ele>
        <time>2010-01-02T06:13:16Z</time>
      </trkpt>
      <trkpt lat="53.929131394252181" lon="9.729897184297442">
        <ele>0</ele>
        <time>2010-01-02T06:13:25Z</time>
      </trkpt>
      <trkpt lat="53.929129047319293" lon="9.729839265346527">
        <ele>0</ele>
        <time>2010-01-02T06:13:26Z</time>
      </trkpt>
      <trkpt lat="53.929108344018459" lon="9.729551179334521">
        <ele>0</ele>
        <time>2010-01-02T06:13:33Z</time>
      </trkpt>
      <trkpt lat="53.929106667637825" lon="9.729522261768579">
        <ele>0</ele>
        <time>2010-01-02T06:13:34Z</time>
      </trkpt>
      <trkpt lat="53.929101722314954" lon="9.729453613981605">
        <ele>0</ele>
        <time>2010-01-02T06:13:35Z</time>
      </trkpt>
      <trkpt lat="53.929099878296256" lon="9.729318078607321">
        <ele>0</ele>
        <time>2010-01-02T06:13:39Z</time>
      </trkpt>
      <trkpt lat="53.929106080904603" lon="9.729173574596643">
        <ele>0</ele>
        <time>2010-01-02T06:13:42Z</time>
      </trkpt>
      <trkpt lat="53.929125359281898" lon="9.728966876864433">
        <ele>0</ele>
        <time>2010-01-02T06:13:47Z</time>
      </trkpt>
      <trkpt lat="53.929136507213116" lon="9.728761520236731">
        <ele>0</ele>
        <time>2010-01-02T06:13:52Z</time>
      </trkpt>
      <trkpt lat="53.929153438657522" lon="9.728481732308865">
        <ele>0</ele>
        <time>2010-01-02T06:13:59Z</time>
      </trkpt>
      <trkpt lat="53.92915578559041" lon="9.7282381542027">
        <ele>0</ele>
        <time>2010-01-02T06:14:04Z</time>
      </trkpt>
      <trkpt lat="53.929157042875886" lon="9.72804025746882">
        <ele>0</ele>
        <time>2010-01-02T06:14:09Z</time>
      </trkpt>
      <trkpt lat="53.929151007905602" lon="9.727849904447794">
        <ele>0</ele>
        <time>2010-01-02T06:14:13Z</time>
      </trkpt>
      <trkpt lat="53.929133908823133" lon="9.727558800950646">
        <ele>0</ele>
        <time>2010-01-02T06:14:20Z</time>
      </trkpt>
      <trkpt lat="53.929130891337991" lon="9.727313630282879">
        <ele>0</ele>
        <time>2010-01-02T06:14:26Z</time>
      </trkpt>
      <trkpt lat="53.929130975157022" lon="9.727298459038138">
        <ele>0</ele>
        <time>2010-01-02T06:14:26Z</time>
      </trkpt>
      <trkpt lat="53.92912938259542" lon="9.727109614759684">
        <ele>0</ele>
        <time>2010-01-02T06:14:31Z</time>
      </trkpt>
      <trkpt lat="53.929132064804435" lon="9.726965026929975">
        <ele>0</ele>
        <time>2010-01-02T06:14:34Z</time>
      </trkpt>
      <trkpt lat="53.929125610738993" lon="9.726847680285573">
        <ele>0</ele>
        <time>2010-01-02T06:14:37Z</time>
      </trkpt>
      <trkpt lat="53.929111026227474" lon="9.726736284792423">
        <ele>0</ele>
        <time>2010-01-02T06:14:40Z</time>
      </trkpt>
      <trkpt lat="53.92908931709826" lon="9.726614160463214">
        <ele>0</ele>
        <time>2010-01-02T06:14:43Z</time>
      </trkpt>
      <trkpt lat="53.929062243551016" lon="9.726479714736342">
        <ele>0</ele>
        <time>2010-01-02T06:14:46Z</time>
      </trkpt>
      <trkpt lat="53.929013879969716" lon="9.726302269846201">
        <ele>0</ele>
        <time>2010-01-02T06:14:51Z</time>
      </trkpt>
      <trkpt lat="53.928943388164043" lon="9.726078724488616">
        <ele>0</ele>
        <time>2010-01-02T06:14:57Z</time>
      </trkpt>
      <trkpt lat="53.92880299128592" lon="9.72567287273705">
        <ele>0</ele>
        <time>2010-01-02T06:15:08Z</time>
      </trkpt>
      <trkpt lat="53.928778180852532" lon="9.725608499720693">
        <ele>0</ele>
        <time>2010-01-02T06:15:10Z</time>
      </trkpt>
      <trkpt lat="53.928666785359383" lon="9.725311193615198">
        <ele>0</ele>
        <time>2010-01-02T06:15:18Z</time>
      </trkpt>
      <trkpt lat="53.928594449535012" lon="9.725101394578815">
        <ele>0</ele>
        <time>2010-01-02T06:15:24Z</time>
      </trkpt>
      <trkpt lat="53.928548684343696" lon="9.724937696009874">
        <ele>0</ele>
        <time>2010-01-02T06:15:28Z</time>
      </trkpt>
      <trkpt lat="53.928517587482929" lon="9.724731668829918">
        <ele>0</ele>
        <time>2010-01-02T06:15:33Z</time>
      </trkpt>
      <trkpt lat="53.928516749292612" lon="9.724716413766146">
        <ele>0</ele>
        <time>2010-01-02T06:15:33Z</time>
      </trkpt>
      <trkpt lat="53.928503254428506" lon="9.724422376602888">
        <ele>0</ele>
        <time>2010-01-02T06:15:40Z</time>
      </trkpt>
      <trkpt lat="53.928493112325668" lon="9.724171003326774">
        <ele>0</ele>
        <time>2010-01-02T06:15:46Z</time>
      </trkpt>
      <trkpt lat="53.928482802584767" lon="9.723948547616601">
        <ele>0</ele>
        <time>2010-01-02T06:15:51Z</time>
      </trkpt>
      <trkpt lat="53.928467966616154" lon="9.723721481859684">
        <ele>0</ele>
        <time>2010-01-02T06:15:57Z</time>
      </trkpt>
      <trkpt lat="53.928441144526005" lon="9.723544372245669">
        <ele>0</ele>
        <time>2010-01-02T06:16:01Z</time>
      </trkpt>
      <trkpt lat="53.928431505337358" lon="9.723361562937498">
        <ele>0</ele>
        <time>2010-01-02T06:16:05Z</time>
      </trkpt>
      <trkpt lat="53.928427482023835" lon="9.723277743905783">
        <ele>0</ele>
        <time>2010-01-02T06:16:07Z</time>
      </trkpt>
      <trkpt lat="53.928424380719662" lon="9.72319551743567">
        <ele>0</ele>
        <time>2010-01-02T06:16:09Z</time>
      </trkpt>
      <trkpt lat="53.928423542529345" lon="9.72303869202733">
        <ele>0</ele>
        <time>2010-01-02T06:16:13Z</time>
      </trkpt>
      <trkpt lat="53.928439300507307" lon="9.72281975671649">
        <ele>0</ele>
        <time>2010-01-02T06:16:18Z</time>
      </trkpt>
      <trkpt lat="53.928460255265236" lon="9.722616076469421">
        <ele>0</ele>
        <time>2010-01-02T06:16:23Z</time>
      </trkpt>
      <trkpt lat="53.928482802584767" lon="9.72245816141367">
        <ele>0</ele>
        <time>2010-01-02T06:16:27Z</time>
      </trkpt>
      <trkpt lat="53.928501829504967" lon="9.722281889989972">
        <ele>0</ele>
        <time>2010-01-02T06:16:31Z</time>
      </trkpt>
      <trkpt lat="53.928512558341026" lon="9.722135877236724">
        <ele>0</ele>
        <time>2010-01-02T06:16:35Z</time>
      </trkpt>
      <trkpt lat="53.928508115932345" lon="9.721975950524211">
        <ele>0</ele>
        <time>2010-01-02T06:16:38Z</time>
      </trkpt>
      <trkpt lat="53.928501829504967" lon="9.721823651343584">
        <ele>0</ele>
        <time>2010-01-02T06:16:42Z</time>
      </trkpt>
      <trkpt lat="53.928486574441195" lon="9.721681829541922">
        <ele>0</ele>
        <time>2010-01-02T06:16:45Z</time>
      </trkpt>
      <trkpt lat="53.928483221679926" lon="9.721659198403358">
        <ele>0</ele>
        <time>2010-01-02T06:16:46Z</time>
      </trkpt>
      <trkpt lat="53.928460674360394" lon="9.721501702442765">
        <ele>0</ele>
        <time>2010-01-02T06:16:50Z</time>
      </trkpt>
      <trkpt lat="53.928430415689945" lon="9.721309337764978">
        <ele>0</ele>
        <time>2010-01-02T06:16:55Z</time>
      </trkpt>
      <trkpt lat="53.928390434011817" lon="9.721084870398045">
        <ele>0</ele>
        <time>2010-01-02T06:17:00Z</time>
      </trkpt>
      <trkpt lat="53.928378699347377" lon="9.72094003111124">
        <ele>0</ele>
        <time>2010-01-02T06:17:03Z</time>
      </trkpt>
      <trkpt lat="53.928369730710983" lon="9.720786139369011">
        <ele>0</ele>
        <time>2010-01-02T06:17:07Z</time>
      </trkpt>
      <trkpt lat="53.928368808701634" lon="9.720644569024444">
        <ele>0</ele>
        <time>2010-01-02T06:17:10Z</time>
      </trkpt>
      <trkpt lat="53.92837199382484" lon="9.720589919015765">
        <ele>0</ele>
        <time>2010-01-02T06:17:12Z</time>
      </trkpt>
      <trkpt lat="53.928375765681267" lon="9.720524372532964">
        <ele>0</ele>
        <time>2010-01-02T06:17:13Z</time>
      </trkpt>
      <trkpt lat="53.928379788994789" lon="9.720454467460513">
        <ele>0</ele>
        <time>2010-01-02T06:17:15Z</time>
      </trkpt>
      <trkpt lat="53.928394289687276" lon="9.720291774719954">
        <ele>0</ele>
        <time>2010-01-02T06:17:19Z</time>
      </trkpt>
      <trkpt lat="53.928443491458893" lon="9.720023134723306">
        <ele>0</ele>
        <time>2010-01-02T06:17:25Z</time>
      </trkpt>
      <trkpt lat="53.928467882797122" lon="9.719850048422813">
        <ele>0</ele>
        <time>2010-01-02T06:17:30Z</time>
      </trkpt>
      <trkpt lat="53.928506942465901" lon="9.719629939645529">
        <ele>0</ele>
        <time>2010-01-02T06:17:35Z</time>
      </trkpt>
      <trkpt lat="53.928533010184765" lon="9.719472276046872">
        <ele>0</ele>
        <time>2010-01-02T06:17:39Z</time>
      </trkpt>
      <trkpt lat="53.928539548069239" lon="9.719432629644871">
        <ele>0</ele>
        <time>2010-01-02T06:17:40Z</time>
      </trkpt>
      <trkpt lat="53.928576596081257" lon="9.719247557222843">
        <ele>0</ele>
        <time>2010-01-02T06:17:45Z</time>
      </trkpt>
      <trkpt lat="53.928617332130671" lon="9.719053348526359">
        <ele>0</ele>
        <time>2010-01-02T06:17:49Z</time>
      </trkpt>
      <trkpt lat="53.928628396242857" lon="9.719007918611169">
        <ele>0</ele>
        <time>2010-01-02T06:17:51Z</time>
      </trkpt>
      <trkpt lat="53.928649602457881" lon="9.718919908627868">
        <ele>0</ele>
        <time>2010-01-02T06:17:53Z</time>
      </trkpt>
      <trkpt lat="53.928654212504625" lon="9.718898702412844">
        <ele>0</ele>
        <time>2010-01-02T06:17:53Z</time>
      </trkpt>
      <trkpt lat="53.928714646026492" lon="9.718701811507344">
        <ele>0</ele>
        <time>2010-01-02T06:17:59Z</time>
      </trkpt>
      <trkpt lat="53.928758651018143" lon="9.718553368002176">
        <ele>0</ele>
        <time>2010-01-02T06:18:02Z</time>
      </trkpt>
      <trkpt lat="53.928813552483916" lon="9.718397548422217">
        <ele>0</ele>
        <time>2010-01-02T06:18:07Z</time>
      </trkpt>
      <trkpt lat="53.928869124501944" lon="9.718263018876314">
        <ele>0</ele>
        <time>2010-01-02T06:18:11Z</time>
      </trkpt>
      <trkpt lat="53.928934670984745" lon="9.71812404692173">
        <ele>0</ele>
        <time>2010-01-02T06:18:15Z</time>
      </trkpt>
      <trkpt lat="53.92900918610394" lon="9.717982225120068">
        <ele>0</ele>
        <time>2010-01-02T06:18:19Z</time>
      </trkpt>
      <trkpt lat="53.929091831669211" lon="9.717831434682012">
        <ele>0</ele>
        <time>2010-01-02T06:18:24Z</time>
      </trkpt>
      <trkpt lat="53.929189816117287" lon="9.71766865812242">
        <ele>0</ele>
        <time>2010-01-02T06:18:30Z</time>
      </trkpt>
      <trkpt lat="53.929274221882224" lon="9.717527003958821">
        <ele>0</ele>
        <time>2010-01-02T06:18:34Z</time>
      </trkpt>
      <trkpt lat="53.929341360926628" lon="9.717417033389211">
        <ele>0</ele>
        <time>2010-01-02T06:18:38Z</time>
      </trkpt>
      <trkpt lat="53.929374050348997" lon="9.717364311218262">
        <ele>0</ele>
        <time>2010-01-02T06:18:40Z</time>
      </trkpt>
      <trkpt lat="53.929413110017776" lon="9.717301027849317">
        <ele>0</ele>
        <time>2010-01-02T06:18:42Z</time>
      </trkpt>
      <trkpt lat="53.929433142766356" lon="9.717246545478702">
        <ele>0</ele>
        <time>2010-01-02T06:18:44Z</time>
      </trkpt>
      <trkpt lat="53.929452337324619" lon="9.717189045622945">
        <ele>0</ele>
        <time>2010-01-02T06:18:45Z</time>
      </trkpt>
      <trkpt lat="53.929469855502248" lon="9.717122409492731">
        <ele>0</ele>
        <time>2010-01-02T06:18:47Z</time>
      </trkpt>
      <trkpt lat="53.929482093080878" lon="9.717031214386225">
        <ele>0</ele>
        <time>2010-01-02T06:18:49Z</time>
      </trkpt>
      <trkpt lat="53.929484523832798" lon="9.71691713668406">
        <ele>0</ele>
        <time>2010-01-02T06:18:52Z</time>
      </trkpt>
      <trkpt lat="53.929472705349326" lon="9.716642880812287">
        <ele>0</ele>
        <time>2010-01-02T06:18:58Z</time>
      </trkpt>
      <trkpt lat="53.92947044223547" lon="9.716415982693434">
        <ele>0</ele>
        <time>2010-01-02T06:19:04Z</time>
      </trkpt>
      <trkpt lat="53.929486284032464" lon="9.716178774833679">
        <ele>0</ele>
        <time>2010-01-02T06:19:09Z</time>
      </trkpt>
      <trkpt lat="53.929508412256837" lon="9.715924886986613">
        <ele>0</ele>
        <time>2010-01-02T06:19:15Z</time>
      </trkpt>
      <trkpt lat="53.929550070315599" lon="9.715580055490136">
        <ele>0</ele>
        <time>2010-01-02T06:19:24Z</time>
      </trkpt>
      <trkpt lat="53.929596757516265" lon="9.715279396623373">
        <ele>0</ele>
        <time>2010-01-02T06:19:31Z</time>
      </trkpt>
      <trkpt lat="53.929639086127281" lon="9.714958872646093">
        <ele>0</ele>
        <time>2010-01-02T06:19:39Z</time>
      </trkpt>
      <trkpt lat="53.929680157452822" lon="9.714548494666815">
        <ele>0</ele>
        <time>2010-01-02T06:19:48Z</time>
      </trkpt>
      <trkpt lat="53.929713014513254" lon="9.714165441691875">
        <ele>0</ele>
        <time>2010-01-02T06:19:58Z</time>
      </trkpt>
      <trkpt lat="53.929740926250815" lon="9.713695468381047">
        <ele>0</ele>
        <time>2010-01-02T06:20:09Z</time>
      </trkpt>
      <trkpt lat="53.929757941514254" lon="9.713248210027814">
        <ele>0</ele>
        <time>2010-01-02T06:20:19Z</time>
      </trkpt>
      <trkpt lat="53.929771268740296" lon="9.712820565328002">
        <ele>0</ele>
        <time>2010-01-02T06:20:29Z</time>
      </trkpt>
      <trkpt lat="53.929775878787041" lon="9.712662314996123">
        <ele>0</ele>
        <time>2010-01-02T06:20:33Z</time>
      </trkpt>
      <trkpt lat="53.929774118587375" lon="9.712494844570756">
        <ele>0</ele>
        <time>2010-01-02T06:20:37Z</time>
      </trkpt>
      <trkpt lat="53.929765988141298" lon="9.712348580360413">
        <ele>0</ele>
        <time>2010-01-02T06:20:41Z</time>
      </trkpt>
      <trkpt lat="53.929755929857492" lon="9.712234167382121">
        <ele>0</ele>
        <time>2010-01-02T06:20:43Z</time>
      </trkpt>
      <trkpt lat="53.929742267355323" lon="9.712113719433546">
        <ele>0</ele>
        <time>2010-01-02T06:20:46Z</time>
      </trkpt>
      <trkpt lat="53.929724916815758" lon="9.712011376395822">
        <ele>0</ele>
        <time>2010-01-02T06:20:49Z</time>
      </trkpt>
      <trkpt lat="53.929702285677195" lon="9.711883133277297">
        <ele>0</ele>
        <time>2010-01-02T06:20:52Z</time>
      </trkpt>
      <trkpt lat="53.929684180766344" lon="9.711754973977804">
        <ele>0</ele>
        <time>2010-01-02T06:20:55Z</time>
      </trkpt>
      <trkpt lat="53.929670518264174" lon="9.711642069742084">
        <ele>0</ele>
        <time>2010-01-02T06:20:58Z</time>
      </trkpt>
      <trkpt lat="53.929669428616762" lon="9.711521789431572">
        <ele>0</ele>
        <time>2010-01-02T06:21:00Z</time>
      </trkpt>
      <trkpt lat="53.929671607911587" lon="9.711447190493345">
        <ele>0</ele>
        <time>2010-01-02T06:21:02Z</time>
      </trkpt>
      <trkpt lat="53.929682169109583" lon="9.711334705352783">
        <ele>0</ele>
        <time>2010-01-02T06:21:05Z</time>
      </trkpt>
      <trkpt lat="53.929704381152987" lon="9.7112285066396">
        <ele>0</ele>
        <time>2010-01-02T06:21:08Z</time>
      </trkpt>
      <trkpt lat="53.929743021726608" lon="9.711075453087687">
        <ele>0</ele>
        <time>2010-01-02T06:21:11Z</time>
      </trkpt>
      <trkpt lat="53.929763305932283" lon="9.710984425619245">
        <ele>0</ele>
        <time>2010-01-02T06:21:14Z</time>
      </trkpt>
      <trkpt lat="53.929776465520263" lon="9.710887195542455">
        <ele>0</ele>
        <time>2010-01-02T06:21:16Z</time>
      </trkpt>
      <trkpt lat="53.929781578481197" lon="9.710791390389204">
        <ele>0</ele>
        <time>2010-01-02T06:21:18Z</time>
      </trkpt>
      <trkpt lat="53.929779483005404" lon="9.710683263838291">
        <ele>0</ele>
        <time>2010-01-02T06:21:21Z</time>
      </trkpt>
      <trkpt lat="53.929763725027442" lon="9.710462233051658">
        <ele>0</ele>
        <time>2010-01-02T06:21:26Z</time>
      </trkpt>
      <trkpt lat="53.929734723642468" lon="9.710201388224959">
        <ele>0</ele>
        <time>2010-01-02T06:21:32Z</time>
      </trkpt>
      <trkpt lat="53.9296830072999" lon="9.709827555343509">
        <ele>0</ele>
        <time>2010-01-02T06:21:41Z</time>
      </trkpt>
      <trkpt lat="53.92964587546885" lon="9.709575679153204">
        <ele>0</ele>
        <time>2010-01-02T06:21:48Z</time>
      </trkpt>
      <trkpt lat="53.92961461097002" lon="9.709390942007303">
        <ele>0</ele>
        <time>2010-01-02T06:21:52Z</time>
      </trkpt>
      <trkpt lat="53.929571863263845" lon="9.709180137142539">
        <ele>0</ele>
        <time>2010-01-02T06:21:57Z</time>
      </trkpt>
      <trkpt lat="53.929525259882212" lon="9.709005793556571">
        <ele>0</ele>
        <time>2010-01-02T06:22:02Z</time>
      </trkpt>
      <trkpt lat="53.929443452507257" lon="9.708702955394983">
        <ele>0</ele>
        <time>2010-01-02T06:22:10Z</time>
      </trkpt>
      <trkpt lat="53.929354269057512" lon="9.708442613482475">
        <ele>0</ele>
        <time>2010-01-02T06:22:17Z</time>
      </trkpt>
      <trkpt lat="53.92925351858139" lon="9.708154695108533">
        <ele>0</ele>
        <time>2010-01-02T06:22:25Z</time>
      </trkpt>
      <trkpt lat="53.929149247705936" lon="9.707862166687846">
        <ele>0</ele>
        <time>2010-01-02T06:22:33Z</time>
      </trkpt>
      <trkpt lat="53.92908638343215" lon="9.707704335451126">
        <ele>0</ele>
        <time>2010-01-02T06:22:37Z</time>
      </trkpt>
      <trkpt lat="53.929026117548347" lon="9.707572320476174">
        <ele>0</ele>
        <time>2010-01-02T06:22:41Z</time>
      </trkpt>
      <trkpt lat="53.928980771452188" lon="9.707481795921922">
        <ele>0</ele>
        <time>2010-01-02T06:22:44Z</time>
      </trkpt>
      <trkpt lat="53.928927378728986" lon="9.707397138699889">
        <ele>0</ele>
        <time>2010-01-02T06:22:47Z</time>
      </trkpt>
      <trkpt lat="53.928900640457869" lon="9.707363191992044">
        <ele>0</ele>
        <time>2010-01-02T06:22:48Z</time>
      </trkpt>
      <trkpt lat="53.928849762305617" lon="9.70730141736567">
        <ele>0</ele>
        <time>2010-01-02T06:22:51Z</time>
      </trkpt>
      <trkpt lat="53.928791675716639" lon="9.707248695194721">
        <ele>0</ele>
        <time>2010-01-02T06:22:53Z</time>
      </trkpt>
      <trkpt lat="53.928737193346024" lon="9.707194464281201">
        <ele>0</ele>
        <time>2010-01-02T06:22:56Z</time>
      </trkpt>
      <trkpt lat="53.928694278001785" lon="9.707161774858832">
        <ele>0</ele>
        <time>2010-01-02T06:22:58Z</time>
      </trkpt>
      <trkpt lat="53.928654128685594" lon="9.707118440419436">
        <ele>0</ele>
        <time>2010-01-02T06:23:00Z</time>
      </trkpt>
      <trkpt lat="53.928626636043191" lon="9.707060186192393">
        <ele>0</ele>
        <time>2010-01-02T06:23:02Z</time>
      </trkpt>
      <trkpt lat="53.928091451525688" lon="9.707005452364683">
        <ele>0</ele>
        <time>2010-01-02T06:23:23Z</time>
      </trkpt>
      <trkpt lat="53.927830187603831" lon="9.706969074904919">
        <ele>0</ele>
        <time>2010-01-02T06:23:33Z</time>
      </trkpt>
      <trkpt lat="53.927527600899339" lon="9.706936553120613">
        <ele>0</ele>
        <time>2010-01-02T06:23:46Z</time>
      </trkpt>
      <trkpt lat="53.927170112729073" lon="9.706921298056841">
        <ele>0</ele>
        <time>2010-01-02T06:24:00Z</time>
      </trkpt>
      <trkpt lat="53.926754202693701" lon="9.706906713545322">
        <ele>0</ele>
        <time>2010-01-02T06:24:17Z</time>
      </trkpt>
      <trkpt lat="53.926280960440636" lon="9.706860613077879">
        <ele>0</ele>
        <time>2010-01-02T06:24:36Z</time>
      </trkpt>
      <trkpt lat="53.925548298284411" lon="9.706778218969703">
        <ele>0</ele>
        <time>2010-01-02T06:25:05Z</time>
      </trkpt>
      <trkpt lat="53.925474621355534" lon="9.706776961684227">
        <ele>0</ele>
        <time>2010-01-02T06:25:08Z</time>
      </trkpt>
      <trkpt lat="53.925394657999277" lon="9.706789283081889">
        <ele>0</ele>
        <time>2010-01-02T06:25:11Z</time>
      </trkpt>
      <trkpt lat="53.9253244176507" lon="9.706810992211103">
        <ele>0</ele>
        <time>2010-01-02T06:25:14Z</time>
      </trkpt>
      <trkpt lat="53.925258703529835" lon="9.706834210082889">
        <ele>0</ele>
        <time>2010-01-02T06:25:17Z</time>
      </trkpt>
      <trkpt lat="53.925201958045363" lon="9.706849968060851">
        <ele>0</ele>
        <time>2010-01-02T06:25:19Z</time>
      </trkpt>
      <trkpt lat="53.925149822607636" lon="9.706853656098247">
        <ele>0</ele>
        <time>2010-01-02T06:25:21Z</time>
      </trkpt>
      <trkpt lat="53.925053095445037" lon="9.706809399649501">
        <ele>0</ele>
        <time>2010-01-02T06:25:25Z</time>
      </trkpt>
      <trkpt lat="53.92498679459095" lon="9.706779392436147">
        <ele>0</ele>
        <time>2010-01-02T06:25:28Z</time>
      </trkpt>
      <trkpt lat="53.924141814932227" lon="9.706390639767051">
        <ele>0</ele>
        <time>2010-01-02T06:26:03Z</time>
      </trkpt>
      <trkpt lat="53.923622136935592" lon="9.706141361966729">
        <ele>0</ele>
        <time>2010-01-02T06:26:24Z</time>
      </trkpt>
      <trkpt lat="53.923589866608381" lon="9.706130130216479">
        <ele>0</ele>
        <time>2010-01-02T06:26:26Z</time>
      </trkpt>
      <trkpt lat="53.923571929335594" lon="9.706126777455211">
        <ele>0</ele>
        <time>2010-01-02T06:26:27Z</time>
      </trkpt>
      <trkpt lat="53.923546699807048" lon="9.706143122166395">
        <ele>0</ele>
        <time>2010-01-02T06:26:28Z</time>
      </trkpt>
      <trkpt lat="53.923515938222408" lon="9.706183690577745">
        <ele>0</ele>
        <time>2010-01-02T06:26:29Z</time>
      </trkpt>
      <trkpt lat="53.923449469730258" lon="9.706322578713298">
        <ele>0</ele>
        <time>2010-01-02T06:26:33Z</time>
      </trkpt>
      <trkpt lat="53.923376714810729" lon="9.706481164321303">
        <ele>0</ele>
        <time>2010-01-02T06:26:38Z</time>
      </trkpt>
      <trkpt lat="53.923291135579348" lon="9.706671517342329">
        <ele>0</ele>
        <time>2010-01-02T06:26:44Z</time>
      </trkpt>
      <trkpt lat="53.923213602975011" lon="9.70686505548656">
        <ele>0</ele>
        <time>2010-01-02T06:26:49Z</time>
      </trkpt>
      <trkpt lat="53.923184517771006" lon="9.706922471523285">
        <ele>0</ele>
        <time>2010-01-02T06:26:51Z</time>
      </trkpt>
      <trkpt lat="53.923165574669838" lon="9.706938816234469">
        <ele>0</ele>
        <time>2010-01-02T06:26:52Z</time>
      </trkpt>
      <trkpt lat="53.923139423131943" lon="9.706946024671197">
        <ele>0</ele>
        <time>2010-01-02T06:26:53Z</time>
      </trkpt>
      <trkpt lat="53.923069350421429" lon="9.706952478736639">
        <ele>0</ele>
        <time>2010-01-02T06:26:56Z</time>
      </trkpt>
      <trkpt lat="53.922150861471891" lon="9.706996316090226">
        <ele>0</ele>
        <time>2010-01-02T06:27:33Z</time>
      </trkpt>
      <trkpt lat="53.922046339139342" lon="9.70700335688889">
        <ele>0</ele>
        <time>2010-01-02T06:27:37Z</time>
      </trkpt>
      <trkpt lat="53.921953970566392" lon="9.707009727135301">
        <ele>0</ele>
        <time>2010-01-02T06:27:40Z</time>
      </trkpt>
      <trkpt lat="53.921548621729016" lon="9.707036297768354">
        <ele>0</ele>
        <time>2010-01-02T06:27:57Z</time>
      </trkpt>
      <trkpt lat="53.92129423096776" lon="9.707056414335966">
        <ele>0</ele>
        <time>2010-01-02T06:28:07Z</time>
      </trkpt>
      <trkpt lat="53.920884355902672" lon="9.707087511196733">
        <ele>0</ele>
        <time>2010-01-02T06:28:23Z</time>
      </trkpt>
      <trkpt lat="53.920918134972453" lon="9.706992208957672">
        <ele>0</ele>
        <time>2010-01-02T06:28:26Z</time>
      </trkpt>
      <trkpt lat="53.9209502376616" lon="9.706893805414438">
        <ele>0</ele>
        <time>2010-01-02T06:28:29Z</time>
      </trkpt>
      <trkpt lat="53.920993320643902" lon="9.70674536190927">
        <ele>0</ele>
        <time>2010-01-02T06:28:32Z</time>
      </trkpt>
      <trkpt lat="53.921031123027205" lon="9.706580070778728">
        <ele>0</ele>
        <time>2010-01-02T06:28:37Z</time>
      </trkpt>
      <trkpt lat="53.921057106927037" lon="9.706442020833492">
        <ele>0</ele>
        <time>2010-01-02T06:28:40Z</time>
      </trkpt>
      <trkpt lat="53.92109977081418" lon="9.706214368343353">
        <ele>0</ele>
        <time>2010-01-02T06:28:46Z</time>
      </trkpt>
      <trkpt lat="53.921476872637868" lon="9.704222995787859">
        <ele>0</ele>
        <time>2010-01-02T06:29:35Z</time>
      </trkpt>
      <trkpt lat="53.921495648100972" lon="9.704123586416245">
        <ele>0</ele>
        <time>2010-01-02T06:29:37Z</time>
      </trkpt>
      <trkpt lat="53.920708922669291" lon="9.703917056322098">
        <ele>0</ele>
        <time>2010-01-02T06:30:09Z</time>
      </trkpt>
      <trkpt lat="53.920109700411558" lon="9.703759308904409">
        <ele>0</ele>
        <time>2010-01-02T06:30:34Z</time>
      </trkpt>
      <trkpt lat="53.919813651591539" lon="9.703681273385882">
        <ele>0</ele>
        <time>2010-01-02T06:30:46Z</time>
      </trkpt>
      <trkpt lat="53.919478291645646" lon="9.703566022217274">
        <ele>0</ele>
        <time>2010-01-02T06:30:59Z</time>
      </trkpt>
      <trkpt lat="53.919348288327456" lon="9.703524280339479">
        <ele>0</ele>
        <time>2010-01-02T06:31:05Z</time>
      </trkpt>
      <trkpt lat="53.919186852872372" lon="9.703472815454006">
        <ele>0</ele>
        <time>2010-01-02T06:31:11Z</time>
      </trkpt>
      <trkpt lat="53.919065734371543" lon="9.70343585126102">
        <ele>0</ele>
        <time>2010-01-02T06:31:16Z</time>
      </trkpt>
      <trkpt lat="53.918810170143843" lon="9.703358486294746">
        <ele>0</ele>
        <time>2010-01-02T06:31:27Z</time>
      </trkpt>
      <trkpt lat="53.918756358325481" lon="9.703342309221625">
        <ele>0</ele>
        <time>2010-01-02T06:31:29Z</time>
      </trkpt>
      <trkpt lat="53.918342124670744" lon="9.70319839194417">
        <ele>0</ele>
        <time>2010-01-02T06:31:46Z</time>
      </trkpt>
      <trkpt lat="53.917970973998308" lon="9.703061264008284">
        <ele>0</ele>
        <time>2010-01-02T06:32:01Z</time>
      </trkpt>
      <trkpt lat="53.917921604588628" lon="9.703045170754194">
        <ele>0</ele>
        <time>2010-01-02T06:32:03Z</time>
      </trkpt>
      <trkpt lat="53.917885813862085" lon="9.703021785244346">
        <ele>0</ele>
        <time>2010-01-02T06:32:04Z</time>
      </trkpt>
      <trkpt lat="53.917841976508498" lon="9.702987503260374">
        <ele>0</ele>
        <time>2010-01-02T06:32:06Z</time>
      </trkpt>
      <trkpt lat="53.917786655947566" lon="9.702924219891429">
        <ele>0</ele>
        <time>2010-01-02T06:32:09Z</time>
      </trkpt>
      <trkpt lat="53.917628740891814" lon="9.702732861042023">
        <ele>0</ele>
        <time>2010-01-02T06:32:17Z</time>
      </trkpt>
      <trkpt lat="53.91750737093389" lon="9.702595314010978">
        <ele>0</ele>
        <time>2010-01-02T06:32:23Z</time>
      </trkpt>
      <trkpt lat="53.917353814467788" lon="9.702429939061403">
        <ele>0</ele>
        <time>2010-01-02T06:32:30Z</time>
      </trkpt>
      <trkpt lat="53.917306456714869" lon="9.702389538288116">
        <ele>0</ele>
        <time>2010-01-02T06:32:32Z</time>
      </trkpt>
      <trkpt lat="53.917058184742928" lon="9.702126597985625">
        <ele>0</ele>
        <time>2010-01-02T06:32:44Z</time>
      </trkpt>
      <trkpt lat="53.916804380714893" lon="9.701897101476789">
        <ele>0</ele>
        <time>2010-01-02T06:32:55Z</time>
      </trkpt>
      <trkpt lat="53.916688207536936" lon="9.701787130907178">
        <ele>0</ele>
        <time>2010-01-02T06:33:01Z</time>
      </trkpt>
      <trkpt lat="53.916552420705557" lon="9.701658468693495">
        <ele>0</ele>
        <time>2010-01-02T06:33:07Z</time>
      </trkpt>
      <trkpt lat="53.916202895343304" lon="9.701346745714545">
        <ele>0</ele>
        <time>2010-01-02T06:33:23Z</time>
      </trkpt>
      <trkpt lat="53.916101893410087" lon="9.701256807893515">
        <ele>0</ele>
        <time>2010-01-02T06:33:27Z</time>
      </trkpt>
      <trkpt lat="53.915512897074223" lon="9.700732519850135">
        <ele>0</ele>
        <time>2010-01-02T06:33:54Z</time>
      </trkpt>
      <trkpt lat="53.914077412337065" lon="9.699454447254539">
        <ele>0</ele>
        <time>2010-01-02T06:34:59Z</time>
      </trkpt>
      <trkpt lat="53.914061738178134" lon="9.699527202174067">
        <ele>0</ele>
        <time>2010-01-02T06:35:00Z</time>
      </trkpt>
      <trkpt lat="53.914043214172125" lon="9.699615128338337">
        <ele>0</ele>
        <time>2010-01-02T06:35:03Z</time>
      </trkpt>
      <trkpt lat="53.913990911096334" lon="9.699802966788411">
        <ele>0</ele>
        <time>2010-01-02T06:35:08Z</time>
      </trkpt>
      <trkpt lat="53.913922933861613" lon="9.700060542672873">
        <ele>0</ele>
        <time>2010-01-02T06:35:14Z</time>
      </trkpt>
      <trkpt lat="53.913552621379495" lon="9.701469708234072">
        <ele>0</ele>
        <time>2010-01-02T06:35:51Z</time>
      </trkpt>
      <trkpt lat="53.913174932822585" lon="9.702909048646688">
        <ele>0</ele>
        <time>2010-01-02T06:36:28Z</time>
      </trkpt>
      <trkpt lat="53.913152972236276" lon="9.702974176034331">
        <ele>0</ele>
        <time>2010-01-02T06:36:30Z</time>
      </trkpt>
      <trkpt lat="53.913137465715408" lon="9.703010385856032">
        <ele>0</ele>
        <time>2010-01-02T06:36:31Z</time>
      </trkpt>
      <trkpt lat="53.91312388703227" lon="9.703034525737166">
        <ele>0</ele>
        <time>2010-01-02T06:36:31Z</time>
      </trkpt>
      <trkpt lat="53.913104860112071" lon="9.703057073056698">
        <ele>0</ele>
        <time>2010-01-02T06:36:32Z</time>
      </trkpt>
      <trkpt lat="53.913089521229267" lon="9.703067466616631">
        <ele>0</ele>
        <time>2010-01-02T06:36:33Z</time>
      </trkpt>
      <trkpt lat="53.91307694837451" lon="9.703067215159535">
        <ele>0</ele>
        <time>2010-01-02T06:36:33Z</time>
      </trkpt>
      <trkpt lat="53.913062615320086" lon="9.70306696370244">
        <ele>0</ele>
        <time>2010-01-02T06:36:34Z</time>
      </trkpt>
      <trkpt lat="53.913009641692042" lon="9.703053887933493">
        <ele>0</ele>
        <time>2010-01-02T06:36:36Z</time>
      </trkpt>
      <trkpt lat="53.912954153493047" lon="9.703024048358202">
        <ele>0</ele>
        <time>2010-01-02T06:36:38Z</time>
      </trkpt>
      <trkpt lat="53.912801099941134" lon="9.702921034768224">
        <ele>0</ele>
        <time>2010-01-02T06:36:45Z</time>
      </trkpt>
      <trkpt lat="53.912650812417269" lon="9.702813494950533">
        <ele>0</ele>
        <time>2010-01-02T06:36:52Z</time>
      </trkpt>
      <trkpt lat="53.912310758605599" lon="9.702567402273417">
        <ele>0</ele>
        <time>2010-01-02T06:37:06Z</time>
      </trkpt>
      <trkpt lat="53.912115711718798" lon="9.702431699261069">
        <ele>0</ele>
        <time>2010-01-02T06:37:15Z</time>
      </trkpt>
      <trkpt lat="53.911216417327523" lon="9.701803307980299">
        <ele>0</ele>
        <time>2010-01-02T06:37:54Z</time>
      </trkpt>
      <trkpt lat="53.910750215873122" lon="9.70147741958499">
        <ele>0</ele>
        <time>2010-01-02T06:38:14Z</time>
      </trkpt>
      <trkpt lat="53.910659858956933" lon="9.701413549482822">
        <ele>0</ele>
        <time>2010-01-02T06:38:18Z</time>
      </trkpt>
      <trkpt lat="53.910468416288495" lon="9.701279439032078">
        <ele>0</ele>
        <time>2010-01-02T06:38:26Z</time>
      </trkpt>
      <trkpt lat="53.909901967272162" lon="9.700881969183683">
        <ele>0</ele>
        <time>2010-01-02T06:38:51Z</time>
      </trkpt>
      <trkpt lat="53.909596865996718" lon="9.700668314471841">
        <ele>0</ele>
        <time>2010-01-02T06:39:04Z</time>
      </trkpt>
      <trkpt lat="53.90914591960609" lon="9.700351897627115">
        <ele>0</ele>
        <time>2010-01-02T06:39:23Z</time>
      </trkpt>
      <trkpt lat="53.908752137795091" lon="9.70007898285985">
        <ele>0</ele>
        <time>2010-01-02T06:39:40Z</time>
      </trkpt>
      <trkpt lat="53.90821703709662" lon="9.699709424749017">
        <ele>0</ele>
        <time>2010-01-02T06:40:04Z</time>
      </trkpt>
      <trkpt lat="53.908165991306305" lon="9.699673550203443">
        <ele>0</ele>
        <time>2010-01-02T06:40:06Z</time>
      </trkpt>
      <trkpt lat="53.907884107902646" lon="9.699478670954704">
        <ele>0</ele>
        <time>2010-01-02T06:40:18Z</time>
      </trkpt>
      <trkpt lat="53.907775897532701" lon="9.699393175542355">
        <ele>0</ele>
        <time>2010-01-02T06:40:23Z</time>
      </trkpt>
      <trkpt lat="53.907717643305659" lon="9.699367862194777">
        <ele>0</ele>
        <time>2010-01-02T06:40:25Z</time>
      </trkpt>
      <trkpt lat="53.907676320523024" lon="9.699370209127665">
        <ele>0</ele>
        <time>2010-01-02T06:40:27Z</time>
      </trkpt>
      <trkpt lat="53.907613288611174" lon="9.699387392029166">
        <ele>0</ele>
        <time>2010-01-02T06:40:29Z</time>
      </trkpt>
      <trkpt lat="53.907553693279624" lon="9.699442712590098">
        <ele>0</ele>
        <time>2010-01-02T06:40:32Z</time>
      </trkpt>
      <trkpt lat="53.907523015514016" lon="9.69947112724185">
        <ele>0</ele>
        <time>2010-01-02T06:40:34Z</time>
      </trkpt>
      <trkpt lat="53.907457049936056" lon="9.699530890211463">
        <ele>0</ele>
        <time>2010-01-02T06:40:36Z</time>
      </trkpt>
      <trkpt lat="53.907139543443918" lon="9.699904387816787">
        <ele>0</ele>
        <time>2010-01-02T06:40:52Z</time>
      </trkpt>
      <trkpt lat="53.906539818271995" lon="9.700585165992379">
        <ele>0</ele>
        <time>2010-01-02T06:41:21Z</time>
      </trkpt>
      <trkpt lat="53.906070431694388" lon="9.701117500662804">
        <ele>0</ele>
        <time>2010-01-02T06:41:43Z</time>
      </trkpt>
      <trkpt lat="53.905714955180883" lon="9.701522346585989">
        <ele>0</ele>
        <time>2010-01-02T06:42:01Z</time>
      </trkpt>
      <trkpt lat="53.905181279405951" lon="9.702131124213338">
        <ele>0</ele>
        <time>2010-01-02T06:42:26Z</time>
      </trkpt>
      <trkpt lat="53.90514062717557" lon="9.702180661261082">
        <ele>0</ele>
        <time>2010-01-02T06:42:28Z</time>
      </trkpt>
      <trkpt lat="53.905055550858378" lon="9.702282669022679">
        <ele>0</ele>
        <time>2010-01-02T06:42:32Z</time>
      </trkpt>
      <trkpt lat="53.904986064881086" lon="9.702337821945548">
        <ele>0</ele>
        <time>2010-01-02T06:42:36Z</time>
      </trkpt>
      <trkpt lat="53.904939126223326" lon="9.702372020110488">
        <ele>0</ele>
        <time>2010-01-02T06:42:38Z</time>
      </trkpt>
      <trkpt lat="53.904889589175582" lon="9.702397082000971">
        <ele>0</ele>
        <time>2010-01-02T06:42:40Z</time>
      </trkpt>
      <trkpt lat="53.904832005500793" lon="9.702405212447047">
        <ele>0</ele>
        <time>2010-01-02T06:42:42Z</time>
      </trkpt>
      <trkpt lat="53.904735948890448" lon="9.702399093657732">
        <ele>0</ele>
        <time>2010-01-02T06:42:46Z</time>
      </trkpt>
      <trkpt lat="53.904316853731871" lon="9.702303791418672">
        <ele>0</ele>
        <time>2010-01-02T06:43:03Z</time>
      </trkpt>
      <trkpt lat="53.904256755486131" lon="9.702290631830692">
        <ele>0</ele>
        <time>2010-01-02T06:43:05Z</time>
      </trkpt>
      <trkpt lat="53.904070844873786" lon="9.702248051762581">
        <ele>0</ele>
        <time>2010-01-02T06:43:13Z</time>
      </trkpt>
      <trkpt lat="53.903668178245425" lon="9.702155934646726">
        <ele>0</ele>
        <time>2010-01-02T06:43:29Z</time>
      </trkpt>
      <trkpt lat="53.903486877679825" lon="9.702114863321185">
        <ele>0</ele>
        <time>2010-01-02T06:43:36Z</time>
      </trkpt>
      <trkpt lat="53.903240198269486" lon="9.70205744728446">
        <ele>0</ele>
        <time>2010-01-02T06:43:46Z</time>
      </trkpt>
      <trkpt lat="53.903265260159969" lon="9.702689275145531">
        <ele>0</ele>
        <time>2010-01-02T06:44:01Z</time>
      </trkpt>
      <trkpt lat="53.903282526880503" lon="9.70301415771246">
        <ele>0</ele>
        <time>2010-01-02T06:44:09Z</time>
      </trkpt>
      <trkpt lat="53.903289483860135" lon="9.70314466394484">
        <ele>0</ele>
        <time>2010-01-02T06:44:12Z</time>
      </trkpt>
      <trkpt lat="53.903291998431087" lon="9.703176598995924">
        <ele>0</ele>
        <time>2010-01-02T06:44:13Z</time>
      </trkpt>
      <trkpt lat="53.90332737006247" lon="9.703732570633292">
        <ele>0</ele>
        <time>2010-01-02T06:44:26Z</time>
      </trkpt>
      <trkpt lat="53.903331225737929" lon="9.70384974963963">
        <ele>0</ele>
        <time>2010-01-02T06:44:29Z</time>
      </trkpt>
      <trkpt lat="53.903340445831418" lon="9.70395184122026">
        <ele>0</ele>
        <time>2010-01-02T06:44:31Z</time>
      </trkpt>
      <trkpt lat="53.903350755572319" lon="9.704031134024262">
        <ele>0</ele>
        <time>2010-01-02T06:44:33Z</time>
      </trkpt>
      <trkpt lat="53.903370117768645" lon="9.704109085723758">
        <ele>0</ele>
        <time>2010-01-02T06:44:35Z</time>
      </trkpt>
      <trkpt lat="53.903398280963302" lon="9.704202376306057">
        <ele>0</ele>
        <time>2010-01-02T06:44:38Z</time>
      </trkpt>
      <trkpt lat="53.903463827446103" lon="9.70436473377049">
        <ele>0</ele>
        <time>2010-01-02T06:44:42Z</time>
      </trkpt>
      <trkpt lat="53.903585197404027" lon="9.704663464799523">
        <ele>0</ele>
        <time>2010-01-02T06:44:51Z</time>
      </trkpt>
      <trkpt lat="53.90417461283505" lon="9.706089477986097">
        <ele>0</ele>
        <time>2010-01-02T06:45:32Z</time>
      </trkpt>
      <trkpt lat="53.90486704185605" lon="9.707764601334929">
        <ele>0</ele>
        <time>2010-01-02T06:46:20Z</time>
      </trkpt>
      <trkpt lat="53.904943149536848" lon="9.707950009033084">
        <ele>0</ele>
        <time>2010-01-02T06:46:25Z</time>
      </trkpt>
      <trkpt lat="53.905605487525463" lon="9.709604512900114">
        <ele>0</ele>
        <time>2010-01-02T06:47:13Z</time>
      </trkpt>
      <trkpt lat="53.905656784772873" lon="9.709733175113797">
        <ele>0</ele>
        <time>2010-01-02T06:47:16Z</time>
      </trkpt>
      <trkpt lat="53.906000358983874" lon="9.710591062903404">
        <ele>0</ele>
        <time>2010-01-02T06:47:41Z</time>
      </trkpt>
      <trkpt lat="53.906505033373833" lon="9.711841307580471">
        <ele>0</ele>
        <time>2010-01-02T06:48:16Z</time>
      </trkpt>
      <trkpt lat="53.906720532104373" lon="9.712313627824187">
        <ele>0</ele>
        <time>2010-01-02T06:48:30Z</time>
      </trkpt>
      <trkpt lat="53.906812816858292" lon="9.71251605078578">
        <ele>0</ele>
        <time>2010-01-02T06:48:37Z</time>
      </trkpt>
      <trkpt lat="53.906843662261963" lon="9.712615460157394">
        <ele>0</ele>
        <time>2010-01-02T06:48:39Z</time>
      </trkpt>
      <trkpt lat="53.906888505443931" lon="9.712774464860559">
        <ele>0</ele>
        <time>2010-01-02T06:48:43Z</time>
      </trkpt>
      <trkpt lat="53.907036781311035" lon="9.713682308793068">
        <ele>0</ele>
        <time>2010-01-02T06:49:06Z</time>
      </trkpt>
      <trkpt lat="53.907046336680651" lon="9.713743329048157">
        <ele>0</ele>
        <time>2010-01-02T06:49:07Z</time>
      </trkpt>
      <trkpt lat="53.907207520678639" lon="9.714738177135587">
        <ele>0</ele>
        <time>2010-01-02T06:49:31Z</time>
      </trkpt>
      <trkpt lat="53.906834442168474" lon="9.714613119140267">
        <ele>0</ele>
        <time>2010-01-02T06:49:47Z</time>
      </trkpt>
      <trkpt lat="53.90639690682292" lon="9.714458053931594">
        <ele>0</ele>
        <time>2010-01-02T06:50:04Z</time>
      </trkpt>
      <trkpt lat="53.905960377305746" lon="9.714293852448463">
        <ele>0</ele>
        <time>2010-01-02T06:50:22Z</time>
      </trkpt>
      <trkpt lat="53.905885107815266" lon="9.714263677597046">
        <ele>0</ele>
        <time>2010-01-02T06:50:25Z</time>
      </trkpt>
      <trkpt lat="53.905459307134151" lon="9.71409821882844">
        <ele>0</ele>
        <time>2010-01-02T06:50:43Z</time>
      </trkpt>
      <trkpt lat="53.905151942744851" lon="9.713954469189048">
        <ele>0</ele>
        <time>2010-01-02T06:50:56Z</time>
      </trkpt>
      <trkpt lat="53.904712060466409" lon="9.713750705122948">
        <ele>0</ele>
        <time>2010-01-02T06:51:14Z</time>
      </trkpt>
      <trkpt lat="53.904623296111822" lon="9.713709633797407">
        <ele>0</ele>
        <time>2010-01-02T06:51:18Z</time>
      </trkpt>
      <trkpt lat="53.903951151296496" lon="9.713430348783731">
        <ele>0</ele>
        <time>2010-01-02T06:51:45Z</time>
      </trkpt>
      <trkpt lat="53.903672369197011" lon="9.713314510881901">
        <ele>0</ele>
        <time>2010-01-02T06:51:57Z</time>
      </trkpt>
      <trkpt lat="53.90363029204309" lon="9.713297076523304">
        <ele>0</ele>
        <time>2010-01-02T06:51:59Z</time>
      </trkpt>
      <trkpt lat="53.903199210762978" lon="9.713117787614465">
        <ele>0</ele>
        <time>2010-01-02T06:52:16Z</time>
      </trkpt>
      <trkpt lat="53.902914980426431" lon="9.713012594729662">
        <ele>0</ele>
        <time>2010-01-02T06:52:28Z</time>
      </trkpt>
      <trkpt lat="53.902837028726935" lon="9.712983844801784">
        <ele>0</ele>
        <time>2010-01-02T06:52:31Z</time>
      </trkpt>
      <trkpt lat="53.902111826464534" lon="9.712700704112649">
        <ele>0</ele>
        <time>2010-01-02T06:53:01Z</time>
      </trkpt>
      <trkpt lat="53.901964807882905" lon="9.712649490684271">
        <ele>0</ele>
        <time>2010-01-02T06:53:07Z</time>
      </trkpt>
      <trkpt lat="53.901204485446215" lon="9.712380934506655">
        <ele>0</ele>
        <time>2010-01-02T06:53:38Z</time>
      </trkpt>
      <trkpt lat="53.90064331702888" lon="9.712170548737049">
        <ele>0</ele>
        <time>2010-01-02T06:54:01Z</time>
      </trkpt>
      <trkpt lat="53.900424549356103" lon="9.712089244276285">
        <ele>0</ele>
        <time>2010-01-02T06:54:10Z</time>
      </trkpt>
      <trkpt lat="53.900223718956113" lon="9.712020428851247">
        <ele>0</ele>
        <time>2010-01-02T06:54:18Z</time>
      </trkpt>
      <trkpt lat="53.900149203836918" lon="9.711999390274286">
        <ele>0</ele>
        <time>2010-01-02T06:54:21Z</time>
      </trkpt>
      <trkpt lat="53.900035293772817" lon="9.711967036128044">
        <ele>0</ele>
        <time>2010-01-02T06:54:26Z</time>
      </trkpt>
      <trkpt lat="53.899688282981515" lon="9.711860669776797">
        <ele>0</ele>
        <time>2010-01-02T06:54:40Z</time>
      </trkpt>
      <trkpt lat="53.899559117853642" lon="9.711823537945747">
        <ele>0</ele>
        <time>2010-01-02T06:54:45Z</time>
      </trkpt>
      <trkpt lat="53.899511592462659" lon="9.711805935949087">
        <ele>0</ele>
        <time>2010-01-02T06:54:47Z</time>
      </trkpt>
      <trkpt lat="53.899458702653646" lon="9.711785316467285">
        <ele>0</ele>
        <time>2010-01-02T06:54:49Z</time>
      </trkpt>
      <trkpt lat="53.899300871416926" lon="9.711724799126387">
        <ele>0</ele>
        <time>2010-01-02T06:54:56Z</time>
      </trkpt>
      <trkpt lat="53.898691171780229" lon="9.711515083909035">
        <ele>0</ele>
        <time>2010-01-02T06:55:21Z</time>
      </trkpt>
      <trkpt lat="53.898177612572908" lon="9.71130863763392">
        <ele>0</ele>
        <time>2010-01-02T06:55:42Z</time>
      </trkpt>
      <trkpt lat="53.897988516837358" lon="9.711232362315059">
        <ele>0</ele>
        <time>2010-01-02T06:55:50Z</time>
      </trkpt>
      <trkpt lat="53.897713255137205" lon="9.711131863296032">
        <ele>0</ele>
        <time>2010-01-02T06:56:01Z</time>
      </trkpt>
      <trkpt lat="53.897556345909834" lon="9.711074447259307">
        <ele>0</ele>
        <time>2010-01-02T06:56:07Z</time>
      </trkpt>
      <trkpt lat="53.897221069782972" lon="9.710951568558812">
        <ele>0</ele>
        <time>2010-01-02T06:56:21Z</time>
      </trkpt>
      <trkpt lat="53.897077571600676" lon="9.710898930206895">
        <ele>0</ele>
        <time>2010-01-02T06:56:27Z</time>
      </trkpt>
      <trkpt lat="53.896988891065121" lon="9.710866995155811">
        <ele>0</ele>
        <time>2010-01-02T06:56:31Z</time>
      </trkpt>
      <trkpt lat="53.896660571917892" lon="9.710774710401893">
        <ele>0</ele>
        <time>2010-01-02T06:56:44Z</time>
      </trkpt>
      <trkpt lat="53.896293779835105" lon="9.710649820044637">
        <ele>0</ele>
        <time>2010-01-02T06:56:59Z</time>
      </trkpt>
      <trkpt lat="53.896187078207731" lon="9.710613023489714">
        <ele>0</ele>
        <time>2010-01-02T06:57:03Z</time>
      </trkpt>
      <trkpt lat="53.895758343860507" lon="9.71049165353179">
        <ele>0</ele>
        <time>2010-01-02T06:57:21Z</time>
      </trkpt>
      <trkpt lat="53.895361125469208" lon="9.71036022529006">
        <ele>0</ele>
        <time>2010-01-02T06:57:37Z</time>
      </trkpt>
      <trkpt lat="53.895239168778062" lon="9.710318567231297">
        <ele>0</ele>
        <time>2010-01-02T06:57:42Z</time>
      </trkpt>
      <trkpt lat="53.895148476585746" lon="9.710314041003585">
        <ele>0</ele>
        <time>2010-01-02T06:57:45Z</time>
      </trkpt>
      <trkpt lat="53.895102627575397" lon="9.710314711555839">
        <ele>0</ele>
        <time>2010-01-02T06:57:47Z</time>
      </trkpt>
      <trkpt lat="53.89500648714602" lon="9.710317645221949">
        <ele>0</ele>
        <time>2010-01-02T06:57:51Z</time>
      </trkpt>
      <trkpt lat="53.894899450242519" lon="9.710344802588224">
        <ele>0</ele>
        <time>2010-01-02T06:57:55Z</time>
      </trkpt>
      <trkpt lat="53.894787719473243" lon="9.710391573607922">
        <ele>0</ele>
        <time>2010-01-02T06:58:00Z</time>
      </trkpt>
      <trkpt lat="53.894579512998462" lon="9.710505148395896">
        <ele>0</ele>
        <time>2010-01-02T06:58:09Z</time>
      </trkpt>
      <trkpt lat="53.89431070536375" lon="9.710678569972515">
        <ele>0</ele>
        <time>2010-01-02T06:58:20Z</time>
      </trkpt>
      <trkpt lat="53.894022032618523" lon="9.710875963792205">
        <ele>0</ele>
        <time>2010-01-02T06:58:33Z</time>
      </trkpt>
      <trkpt lat="53.893716093152761" lon="9.711105041205883">
        <ele>0</ele>
        <time>2010-01-02T06:58:46Z</time>
      </trkpt>
      <trkpt lat="53.893688097596169" lon="9.711125828325748">
        <ele>0</ele>
        <time>2010-01-02T06:58:47Z</time>
      </trkpt>
      <trkpt lat="53.893433623015881" lon="9.711313163861632">
        <ele>0</ele>
        <time>2010-01-02T06:58:59Z</time>
      </trkpt>
      <trkpt lat="53.893289202824235" lon="9.711430845782161">
        <ele>0</ele>
        <time>2010-01-02T06:59:05Z</time>
      </trkpt>
      <trkpt lat="53.893163725733757" lon="9.711533691734076">
        <ele>0</ele>
        <time>2010-01-02T06:59:11Z</time>
      </trkpt>
      <trkpt lat="53.89288293197751" lon="9.711763188242912">
        <ele>0</ele>
        <time>2010-01-02T06:59:23Z</time>
      </trkpt>
      <trkpt lat="53.892600126564503" lon="9.712032163515687">
        <ele>0</ele>
        <time>2010-01-02T06:59:36Z</time>
      </trkpt>
      <trkpt lat="53.892357051372528" lon="9.712263755500317">
        <ele>0</ele>
        <time>2010-01-02T06:59:47Z</time>
      </trkpt>
      <trkpt lat="53.89227507635951" lon="9.712336929515004">
        <ele>0</ele>
        <time>2010-01-02T06:59:51Z</time>
      </trkpt>
      <trkpt lat="53.89203367754817" lon="9.712553350254893">
        <ele>0</ele>
        <time>2010-01-02T07:00:02Z</time>
      </trkpt>
      <trkpt lat="53.891911720857024" lon="9.712659297510982">
        <ele>0</ele>
        <time>2010-01-02T07:00:07Z</time>
      </trkpt>
      <trkpt lat="53.891802504658699" lon="9.712742613628507">
        <ele>0</ele>
        <time>2010-01-02T07:00:12Z</time>
      </trkpt>
      <trkpt lat="53.891701586544514" lon="9.712792569771409">
        <ele>0</ele>
        <time>2010-01-02T07:00:16Z</time>
      </trkpt>
      <trkpt lat="53.891569236293435" lon="9.712846633046865">
        <ele>0</ele>
        <time>2010-01-02T07:00:22Z</time>
      </trkpt>
      <trkpt lat="53.891448620706797" lon="9.712871946394444">
        <ele>0</ele>
        <time>2010-01-02T07:00:27Z</time>
      </trkpt>
      <trkpt lat="53.891292298212647" lon="9.712873874232173">
        <ele>0</ele>
        <time>2010-01-02T07:00:33Z</time>
      </trkpt>
      <trkpt lat="53.891134299337864" lon="9.712854428216815">
        <ele>0</ele>
        <time>2010-01-02T07:00:39Z</time>
      </trkpt>
      <trkpt lat="53.891064561903477" lon="9.71285124309361">
        <ele>0</ele>
        <time>2010-01-02T07:00:42Z</time>
      </trkpt>
      <trkpt lat="53.890991136431694" lon="9.713106723502278">
        <ele>0</ele>
        <time>2010-01-02T07:00:49Z</time>
      </trkpt>
      <trkpt lat="53.890938581898808" lon="9.71328760497272">
        <ele>0</ele>
        <time>2010-01-02T07:00:53Z</time>
      </trkpt>
      <trkpt lat="53.890927350148559" lon="9.713354324921966">
        <ele>0</ele>
        <time>2010-01-02T07:00:55Z</time>
      </trkpt>
      <trkpt lat="53.890929697081447" lon="9.713412830606103">
        <ele>0</ele>
        <time>2010-01-02T07:00:56Z</time>
      </trkpt>
      <trkpt lat="53.890957105904818" lon="9.714094111695886">
        <ele>0</ele>
        <time>2010-01-02T07:01:13Z</time>
      </trkpt>
      <trkpt lat="53.890961799770594" lon="9.714217325672507">
        <ele>0</ele>
        <time>2010-01-02T07:01:15Z</time>
      </trkpt>
      <trkpt lat="53.891032040119171" lon="9.71555826254189">
        <ele>0</ele>
        <time>2010-01-02T07:01:47Z</time>
      </trkpt>
      <trkpt lat="53.890978144481778" lon="9.715579887852073">
        <ele>0</ele>
        <time>2010-01-02T07:01:49Z</time>
      </trkpt>
      <trkpt lat="53.890948221087456" lon="9.715590951964259">
        <ele>0</ele>
        <time>2010-01-02T07:01:51Z</time>
      </trkpt>
      <trkpt lat="53.890799693763256" lon="9.715708382427692">
        <ele>0</ele>
        <time>2010-01-02T07:01:57Z</time>
      </trkpt>
      <trkpt lat="53.890663152560592" lon="9.715783484280109">
        <ele>0</ele>
        <time>2010-01-02T07:02:03Z</time>
      </trkpt>
      <trkpt lat="53.890522085130215" lon="9.71583872102201">
        <ele>0</ele>
        <time>2010-01-02T07:02:09Z</time>
      </trkpt>
      <trkpt lat="53.890412785112858" lon="9.715879540890455">
        <ele>0</ele>
        <time>2010-01-02T07:02:13Z</time>
      </trkpt>
      <trkpt lat="53.890296695753932" lon="9.715904938057065">
        <ele>0</ele>
        <time>2010-01-02T07:02:18Z</time>
      </trkpt>
      <trkpt lat="53.890183456242085" lon="9.715916756540537">
        <ele>0</ele>
        <time>2010-01-02T07:02:22Z</time>
      </trkpt>
      <trkpt lat="53.890071054920554" lon="9.715925473719835">
        <ele>0</ele>
        <time>2010-01-02T07:02:27Z</time>
      </trkpt>
      <trkpt lat="53.890030654147267" lon="9.715929329395294">
        <ele>0</ele>
        <time>2010-01-02T07:02:29Z</time>
      </trkpt>
      <trkpt lat="53.889994695782661" lon="9.715931760147214">
        <ele>0</ele>
        <time>2010-01-02T07:02:30Z</time>
      </trkpt>
      <trkpt lat="53.889947086572647" lon="9.715933939442039">
        <ele>0</ele>
        <time>2010-01-02T07:02:32Z</time>
      </trkpt>
      <trkpt lat="53.88990567997098" lon="9.715942405164242">
        <ele>0</ele>
        <time>2010-01-02T07:02:34Z</time>
      </trkpt>
      <trkpt lat="53.889870475977659" lon="9.715967634692788">
        <ele>0</ele>
        <time>2010-01-02T07:02:35Z</time>
      </trkpt>
      <trkpt lat="53.889852371066809" lon="9.715996216982603">
        <ele>0</ele>
        <time>2010-01-02T07:02:36Z</time>
      </trkpt>
      <trkpt lat="53.889833260327578" lon="9.716036953032017">
        <ele>0</ele>
        <time>2010-01-02T07:02:37Z</time>
      </trkpt>
      <trkpt lat="53.889822196215391" lon="9.716076347976923">
        <ele>0</ele>
        <time>2010-01-02T07:02:38Z</time>
      </trkpt>
      <trkpt lat="53.889810210093856" lon="9.716135440394282">
        <ele>0</ele>
        <time>2010-01-02T07:02:40Z</time>
      </trkpt>
      <trkpt lat="53.889794619753957" lon="9.716186905279756">
        <ele>0</ele>
        <time>2010-01-02T07:02:41Z</time>
      </trkpt>
      <trkpt lat="53.889773581176996" lon="9.716244321316481">
        <ele>0</ele>
        <time>2010-01-02T07:02:43Z</time>
      </trkpt>
      <trkpt lat="53.889747262001038" lon="9.716289499774575">
        <ele>0</ele>
        <time>2010-01-02T07:02:44Z</time>
      </trkpt>
      <trkpt lat="53.889706525951624" lon="9.716337444260716">
        <ele>0</ele>
        <time>2010-01-02T07:02:46Z</time>
      </trkpt>
      <trkpt lat="53.889581132680178" lon="9.716423526406288">
        <ele>0</ele>
        <time>2010-01-02T07:02:52Z</time>
      </trkpt>
      <trkpt lat="53.889493625611067" lon="9.716488989070058">
        <ele>0</ele>
        <time>2010-01-02T07:02:56Z</time>
      </trkpt>
      <trkpt lat="53.889418607577682" lon="9.716557636857033">
        <ele>0</ele>
        <time>2010-01-02T07:02:59Z</time>
      </trkpt>
      <trkpt lat="53.889400502666831" lon="9.716578675433993">
        <ele>0</ele>
        <time>2010-01-02T07:03:00Z</time>
      </trkpt>
      <trkpt lat="53.889339901506901" lon="9.716652100905776">
        <ele>0</ele>
        <time>2010-01-02T07:03:03Z</time>
      </trkpt>
      <trkpt lat="53.889330849051476" lon="9.71666257828474">
        <ele>0</ele>
        <time>2010-01-02T07:03:03Z</time>
      </trkpt>
      <trkpt lat="53.889137143269181" lon="9.716895008459687">
        <ele>0</ele>
        <time>2010-01-02T07:03:13Z</time>
      </trkpt>
      <trkpt lat="53.888948047533631" lon="9.717121487483382">
        <ele>0</ele>
        <time>2010-01-02T07:03:22Z</time>
      </trkpt>
      <trkpt lat="53.888364415615797" lon="9.717809557914734">
        <ele>0</ele>
        <time>2010-01-02T07:03:50Z</time>
      </trkpt>
      <trkpt lat="53.888060320168734" lon="9.718173919245601">
        <ele>0</ele>
        <time>2010-01-02T07:04:05Z</time>
      </trkpt>
      <trkpt lat="53.887929227203131" lon="9.718319261446595">
        <ele>0</ele>
        <time>2010-01-02T07:04:12Z</time>
      </trkpt>
      <trkpt lat="53.887849599123001" lon="9.718407606706023">
        <ele>0</ele>
        <time>2010-01-02T07:04:15Z</time>
      </trkpt>
      <trkpt lat="53.887574840337038" lon="9.718684209510684">
        <ele>0</ele>
        <time>2010-01-02T07:04:28Z</time>
      </trkpt>
      <trkpt lat="53.88638561591506" lon="9.71981811337173">
        <ele>0</ele>
        <time>2010-01-02T07:05:23Z</time>
      </trkpt>
      <trkpt lat="53.885544994845986" lon="9.720655381679535">
        <ele>0</ele>
        <time>2010-01-02T07:06:02Z</time>
      </trkpt>
      <trkpt lat="53.88497737236321" lon="9.721220405772328">
        <ele>0</ele>
        <time>2010-01-02T07:06:28Z</time>
      </trkpt>
      <trkpt lat="53.884935295209289" lon="9.721262315288186">
        <ele>0</ele>
        <time>2010-01-02T07:06:30Z</time>
      </trkpt>
      <trkpt lat="53.884235322475433" lon="9.721957426518202">
        <ele>0</ele>
        <time>2010-01-02T07:07:03Z</time>
      </trkpt>
      <trkpt lat="53.883739029988647" lon="9.722450701519847">
        <ele>0</ele>
        <time>2010-01-02T07:07:26Z</time>
      </trkpt>
      <trkpt lat="53.883330496028066" lon="9.722857307642698">
        <ele>0</ele>
        <time>2010-01-02T07:07:45Z</time>
      </trkpt>
      <trkpt lat="53.883125223219395" lon="9.723075740039349">
        <ele>0</ele>
        <time>2010-01-02T07:07:54Z</time>
      </trkpt>
      <trkpt lat="53.883013995364308" lon="9.723194008693099">
        <ele>0</ele>
        <time>2010-01-02T07:08:00Z</time>
      </trkpt>
      <trkpt lat="53.882872927933931" lon="9.723343625664711">
        <ele>0</ele>
        <time>2010-01-02T07:08:06Z</time>
      </trkpt>
      <trkpt lat="53.882764298468828" lon="9.723481675609946">
        <ele>0</ele>
        <time>2010-01-02T07:08:12Z</time>
      </trkpt>
      <trkpt lat="53.882695399224758" lon="9.723579324781895">
        <ele>0</ele>
        <time>2010-01-02T07:08:15Z</time>
      </trkpt>
      <trkpt lat="53.882609317079186" lon="9.7237085737288">
        <ele>0</ele>
        <time>2010-01-02T07:08:20Z</time>
      </trkpt>
      <trkpt lat="53.882524743676186" lon="9.723868332803249">
        <ele>0</ele>
        <time>2010-01-02T07:08:25Z</time>
      </trkpt>
      <trkpt lat="53.882427513599396" lon="9.72405063919723">
        <ele>0</ele>
        <time>2010-01-02T07:08:31Z</time>
      </trkpt>
      <trkpt lat="53.882346544414759" lon="9.724221127107739">
        <ele>0</ele>
        <time>2010-01-02T07:08:36Z</time>
      </trkpt>
      <trkpt lat="53.882321063429117" lon="9.724273849278688">
        <ele>0</ele>
        <time>2010-01-02T07:08:38Z</time>
      </trkpt>
      <trkpt lat="53.882249733433127" lon="9.724477948620915">
        <ele>0</ele>
        <time>2010-01-02T07:08:43Z</time>
      </trkpt>
      <trkpt lat="53.882154682651162" lon="9.724743906408548">
        <ele>0</ele>
        <time>2010-01-02T07:08:50Z</time>
      </trkpt>
      <trkpt lat="53.881890568882227" lon="9.725484531372786">
        <ele>0</ele>
        <time>2010-01-02T07:09:11Z</time>
      </trkpt>
      <trkpt lat="53.881175257265568" lon="9.72758587449789">
        <ele>0</ele>
        <time>2010-01-02T07:10:08Z</time>
      </trkpt>
      <trkpt lat="53.88105807825923" lon="9.727933555841446">
        <ele>0</ele>
        <time>2010-01-02T07:10:18Z</time>
      </trkpt>
      <trkpt lat="53.880766974762082" lon="9.728824133053422">
        <ele>0</ele>
        <time>2010-01-02T07:10:42Z</time>
      </trkpt>
      <trkpt lat="53.880710229277611" lon="9.728994956240058">
        <ele>0</ele>
        <time>2010-01-02T07:10:46Z</time>
      </trkpt>
      <trkpt lat="53.880661949515343" lon="9.729111213237047">
        <ele>0</ele>
        <time>2010-01-02T07:10:50Z</time>
      </trkpt>
      <trkpt lat="53.880616435781121" lon="9.729209281504154">
        <ele>0</ele>
        <time>2010-01-02T07:10:53Z</time>
      </trkpt>
      <trkpt lat="53.880561031401157" lon="9.729299554601312">
        <ele>0</ele>
        <time>2010-01-02T07:10:56Z</time>
      </trkpt>
      <trkpt lat="53.880494059994817" lon="9.729389660060406">
        <ele>0</ele>
        <time>2010-01-02T07:10:59Z</time>
      </trkpt>
      <trkpt lat="53.880398841574788" lon="9.729524860158563">
        <ele>0</ele>
        <time>2010-01-02T07:11:04Z</time>
      </trkpt>
      <trkpt lat="53.879538355395198" lon="9.7305694129318">
        <ele>0</ele>
        <time>2010-01-02T07:11:46Z</time>
      </trkpt>
      <trkpt lat="53.879524441435933" lon="9.730586176738143">
        <ele>0</ele>
        <time>2010-01-02T07:11:47Z</time>
      </trkpt>
      <trkpt lat="53.878035731613636" lon="9.732354506850243">
        <ele>0</ele>
        <time>2010-01-02T07:13:00Z</time>
      </trkpt>
      <trkpt lat="53.877480011433363" lon="9.733015336096287">
        <ele>0</ele>
        <time>2010-01-02T07:13:27Z</time>
      </trkpt>
      <trkpt lat="53.877321593463421" lon="9.733202587813139">
        <ele>0</ele>
        <time>2010-01-02T07:13:35Z</time>
      </trkpt>
      <trkpt lat="53.877203995361924" lon="9.733343487605453">
        <ele>0</ele>
        <time>2010-01-02T07:13:40Z</time>
      </trkpt>
      <trkpt lat="53.877058234065771" lon="9.733518837019801">
        <ele>0</ele>
        <time>2010-01-02T07:13:48Z</time>
      </trkpt>
      <trkpt lat="53.876814488321543" lon="9.733858136460185">
        <ele>0</ele>
        <time>2010-01-02T07:14:00Z</time>
      </trkpt>
      <trkpt lat="53.876675684005022" lon="9.734068606048822">
        <ele>0</ele>
        <time>2010-01-02T07:14:08Z</time>
      </trkpt>
      <trkpt lat="53.876535706222057" lon="9.733889820054173">
        <ele>0</ele>
        <time>2010-01-02T07:14:15Z</time>
      </trkpt>
      <trkpt lat="53.876391956582665" lon="9.733753446489573">
        <ele>0</ele>
        <time>2010-01-02T07:14:21Z</time>
      </trkpt>
      <trkpt lat="53.876352561637759" lon="9.733719332143664">
        <ele>0</ele>
        <time>2010-01-02T07:14:23Z</time>
      </trkpt>
      <trkpt lat="53.876132788136601" lon="9.733525374904275">
        <ele>0</ele>
        <time>2010-01-02T07:14:33Z</time>
      </trkpt>
      <trkpt lat="53.875927180051804" lon="9.733343906700611">
        <ele>0</ele>
        <time>2010-01-02T07:14:42Z</time>
      </trkpt>
      <trkpt lat="53.875779658555984" lon="9.733233349397779">
        <ele>0</ele>
        <time>2010-01-02T07:14:49Z</time>
      </trkpt>
      <trkpt lat="53.875618642196059" lon="9.733121115714312">
        <ele>0</ele>
        <time>2010-01-02T07:14:56Z</time>
      </trkpt>
      <trkpt lat="53.875599782913923" lon="9.733108626678586">
        <ele>0</ele>
        <time>2010-01-02T07:14:56Z</time>
      </trkpt>
      <trkpt lat="53.875404736027122" lon="9.732985077425838">
        <ele>0</ele>
        <time>2010-01-02T07:15:05Z</time>
      </trkpt>
      <trkpt lat="53.875236427411437" lon="9.732875693589449">
        <ele>0</ele>
        <time>2010-01-02T07:15:12Z</time>
      </trkpt>
      <trkpt lat="53.875032244250178" lon="9.732774775475264">
        <ele>0</ele>
        <time>2010-01-02T07:15:21Z</time>
      </trkpt>
      <trkpt lat="53.87488522566855" lon="9.732711408287287">
        <ele>0</ele>
        <time>2010-01-02T07:15:27Z</time>
      </trkpt>
      <trkpt lat="53.874755306169391" lon="9.732658937573433">
        <ele>0</ele>
        <time>2010-01-02T07:15:32Z</time>
      </trkpt>
      <trkpt lat="53.874662015587091" lon="9.732634546235204">
        <ele>0</ele>
        <time>2010-01-02T07:15:36Z</time>
      </trkpt>
      <trkpt lat="53.874572245404124" lon="9.732616189867258">
        <ele>0</ele>
        <time>2010-01-02T07:15:39Z</time>
      </trkpt>
      <trkpt lat="53.874497730284929" lon="9.732608813792467">
        <ele>0</ele>
        <time>2010-01-02T07:15:42Z</time>
      </trkpt>
      <trkpt lat="53.874403517693281" lon="9.732598084956408">
        <ele>0</ele>
        <time>2010-01-02T07:15:46Z</time>
      </trkpt>
      <trkpt lat="53.874327158555388" lon="9.732590625062585">
        <ele>0</ele>
        <time>2010-01-02T07:15:49Z</time>
      </trkpt>
      <trkpt lat="53.874228252097964" lon="9.732596492394805">
        <ele>0</ele>
        <time>2010-01-02T07:15:53Z</time>
      </trkpt>
      <trkpt lat="53.874103277921677" lon="9.732612585648894">
        <ele>0</ele>
        <time>2010-01-02T07:15:58Z</time>
      </trkpt>
      <trkpt lat="53.873989954590797" lon="9.73263337276876">
        <ele>0</ele>
        <time>2010-01-02T07:16:03Z</time>
      </trkpt>
      <trkpt lat="53.873887360095978" lon="9.732655920088291">
        <ele>0</ele>
        <time>2010-01-02T07:16:07Z</time>
      </trkpt>
      <trkpt lat="53.873701114207506" lon="9.732702858746052">
        <ele>0</ele>
        <time>2010-01-02T07:16:14Z</time>
      </trkpt>
      <trkpt lat="53.873489554971457" lon="9.732773685827851">
        <ele>0</ele>
        <time>2010-01-02T07:16:23Z</time>
      </trkpt>
      <trkpt lat="53.87309342622757" lon="9.732902012765408">
        <ele>0</ele>
        <time>2010-01-02T07:16:39Z</time>
      </trkpt>
      <trkpt lat="53.872851273044944" lon="9.732979880645871">
        <ele>0</ele>
        <time>2010-01-02T07:16:49Z</time>
      </trkpt>
      <trkpt lat="53.872455731034279" lon="9.733105525374413">
        <ele>0</ele>
        <time>2010-01-02T07:17:05Z</time>
      </trkpt>
      <trkpt lat="53.872110396623611" lon="9.733210215345025">
        <ele>0</ele>
        <time>2010-01-02T07:17:19Z</time>
      </trkpt>
      <trkpt lat="53.871930353343487" lon="9.733267882838845">
        <ele>0</ele>
        <time>2010-01-02T07:17:27Z</time>
      </trkpt>
      <trkpt lat="53.871852988377213" lon="9.733293866738677">
        <ele>0</ele>
        <time>2010-01-02T07:17:30Z</time>
      </trkpt>
      <trkpt lat="53.871806133538485" lon="9.7333081997931">
        <ele>0</ele>
        <time>2010-01-02T07:17:32Z</time>
      </trkpt>
      <trkpt lat="53.87178392149508" lon="9.733314234763384">
        <ele>0</ele>
        <time>2010-01-02T07:17:33Z</time>
      </trkpt>
      <trkpt lat="53.87168912217021" lon="9.733339631929994">
        <ele>0</ele>
        <time>2010-01-02T07:17:36Z</time>
      </trkpt>
      <trkpt lat="53.871573116630316" lon="9.733360419049859">
        <ele>0</ele>
        <time>2010-01-02T07:17:41Z</time>
      </trkpt>
      <trkpt lat="53.871478736400604" lon="9.733370896428823">
        <ele>0</ele>
        <time>2010-01-02T07:17:45Z</time>
      </trkpt>
      <trkpt lat="53.871373627334833" lon="9.733364526182413">
        <ele>0</ele>
        <time>2010-01-02T07:17:49Z</time>
      </trkpt>
      <trkpt lat="53.871281091123819" lon="9.733361341059208">
        <ele>0</ele>
        <time>2010-01-02T07:17:53Z</time>
      </trkpt>
      <trkpt lat="53.87118143029511" lon="9.733352037146688">
        <ele>0</ele>
        <time>2010-01-02T07:17:57Z</time>
      </trkpt>
      <trkpt lat="53.871048577129841" lon="9.733329908922315">
        <ele>0</ele>
        <time>2010-01-02T07:18:02Z</time>
      </trkpt>
      <trkpt lat="53.8709004689008" lon="9.733307613059878">
        <ele>0</ele>
        <time>2010-01-02T07:18:08Z</time>
      </trkpt>
      <trkpt lat="53.870571814477444" lon="9.733233684673905">
        <ele>0</ele>
        <time>2010-01-02T07:18:21Z</time>
      </trkpt>
      <trkpt lat="53.870357824489474" lon="9.73320946097374">
        <ele>0</ele>
        <time>2010-01-02T07:18:30Z</time>
      </trkpt>
      <trkpt lat="53.870282219722867" lon="9.733205270022154">
        <ele>0</ele>
        <time>2010-01-02T07:18:33Z</time>
      </trkpt>
      <trkpt lat="53.870208794251084" lon="9.733211724087596">
        <ele>0</ele>
        <time>2010-01-02T07:18:36Z</time>
      </trkpt>
      <trkpt lat="53.870127322152257" lon="9.733235947787762">
        <ele>0</ele>
        <time>2010-01-02T07:18:39Z</time>
      </trkpt>
      <trkpt lat="53.869996229186654" lon="9.733296046033502">
        <ele>0</ele>
        <time>2010-01-02T07:18:45Z</time>
      </trkpt>
      <trkpt lat="53.86987385340035" lon="9.733400568366051">
        <ele>0</ele>
        <time>2010-01-02T07:18:50Z</time>
      </trkpt>
      <trkpt lat="53.869779808446765" lon="9.733493188396096">
        <ele>0</ele>
        <time>2010-01-02T07:18:54Z</time>
      </trkpt>
      <trkpt lat="53.869703868404031" lon="9.733569379895926">
        <ele>0</ele>
        <time>2010-01-02T07:18:58Z</time>
      </trkpt>
      <trkpt lat="53.869669586420059" lon="9.733600728213787">
        <ele>0</ele>
        <time>2010-01-02T07:19:00Z</time>
      </trkpt>
      <trkpt lat="53.869637986645103" lon="9.733629059046507">
        <ele>0</ele>
        <time>2010-01-02T07:19:01Z</time>
      </trkpt>
      <trkpt lat="53.869581995531917" lon="9.733676752075553">
        <ele>0</ele>
        <time>2010-01-02T07:19:03Z</time>
      </trkpt>
      <trkpt lat="53.86947269551456" lon="9.733763001859188">
        <ele>0</ele>
        <time>2010-01-02T07:19:08Z</time>
      </trkpt>
      <trkpt lat="53.869510916993022" lon="9.733838187530637">
        <ele>0</ele>
        <time>2010-01-02T07:19:11Z</time>
      </trkpt>
      <trkpt lat="53.869542935863137" lon="9.733890406787395">
        <ele>0</ele>
        <time>2010-01-02T07:19:12Z</time>
      </trkpt>
      <trkpt lat="53.869680147618055" lon="9.734075227752328">
        <ele>0</ele>
        <time>2010-01-02T07:19:19Z</time>
      </trkpt>
      <trkpt lat="53.869776455685496" lon="9.734198525547981">
        <ele>0</ele>
        <time>2010-01-02T07:19:24Z</time>
      </trkpt>
      <trkpt lat="53.869828004390001" lon="9.734289133921266">
        <ele>0</ele>
        <time>2010-01-02T07:19:27Z</time>
      </trkpt>
      <trkpt lat="53.869875781238079" lon="9.734411593526602">
        <ele>0</ele>
        <time>2010-01-02T07:19:31Z</time>
      </trkpt>
      <trkpt lat="53.86989681981504" lon="9.734491053968668">
        <ele>0</ele>
        <time>2010-01-02T07:19:33Z</time>
      </trkpt>
      <trkpt lat="53.86989732272923" lon="9.734562467783689">
        <ele>0</ele>
        <time>2010-01-02T07:19:34Z</time>
      </trkpt>
      <trkpt lat="53.869887767359614" lon="9.734653495252132">
        <ele>0</ele>
        <time>2010-01-02T07:19:37Z</time>
      </trkpt>
      <trkpt lat="53.869864549487829" lon="9.734780816361308">
        <ele>0</ele>
        <time>2010-01-02T07:19:40Z</time>
      </trkpt>
      <trkpt lat="53.869586773216724" lon="9.735908349975944">
        <ele>0</ele>
        <time>2010-01-02T07:20:09Z</time>
      </trkpt>
      <trkpt lat="53.86955576017499" lon="9.736041789874434">
        <ele>0</ele>
        <time>2010-01-02T07:20:12Z</time>
      </trkpt>
      <trkpt lat="53.869540756568313" lon="9.736154023557901">
        <ele>0</ele>
        <time>2010-01-02T07:20:15Z</time>
      </trkpt>
      <trkpt lat="53.869531955569983" lon="9.736258713528514">
        <ele>0</ele>
        <time>2010-01-02T07:20:17Z</time>
      </trkpt>
      <trkpt lat="53.869520472362638" lon="9.736377149820328">
        <ele>0</ele>
        <time>2010-01-02T07:20:20Z</time>
      </trkpt>
      <trkpt lat="53.869517035782337" lon="9.736503213644028">
        <ele>0</ele>
        <time>2010-01-02T07:20:23Z</time>
      </trkpt>
      <trkpt lat="53.869520388543606" lon="9.736684178933501">
        <ele>0</ele>
        <time>2010-01-02T07:20:27Z</time>
      </trkpt>
      <trkpt lat="53.869534889236093" lon="9.737389851361513">
        <ele>0</ele>
        <time>2010-01-02T07:20:44Z</time>
      </trkpt>
      <trkpt lat="53.869563471525908" lon="9.738158052787185">
        <ele>0</ele>
        <time>2010-01-02T07:21:02Z</time>
      </trkpt>
      <trkpt lat="53.869588868692517" lon="9.738550744950771">
        <ele>0</ele>
        <time>2010-01-02T07:21:11Z</time>
      </trkpt>
      <trkpt lat="53.869622144848108" lon="9.738837154582143">
        <ele>0</ele>
        <time>2010-01-02T07:21:18Z</time>
      </trkpt>
      <trkpt lat="53.869630359113216" lon="9.738960452377796">
        <ele>0</ele>
        <time>2010-01-02T07:21:21Z</time>
      </trkpt>
      <trkpt lat="53.869651816785336" lon="9.739126497879624">
        <ele>0</ele>
        <time>2010-01-02T07:21:25Z</time>
      </trkpt>
      <trkpt lat="53.869678638875484" lon="9.739289693534374">
        <ele>0</ele>
        <time>2010-01-02T07:21:29Z</time>
      </trkpt>
      <trkpt lat="53.869715351611376" lon="9.739452973008156">
        <ele>0</ele>
        <time>2010-01-02T07:21:33Z</time>
      </trkpt>
      <trkpt lat="53.869754830375314" lon="9.739619353786111">
        <ele>0</ele>
        <time>2010-01-02T07:21:38Z</time>
      </trkpt>
      <trkpt lat="53.869827082380652" lon="9.739844156429172">
        <ele>0</ele>
        <time>2010-01-02T07:21:44Z</time>
      </trkpt>
      <trkpt lat="53.869920624420047" lon="9.740117909386754">
        <ele>0</ele>
        <time>2010-01-02T07:21:51Z</time>
      </trkpt>
      <trkpt lat="53.870102092623711" lon="9.740704894065857">
        <ele>0</ele>
        <time>2010-01-02T07:22:07Z</time>
      </trkpt>
      <trkpt lat="53.870403589680791" lon="9.741637632250786">
        <ele>0</ele>
        <time>2010-01-02T07:22:32Z</time>
      </trkpt>
      <trkpt lat="53.870612382888794" lon="9.74231019616127">
        <ele>0</ele>
        <time>2010-01-02T07:22:50Z</time>
      </trkpt>
      <trkpt lat="53.870762083679438" lon="9.742806991562247">
        <ele>0</ele>
        <time>2010-01-02T07:23:03Z</time>
      </trkpt>
      <trkpt lat="53.870927710086107" lon="9.743335889652371">
        <ele>0</ele>
        <time>2010-01-02T07:23:17Z</time>
      </trkpt>
      <trkpt lat="53.870955873280764" lon="9.743424570187926">
        <ele>0</ele>
        <time>2010-01-02T07:23:20Z</time>
      </trkpt>
      <trkpt lat="53.871028209105134" lon="9.743647864088416">
        <ele>0</ele>
        <time>2010-01-02T07:23:26Z</time>
      </trkpt>
      <trkpt lat="53.871121918782592" lon="9.743892783299088">
        <ele>0</ele>
        <time>2010-01-02T07:23:32Z</time>
      </trkpt>
      <trkpt lat="53.871250916272402" lon="9.744235603138804">
        <ele>0</ele>
        <time>2010-01-02T07:23:42Z</time>
      </trkpt>
      <trkpt lat="53.871373124420643" lon="9.744528131559491">
        <ele>0</ele>
        <time>2010-01-02T07:23:50Z</time>
      </trkpt>
      <trkpt lat="53.871389888226986" lon="9.7445725556463">
        <ele>0</ele>
        <time>2010-01-02T07:23:52Z</time>
      </trkpt>
      <trkpt lat="53.871435821056366" lon="9.744699541479349">
        <ele>0</ele>
        <time>2010-01-02T07:23:55Z</time>
      </trkpt>
      <trkpt lat="53.871522657573223" lon="9.744894169270992">
        <ele>0</ele>
        <time>2010-01-02T07:24:01Z</time>
      </trkpt>
      <trkpt lat="53.87165148742497" lon="9.745136657729745">
        <ele>0</ele>
        <time>2010-01-02T07:24:09Z</time>
      </trkpt>
      <trkpt lat="53.87190998531878" lon="9.745612582191825">
        <ele>0</ele>
        <time>2010-01-02T07:24:24Z</time>
      </trkpt>
      <trkpt lat="53.872253056615591" lon="9.746216163039207">
        <ele>0</ele>
        <time>2010-01-02T07:24:44Z</time>
      </trkpt>
      <trkpt lat="53.87272646650672" lon="9.747089724987745">
        <ele>0</ele>
        <time>2010-01-02T07:25:12Z</time>
      </trkpt>
      <trkpt lat="53.873261148110032" lon="9.748082896694541">
        <ele>0</ele>
        <time>2010-01-02T07:25:43Z</time>
      </trkpt>
      <trkpt lat="53.873435240238905" lon="9.748409874737263">
        <ele>0</ele>
        <time>2010-01-02T07:25:54Z</time>
      </trkpt>
      <trkpt lat="53.87384737841785" lon="9.749172879382968">
        <ele>0</ele>
        <time>2010-01-02T07:26:18Z</time>
      </trkpt>
      <trkpt lat="53.874123562127352" lon="9.749688701704144">
        <ele>0</ele>
        <time>2010-01-02T07:26:35Z</time>
      </trkpt>
      <trkpt lat="53.874397901818156" lon="9.750207457691431">
        <ele>0</ele>
        <time>2010-01-02T07:26:51Z</time>
      </trkpt>
      <trkpt lat="53.874657154083252" lon="9.750706264749169">
        <ele>0</ele>
        <time>2010-01-02T07:27:07Z</time>
      </trkpt>
      <trkpt lat="53.874789420515299" lon="9.750959482043982">
        <ele>0</ele>
        <time>2010-01-02T07:27:15Z</time>
      </trkpt>
      <trkpt lat="53.874818757176399" lon="9.751014802604914">
        <ele>0</ele>
        <time>2010-01-02T07:27:17Z</time>
      </trkpt>
      <trkpt lat="53.874898636713624" lon="9.751171292737126">
        <ele>0</ele>
        <time>2010-01-02T07:27:22Z</time>
      </trkpt>
      <trkpt lat="53.874976588413119" lon="9.751349072903395">
        <ele>0</ele>
        <time>2010-01-02T07:27:27Z</time>
      </trkpt>
      <trkpt lat="53.874985473230481" lon="9.751368938013911">
        <ele>0</ele>
        <time>2010-01-02T07:27:27Z</time>
      </trkpt>
      <trkpt lat="53.87520139105618" lon="9.751891298219562">
        <ele>0</ele>
        <time>2010-01-02T07:27:42Z</time>
      </trkpt>
      <trkpt lat="53.875312954187393" lon="9.752151807770133">
        <ele>0</ele>
        <time>2010-01-02T07:27:50Z</time>
      </trkpt>
      <trkpt lat="53.875341285020113" lon="9.752219198271632">
        <ele>0</ele>
        <time>2010-01-02T07:27:52Z</time>
      </trkpt>
      <trkpt lat="53.875466091558337" lon="9.752517929300666">
        <ele>0</ele>
        <time>2010-01-02T07:28:01Z</time>
      </trkpt>
      <trkpt lat="53.875491824001074" lon="9.75257920101285">
        <ele>0</ele>
        <time>2010-01-02T07:28:02Z</time>
      </trkpt>
      <trkpt lat="53.875966994091868" lon="9.753743363544345">
        <ele>0</ele>
        <time>2010-01-02T07:28:36Z</time>
      </trkpt>
      <trkpt lat="53.876517182216048" lon="9.755109529942274">
        <ele>0</ele>
        <time>2010-01-02T07:29:15Z</time>
      </trkpt>
      <trkpt lat="53.876544591039419" lon="9.755192091688514">
        <ele>0</ele>
        <time>2010-01-02T07:29:17Z</time>
      </trkpt>
      <trkpt lat="53.877241630107164" lon="9.756924379616976">
        <ele>0</ele>
        <time>2010-01-02T07:30:07Z</time>
      </trkpt>
      <trkpt lat="53.877422930672765" lon="9.757388401776552">
        <ele>0</ele>
        <time>2010-01-02T07:30:20Z</time>
      </trkpt>
      <trkpt lat="53.878126675263047" lon="9.759189337491989">
        <ele>0</ele>
        <time>2010-01-02T07:31:11Z</time>
      </trkpt>
      <trkpt lat="53.87893645092845" lon="9.761223457753658">
        <ele>0</ele>
        <time>2010-01-02T07:32:09Z</time>
      </trkpt>
      <trkpt lat="53.878957154229283" lon="9.761275425553322">
        <ele>0</ele>
        <time>2010-01-02T07:32:10Z</time>
      </trkpt>
      <trkpt lat="53.878981797024608" lon="9.761351868510246">
        <ele>0</ele>
        <time>2010-01-02T07:32:12Z</time>
      </trkpt>
      <trkpt lat="53.879327466711402" lon="9.762237081304193">
        <ele>0</ele>
        <time>2010-01-02T07:32:37Z</time>
      </trkpt>
      <trkpt lat="53.879760475829244" lon="9.76337936706841">
        <ele>0</ele>
        <time>2010-01-02T07:33:09Z</time>
      </trkpt>
      <trkpt lat="53.879930879920721" lon="9.763846239075065">
        <ele>0</ele>
        <time>2010-01-02T07:33:22Z</time>
      </trkpt>
      <trkpt lat="53.880444690585136" lon="9.765139063820243">
        <ele>0</ele>
        <time>2010-01-02T07:33:59Z</time>
      </trkpt>
      <trkpt lat="53.880744092166424" lon="9.765947414562106">
        <ele>0</ele>
        <time>2010-01-02T07:34:22Z</time>
      </trkpt>
      <trkpt lat="53.881318420171738" lon="9.767458839341998">
        <ele>0</ele>
        <time>2010-01-02T07:35:04Z</time>
      </trkpt>
      <trkpt lat="53.881804989650846" lon="9.768650829792023">
        <ele>0</ele>
        <time>2010-01-02T07:35:38Z</time>
      </trkpt>
      <trkpt lat="53.881991235539317" lon="9.769168244674802">
        <ele>0</ele>
        <time>2010-01-02T07:35:52Z</time>
      </trkpt>
      <trkpt lat="53.882470009848475" lon="9.770300891250372">
        <ele>0</ele>
        <time>2010-01-02T07:36:25Z</time>
      </trkpt>
      <trkpt lat="53.882945263758302" lon="9.771427335217595">
        <ele>0</ele>
        <time>2010-01-02T07:36:58Z</time>
      </trkpt>
      <trkpt lat="53.883242821320891" lon="9.772098893299699">
        <ele>0</ele>
        <time>2010-01-02T07:37:18Z</time>
      </trkpt>
      <trkpt lat="53.883447591215372" lon="9.772533075883985">
        <ele>0</ele>
        <time>2010-01-02T07:37:31Z</time>
      </trkpt>
      <trkpt lat="53.884176732972264" lon="9.773992784321308">
        <ele>0</ele>
        <time>2010-01-02T07:38:16Z</time>
      </trkpt>
      <trkpt lat="53.884690208360553" lon="9.77504245005548">
        <ele>0</ele>
        <time>2010-01-02T07:38:48Z</time>
      </trkpt>
      <trkpt lat="53.885094802826643" lon="9.77582867257297">
        <ele>0</ele>
        <time>2010-01-02T07:39:13Z</time>
      </trkpt>
      <trkpt lat="53.885321114212275" lon="9.776401575654745">
        <ele>0</ele>
        <time>2010-01-02T07:39:29Z</time>
      </trkpt>
      <trkpt lat="53.885498056188226" lon="9.776964588090777">
        <ele>0</ele>
        <time>2010-01-02T07:39:44Z</time>
      </trkpt>
      <trkpt lat="53.885750938206911" lon="9.778003441169858">
        <ele>0</ele>
        <time>2010-01-02T07:40:11Z</time>
      </trkpt>
      <trkpt lat="53.885796871036291" lon="9.778132019564509">
        <ele>0</ele>
        <time>2010-01-02T07:40:14Z</time>
      </trkpt>
      <trkpt lat="53.885910445824265" lon="9.778623869642615">
        <ele>0</ele>
        <time>2010-01-02T07:40:27Z</time>
      </trkpt>
      <trkpt lat="53.88614472001791" lon="9.779494917020202">
        <ele>0</ele>
        <time>2010-01-02T07:40:49Z</time>
      </trkpt>
      <trkpt lat="53.886402798816562" lon="9.780427655205131">
        <ele>0</ele>
        <time>2010-01-02T07:41:14Z</time>
      </trkpt>
      <trkpt lat="53.88681560754776" lon="9.781883172690868">
        <ele>0</ele>
        <time>2010-01-02T07:41:52Z</time>
      </trkpt>
      <trkpt lat="53.88707117177546" lon="9.782783724367619">
        <ele>0</ele>
        <time>2010-01-02T07:42:15Z</time>
      </trkpt>
      <trkpt lat="53.887204611673951" lon="9.783260738477111">
        <ele>0</ele>
        <time>2010-01-02T07:42:28Z</time>
      </trkpt>
      <trkpt lat="53.887281054630876" lon="9.783528372645378">
        <ele>0</ele>
        <time>2010-01-02T07:42:35Z</time>
      </trkpt>
      <trkpt lat="53.8873574975878" lon="9.783791396766901">
        <ele>0</ele>
        <time>2010-01-02T07:42:42Z</time>
      </trkpt>
      <trkpt lat="53.88740686699748" lon="9.784078225493431">
        <ele>0</ele>
        <time>2010-01-02T07:42:49Z</time>
      </trkpt>
      <trkpt lat="53.887433521449566" lon="9.784390535205603">
        <ele>0</ele>
        <time>2010-01-02T07:42:56Z</time>
      </trkpt>
      <trkpt lat="53.887500995770097" lon="9.785207016393542">
        <ele>0</ele>
        <time>2010-01-02T07:43:16Z</time>
      </trkpt>
      <trkpt lat="53.887574002146721" lon="9.78612550534308">
        <ele>0</ele>
        <time>2010-01-02T07:43:38Z</time>
      </trkpt>
      <trkpt lat="53.887606272473931" lon="9.786413507536054">
        <ele>0</ele>
        <time>2010-01-02T07:43:45Z</time>
      </trkpt>
      <trkpt lat="53.887614151462913" lon="9.786454746499658">
        <ele>0</ele>
        <time>2010-01-02T07:43:46Z</time>
      </trkpt>
      <trkpt lat="53.887655809521675" lon="9.786677537485957">
        <ele>0</ele>
        <time>2010-01-02T07:43:51Z</time>
      </trkpt>
      <trkpt lat="53.887740550562739" lon="9.78690879419446">
        <ele>0</ele>
        <time>2010-01-02T07:43:57Z</time>
      </trkpt>
      <trkpt lat="53.887789165601134" lon="9.787026811391115">
        <ele>0</ele>
        <time>2010-01-02T07:44:01Z</time>
      </trkpt>
      <trkpt lat="53.887891424819827" lon="9.787186905741692">
        <ele>0</ele>
        <time>2010-01-02T07:44:06Z</time>
      </trkpt>
      <trkpt lat="53.888049423694611" lon="9.787387903779745">
        <ele>0</ele>
        <time>2010-01-02T07:44:14Z</time>
      </trkpt>
      <trkpt lat="53.888325439766049" lon="9.787590578198433">
        <ele>0</ele>
        <time>2010-01-02T07:44:26Z</time>
      </trkpt>
      <trkpt lat="53.888496346771717" lon="9.78769107721746">
        <ele>0</ele>
        <time>2010-01-02T07:44:34Z</time>
      </trkpt>
      <trkpt lat="53.888601874932647" lon="9.787629218772054">
        <ele>0</ele>
        <time>2010-01-02T07:44:38Z</time>
      </trkpt>
      <trkpt lat="53.888821229338646" lon="9.787482786923647">
        <ele>0</ele>
        <time>2010-01-02T07:44:48Z</time>
      </trkpt>
      <trkpt lat="53.889192463830113" lon="9.787179445847869">
        <ele>0</ele>
        <time>2010-01-02T07:45:04Z</time>
      </trkpt>
      <trkpt lat="53.889479879289865" lon="9.786917176097631">
        <ele>0</ele>
        <time>2010-01-02T07:45:17Z</time>
      </trkpt>
      <trkpt lat="53.889618013054132" lon="9.787231581285596">
        <ele>0</ele>
        <time>2010-01-02T07:45:26Z</time>
      </trkpt>
      <trkpt lat="53.889943649992347" lon="9.787849159911275">
        <ele>0</ele>
        <time>2010-01-02T07:45:46Z</time>
      </trkpt>
      <trkpt lat="53.890217822045088" lon="9.788382081314921">
        <ele>0</ele>
        <time>2010-01-02T07:46:03Z</time>
      </trkpt>
      <trkpt lat="53.890664158388972" lon="9.789237705990672">
        <ele>0</ele>
        <time>2010-01-02T07:46:30Z</time>
      </trkpt>
      <trkpt lat="53.890703888610005" lon="9.789316328242421">
        <ele>0</ele>
        <time>2010-01-02T07:46:32Z</time>
      </trkpt>
      <trkpt lat="53.890931708738208" lon="9.789759730920196">
        <ele>0</ele>
        <time>2010-01-02T07:46:46Z</time>
      </trkpt>
      <trkpt lat="53.891158271580935" lon="9.79020070284605">
        <ele>0</ele>
        <time>2010-01-02T07:47:00Z</time>
      </trkpt>
      <trkpt lat="53.891212251037359" lon="9.790304554626346">
        <ele>0</ele>
        <time>2010-01-02T07:47:03Z</time>
      </trkpt>
      <trkpt lat="53.891549538820982" lon="9.790953397750854">
        <ele>0</ele>
        <time>2010-01-02T07:47:23Z</time>
      </trkpt>
      <trkpt lat="53.891892777755857" lon="9.791621519252658">
        <ele>0</ele>
        <time>2010-01-02T07:47:44Z</time>
      </trkpt>
      <trkpt lat="53.892158148810267" lon="9.792122421786189">
        <ele>0</ele>
        <time>2010-01-02T07:48:00Z</time>
      </trkpt>
      <trkpt lat="53.892218414694071" lon="9.792246809229255">
        <ele>0</ele>
        <time>2010-01-02T07:48:04Z</time>
      </trkpt>
      <trkpt lat="53.892605239525437" lon="9.792991876602173">
        <ele>0</ele>
        <time>2010-01-02T07:48:27Z</time>
      </trkpt>
      <trkpt lat="53.892921824008226" lon="9.793616915121675">
        <ele>0</ele>
        <time>2010-01-02T07:48:47Z</time>
      </trkpt>
      <trkpt lat="53.893073284998536" lon="9.793946826830506">
        <ele>0</ele>
        <time>2010-01-02T07:48:57Z</time>
      </trkpt>
      <trkpt lat="53.893230110406876" lon="9.794418308883905">
        <ele>0</ele>
        <time>2010-01-02T07:49:09Z</time>
      </trkpt>
      <trkpt lat="53.893290460109711" lon="9.794673454016447">
        <ele>0</ele>
        <time>2010-01-02T07:49:16Z</time>
      </trkpt>
      <trkpt lat="53.893353324383497" lon="9.794936310499907">
        <ele>0</ele>
        <time>2010-01-02T07:49:23Z</time>
      </trkpt>
      <trkpt lat="53.893557172268629" lon="9.796042973175645">
        <ele>0</ele>
        <time>2010-01-02T07:49:50Z</time>
      </trkpt>
      <trkpt lat="53.893736293539405" lon="9.797013262286782">
        <ele>0</ele>
        <time>2010-01-02T07:50:14Z</time>
      </trkpt>
      <trkpt lat="53.89374534599483" lon="9.797062715515494">
        <ele>0</ele>
        <time>2010-01-02T07:50:15Z</time>
      </trkpt>
      <trkpt lat="53.89390510506928" lon="9.797905432060361">
        <ele>0</ele>
        <time>2010-01-02T07:50:36Z</time>
      </trkpt>
      <trkpt lat="53.894015243276954" lon="9.79849467985332">
        <ele>0</ele>
        <time>2010-01-02T07:50:51Z</time>
      </trkpt>
      <trkpt lat="53.894194113090634" lon="9.799441751092672">
        <ele>0</ele>
        <time>2010-01-02T07:51:14Z</time>
      </trkpt>
      <trkpt lat="53.894226299598813" lon="9.799586338922381">
        <ele>0</ele>
        <time>2010-01-02T07:51:18Z</time>
      </trkpt>
      <trkpt lat="53.894319841638207" lon="9.800112890079618">
        <ele>0</ele>
        <time>2010-01-02T07:51:31Z</time>
      </trkpt>
      <trkpt lat="53.894428387284279" lon="9.800680847838521">
        <ele>0</ele>
        <time>2010-01-02T07:51:45Z</time>
      </trkpt>
      <trkpt lat="53.894496951252222" lon="9.801036575809121">
        <ele>0</ele>
        <time>2010-01-02T07:51:54Z</time>
      </trkpt>
      <trkpt lat="53.894607340916991" lon="9.801601516082883">
        <ele>0</ele>
        <time>2010-01-02T07:52:08Z</time>
      </trkpt>
      <trkpt lat="53.894616393372416" lon="9.801640911027789">
        <ele>0</ele>
        <time>2010-01-02T07:52:09Z</time>
      </trkpt>
      <trkpt lat="53.894745223224163" lon="9.802200486883521">
        <ele>0</ele>
        <time>2010-01-02T07:52:23Z</time>
      </trkpt>
      <trkpt lat="53.894838010892272" lon="9.802576415240765">
        <ele>0</ele>
        <time>2010-01-02T07:52:32Z</time>
      </trkpt>
      <trkpt lat="53.894947562366724" lon="9.802978578954935">
        <ele>0</ele>
        <time>2010-01-02T07:52:43Z</time>
      </trkpt>
      <trkpt lat="53.895191727206111" lon="9.80378651060164">
        <ele>0</ele>
        <time>2010-01-02T07:53:04Z</time>
      </trkpt>
      <trkpt lat="53.89546237885952" lon="9.804646577686071">
        <ele>0</ele>
        <time>2010-01-02T07:53:27Z</time>
      </trkpt>
      <trkpt lat="53.895707298070192" lon="9.805434979498386">
        <ele>0</ele>
        <time>2010-01-02T07:53:48Z</time>
      </trkpt>
      <trkpt lat="53.895746693015099" lon="9.805561462417245">
        <ele>0</ele>
        <time>2010-01-02T07:53:52Z</time>
      </trkpt>
      <trkpt lat="53.895957497879863" lon="9.806197062134743">
        <ele>0</ele>
        <time>2010-01-02T07:54:09Z</time>
      </trkpt>
      <trkpt lat="53.896158747375011" lon="9.806718751788139">
        <ele>0</ele>
        <time>2010-01-02T07:54:24Z</time>
      </trkpt>
      <trkpt lat="53.896386986598372" lon="9.807189563289285">
        <ele>0</ele>
        <time>2010-01-02T07:54:38Z</time>
      </trkpt>
      <trkpt lat="53.89708218164742" lon="9.808363700285554">
        <ele>0</ele>
        <time>2010-01-02T07:55:17Z</time>
      </trkpt>
      <trkpt lat="53.897805120795965" lon="9.809608412906528">
        <ele>0</ele>
        <time>2010-01-02T07:55:58Z</time>
      </trkpt>
      <trkpt lat="53.898121453821659" lon="9.810130270197988">
        <ele>0</ele>
        <time>2010-01-02T07:56:16Z</time>
      </trkpt>
      <trkpt lat="53.89829152263701" lon="9.810495637357235">
        <ele>0</ele>
        <time>2010-01-02T07:56:27Z</time>
      </trkpt>
      <trkpt lat="53.89840928837657" lon="9.810744328424335">
        <ele>0</ele>
        <time>2010-01-02T07:56:35Z</time>
      </trkpt>
      <trkpt lat="53.898519007489085" lon="9.810998970642686">
        <ele>0</ele>
        <time>2010-01-02T07:56:42Z</time>
      </trkpt>
      <trkpt lat="53.898659236729145" lon="9.811382023617625">
        <ele>0</ele>
        <time>2010-01-02T07:56:53Z</time>
      </trkpt>
      <trkpt lat="53.898788569495082" lon="9.811762142926455">
        <ele>0</ele>
        <time>2010-01-02T07:57:03Z</time>
      </trkpt>
      <trkpt lat="53.898890325799584" lon="9.812027011066675">
        <ele>0</ele>
        <time>2010-01-02T07:57:11Z</time>
      </trkpt>
      <trkpt lat="53.899092832580209" lon="9.81263947673142">
        <ele>0</ele>
        <time>2010-01-02T07:57:27Z</time>
      </trkpt>
      <trkpt lat="53.899161564186215" lon="9.812830919399858">
        <ele>0</ele>
        <time>2010-01-02T07:57:32Z</time>
      </trkpt>
      <trkpt lat="53.899260051548481" lon="9.813147755339742">
        <ele>0</ele>
        <time>2010-01-02T07:57:41Z</time>
      </trkpt>
      <trkpt lat="53.899391647428274" lon="9.813620410859585">
        <ele>0</ele>
        <time>2010-01-02T07:57:53Z</time>
      </trkpt>
      <trkpt lat="53.899467838928103" lon="9.813912520185113">
        <ele>0</ele>
        <time>2010-01-02T07:58:01Z</time>
      </trkpt>
      <trkpt lat="53.89955903403461" lon="9.81437218375504">
        <ele>0</ele>
        <time>2010-01-02T07:58:12Z</time>
      </trkpt>
      <trkpt lat="53.899595243856311" lon="9.814604111015797">
        <ele>0</ele>
        <time>2010-01-02T07:58:18Z</time>
      </trkpt>
      <trkpt lat="53.899756511673331" lon="9.815462250262499">
        <ele>0</ele>
        <time>2010-01-02T07:58:39Z</time>
      </trkpt>
      <trkpt lat="53.900126069784164" lon="9.817524868994951">
        <ele>0</ele>
        <time>2010-01-02T07:59:30Z</time>
      </trkpt>
      <trkpt lat="53.900226904079318" lon="9.818027364090085">
        <ele>0</ele>
        <time>2010-01-02T07:59:42Z</time>
      </trkpt>
      <trkpt lat="53.900348106399179" lon="9.818700598552823">
        <ele>0</ele>
        <time>2010-01-02T07:59:59Z</time>
      </trkpt>
      <trkpt lat="53.900531670078635" lon="9.819714389741421">
        <ele>0</ele>
        <time>2010-01-02T08:00:24Z</time>
      </trkpt>
      <trkpt lat="53.900599228218198" lon="9.820076320320368">
        <ele>0</ele>
        <time>2010-01-02T08:00:33Z</time>
      </trkpt>
      <trkpt lat="53.900668798014522" lon="9.820416960865259">
        <ele>0</ele>
        <time>2010-01-02T08:00:41Z</time>
      </trkpt>
      <trkpt lat="53.90068095177412" lon="9.820453673601151">
        <ele>0</ele>
        <time>2010-01-02T08:00:42Z</time>
      </trkpt>
      <trkpt lat="53.900740966200829" lon="9.8206358961761">
        <ele>0</ele>
        <time>2010-01-02T08:00:47Z</time>
      </trkpt>
      <trkpt lat="53.900894774124026" lon="9.820874780416489">
        <ele>0</ele>
        <time>2010-01-02T08:00:56Z</time>
      </trkpt>
      <trkpt lat="53.901126366108656" lon="9.8211729247123">
        <ele>0</ele>
        <time>2010-01-02T08:01:07Z</time>
      </trkpt>
      <trkpt lat="53.901349995285273" lon="9.821442067623138">
        <ele>0</ele>
        <time>2010-01-02T08:01:18Z</time>
      </trkpt>
      <trkpt lat="53.901563649997115" lon="9.821729231625795">
        <ele>0</ele>
        <time>2010-01-02T08:01:29Z</time>
      </trkpt>
      <trkpt lat="53.901689881458879" lon="9.821934001520276">
        <ele>0</ele>
        <time>2010-01-02T08:01:36Z</time>
      </trkpt>
      <trkpt lat="53.901821812614799" lon="9.822215046733618">
        <ele>0</ele>
        <time>2010-01-02T08:01:45Z</time>
      </trkpt>
      <trkpt lat="53.902054829522967" lon="9.823214672505856">
        <ele>0</ele>
        <time>2010-01-02T08:02:10Z</time>
      </trkpt>
      <trkpt lat="53.902150802314281" lon="9.823637958616018">
        <ele>0</ele>
        <time>2010-01-02T08:02:21Z</time>
      </trkpt>
      <trkpt lat="53.902281643822789" lon="9.824201976880431">
        <ele>0</ele>
        <time>2010-01-02T08:02:35Z</time>
      </trkpt>
      <trkpt lat="53.902469230815768" lon="9.825018122792244">
        <ele>0</ele>
        <time>2010-01-02T08:02:56Z</time>
      </trkpt>
      <trkpt lat="53.902549026533961" lon="9.825305705890059">
        <ele>0</ele>
        <time>2010-01-02T08:03:03Z</time>
      </trkpt>
      <trkpt lat="53.902623457834125" lon="9.82558717019856">
        <ele>0</ele>
        <time>2010-01-02T08:03:11Z</time>
      </trkpt>
      <trkpt lat="53.902737786993384" lon="9.825953040271997">
        <ele>0</ele>
        <time>2010-01-02T08:03:20Z</time>
      </trkpt>
      <trkpt lat="53.902988322079182" lon="9.82674915343523">
        <ele>0</ele>
        <time>2010-01-02T08:03:42Z</time>
      </trkpt>
      <trkpt lat="53.903168449178338" lon="9.827344520017505">
        <ele>0</ele>
        <time>2010-01-02T08:03:57Z</time>
      </trkpt>
      <trkpt lat="53.903395514935255" lon="9.828024543821812">
        <ele>0</ele>
        <time>2010-01-02T08:04:16Z</time>
      </trkpt>
      <trkpt lat="53.903726851567626" lon="9.829096170142293">
        <ele>0</ele>
        <time>2010-01-02T08:04:44Z</time>
      </trkpt>
      <trkpt lat="53.904032623395324" lon="9.830098813399673">
        <ele>0</ele>
        <time>2010-01-02T08:05:11Z</time>
      </trkpt>
      <trkpt lat="53.904253738000989" lon="9.830856369808316">
        <ele>0</ele>
        <time>2010-01-02T08:05:31Z</time>
      </trkpt>
      <trkpt lat="53.904263628646731" lon="9.830890316516161">
        <ele>0</ele>
        <time>2010-01-02T08:05:32Z</time>
      </trkpt>
      <trkpt lat="53.904383657500148" lon="9.831304717808962">
        <ele>0</ele>
        <time>2010-01-02T08:05:43Z</time>
      </trkpt>
      <trkpt lat="53.904388770461082" lon="9.831318547949195">
        <ele>0</ele>
        <time>2010-01-02T08:05:43Z</time>
      </trkpt>
      <trkpt lat="53.90449128113687" lon="9.831592887639999">
        <ele>0</ele>
        <time>2010-01-02T08:05:51Z</time>
      </trkpt>
      <trkpt lat="53.904588595032692" lon="9.831801764667034">
        <ele>0</ele>
        <time>2010-01-02T08:05:57Z</time>
      </trkpt>
      <trkpt lat="53.904707366600633" lon="9.832039978355169">
        <ele>0</ele>
        <time>2010-01-02T08:06:04Z</time>
      </trkpt>
      <trkpt lat="53.904904257506132" lon="9.832416661083698">
        <ele>0</ele>
        <time>2010-01-02T08:06:16Z</time>
      </trkpt>
      <trkpt lat="53.904755059629679" lon="9.832549095153809">
        <ele>0</ele>
        <time>2010-01-02T08:06:23Z</time>
      </trkpt>
      <trkpt lat="53.904652884230018" lon="9.832639871165156">
        <ele>0</ele>
        <time>2010-01-02T08:06:28Z</time>
      </trkpt>
      <trkpt lat="53.904521120712161" lon="9.832731653004885">
        <ele>0</ele>
        <time>2010-01-02T08:06:33Z</time>
      </trkpt>
      <trkpt lat="53.904554648324847" lon="9.833073131740093">
        <ele>0</ele>
        <time>2010-01-02T08:06:41Z</time>
      </trkpt>
      <trkpt lat="53.904558420181274" lon="9.833692470565438">
        <ele>0</ele>
        <time>2010-01-02T08:06:56Z</time>
      </trkpt>
      <trkpt lat="53.904564706608653" lon="9.833957338705659">
        <ele>0</ele>
        <time>2010-01-02T08:07:02Z</time>
      </trkpt>
      <trkpt lat="53.904568897560239" lon="9.834380373358727">
        <ele>0</ele>
        <time>2010-01-02T08:07:12Z</time>
      </trkpt>
      <trkpt lat="53.904564874246716" lon="9.83470743522048">
        <ele>0</ele>
        <time>2010-01-02T08:07:20Z</time>
      </trkpt>
      <trkpt lat="53.90455624088645" lon="9.835562389343977">
        <ele>0</ele>
        <time>2010-01-02T08:07:40Z</time>
      </trkpt>
      <trkpt lat="53.904554983600974" lon="9.836899721994996">
        <ele>0</ele>
        <time>2010-01-02T08:08:12Z</time>
      </trkpt>
      <trkpt lat="53.904550960287452" lon="9.837094433605671">
        <ele>0</ele>
        <time>2010-01-02T08:08:16Z</time>
      </trkpt>
      <trkpt lat="53.904514582827687" lon="9.837279338389635">
        <ele>0</ele>
        <time>2010-01-02T08:08:21Z</time>
      </trkpt>
      <trkpt lat="53.904466638341546" lon="9.837450329214334">
        <ele>0</ele>
        <time>2010-01-02T08:08:25Z</time>
      </trkpt>
      <trkpt lat="53.904414838179946" lon="9.837663816288114">
        <ele>0</ele>
        <time>2010-01-02T08:08:31Z</time>
      </trkpt>
      <trkpt lat="53.904339736327529" lon="9.837996996939182">
        <ele>0</ele>
        <time>2010-01-02T08:08:39Z</time>
      </trkpt>
      <trkpt lat="53.904318111017346" lon="9.838144183158875">
        <ele>0</ele>
        <time>2010-01-02T08:08:43Z</time>
      </trkpt>
      <trkpt lat="53.904315093532205" lon="9.838308468461037">
        <ele>0</ele>
        <time>2010-01-02T08:08:47Z</time>
      </trkpt>
      <trkpt lat="53.904340239241719" lon="9.838576689362526">
        <ele>0</ele>
        <time>2010-01-02T08:08:53Z</time>
      </trkpt>
      <trkpt lat="53.904416179284453" lon="9.838887155056">
        <ele>0</ele>
        <time>2010-01-02T08:09:01Z</time>
      </trkpt>
      <trkpt lat="53.904477450996637" lon="9.839121177792549">
        <ele>0</ele>
        <time>2010-01-02T08:09:07Z</time>
      </trkpt>
      <trkpt lat="53.904518187046051" lon="9.839335000142455">
        <ele>0</ele>
        <time>2010-01-02T08:09:12Z</time>
      </trkpt>
      <trkpt lat="53.904521455988288" lon="9.839639347046614">
        <ele>0</ele>
        <time>2010-01-02T08:09:20Z</time>
      </trkpt>
      <trkpt lat="53.90448197722435" lon="9.840015862137079">
        <ele>0</ele>
        <time>2010-01-02T08:09:29Z</time>
      </trkpt>
      <trkpt lat="53.90438131056726" lon="9.840537300333381">
        <ele>0</ele>
        <time>2010-01-02T08:09:42Z</time>
      </trkpt>
      <trkpt lat="53.904316434636712" lon="9.840817423537374">
        <ele>0</ele>
        <time>2010-01-02T08:09:49Z</time>
      </trkpt>
      <trkpt lat="53.904295144602656" lon="9.840909792110324">
        <ele>0</ele>
        <time>2010-01-02T08:09:51Z</time>
      </trkpt>
      <trkpt lat="53.904193807393312" lon="9.841269878670573">
        <ele>0</ele>
        <time>2010-01-02T08:10:00Z</time>
      </trkpt>
      <trkpt lat="53.904108563438058" lon="9.841630300506949">
        <ele>0</ele>
        <time>2010-01-02T08:10:10Z</time>
      </trkpt>
      <trkpt lat="53.904062798246741" lon="9.842003714293242">
        <ele>0</ele>
        <time>2010-01-02T08:10:19Z</time>
      </trkpt>
      <trkpt lat="53.904008232057095" lon="9.842490954324603">
        <ele>0</ele>
        <time>2010-01-02T08:10:30Z</time>
      </trkpt>
      <trkpt lat="53.90396062284708" lon="9.843129068613052">
        <ele>0</ele>
        <time>2010-01-02T08:10:45Z</time>
      </trkpt>
      <trkpt lat="53.90396011993289" lon="9.843702642247081">
        <ele>0</ele>
        <time>2010-01-02T08:10:59Z</time>
      </trkpt>
      <trkpt lat="53.903985768556595" lon="9.844270683825016">
        <ele>0</ele>
        <time>2010-01-02T08:11:12Z</time>
      </trkpt>
      <trkpt lat="53.90404662117362" lon="9.844697993248701">
        <ele>0</ele>
        <time>2010-01-02T08:11:23Z</time>
      </trkpt>
      <trkpt lat="53.904087524861097" lon="9.845012230798602">
        <ele>0</ele>
        <time>2010-01-02T08:11:30Z</time>
      </trkpt>
      <trkpt lat="53.904081238433719" lon="9.845142904669046">
        <ele>0</ele>
        <time>2010-01-02T08:11:33Z</time>
      </trkpt>
      <trkpt lat="53.904067324474454" lon="9.845320684835315">
        <ele>0</ele>
        <time>2010-01-02T08:11:38Z</time>
      </trkpt>
      <trkpt lat="53.904018374159932" lon="9.845642214640975">
        <ele>0</ele>
        <time>2010-01-02T08:11:45Z</time>
      </trkpt>
      <trkpt lat="53.903986187651753" lon="9.846005234867334">
        <ele>0</ele>
        <time>2010-01-02T08:11:54Z</time>
      </trkpt>
      <trkpt lat="53.90397428534925" lon="9.846415780484676">
        <ele>0</ele>
        <time>2010-01-02T08:12:04Z</time>
      </trkpt>
      <trkpt lat="53.903988283127546" lon="9.846852729097009">
        <ele>0</ele>
        <time>2010-01-02T08:12:14Z</time>
      </trkpt>
      <trkpt lat="53.904004041105509" lon="9.847414484247565">
        <ele>0</ele>
        <time>2010-01-02T08:12:27Z</time>
      </trkpt>
      <trkpt lat="53.904036479070783" lon="9.848930602893233">
        <ele>0</ele>
        <time>2010-01-02T08:13:03Z</time>
      </trkpt>
      <trkpt lat="53.904077550396323" lon="9.849985800683498">
        <ele>0</ele>
        <time>2010-01-02T08:13:28Z</time>
      </trkpt>
      <trkpt lat="53.904113089665771" lon="9.850552584975958">
        <ele>0</ele>
        <time>2010-01-02T08:13:42Z</time>
      </trkpt>
      <trkpt lat="53.904124572873116" lon="9.85095139592886">
        <ele>0</ele>
        <time>2010-01-02T08:13:51Z</time>
      </trkpt>
      <trkpt lat="53.904126835986972" lon="9.851019959896803">
        <ele>0</ele>
        <time>2010-01-02T08:13:53Z</time>
      </trkpt>
      <trkpt lat="53.904131362214684" lon="9.85113563016057">
        <ele>0</ele>
        <time>2010-01-02T08:13:55Z</time>
      </trkpt>
      <trkpt lat="53.904160782694817" lon="9.851641226559877">
        <ele>0</ele>
        <time>2010-01-02T08:14:07Z</time>
      </trkpt>
      <trkpt lat="53.904194561764598" lon="9.85219694674015">
        <ele>0</ele>
        <time>2010-01-02T08:14:20Z</time>
      </trkpt>
      <trkpt lat="53.904222222045064" lon="9.853077884763479">
        <ele>0</ele>
        <time>2010-01-02T08:14:41Z</time>
      </trkpt>
      <trkpt lat="53.904226999729872" lon="9.853473594412208">
        <ele>0</ele>
        <time>2010-01-02T08:14:51Z</time>
      </trkpt>
      <trkpt lat="53.904189867898822" lon="9.853657074272633">
        <ele>0</ele>
        <time>2010-01-02T08:14:55Z</time>
      </trkpt>
      <trkpt lat="53.904258599504828" lon="9.854329135268927">
        <ele>0</ele>
        <time>2010-01-02T08:15:11Z</time>
      </trkpt>
      <trkpt lat="53.904280140995979" lon="9.85449543222785">
        <ele>0</ele>
        <time>2010-01-02T08:15:15Z</time>
      </trkpt>
      <trkpt lat="53.904350968077779" lon="9.855147628113627">
        <ele>0</ele>
        <time>2010-01-02T08:15:31Z</time>
      </trkpt>
      <trkpt lat="53.904421292245388" lon="9.855869980528951">
        <ele>0</ele>
        <time>2010-01-02T08:15:48Z</time>
      </trkpt>
      <trkpt lat="53.904510140419006" lon="9.856653856113553">
        <ele>0</ele>
        <time>2010-01-02T08:16:07Z</time>
      </trkpt>
      <trkpt lat="53.904556073248386" lon="9.857094828039408">
        <ele>0</ele>
        <time>2010-01-02T08:16:18Z</time>
      </trkpt>
      <trkpt lat="53.904732931405306" lon="9.858743967488408">
        <ele>0</ele>
        <time>2010-01-02T08:16:57Z</time>
      </trkpt>
      <trkpt lat="53.904739888384938" lon="9.858801970258355">
        <ele>0</ele>
        <time>2010-01-02T08:16:59Z</time>
      </trkpt>
      <trkpt lat="53.9047971367836" lon="9.85928107984364">
        <ele>0</ele>
        <time>2010-01-02T08:17:10Z</time>
      </trkpt>
      <trkpt lat="53.904926385730505" lon="9.860446667298675">
        <ele>0</ele>
        <time>2010-01-02T08:17:38Z</time>
      </trkpt>
      <trkpt lat="53.904981454834342" lon="9.860943043604493">
        <ele>0</ele>
        <time>2010-01-02T08:17:50Z</time>
      </trkpt>
      <trkpt lat="53.905102238059044" lon="9.861968150362372">
        <ele>0</ele>
        <time>2010-01-02T08:18:15Z</time>
      </trkpt>
      <trkpt lat="53.905162839218974" lon="9.862460251897573">
        <ele>0</ele>
        <time>2010-01-02T08:18:26Z</time>
      </trkpt>
      <trkpt lat="53.905232660472393" lon="9.862716821953654">
        <ele>0</ele>
        <time>2010-01-02T08:18:33Z</time>
      </trkpt>
      <trkpt lat="53.905325699597597" lon="9.862903654575348">
        <ele>0</ele>
        <time>2010-01-02T08:18:39Z</time>
      </trkpt>
      <trkpt lat="53.905383870005608" lon="9.863074980676174">
        <ele>0</ele>
        <time>2010-01-02T08:18:44Z</time>
      </trkpt>
      <trkpt lat="53.905577743425965" lon="9.863603878766298">
        <ele>0</ele>
        <time>2010-01-02T08:18:58Z</time>
      </trkpt>
      <trkpt lat="53.905669692903757" lon="9.8639508895576">
        <ele>0</ele>
        <time>2010-01-02T08:19:07Z</time>
      </trkpt>
      <trkpt lat="53.905771616846323" lon="9.864335618913174">
        <ele>0</ele>
        <time>2010-01-02T08:19:17Z</time>
      </trkpt>
      <trkpt lat="53.905840516090393" lon="9.864851105958223">
        <ele>0</ele>
        <time>2010-01-02T08:19:30Z</time>
      </trkpt>
      <trkpt lat="53.90583255328238" lon="9.865132737904787">
        <ele>0</ele>
        <time>2010-01-02T08:19:36Z</time>
      </trkpt>
      <trkpt lat="53.905933136120439" lon="9.865330467000604">
        <ele>0</ele>
        <time>2010-01-02T08:19:42Z</time>
      </trkpt>
      <trkpt lat="53.906030030921102" lon="9.865813264623284">
        <ele>0</ele>
        <time>2010-01-02T08:19:54Z</time>
      </trkpt>
      <trkpt lat="53.90603237785399" lon="9.8658262565732">
        <ele>0</ele>
        <time>2010-01-02T08:19:55Z</time>
      </trkpt>
      <trkpt lat="53.906040675938129" lon="9.866324895992875">
        <ele>0</ele>
        <time>2010-01-02T08:20:07Z</time>
      </trkpt>
      <trkpt lat="53.906020643189549" lon="9.867847552523017">
        <ele>0</ele>
        <time>2010-01-02T08:20:42Z</time>
      </trkpt>
      <trkpt lat="53.906025169417262" lon="9.868094148114324">
        <ele>0</ele>
        <time>2010-01-02T08:20:48Z</time>
      </trkpt>
      <trkpt lat="53.906032126396894" lon="9.868502095341682">
        <ele>0</ele>
        <time>2010-01-02T08:20:58Z</time>
      </trkpt>
      <trkpt lat="53.906074455007911" lon="9.868735782802105">
        <ele>0</ele>
        <time>2010-01-02T08:21:04Z</time>
      </trkpt>
      <trkpt lat="53.906202279031277" lon="9.86881909891963">
        <ele>0</ele>
        <time>2010-01-02T08:21:09Z</time>
      </trkpt>
      <trkpt lat="53.906424315646291" lon="9.868816081434488">
        <ele>0</ele>
        <time>2010-01-02T08:21:18Z</time>
      </trkpt>
      <trkpt lat="53.906599497422576" lon="9.868813650682569">
        <ele>0</ele>
        <time>2010-01-02T08:21:25Z</time>
      </trkpt>
      <trkpt lat="53.906842740252614" lon="9.868839969858527">
        <ele>0</ele>
        <time>2010-01-02T08:21:35Z</time>
      </trkpt>
      <trkpt lat="53.907089671120048" lon="9.868983635678887">
        <ele>0</ele>
        <time>2010-01-02T08:21:45Z</time>
      </trkpt>
      <trkpt lat="53.907735664397478" lon="9.869362246245146">
        <ele>0</ele>
        <time>2010-01-02T08:22:13Z</time>
      </trkpt>
      <trkpt lat="53.908555749803782" lon="9.869834566488862">
        <ele>0</ele>
        <time>2010-01-02T08:22:47Z</time>
      </trkpt>
      <trkpt lat="53.908619536086917" lon="9.86988041549921">
        <ele>0</ele>
        <time>2010-01-02T08:22:50Z</time>
      </trkpt>
      <trkpt lat="53.909007450565696" lon="9.870172273367643">
        <ele>0</ele>
        <time>2010-01-02T08:23:07Z</time>
      </trkpt>
      <trkpt lat="53.909067213535309" lon="9.870213009417057">
        <ele>0</ele>
        <time>2010-01-02T08:23:10Z</time>
      </trkpt>
      <trkpt lat="53.909363262355328" lon="9.870414091274142">
        <ele>0</ele>
        <time>2010-01-02T08:23:22Z</time>
      </trkpt>
      <trkpt lat="53.909397292882204" lon="9.870428424328566">
        <ele>0</ele>
        <time>2010-01-02T08:23:24Z</time>
      </trkpt>
      <trkpt lat="53.909416571259499" lon="9.870436135679483">
        <ele>0</ele>
        <time>2010-01-02T08:23:25Z</time>
      </trkpt>
      <trkpt lat="53.909460911527276" lon="9.870454156771302">
        <ele>0</ele>
        <time>2010-01-02T08:23:26Z</time>
      </trkpt>
      <trkpt lat="53.909495864063501" lon="9.870468573644757">
        <ele>0</ele>
        <time>2010-01-02T08:23:28Z</time>
      </trkpt>
      <trkpt lat="53.909512795507908" lon="9.870473183691502">
        <ele>0</ele>
        <time>2010-01-02T08:23:29Z</time>
      </trkpt>
      <trkpt lat="53.909598710015416" lon="9.870496401563287">
        <ele>0</ele>
        <time>2010-01-02T08:23:32Z</time>
      </trkpt>
      <trkpt lat="53.910215869545937" lon="9.870663117617369">
        <ele>0</ele>
        <time>2010-01-02T08:23:57Z</time>
      </trkpt>
      <trkpt lat="53.910893797874451" lon="9.870847016572952">
        <ele>0</ele>
        <time>2010-01-02T08:24:24Z</time>
      </trkpt>
      <trkpt lat="53.910993374884129" lon="9.870874509215355">
        <ele>0</ele>
        <time>2010-01-02T08:24:29Z</time>
      </trkpt>
      <trkpt lat="53.911777921020985" lon="9.871098892763257">
        <ele>0</ele>
        <time>2010-01-02T08:25:00Z</time>
      </trkpt>
      <trkpt lat="53.911855034530163" lon="9.871114231646061">
        <ele>0</ele>
        <time>2010-01-02T08:25:03Z</time>
      </trkpt>
      <trkpt lat="53.911934830248356" lon="9.871135605499148">
        <ele>0</ele>
        <time>2010-01-02T08:25:07Z</time>
      </trkpt>
      <trkpt lat="53.912066677585244" lon="9.871176425367594">
        <ele>0</ele>
        <time>2010-01-02T08:25:12Z</time>
      </trkpt>
      <trkpt lat="53.912346214056015" lon="9.871257310733199">
        <ele>0</ele>
        <time>2010-01-02T08:25:23Z</time>
      </trkpt>
      <trkpt lat="53.912487281486392" lon="9.871302656829357">
        <ele>0</ele>
        <time>2010-01-02T08:25:29Z</time>
      </trkpt>
      <trkpt lat="53.91253313049674" lon="9.871351858600974">
        <ele>0</ele>
        <time>2010-01-02T08:25:31Z</time>
      </trkpt>
      <trkpt lat="53.912563472986221" lon="9.871430229395628">
        <ele>0</ele>
        <time>2010-01-02T08:25:34Z</time>
      </trkpt>
      <trkpt lat="53.912696409970522" lon="9.871807415038347">
        <ele>0</ele>
        <time>2010-01-02T08:25:44Z</time>
      </trkpt>
      <trkpt lat="53.912770338356495" lon="9.872012855485082">
        <ele>0</ele>
        <time>2010-01-02T08:25:50Z</time>
      </trkpt>
      <trkpt lat="53.912943843752146" lon="9.872501939535141">
        <ele>0</ele>
        <time>2010-01-02T08:26:03Z</time>
      </trkpt>
      <trkpt lat="53.913116175681353" lon="9.872969733551145">
        <ele>0</ele>
        <time>2010-01-02T08:26:16Z</time>
      </trkpt>
      <trkpt lat="53.913334859535098" lon="9.873590748757124">
        <ele>0</ele>
        <time>2010-01-02T08:26:33Z</time>
      </trkpt>
      <trkpt lat="53.913470478728414" lon="9.873975478112698">
        <ele>0</ele>
        <time>2010-01-02T08:26:44Z</time>
      </trkpt>
      <trkpt lat="53.913575001060963" lon="9.874294493347406">
        <ele>0</ele>
        <time>2010-01-02T08:26:52Z</time>
      </trkpt>
      <trkpt lat="53.913603499531746" lon="9.874364482238889">
        <ele>0</ele>
        <time>2010-01-02T08:26:54Z</time>
      </trkpt>
      <trkpt lat="53.914036257192492" lon="9.87554993480444">
        <ele>0</ele>
        <time>2010-01-02T08:27:27Z</time>
      </trkpt>
      <trkpt lat="53.914261059835553" lon="9.876170866191387">
        <ele>0</ele>
        <time>2010-01-02T08:27:44Z</time>
      </trkpt>
      <trkpt lat="53.914656601846218" lon="9.877224639058113">
        <ele>0</ele>
        <time>2010-01-02T08:28:14Z</time>
      </trkpt>
      <trkpt lat="53.915060944855213" lon="9.878284949809313">
        <ele>0</ele>
        <time>2010-01-02T08:28:44Z</time>
      </trkpt>
      <trkpt lat="53.915423713624477" lon="9.87821202725172">
        <ele>0</ele>
        <time>2010-01-02T08:28:58Z</time>
      </trkpt>
      <trkpt lat="53.915595961734653" lon="9.878184786066413">
        <ele>0</ele>
        <time>2010-01-02T08:29:05Z</time>
      </trkpt>
      <trkpt lat="53.915687408298254" lon="9.878192916512489">
        <ele>0</ele>
        <time>2010-01-02T08:29:09Z</time>
      </trkpt>
      <trkpt lat="53.915799558162689" lon="9.878238346427679">
        <ele>0</ele>
        <time>2010-01-02T08:29:13Z</time>
      </trkpt>
      <trkpt lat="53.915968621149659" lon="9.878336247056723">
        <ele>0</ele>
        <time>2010-01-02T08:29:21Z</time>
      </trkpt>
      <trkpt lat="53.916122009977698" lon="9.878395339474082">
        <ele>0</ele>
        <time>2010-01-02T08:29:27Z</time>
      </trkpt>
      <trkpt lat="53.916209181770682" lon="9.878410594537854">
        <ele>0</ele>
        <time>2010-01-02T08:29:30Z</time>
      </trkpt>
      <trkpt lat="53.916281936690211" lon="9.878377905115485">
        <ele>0</ele>
        <time>2010-01-02T08:29:33Z</time>
      </trkpt>
      <trkpt lat="53.916640346869826" lon="9.878138853237033">
        <ele>0</ele>
        <time>2010-01-02T08:29:49Z</time>
      </trkpt>
      <trkpt lat="53.916806224733591" lon="9.878026032820344">
        <ele>0</ele>
        <time>2010-01-02T08:29:56Z</time>
      </trkpt>
      <trkpt lat="53.917019544169307" lon="9.87788806669414">
        <ele>0</ele>
        <time>2010-01-02T08:30:05Z</time>
      </trkpt>
      <trkpt lat="53.917682720348239" lon="9.877456063404679">
        <ele>0</ele>
        <time>2010-01-02T08:30:34Z</time>
      </trkpt>
      <trkpt lat="53.917907187715173" lon="9.877319354563951">
        <ele>0</ele>
        <time>2010-01-02T08:30:43Z</time>
      </trkpt>
      <trkpt lat="53.918297030031681" lon="9.877076111733913">
        <ele>0</ele>
        <time>2010-01-02T08:31:00Z</time>
      </trkpt>
      <trkpt lat="53.918263586238027" lon="9.877840541303158">
        <ele>0</ele>
        <time>2010-01-02T08:31:18Z</time>
      </trkpt>
      <trkpt lat="53.918211031705141" lon="9.878828851506114">
        <ele>0</ele>
        <time>2010-01-02T08:31:41Z</time>
      </trkpt>
      <trkpt lat="53.918211199343204" lon="9.879312571138144">
        <ele>0</ele>
        <time>2010-01-02T08:31:53Z</time>
      </trkpt>
      <trkpt lat="53.918214300647378" lon="9.879442658275366">
        <ele>0</ele>
        <time>2010-01-02T08:31:56Z</time>
      </trkpt>
      <trkpt lat="53.918223101645708" lon="9.879645835608244">
        <ele>0</ele>
        <time>2010-01-02T08:32:00Z</time>
      </trkpt>
      <trkpt lat="53.918233411386609" lon="9.879800565540791">
        <ele>0</ele>
        <time>2010-01-02T08:32:04Z</time>
      </trkpt>
      <trkpt lat="53.918259562924504" lon="9.880005083978176">
        <ele>0</ele>
        <time>2010-01-02T08:32:09Z</time>
      </trkpt>
      <trkpt lat="53.918318822979927" lon="9.880370702594519">
        <ele>0</ele>
        <time>2010-01-02T08:32:18Z</time>
      </trkpt>
      <trkpt lat="53.918393924832344" lon="9.880747636780143">
        <ele>0</ele>
        <time>2010-01-02T08:32:27Z</time>
      </trkpt>
      <trkpt lat="53.918414628133178" lon="9.880821565166116">
        <ele>0</ele>
        <time>2010-01-02T08:32:29Z</time>
      </trkpt>
      <trkpt lat="53.918474055826664" lon="9.881061622872949">
        <ele>0</ele>
        <time>2010-01-02T08:32:35Z</time>
      </trkpt>
      <trkpt lat="53.918580589815974" lon="9.881448028609157">
        <ele>0</ele>
        <time>2010-01-02T08:32:46Z</time>
      </trkpt>
      <trkpt lat="53.918620152398944" lon="9.881610302254558">
        <ele>0</ele>
        <time>2010-01-02T08:32:50Z</time>
      </trkpt>
      <trkpt lat="53.9186673425138" lon="9.881820939481258">
        <ele>0</ele>
        <time>2010-01-02T08:32:55Z</time>
      </trkpt>
      <trkpt lat="53.91873381100595" lon="9.882199969142675">
        <ele>0</ele>
        <time>2010-01-02T08:33:04Z</time>
      </trkpt>
      <trkpt lat="53.918783431872725" lon="9.882331900298595">
        <ele>0</ele>
        <time>2010-01-02T08:33:08Z</time>
      </trkpt>
      <trkpt lat="53.918841183185577" lon="9.882515128701925">
        <ele>0</ele>
        <time>2010-01-02T08:33:13Z</time>
      </trkpt>
      <trkpt lat="53.918969258666039" lon="9.883053917437792">
        <ele>0</ele>
        <time>2010-01-02T08:33:27Z</time>
      </trkpt>
      <trkpt lat="53.919026423245668" lon="9.883309314027429">
        <ele>0</ele>
        <time>2010-01-02T08:33:33Z</time>
      </trkpt>
      <trkpt lat="53.919047880917788" lon="9.883477371186018">
        <ele>0</ele>
        <time>2010-01-02T08:33:37Z</time>
      </trkpt>
      <trkpt lat="53.919154079630971" lon="9.883445352315903">
        <ele>0</ele>
        <time>2010-01-02T08:33:41Z</time>
      </trkpt>
      <trkpt lat="53.919241586700082" lon="9.8835404869169">
        <ele>0</ele>
        <time>2010-01-02T08:33:46Z</time>
      </trkpt>
      <trkpt lat="53.919302606955171" lon="9.883613577112556">
        <ele>0</ele>
        <time>2010-01-02T08:33:49Z</time>
      </trkpt>
      <trkpt lat="53.919229097664356" lon="9.883787417784333">
        <ele>0</ele>
        <time>2010-01-02T08:33:54Z</time>
      </trkpt>
      <trkpt lat="53.919367147609591" lon="9.88402864895761">
        <ele>0</ele>
        <time>2010-01-02T08:34:02Z</time>
      </trkpt>
      <trkpt lat="53.919449876993895" lon="9.884132416918874">
        <ele>0</ele>
        <time>2010-01-02T08:34:06Z</time>
      </trkpt>
      <trkpt lat="53.919526571407914" lon="9.884211625903845">
        <ele>0</ele>
        <time>2010-01-02T08:34:09Z</time>
      </trkpt>
      <trkpt lat="53.919576527550817" lon="9.884261414408684">
        <ele>0</ele>
        <time>2010-01-02T08:34:12Z</time>
      </trkpt>
      <trkpt lat="53.919659592211246" lon="9.88432863727212">
        <ele>0</ele>
        <time>2010-01-02T08:34:15Z</time>
      </trkpt>
      <trkpt lat="53.919630255550146" lon="9.88441321067512">
        <ele>0</ele>
        <time>2010-01-02T08:34:18Z</time>
      </trkpt>
      <trkpt lat="53.919617347419262" lon="9.884572802111506">
        <ele>0</ele>
        <time>2010-01-02T08:34:21Z</time>
      </trkpt>
      <trkpt lat="53.919616425409913" lon="9.884700626134872">
        <ele>0</ele>
        <time>2010-01-02T08:34:24Z</time>
      </trkpt>
      <trkpt lat="53.919650875031948" lon="9.884908329695463">
        <ele>0</ele>
        <time>2010-01-02T08:34:29Z</time>
      </trkpt>
      <trkpt lat="53.919667890295386" lon="9.885017042979598">
        <ele>0</ele>
        <time>2010-01-02T08:34:32Z</time>
      </trkpt>
      <trkpt lat="53.91971692442894" lon="9.88532985560596">
        <ele>0</ele>
        <time>2010-01-02T08:34:40Z</time>
      </trkpt>
      <trkpt lat="53.919754978269339" lon="9.885577959939837">
        <ele>0</ele>
        <time>2010-01-02T08:34:46Z</time>
      </trkpt>
      <trkpt lat="53.919812645763159" lon="9.885907787829638">
        <ele>0</ele>
        <time>2010-01-02T08:34:54Z</time>
      </trkpt>
      <trkpt lat="53.919879617169499" lon="9.886220684275031">
        <ele>0</ele>
        <time>2010-01-02T08:35:02Z</time>
      </trkpt>
      <trkpt lat="53.919974751770496" lon="9.886637767776847">
        <ele>0</ele>
        <time>2010-01-02T08:35:12Z</time>
      </trkpt>
      <trkpt lat="53.920131241902709" lon="9.887382751330733">
        <ele>0</ele>
        <time>2010-01-02T08:35:31Z</time>
      </trkpt>
      <trkpt lat="53.920222437009215" lon="9.887804863974452">
        <ele>0</ele>
        <time>2010-01-02T08:35:42Z</time>
      </trkpt>
      <trkpt lat="53.920267866924405" lon="9.888003012165427">
        <ele>0</ele>
        <time>2010-01-02T08:35:47Z</time>
      </trkpt>
      <trkpt lat="53.920271219685674" lon="9.888017429038882">
        <ele>0</ele>
        <time>2010-01-02T08:35:47Z</time>
      </trkpt>
      <trkpt lat="53.920423435047269" lon="9.888693429529667">
        <ele>0</ele>
        <time>2010-01-02T08:36:04Z</time>
      </trkpt>
      <trkpt lat="53.920545894652605" lon="9.889257699251175">
        <ele>0</ele>
        <time>2010-01-02T08:36:18Z</time>
      </trkpt>
      <trkpt lat="53.921113265678287" lon="9.889202797785401">
        <ele>0</ele>
        <time>2010-01-02T08:36:41Z</time>
      </trkpt>
      <trkpt lat="53.921466479077935" lon="9.889192068949342">
        <ele>0</ele>
        <time>2010-01-02T08:36:55Z</time>
      </trkpt>
      <trkpt lat="53.922157986089587" lon="9.889120571315289">
        <ele>0</ele>
        <time>2010-01-02T08:37:23Z</time>
      </trkpt>
      <trkpt lat="53.922029659152031" lon="9.888129495084286">
        <ele>0</ele>
        <time>2010-01-02T08:37:47Z</time>
      </trkpt>
      <trkpt lat="53.922127727419138" lon="9.88809110596776">
        <ele>0</ele>
        <time>2010-01-02T08:37:51Z</time>
      </trkpt>
      <trkpt lat="53.922711610794067" lon="9.887869823724031">
        <ele>0</ele>
        <time>2010-01-02T08:38:15Z</time>
      </trkpt>
      <trkpt lat="53.922783611342311" lon="9.887857669964433">
        <ele>0</ele>
        <time>2010-01-02T08:38:18Z</time>
      </trkpt>
      <trkpt lat="53.922879500314593" lon="9.887885581701994">
        <ele>0</ele>
        <time>2010-01-02T08:38:21Z</time>
      </trkpt>
      <trkpt lat="53.922913614660501" lon="9.887903351336718">
        <ele>0</ele>
        <time>2010-01-02T08:38:23Z</time>
      </trkpt>
      <trkpt lat="53.922980586066842" lon="9.888002257794142">
        <ele>0</ele>
        <time>2010-01-02T08:38:26Z</time>
      </trkpt>
      <trkpt lat="53.923033140599728" lon="9.888129075989127">
        <ele>0</ele>
        <time>2010-01-02T08:38:30Z</time>
      </trkpt>
      <trkpt lat="53.923382414504886" lon="9.889533463865519">
        <ele>0</ele>
        <time>2010-01-02T08:39:06Z</time>
      </trkpt>
      <trkpt lat="53.923694808036089" lon="9.890727382153273">
        <ele>0</ele>
        <time>2010-01-02T08:39:37Z</time>
      </trkpt>
      <trkpt lat="53.923781141638756" lon="9.891098365187645">
        <ele>0</ele>
        <time>2010-01-02T08:39:46Z</time>
      </trkpt>
      <trkpt lat="53.923847945407033" lon="9.891419475898147">
        <ele>0</ele>
        <time>2010-01-02T08:39:54Z</time>
      </trkpt>
      <trkpt lat="53.924001585692167" lon="9.892148869112134">
        <ele>0</ele>
        <time>2010-01-02T08:40:13Z</time>
      </trkpt>
      <trkpt lat="53.92404424957931" lon="9.892446594312787">
        <ele>0</ele>
        <time>2010-01-02T08:40:20Z</time>
      </trkpt>
      <trkpt lat="53.924055062234402" lon="9.892690423876047">
        <ele>0</ele>
        <time>2010-01-02T08:40:26Z</time>
      </trkpt>
      <trkpt lat="53.92406621016562" lon="9.892880944535136">
        <ele>0</ele>
        <time>2010-01-02T08:40:30Z</time>
      </trkpt>
      <trkpt lat="53.924067886546254" lon="9.8931366764009">
        <ele>0</ele>
        <time>2010-01-02T08:40:36Z</time>
      </trkpt>
      <trkpt lat="53.92406134866178" lon="9.89365560002625">
        <ele>0</ele>
        <time>2010-01-02T08:40:48Z</time>
      </trkpt>
      <trkpt lat="53.924053385853767" lon="9.894001018255949">
        <ele>0</ele>
        <time>2010-01-02T08:40:56Z</time>
      </trkpt>
      <trkpt lat="53.924047267064452" lon="9.894463615491986">
        <ele>0</ele>
        <time>2010-01-02T08:41:07Z</time>
      </trkpt>
      <trkpt lat="53.924040980637074" lon="9.894824288785458">
        <ele>0</ele>
        <time>2010-01-02T08:41:16Z</time>
      </trkpt>
      <trkpt lat="53.9240378793329" lon="9.895117990672588">
        <ele>0</ele>
        <time>2010-01-02T08:41:23Z</time>
      </trkpt>
      <trkpt lat="53.92405204474926" lon="9.895265931263566">
        <ele>0</ele>
        <time>2010-01-02T08:41:26Z</time>
      </trkpt>
      <trkpt lat="53.924066461622715" lon="9.895374393090606">
        <ele>0</ele>
        <time>2010-01-02T08:41:29Z</time>
      </trkpt>
      <trkpt lat="53.924112981185317" lon="9.895527614280581">
        <ele>0</ele>
        <time>2010-01-02T08:41:33Z</time>
      </trkpt>
      <trkpt lat="53.924169559031725" lon="9.895650576800108">
        <ele>0</ele>
        <time>2010-01-02T08:41:37Z</time>
      </trkpt>
      <trkpt lat="53.924249522387981" lon="9.895771024748683">
        <ele>0</ele>
        <time>2010-01-02T08:41:41Z</time>
      </trkpt>
      <trkpt lat="53.924326132982969" lon="9.895860962569714">
        <ele>0</ele>
        <time>2010-01-02T08:41:45Z</time>
      </trkpt>
      <trkpt lat="53.92440726980567" lon="9.895940339192748">
        <ele>0</ele>
        <time>2010-01-02T08:41:48Z</time>
      </trkpt>
      <trkpt lat="53.924517659470439" lon="9.896082747727633">
        <ele>0</ele>
        <time>2010-01-02T08:41:54Z</time>
      </trkpt>
      <trkpt lat="53.924656715244055" lon="9.896231861785054">
        <ele>0</ele>
        <time>2010-01-02T08:42:01Z</time>
      </trkpt>
      <trkpt lat="53.92474883235991" lon="9.896401260048151">
        <ele>0</ele>
        <time>2010-01-02T08:42:06Z</time>
      </trkpt>
      <trkpt lat="53.924847152084112" lon="9.89659370854497">
        <ele>0</ele>
        <time>2010-01-02T08:42:12Z</time>
      </trkpt>
      <trkpt lat="53.924925774335861" lon="9.896776517853141">
        <ele>0</ele>
        <time>2010-01-02T08:42:17Z</time>
      </trkpt>
      <trkpt lat="53.925053765997291" lon="9.897076087072492">
        <ele>0</ele>
        <time>2010-01-02T08:42:26Z</time>
      </trkpt>
      <trkpt lat="53.92530245706439" lon="9.897586796432734">
        <ele>0</ele>
        <time>2010-01-02T08:42:42Z</time>
      </trkpt>
      <trkpt lat="53.92552575096488" lon="9.898001113906503">
        <ele>0</ele>
        <time>2010-01-02T08:42:55Z</time>
      </trkpt>
      <trkpt lat="53.925701687112451" lon="9.898269753903151">
        <ele>0</ele>
        <time>2010-01-02T08:43:04Z</time>
      </trkpt>
      <trkpt lat="53.925899835303426" lon="9.898564796894789">
        <ele>0</ele>
        <time>2010-01-02T08:43:15Z</time>
      </trkpt>
      <trkpt lat="53.926087338477373" lon="9.898838298395276">
        <ele>0</ele>
        <time>2010-01-02T08:43:25Z</time>
      </trkpt>
      <trkpt lat="53.92640920355916" lon="9.899285137653351">
        <ele>0</ele>
        <time>2010-01-02T08:43:41Z</time>
      </trkpt>
      <trkpt lat="53.926555467769504" lon="9.899515472352505">
        <ele>0</ele>
        <time>2010-01-02T08:43:49Z</time>
      </trkpt>
      <trkpt lat="53.926757806912065" lon="9.899834152311087">
        <ele>0</ele>
        <time>2010-01-02T08:44:01Z</time>
      </trkpt>
      <trkpt lat="53.927219901233912" lon="9.900569245219231">
        <ele>0</ele>
        <time>2010-01-02T08:44:26Z</time>
      </trkpt>
      <trkpt lat="53.927463311702013" lon="9.900941317901015">
        <ele>0</ele>
        <time>2010-01-02T08:44:39Z</time>
      </trkpt>
      <trkpt lat="53.927476136013865" lon="9.900960931554437">
        <ele>0</ele>
        <time>2010-01-02T08:44:40Z</time>
      </trkpt>
      <trkpt lat="53.92763027921319" lon="9.901197636500001">
        <ele>0</ele>
        <time>2010-01-02T08:44:48Z</time>
      </trkpt>
      <trkpt lat="53.927860194817185" lon="9.901569541543722">
        <ele>0</ele>
        <time>2010-01-02T08:45:01Z</time>
      </trkpt>
      <trkpt lat="53.928145347163081" lon="9.902004981413484">
        <ele>0</ele>
        <time>2010-01-02T08:45:16Z</time>
      </trkpt>
      <trkpt lat="53.928157752379775" lon="9.902026271447539">
        <ele>0</ele>
        <time>2010-01-02T08:45:17Z</time>
      </trkpt>
      <trkpt lat="53.928352883085608" lon="9.902361128479242">
        <ele>0</ele>
        <time>2010-01-02T08:45:28Z</time>
      </trkpt>
      <trkpt lat="53.928537955507636" lon="9.902728926390409">
        <ele>0</ele>
        <time>2010-01-02T08:45:39Z</time>
      </trkpt>
      <trkpt lat="53.928705928847194" lon="9.903093371540308">
        <ele>0</ele>
        <time>2010-01-02T08:45:50Z</time>
      </trkpt>
      <trkpt lat="53.928730487823486" lon="9.903160007670522">
        <ele>0</ele>
        <time>2010-01-02T08:45:52Z</time>
      </trkpt>
      <trkpt lat="53.92897448502481" lon="9.903820836916566">
        <ele>0</ele>
        <time>2010-01-02T08:46:10Z</time>
      </trkpt>
      <trkpt lat="53.92915234901011" lon="9.904302712529898">
        <ele>0</ele>
        <time>2010-01-02T08:46:24Z</time>
      </trkpt>
      <trkpt lat="53.929169364273548" lon="9.904348896816373">
        <ele>0</ele>
        <time>2010-01-02T08:46:25Z</time>
      </trkpt>
      <trkpt lat="53.929388299584389" lon="9.904939653351903">
        <ele>0</ele>
        <time>2010-01-02T08:46:42Z</time>
      </trkpt>
      <trkpt lat="53.929514531046152" lon="9.905236205086112">
        <ele>0</ele>
        <time>2010-01-02T08:46:50Z</time>
      </trkpt>
      <trkpt lat="53.929697843268514" lon="9.90563970990479">
        <ele>0</ele>
        <time>2010-01-02T08:47:02Z</time>
      </trkpt>
      <trkpt lat="53.929727515205741" lon="9.90570517256856">
        <ele>0</ele>
        <time>2010-01-02T08:47:04Z</time>
      </trkpt>
      <trkpt lat="53.929915772750974" lon="9.906127955764532">
        <ele>0</ele>
        <time>2010-01-02T08:47:17Z</time>
      </trkpt>
      <trkpt lat="53.929955335333943" lon="9.906221916899085">
        <ele>0</ele>
        <time>2010-01-02T08:47:19Z</time>
      </trkpt>
      <trkpt lat="53.930091792717576" lon="9.906492568552494">
        <ele>0</ele>
        <time>2010-01-02T08:47:28Z</time>
      </trkpt>
      <trkpt lat="53.930227579548955" lon="9.906713180243969">
        <ele>0</ele>
        <time>2010-01-02T08:47:35Z</time>
      </trkpt>
      <trkpt lat="53.930379878729582" lon="9.906891630962491">
        <ele>0</ele>
        <time>2010-01-02T08:47:43Z</time>
      </trkpt>
      <trkpt lat="53.930528154596686" lon="9.907010570168495">
        <ele>0</ele>
        <time>2010-01-02T08:47:49Z</time>
      </trkpt>
      <trkpt lat="53.930637119337916" lon="9.907092042267323">
        <ele>0</ele>
        <time>2010-01-02T08:47:54Z</time>
      </trkpt>
      <trkpt lat="53.930961331352592" lon="9.907228499650955">
        <ele>0</ele>
        <time>2010-01-02T08:48:07Z</time>
      </trkpt>
      <trkpt lat="53.93128328025341" lon="9.907310139387846">
        <ele>0</ele>
        <time>2010-01-02T08:48:20Z</time>
      </trkpt>
      <trkpt lat="53.932220377027988" lon="9.907549694180489">
        <ele>0</ele>
        <time>2010-01-02T08:48:58Z</time>
      </trkpt>
      <trkpt lat="53.932468732818961" lon="9.907612977549434">
        <ele>0</ele>
        <time>2010-01-02T08:49:08Z</time>
      </trkpt>
      <trkpt lat="53.932749358937144" lon="9.90770123898983">
        <ele>0</ele>
        <time>2010-01-02T08:49:20Z</time>
      </trkpt>
      <trkpt lat="53.93301154486835" lon="9.907836355268955">
        <ele>0</ele>
        <time>2010-01-02T08:49:31Z</time>
      </trkpt>
      <trkpt lat="53.933246657252312" lon="9.907995276153088">
        <ele>0</ele>
        <time>2010-01-02T08:49:41Z</time>
      </trkpt>
      <trkpt lat="53.933500545099378" lon="9.908166769891977">
        <ele>0</ele>
        <time>2010-01-02T08:49:52Z</time>
      </trkpt>
      <trkpt lat="53.934249049052596" lon="9.908682256937027">
        <ele>0</ele>
        <time>2010-01-02T08:50:24Z</time>
      </trkpt>
      <trkpt lat="53.934480557218194" lon="9.908843692392111">
        <ele>0</ele>
        <time>2010-01-02T08:50:34Z</time>
      </trkpt>
      <trkpt lat="53.934772750362754" lon="9.909089198336005">
        <ele>0</ele>
        <time>2010-01-02T08:50:47Z</time>
      </trkpt>
      <trkpt lat="53.935081204399467" lon="9.909359933808446">
        <ele>0</ele>
        <time>2010-01-02T08:51:01Z</time>
      </trkpt>
      <trkpt lat="53.935418827459216" lon="9.909659335389733">
        <ele>0</ele>
        <time>2010-01-02T08:51:16Z</time>
      </trkpt>
      <trkpt lat="53.935639522969723" lon="9.909863015636802">
        <ele>0</ele>
        <time>2010-01-02T08:51:26Z</time>
      </trkpt>
      <trkpt lat="53.935883436352015" lon="9.910159902647138">
        <ele>0</ele>
        <time>2010-01-02T08:51:38Z</time>
      </trkpt>
      <trkpt lat="53.936082506552339" lon="9.910448994487524">
        <ele>0</ele>
        <time>2010-01-02T08:51:49Z</time>
      </trkpt>
      <trkpt lat="53.936124751344323" lon="9.910520743578672">
        <ele>0</ele>
        <time>2010-01-02T08:51:51Z</time>
      </trkpt>
      <trkpt lat="53.9361587818712" lon="9.910578578710556">
        <ele>0</ele>
        <time>2010-01-02T08:51:53Z</time>
      </trkpt>
      <trkpt lat="53.936578799039125" lon="9.91147393360734">
        <ele>0</ele>
        <time>2010-01-02T08:52:20Z</time>
      </trkpt>
      <trkpt lat="53.936711484566331" lon="9.911739807575941">
        <ele>0</ele>
        <time>2010-01-02T08:52:28Z</time>
      </trkpt>
      <trkpt lat="53.936855653300881" lon="9.912068629637361">
        <ele>0</ele>
        <time>2010-01-02T08:52:38Z</time>
      </trkpt>
      <trkpt lat="53.937175590544939" lon="9.912776565179229">
        <ele>0</ele>
        <time>2010-01-02T08:52:59Z</time>
      </trkpt>
      <trkpt lat="53.937442386522889" lon="9.913378972560167">
        <ele>0</ele>
        <time>2010-01-02T08:53:17Z</time>
      </trkpt>
      <trkpt lat="53.937910348176956" lon="9.914420591667295">
        <ele>0</ele>
        <time>2010-01-02T08:53:48Z</time>
      </trkpt>
      <trkpt lat="53.938309829682112" lon="9.915225673466921">
        <ele>0</ele>
        <time>2010-01-02T08:54:13Z</time>
      </trkpt>
      <trkpt lat="53.938520299270749" lon="9.915561703965068">
        <ele>0</ele>
        <time>2010-01-02T08:54:24Z</time>
      </trkpt>
      <trkpt lat="53.938810229301453" lon="9.915945678949356">
        <ele>0</ele>
        <time>2010-01-02T08:54:39Z</time>
      </trkpt>
      <trkpt lat="53.939043246209621" lon="9.916277602314949">
        <ele>0</ele>
        <time>2010-01-02T08:54:51Z</time>
      </trkpt>
      <trkpt lat="53.939475920051336" lon="9.916842626407743">
        <ele>0</ele>
        <time>2010-01-02T08:55:13Z</time>
      </trkpt>
      <trkpt lat="53.939817566424608" lon="9.917287118732929">
        <ele>0</ele>
        <time>2010-01-02T08:55:30Z</time>
      </trkpt>
      <trkpt lat="53.940064832568169" lon="9.917609319090843">
        <ele>0</ele>
        <time>2010-01-02T08:55:43Z</time>
      </trkpt>
      <trkpt lat="53.940186789259315" lon="9.917762707918882">
        <ele>0</ele>
        <time>2010-01-02T08:55:49Z</time>
      </trkpt>
      <trkpt lat="53.940524077042937" lon="9.918187418952584">
        <ele>0</ele>
        <time>2010-01-02T08:56:05Z</time>
      </trkpt>
      <trkpt lat="53.940856754779816" lon="9.918624199926853">
        <ele>0</ele>
        <time>2010-01-02T08:56:22Z</time>
      </trkpt>
      <trkpt lat="53.941197479143739" lon="9.919070284813643">
        <ele>0</ele>
        <time>2010-01-02T08:56:40Z</time>
      </trkpt>
      <trkpt lat="53.941589165478945" lon="9.919546376913786">
        <ele>0</ele>
        <time>2010-01-02T08:56:59Z</time>
      </trkpt>
      <trkpt lat="53.942049918696284" lon="9.92015196941793">
        <ele>0</ele>
        <time>2010-01-02T08:57:22Z</time>
      </trkpt>
      <trkpt lat="53.942389637231827" lon="9.920601155608892">
        <ele>0</ele>
        <time>2010-01-02T08:57:39Z</time>
      </trkpt>
      <trkpt lat="53.942597676068544" lon="9.920895025134087">
        <ele>0</ele>
        <time>2010-01-02T08:57:50Z</time>
      </trkpt>
      <trkpt lat="53.942911913618445" lon="9.921275060623884">
        <ele>0</ele>
        <time>2010-01-02T08:58:06Z</time>
      </trkpt>
      <trkpt lat="53.943116683512926" lon="9.921520231291652">
        <ele>0</ele>
        <time>2010-01-02T08:58:16Z</time>
      </trkpt>
      <trkpt lat="53.943220283836126" lon="9.921712931245565">
        <ele>0</ele>
        <time>2010-01-02T08:58:22Z</time>
      </trkpt>
      <trkpt lat="53.94332748837769" lon="9.921913258731365">
        <ele>0</ele>
        <time>2010-01-02T08:58:28Z</time>
      </trkpt>
      <trkpt lat="53.943668883293867" lon="9.922622870653868">
        <ele>0</ele>
        <time>2010-01-02T08:58:50Z</time>
      </trkpt>
      <trkpt lat="53.943886393681169" lon="9.923080019652843">
        <ele>0</ele>
        <time>2010-01-02T08:59:04Z</time>
      </trkpt>
      <trkpt lat="53.943963926285505" lon="9.923275150358677">
        <ele>0</ele>
        <time>2010-01-02T08:59:09Z</time>
      </trkpt>
      <trkpt lat="53.944232147186995" lon="9.923957102000713">
        <ele>0</ele>
        <time>2010-01-02T08:59:28Z</time>
      </trkpt>
      <trkpt lat="53.944414705038071" lon="9.924455909058452">
        <ele>0</ele>
        <time>2010-01-02T08:59:42Z</time>
      </trkpt>
      <trkpt lat="53.944945111870766" lon="9.926031790673733">
        <ele>0</ele>
        <time>2010-01-02T09:00:25Z</time>
      </trkpt>
      <trkpt lat="53.945191288366914" lon="9.926851205527782">
        <ele>0</ele>
        <time>2010-01-02T09:00:47Z</time>
      </trkpt>
      <trkpt lat="53.945358842611313" lon="9.927441542968154">
        <ele>0</ele>
        <time>2010-01-02T09:01:02Z</time>
      </trkpt>
      <trkpt lat="53.945427658036351" lon="9.927702471613884">
        <ele>0</ele>
        <time>2010-01-02T09:01:09Z</time>
      </trkpt>
      <trkpt lat="53.945768298581243" lon="9.929051036015153">
        <ele>0</ele>
        <time>2010-01-02T09:01:44Z</time>
      </trkpt>
      <trkpt lat="53.94590743817389" lon="9.929494941607118">
        <ele>0</ele>
        <time>2010-01-02T09:01:55Z</time>
      </trkpt>
      <trkpt lat="53.946081111207604" lon="9.930004728958011">
        <ele>0</ele>
        <time>2010-01-02T09:02:09Z</time>
      </trkpt>
      <trkpt lat="53.946241205558181" lon="9.930451065301895">
        <ele>0</ele>
        <time>2010-01-02T09:02:22Z</time>
      </trkpt>
      <trkpt lat="53.946476066485047" lon="9.931109799072146">
        <ele>0</ele>
        <time>2010-01-02T09:02:40Z</time>
      </trkpt>
      <trkpt lat="53.946644123643637" lon="9.931535180658102">
        <ele>0</ele>
        <time>2010-01-02T09:02:52Z</time>
      </trkpt>
      <trkpt lat="53.946792483329773" lon="9.931896859779954">
        <ele>0</ele>
        <time>2010-01-02T09:03:02Z</time>
      </trkpt>
      <trkpt lat="53.946898011490703" lon="9.932139096781611">
        <ele>0</ele>
        <time>2010-01-02T09:03:09Z</time>
      </trkpt>
      <trkpt lat="53.947020554915071" lon="9.932337999343872">
        <ele>0</ele>
        <time>2010-01-02T09:03:16Z</time>
      </trkpt>
      <trkpt lat="53.947112085297704" lon="9.932475630193949">
        <ele>0</ele>
        <time>2010-01-02T09:03:21Z</time>
      </trkpt>
      <trkpt lat="53.947175368666649" lon="9.932542517781258">
        <ele>0</ele>
        <time>2010-01-02T09:03:24Z</time>
      </trkpt>
      <trkpt lat="53.947376953437924" lon="9.932731278240681">
        <ele>0</ele>
        <time>2010-01-02T09:03:33Z</time>
      </trkpt>
      <trkpt lat="53.947789762169123" lon="9.933136543259025">
        <ele>0</ele>
        <time>2010-01-02T09:03:52Z</time>
      </trkpt>
      <trkpt lat="53.948246324434876" lon="9.933585394173861">
        <ele>0</ele>
        <time>2010-01-02T09:04:13Z</time>
      </trkpt>
      <trkpt lat="53.948656199499965" lon="9.934016475453973">
        <ele>0</ele>
        <time>2010-01-02T09:04:33Z</time>
      </trkpt>
      <trkpt lat="53.949032546952367" lon="9.934495501220226">
        <ele>0</ele>
        <time>2010-01-02T09:04:51Z</time>
      </trkpt>
      <trkpt lat="53.949557840824127" lon="9.935227744281292">
        <ele>0</ele>
        <time>2010-01-02T09:05:19Z</time>
      </trkpt>
      <trkpt lat="53.949681306257844" lon="9.93541331961751">
        <ele>0</ele>
        <time>2010-01-02T09:05:25Z</time>
      </trkpt>
      <trkpt lat="53.949801418930292" lon="9.935563690960407">
        <ele>0</ele>
        <time>2010-01-02T09:05:31Z</time>
      </trkpt>
      <trkpt lat="53.950312715023756" lon="9.936362653970718">
        <ele>0</ele>
        <time>2010-01-02T09:05:59Z</time>
      </trkpt>
      <trkpt lat="53.950778413563967" lon="9.93713621981442">
        <ele>0</ele>
        <time>2010-01-02T09:06:25Z</time>
      </trkpt>
      <trkpt lat="53.951402781531215" lon="9.938175408169627">
        <ele>0</ele>
        <time>2010-01-02T09:07:00Z</time>
      </trkpt>
      <trkpt lat="53.951651975512505" lon="9.938592240214348">
        <ele>0</ele>
        <time>2010-01-02T09:07:14Z</time>
      </trkpt>
      <trkpt lat="53.952270140871406" lon="9.939632853493094">
        <ele>0</ele>
        <time>2010-01-02T09:07:49Z</time>
      </trkpt>
      <trkpt lat="53.952515898272395" lon="9.940031412988901">
        <ele>0</ele>
        <time>2010-01-02T09:08:03Z</time>
      </trkpt>
      <trkpt lat="53.952743131667376" lon="9.940478838980198">
        <ele>0</ele>
        <time>2010-01-02T09:08:16Z</time>
      </trkpt>
      <trkpt lat="53.952826447784901" lon="9.94064312428236">
        <ele>0</ele>
        <time>2010-01-02T09:08:22Z</time>
      </trkpt>
      <trkpt lat="53.95304387435317" lon="9.941106559708714">
        <ele>0</ele>
        <time>2010-01-02T09:08:36Z</time>
      </trkpt>
      <trkpt lat="53.953118724748492" lon="9.94129104539752">
        <ele>0</ele>
        <time>2010-01-02T09:08:41Z</time>
      </trkpt>
      <trkpt lat="53.953192317858338" lon="9.941539485007524">
        <ele>0</ele>
        <time>2010-01-02T09:08:47Z</time>
      </trkpt>
      <trkpt lat="53.95329306833446" lon="9.941977355629206">
        <ele>0</ele>
        <time>2010-01-02T09:08:58Z</time>
      </trkpt>
      <trkpt lat="53.953412175178528" lon="9.942485801875591">
        <ele>0</ele>
        <time>2010-01-02T09:09:11Z</time>
      </trkpt>
      <trkpt lat="53.953465986996889" lon="9.942726194858551">
        <ele>0</ele>
        <time>2010-01-02T09:09:17Z</time>
      </trkpt>
      <trkpt lat="53.953615771606565" lon="9.943358693271875">
        <ele>0</ele>
        <time>2010-01-02T09:09:33Z</time>
      </trkpt>
      <trkpt lat="53.953791204839945" lon="9.944471474736929">
        <ele>0</ele>
        <time>2010-01-02T09:10:01Z</time>
      </trkpt>
      <trkpt lat="53.953936211764812" lon="9.945427011698484">
        <ele>0</ele>
        <time>2010-01-02T09:10:24Z</time>
      </trkpt>
      <trkpt lat="53.953952137380838" lon="9.945531701669097">
        <ele>0</ele>
        <time>2010-01-02T09:10:26Z</time>
      </trkpt>
      <trkpt lat="53.953974433243275" lon="9.945762874558568">
        <ele>0</ele>
        <time>2010-01-02T09:10:32Z</time>
      </trkpt>
      <trkpt lat="53.953995052725077" lon="9.946394115686417">
        <ele>0</ele>
        <time>2010-01-02T09:10:47Z</time>
      </trkpt>
      <trkpt lat="53.954005278646946" lon="9.946824694052339">
        <ele>0</ele>
        <time>2010-01-02T09:10:57Z</time>
      </trkpt>
      <trkpt lat="53.954016175121069" lon="9.947825074195862">
        <ele>0</ele>
        <time>2010-01-02T09:11:20Z</time>
      </trkpt>
      <trkpt lat="53.954045260325074" lon="9.949484607204795">
        <ele>0</ele>
        <time>2010-01-02T09:12:00Z</time>
      </trkpt>
      <trkpt lat="53.954045930877328" lon="9.949747379869223">
        <ele>0</ele>
        <time>2010-01-02T09:12:06Z</time>
      </trkpt>
      <trkpt lat="53.954046098515391" lon="9.949828935787082">
        <ele>0</ele>
        <time>2010-01-02T09:12:08Z</time>
      </trkpt>
      <trkpt lat="53.954051714390516" lon="9.950033202767372">
        <ele>0</ele>
        <time>2010-01-02T09:12:13Z</time>
      </trkpt>
      <trkpt lat="53.954053726047277" lon="9.950113920494914">
        <ele>0</ele>
        <time>2010-01-02T09:12:14Z</time>
      </trkpt>
      <trkpt lat="53.954055653885007" lon="9.950219113379717">
        <ele>0</ele>
        <time>2010-01-02T09:12:17Z</time>
      </trkpt>
      <trkpt lat="53.954056659713387" lon="9.950309051200747">
        <ele>0</ele>
        <time>2010-01-02T09:12:19Z</time>
      </trkpt>
      <trkpt lat="53.954057833179832" lon="9.950397396460176">
        <ele>0</ele>
        <time>2010-01-02T09:12:21Z</time>
      </trkpt>
      <trkpt lat="53.954059761017561" lon="9.950600070878863">
        <ele>0</ele>
        <time>2010-01-02T09:12:26Z</time>
      </trkpt>
      <trkpt lat="53.954061940312386" lon="9.950675508007407">
        <ele>0</ele>
        <time>2010-01-02T09:12:28Z</time>
      </trkpt>
      <trkpt lat="53.954069651663303" lon="9.950946075841784">
        <ele>0</ele>
        <time>2010-01-02T09:12:34Z</time>
      </trkpt>
      <trkpt lat="53.95407241769135" lon="9.950982201844454">
        <ele>0</ele>
        <time>2010-01-02T09:12:35Z</time>
      </trkpt>
      <trkpt lat="53.954095719382167" lon="9.951284872367978">
        <ele>0</ele>
        <time>2010-01-02T09:12:42Z</time>
      </trkpt>
      <trkpt lat="53.954125391319394" lon="9.951510932296515">
        <ele>0</ele>
        <time>2010-01-02T09:12:48Z</time>
      </trkpt>
      <trkpt lat="53.954180208966136" lon="9.951848890632391">
        <ele>0</ele>
        <time>2010-01-02T09:12:56Z</time>
      </trkpt>
      <trkpt lat="53.954268135130405" lon="9.952196655794978">
        <ele>0</ele>
        <time>2010-01-02T09:13:05Z</time>
      </trkpt>
      <trkpt lat="53.954335525631905" lon="9.952422128990293">
        <ele>0</ele>
        <time>2010-01-02T09:13:11Z</time>
      </trkpt>
      <trkpt lat="53.95439051091671" lon="9.952550623565912">
        <ele>0</ele>
        <time>2010-01-02T09:13:14Z</time>
      </trkpt>
      <trkpt lat="53.954490004107356" lon="9.952771486714482">
        <ele>0</ele>
        <time>2010-01-02T09:13:21Z</time>
      </trkpt>
      <trkpt lat="53.954594442620873" lon="9.952976508066058">
        <ele>0</ele>
        <time>2010-01-02T09:13:27Z</time>
      </trkpt>
      <trkpt lat="53.954712459817529" lon="9.953155880793929">
        <ele>0</ele>
        <time>2010-01-02T09:13:34Z</time>
      </trkpt>
      <trkpt lat="53.954838858917356" lon="9.953306503593922">
        <ele>0</ele>
        <time>2010-01-02T09:13:40Z</time>
      </trkpt>
      <trkpt lat="53.954993840306997" lon="9.953483697026968">
        <ele>0</ele>
        <time>2010-01-02T09:13:47Z</time>
      </trkpt>
      <trkpt lat="53.95510439760983" lon="9.953591655939817">
        <ele>0</ele>
        <time>2010-01-02T09:13:52Z</time>
      </trkpt>
      <trkpt lat="53.955337665975094" lon="9.953738339245319">
        <ele>0</ele>
        <time>2010-01-02T09:14:02Z</time>
      </trkpt>
      <trkpt lat="53.955574287101626" lon="9.953818386420608">
        <ele>0</ele>
        <time>2010-01-02T09:14:12Z</time>
      </trkpt>
      <trkpt lat="53.95581342279911" lon="9.953904636204243">
        <ele>0</ele>
        <time>2010-01-02T09:14:22Z</time>
      </trkpt>
      <trkpt lat="53.956069406121969" lon="9.95403690263629">
        <ele>0</ele>
        <time>2010-01-02T09:14:33Z</time>
      </trkpt>
      <trkpt lat="53.956257244572043" lon="9.954140251502395">
        <ele>0</ele>
        <time>2010-01-02T09:14:40Z</time>
      </trkpt>
      <trkpt lat="53.956420524045825" lon="9.954287186264992">
        <ele>0</ele>
        <time>2010-01-02T09:14:48Z</time>
      </trkpt>
      <trkpt lat="53.956658989191055" lon="9.954571416601539">
        <ele>0</ele>
        <time>2010-01-02T09:15:00Z</time>
      </trkpt>
      <trkpt lat="53.956931568682194" lon="9.954985901713371">
        <ele>0</ele>
        <time>2010-01-02T09:15:14Z</time>
      </trkpt>
      <trkpt lat="53.957059476524591" lon="9.955180529505014">
        <ele>0</ele>
        <time>2010-01-02T09:15:21Z</time>
      </trkpt>
      <trkpt lat="53.957575131207705" lon="9.955964991822839">
        <ele>0</ele>
        <time>2010-01-02T09:15:49Z</time>
      </trkpt>
      <trkpt lat="53.957833545282483" lon="9.956354834139347">
        <ele>0</ele>
        <time>2010-01-02T09:16:03Z</time>
      </trkpt>
      <trkpt lat="53.957986179739237" lon="9.956586845219135">
        <ele>0</ele>
        <time>2010-01-02T09:16:11Z</time>
      </trkpt>
      <trkpt lat="53.958966108039021" lon="9.958090139552951">
        <ele>0</ele>
        <time>2010-01-02T09:17:04Z</time>
      </trkpt>
      <trkpt lat="53.959025619551539" lon="9.958178400993347">
        <ele>0</ele>
        <time>2010-01-02T09:17:07Z</time>
      </trkpt>
      <trkpt lat="53.959357375279069" lon="9.958711573854089">
        <ele>0</ele>
        <time>2010-01-02T09:17:25Z</time>
      </trkpt>
      <trkpt lat="53.959940671920776" lon="9.959587315097451">
        <ele>0</ele>
        <time>2010-01-02T09:17:56Z</time>
      </trkpt>
      <trkpt lat="53.960498403757811" lon="9.960401533171535">
        <ele>0</ele>
        <time>2010-01-02T09:18:26Z</time>
      </trkpt>
      <trkpt lat="53.961276914924383" lon="9.961589584127069">
        <ele>0</ele>
        <time>2010-01-02T09:19:08Z</time>
      </trkpt>
      <trkpt lat="53.961541280150414" lon="9.962003985419869">
        <ele>0</ele>
        <time>2010-01-02T09:19:22Z</time>
      </trkpt>
      <trkpt lat="53.962064394727349" lon="9.960867231711745">
        <ele>0</ele>
        <time>2010-01-02T09:19:56Z</time>
      </trkpt>
      <trkpt lat="53.962560351938009" lon="9.959738943725824">
        <ele>0</ele>
        <time>2010-01-02T09:20:29Z</time>
      </trkpt>
      <trkpt lat="53.962793620303273" lon="9.95922320522368">
        <ele>0</ele>
        <time>2010-01-02T09:20:44Z</time>
      </trkpt>
      <trkpt lat="53.96308128722012" lon="9.958635633811355">
        <ele>0</ele>
        <time>2010-01-02T09:21:02Z</time>
      </trkpt>
      <trkpt lat="53.963319081813097" lon="9.958225088194013">
        <ele>0</ele>
        <time>2010-01-02T09:21:16Z</time>
      </trkpt>
      <trkpt lat="53.964020563289523" lon="9.957014573737979">
        <ele>0</ele>
        <time>2010-01-02T09:21:56Z</time>
      </trkpt>
      <trkpt lat="53.964095246046782" lon="9.956886833533645">
        <ele>0</ele>
        <time>2010-01-02T09:22:00Z</time>
      </trkpt>
      <trkpt lat="53.96412349306047" lon="9.956837212666869">
        <ele>0</ele>
        <time>2010-01-02T09:22:02Z</time>
      </trkpt>
      <trkpt lat="53.964149644598365" lon="9.956827070564032">
        <ele>0</ele>
        <time>2010-01-02T09:22:03Z</time>
      </trkpt>
      <trkpt lat="53.965057656168938" lon="9.958001375198364">
        <ele>0</ele>
        <time>2010-01-02T09:22:49Z</time>
      </trkpt>
      <trkpt lat="53.965579429641366" lon="9.958702102303505">
        <ele>0</ele>
        <time>2010-01-02T09:23:15Z</time>
      </trkpt>
      <trkpt lat="53.965678587555885" lon="9.958769911900163">
        <ele>0</ele>
        <time>2010-01-02T09:23:19Z</time>
      </trkpt>
      <trkpt lat="53.965754192322493" lon="9.958754908293486">
        <ele>0</ele>
        <time>2010-01-02T09:23:23Z</time>
      </trkpt>
      <trkpt lat="53.96581320092082" lon="9.95857335627079">
        <ele>0</ele>
        <time>2010-01-02T09:23:27Z</time>
      </trkpt>
      <trkpt lat="53.965887380763888" lon="9.958396833389997">
        <ele>0</ele>
        <time>2010-01-02T09:23:33Z</time>
      </trkpt>
      <trkpt lat="53.965993579477072" lon="9.958262136206031">
        <ele>0</ele>
        <time>2010-01-02T09:23:38Z</time>
      </trkpt>
      <trkpt lat="53.966040685772896" lon="9.958250233903527">
        <ele>0</ele>
        <time>2010-01-02T09:23:40Z</time>
      </trkpt>
      <trkpt lat="53.96612592972815" lon="9.958228608593345">
        <ele>0</ele>
        <time>2010-01-02T09:23:43Z</time>
      </trkpt>
      <trkpt lat="53.966261381283402" lon="9.958249982446432">
        <ele>0</ele>
        <time>2010-01-02T09:23:49Z</time>
      </trkpt>
      <trkpt lat="53.966351486742496" lon="9.958334304392338">
        <ele>0</ele>
        <time>2010-01-02T09:23:53Z</time>
      </trkpt>
      <trkpt lat="53.966489704325795" lon="9.958575200289488">
        <ele>0</ele>
        <time>2010-01-02T09:24:01Z</time>
      </trkpt>
      <trkpt lat="53.966661533340812" lon="9.958880888298154">
        <ele>0</ele>
        <time>2010-01-02T09:24:11Z</time>
      </trkpt>
      <trkpt lat="53.966714087873697" lon="9.958975352346897">
        <ele>0</ele>
        <time>2010-01-02T09:24:14Z</time>
      </trkpt>
      <trkpt lat="53.966860854998231" lon="9.959238963201642">
        <ele>0</ele>
        <time>2010-01-02T09:24:22Z</time>
      </trkpt>
      <trkpt lat="53.966955654323101" lon="9.959407271817327">
        <ele>0</ele>
        <time>2010-01-02T09:24:28Z</time>
      </trkpt>
      <trkpt lat="53.967035366222262" lon="9.959444152191281">
        <ele>0</ele>
        <time>2010-01-02T09:24:31Z</time>
      </trkpt>
      <trkpt lat="53.96717794239521" lon="9.959473321214318">
        <ele>0</ele>
        <time>2010-01-02T09:24:37Z</time>
      </trkpt>
      <trkpt lat="53.967314399778843" lon="9.959485558792949">
        <ele>0</ele>
        <time>2010-01-02T09:24:42Z</time>
      </trkpt>
      <trkpt lat="53.967428477481008" lon="9.959494275972247">
        <ele>0</ele>
        <time>2010-01-02T09:24:47Z</time>
      </trkpt>
      <trkpt lat="53.968177903443575" lon="9.959596870467067">
        <ele>0</ele>
        <time>2010-01-02T09:25:17Z</time>
      </trkpt>
      <trkpt lat="53.968625161796808" lon="9.959616316482425">
        <ele>0</ele>
        <time>2010-01-02T09:25:35Z</time>
      </trkpt>
      <trkpt lat="53.968864968046546" lon="9.959627883508801">
        <ele>0</ele>
        <time>2010-01-02T09:25:44Z</time>
      </trkpt>
      <trkpt lat="53.969184821471572" lon="9.959629140794277">
        <ele>0</ele>
        <time>2010-01-02T09:25:57Z</time>
      </trkpt>
      <trkpt lat="53.969412054866552" lon="9.959751684218645">
        <ele>0</ele>
        <time>2010-01-02T09:26:07Z</time>
      </trkpt>
      <trkpt lat="53.969594612717628" lon="9.959838017821312">
        <ele>0</ele>
        <time>2010-01-02T09:26:14Z</time>
      </trkpt>
      <trkpt lat="53.969818409532309" lon="9.9599439650774">
        <ele>0</ele>
        <time>2010-01-02T09:26:24Z</time>
      </trkpt>
      <trkpt lat="53.970097443088889" lon="9.960102718323469">
        <ele>0</ele>
        <time>2010-01-02T09:26:35Z</time>
      </trkpt>
      <trkpt lat="53.970406902953982" lon="9.960278989747167">
        <ele>0</ele>
        <time>2010-01-02T09:26:49Z</time>
      </trkpt>
      <trkpt lat="53.970721727237105" lon="9.960463056340814">
        <ele>0</ele>
        <time>2010-01-02T09:27:02Z</time>
      </trkpt>
      <trkpt lat="53.970885425806046" lon="9.960550647228956">
        <ele>0</ele>
        <time>2010-01-02T09:27:09Z</time>
      </trkpt>
      <trkpt lat="53.970994977280498" lon="9.960668999701738">
        <ele>0</ele>
        <time>2010-01-02T09:27:14Z</time>
      </trkpt>
      <trkpt lat="53.971018614247441" lon="9.960717782378197">
        <ele>0</ele>
        <time>2010-01-02T09:27:15Z</time>
      </trkpt>
      <trkpt lat="53.971065720543265" lon="9.960815347731113">
        <ele>0</ele>
        <time>2010-01-02T09:27:18Z</time>
      </trkpt>
      <trkpt lat="53.971181642264128" lon="9.961151797324419">
        <ele>0</ele>
        <time>2010-01-02T09:27:28Z</time>
      </trkpt>
      <trkpt lat="53.971475008875132" lon="9.961990658193827">
        <ele>0</ele>
        <time>2010-01-02T09:27:51Z</time>
      </trkpt>
      <trkpt lat="53.971673743799329" lon="9.962188806384802">
        <ele>0</ele>
        <time>2010-01-02T09:28:00Z</time>
      </trkpt>
      <trkpt lat="53.971725292503834" lon="9.962239181622863">
        <ele>0</ele>
        <time>2010-01-02T09:28:02Z</time>
      </trkpt>
      <trkpt lat="53.971916232258081" lon="9.962426014244556">
        <ele>0</ele>
        <time>2010-01-02T09:28:11Z</time>
      </trkpt>
      <trkpt lat="53.972004661336541" lon="9.962518718093634">
        <ele>0</ele>
        <time>2010-01-02T09:28:15Z</time>
      </trkpt>
      <trkpt lat="53.972058808431029" lon="9.962575631216168">
        <ele>0</ele>
        <time>2010-01-02T09:28:18Z</time>
      </trkpt>
      <trkpt lat="53.972329795360565" lon="9.96251025237143">
        <ele>0</ele>
        <time>2010-01-02T09:28:29Z</time>
      </trkpt>
      <trkpt lat="53.972718464210629" lon="9.962436910718679">
        <ele>0</ele>
        <time>2010-01-02T09:28:44Z</time>
      </trkpt>
      <trkpt lat="53.972833212465048" lon="9.962471527978778">
        <ele>0</ele>
        <time>2010-01-02T09:28:49Z</time>
      </trkpt>
      <trkpt lat="53.972881659865379" lon="9.962591556832194">
        <ele>0</ele>
        <time>2010-01-02T09:28:52Z</time>
      </trkpt>
      <trkpt lat="53.972886940464377" lon="9.962836978957057">
        <ele>0</ele>
        <time>2010-01-02T09:28:58Z</time>
      </trkpt>
      <trkpt lat="53.972871601581573" lon="9.963068319484591">
        <ele>0</ele>
        <time>2010-01-02T09:29:04Z</time>
      </trkpt>
      <trkpt lat="53.972852993756533" lon="9.963366631418467">
        <ele>0</ele>
        <time>2010-01-02T09:29:11Z</time>
      </trkpt>
      <trkpt lat="53.972899345681071" lon="9.963640468195081">
        <ele>0</ele>
        <time>2010-01-02T09:29:17Z</time>
      </trkpt>
      <trkpt lat="53.97298819385469" lon="9.963869629427791">
        <ele>0</ele>
        <time>2010-01-02T09:29:24Z</time>
      </trkpt>
      <trkpt lat="53.973234789445996" lon="9.964379752054811">
        <ele>0</ele>
        <time>2010-01-02T09:29:39Z</time>
      </trkpt>
      <trkpt lat="53.973263623192906" lon="9.964441861957312">
        <ele>0</ele>
        <time>2010-01-02T09:29:41Z</time>
      </trkpt>
      <trkpt lat="53.973426483571529" lon="9.964792644605041">
        <ele>0</ele>
        <time>2010-01-02T09:29:52Z</time>
      </trkpt>
      <trkpt lat="53.973433189094067" lon="9.964810749515891">
        <ele>0</ele>
        <time>2010-01-02T09:29:52Z</time>
      </trkpt>
      <trkpt lat="53.973698141053319" lon="9.96549479663372">
        <ele>0</ele>
        <time>2010-01-02T09:30:12Z</time>
      </trkpt>
      <trkpt lat="53.973795874044299" lon="9.96589545160532">
        <ele>0</ele>
        <time>2010-01-02T09:30:22Z</time>
      </trkpt>
      <trkpt lat="53.973846165463328" lon="9.966233409941196">
        <ele>0</ele>
        <time>2010-01-02T09:30:30Z</time>
      </trkpt>
      <trkpt lat="53.973904922604561" lon="9.966635657474399">
        <ele>0</ele>
        <time>2010-01-02T09:30:40Z</time>
      </trkpt>
      <trkpt lat="53.973930487409234" lon="9.967027930542827">
        <ele>0</ele>
        <time>2010-01-02T09:30:49Z</time>
      </trkpt>
      <trkpt lat="53.973950771614909" lon="9.967409390956163">
        <ele>0</ele>
        <time>2010-01-02T09:30:58Z</time>
      </trkpt>
      <trkpt lat="53.973974576219916" lon="9.967574514448643">
        <ele>0</ele>
        <time>2010-01-02T09:31:02Z</time>
      </trkpt>
      <trkpt lat="53.974055713042617" lon="9.967763861641288">
        <ele>0</ele>
        <time>2010-01-02T09:31:08Z</time>
      </trkpt>
      <trkpt lat="53.973974995315075" lon="9.967856481671333">
        <ele>0</ele>
        <time>2010-01-02T09:31:11Z</time>
      </trkpt>
      <trkpt lat="53.973869886249304" lon="9.968081116676331">
        <ele>0</ele>
        <time>2010-01-02T09:31:18Z</time>
      </trkpt>
      <trkpt lat="53.973741894587874" lon="9.968471378087997">
        <ele>0</ele>
        <time>2010-01-02T09:31:29Z</time>
      </trkpt>
      <trkpt lat="53.973623290657997" lon="9.968803888186812">
        <ele>0</ele>
        <time>2010-01-02T09:31:38Z</time>
      </trkpt>
      <trkpt lat="53.973578363656998" lon="9.969023829326034">
        <ele>0</ele>
        <time>2010-01-02T09:31:43Z</time>
      </trkpt>
      <trkpt lat="53.973506614565849" lon="9.96945658698678">
        <ele>0</ele>
        <time>2010-01-02T09:31:54Z</time>
      </trkpt>
      <trkpt lat="53.973466884344816" lon="9.969699494540691">
        <ele>0</ele>
        <time>2010-01-02T09:32:00Z</time>
      </trkpt>
      <trkpt lat="53.960605692118406" lon="9.982448201626539">
        <ele>0</ele>
        <time>2010-01-02T09:41:56Z</time>
      </trkpt>
      <trkpt lat="53.955948622897267" lon="9.98699102550745">
        <ele>0</ele>
        <time>2010-01-02T09:45:31Z</time>
      </trkpt>
      <trkpt lat="53.955302461981773" lon="9.987260587513447">
        <ele>0</ele>
        <time>2010-01-02T09:45:57Z</time>
      </trkpt>
      <trkpt lat="53.954262351617217" lon="9.987758221104741">
        <ele>0</ele>
        <time>2010-01-02T09:46:41Z</time>
      </trkpt>
      <trkpt lat="53.954643728211522" lon="9.989048950374126">
        <ele>0</ele>
        <time>2010-01-02T09:47:15Z</time>
      </trkpt>
      <trkpt lat="53.954639453440905" lon="9.989571059122682">
        <ele>0</ele>
        <time>2010-01-02T09:47:27Z</time>
      </trkpt>
      <trkpt lat="53.95401768386364" lon="9.990268433466554">
        <ele>0</ele>
        <time>2010-01-02T09:47:57Z</time>
      </trkpt>
      <trkpt lat="53.953479146584868" lon="9.991062618792057">
        <ele>0</ele>
        <time>2010-01-02T09:48:25Z</time>
      </trkpt>
      <trkpt lat="53.95225815474987" lon="9.993352554738522">
        <ele>0</ele>
        <time>2010-01-02T09:49:38Z</time>
      </trkpt>
      <trkpt lat="53.952177772298455" lon="9.99350443482399">
        <ele>0</ele>
        <time>2010-01-02T09:49:43Z</time>
      </trkpt>
      <trkpt lat="53.951802849769592" lon="9.994187140837312">
        <ele>0</ele>
        <time>2010-01-02T09:50:05Z</time>
      </trkpt>
      <trkpt lat="53.951687850058079" lon="9.994378918781877">
        <ele>0</ele>
        <time>2010-01-02T09:50:11Z</time>
      </trkpt>
      <trkpt lat="53.951573269441724" lon="9.994570109993219">
        <ele>0</ele>
        <time>2010-01-02T09:50:18Z</time>
      </trkpt>
      <trkpt lat="53.951439913362265" lon="9.994725342839956">
        <ele>0</ele>
        <time>2010-01-02T09:50:24Z</time>
      </trkpt>
      <trkpt lat="53.950220765545964" lon="9.995800573378801">
        <ele>0</ele>
        <time>2010-01-02T09:51:19Z</time>
      </trkpt>
      <trkpt lat="53.949099434539676" lon="9.996771533042192">
        <ele>0</ele>
        <time>2010-01-02T09:52:10Z</time>
      </trkpt>
      <trkpt lat="53.947741901502013" lon="9.997960673645139">
        <ele>0</ele>
        <time>2010-01-02T09:53:11Z</time>
      </trkpt>
      <trkpt lat="53.947625141590834" lon="9.998058406636119">
        <ele>0</ele>
        <time>2010-01-02T09:53:16Z</time>
      </trkpt>
      <trkpt lat="53.947477536275983" lon="9.998196540400386">
        <ele>0</ele>
        <time>2010-01-02T09:53:23Z</time>
      </trkpt>
      <trkpt lat="53.947047628462315" lon="9.998571630567312">
        <ele>0</ele>
        <time>2010-01-02T09:53:42Z</time>
      </trkpt>
      <trkpt lat="53.946641189977527" lon="9.998933561146259">
        <ele>0</ele>
        <time>2010-01-02T09:54:01Z</time>
      </trkpt>
      <trkpt lat="53.945612814277411" lon="9.999859342351556">
        <ele>0</ele>
        <time>2010-01-02T09:54:47Z</time>
      </trkpt>
      <trkpt lat="53.945326739922166" lon="10.000115996226668">
        <ele>0</ele>
        <time>2010-01-02T09:55:00Z</time>
      </trkpt>
      <trkpt lat="53.945326656103134" lon="10.000454038381577">
        <ele>0</ele>
        <time>2010-01-02T09:55:08Z</time>
      </trkpt>
      <trkpt lat="53.945440398529172" lon="10.001253336668015">
        <ele>0</ele>
        <time>2010-01-02T09:55:27Z</time>
      </trkpt>
      <trkpt lat="53.945619519799948" lon="10.002500480040908">
        <ele>0</ele>
        <time>2010-01-02T09:55:58Z</time>
      </trkpt>
      <trkpt lat="53.945630500093102" lon="10.002580778673291">
        <ele>0</ele>
        <time>2010-01-02T09:56:00Z</time>
      </trkpt>
      <trkpt lat="53.945765951648355" lon="10.003577722236514">
        <ele>0</ele>
        <time>2010-01-02T09:56:24Z</time>
      </trkpt>
      <trkpt lat="53.945819092914462" lon="10.004104441031814">
        <ele>0</ele>
        <time>2010-01-02T09:56:36Z</time>
      </trkpt>
      <trkpt lat="53.945826552808285" lon="10.004182308912277">
        <ele>0</ele>
        <time>2010-01-02T09:56:38Z</time>
      </trkpt>
      <trkpt lat="53.945881789550185" lon="10.004774574190378">
        <ele>0</ele>
        <time>2010-01-02T09:56:52Z</time>
      </trkpt>
      <trkpt lat="53.945955466479063" lon="10.00562927685678">
        <ele>0</ele>
        <time>2010-01-02T09:57:13Z</time>
      </trkpt>
      <trkpt lat="53.9459811989218" lon="10.005884170532227">
        <ele>0</ele>
        <time>2010-01-02T09:57:19Z</time>
      </trkpt>
      <trkpt lat="53.946006596088409" lon="10.006178794428706">
        <ele>0</ele>
        <time>2010-01-02T09:57:26Z</time>
      </trkpt>
      <trkpt lat="53.946032663807273" lon="10.0063880905509">
        <ele>0</ele>
        <time>2010-01-02T09:57:31Z</time>
      </trkpt>
      <trkpt lat="53.94608429633081" lon="10.006875162944198">
        <ele>0</ele>
        <time>2010-01-02T09:57:42Z</time>
      </trkpt>
      <trkpt lat="53.946085972711444" lon="10.006891926750541">
        <ele>0</ele>
        <time>2010-01-02T09:57:43Z</time>
      </trkpt>
      <trkpt lat="53.946141460910439" lon="10.007348656654358">
        <ele>0</ele>
        <time>2010-01-02T09:57:54Z</time>
      </trkpt>
      <trkpt lat="53.9461918361485" lon="10.007768757641315">
        <ele>0</ele>
        <time>2010-01-02T09:58:04Z</time>
      </trkpt>
      <trkpt lat="53.946254197508097" lon="10.008254572749138">
        <ele>0</ele>
        <time>2010-01-02T09:58:16Z</time>
      </trkpt>
      <trkpt lat="53.946337513625622" lon="10.008922191336751">
        <ele>0</ele>
        <time>2010-01-02T09:58:32Z</time>
      </trkpt>
      <trkpt lat="53.946410771459341" lon="10.009514875710011">
        <ele>0</ele>
        <time>2010-01-02T09:58:46Z</time>
      </trkpt>
      <trkpt lat="53.946464499458671" lon="10.009957859292626">
        <ele>0</ele>
        <time>2010-01-02T09:58:57Z</time>
      </trkpt>
      <trkpt lat="53.946512024849653" lon="10.010291039943695">
        <ele>0</ele>
        <time>2010-01-02T09:59:05Z</time>
      </trkpt>
      <trkpt lat="53.946544295176864" lon="10.010512657463551">
        <ele>0</ele>
        <time>2010-01-02T09:59:10Z</time>
      </trkpt>
      <trkpt lat="53.946693576872349" lon="10.011459058150649">
        <ele>0</ele>
        <time>2010-01-02T09:59:33Z</time>
      </trkpt>
      <trkpt lat="53.946737917140126" lon="10.011737337335944">
        <ele>0</ele>
        <time>2010-01-02T09:59:40Z</time>
      </trkpt>
      <trkpt lat="53.946876134723425" lon="10.012401770800352">
        <ele>0</ele>
        <time>2010-01-02T09:59:57Z</time>
      </trkpt>
      <trkpt lat="53.947125328704715" lon="10.013531818985939">
        <ele>0</ele>
        <time>2010-01-02T10:00:25Z</time>
      </trkpt>
      <trkpt lat="53.947187606245279" lon="10.013813618570566">
        <ele>0</ele>
        <time>2010-01-02T10:00:32Z</time>
      </trkpt>
      <trkpt lat="53.947047460824251" lon="10.013922918587923">
        <ele>0</ele>
        <time>2010-01-02T10:00:38Z</time>
      </trkpt>
      <trkpt lat="53.946807570755482" lon="10.014023669064045">
        <ele>0</ele>
        <time>2010-01-02T10:00:48Z</time>
      </trkpt>
      <trkpt lat="53.946513617411256" lon="10.014149062335491">
        <ele>0</ele>
        <time>2010-01-02T10:01:00Z</time>
      </trkpt>
      <trkpt lat="53.946229303255677" lon="10.014265486970544">
        <ele>0</ele>
        <time>2010-01-02T10:01:12Z</time>
      </trkpt>
      <trkpt lat="53.946109609678388" lon="10.014328099787235">
        <ele>0</ele>
        <time>2010-01-02T10:01:17Z</time>
      </trkpt>
      <trkpt lat="53.946016654372215" lon="10.014376128092408">
        <ele>0</ele>
        <time>2010-01-02T10:01:21Z</time>
      </trkpt>
      <trkpt lat="53.94587860442698" lon="10.014444356784225">
        <ele>0</ele>
        <time>2010-01-02T10:01:27Z</time>
      </trkpt>
      <trkpt lat="53.945691687986255" lon="10.014553992077708">
        <ele>0</ele>
        <time>2010-01-02T10:01:35Z</time>
      </trkpt>
      <trkpt lat="53.945495551452041" lon="10.014695478603244">
        <ele>0</ele>
        <time>2010-01-02T10:01:43Z</time>
      </trkpt>
      <trkpt lat="53.945318274199963" lon="10.014834366738796">
        <ele>0</ele>
        <time>2010-01-02T10:01:51Z</time>
      </trkpt>
      <trkpt lat="53.945133704692125" lon="10.014983648434281">
        <ele>0</ele>
        <time>2010-01-02T10:01:59Z</time>
      </trkpt>
      <trkpt lat="53.945006048306823" lon="10.015097809955478">
        <ele>0</ele>
        <time>2010-01-02T10:02:05Z</time>
      </trkpt>
      <trkpt lat="53.944882918149233" lon="10.015209121629596">
        <ele>0</ele>
        <time>2010-01-02T10:02:10Z</time>
      </trkpt>
      <trkpt lat="53.944755094125867" lon="10.015343064442277">
        <ele>0</ele>
        <time>2010-01-02T10:02:16Z</time>
      </trkpt>
      <trkpt lat="53.944624420255423" lon="10.015492178499699">
        <ele>0</ele>
        <time>2010-01-02T10:02:23Z</time>
      </trkpt>
      <trkpt lat="53.944530878216028" lon="10.015610195696354">
        <ele>0</ele>
        <time>2010-01-02T10:02:27Z</time>
      </trkpt>
      <trkpt lat="53.944484610110521" lon="10.015670042484999">
        <ele>0</ele>
        <time>2010-01-02T10:02:30Z</time>
      </trkpt>
      <trkpt lat="53.944318229332566" lon="10.015900544822216">
        <ele>0</ele>
        <time>2010-01-02T10:02:38Z</time>
      </trkpt>
      <trkpt lat="53.944225441664457" lon="10.016029207035899">
        <ele>0</ele>
        <time>2010-01-02T10:02:43Z</time>
      </trkpt>
      <trkpt lat="53.944135503843427" lon="10.016153426840901">
        <ele>0</ele>
        <time>2010-01-02T10:02:48Z</time>
      </trkpt>
      <trkpt lat="53.943962585180998" lon="10.0164142716676">
        <ele>0</ele>
        <time>2010-01-02T10:02:57Z</time>
      </trkpt>
      <trkpt lat="53.943813219666481" lon="10.01665273681283">
        <ele>0</ele>
        <time>2010-01-02T10:03:05Z</time>
      </trkpt>
      <trkpt lat="53.943657483905554" lon="10.016891118139029">
        <ele>0</ele>
        <time>2010-01-02T10:03:14Z</time>
      </trkpt>
      <trkpt lat="53.943505603820086" lon="10.017112819477916">
        <ele>0</ele>
        <time>2010-01-02T10:03:22Z</time>
      </trkpt>
      <trkpt lat="53.943349197506905" lon="10.0173329282552">
        <ele>0</ele>
        <time>2010-01-02T10:03:30Z</time>
      </trkpt>
      <trkpt lat="53.943258253857493" lon="10.017457064241171">
        <ele>0</ele>
        <time>2010-01-02T10:03:34Z</time>
      </trkpt>
      <trkpt lat="53.943135542795062" lon="10.017627719789743">
        <ele>0</ele>
        <time>2010-01-02T10:03:41Z</time>
      </trkpt>
      <trkpt lat="53.943042000755668" lon="10.017750347033143">
        <ele>0</ele>
        <time>2010-01-02T10:03:46Z</time>
      </trkpt>
      <trkpt lat="53.942849552258849" lon="10.017980178818107">
        <ele>0</ele>
        <time>2010-01-02T10:03:55Z</time>
      </trkpt>
      <trkpt lat="53.942629778757691" lon="10.018258038908243">
        <ele>0</ele>
        <time>2010-01-02T10:04:06Z</time>
      </trkpt>
      <trkpt lat="53.942415369674563" lon="10.018528522923589">
        <ele>0</ele>
        <time>2010-01-02T10:04:17Z</time>
      </trkpt>
      <trkpt lat="53.942291066050529" lon="10.0186747033149">
        <ele>0</ele>
        <time>2010-01-02T10:04:23Z</time>
      </trkpt>
      <trkpt lat="53.942100461572409" lon="10.018900008872151">
        <ele>0</ele>
        <time>2010-01-02T10:04:32Z</time>
      </trkpt>
      <trkpt lat="53.942012451589108" lon="10.019001429900527">
        <ele>0</ele>
        <time>2010-01-02T10:04:36Z</time>
      </trkpt>
      <trkpt lat="53.941898122429848" lon="10.019131181761622">
        <ele>0</ele>
        <time>2010-01-02T10:04:42Z</time>
      </trkpt>
      <trkpt lat="53.941684132441878" lon="10.019377944990993">
        <ele>0</ele>
        <time>2010-01-02T10:04:52Z</time>
      </trkpt>
      <trkpt lat="53.941673152148724" lon="10.019390685483813">
        <ele>0</ele>
        <time>2010-01-02T10:04:53Z</time>
      </trkpt>
      <trkpt lat="53.941723695024848" lon="10.019574668258429">
        <ele>0</ele>
        <time>2010-01-02T10:04:57Z</time>
      </trkpt>
      <trkpt lat="53.941736770793796" lon="10.019620601087809">
        <ele>0</ele>
        <time>2010-01-02T10:04:59Z</time>
      </trkpt>
      <trkpt lat="53.941796869039536" lon="10.019839871674776">
        <ele>0</ele>
        <time>2010-01-02T10:05:04Z</time>
      </trkpt>
      <trkpt lat="53.941940870136023" lon="10.020341360941529">
        <ele>0</ele>
        <time>2010-01-02T10:05:17Z</time>
      </trkpt>
      <trkpt lat="53.94198814406991" lon="10.020488714799285">
        <ele>0</ele>
        <time>2010-01-02T10:05:21Z</time>
      </trkpt>
      <trkpt lat="53.94202577881515" lon="10.020605390891433">
        <ele>0</ele>
        <time>2010-01-02T10:05:24Z</time>
      </trkpt>
      <trkpt lat="53.942069951444864" lon="10.020731622353196">
        <ele>0</ele>
        <time>2010-01-02T10:05:28Z</time>
      </trkpt>
      <trkpt lat="53.942093336954713" lon="10.020798929035664">
        <ele>0</ele>
        <time>2010-01-02T10:05:30Z</time>
      </trkpt>
      <trkpt lat="53.942181263118982" lon="10.021026497706771">
        <ele>0</ele>
        <time>2010-01-02T10:05:36Z</time>
      </trkpt>
      <trkpt lat="53.94227203913033" lon="10.021235793828964">
        <ele>0</ele>
        <time>2010-01-02T10:05:42Z</time>
      </trkpt>
      <trkpt lat="53.942312523722649" lon="10.021329671144485">
        <ele>0</ele>
        <time>2010-01-02T10:05:45Z</time>
      </trkpt>
      <trkpt lat="53.942346051335335" lon="10.021408209577203">
        <ele>0</ele>
        <time>2010-01-02T10:05:47Z</time>
      </trkpt>
      <trkpt lat="53.942390056326985" lon="10.021512815728784">
        <ele>0</ele>
        <time>2010-01-02T10:05:50Z</time>
      </trkpt>
      <trkpt lat="53.942428613081574" lon="10.021631000563502">
        <ele>0</ele>
        <time>2010-01-02T10:05:54Z</time>
      </trkpt>
      <trkpt lat="53.942455602809787" lon="10.021730661392212">
        <ele>0</ele>
        <time>2010-01-02T10:05:56Z</time>
      </trkpt>
      <trkpt lat="53.942497177049518" lon="10.021906848996878">
        <ele>0</ele>
        <time>2010-01-02T10:06:01Z</time>
      </trkpt>
      <trkpt lat="53.942523580044508" lon="10.022081108763814">
        <ele>0</ele>
        <time>2010-01-02T10:06:05Z</time>
      </trkpt>
      <trkpt lat="53.942526429891586" lon="10.022116648033261">
        <ele>0</ele>
        <time>2010-01-02T10:06:06Z</time>
      </trkpt>
      <trkpt lat="53.942589126527309" lon="10.022143051028252">
        <ele>0</ele>
        <time>2010-01-02T10:06:08Z</time>
      </trkpt>
      <trkpt lat="53.942615278065205" lon="10.022161742672324">
        <ele>0</ele>
        <time>2010-01-02T10:06:09Z</time>
      </trkpt>
      <trkpt lat="53.942675879225135" lon="10.022197365760803">
        <ele>0</ele>
        <time>2010-01-02T10:06:12Z</time>
      </trkpt>
      <trkpt lat="53.94271619617939" lon="10.022235838696361">
        <ele>0</ele>
        <time>2010-01-02T10:06:14Z</time>
      </trkpt>
      <trkpt lat="53.94274746067822" lon="10.022269198670983">
        <ele>0</ele>
        <time>2010-01-02T10:06:15Z</time>
      </trkpt>
      <trkpt lat="53.942801607772708" lon="10.022349832579494">
        <ele>0</ele>
        <time>2010-01-02T10:06:18Z</time>
      </trkpt>
      <trkpt lat="53.942832788452506" lon="10.022381097078323">
        <ele>0</ele>
        <time>2010-01-02T10:06:20Z</time>
      </trkpt>
      <trkpt lat="53.942877044901252" lon="10.022458294406533">
        <ele>0</ele>
        <time>2010-01-02T10:06:22Z</time>
      </trkpt>
      <trkpt lat="53.943031774833798" lon="10.022759037092328">
        <ele>0</ele>
        <time>2010-01-02T10:06:32Z</time>
      </trkpt>
      <trkpt lat="53.943186504766345" lon="10.023050643503666">
        <ele>0</ele>
        <time>2010-01-02T10:06:41Z</time>
      </trkpt>
      <trkpt lat="53.943400578573346" lon="10.023438222706318">
        <ele>0</ele>
        <time>2010-01-02T10:06:53Z</time>
      </trkpt>
      <trkpt lat="53.943599900230765" lon="10.023779617622495">
        <ele>0</ele>
        <time>2010-01-02T10:07:05Z</time>
      </trkpt>
      <trkpt lat="53.943762173876166" lon="10.024024285376072">
        <ele>0</ele>
        <time>2010-01-02T10:07:13Z</time>
      </trkpt>
      <trkpt lat="53.943917490541935" lon="10.02425042912364">
        <ele>0</ele>
        <time>2010-01-02T10:07:22Z</time>
      </trkpt>
      <trkpt lat="53.944165427237749" lon="10.02457782626152">
        <ele>0</ele>
        <time>2010-01-02T10:07:34Z</time>
      </trkpt>
      <trkpt lat="53.944405233487487" lon="10.024903547018766">
        <ele>0</ele>
        <time>2010-01-02T10:07:46Z</time>
      </trkpt>
      <trkpt lat="53.944574799388647" lon="10.025136144831777">
        <ele>0</ele>
        <time>2010-01-02T10:07:55Z</time>
      </trkpt>
      <trkpt lat="53.944603214040399" lon="10.025176461786032">
        <ele>0</ele>
        <time>2010-01-02T10:07:57Z</time>
      </trkpt>
      <trkpt lat="53.944760458543897" lon="10.02538894303143">
        <ele>0</ele>
        <time>2010-01-02T10:08:05Z</time>
      </trkpt>
      <trkpt lat="53.944853832945228" lon="10.025505451485515">
        <ele>0</ele>
        <time>2010-01-02T10:08:09Z</time>
      </trkpt>
      <trkpt lat="53.94495265558362" lon="10.025608465075493">
        <ele>0</ele>
        <time>2010-01-02T10:08:14Z</time>
      </trkpt>
      <trkpt lat="53.944999007508159" lon="10.025653727352619">
        <ele>0</ele>
        <time>2010-01-02T10:08:16Z</time>
      </trkpt>
      <trkpt lat="53.945126412436366" lon="10.025777192786336">
        <ele>0</ele>
        <time>2010-01-02T10:08:22Z</time>
      </trkpt>
      <trkpt lat="53.945275275036693" lon="10.025914907455444">
        <ele>0</ele>
        <time>2010-01-02T10:08:29Z</time>
      </trkpt>
      <trkpt lat="53.945436626672745" lon="10.026063518598676">
        <ele>0</ele>
        <time>2010-01-02T10:08:36Z</time>
      </trkpt>
      <trkpt lat="53.945612395182252" lon="10.02620643004775">
        <ele>0</ele>
        <time>2010-01-02T10:08:44Z</time>
      </trkpt>
      <trkpt lat="53.94579897634685" lon="10.02634959295392">
        <ele>0</ele>
        <time>2010-01-02T10:08:52Z</time>
      </trkpt>
      <trkpt lat="53.945983713492751" lon="10.026498874649405">
        <ele>0</ele>
        <time>2010-01-02T10:09:00Z</time>
      </trkpt>
      <trkpt lat="53.946057725697756" lon="10.026558553799987">
        <ele>0</ele>
        <time>2010-01-02T10:09:04Z</time>
      </trkpt>
      <trkpt lat="53.94625486806035" lon="10.026729376986623">
        <ele>0</ele>
        <time>2010-01-02T10:09:12Z</time>
      </trkpt>
      <trkpt lat="53.946405574679375" lon="10.026858039200306">
        <ele>0</ele>
        <time>2010-01-02T10:09:19Z</time>
      </trkpt>
      <trkpt lat="53.946742359548807" lon="10.027252994477749">
        <ele>0</ele>
        <time>2010-01-02T10:09:36Z</time>
      </trkpt>
      <trkpt lat="53.946840595453978" lon="10.027368245646358">
        <ele>0</ele>
        <time>2010-01-02T10:09:40Z</time>
      </trkpt>
      <trkpt lat="53.94724091514945" lon="10.027940142899752">
        <ele>0</ele>
        <time>2010-01-02T10:10:01Z</time>
      </trkpt>
      <trkpt lat="53.947462700307369" lon="10.02826695330441">
        <ele>0</ele>
        <time>2010-01-02T10:10:13Z</time>
      </trkpt>
      <trkpt lat="53.947754893451929" lon="10.028878832235932">
        <ele>0</ele>
        <time>2010-01-02T10:10:32Z</time>
      </trkpt>
      <trkpt lat="53.947761598974466" lon="10.028893668204546">
        <ele>0</ele>
        <time>2010-01-02T10:10:32Z</time>
      </trkpt>
      <trkpt lat="53.948000902310014" lon="10.029424075037241">
        <ele>0</ele>
        <time>2010-01-02T10:10:48Z</time>
      </trkpt>
      <trkpt lat="53.948245486244559" lon="10.030028745532036">
        <ele>0</ele>
        <time>2010-01-02T10:11:05Z</time>
      </trkpt>
      <trkpt lat="53.948253365233541" lon="10.030048694461584">
        <ele>0</ele>
        <time>2010-01-02T10:11:06Z</time>
      </trkpt>
      <trkpt lat="53.948461152613163" lon="10.030594104900956">
        <ele>0</ele>
        <time>2010-01-02T10:11:21Z</time>
      </trkpt>
      <trkpt lat="53.948537679389119" lon="10.030830977484584">
        <ele>0</ele>
        <time>2010-01-02T10:11:27Z</time>
      </trkpt>
      <trkpt lat="53.94855385646224" lon="10.030948659405112">
        <ele>0</ele>
        <time>2010-01-02T10:11:30Z</time>
      </trkpt>
      <trkpt lat="53.948560561984777" lon="10.031409161165357">
        <ele>0</ele>
        <time>2010-01-02T10:11:41Z</time>
      </trkpt>
      <trkpt lat="53.948569279164076" lon="10.032047694548965">
        <ele>0</ele>
        <time>2010-01-02T10:11:56Z</time>
      </trkpt>
      <trkpt lat="53.948576571419835" lon="10.032285321503878">
        <ele>0</ele>
        <time>2010-01-02T10:12:02Z</time>
      </trkpt>
      <trkpt lat="53.948586126789451" lon="10.03245647996664">
        <ele>0</ele>
        <time>2010-01-02T10:12:06Z</time>
      </trkpt>
      <trkpt lat="53.948657792061567" lon="10.033593904227018">
        <ele>0</ele>
        <time>2010-01-02T10:12:33Z</time>
      </trkpt>
      <trkpt lat="53.948736833408475" lon="10.03463770262897">
        <ele>0</ele>
        <time>2010-01-02T10:12:57Z</time>
      </trkpt>
      <trkpt lat="53.948848899453878" lon="10.03591694869101">
        <ele>0</ele>
        <time>2010-01-02T10:13:28Z</time>
      </trkpt>
      <trkpt lat="53.949098261073232" lon="10.037531554698944">
        <ele>0</ele>
        <time>2010-01-02T10:14:07Z</time>
      </trkpt>
      <trkpt lat="53.949122903868556" lon="10.037693660706282">
        <ele>0</ele>
        <time>2010-01-02T10:14:11Z</time>
      </trkpt>
      <trkpt lat="53.949295235797763" lon="10.038858577609062">
        <ele>0</ele>
        <time>2010-01-02T10:14:40Z</time>
      </trkpt>
      <trkpt lat="53.949375366792083" lon="10.039667850360274">
        <ele>0</ele>
        <time>2010-01-02T10:14:59Z</time>
      </trkpt>
      <trkpt lat="53.949401769787073" lon="10.039936574175954">
        <ele>0</ele>
        <time>2010-01-02T10:15:05Z</time>
      </trkpt>
      <trkpt lat="53.949504280462861" lon="10.040965788066387">
        <ele>0</ele>
        <time>2010-01-02T10:15:30Z</time>
      </trkpt>
      <trkpt lat="53.949543843045831" lon="10.042200526222587">
        <ele>0</ele>
        <time>2010-01-02T10:15:59Z</time>
      </trkpt>
      <trkpt lat="53.949578795582056" lon="10.044074971228838">
        <ele>0</ele>
        <time>2010-01-02T10:16:43Z</time>
      </trkpt>
      <trkpt lat="53.949619950726628" lon="10.04605159163475">
        <ele>0</ele>
        <time>2010-01-02T10:17:30Z</time>
      </trkpt>
      <trkpt lat="53.949620705097914" lon="10.046171871945262">
        <ele>0</ele>
        <time>2010-01-02T10:17:33Z</time>
      </trkpt>
      <trkpt lat="53.94962347112596" lon="10.046886345371604">
        <ele>0</ele>
        <time>2010-01-02T10:17:49Z</time>
      </trkpt>
      <trkpt lat="53.949628919363022" lon="10.047814138233662">
        <ele>0</ele>
        <time>2010-01-02T10:18:11Z</time>
      </trkpt>
      <trkpt lat="53.949494557455182" lon="10.048896744847298">
        <ele>0</ele>
        <time>2010-01-02T10:18:37Z</time>
      </trkpt>
      <trkpt lat="53.949334798380733" lon="10.050106756389141">
        <ele>0</ele>
        <time>2010-01-02T10:19:07Z</time>
      </trkpt>
      <trkpt lat="53.949126759544015" lon="10.051498236134648">
        <ele>0</ele>
        <time>2010-01-02T10:19:40Z</time>
      </trkpt>
      <trkpt lat="53.948984434828162" lon="10.052466429769993">
        <ele>0</ele>
        <time>2010-01-02T10:20:04Z</time>
      </trkpt>
      <trkpt lat="53.94889491610229" lon="10.053245611488819">
        <ele>0</ele>
        <time>2010-01-02T10:20:23Z</time>
      </trkpt>
      <trkpt lat="53.948843954131007" lon="10.053934268653393">
        <ele>0</ele>
        <time>2010-01-02T10:20:39Z</time>
      </trkpt>
      <trkpt lat="53.948849234730005" lon="10.054351771250367">
        <ele>0</ele>
        <time>2010-01-02T10:20:49Z</time>
      </trkpt>
      <trkpt lat="53.948864322155714" lon="10.055400095880032">
        <ele>0</ele>
        <time>2010-01-02T10:21:13Z</time>
      </trkpt>
      <trkpt lat="53.94890271127224" lon="10.056350016966462">
        <ele>0</ele>
        <time>2010-01-02T10:21:36Z</time>
      </trkpt>
      <trkpt lat="53.948913607746363" lon="10.056839268654585">
        <ele>0</ele>
        <time>2010-01-02T10:21:47Z</time>
      </trkpt>
      <trkpt lat="53.948956103995442" lon="10.057734372094274">
        <ele>0</ele>
        <time>2010-01-02T10:22:09Z</time>
      </trkpt>
      <trkpt lat="53.949004635214806" lon="10.0586464907974">
        <ele>0</ele>
        <time>2010-01-02T10:22:30Z</time>
      </trkpt>
      <trkpt lat="53.949084933847189" lon="10.059731528162956">
        <ele>0</ele>
        <time>2010-01-02T10:22:56Z</time>
      </trkpt>
      <trkpt lat="53.949209069833159" lon="10.060829808935523">
        <ele>0</ele>
        <time>2010-01-02T10:23:22Z</time>
      </trkpt>
      <trkpt lat="53.949231700971723" lon="10.0610192399472">
        <ele>0</ele>
        <time>2010-01-02T10:23:27Z</time>
      </trkpt>
      <trkpt lat="53.94931954331696" lon="10.061748046427965">
        <ele>0</ele>
        <time>2010-01-02T10:23:44Z</time>
      </trkpt>
      <trkpt lat="53.949438482522964" lon="10.062824953347445">
        <ele>0</ele>
        <time>2010-01-02T10:24:10Z</time>
      </trkpt>
      <trkpt lat="53.949495814740658" lon="10.063254442065954">
        <ele>0</ele>
        <time>2010-01-02T10:24:21Z</time>
      </trkpt>
      <trkpt lat="53.949589440599084" lon="10.06354009732604">
        <ele>0</ele>
        <time>2010-01-02T10:24:28Z</time>
      </trkpt>
      <trkpt lat="53.95003778859973" lon="10.064553804695606">
        <ele>0</ele>
        <time>2010-01-02T10:24:58Z</time>
      </trkpt>
      <trkpt lat="53.950316486880183" lon="10.065141208469868">
        <ele>0</ele>
        <time>2010-01-02T10:25:16Z</time>
      </trkpt>
      <trkpt lat="53.950622258707881" lon="10.065922820940614">
        <ele>0</ele>
        <time>2010-01-02T10:25:38Z</time>
      </trkpt>
      <trkpt lat="53.950917888432741" lon="10.066621955484152">
        <ele>0</ele>
        <time>2010-01-02T10:25:58Z</time>
      </trkpt>
      <trkpt lat="53.95112014375627" lon="10.067120678722858">
        <ele>0</ele>
        <time>2010-01-02T10:26:13Z</time>
      </trkpt>
      <trkpt lat="53.951289122924209" lon="10.067516388371587">
        <ele>0</ele>
        <time>2010-01-02T10:26:24Z</time>
      </trkpt>
      <trkpt lat="53.951632278040051" lon="10.068131452426314">
        <ele>0</ele>
        <time>2010-01-02T10:26:44Z</time>
      </trkpt>
      <trkpt lat="53.951968811452389" lon="10.068677784875035">
        <ele>0</ele>
        <time>2010-01-02T10:27:03Z</time>
      </trkpt>
      <trkpt lat="53.952332837507129" lon="10.069268960505724">
        <ele>0</ele>
        <time>2010-01-02T10:27:23Z</time>
      </trkpt>
      <trkpt lat="53.952616481110454" lon="10.06980481557548">
        <ele>0</ele>
        <time>2010-01-02T10:27:40Z</time>
      </trkpt>
      <trkpt lat="53.952885624021292" lon="10.070253498852253">
        <ele>0</ele>
        <time>2010-01-02T10:27:55Z</time>
      </trkpt>
      <trkpt lat="53.953026523813605" lon="10.070471931248903">
        <ele>0</ele>
        <time>2010-01-02T10:28:03Z</time>
      </trkpt>
      <trkpt lat="53.953157365322113" lon="10.070912484079599">
        <ele>0</ele>
        <time>2010-01-02T10:28:14Z</time>
      </trkpt>
      <trkpt lat="53.953163484111428" lon="10.070933941751719">
        <ele>0</ele>
        <time>2010-01-02T10:28:15Z</time>
      </trkpt>
      <trkpt lat="53.953393315896392" lon="10.07175637409091">
        <ele>0</ele>
        <time>2010-01-02T10:28:36Z</time>
      </trkpt>
      <trkpt lat="53.953732028603554" lon="10.072863372042775">
        <ele>0</ele>
        <time>2010-01-02T10:29:06Z</time>
      </trkpt>
      <trkpt lat="53.954060515388846" lon="10.073915300890803">
        <ele>0</ele>
        <time>2010-01-02T10:29:34Z</time>
      </trkpt>
      <trkpt lat="53.954301495105028" lon="10.07469842210412">
        <ele>0</ele>
        <time>2010-01-02T10:29:54Z</time>
      </trkpt>
      <trkpt lat="53.954377016052604" lon="10.074992878362536">
        <ele>0</ele>
        <time>2010-01-02T10:30:02Z</time>
      </trkpt>
      <trkpt lat="53.954398222267628" lon="10.075232600793242">
        <ele>0</ele>
        <time>2010-01-02T10:30:08Z</time>
      </trkpt>
      <trkpt lat="53.954640459269285" lon="10.076775876805186">
        <ele>0</ele>
        <time>2010-01-02T10:30:45Z</time>
      </trkpt>
      <trkpt lat="53.954662755131721" lon="10.076896827667952">
        <ele>0</ele>
        <time>2010-01-02T10:30:48Z</time>
      </trkpt>
      <trkpt lat="53.954791082069278" lon="10.077608535066247">
        <ele>0</ele>
        <time>2010-01-02T10:31:06Z</time>
      </trkpt>
      <trkpt lat="53.955028960481286" lon="10.078537836670876">
        <ele>0</ele>
        <time>2010-01-02T10:31:30Z</time>
      </trkpt>
      <trkpt lat="53.955045472830534" lon="10.078602209687233">
        <ele>0</ele>
        <time>2010-01-02T10:31:31Z</time>
      </trkpt>
      <trkpt lat="53.955188803374767" lon="10.079250298440456">
        <ele>0</ele>
        <time>2010-01-02T10:31:48Z</time>
      </trkpt>
      <trkpt lat="53.955231970176101" lon="10.079539390280843">
        <ele>0</ele>
        <time>2010-01-02T10:31:55Z</time>
      </trkpt>
      <trkpt lat="53.955220067873597" lon="10.079767545685172">
        <ele>0</ele>
        <time>2010-01-02T10:32:00Z</time>
      </trkpt>
      <trkpt lat="53.955105319619179" lon="10.080239865928888">
        <ele>0</ele>
        <time>2010-01-02T10:32:12Z</time>
      </trkpt>
      <trkpt lat="53.954944973811507" lon="10.08068360388279">
        <ele>0</ele>
        <time>2010-01-02T10:32:24Z</time>
      </trkpt>
      <trkpt lat="53.954720422625542" lon="10.081370919942856">
        <ele>0</ele>
        <time>2010-01-02T10:32:43Z</time>
      </trkpt>
      <trkpt lat="53.954591173678637" lon="10.081853549927473">
        <ele>0</ele>
        <time>2010-01-02T10:32:55Z</time>
      </trkpt>
      <trkpt lat="53.954480951651931" lon="10.082420501857996">
        <ele>0</ele>
        <time>2010-01-02T10:33:09Z</time>
      </trkpt>
      <trkpt lat="53.954343739897013" lon="10.083186188712716">
        <ele>0</ele>
        <time>2010-01-02T10:33:28Z</time>
      </trkpt>
      <trkpt lat="53.954235194250941" lon="10.083865877240896">
        <ele>0</ele>
        <time>2010-01-02T10:33:45Z</time>
      </trkpt>
      <trkpt lat="53.954215245321393" lon="10.083984145894647">
        <ele>0</ele>
        <time>2010-01-02T10:33:48Z</time>
      </trkpt>
      <trkpt lat="53.954175682738423" lon="10.084222024306655">
        <ele>0</ele>
        <time>2010-01-02T10:33:54Z</time>
      </trkpt>
      <trkpt lat="53.954114578664303" lon="10.084587810561061">
        <ele>0</ele>
        <time>2010-01-02T10:34:03Z</time>
      </trkpt>
      <trkpt lat="53.953989520668983" lon="10.085401106625795">
        <ele>0</ele>
        <time>2010-01-02T10:34:22Z</time>
      </trkpt>
      <trkpt lat="53.954558316618204" lon="10.08549515157938">
        <ele>0</ele>
        <time>2010-01-02T10:34:45Z</time>
      </trkpt>
      <trkpt lat="53.95486693829298" lon="10.085545778274536">
        <ele>0</ele>
        <time>2010-01-02T10:34:58Z</time>
      </trkpt>
      <trkpt lat="53.955030888319016" lon="10.085573019459844">
        <ele>0</ele>
        <time>2010-01-02T10:35:04Z</time>
      </trkpt>
      <trkpt lat="53.95509609952569" lon="10.085583915933967">
        <ele>0</ele>
        <time>2010-01-02T10:35:07Z</time>
      </trkpt>
      <trkpt lat="53.95543129183352" lon="10.085639655590057">
        <ele>0</ele>
        <time>2010-01-02T10:35:20Z</time>
      </trkpt>
      <trkpt lat="53.955528773367405" lon="10.085650132969022">
        <ele>0</ele>
        <time>2010-01-02T10:35:24Z</time>
      </trkpt>
      <trkpt lat="53.956093713641167" lon="10.085710231214762">
        <ele>0</ele>
        <time>2010-01-02T10:35:47Z</time>
      </trkpt>
      <trkpt lat="53.956512892618775" lon="10.085756164044142">
        <ele>0</ele>
        <time>2010-01-02T10:36:04Z</time>
      </trkpt>
      <trkpt lat="53.956781281158328" lon="10.085784494876862">
        <ele>0</ele>
        <time>2010-01-02T10:36:15Z</time>
      </trkpt>
      <trkpt lat="53.956977752968669" lon="10.085817016661167">
        <ele>0</ele>
        <time>2010-01-02T10:36:22Z</time>
      </trkpt>
      <trkpt lat="53.957251757383347" lon="10.085824141278863">
        <ele>0</ele>
        <time>2010-01-02T10:36:33Z</time>
      </trkpt>
      <trkpt lat="53.957721563056111" lon="10.085935369133949">
        <ele>0</ele>
        <time>2010-01-02T10:36:52Z</time>
      </trkpt>
      <trkpt lat="53.957733130082488" lon="10.08594173938036">
        <ele>0</ele>
        <time>2010-01-02T10:36:53Z</time>
      </trkpt>
      <trkpt lat="53.958223219960928" lon="10.086199818179011">
        <ele>0</ele>
        <time>2010-01-02T10:37:13Z</time>
      </trkpt>
      <trkpt lat="53.958318857476115" lon="10.086251031607389">
        <ele>0</ele>
        <time>2010-01-02T10:37:17Z</time>
      </trkpt>
      <trkpt lat="53.958643320947886" lon="10.086436187848449">
        <ele>0</ele>
        <time>2010-01-02T10:37:31Z</time>
      </trkpt>
      <trkpt lat="53.959185965359211" lon="10.08673676289618">
        <ele>0</ele>
        <time>2010-01-02T10:37:54Z</time>
      </trkpt>
      <trkpt lat="53.959395429119468" lon="10.087124593555927">
        <ele>0</ele>
        <time>2010-01-02T10:38:06Z</time>
      </trkpt>
      <trkpt lat="53.959527444094419" lon="10.087326094508171">
        <ele>0</ele>
        <time>2010-01-02T10:38:13Z</time>
      </trkpt>
      <trkpt lat="53.959716539829969" lon="10.087478812783957">
        <ele>0</ele>
        <time>2010-01-02T10:38:22Z</time>
      </trkpt>
      <trkpt lat="53.959927260875702" lon="10.087530026212335">
        <ele>0</ele>
        <time>2010-01-02T10:38:30Z</time>
      </trkpt>
      <trkpt lat="53.959991885349154" lon="10.087534720078111">
        <ele>0</ele>
        <time>2010-01-02T10:38:33Z</time>
      </trkpt>
      <trkpt lat="53.9601328689605" lon="10.087543018162251">
        <ele>0</ele>
        <time>2010-01-02T10:38:39Z</time>
      </trkpt>
      <trkpt lat="53.960246611386538" lon="10.088284900411963">
        <ele>0</ele>
        <time>2010-01-02T10:38:57Z</time>
      </trkpt>
      <trkpt lat="53.960336800664663" lon="10.08903231471777">
        <ele>0</ele>
        <time>2010-01-02T10:39:15Z</time>
      </trkpt>
      <trkpt lat="53.960435120388865" lon="10.089880479499698">
        <ele>0</ele>
        <time>2010-01-02T10:39:35Z</time>
      </trkpt>
      <trkpt lat="53.960521705448627" lon="10.090639963746071">
        <ele>0</ele>
        <time>2010-01-02T10:39:53Z</time>
      </trkpt>
      <trkpt lat="53.960573170334101" lon="10.091107506304979">
        <ele>0</ele>
        <time>2010-01-02T10:40:04Z</time>
      </trkpt>
      <trkpt lat="53.960611307993531" lon="10.091949552297592">
        <ele>0</ele>
        <time>2010-01-02T10:40:24Z</time>
      </trkpt>
      <trkpt lat="53.960621198639274" lon="10.092150885611773">
        <ele>0</ele>
        <time>2010-01-02T10:40:29Z</time>
      </trkpt>
      <trkpt lat="53.960649194195867" lon="10.09272295050323">
        <ele>0</ele>
        <time>2010-01-02T10:40:43Z</time>
      </trkpt>
      <trkpt lat="53.960676016286016" lon="10.093924244865775">
        <ele>0</ele>
        <time>2010-01-02T10:41:11Z</time>
      </trkpt>
      <trkpt lat="53.960668221116066" lon="10.094382651150227">
        <ele>0</ele>
        <time>2010-01-02T10:41:22Z</time>
      </trkpt>
      <trkpt lat="53.960606614127755" lon="10.094832088798285">
        <ele>0</ele>
        <time>2010-01-02T10:41:33Z</time>
      </trkpt>
      <trkpt lat="53.960436629131436" lon="10.09554672986269">
        <ele>0</ele>
        <time>2010-01-02T10:41:51Z</time>
      </trkpt>
      <trkpt lat="53.960334789007902" lon="10.095868594944477">
        <ele>0</ele>
        <time>2010-01-02T10:41:59Z</time>
      </trkpt>
      <trkpt lat="53.960030945017934" lon="10.096777779981494">
        <ele>0</ele>
        <time>2010-01-02T10:42:24Z</time>
      </trkpt>
      <trkpt lat="53.959836149588227" lon="10.097440034151077">
        <ele>0</ele>
        <time>2010-01-02T10:42:41Z</time>
      </trkpt>
      <trkpt lat="53.959708157926798" lon="10.097781009972095">
        <ele>0</ele>
        <time>2010-01-02T10:42:51Z</time>
      </trkpt>
      <trkpt lat="53.959529120475054" lon="10.098402444273233">
        <ele>0</ele>
        <time>2010-01-02T10:43:07Z</time>
      </trkpt>
      <trkpt lat="53.95945125259459" lon="10.098756914958358">
        <ele>0</ele>
        <time>2010-01-02T10:43:16Z</time>
      </trkpt>
      <trkpt lat="53.959535155445337" lon="10.0991156604141">
        <ele>0</ele>
        <time>2010-01-02T10:43:25Z</time>
      </trkpt>
      <trkpt lat="53.95954898558557" lon="10.099173914641142">
        <ele>0</ele>
        <time>2010-01-02T10:43:27Z</time>
      </trkpt>
      <trkpt lat="53.959638588130474" lon="10.099510364234447">
        <ele>0</ele>
        <time>2010-01-02T10:43:35Z</time>
      </trkpt>
      <trkpt lat="53.959723580628633" lon="10.099829044193029">
        <ele>0</ele>
        <time>2010-01-02T10:43:44Z</time>
      </trkpt>
      <trkpt lat="53.959961207583547" lon="10.100763207301497">
        <ele>0</ele>
        <time>2010-01-02T10:44:08Z</time>
      </trkpt>
      <trkpt lat="53.960142843425274" lon="10.101273497566581">
        <ele>0</ele>
        <time>2010-01-02T10:44:22Z</time>
      </trkpt>
      <trkpt lat="53.960230015218258" lon="10.101339798420668">
        <ele>0</ele>
        <time>2010-01-02T10:44:25Z</time>
      </trkpt>
      <trkpt lat="53.960302518680692" lon="10.101346839219332">
        <ele>0</ele>
        <time>2010-01-02T10:44:28Z</time>
      </trkpt>
      <trkpt lat="53.960733516141772" lon="10.101298559457064">
        <ele>0</ele>
        <time>2010-01-02T10:44:46Z</time>
      </trkpt>
      <trkpt lat="53.961046412587166" lon="10.101274754852057">
        <ele>0</ele>
        <time>2010-01-02T10:44:58Z</time>
      </trkpt>
      <trkpt lat="53.961404906585813" lon="10.101369554176927">
        <ele>0</ele>
        <time>2010-01-02T10:45:13Z</time>
      </trkpt>
      <trkpt lat="53.961656531319022" lon="10.101565103977919">
        <ele>0</ele>
        <time>2010-01-02T10:45:24Z</time>
      </trkpt>
      <trkpt lat="53.961878903210163" lon="10.102099701762199">
        <ele>0</ele>
        <time>2010-01-02T10:45:39Z</time>
      </trkpt>
      <trkpt lat="53.96215089596808" lon="10.102764470502734">
        <ele>0</ele>
        <time>2010-01-02T10:45:58Z</time>
      </trkpt>
      <trkpt lat="53.962161876261234" lon="10.102791292592883">
        <ele>0</ele>
        <time>2010-01-02T10:45:59Z</time>
      </trkpt>
      <trkpt lat="53.96229749545455" lon="10.103553039953113">
        <ele>0</ele>
        <time>2010-01-02T10:46:18Z</time>
      </trkpt>
      <trkpt lat="53.962454069405794" lon="10.104432385414839">
        <ele>0</ele>
        <time>2010-01-02T10:46:39Z</time>
      </trkpt>
      <trkpt lat="53.962831255048513" lon="10.106559377163649">
        <ele>0</ele>
        <time>2010-01-02T10:47:32Z</time>
      </trkpt>
      <trkpt lat="53.96290929056704" lon="10.10699967853725">
        <ele>0</ele>
        <time>2010-01-02T10:47:43Z</time>
      </trkpt>
      <trkpt lat="53.962939968332648" lon="10.107669392600656">
        <ele>0</ele>
        <time>2010-01-02T10:47:58Z</time>
      </trkpt>
      <trkpt lat="53.962899232283235" lon="10.108468858525157">
        <ele>0</ele>
        <time>2010-01-02T10:48:17Z</time>
      </trkpt>
      <trkpt lat="53.962890598922968" lon="10.108640184625983">
        <ele>0</ele>
        <time>2010-01-02T10:48:21Z</time>
      </trkpt>
      <trkpt lat="53.962874673306942" lon="10.108999349176884">
        <ele>0</ele>
        <time>2010-01-02T10:48:30Z</time>
      </trkpt>
      <trkpt lat="53.962859753519297" lon="10.109350886195898">
        <ele>0</ele>
        <time>2010-01-02T10:48:38Z</time>
      </trkpt>
      <trkpt lat="53.962858999148011" lon="10.110018253326416">
        <ele>0</ele>
        <time>2010-01-02T10:48:54Z</time>
      </trkpt>
      <trkpt lat="53.962868386879563" lon="10.11074990965426">
        <ele>0</ele>
        <time>2010-01-02T10:49:11Z</time>
      </trkpt>
      <trkpt lat="53.962858496233821" lon="10.111628752201796">
        <ele>0</ele>
        <time>2010-01-02T10:49:32Z</time>
      </trkpt>
      <trkpt lat="53.962858412414789" lon="10.112215401604772">
        <ele>0</ele>
        <time>2010-01-02T10:49:46Z</time>
      </trkpt>
      <trkpt lat="53.962856233119965" lon="10.11255051009357">
        <ele>0</ele>
        <time>2010-01-02T10:49:54Z</time>
      </trkpt>
      <trkpt lat="53.96284282207489" lon="10.113313598558307">
        <ele>0</ele>
        <time>2010-01-02T10:50:11Z</time>
      </trkpt>
      <trkpt lat="53.962878026068211" lon="10.114415986463428">
        <ele>0</ele>
        <time>2010-01-02T10:50:37Z</time>
      </trkpt>
      <trkpt lat="53.962882552295923" lon="10.114557975903153">
        <ele>0</ele>
        <time>2010-01-02T10:50:41Z</time>
      </trkpt>
      <trkpt lat="53.962886072695255" lon="10.115240681916475">
        <ele>0</ele>
        <time>2010-01-02T10:50:57Z</time>
      </trkpt>
      <trkpt lat="53.962888335809112" lon="10.115574449300766">
        <ele>0</ele>
        <time>2010-01-02T10:51:05Z</time>
      </trkpt>
      <trkpt lat="53.962845001369715" lon="10.116274170577526">
        <ele>0</ele>
        <time>2010-01-02T10:51:21Z</time>
      </trkpt>
      <trkpt lat="53.962807031348348" lon="10.117656597867608">
        <ele>0</ele>
        <time>2010-01-02T10:51:54Z</time>
      </trkpt>
      <trkpt lat="53.962688092142344" lon="10.119519978761673">
        <ele>0</ele>
        <time>2010-01-02T10:52:38Z</time>
      </trkpt>
      <trkpt lat="53.962531350553036" lon="10.1218964997679">
        <ele>0</ele>
        <time>2010-01-02T10:53:34Z</time>
      </trkpt>
      <trkpt lat="53.962526908144355" lon="10.121962632983923">
        <ele>0</ele>
        <time>2010-01-02T10:53:36Z</time>
      </trkpt>
      <trkpt lat="53.962533865123987" lon="10.122279804199934">
        <ele>0</ele>
        <time>2010-01-02T10:53:43Z</time>
      </trkpt>
      <trkpt lat="53.962130025029182" lon="10.122896628454328">
        <ele>0</ele>
        <time>2010-01-02T10:54:05Z</time>
      </trkpt>
      <trkpt lat="53.961779158562422" lon="10.123522588983178">
        <ele>0</ele>
        <time>2010-01-02T10:54:26Z</time>
      </trkpt>
      <trkpt lat="53.961703386157751" lon="10.123657705262303">
        <ele>0</ele>
        <time>2010-01-02T10:54:30Z</time>
      </trkpt>
      <trkpt lat="53.961399793624878" lon="10.124217867851257">
        <ele>0</ele>
        <time>2010-01-02T10:54:48Z</time>
      </trkpt>
      <trkpt lat="53.960816496983171" lon="10.124237146228552">
        <ele>0</ele>
        <time>2010-01-02T10:55:11Z</time>
      </trkpt>
      <trkpt lat="53.960117194801569" lon="10.124270170927048">
        <ele>0</ele>
        <time>2010-01-02T10:55:39Z</time>
      </trkpt>
      <trkpt lat="53.959246231243014" lon="10.12430302798748">
        <ele>0</ele>
        <time>2010-01-02T10:56:14Z</time>
      </trkpt>
      <trkpt lat="53.958549108356237" lon="10.124381817877293">
        <ele>0</ele>
        <time>2010-01-02T10:56:42Z</time>
      </trkpt>
      <trkpt lat="53.957886938005686" lon="10.124484328553081">
        <ele>0</ele>
        <time>2010-01-02T10:57:09Z</time>
      </trkpt>
      <trkpt lat="53.957254271954298" lon="10.124589186161757">
        <ele>0</ele>
        <time>2010-01-02T10:57:34Z</time>
      </trkpt>
      <trkpt lat="53.956903237849474" lon="10.124652804806828">
        <ele>0</ele>
        <time>2010-01-02T10:57:48Z</time>
      </trkpt>
      <trkpt lat="53.956491854041815" lon="10.124643249437213">
        <ele>0</ele>
        <time>2010-01-02T10:58:05Z</time>
      </trkpt>
      <trkpt lat="53.956278869882226" lon="10.124555323272943">
        <ele>0</ele>
        <time>2010-01-02T10:58:13Z</time>
      </trkpt>
      <trkpt lat="53.956099832430482" lon="10.124481897801161">
        <ele>0</ele>
        <time>2010-01-02T10:58:21Z</time>
      </trkpt>
      <trkpt lat="53.955724909901619" lon="10.124316439032555">
        <ele>0</ele>
        <time>2010-01-02T10:58:36Z</time>
      </trkpt>
      <trkpt lat="53.955470267683268" lon="10.124241756275296">
        <ele>0</ele>
        <time>2010-01-02T10:58:47Z</time>
      </trkpt>
      <trkpt lat="53.955207914113998" lon="10.124259861186147">
        <ele>0</ele>
        <time>2010-01-02T10:58:57Z</time>
      </trkpt>
      <trkpt lat="53.955125017091632" lon="10.124280480667949">
        <ele>0</ele>
        <time>2010-01-02T10:59:01Z</time>
      </trkpt>
      <trkpt lat="53.954856628552079" lon="10.124349379912019">
        <ele>0</ele>
        <time>2010-01-02T10:59:11Z</time>
      </trkpt>
      <trkpt lat="53.954804409295321" lon="10.124366311356425">
        <ele>0</ele>
        <time>2010-01-02T10:59:14Z</time>
      </trkpt>
      <trkpt lat="53.954697120934725" lon="10.124398414045572">
        <ele>0</ele>
        <time>2010-01-02T10:59:18Z</time>
      </trkpt>
      <trkpt lat="53.954554796218872" lon="10.124441832304001">
        <ele>0</ele>
        <time>2010-01-02T10:59:24Z</time>
      </trkpt>
      <trkpt lat="53.954244079068303" lon="10.124422805383801">
        <ele>0</ele>
        <time>2010-01-02T10:59:36Z</time>
      </trkpt>
      <trkpt lat="53.954018857330084" lon="10.124389361590147">
        <ele>0</ele>
        <time>2010-01-02T10:59:45Z</time>
      </trkpt>
      <trkpt lat="53.953914837911725" lon="10.12437435798347">
        <ele>0</ele>
        <time>2010-01-02T10:59:49Z</time>
      </trkpt>
      <trkpt lat="53.953524408861995" lon="10.124328760430217">
        <ele>0</ele>
        <time>2010-01-02T11:00:05Z</time>
      </trkpt>
      <trkpt lat="53.953247219324112" lon="10.124209988862276">
        <ele>0</ele>
        <time>2010-01-02T11:00:17Z</time>
      </trkpt>
      <trkpt lat="53.95316013135016" lon="10.124172773212194">
        <ele>0</ele>
        <time>2010-01-02T11:00:20Z</time>
      </trkpt>
      <trkpt lat="53.952722009271383" lon="10.123911844566464">
        <ele>0</ele>
        <time>2010-01-02T11:00:39Z</time>
      </trkpt>
      <trkpt lat="53.952687224373221" lon="10.123878484591842">
        <ele>0</ele>
        <time>2010-01-02T11:00:40Z</time>
      </trkpt>
      <trkpt lat="53.952390505000949" lon="10.123652340844274">
        <ele>0</ele>
        <time>2010-01-02T11:00:53Z</time>
      </trkpt>
      <trkpt lat="53.952364604920149" lon="10.123636415228248">
        <ele>0</ele>
        <time>2010-01-02T11:00:54Z</time>
      </trkpt>
      <trkpt lat="53.951926147565246" lon="10.123441871255636">
        <ele>0</ele>
        <time>2010-01-02T11:01:13Z</time>
      </trkpt>
      <trkpt lat="53.951842663809657" lon="10.123435081914067">
        <ele>0</ele>
        <time>2010-01-02T11:01:16Z</time>
      </trkpt>
      <trkpt lat="53.951332038268447" lon="10.123369535431266">
        <ele>0</ele>
        <time>2010-01-02T11:01:36Z</time>
      </trkpt>
      <trkpt lat="53.950813869014382" lon="10.123338857665658">
        <ele>0</ele>
        <time>2010-01-02T11:01:57Z</time>
      </trkpt>
      <trkpt lat="53.94984332844615" lon="10.123268533498049">
        <ele>0</ele>
        <time>2010-01-02T11:02:36Z</time>
      </trkpt>
      <trkpt lat="53.949738470837474" lon="10.123337348923087">
        <ele>0</ele>
        <time>2010-01-02T11:02:41Z</time>
      </trkpt>
      <trkpt lat="53.949785996228456" lon="10.123821487650275">
        <ele>0</ele>
        <time>2010-01-02T11:02:52Z</time>
      </trkpt>
      <trkpt lat="53.949897726997733" lon="10.124653140082955">
        <ele>0</ele>
        <time>2010-01-02T11:03:12Z</time>
      </trkpt>
      <trkpt lat="53.950135186314583" lon="10.126065406948328">
        <ele>0</ele>
        <time>2010-01-02T11:03:47Z</time>
      </trkpt>
      <trkpt lat="53.950416818261147" lon="10.128126349300146">
        <ele>0</ele>
        <time>2010-01-02T11:04:37Z</time>
      </trkpt>
      <trkpt lat="53.950680177658796" lon="10.129932397976518">
        <ele>0</ele>
        <time>2010-01-02T11:05:20Z</time>
      </trkpt>
      <trkpt lat="53.951178314164281" lon="10.133412815630436">
        <ele>0</ele>
        <time>2010-01-02T11:06:45Z</time>
      </trkpt>
      <trkpt lat="53.951423736289144" lon="10.135113336145878">
        <ele>0</ele>
        <time>2010-01-02T11:07:26Z</time>
      </trkpt>
      <trkpt lat="53.951650885865092" lon="10.136371711269021">
        <ele>0</ele>
        <time>2010-01-02T11:07:57Z</time>
      </trkpt>
      <trkpt lat="53.952185902744532" lon="10.139070264995098">
        <ele>0</ele>
        <time>2010-01-02T11:09:04Z</time>
      </trkpt>
      <trkpt lat="53.951689107343554" lon="10.139347705990076">
        <ele>0</ele>
        <time>2010-01-02T11:09:25Z</time>
      </trkpt>
      <trkpt lat="53.951206225901842" lon="10.139674181118608">
        <ele>0</ele>
        <time>2010-01-02T11:09:46Z</time>
      </trkpt>
      <trkpt lat="53.950866758823395" lon="10.139941899105906">
        <ele>0</ele>
        <time>2010-01-02T11:10:01Z</time>
      </trkpt>
      <trkpt lat="53.950847731903195" lon="10.139956902712584">
        <ele>0</ele>
        <time>2010-01-02T11:10:02Z</time>
      </trkpt>
      <trkpt lat="53.950499296188354" lon="10.140221603214741">
        <ele>0</ele>
        <time>2010-01-02T11:10:17Z</time>
      </trkpt>
      <trkpt lat="53.950201235711575" lon="10.140478508546948">
        <ele>0</ele>
        <time>2010-01-02T11:10:30Z</time>
      </trkpt>
      <trkpt lat="53.949922872707248" lon="10.140756200999022">
        <ele>0</ele>
        <time>2010-01-02T11:10:43Z</time>
      </trkpt>
      <trkpt lat="53.949880125001073" lon="10.140798697248101">
        <ele>0</ele>
        <time>2010-01-02T11:10:45Z</time>
      </trkpt>
      <trkpt lat="53.949577454477549" lon="10.141168171539903">
        <ele>0</ele>
        <time>2010-01-02T11:11:00Z</time>
      </trkpt>
      <trkpt lat="53.94932683557272" lon="10.141483834013343">
        <ele>0</ele>
        <time>2010-01-02T11:11:13Z</time>
      </trkpt>
      <trkpt lat="53.949230527505279" lon="10.141615262255073">
        <ele>0</ele>
        <time>2010-01-02T11:11:18Z</time>
      </trkpt>
      <trkpt lat="53.949152324348688" lon="10.14174610376358">
        <ele>0</ele>
        <time>2010-01-02T11:11:22Z</time>
      </trkpt>
      <trkpt lat="53.948784610256553" lon="10.141865462064743">
        <ele>0</ele>
        <time>2010-01-02T11:11:37Z</time>
      </trkpt>
      <trkpt lat="53.948497110977769" lon="10.141959674656391">
        <ele>0</ele>
        <time>2010-01-02T11:11:49Z</time>
      </trkpt>
      <trkpt lat="53.948396192863584" lon="10.14198892749846">
        <ele>0</ele>
        <time>2010-01-02T11:11:53Z</time>
      </trkpt>
      <trkpt lat="53.9477529656142" lon="10.142170898616314">
        <ele>0</ele>
        <time>2010-01-02T11:12:19Z</time>
      </trkpt>
      <trkpt lat="53.947391118854284" lon="10.142333088442683">
        <ele>0</ele>
        <time>2010-01-02T11:12:34Z</time>
      </trkpt>
      <trkpt lat="53.947108397260308" lon="10.142485303804278">
        <ele>0</ele>
        <time>2010-01-02T11:12:46Z</time>
      </trkpt>
      <trkpt lat="53.946521664038301" lon="10.142965754494071">
        <ele>0</ele>
        <time>2010-01-02T11:13:12Z</time>
      </trkpt>
      <trkpt lat="53.946109609678388" lon="10.14330480247736">
        <ele>0</ele>
        <time>2010-01-02T11:13:30Z</time>
      </trkpt>
      <trkpt lat="53.945346185937524" lon="10.144024137407541">
        <ele>0</ele>
        <time>2010-01-02T11:14:05Z</time>
      </trkpt>
      <trkpt lat="53.944969167932868" lon="10.144364107400179">
        <ele>0</ele>
        <time>2010-01-02T11:14:22Z</time>
      </trkpt>
      <trkpt lat="53.944425601512194" lon="10.144835002720356">
        <ele>0</ele>
        <time>2010-01-02T11:14:47Z</time>
      </trkpt>
      <trkpt lat="53.943766113370657" lon="10.145398769527674">
        <ele>0</ele>
        <time>2010-01-02T11:15:16Z</time>
      </trkpt>
      <trkpt lat="53.942899256944656" lon="10.14613495208323">
        <ele>0</ele>
        <time>2010-01-02T11:15:55Z</time>
      </trkpt>
      <trkpt lat="53.94246406853199" lon="10.146538792178035">
        <ele>0</ele>
        <time>2010-01-02T11:16:15Z</time>
      </trkpt>
      <trkpt lat="53.94117166288197" lon="10.147709408774972">
        <ele>0</ele>
        <time>2010-01-02T11:17:13Z</time>
      </trkpt>
      <trkpt lat="53.939618496224284" lon="10.149175906553864">
        <ele>0</ele>
        <time>2010-01-02T11:18:25Z</time>
      </trkpt>
      <trkpt lat="53.939618496224284" lon="10.149175906553864">
        <ele>0</ele>
        <time>2010-01-01T22:42:22Z</time>
      </trkpt>
      <trkpt lat="53.938356516882777" lon="10.150635112076998">
        <ele>0</ele>
        <time>2010-01-01T22:41:21Z</time>
      </trkpt>
      <trkpt lat="53.936114190146327" lon="10.153315812349319">
        <ele>0</ele>
        <time>2010-01-01T22:39:31Z</time>
      </trkpt>
      <trkpt lat="53.934799488633871" lon="10.15483109280467">
        <ele>0</ele>
        <time>2010-01-01T22:38:27Z</time>
      </trkpt>
      <trkpt lat="53.933751499280334" lon="10.156076559796929">
        <ele>0</ele>
        <time>2010-01-01T22:37:36Z</time>
      </trkpt>
      <trkpt lat="53.932880787178874" lon="10.157022373750806">
        <ele>0</ele>
        <time>2010-01-01T22:36:55Z</time>
      </trkpt>
      <trkpt lat="53.932120716199279" lon="10.157849416136742">
        <ele>0</ele>
        <time>2010-01-01T22:36:19Z</time>
      </trkpt>
      <trkpt lat="53.930138731375337" lon="10.160075230523944">
        <ele>0</ele>
        <time>2010-01-01T22:34:43Z</time>
      </trkpt>
      <trkpt lat="53.927191235125065" lon="10.163277285173535">
        <ele>0</ele>
        <time>2010-01-01T22:32:23Z</time>
      </trkpt>
      <trkpt lat="53.927008509635925" lon="10.163489850237966">
        <ele>0</ele>
        <time>2010-01-01T22:32:15Z</time>
      </trkpt>
      <trkpt lat="53.926787730306387" lon="10.163742564618587">
        <ele>0</ele>
        <time>2010-01-01T22:32:04Z</time>
      </trkpt>
      <trkpt lat="53.926572734490037" lon="10.164053197950125">
        <ele>0</ele>
        <time>2010-01-01T22:31:53Z</time>
      </trkpt>
      <trkpt lat="53.926341980695724" lon="10.164404567331076">
        <ele>0</ele>
        <time>2010-01-01T22:31:40Z</time>
      </trkpt>
      <trkpt lat="53.926162691786885" lon="10.164729868993163">
        <ele>0</ele>
        <time>2010-01-01T22:31:30Z</time>
      </trkpt>
      <trkpt lat="53.925923220813274" lon="10.165152568370104">
        <ele>0</ele>
        <time>2010-01-01T22:31:16Z</time>
      </trkpt>
      <trkpt lat="53.924977825954556" lon="10.166829619556665">
        <ele>0</ele>
        <time>2010-01-01T22:30:21Z</time>
      </trkpt>
      <trkpt lat="53.922624606639147" lon="10.170437106862664">
        <ele>0</ele>
        <time>2010-01-01T22:28:14Z</time>
      </trkpt>
      <trkpt lat="53.922168547287583" lon="10.171136744320393">
        <ele>0</ele>
        <time>2010-01-01T22:27:50Z</time>
      </trkpt>
      <trkpt lat="53.922000909224153" lon="10.171368001028895">
        <ele>0</ele>
        <time>2010-01-01T22:27:41Z</time>
      </trkpt>
      <trkpt lat="53.921860260888934" lon="10.171513259410858">
        <ele>0</ele>
        <time>2010-01-01T22:27:34Z</time>
      </trkpt>
      <trkpt lat="53.921701004728675" lon="10.171624487265944">
        <ele>0</ele>
        <time>2010-01-01T22:27:27Z</time>
      </trkpt>
      <trkpt lat="53.921574437990785" lon="10.171709228307009">
        <ele>0</ele>
        <time>2010-01-01T22:27:22Z</time>
      </trkpt>
      <trkpt lat="53.921430269256234" lon="10.171752395108342">
        <ele>0</ele>
        <time>2010-01-01T22:27:16Z</time>
      </trkpt>
      <trkpt lat="53.921367153525352" lon="10.171770416200161">
        <ele>0</ele>
        <time>2010-01-01T22:27:14Z</time>
      </trkpt>
      <trkpt lat="53.92124192789197" lon="10.171804949641228">
        <ele>0</ele>
        <time>2010-01-01T22:27:09Z</time>
      </trkpt>
      <trkpt lat="53.920829119160771" lon="10.171849709004164">
        <ele>0</ele>
        <time>2010-01-01T22:26:52Z</time>
      </trkpt>
      <trkpt lat="53.920464338734746" lon="10.171840991824865">
        <ele>0</ele>
        <time>2010-01-01T22:26:37Z</time>
      </trkpt>
      <trkpt lat="53.920490238815546" lon="10.17259368672967">
        <ele>0</ele>
        <time>2010-01-01T22:26:20Z</time>
      </trkpt>
      <trkpt lat="53.920332407578826" lon="10.172563344240189">
        <ele>0</ele>
        <time>2010-01-01T22:26:13Z</time>
      </trkpt>
      <trkpt lat="53.920127721503377" lon="10.172454128041863">
        <ele>0</ele>
        <time>2010-01-01T22:26:05Z</time>
      </trkpt>
      <trkpt lat="53.919622544199228" lon="10.172186074778438">
        <ele>0</ele>
        <time>2010-01-01T22:25:43Z</time>
      </trkpt>
      <trkpt lat="53.918893653899431" lon="10.171799417585135">
        <ele>0</ele>
        <time>2010-01-01T22:25:13Z</time>
      </trkpt>
      <trkpt lat="53.91751860268414" lon="10.171058289706707">
        <ele>0</ele>
        <time>2010-01-01T22:24:15Z</time>
      </trkpt>
      <trkpt lat="53.917289776727557" lon="10.170936249196529">
        <ele>0</ele>
        <time>2010-01-01T22:24:06Z</time>
      </trkpt>
      <trkpt lat="53.91709397546947" lon="10.170839438214898">
        <ele>0</ele>
        <time>2010-01-01T22:23:57Z</time>
      </trkpt>
      <trkpt lat="53.916922314092517" lon="10.17075696028769">
        <ele>0</ele>
        <time>2010-01-01T22:23:50Z</time>
      </trkpt>
      <trkpt lat="53.916778145357966" lon="10.170704238116741">
        <ele>0</ele>
        <time>2010-01-01T22:23:44Z</time>
      </trkpt>
      <trkpt lat="53.916642945259809" lon="10.170650258660316">
        <ele>0</ele>
        <time>2010-01-01T22:23:39Z</time>
      </trkpt>
      <trkpt lat="53.916446641087532" lon="10.170603655278683">
        <ele>0</ele>
        <time>2010-01-01T22:23:31Z</time>
      </trkpt>
      <trkpt lat="53.916411688551307" lon="10.170595021918416">
        <ele>0</ele>
        <time>2010-01-01T22:23:29Z</time>
      </trkpt>
      <trkpt lat="53.916083620861173" lon="10.170520422980189">
        <ele>0</ele>
        <time>2010-01-01T22:23:16Z</time>
      </trkpt>
      <trkpt lat="53.91533050686121" lon="10.170347169041634">
        <ele>0</ele>
        <time>2010-01-01T22:22:46Z</time>
      </trkpt>
      <trkpt lat="53.915038481354713" lon="10.170258320868015">
        <ele>0</ele>
        <time>2010-01-01T22:22:34Z</time>
      </trkpt>
      <trkpt lat="53.914932617917657" lon="10.170240132138133">
        <ele>0</ele>
        <time>2010-01-01T22:22:30Z</time>
      </trkpt>
      <trkpt lat="53.914832873269916" lon="10.170240383595228">
        <ele>0</ele>
        <time>2010-01-01T22:22:26Z</time>
      </trkpt>
      <trkpt lat="53.914706809446216" lon="10.170271899551153">
        <ele>0</ele>
        <time>2010-01-01T22:22:21Z</time>
      </trkpt>
      <trkpt lat="53.914128541946411" lon="10.170416990295053">
        <ele>0</ele>
        <time>2010-01-01T22:21:57Z</time>
      </trkpt>
      <trkpt lat="53.91277838498354" lon="10.170753607526422">
        <ele>0</ele>
        <time>2010-01-01T22:21:02Z</time>
      </trkpt>
      <trkpt lat="53.912728680297732" lon="10.17076576128602">
        <ele>0</ele>
        <time>2010-01-01T22:21:00Z</time>
      </trkpt>
      <trkpt lat="53.912031725049019" lon="10.17093968577683">
        <ele>0</ele>
        <time>2010-01-01T22:20:32Z</time>
      </trkpt>
      <trkpt lat="53.912197686731815" lon="10.173087129369378">
        <ele>0</ele>
        <time>2010-01-01T22:19:41Z</time>
      </trkpt>
      <trkpt lat="53.911731569096446" lon="10.173125602304935">
        <ele>0</ele>
        <time>2010-01-01T22:19:23Z</time>
      </trkpt>
      <trkpt lat="53.911473490297794" lon="10.173146976158023">
        <ele>0</ele>
        <time>2010-01-01T22:19:12Z</time>
      </trkpt>
      <trkpt lat="53.911386569961905" lon="10.173154100775719">
        <ele>0</ele>
        <time>2010-01-01T22:19:09Z</time>
      </trkpt>
      <trkpt lat="53.909123204648495" lon="10.173341771587729">
        <ele>0</ele>
        <time>2010-01-01T22:17:38Z</time>
      </trkpt>
      <trkpt lat="53.908052500337362" lon="10.17343757674098">
        <ele>0</ele>
        <time>2010-01-01T22:16:55Z</time>
      </trkpt>
      <trkpt lat="53.907786123454571" lon="10.173439672216773">
        <ele>0</ele>
        <time>2010-01-01T22:16:44Z</time>
      </trkpt>
      <trkpt lat="53.907714206725359" lon="10.173443779349327">
        <ele>0</ele>
        <time>2010-01-01T22:16:42Z</time>
      </trkpt>
      <trkpt lat="53.90766492113471" lon="10.17343170940876">
        <ele>0</ele>
        <time>2010-01-01T22:16:40Z</time>
      </trkpt>
      <trkpt lat="53.907576324418187" lon="10.173395751044154">
        <ele>0</ele>
        <time>2010-01-01T22:16:36Z</time>
      </trkpt>
      <trkpt lat="53.906234884634614" lon="10.17247105948627">
        <ele>0</ele>
        <time>2010-01-01T22:15:38Z</time>
      </trkpt>
      <trkpt lat="53.905122354626656" lon="10.171662289649248">
        <ele>0</ele>
        <time>2010-01-01T22:14:49Z</time>
      </trkpt>
      <trkpt lat="53.905042978003621" lon="10.17162817530334">
        <ele>0</ele>
        <time>2010-01-01T22:14:46Z</time>
      </trkpt>
      <trkpt lat="53.904958739876747" lon="10.171612836420536">
        <ele>0</ele>
        <time>2010-01-01T22:14:43Z</time>
      </trkpt>
      <trkpt lat="53.904859498143196" lon="10.171632282435894">
        <ele>0</ele>
        <time>2010-01-01T22:14:39Z</time>
      </trkpt>
      <trkpt lat="53.902406869456172" lon="10.172517411410809">
        <ele>0</ele>
        <time>2010-01-01T22:12:58Z</time>
      </trkpt>
      <trkpt lat="53.902249876409769" lon="10.172576922923326">
        <ele>0</ele>
        <time>2010-01-01T22:12:52Z</time>
      </trkpt>
      <trkpt lat="53.902178881689906" lon="10.172582119703293">
        <ele>0</ele>
        <time>2010-01-01T22:12:49Z</time>
      </trkpt>
      <trkpt lat="53.902093134820461" lon="10.172584885731339">
        <ele>0</ele>
        <time>2010-01-01T22:12:46Z</time>
      </trkpt>
      <trkpt lat="53.901992384344339" lon="10.172561332583427">
        <ele>0</ele>
        <time>2010-01-01T22:12:42Z</time>
      </trkpt>
      <trkpt lat="53.901890376582742" lon="10.172498971223831">
        <ele>0</ele>
        <time>2010-01-01T22:12:37Z</time>
      </trkpt>
      <trkpt lat="53.901790045201778" lon="10.172428982332349">
        <ele>0</ele>
        <time>2010-01-01T22:12:33Z</time>
      </trkpt>
      <trkpt lat="53.901670016348362" lon="10.172337032854557">
        <ele>0</ele>
        <time>2010-01-01T22:12:28Z</time>
      </trkpt>
      <trkpt lat="53.901644954457879" lon="10.172325717285275">
        <ele>0</ele>
        <time>2010-01-01T22:12:27Z</time>
      </trkpt>
      <trkpt lat="53.90159223228693" lon="10.172299901023507">
        <ele>0</ele>
        <time>2010-01-01T22:12:24Z</time>
      </trkpt>
      <trkpt lat="53.901491900905967" lon="10.172271151095629">
        <ele>0</ele>
        <time>2010-01-01T22:12:20Z</time>
      </trkpt>
      <trkpt lat="53.901326609775424" lon="10.172265032306314">
        <ele>0</ele>
        <time>2010-01-01T22:12:14Z</time>
      </trkpt>
      <trkpt lat="53.897252585738897" lon="10.173206739127636">
        <ele>0</ele>
        <time>2010-01-01T22:09:29Z</time>
      </trkpt>
      <trkpt lat="53.896861905232072" lon="10.17364913597703">
        <ele>0</ele>
        <time>2010-01-01T22:09:10Z</time>
      </trkpt>
      <trkpt lat="53.896768279373646" lon="10.173759022727609">
        <ele>0</ele>
        <time>2010-01-01T22:09:06Z</time>
      </trkpt>
      <trkpt lat="53.896667780354619" lon="10.173838399350643">
        <ele>0</ele>
        <time>2010-01-01T22:09:01Z</time>
      </trkpt>
      <trkpt lat="53.896569376811385" lon="10.17388123087585">
        <ele>0</ele>
        <time>2010-01-01T22:08:57Z</time>
      </trkpt>
      <trkpt lat="53.896431745961308" lon="10.173904951661825">
        <ele>0</ele>
        <time>2010-01-01T22:08:52Z</time>
      </trkpt>
      <trkpt lat="53.896014494821429" lon="10.173932611942291">
        <ele>0</ele>
        <time>2010-01-01T22:08:35Z</time>
      </trkpt>
      <trkpt lat="53.895897399634123" lon="10.173965888097882">
        <ele>0</ele>
        <time>2010-01-01T22:08:30Z</time>
      </trkpt>
      <trkpt lat="53.895840235054493" lon="10.174020538106561">
        <ele>0</ele>
        <time>2010-01-01T22:08:28Z</time>
      </trkpt>
      <trkpt lat="53.895801343023777" lon="10.174141153693199">
        <ele>0</ele>
        <time>2010-01-01T22:08:24Z</time>
      </trkpt>
      <trkpt lat="53.895443435758352" lon="10.175914010033011">
        <ele>0</ele>
        <time>2010-01-01T22:07:40Z</time>
      </trkpt>
      <trkpt lat="53.895408315584064" lon="10.176100172102451">
        <ele>0</ele>
        <time>2010-01-01T22:07:36Z</time>
      </trkpt>
      <trkpt lat="53.895362634211779" lon="10.176269235089421">
        <ele>0</ele>
        <time>2010-01-01T22:07:31Z</time>
      </trkpt>
      <trkpt lat="53.895296417176723" lon="10.17642555758357">
        <ele>0</ele>
        <time>2010-01-01T22:07:27Z</time>
      </trkpt>
      <trkpt lat="53.895204216241837" lon="10.176576599478722">
        <ele>0</ele>
        <time>2010-01-01T22:07:22Z</time>
      </trkpt>
      <trkpt lat="53.895058622583747" lon="10.176764186471701">
        <ele>0</ele>
        <time>2010-01-01T22:07:14Z</time>
      </trkpt>
      <trkpt lat="53.894952004775405" lon="10.176546759903431">
        <ele>0</ele>
        <time>2010-01-01T22:07:08Z</time>
      </trkpt>
      <trkpt lat="53.89486969448626" lon="10.176422707736492">
        <ele>0</ele>
        <time>2010-01-01T22:07:03Z</time>
      </trkpt>
      <trkpt lat="53.894787048920989" lon="10.176324555650353">
        <ele>0</ele>
        <time>2010-01-01T22:06:59Z</time>
      </trkpt>
      <trkpt lat="53.894622093066573" lon="10.176195139065385">
        <ele>0</ele>
        <time>2010-01-01T22:06:52Z</time>
      </trkpt>
      <trkpt lat="53.894499549642205" lon="10.176141578704119">
        <ele>0</ele>
        <time>2010-01-01T22:06:47Z</time>
      </trkpt>
      <trkpt lat="53.894374826923013" lon="10.176124311983585">
        <ele>0</ele>
        <time>2010-01-01T22:06:42Z</time>
      </trkpt>
      <trkpt lat="53.894233759492636" lon="10.176124898716807">
        <ele>0</ele>
        <time>2010-01-01T22:06:36Z</time>
      </trkpt>
      <trkpt lat="53.893962018191814" lon="10.176169071346521">
        <ele>0</ele>
        <time>2010-01-01T22:06:25Z</time>
      </trkpt>
      <trkpt lat="53.893113518133759" lon="10.176286669448018">
        <ele>0</ele>
        <time>2010-01-01T22:05:51Z</time>
      </trkpt>
      <trkpt lat="53.89315215870738" lon="10.176747171208262">
        <ele>0</ele>
        <time>2010-01-01T22:05:40Z</time>
      </trkpt>
      <trkpt lat="53.893167246133089" lon="10.176945319399238">
        <ele>0</ele>
        <time>2010-01-01T22:05:35Z</time>
      </trkpt>
      <trkpt lat="53.893173448741436" lon="10.177135588601232">
        <ele>0</ele>
        <time>2010-01-01T22:05:31Z</time>
      </trkpt>
      <trkpt lat="53.893211921676993" lon="10.177343543618917">
        <ele>0</ele>
        <time>2010-01-01T22:05:26Z</time>
      </trkpt>
      <trkpt lat="53.893383666872978" lon="10.178148541599512">
        <ele>0</ele>
        <time>2010-01-01T22:05:06Z</time>
      </trkpt>
      <trkpt lat="53.893418200314045" lon="10.17829405143857">
        <ele>0</ele>
        <time>2010-01-01T22:05:02Z</time>
      </trkpt>
      <trkpt lat="53.893454661592841" lon="10.178422881290317">
        <ele>0</ele>
        <time>2010-01-01T22:04:59Z</time>
      </trkpt>
      <trkpt lat="53.893503611907363" lon="10.178562607616186">
        <ele>0</ele>
        <time>2010-01-01T22:04:55Z</time>
      </trkpt>
      <trkpt lat="53.893544767051935" lon="10.178644079715014">
        <ele>0</ele>
        <time>2010-01-01T22:04:52Z</time>
      </trkpt>
      <trkpt lat="53.893570583313704" lon="10.178695376962423">
        <ele>0</ele>
        <time>2010-01-01T22:04:51Z</time>
      </trkpt>
      <trkpt lat="53.893735371530056" lon="10.179027048870921">
        <ele>0</ele>
        <time>2010-01-01T22:04:40Z</time>
      </trkpt>
      <trkpt lat="53.893776442855597" lon="10.179139282554388">
        <ele>0</ele>
        <time>2010-01-01T22:04:37Z</time>
      </trkpt>
      <trkpt lat="53.893790356814861" lon="10.179181443527341">
        <ele>0</ele>
        <time>2010-01-01T22:04:36Z</time>
      </trkpt>
      <trkpt lat="53.893802678212523" lon="10.179219078272581">
        <ele>0</ele>
        <time>2010-01-01T22:04:35Z</time>
      </trkpt>
      <trkpt lat="53.893832853063941" lon="10.179344639182091">
        <ele>0</ele>
        <time>2010-01-01T22:04:32Z</time>
      </trkpt>
      <trkpt lat="53.893853472545743" lon="10.179442623630166">
        <ele>0</ele>
        <time>2010-01-01T22:04:29Z</time>
      </trkpt>
      <trkpt lat="53.893868727609515" lon="10.179553348571062">
        <ele>0</ele>
        <time>2010-01-01T22:04:27Z</time>
      </trkpt>
      <trkpt lat="53.894317578524351" lon="10.184411751106381">
        <ele>0</ele>
        <time>2010-01-01T22:02:31Z</time>
      </trkpt>
      <trkpt lat="53.894358314573765" lon="10.184650216251612">
        <ele>0</ele>
        <time>2010-01-01T22:02:25Z</time>
      </trkpt>
      <trkpt lat="53.894411707296968" lon="10.184703441336751">
        <ele>0</ele>
        <time>2010-01-01T22:02:22Z</time>
      </trkpt>
      <trkpt lat="53.89594760723412" lon="10.184217542409897">
        <ele>0</ele>
        <time>2010-01-01T22:01:20Z</time>
      </trkpt>
      <trkpt lat="53.896131841465831" lon="10.185033604502678">
        <ele>0</ele>
        <time>2010-01-01T22:00:59Z</time>
      </trkpt>
      <trkpt lat="53.896230831742287" lon="10.185465356335044">
        <ele>0</ele>
        <time>2010-01-01T22:00:48Z</time>
      </trkpt>
      <trkpt lat="53.896374916657805" lon="10.185999954119325">
        <ele>0</ele>
        <time>2010-01-01T22:00:34Z</time>
      </trkpt>
      <trkpt lat="53.896747659891844" lon="10.187383638694882">
        <ele>0</ele>
        <time>2010-01-01T21:59:59Z</time>
      </trkpt>
      <trkpt lat="53.896847320720553" lon="10.187785802409053">
        <ele>0</ele>
        <time>2010-01-01T21:59:48Z</time>
      </trkpt>
      <trkpt lat="53.896908592432737" lon="10.188035918399692">
        <ele>0</ele>
        <time>2010-01-01T21:59:42Z</time>
      </trkpt>
      <trkpt lat="53.896947568282485" lon="10.188207579776645">
        <ele>0</ele>
        <time>2010-01-01T21:59:38Z</time>
      </trkpt>
      <trkpt lat="53.896979670971632" lon="10.188373290002346">
        <ele>0</ele>
        <time>2010-01-01T21:59:33Z</time>
      </trkpt>
      <trkpt lat="53.8969986140728" lon="10.188508406281471">
        <ele>0</ele>
        <time>2010-01-01T21:59:30Z</time>
      </trkpt>
      <trkpt lat="53.897044630721211" lon="10.188791211694479">
        <ele>0</ele>
        <time>2010-01-01T21:59:23Z</time>
      </trkpt>
      <trkpt lat="53.897732114419341" lon="10.193370161578059">
        <ele>0</ele>
        <time>2010-01-01T21:57:32Z</time>
      </trkpt>
      <trkpt lat="53.897765558212996" lon="10.193612985312939">
        <ele>0</ele>
        <time>2010-01-01T21:57:26Z</time>
      </trkpt>
      <trkpt lat="53.897788105532527" lon="10.193785568699241">
        <ele>0</ele>
        <time>2010-01-01T21:57:22Z</time>
      </trkpt>
      <trkpt lat="53.897814257070422" lon="10.193962762132287">
        <ele>0</ele>
        <time>2010-01-01T21:57:17Z</time>
      </trkpt>
      <trkpt lat="53.897830685600638" lon="10.194203574210405">
        <ele>0</ele>
        <time>2010-01-01T21:57:12Z</time>
      </trkpt>
      <trkpt lat="53.898155735805631" lon="10.197474611923099">
        <ele>0</ele>
        <time>2010-01-01T21:55:53Z</time>
      </trkpt>
      <trkpt lat="53.898652531206608" lon="10.202246177941561">
        <ele>0</ele>
        <time>2010-01-01T21:53:59Z</time>
      </trkpt>
      <trkpt lat="53.898680275306106" lon="10.202519260346889">
        <ele>0</ele>
        <time>2010-01-01T21:53:53Z</time>
      </trkpt>
      <trkpt lat="53.898713635280728" lon="10.202777339145541">
        <ele>0</ele>
        <time>2010-01-01T21:53:46Z</time>
      </trkpt>
      <trkpt lat="53.898794520646334" lon="10.20332065410912">
        <ele>0</ele>
        <time>2010-01-01T21:53:33Z</time>
      </trkpt>
      <trkpt lat="53.898823522031307" lon="10.203562472015619">
        <ele>0</ele>
        <time>2010-01-01T21:53:27Z</time>
      </trkpt>
      <trkpt lat="53.898847410455346" lon="10.203736899420619">
        <ele>0</ele>
        <time>2010-01-01T21:53:23Z</time>
      </trkpt>
      <trkpt lat="53.898875908926129" lon="10.204012328758836">
        <ele>0</ele>
        <time>2010-01-01T21:53:17Z</time>
      </trkpt>
      <trkpt lat="53.898974815383554" lon="10.205313367769122">
        <ele>0</ele>
        <time>2010-01-01T21:52:46Z</time>
      </trkpt>
      <trkpt lat="53.899043127894402" lon="10.205672867596149">
        <ele>0</ele>
        <time>2010-01-01T21:52:37Z</time>
      </trkpt>
      <trkpt lat="53.89905720949173" lon="10.20587713457644">
        <ele>0</ele>
        <time>2010-01-01T21:52:32Z</time>
      </trkpt>
      <trkpt lat="53.899351665750146" lon="10.210364554077387">
        <ele>0</ele>
        <time>2010-01-01T21:50:45Z</time>
      </trkpt>
      <trkpt lat="53.899346804246306" lon="10.210487684234977">
        <ele>0</ele>
        <time>2010-01-01T21:50:42Z</time>
      </trkpt>
      <trkpt lat="53.899333560839295" lon="10.210644006729126">
        <ele>0</ele>
        <time>2010-01-01T21:50:39Z</time>
      </trkpt>
      <trkpt lat="53.89930933713913" lon="10.210906527936459">
        <ele>0</ele>
        <time>2010-01-01T21:50:32Z</time>
      </trkpt>
      <trkpt lat="53.89912711456418" lon="10.212229359894991">
        <ele>0</ele>
        <time>2010-01-01T21:50:00Z</time>
      </trkpt>
      <trkpt lat="53.894288325682282" lon="10.213151033967733">
        <ele>0</ele>
        <time>2010-01-01T21:46:45Z</time>
      </trkpt>
      <trkpt lat="53.894139630720019" lon="10.213189339265227">
        <ele>0</ele>
        <time>2010-01-01T21:46:39Z</time>
      </trkpt>
      <trkpt lat="53.894040137529373" lon="10.213253377005458">
        <ele>0</ele>
        <time>2010-01-01T21:46:35Z</time>
      </trkpt>
      <trkpt lat="53.893697485327721" lon="10.213555293157697">
        <ele>0</ele>
        <time>2010-01-01T21:46:20Z</time>
      </trkpt>
      <trkpt lat="53.893398167565465" lon="10.21383105777204">
        <ele>0</ele>
        <time>2010-01-01T21:46:06Z</time>
      </trkpt>
      <trkpt lat="53.892755107954144" lon="10.214423909783363">
        <ele>0</ele>
        <time>2010-01-01T21:45:37Z</time>
      </trkpt>
      <trkpt lat="53.892702553421259" lon="10.21447260864079">
        <ele>0</ele>
        <time>2010-01-01T21:45:34Z</time>
      </trkpt>
      <trkpt lat="53.892432656139135" lon="10.214680815115571">
        <ele>0</ele>
        <time>2010-01-01T21:45:23Z</time>
      </trkpt>
      <trkpt lat="53.892166782170534" lon="10.214846441522241">
        <ele>0</ele>
        <time>2010-01-01T21:45:11Z</time>
      </trkpt>
      <trkpt lat="53.891662359237671" lon="10.21515129134059">
        <ele>0</ele>
        <time>2010-01-01T21:44:50Z</time>
      </trkpt>
      <trkpt lat="53.890737667679787" lon="10.215072752907872">
        <ele>0</ele>
        <time>2010-01-01T21:44:13Z</time>
      </trkpt>
      <trkpt lat="53.890630295500159" lon="10.215028580278158">
        <ele>0</ele>
        <time>2010-01-01T21:44:08Z</time>
      </trkpt>
      <trkpt lat="53.890521079301834" lon="10.214987341314554">
        <ele>0</ele>
        <time>2010-01-01T21:44:04Z</time>
      </trkpt>
      <trkpt lat="53.89043147675693" lon="10.214967979118228">
        <ele>0</ele>
        <time>2010-01-01T21:44:00Z</time>
      </trkpt>
      <trkpt lat="53.89032200910151" lon="10.214955741539598">
        <ele>0</ele>
        <time>2010-01-01T21:43:56Z</time>
      </trkpt>
      <trkpt lat="53.890208518132567" lon="10.214976780116558">
        <ele>0</ele>
        <time>2010-01-01T21:43:51Z</time>
      </trkpt>
      <trkpt lat="53.890078850090504" lon="10.215010978281498">
        <ele>0</ele>
        <time>2010-01-01T21:43:46Z</time>
      </trkpt>
      <trkpt lat="53.889897465705872" lon="10.215087840333581">
        <ele>0</ele>
        <time>2010-01-01T21:43:39Z</time>
      </trkpt>
      <trkpt lat="53.889602171257138" lon="10.215226812288165">
        <ele>0</ele>
        <time>2010-01-01T21:43:26Z</time>
      </trkpt>
      <trkpt lat="53.889344930648804" lon="10.215348685160279">
        <ele>0</ele>
        <time>2010-01-01T21:43:16Z</time>
      </trkpt>
      <trkpt lat="53.889231104403734" lon="10.215403167530894">
        <ele>0</ele>
        <time>2010-01-01T21:43:11Z</time>
      </trkpt>
      <trkpt lat="53.889199588447809" lon="10.215411381796002">
        <ele>0</ele>
        <time>2010-01-01T21:43:10Z</time>
      </trkpt>
      <trkpt lat="53.889169916510582" lon="10.21541808731854">
        <ele>0</ele>
        <time>2010-01-01T21:43:08Z</time>
      </trkpt>
      <trkpt lat="53.889111327007413" lon="10.21543619222939">
        <ele>0</ele>
        <time>2010-01-01T21:43:06Z</time>
      </trkpt>
      <trkpt lat="53.889036728069186" lon="10.21543862298131">
        <ele>0</ele>
        <time>2010-01-01T21:43:03Z</time>
      </trkpt>
      <trkpt lat="53.889026837423444" lon="10.215438287705183">
        <ele>0</ele>
        <time>2010-01-01T21:43:03Z</time>
      </trkpt>
      <trkpt lat="53.888725759461522" lon="10.215444741770625">
        <ele>0</ele>
        <time>2010-01-01T21:42:51Z</time>
      </trkpt>
      <trkpt lat="53.888247655704618" lon="10.215452201664448">
        <ele>0</ele>
        <time>2010-01-01T21:42:31Z</time>
      </trkpt>
      <trkpt lat="53.887671651318669" lon="10.215461337938905">
        <ele>0</ele>
        <time>2010-01-01T21:42:08Z</time>
      </trkpt>
      <trkpt lat="53.887215759605169" lon="10.215492183342576">
        <ele>0</ele>
        <time>2010-01-01T21:41:50Z</time>
      </trkpt>
      <trkpt lat="53.88708877377212" lon="10.215521939098835">
        <ele>0</ele>
        <time>2010-01-01T21:41:45Z</time>
      </trkpt>
      <trkpt lat="53.887031860649586" lon="10.215555299073458">
        <ele>0</ele>
        <time>2010-01-01T21:41:43Z</time>
      </trkpt>
      <trkpt lat="53.886993387714028" lon="10.215622605755925">
        <ele>0</ele>
        <time>2010-01-01T21:41:40Z</time>
      </trkpt>
      <trkpt lat="53.886750731617212" lon="10.216073384508491">
        <ele>0</ele>
        <time>2010-01-01T21:41:26Z</time>
      </trkpt>
      <trkpt lat="53.886522492393851" lon="10.216518463566899">
        <ele>0</ele>
        <time>2010-01-01T21:41:12Z</time>
      </trkpt>
      <trkpt lat="53.885960318148136" lon="10.2176443208009">
        <ele>0</ele>
        <time>2010-01-01T21:40:37Z</time>
      </trkpt>
      <trkpt lat="53.885850012302399" lon="10.217888988554478">
        <ele>0</ele>
        <time>2010-01-01T21:40:30Z</time>
      </trkpt>
      <trkpt lat="53.885793266817927" lon="10.217990828678012">
        <ele>0</ele>
        <time>2010-01-01T21:40:27Z</time>
      </trkpt>
      <trkpt lat="53.885754039511085" lon="10.218050507828593">
        <ele>0</ele>
        <time>2010-01-01T21:40:24Z</time>
      </trkpt>
      <trkpt lat="53.885689247399569" lon="10.218057716265321">
        <ele>0</ele>
        <time>2010-01-01T21:40:22Z</time>
      </trkpt>
      <trkpt lat="53.885551784187555" lon="10.218055285513401">
        <ele>0</ele>
        <time>2010-01-01T21:40:16Z</time>
      </trkpt>
      <trkpt lat="53.884810321033001" lon="10.218073222786188">
        <ele>0</ele>
        <time>2010-01-01T21:39:47Z</time>
      </trkpt>
      <trkpt lat="53.884223503991961" lon="10.218082023784518">
        <ele>0</ele>
        <time>2010-01-01T21:39:23Z</time>
      </trkpt>
      <trkpt lat="53.883732073009014" lon="10.218076827004552">
        <ele>0</ele>
        <time>2010-01-01T21:39:04Z</time>
      </trkpt>
      <trkpt lat="53.883198397234082" lon="10.218071965500712">
        <ele>0</ele>
        <time>2010-01-01T21:38:42Z</time>
      </trkpt>
      <trkpt lat="53.883064370602369" lon="10.218080263584852">
        <ele>0</ele>
        <time>2010-01-01T21:38:37Z</time>
      </trkpt>
      <trkpt lat="53.882908215746284" lon="10.218157796189189">
        <ele>0</ele>
        <time>2010-01-01T21:38:30Z</time>
      </trkpt>
      <trkpt lat="53.882750468328595" lon="10.218300707638264">
        <ele>0</ele>
        <time>2010-01-01T21:38:23Z</time>
      </trkpt>
      <trkpt lat="53.88198209926486" lon="10.218930775299668">
        <ele>0</ele>
        <time>2010-01-01T21:37:49Z</time>
      </trkpt>
      <trkpt lat="53.881287071853876" lon="10.219506695866585">
        <ele>0</ele>
        <time>2010-01-01T21:37:18Z</time>
      </trkpt>
      <trkpt lat="53.880984233692288" lon="10.219780700281262">
        <ele>0</ele>
        <time>2010-01-01T21:37:04Z</time>
      </trkpt>
      <trkpt lat="53.880498837679625" lon="10.22023499943316">
        <ele>0</ele>
        <time>2010-01-01T21:36:42Z</time>
      </trkpt>
      <trkpt lat="53.879985529929399" lon="10.220703631639481">
        <ele>0</ele>
        <time>2010-01-01T21:36:19Z</time>
      </trkpt>
      <trkpt lat="53.879618067294359" lon="10.221053324639797">
        <ele>0</ele>
        <time>2010-01-01T21:36:02Z</time>
      </trkpt>
      <trkpt lat="53.879314139485359" lon="10.221347026526928">
        <ele>0</ele>
        <time>2010-01-01T21:35:48Z</time>
      </trkpt>
      <trkpt lat="53.879276840016246" lon="10.221383990719914">
        <ele>0</ele>
        <time>2010-01-01T21:35:46Z</time>
      </trkpt>
      <trkpt lat="53.878862271085382" lon="10.221771821379662">
        <ele>0</ele>
        <time>2010-01-01T21:35:27Z</time>
      </trkpt>
      <trkpt lat="53.878524983301759" lon="10.222072144970298">
        <ele>0</ele>
        <time>2010-01-01T21:35:12Z</time>
      </trkpt>
      <trkpt lat="53.878021650016308" lon="10.222527366131544">
        <ele>0</ele>
        <time>2010-01-01T21:34:49Z</time>
      </trkpt>
      <trkpt lat="53.877502139657736" lon="10.222991220653057">
        <ele>0</ele>
        <time>2010-01-01T21:34:26Z</time>
      </trkpt>
      <trkpt lat="53.877019761130214" lon="10.22341500967741">
        <ele>0</ele>
        <time>2010-01-01T21:34:04Z</time>
      </trkpt>
      <trkpt lat="53.876632517203689" lon="10.223765624687076">
        <ele>0</ele>
        <time>2010-01-01T21:33:46Z</time>
      </trkpt>
      <trkpt lat="53.876487426459789" lon="10.223901243880391">
        <ele>0</ele>
        <time>2010-01-01T21:33:40Z</time>
      </trkpt>
      <trkpt lat="53.876414922997355" lon="10.223958408460021">
        <ele>0</ele>
        <time>2010-01-01T21:33:36Z</time>
      </trkpt>
      <trkpt lat="53.876291792839766" lon="10.224052201956511">
        <ele>0</ele>
        <time>2010-01-01T21:33:31Z</time>
      </trkpt>
      <trkpt lat="53.876105630770326" lon="10.224159238860011">
        <ele>0</ele>
        <time>2010-01-01T21:33:23Z</time>
      </trkpt>
      <trkpt lat="53.875582600012422" lon="10.224426789209247">
        <ele>0</ele>
        <time>2010-01-01T21:33:01Z</time>
      </trkpt>
      <trkpt lat="53.875344973057508" lon="10.224558217450976">
        <ele>0</ele>
        <time>2010-01-01T21:32:51Z</time>
      </trkpt>
      <trkpt lat="53.875199295580387" lon="10.224658884108067">
        <ele>0</ele>
        <time>2010-01-01T21:32:45Z</time>
      </trkpt>
      <trkpt lat="53.875131318345666" lon="10.224713115021586">
        <ele>0</ele>
        <time>2010-01-01T21:32:42Z</time>
      </trkpt>
      <trkpt lat="53.875066274777055" lon="10.224834401160479">
        <ele>0</ele>
        <time>2010-01-01T21:32:38Z</time>
      </trkpt>
      <trkpt lat="53.874976085498929" lon="10.22513740696013">
        <ele>0</ele>
        <time>2010-01-01T21:32:30Z</time>
      </trkpt>
      <trkpt lat="53.874761508777738" lon="10.22582296282053">
        <ele>0</ele>
        <time>2010-01-01T21:32:12Z</time>
      </trkpt>
      <trkpt lat="53.87448213994503" lon="10.226698201149702">
        <ele>0</ele>
        <time>2010-01-01T21:31:48Z</time>
      </trkpt>
      <trkpt lat="53.874228419736028" lon="10.227513341233134">
        <ele>0</ele>
        <time>2010-01-01T21:31:27Z</time>
      </trkpt>
      <trkpt lat="53.873865399509668" lon="10.228659734129906">
        <ele>0</ele>
        <time>2010-01-01T21:30:56Z</time>
      </trkpt>
      <trkpt lat="53.873475221917033" lon="10.229910314083099">
        <ele>0</ele>
        <time>2010-01-01T21:30:22Z</time>
      </trkpt>
      <trkpt lat="53.873387798666954" lon="10.230199657380581">
        <ele>0</ele>
        <time>2010-01-01T21:30:15Z</time>
      </trkpt>
      <trkpt lat="53.873355779796839" lon="10.230340138077736">
        <ele>0</ele>
        <time>2010-01-01T21:30:11Z</time>
      </trkpt>
      <trkpt lat="53.873331639915705" lon="10.230508195236325">
        <ele>0</ele>
        <time>2010-01-01T21:30:07Z</time>
      </trkpt>
      <trkpt lat="53.873322000727057" lon="10.230922931805253">
        <ele>0</ele>
        <time>2010-01-01T21:29:57Z</time>
      </trkpt>
      <trkpt lat="53.873316468670964" lon="10.231198025867343">
        <ele>0</ele>
        <time>2010-01-01T21:29:51Z</time>
      </trkpt>
      <trkpt lat="53.873297944664955" lon="10.231427019461989">
        <ele>0</ele>
        <time>2010-01-01T21:29:45Z</time>
      </trkpt>
      <trkpt lat="53.87325125746429" lon="10.231687193736434">
        <ele>0</ele>
        <time>2010-01-01T21:29:39Z</time>
      </trkpt>
      <trkpt lat="53.873165426775813" lon="10.23225330747664">
        <ele>0</ele>
        <time>2010-01-01T21:29:25Z</time>
      </trkpt>
      <trkpt lat="53.873076075688004" lon="10.232820846140385">
        <ele>0</ele>
        <time>2010-01-01T21:29:11Z</time>
      </trkpt>
      <trkpt lat="53.873049588873982" lon="10.233036009594798">
        <ele>0</ele>
        <time>2010-01-01T21:29:06Z</time>
      </trkpt>
      <trkpt lat="53.873055288568139" lon="10.233525680378079">
        <ele>0</ele>
        <time>2010-01-01T21:28:55Z</time>
      </trkpt>
      <trkpt lat="53.873055372387171" lon="10.233867829665542">
        <ele>0</ele>
        <time>2010-01-01T21:28:47Z</time>
      </trkpt>
      <trkpt lat="53.873095270246267" lon="10.2342689037323">
        <ele>0</ele>
        <time>2010-01-01T21:28:37Z</time>
      </trkpt>
      <trkpt lat="53.873172467574477" lon="10.235063340514898">
        <ele>0</ele>
        <time>2010-01-01T21:28:18Z</time>
      </trkpt>
      <trkpt lat="53.873217478394508" lon="10.23549341596663">
        <ele>0</ele>
        <time>2010-01-01T21:28:08Z</time>
      </trkpt>
      <trkpt lat="53.873227704316378" lon="10.235720230266452">
        <ele>0</ele>
        <time>2010-01-01T21:28:02Z</time>
      </trkpt>
      <trkpt lat="53.873221753165126" lon="10.235949642956257">
        <ele>0</ele>
        <time>2010-01-01T21:27:57Z</time>
      </trkpt>
      <trkpt lat="53.873208509758115" lon="10.236277710646391">
        <ele>0</ele>
        <time>2010-01-01T21:27:49Z</time>
      </trkpt>
      <trkpt lat="53.87321999296546" lon="10.236471081152558">
        <ele>0</ele>
        <time>2010-01-01T21:27:44Z</time>
      </trkpt>
      <trkpt lat="53.873285790905356" lon="10.236755730584264">
        <ele>0</ele>
        <time>2010-01-01T21:27:37Z</time>
      </trkpt>
      <trkpt lat="53.873616121709347" lon="10.238161962479353">
        <ele>0</ele>
        <time>2010-01-01T21:27:02Z</time>
      </trkpt>
      <trkpt lat="53.873859699815512" lon="10.239257728680968">
        <ele>0</ele>
        <time>2010-01-01T21:26:34Z</time>
      </trkpt>
      <trkpt lat="53.874053573235869" lon="10.240086195990443">
        <ele>0</ele>
        <time>2010-01-01T21:26:13Z</time>
      </trkpt>
      <trkpt lat="53.874099086970091" lon="10.240263305604458">
        <ele>0</ele>
        <time>2010-01-01T21:26:08Z</time>
      </trkpt>
      <trkpt lat="53.873957935720682" lon="10.240623978897929">
        <ele>0</ele>
        <time>2010-01-01T21:25:58Z</time>
      </trkpt>
      <trkpt lat="53.873645206913352" lon="10.24132177233696">
        <ele>0</ele>
        <time>2010-01-01T21:25:37Z</time>
      </trkpt>
      <trkpt lat="53.873411770910025" lon="10.241824183613062">
        <ele>0</ele>
        <time>2010-01-01T21:25:22Z</time>
      </trkpt>
      <trkpt lat="53.873224938288331" lon="10.242168344557285">
        <ele>0</ele>
        <time>2010-01-01T21:25:11Z</time>
      </trkpt>
      <trkpt lat="53.873089654371142" lon="10.242389375343919">
        <ele>0</ele>
        <time>2010-01-01T21:25:04Z</time>
      </trkpt>
      <trkpt lat="53.873047577217221" lon="10.242458106949925">
        <ele>0</ele>
        <time>2010-01-01T21:25:01Z</time>
      </trkpt>
      <trkpt lat="53.872846579179168" lon="10.242777457460761">
        <ele>0</ele>
        <time>2010-01-01T21:24:50Z</time>
      </trkpt>
      <trkpt lat="53.872657651081681" lon="10.24306227453053">
        <ele>0</ele>
        <time>2010-01-01T21:24:40Z</time>
      </trkpt>
      <trkpt lat="53.872478026896715" lon="10.243320018053055">
        <ele>0</ele>
        <time>2010-01-01T21:24:31Z</time>
      </trkpt>
      <trkpt lat="53.872372834011912" lon="10.243499306961894">
        <ele>0</ele>
        <time>2010-01-01T21:24:25Z</time>
      </trkpt>
      <trkpt lat="53.872275855392218" lon="10.243662167340517">
        <ele>0</ele>
        <time>2010-01-01T21:24:19Z</time>
      </trkpt>
      <trkpt lat="53.872063709422946" lon="10.243935585021973">
        <ele>0</ele>
        <time>2010-01-01T21:24:09Z</time>
      </trkpt>
      <trkpt lat="53.871906045824289" lon="10.244146808981895">
        <ele>0</ele>
        <time>2010-01-01T21:24:01Z</time>
      </trkpt>
      <trkpt lat="53.871727595105767" lon="10.244374126195908">
        <ele>0</ele>
        <time>2010-01-01T21:23:52Z</time>
      </trkpt>
      <trkpt lat="53.871562806889415" lon="10.244583589956164">
        <ele>0</ele>
        <time>2010-01-01T21:23:44Z</time>
      </trkpt>
      <trkpt lat="53.87148535810411" lon="10.244681658223271">
        <ele>0</ele>
        <time>2010-01-01T21:23:40Z</time>
      </trkpt>
      <trkpt lat="53.871166091412306" lon="10.245112990960479">
        <ele>0</ele>
        <time>2010-01-01T21:23:23Z</time>
      </trkpt>
      <trkpt lat="53.871116135269403" lon="10.245198318734765">
        <ele>0</ele>
        <time>2010-01-01T21:23:20Z</time>
      </trkpt>
      <trkpt lat="53.870991580188274" lon="10.245425635948777">
        <ele>0</ele>
        <time>2010-01-01T21:23:13Z</time>
      </trkpt>
      <trkpt lat="53.870939780026674" lon="10.245564021170139">
        <ele>0</ele>
        <time>2010-01-01T21:23:09Z</time>
      </trkpt>
      <trkpt lat="53.870912957936525" lon="10.245640715584159">
        <ele>0</ele>
        <time>2010-01-01T21:23:07Z</time>
      </trkpt>
      <trkpt lat="53.87088437564671" lon="10.245794942602515">
        <ele>0</ele>
        <time>2010-01-01T21:23:03Z</time>
      </trkpt>
      <trkpt lat="53.870863420888782" lon="10.245909858494997">
        <ele>0</ele>
        <time>2010-01-01T21:23:01Z</time>
      </trkpt>
      <trkpt lat="53.870849506929517" lon="10.246040280908346">
        <ele>0</ele>
        <time>2010-01-01T21:22:57Z</time>
      </trkpt>
      <trkpt lat="53.870810950174928" lon="10.246375054121017">
        <ele>0</ele>
        <time>2010-01-01T21:22:49Z</time>
      </trkpt>
      <trkpt lat="53.870397973805666" lon="10.246779397130013">
        <ele>0</ele>
        <time>2010-01-01T21:22:30Z</time>
      </trkpt>
      <trkpt lat="53.869872512295842" lon="10.2472791261971">
        <ele>0</ele>
        <time>2010-01-01T21:22:06Z</time>
      </trkpt>
      <trkpt lat="53.869551820680499" lon="10.247616246342659">
        <ele>0</ele>
        <time>2010-01-01T21:21:51Z</time>
      </trkpt>
      <trkpt lat="53.869494991376996" lon="10.247556734830141">
        <ele>0</ele>
        <time>2010-01-01T21:21:48Z</time>
      </trkpt>
      <trkpt lat="53.869273625314236" lon="10.247413320466876">
        <ele>0</ele>
        <time>2010-01-01T21:21:39Z</time>
      </trkpt>
      <trkpt lat="53.868879089131951" lon="10.247158342972398">
        <ele>0</ele>
        <time>2010-01-01T21:21:22Z</time>
      </trkpt>
      <trkpt lat="53.868751600384712" lon="10.247064884752035">
        <ele>0</ele>
        <time>2010-01-01T21:21:16Z</time>
      </trkpt>
      <trkpt lat="53.868695441633463" lon="10.247020628303289">
        <ele>0</ele>
        <time>2010-01-01T21:21:14Z</time>
      </trkpt>
      <trkpt lat="53.868640288710594" lon="10.246964218094945">
        <ele>0</ele>
        <time>2010-01-01T21:21:11Z</time>
      </trkpt>
      <trkpt lat="53.868571808561683" lon="10.247071674093604">
        <ele>0</ele>
        <time>2010-01-01T21:21:08Z</time>
      </trkpt>
      <trkpt lat="53.868544399738312" lon="10.247119450941682">
        <ele>0</ele>
        <time>2010-01-01T21:21:06Z</time>
      </trkpt>
      <trkpt lat="53.868487989529967" lon="10.247181644663215">
        <ele>0</ele>
        <time>2010-01-01T21:21:03Z</time>
      </trkpt>
      <trkpt lat="53.868448091670871" lon="10.247216932475567">
        <ele>0</ele>
        <time>2010-01-01T21:21:02Z</time>
      </trkpt>
      <trkpt lat="53.868433590978384" lon="10.247228667140007">
        <ele>0</ele>
        <time>2010-01-01T21:21:01Z</time>
      </trkpt>
      <trkpt lat="53.868300905451179" lon="10.247293123975396">
        <ele>0</ele>
        <time>2010-01-01T21:20:55Z</time>
      </trkpt>
      <trkpt lat="53.868081467226148" lon="10.247393036261201">
        <ele>0</ele>
        <time>2010-01-01T21:20:46Z</time>
      </trkpt>
      <trkpt lat="53.867944423109293" lon="10.247443662956357">
        <ele>0</ele>
        <time>2010-01-01T21:20:41Z</time>
      </trkpt>
      <trkpt lat="53.867858843877912" lon="10.247457828372717">
        <ele>0</ele>
        <time>2010-01-01T21:20:37Z</time>
      </trkpt>
      <trkpt lat="53.867772426456213" lon="10.24747509509325">
        <ele>0</ele>
        <time>2010-01-01T21:20:34Z</time>
      </trkpt>
      <trkpt lat="53.867547623813152" lon="10.247492697089911">
        <ele>0</ele>
        <time>2010-01-01T21:20:25Z</time>
      </trkpt>
      <trkpt lat="53.867167420685291" lon="10.247508706524968">
        <ele>0</ele>
        <time>2010-01-01T21:20:10Z</time>
      </trkpt>
      <trkpt lat="53.866947228088975" lon="10.24750979617238">
        <ele>0</ele>
        <time>2010-01-01T21:20:01Z</time>
      </trkpt>
      <trkpt lat="53.866885285824537" lon="10.247509460896254">
        <ele>0</ele>
        <time>2010-01-01T21:19:58Z</time>
      </trkpt>
      <trkpt lat="53.866862738505006" lon="10.247510299086571">
        <ele>0</ele>
        <time>2010-01-01T21:19:57Z</time>
      </trkpt>
      <trkpt lat="53.866769280284643" lon="10.247513568028808">
        <ele>0</ele>
        <time>2010-01-01T21:19:54Z</time>
      </trkpt>
      <trkpt lat="53.866363009437919" lon="10.247530415654182">
        <ele>0</ele>
        <time>2010-01-01T21:19:37Z</time>
      </trkpt>
      <trkpt lat="53.866155305877328" lon="10.247540893033147">
        <ele>0</ele>
        <time>2010-01-01T21:19:29Z</time>
      </trkpt>
      <trkpt lat="53.865783149376512" lon="10.247560255229473">
        <ele>0</ele>
        <time>2010-01-01T21:19:14Z</time>
      </trkpt>
      <trkpt lat="53.865381488576531" lon="10.247560422867537">
        <ele>0</ele>
        <time>2010-01-01T21:18:58Z</time>
      </trkpt>
      <trkpt lat="53.865349134430289" lon="10.247561009600759">
        <ele>0</ele>
        <time>2010-01-01T21:18:57Z</time>
      </trkpt>
      <trkpt lat="53.865137072280049" lon="10.247563859447837">
        <ele>0</ele>
        <time>2010-01-01T21:18:48Z</time>
      </trkpt>
      <trkpt lat="53.86467874981463" lon="10.24756989441812">
        <ele>0</ele>
        <time>2010-01-01T21:18:30Z</time>
      </trkpt>
      <trkpt lat="53.864573892205954" lon="10.247547011822462">
        <ele>0</ele>
        <time>2010-01-01T21:18:26Z</time>
      </trkpt>
      <trkpt lat="53.864443134516478" lon="10.247505186125636">
        <ele>0</ele>
        <time>2010-01-01T21:18:20Z</time>
      </trkpt>
      <trkpt lat="53.864411786198616" lon="10.24749512784183">
        <ele>0</ele>
        <time>2010-01-01T21:18:19Z</time>
      </trkpt>
      <trkpt lat="53.864323860034347" lon="10.247484901919961">
        <ele>0</ele>
        <time>2010-01-01T21:18:16Z</time>
      </trkpt>
      <trkpt lat="53.864257307723165" lon="10.247485907748342">
        <ele>0</ele>
        <time>2010-01-01T21:18:13Z</time>
      </trkpt>
      <trkpt lat="53.864195114001632" lon="10.247508371248841">
        <ele>0</ele>
        <time>2010-01-01T21:18:10Z</time>
      </trkpt>
      <trkpt lat="53.864117413759232" lon="10.247551705688238">
        <ele>0</ele>
        <time>2010-01-01T21:18:07Z</time>
      </trkpt>
      <trkpt lat="53.864062763750553" lon="10.247615408152342">
        <ele>0</ele>
        <time>2010-01-01T21:18:04Z</time>
      </trkpt>
      <trkpt lat="53.864024458453059" lon="10.247672069817781">
        <ele>0</ele>
        <time>2010-01-01T21:18:02Z</time>
      </trkpt>
      <trkpt lat="53.863995959982276" lon="10.247733509168029">
        <ele>0</ele>
        <time>2010-01-01T21:18:00Z</time>
      </trkpt>
      <trkpt lat="53.863984979689121" lon="10.247755972668529">
        <ele>0</ele>
        <time>2010-01-01T21:18:00Z</time>
      </trkpt>
      <trkpt lat="53.863955475389957" lon="10.247829649597406">
        <ele>0</ele>
        <time>2010-01-01T21:17:58Z</time>
      </trkpt>
      <trkpt lat="53.863920690491796" lon="10.247979098930955">
        <ele>0</ele>
        <time>2010-01-01T21:17:54Z</time>
      </trkpt>
      <trkpt lat="53.863901663571596" lon="10.248163919895887">
        <ele>0</ele>
        <time>2010-01-01T21:17:49Z</time>
      </trkpt>
      <trkpt lat="53.863899568095803" lon="10.248367600142956">
        <ele>0</ele>
        <time>2010-01-01T21:17:45Z</time>
      </trkpt>
      <trkpt lat="53.863884899765253" lon="10.248566251248121">
        <ele>0</ele>
        <time>2010-01-01T21:17:40Z</time>
      </trkpt>
      <trkpt lat="53.863864280283451" lon="10.248731374740601">
        <ele>0</ele>
        <time>2010-01-01T21:17:36Z</time>
      </trkpt>
      <trkpt lat="53.86366386897862" lon="10.250286553055048">
        <ele>0</ele>
        <time>2010-01-01T21:16:58Z</time>
      </trkpt>
      <trkpt lat="53.863177383318543" lon="10.249981703236699">
        <ele>0</ele>
        <time>2010-01-01T21:16:38Z</time>
      </trkpt>
      <trkpt lat="53.863110411912203" lon="10.249940128996968">
        <ele>0</ele>
        <time>2010-01-01T21:16:35Z</time>
      </trkpt>
      <trkpt lat="53.862874545156956" lon="10.249785566702485">
        <ele>0</ele>
        <time>2010-01-01T21:16:25Z</time>
      </trkpt>
      <trkpt lat="53.862843783572316" lon="10.249702837318182">
        <ele>0</ele>
        <time>2010-01-01T21:16:22Z</time>
      </trkpt>
      <trkpt lat="53.862806316465139" lon="10.249640475958586">
        <ele>0</ele>
        <time>2010-01-01T21:16:20Z</time>
      </trkpt>
      <trkpt lat="53.862268701195717" lon="10.249287765473127">
        <ele>0</ele>
        <time>2010-01-01T21:15:57Z</time>
      </trkpt>
      <trkpt lat="53.861071178689599" lon="10.248523838818073">
        <ele>0</ele>
        <time>2010-01-01T21:15:06Z</time>
      </trkpt>
      <trkpt lat="53.860230809077621" lon="10.248006004840136">
        <ele>0</ele>
        <time>2010-01-01T21:14:30Z</time>
      </trkpt>
      <trkpt lat="53.858578400686383" lon="10.246960027143359">
        <ele>0</ele>
        <time>2010-01-01T21:13:20Z</time>
      </trkpt>
      <trkpt lat="53.857436953112483" lon="10.246237423270941">
        <ele>0</ele>
        <time>2010-01-01T21:12:31Z</time>
      </trkpt>
      <trkpt lat="53.855633670464158" lon="10.24510913528502">
        <ele>0</ele>
        <time>2010-01-01T21:11:14Z</time>
      </trkpt>
      <trkpt lat="53.855461254715919" lon="10.245001260191202">
        <ele>0</ele>
        <time>2010-01-01T21:11:06Z</time>
      </trkpt>
      <trkpt lat="53.855025228112936" lon="10.244737565517426">
        <ele>0</ele>
        <time>2010-01-01T21:10:48Z</time>
      </trkpt>
      <trkpt lat="53.854496330022812" lon="10.244413772597909">
        <ele>0</ele>
        <time>2010-01-01T21:10:25Z</time>
      </trkpt>
      <trkpt lat="53.85388545691967" lon="10.244032647460699">
        <ele>0</ele>
        <time>2010-01-01T21:09:59Z</time>
      </trkpt>
      <trkpt lat="53.85329419746995" lon="10.243659736588597">
        <ele>0</ele>
        <time>2010-01-01T21:09:34Z</time>
      </trkpt>
      <trkpt lat="53.852810561656952" lon="10.24334860034287">
        <ele>0</ele>
        <time>2010-01-01T21:09:13Z</time>
      </trkpt>
      <trkpt lat="53.852011179551482" lon="10.242874436080456">
        <ele>0</ele>
        <time>2010-01-01T21:08:40Z</time>
      </trkpt>
      <trkpt lat="53.851928114891052" lon="10.242822803556919">
        <ele>0</ele>
        <time>2010-01-01T21:08:36Z</time>
      </trkpt>
      <trkpt lat="53.851857371628284" lon="10.242808470502496">
        <ele>0</ele>
        <time>2010-01-01T21:08:33Z</time>
      </trkpt>
      <trkpt lat="53.851799955591559" lon="10.24284191429615">
        <ele>0</ele>
        <time>2010-01-01T21:08:31Z</time>
      </trkpt>
      <trkpt lat="53.851706245914102" lon="10.242696320638061">
        <ele>0</ele>
        <time>2010-01-01T21:08:26Z</time>
      </trkpt>
      <trkpt lat="53.851669616997242" lon="10.242584254592657">
        <ele>0</ele>
        <time>2010-01-01T21:08:23Z</time>
      </trkpt>
      <trkpt lat="53.851651679724455" lon="10.242498591542244">
        <ele>0</ele>
        <time>2010-01-01T21:08:20Z</time>
      </trkpt>
      <trkpt lat="53.851664504036307" lon="10.242389626801014">
        <ele>0</ele>
        <time>2010-01-01T21:08:18Z</time>
      </trkpt>
      <trkpt lat="53.851711610332131" lon="10.242173708975315">
        <ele>0</ele>
        <time>2010-01-01T21:08:12Z</time>
      </trkpt>
      <trkpt lat="53.851608596742153" lon="10.242062732577324">
        <ele>0</ele>
        <time>2010-01-01T21:08:07Z</time>
      </trkpt>
      <trkpt lat="53.851515306159854" lon="10.241958126425743">
        <ele>0</ele>
        <time>2010-01-01T21:08:03Z</time>
      </trkpt>
      <trkpt lat="53.851397624239326" lon="10.241868020966649">
        <ele>0</ele>
        <time>2010-01-01T21:07:58Z</time>
      </trkpt>
      <trkpt lat="53.851303830742836" lon="10.241815131157637">
        <ele>0</ele>
        <time>2010-01-01T21:07:54Z</time>
      </trkpt>
      <trkpt lat="53.851229315623641" lon="10.241806833073497">
        <ele>0</ele>
        <time>2010-01-01T21:07:51Z</time>
      </trkpt>
      <trkpt lat="53.851181706413627" lon="10.241805408149958">
        <ele>0</ele>
        <time>2010-01-01T21:07:49Z</time>
      </trkpt>
      <trkpt lat="53.851118674501777" lon="10.241821752861142">
        <ele>0</ele>
        <time>2010-01-01T21:07:46Z</time>
      </trkpt>
      <trkpt lat="53.851079782471061" lon="10.241843461990356">
        <ele>0</ele>
        <time>2010-01-01T21:07:45Z</time>
      </trkpt>
      <trkpt lat="53.851027144119143" lon="10.241896603256464">
        <ele>0</ele>
        <time>2010-01-01T21:07:42Z</time>
      </trkpt>
      <trkpt lat="53.850983139127493" lon="10.241983439773321">
        <ele>0</ele>
        <time>2010-01-01T21:07:40Z</time>
      </trkpt>
      <trkpt lat="53.850870653986931" lon="10.242259707301855">
        <ele>0</ele>
        <time>2010-01-01T21:07:32Z</time>
      </trkpt>
      <trkpt lat="53.850782141089439" lon="10.24247738532722">
        <ele>0</ele>
        <time>2010-01-01T21:07:25Z</time>
      </trkpt>
      <trkpt lat="53.85071768425405" lon="10.242629013955593">
        <ele>0</ele>
        <time>2010-01-01T21:07:21Z</time>
      </trkpt>
      <trkpt lat="53.850637134164572" lon="10.242759101092815">
        <ele>0</ele>
        <time>2010-01-01T21:07:17Z</time>
      </trkpt>
      <trkpt lat="53.850522637367249" lon="10.242892205715179">
        <ele>0</ele>
        <time>2010-01-01T21:07:11Z</time>
      </trkpt>
      <trkpt lat="53.850394813343883" lon="10.243002343922853">
        <ele>0</ele>
        <time>2010-01-01T21:07:05Z</time>
      </trkpt>
      <trkpt lat="53.850264558568597" lon="10.24308817461133">
        <ele>0</ele>
        <time>2010-01-01T21:07:00Z</time>
      </trkpt>
      <trkpt lat="53.850110163912177" lon="10.243193870410323">
        <ele>0</ele>
        <time>2010-01-01T21:06:53Z</time>
      </trkpt>
      <trkpt lat="53.850081749260426" lon="10.243213400244713">
        <ele>0</ele>
        <time>2010-01-01T21:06:52Z</time>
      </trkpt>
      <trkpt lat="53.849812857806683" lon="10.243409117683768">
        <ele>0</ele>
        <time>2010-01-01T21:06:40Z</time>
      </trkpt>
      <trkpt lat="53.849644549190998" lon="10.24352109991014">
        <ele>0</ele>
        <time>2010-01-01T21:06:33Z</time>
      </trkpt>
      <trkpt lat="53.849353278055787" lon="10.243713045492768">
        <ele>0</ele>
        <time>2010-01-01T21:06:20Z</time>
      </trkpt>
      <trkpt lat="53.848909037187696" lon="10.244008339941502">
        <ele>0</ele>
        <time>2010-01-01T21:06:01Z</time>
      </trkpt>
      <trkpt lat="53.848565211519599" lon="10.244233645498753">
        <ele>0</ele>
        <time>2010-01-01T21:05:46Z</time>
      </trkpt>
      <trkpt lat="53.848363626748323" lon="10.244353841990232">
        <ele>0</ele>
        <time>2010-01-01T21:05:38Z</time>
      </trkpt>
      <trkpt lat="53.848207723349333" lon="10.244397846981883">
        <ele>0</ele>
        <time>2010-01-01T21:05:32Z</time>
      </trkpt>
      <trkpt lat="53.84796716272831" lon="10.244457526132464">
        <ele>0</ele>
        <time>2010-01-01T21:05:22Z</time>
      </trkpt>
      <trkpt lat="53.847746467217803" lon="10.244513265788555">
        <ele>0</ele>
        <time>2010-01-01T21:05:13Z</time>
      </trkpt>
      <trkpt lat="53.847507499158382" lon="10.244598845019937">
        <ele>0</ele>
        <time>2010-01-01T21:05:03Z</time>
      </trkpt>
      <trkpt lat="53.847346734255552" lon="10.244677718728781">
        <ele>0</ele>
        <time>2010-01-01T21:04:56Z</time>
      </trkpt>
      <trkpt lat="53.847246738150716" lon="10.244729435071349">
        <ele>0</ele>
        <time>2010-01-01T21:04:52Z</time>
      </trkpt>
      <trkpt lat="53.847117321565747" lon="10.244795484468341">
        <ele>0</ele>
        <time>2010-01-01T21:04:47Z</time>
      </trkpt>
      <trkpt lat="53.847006177529693" lon="10.244852984324098">
        <ele>0</ele>
        <time>2010-01-01T21:04:42Z</time>
      </trkpt>
      <trkpt lat="53.846569061279297" lon="10.245069405063987">
        <ele>0</ele>
        <time>2010-01-01T21:04:24Z</time>
      </trkpt>
      <trkpt lat="53.846226995810866" lon="10.245214244350791">
        <ele>0</ele>
        <time>2010-01-01T21:04:10Z</time>
      </trkpt>
      <trkpt lat="53.845982411876321" lon="10.245320945978165">
        <ele>0</ele>
        <time>2010-01-01T21:04:00Z</time>
      </trkpt>
      <trkpt lat="53.845915021374822" lon="10.245381714776158">
        <ele>0</ele>
        <time>2010-01-01T21:03:57Z</time>
      </trkpt>
      <trkpt lat="53.84587730281055" lon="10.245576091110706">
        <ele>0</ele>
        <time>2010-01-01T21:03:52Z</time>
      </trkpt>
      <trkpt lat="53.845858108252287" lon="10.24595545604825">
        <ele>0</ele>
        <time>2010-01-01T21:03:43Z</time>
      </trkpt>
      <trkpt lat="53.845773786306381" lon="10.246803788468242">
        <ele>0</ele>
        <time>2010-01-01T21:03:23Z</time>
      </trkpt>
      <trkpt lat="53.845721231773496" lon="10.247452547773719">
        <ele>0</ele>
        <time>2010-01-01T21:03:07Z</time>
      </trkpt>
      <trkpt lat="53.845659624785185" lon="10.247848844155669">
        <ele>0</ele>
        <time>2010-01-01T21:02:57Z</time>
      </trkpt>
      <trkpt lat="53.845607070252299" lon="10.248151179403067">
        <ele>0</ele>
        <time>2010-01-01T21:02:50Z</time>
      </trkpt>
      <trkpt lat="53.845575721934438" lon="10.248312782496214">
        <ele>0</ele>
        <time>2010-01-01T21:02:46Z</time>
      </trkpt>
      <trkpt lat="53.845554850995541" lon="10.248417053371668">
        <ele>0</ele>
        <time>2010-01-01T21:02:43Z</time>
      </trkpt>
      <trkpt lat="53.845515036955476" lon="10.24861796759069">
        <ele>0</ele>
        <time>2010-01-01T21:02:38Z</time>
      </trkpt>
      <trkpt lat="53.845442030578852" lon="10.248899850994349">
        <ele>0</ele>
        <time>2010-01-01T21:02:31Z</time>
      </trkpt>
      <trkpt lat="53.845408419147134" lon="10.249006804078817">
        <ele>0</ele>
        <time>2010-01-01T21:02:28Z</time>
      </trkpt>
      <trkpt lat="53.845332311466336" lon="10.249249124899507">
        <ele>0</ele>
        <time>2010-01-01T21:02:22Z</time>
      </trkpt>
      <trkpt lat="53.845315715298057" lon="10.249289693310857">
        <ele>0</ele>
        <time>2010-01-01T21:02:21Z</time>
      </trkpt>
      <trkpt lat="53.845220832154155" lon="10.249514747411013">
        <ele>0</ele>
        <time>2010-01-01T21:02:14Z</time>
      </trkpt>
      <trkpt lat="53.845082530751824" lon="10.249852538108826">
        <ele>0</ele>
        <time>2010-01-01T21:02:04Z</time>
      </trkpt>
      <trkpt lat="53.844940708950162" lon="10.250182533636689">
        <ele>0</ele>
        <time>2010-01-01T21:01:55Z</time>
      </trkpt>
      <trkpt lat="53.84479109197855" lon="10.250489562749863">
        <ele>0</ele>
        <time>2010-01-01T21:01:45Z</time>
      </trkpt>
      <trkpt lat="53.844647342339158" lon="10.250742025673389">
        <ele>0</ele>
        <time>2010-01-01T21:01:37Z</time>
      </trkpt>
      <trkpt lat="53.84450132958591" lon="10.250959536060691">
        <ele>0</ele>
        <time>2010-01-01T21:01:29Z</time>
      </trkpt>
      <trkpt lat="53.844309719279408" lon="10.251242509111762">
        <ele>0</ele>
        <time>2010-01-01T21:01:19Z</time>
      </trkpt>
      <trkpt lat="53.84397117421031" lon="10.251736873760819">
        <ele>0</ele>
        <time>2010-01-01T21:01:01Z</time>
      </trkpt>
      <trkpt lat="53.843615362420678" lon="10.252256467938423">
        <ele>0</ele>
        <time>2010-01-01T21:00:42Z</time>
      </trkpt>
      <trkpt lat="53.843511762097478" lon="10.252405749633908">
        <ele>0</ele>
        <time>2010-01-01T21:00:37Z</time>
      </trkpt>
      <trkpt lat="53.843333479017019" lon="10.252662822604179">
        <ele>0</ele>
        <time>2010-01-01T21:00:28Z</time>
      </trkpt>
      <trkpt lat="53.842899044975638" lon="10.253303200006485">
        <ele>0</ele>
        <time>2010-01-01T21:00:05Z</time>
      </trkpt>
      <trkpt lat="53.842460168525577" lon="10.25394793599844">
        <ele>0</ele>
        <time>2010-01-01T20:59:41Z</time>
      </trkpt>
      <trkpt lat="53.841505888849497" lon="10.255324747413397">
        <ele>0</ele>
        <time>2010-01-01T20:58:51Z</time>
      </trkpt>
      <trkpt lat="53.8406025711447" lon="10.256642298772931">
        <ele>0</ele>
        <time>2010-01-01T20:58:03Z</time>
      </trkpt>
      <trkpt lat="53.840211806818843" lon="10.257142530754209">
        <ele>0</ele>
        <time>2010-01-01T20:57:44Z</time>
      </trkpt>
      <trkpt lat="53.839969821274281" lon="10.25742550380528">
        <ele>0</ele>
        <time>2010-01-01T20:57:32Z</time>
      </trkpt>
      <trkpt lat="53.839762033894658" lon="10.257622813805938">
        <ele>0</ele>
        <time>2010-01-01T20:57:22Z</time>
      </trkpt>
      <trkpt lat="53.839394319802523" lon="10.257982481271029">
        <ele>0</ele>
        <time>2010-01-01T20:57:05Z</time>
      </trkpt>
      <trkpt lat="53.838958879932761" lon="10.258382633328438">
        <ele>0</ele>
        <time>2010-01-01T20:56:46Z</time>
      </trkpt>
      <trkpt lat="53.838697951287031" lon="10.258582960814238">
        <ele>0</ele>
        <time>2010-01-01T20:56:34Z</time>
      </trkpt>
      <trkpt lat="53.838431071490049" lon="10.258758813142776">
        <ele>0</ele>
        <time>2010-01-01T20:56:23Z</time>
      </trkpt>
      <trkpt lat="53.838163521140814" lon="10.258887140080333">
        <ele>0</ele>
        <time>2010-01-01T20:56:12Z</time>
      </trkpt>
      <trkpt lat="53.837989596650004" lon="10.258961236104369">
        <ele>0</ele>
        <time>2010-01-01T20:56:04Z</time>
      </trkpt>
      <trkpt lat="53.837654152885079" lon="10.259070619940758">
        <ele>0</ele>
        <time>2010-01-01T20:55:51Z</time>
      </trkpt>
      <trkpt lat="53.837382076308131" lon="10.25914840400219">
        <ele>0</ele>
        <time>2010-01-01T20:55:40Z</time>
      </trkpt>
      <trkpt lat="53.837183006107807" lon="10.259190732613206">
        <ele>0</ele>
        <time>2010-01-01T20:55:32Z</time>
      </trkpt>
      <trkpt lat="53.836909672245383" lon="10.259203808382154">
        <ele>0</ele>
        <time>2010-01-01T20:55:21Z</time>
      </trkpt>
      <trkpt lat="53.83660507388413" lon="10.259205317124724">
        <ele>0</ele>
        <time>2010-01-01T20:55:09Z</time>
      </trkpt>
      <trkpt lat="53.836371721699834" lon="10.259180087596178">
        <ele>0</ele>
        <time>2010-01-01T20:54:59Z</time>
      </trkpt>
      <trkpt lat="53.836004845798016" lon="10.259122001007199">
        <ele>0</ele>
        <time>2010-01-01T20:54:44Z</time>
      </trkpt>
      <trkpt lat="53.835524646565318" lon="10.259072631597519">
        <ele>0</ele>
        <time>2010-01-01T20:54:25Z</time>
      </trkpt>
      <trkpt lat="53.835132122039795" lon="10.259057795628905">
        <ele>0</ele>
        <time>2010-01-01T20:54:09Z</time>
      </trkpt>
      <trkpt lat="53.834770862013102" lon="10.259062154218554">
        <ele>0</ele>
        <time>2010-01-01T20:53:55Z</time>
      </trkpt>
      <trkpt lat="53.834334583953023" lon="10.259109847247601">
        <ele>0</ele>
        <time>2010-01-01T20:53:37Z</time>
      </trkpt>
      <trkpt lat="53.834003079682589" lon="10.259190984070301">
        <ele>0</ele>
        <time>2010-01-01T20:53:24Z</time>
      </trkpt>
      <trkpt lat="53.833573423326015" lon="10.259378654882312">
        <ele>0</ele>
        <time>2010-01-01T20:53:06Z</time>
      </trkpt>
      <trkpt lat="53.833087272942066" lon="10.25963899679482">
        <ele>0</ele>
        <time>2010-01-01T20:52:46Z</time>
      </trkpt>
      <trkpt lat="53.83272928185761" lon="10.259849969297647">
        <ele>0</ele>
        <time>2010-01-01T20:52:31Z</time>
      </trkpt>
      <trkpt lat="53.832539850845933" lon="10.259918700903654">
        <ele>0</ele>
        <time>2010-01-01T20:52:23Z</time>
      </trkpt>
      <trkpt lat="53.832288226112723" lon="10.260006878525019">
        <ele>0</ele>
        <time>2010-01-01T20:52:13Z</time>
      </trkpt>
      <trkpt lat="53.832032326608896" lon="10.260075107216835">
        <ele>0</ele>
        <time>2010-01-01T20:52:02Z</time>
      </trkpt>
      <trkpt lat="53.831743486225605" lon="10.260119615122676">
        <ele>0</ele>
        <time>2010-01-01T20:51:51Z</time>
      </trkpt>
      <trkpt lat="53.83142170496285" lon="10.260129673406482">
        <ele>0</ele>
        <time>2010-01-01T20:51:38Z</time>
      </trkpt>
      <trkpt lat="53.831182904541492" lon="10.260105784982443">
        <ele>0</ele>
        <time>2010-01-01T20:51:28Z</time>
      </trkpt>
      <trkpt lat="53.83090328425169" lon="10.260038143023849">
        <ele>0</ele>
        <time>2010-01-01T20:51:17Z</time>
      </trkpt>
      <trkpt lat="53.830629615113139" lon="10.259919119998813">
        <ele>0</ele>
        <time>2010-01-01T20:51:06Z</time>
      </trkpt>
      <trkpt lat="53.830382851883769" lon="10.259797750040889">
        <ele>0</ele>
        <time>2010-01-01T20:50:55Z</time>
      </trkpt>
      <trkpt lat="53.830221919342875" lon="10.25972306728363">
        <ele>0</ele>
        <time>2010-01-01T20:50:49Z</time>
      </trkpt>
      <trkpt lat="53.830169951543212" lon="10.259710829705">
        <ele>0</ele>
        <time>2010-01-01T20:50:47Z</time>
      </trkpt>
      <trkpt lat="53.830099543556571" lon="10.259742178022861">
        <ele>0</ele>
        <time>2010-01-01T20:50:44Z</time>
      </trkpt>
      <trkpt lat="53.830047156661749" lon="10.25993806309998">
        <ele>0</ele>
        <time>2010-01-01T20:50:39Z</time>
      </trkpt>
      <trkpt lat="53.829970126971602" lon="10.260429410263896">
        <ele>0</ele>
        <time>2010-01-01T20:50:27Z</time>
      </trkpt>
      <trkpt lat="53.829900054261088" lon="10.260939113795757">
        <ele>0</ele>
        <time>2010-01-01T20:50:14Z</time>
      </trkpt>
      <trkpt lat="53.829876333475113" lon="10.261228540912271">
        <ele>0</ele>
        <time>2010-01-01T20:50:07Z</time>
      </trkpt>
      <trkpt lat="53.829902736470103" lon="10.261454097926617">
        <ele>0</ele>
        <time>2010-01-01T20:50:02Z</time>
      </trkpt>
      <trkpt lat="53.830014215782285" lon="10.261958688497543">
        <ele>0</ele>
        <time>2010-01-01T20:49:49Z</time>
      </trkpt>
      <trkpt lat="53.83038779720664" lon="10.263513112440705">
        <ele>0</ele>
        <time>2010-01-01T20:49:09Z</time>
      </trkpt>
      <trkpt lat="53.830567840486765" lon="10.264305956661701">
        <ele>0</ele>
        <time>2010-01-01T20:48:49Z</time>
      </trkpt>
      <trkpt lat="53.83060765452683" lon="10.264481222257018">
        <ele>0</ele>
        <time>2010-01-01T20:48:45Z</time>
      </trkpt>
      <trkpt lat="53.830823739990592" lon="10.265430808067322">
        <ele>0</ele>
        <time>2010-01-01T20:48:21Z</time>
      </trkpt>
      <trkpt lat="53.830915102735162" lon="10.265832636505365">
        <ele>0</ele>
        <time>2010-01-01T20:48:11Z</time>
      </trkpt>
      <trkpt lat="53.830994060263038" lon="10.266180401667953">
        <ele>0</ele>
        <time>2010-01-01T20:48:02Z</time>
      </trkpt>
      <trkpt lat="53.831013673916459" lon="10.266449796035886">
        <ele>0</ele>
        <time>2010-01-01T20:47:56Z</time>
      </trkpt>
      <trkpt lat="53.830993054434657" lon="10.266610225662589">
        <ele>0</ele>
        <time>2010-01-01T20:47:52Z</time>
      </trkpt>
      <trkpt lat="53.83097562007606" lon="10.266732685267925">
        <ele>0</ele>
        <time>2010-01-01T20:47:49Z</time>
      </trkpt>
      <trkpt lat="53.830785434693098" lon="10.268060546368361">
        <ele>0</ele>
        <time>2010-01-01T20:47:16Z</time>
      </trkpt>
      <trkpt lat="53.830731539055705" lon="10.26839766651392">
        <ele>0</ele>
        <time>2010-01-01T20:47:08Z</time>
      </trkpt>
      <trkpt lat="53.830575300380588" lon="10.269126892089844">
        <ele>0</ele>
        <time>2010-01-01T20:46:50Z</time>
      </trkpt>
      <trkpt lat="53.830559542402625" lon="10.269200569018722">
        <ele>0</ele>
        <time>2010-01-01T20:46:48Z</time>
      </trkpt>
      <trkpt lat="53.83028713054955" lon="10.270492471754551">
        <ele>0</ele>
        <time>2010-01-01T20:46:16Z</time>
      </trkpt>
      <trkpt lat="53.830266259610653" lon="10.270589031279087">
        <ele>0</ele>
        <time>2010-01-01T20:46:13Z</time>
      </trkpt>
      <trkpt lat="53.830081271007657" lon="10.271432502195239">
        <ele>0</ele>
        <time>2010-01-01T20:45:52Z</time>
      </trkpt>
      <trkpt lat="53.829922014847398" lon="10.272042788565159">
        <ele>0</ele>
        <time>2010-01-01T20:45:36Z</time>
      </trkpt>
      <trkpt lat="53.82978874258697" lon="10.272527681663632">
        <ele>0</ele>
        <time>2010-01-01T20:45:23Z</time>
      </trkpt>
      <trkpt lat="53.829760998487473" lon="10.27261451818049">
        <ele>0</ele>
        <time>2010-01-01T20:45:21Z</time>
      </trkpt>
      <trkpt lat="53.829624205827713" lon="10.273013496771455">
        <ele>0</ele>
        <time>2010-01-01T20:45:10Z</time>
      </trkpt>
      <trkpt lat="53.829389428719878" lon="10.273714140057564">
        <ele>0</ele>
        <time>2010-01-01T20:44:51Z</time>
      </trkpt>
      <trkpt lat="53.829372664913535" lon="10.273766778409481">
        <ele>0</ele>
        <time>2010-01-01T20:44:50Z</time>
      </trkpt>
      <trkpt lat="53.82918868213892" lon="10.274338340386748">
        <ele>0</ele>
        <time>2010-01-01T20:44:34Z</time>
      </trkpt>
      <trkpt lat="53.829077202826738" lon="10.274681244045496">
        <ele>0</ele>
        <time>2010-01-01T20:44:25Z</time>
      </trkpt>
      <trkpt lat="53.829071670770645" lon="10.274697840213776">
        <ele>0</ele>
        <time>2010-01-01T20:44:25Z</time>
      </trkpt>
      <trkpt lat="53.82863212376833" lon="10.276068113744259">
        <ele>0</ele>
        <time>2010-01-01T20:43:48Z</time>
      </trkpt>
      <trkpt lat="53.828361388295889" lon="10.276934718713164">
        <ele>0</ele>
        <time>2010-01-01T20:43:25Z</time>
      </trkpt>
      <trkpt lat="53.828210681676865" lon="10.277416175231338">
        <ele>0</ele>
        <time>2010-01-01T20:43:12Z</time>
      </trkpt>
      <trkpt lat="53.82806584239006" lon="10.277858320623636">
        <ele>0</ele>
        <time>2010-01-01T20:43:00Z</time>
      </trkpt>
      <trkpt lat="53.827894516289234" lon="10.278252521529794">
        <ele>0</ele>
        <time>2010-01-01T20:42:48Z</time>
      </trkpt>
      <trkpt lat="53.827813295647502" lon="10.278393002226949">
        <ele>0</ele>
        <time>2010-01-01T20:42:44Z</time>
      </trkpt>
      <trkpt lat="53.827744396403432" lon="10.278512192890048">
        <ele>0</ele>
        <time>2010-01-01T20:42:40Z</time>
      </trkpt>
      <trkpt lat="53.827542643994093" lon="10.278805308043957">
        <ele>0</ele>
        <time>2010-01-01T20:42:29Z</time>
      </trkpt>
      <trkpt lat="53.827178198844194" lon="10.279277125373483">
        <ele>0</ele>
        <time>2010-01-01T20:42:11Z</time>
      </trkpt>
      <trkpt lat="53.826837558299303" lon="10.279711727052927">
        <ele>0</ele>
        <time>2010-01-01T20:41:54Z</time>
      </trkpt>
      <trkpt lat="53.826099447906017" lon="10.28067790903151">
        <ele>0</ele>
        <time>2010-01-01T20:41:16Z</time>
      </trkpt>
      <trkpt lat="53.825634755194187" lon="10.28127889148891">
        <ele>0</ele>
        <time>2010-01-01T20:40:53Z</time>
      </trkpt>
      <trkpt lat="53.825496537610888" lon="10.28146019205451">
        <ele>0</ele>
        <time>2010-01-01T20:40:46Z</time>
      </trkpt>
      <trkpt lat="53.824932100251317" lon="10.28220048174262">
        <ele>0</ele>
        <time>2010-01-01T20:40:17Z</time>
      </trkpt>
      <trkpt lat="53.824802013114095" lon="10.282361162826419">
        <ele>0</ele>
        <time>2010-01-01T20:40:11Z</time>
      </trkpt>
      <trkpt lat="53.82437763735652" lon="10.282885199412704">
        <ele>0</ele>
        <time>2010-01-01T20:39:50Z</time>
      </trkpt>
      <trkpt lat="53.824115954339504" lon="10.283238664269447">
        <ele>0</ele>
        <time>2010-01-01T20:39:36Z</time>
      </trkpt>
      <trkpt lat="53.823895091190934" lon="10.283559942618012">
        <ele>0</ele>
        <time>2010-01-01T20:39:25Z</time>
      </trkpt>
      <trkpt lat="53.823660649359226" lon="10.283968895673752">
        <ele>0</ele>
        <time>2010-01-01T20:39:11Z</time>
      </trkpt>
      <trkpt lat="53.823364600539207" lon="10.28451262973249">
        <ele>0</ele>
        <time>2010-01-01T20:38:54Z</time>
      </trkpt>
      <trkpt lat="53.823064025491476" lon="10.285022500902414">
        <ele>0</ele>
        <time>2010-01-01T20:38:37Z</time>
      </trkpt>
      <trkpt lat="53.822893286123872" lon="10.285312179476023">
        <ele>0</ele>
        <time>2010-01-01T20:38:27Z</time>
      </trkpt>
      <trkpt lat="53.822607044130564" lon="10.285780224949121">
        <ele>0</ele>
        <time>2010-01-01T20:38:11Z</time>
      </trkpt>
      <trkpt lat="53.822378972545266" lon="10.286101251840591">
        <ele>0</ele>
        <time>2010-01-01T20:37:59Z</time>
      </trkpt>
      <trkpt lat="53.822184847667813" lon="10.286356564611197">
        <ele>0</ele>
        <time>2010-01-01T20:37:50Z</time>
      </trkpt>
      <trkpt lat="53.821916291490197" lon="10.286680860444903">
        <ele>0</ele>
        <time>2010-01-01T20:37:36Z</time>
      </trkpt>
      <trkpt lat="53.821565425023437" lon="10.287128621712327">
        <ele>0</ele>
        <time>2010-01-01T20:37:19Z</time>
      </trkpt>
      <trkpt lat="53.821427039802074" lon="10.287305228412151">
        <ele>0</ele>
        <time>2010-01-01T20:37:12Z</time>
      </trkpt>
      <trkpt lat="53.821246745064855" lon="10.287529611960053">
        <ele>0</ele>
        <time>2010-01-01T20:37:03Z</time>
      </trkpt>
      <trkpt lat="53.82105547003448" lon="10.287767574191093">
        <ele>0</ele>
        <time>2010-01-01T20:36:53Z</time>
      </trkpt>
      <trkpt lat="53.820939967408776" lon="10.287915263324976">
        <ele>0</ele>
        <time>2010-01-01T20:36:48Z</time>
      </trkpt>
      <trkpt lat="53.820693790912628" lon="10.288230255246162">
        <ele>0</ele>
        <time>2010-01-01T20:36:35Z</time>
      </trkpt>
      <trkpt lat="53.82051944732666" lon="10.288455560803413">
        <ele>0</ele>
        <time>2010-01-01T20:36:26Z</time>
      </trkpt>
      <trkpt lat="53.820448871701956" lon="10.288542397320271">
        <ele>0</ele>
        <time>2010-01-01T20:36:23Z</time>
      </trkpt>
      <trkpt lat="53.820308810099959" lon="10.288775749504566">
        <ele>0</ele>
        <time>2010-01-01T20:36:15Z</time>
      </trkpt>
      <trkpt lat="53.820121642202139" lon="10.289214961230755">
        <ele>0</ele>
        <time>2010-01-01T20:36:02Z</time>
      </trkpt>
      <trkpt lat="53.820006977766752" lon="10.289521235972643">
        <ele>0</ele>
        <time>2010-01-01T20:35:54Z</time>
      </trkpt>
      <trkpt lat="53.819816624745727" lon="10.290045524016023">
        <ele>0</ele>
        <time>2010-01-01T20:35:39Z</time>
      </trkpt>
      <trkpt lat="53.819633815437555" lon="10.290554221719503">
        <ele>0</ele>
        <time>2010-01-01T20:35:25Z</time>
      </trkpt>
      <trkpt lat="53.819515714421868" lon="10.290916822850704">
        <ele>0</ele>
        <time>2010-01-01T20:35:15Z</time>
      </trkpt>
      <trkpt lat="53.819481180980802" lon="10.29103877954185">
        <ele>0</ele>
        <time>2010-01-01T20:35:12Z</time>
      </trkpt>
      <trkpt lat="53.81943273358047" lon="10.291275652125478">
        <ele>0</ele>
        <time>2010-01-01T20:35:06Z</time>
      </trkpt>
      <trkpt lat="53.819386381655931" lon="10.291579496115446">
        <ele>0</ele>
        <time>2010-01-01T20:34:59Z</time>
      </trkpt>
      <trkpt lat="53.819304909557104" lon="10.292302770540118">
        <ele>0</ele>
        <time>2010-01-01T20:34:41Z</time>
      </trkpt>
      <trkpt lat="53.81925193592906" lon="10.292548695579171">
        <ele>0</ele>
        <time>2010-01-01T20:34:35Z</time>
      </trkpt>
      <trkpt lat="53.81912000477314" lon="10.293036606162786">
        <ele>0</ele>
        <time>2010-01-01T20:34:23Z</time>
      </trkpt>
      <trkpt lat="53.81892311386764" lon="10.293789803981781">
        <ele>0</ele>
        <time>2010-01-01T20:34:03Z</time>
      </trkpt>
      <trkpt lat="53.818911882117391" lon="10.293831545859575">
        <ele>0</ele>
        <time>2010-01-01T20:34:02Z</time>
      </trkpt>
      <trkpt lat="53.818793026730418" lon="10.294271679595113">
        <ele>0</ele>
        <time>2010-01-01T20:33:51Z</time>
      </trkpt>
      <trkpt lat="53.818690264597535" lon="10.294640567153692">
        <ele>0</ele>
        <time>2010-01-01T20:33:41Z</time>
      </trkpt>
      <trkpt lat="53.818628489971161" lon="10.294951451942325">
        <ele>0</ele>
        <time>2010-01-01T20:33:33Z</time>
      </trkpt>
      <trkpt lat="53.818576857447624" lon="10.295238364487886">
        <ele>0</ele>
        <time>2010-01-01T20:33:26Z</time>
      </trkpt>
      <trkpt lat="53.818495133891702" lon="10.295647401362658">
        <ele>0</ele>
        <time>2010-01-01T20:33:16Z</time>
      </trkpt>
      <trkpt lat="53.818355994299054" lon="10.296218544244766">
        <ele>0</ele>
        <time>2010-01-01T20:33:01Z</time>
      </trkpt>
      <trkpt lat="53.818234289065003" lon="10.296695390716195">
        <ele>0</ele>
        <time>2010-01-01T20:32:49Z</time>
      </trkpt>
      <trkpt lat="53.818095652386546" lon="10.29719453305006">
        <ele>0</ele>
        <time>2010-01-01T20:32:36Z</time>
      </trkpt>
      <trkpt lat="53.817991549149156" lon="10.297597954049706">
        <ele>0</ele>
        <time>2010-01-01T20:32:26Z</time>
      </trkpt>
      <trkpt lat="53.817961541935802" lon="10.297714211046696">
        <ele>0</ele>
        <time>2010-01-01T20:32:23Z</time>
      </trkpt>
      <trkpt lat="53.817662978544831" lon="10.298819951713085">
        <ele>0</ele>
        <time>2010-01-01T20:31:54Z</time>
      </trkpt>
      <trkpt lat="53.817505985498428" lon="10.299455467611551">
        <ele>0</ele>
        <time>2010-01-01T20:31:38Z</time>
      </trkpt>
      <trkpt lat="53.817417640239" lon="10.29989761300385">
        <ele>0</ele>
        <time>2010-01-01T20:31:26Z</time>
      </trkpt>
      <trkpt lat="53.817329462617636" lon="10.300506642088294">
        <ele>0</ele>
        <time>2010-01-01T20:31:12Z</time>
      </trkpt>
      <trkpt lat="53.817296857014298" lon="10.301020871847868">
        <ele>0</ele>
        <time>2010-01-01T20:30:59Z</time>
      </trkpt>
      <trkpt lat="53.8172588031739" lon="10.302774701267481">
        <ele>0</ele>
        <time>2010-01-01T20:30:18Z</time>
      </trkpt>
      <trkpt lat="53.817242374643683" lon="10.303622949868441">
        <ele>0</ele>
        <time>2010-01-01T20:29:58Z</time>
      </trkpt>
      <trkpt lat="53.817218402400613" lon="10.304092923179269">
        <ele>0</ele>
        <time>2010-01-01T20:29:47Z</time>
      </trkpt>
      <trkpt lat="53.8171914126724" lon="10.304424678906798">
        <ele>0</ele>
        <time>2010-01-01T20:29:39Z</time>
      </trkpt>
      <trkpt lat="53.817156963050365" lon="10.304704466834664">
        <ele>0</ele>
        <time>2010-01-01T20:29:32Z</time>
      </trkpt>
      <trkpt lat="53.817147156223655" lon="10.304781580343843">
        <ele>0</ele>
        <time>2010-01-01T20:29:30Z</time>
      </trkpt>
      <trkpt lat="53.817087644711137" lon="10.305132027715445">
        <ele>0</ele>
        <time>2010-01-01T20:29:22Z</time>
      </trkpt>
      <trkpt lat="53.816978931427002" lon="10.305619100108743">
        <ele>0</ele>
        <time>2010-01-01T20:29:09Z</time>
      </trkpt>
      <trkpt lat="53.816836187615991" lon="10.306188650429249">
        <ele>0</ele>
        <time>2010-01-01T20:28:55Z</time>
      </trkpt>
      <trkpt lat="53.8166768476367" lon="10.306877559050918">
        <ele>0</ele>
        <time>2010-01-01T20:28:37Z</time>
      </trkpt>
      <trkpt lat="53.816580288112164" lon="10.307407546788454">
        <ele>0</ele>
        <time>2010-01-01T20:28:24Z</time>
      </trkpt>
      <trkpt lat="53.816524213179946" lon="10.307770231738687">
        <ele>0</ele>
        <time>2010-01-01T20:28:15Z</time>
      </trkpt>
      <trkpt lat="53.816482136026025" lon="10.308171305805445">
        <ele>0</ele>
        <time>2010-01-01T20:28:06Z</time>
      </trkpt>
      <trkpt lat="53.816466126590967" lon="10.308400047942996">
        <ele>0</ele>
        <time>2010-01-01T20:28:00Z</time>
      </trkpt>
      <trkpt lat="53.816469227895141" lon="10.308860214427114">
        <ele>0</ele>
        <time>2010-01-01T20:27:49Z</time>
      </trkpt>
      <trkpt lat="53.816508874297142" lon="10.309262294322252">
        <ele>0</ele>
        <time>2010-01-01T20:27:40Z</time>
      </trkpt>
      <trkpt lat="53.816591938957572" lon="10.309802424162626">
        <ele>0</ele>
        <time>2010-01-01T20:27:26Z</time>
      </trkpt>
      <trkpt lat="53.816696126013994" lon="10.310211125761271">
        <ele>0</ele>
        <time>2010-01-01T20:27:16Z</time>
      </trkpt>
      <trkpt lat="53.816845407709479" lon="10.310695599764585">
        <ele>0</ele>
        <time>2010-01-01T20:27:03Z</time>
      </trkpt>
      <trkpt lat="53.817132404074073" lon="10.311644431203604">
        <ele>0</ele>
        <time>2010-01-01T20:26:38Z</time>
      </trkpt>
      <trkpt lat="53.81724564358592" lon="10.311972917988896">
        <ele>0</ele>
        <time>2010-01-01T20:26:29Z</time>
      </trkpt>
      <trkpt lat="53.817325606942177" lon="10.312251448631287">
        <ele>0</ele>
        <time>2010-01-01T20:26:22Z</time>
      </trkpt>
      <trkpt lat="53.817353853955865" lon="10.31234985217452">
        <ele>0</ele>
        <time>2010-01-01T20:26:19Z</time>
      </trkpt>
      <trkpt lat="53.817418310791254" lon="10.312702646479011">
        <ele>0</ele>
        <time>2010-01-01T20:26:10Z</time>
      </trkpt>
      <trkpt lat="53.817448820918798" lon="10.31302853487432">
        <ele>0</ele>
        <time>2010-01-01T20:26:02Z</time>
      </trkpt>
      <trkpt lat="53.817433482035995" lon="10.313280075788498">
        <ele>0</ele>
        <time>2010-01-01T20:25:56Z</time>
      </trkpt>
      <trkpt lat="53.817405654117465" lon="10.313526755198836">
        <ele>0</ele>
        <time>2010-01-01T20:25:50Z</time>
      </trkpt>
      <trkpt lat="53.817396685481071" lon="10.313603868708014">
        <ele>0</ele>
        <time>2010-01-01T20:25:49Z</time>
      </trkpt>
      <trkpt lat="53.817378077656031" lon="10.3139085508883">
        <ele>0</ele>
        <time>2010-01-01T20:25:41Z</time>
      </trkpt>
      <trkpt lat="53.817388890311122" lon="10.314063113182783">
        <ele>0</ele>
        <time>2010-01-01T20:25:38Z</time>
      </trkpt>
      <trkpt lat="53.817391321063042" lon="10.314097227528691">
        <ele>0</ele>
        <time>2010-01-01T20:25:37Z</time>
      </trkpt>
      <trkpt lat="53.817435661330819" lon="10.314315743744373">
        <ele>0</ele>
        <time>2010-01-01T20:25:31Z</time>
      </trkpt>
      <trkpt lat="53.817557450383902" lon="10.314764427021146">
        <ele>0</ele>
        <time>2010-01-01T20:25:20Z</time>
      </trkpt>
      <trkpt lat="53.817625511437654" lon="10.31509199179709">
        <ele>0</ele>
        <time>2010-01-01T20:25:12Z</time>
      </trkpt>
      <trkpt lat="53.817659122869372" lon="10.315731866285205">
        <ele>0</ele>
        <time>2010-01-01T20:24:56Z</time>
      </trkpt>
      <trkpt lat="53.817665660753846" lon="10.315955244004726">
        <ele>0</ele>
        <time>2010-01-01T20:24:51Z</time>
      </trkpt>
      <trkpt lat="53.817654512822628" lon="10.316313318908215">
        <ele>0</ele>
        <time>2010-01-01T20:24:43Z</time>
      </trkpt>
      <trkpt lat="53.817601790651679" lon="10.31710272654891">
        <ele>0</ele>
        <time>2010-01-01T20:24:24Z</time>
      </trkpt>
      <trkpt lat="53.817557282745838" lon="10.317558366805315">
        <ele>0</ele>
        <time>2010-01-01T20:24:13Z</time>
      </trkpt>
      <trkpt lat="53.817543452605605" lon="10.317834299057722">
        <ele>0</ele>
        <time>2010-01-01T20:24:06Z</time>
      </trkpt>
      <trkpt lat="53.817546805366874" lon="10.318106207996607">
        <ele>0</ele>
        <time>2010-01-01T20:24:00Z</time>
      </trkpt>
      <trkpt lat="53.817556193098426" lon="10.318719930946827">
        <ele>0</ele>
        <time>2010-01-01T20:23:45Z</time>
      </trkpt>
      <trkpt lat="53.817593911662698" lon="10.319375647231936">
        <ele>0</ele>
        <time>2010-01-01T20:23:30Z</time>
      </trkpt>
      <trkpt lat="53.817619979381561" lon="10.319702876731753">
        <ele>0</ele>
        <time>2010-01-01T20:23:22Z</time>
      </trkpt>
      <trkpt lat="53.817645963281393" lon="10.320033207535744">
        <ele>0</ele>
        <time>2010-01-01T20:23:14Z</time>
      </trkpt>
      <trkpt lat="53.817747132852674" lon="10.319986017420888">
        <ele>0</ele>
        <time>2010-01-01T20:23:10Z</time>
      </trkpt>
      <trkpt lat="53.818182488903403" lon="10.31978284008801">
        <ele>0</ele>
        <time>2010-01-01T20:22:52Z</time>
      </trkpt>
      <trkpt lat="53.818597225472331" lon="10.319572621956468">
        <ele>0</ele>
        <time>2010-01-01T20:22:35Z</time>
      </trkpt>
      <trkpt lat="53.819153532385826" lon="10.319315297529101">
        <ele>0</ele>
        <time>2010-01-01T20:22:12Z</time>
      </trkpt>
      <trkpt lat="53.819443546235561" lon="10.319171044975519">
        <ele>0</ele>
        <time>2010-01-01T20:21:59Z</time>
      </trkpt>
      <trkpt lat="53.819716544821858" lon="10.319023188203573">
        <ele>0</ele>
        <time>2010-01-01T20:21:48Z</time>
      </trkpt>
      <trkpt lat="53.81995702162385" lon="10.318804504349828">
        <ele>0</ele>
        <time>2010-01-01T20:21:37Z</time>
      </trkpt>
      <trkpt lat="53.820172185078263" lon="10.318445339798927">
        <ele>0</ele>
        <time>2010-01-01T20:21:25Z</time>
      </trkpt>
      <trkpt lat="53.820506120100617" lon="10.317847123369575">
        <ele>0</ele>
        <time>2010-01-01T20:21:05Z</time>
      </trkpt>
      <trkpt lat="53.82052137516439" lon="10.317819966003299">
        <ele>0</ele>
        <time>2010-01-01T20:21:05Z</time>
      </trkpt>
      <trkpt lat="53.820751374587417" lon="10.317496173083782">
        <ele>0</ele>
        <time>2010-01-01T20:20:53Z</time>
      </trkpt>
      <trkpt lat="53.820987911894917" lon="10.317310765385628">
        <ele>0</ele>
        <time>2010-01-01T20:20:42Z</time>
      </trkpt>
      <trkpt lat="53.821067623794079" lon="10.317251002416015">
        <ele>0</ele>
        <time>2010-01-01T20:20:39Z</time>
      </trkpt>
      <trkpt lat="53.821276752278209" lon="10.31718922778964">
        <ele>0</ele>
        <time>2010-01-01T20:20:30Z</time>
      </trkpt>
      <trkpt lat="53.821491748094559" lon="10.317168608307838">
        <ele>0</ele>
        <time>2010-01-01T20:20:22Z</time>
      </trkpt>
      <trkpt lat="53.821720071136951" lon="10.317245637997985">
        <ele>0</ele>
        <time>2010-01-01T20:20:12Z</time>
      </trkpt>
      <trkpt lat="53.821885194629431" lon="10.317344963550568">
        <ele>0</ele>
        <time>2010-01-01T20:20:05Z</time>
      </trkpt>
      <trkpt lat="53.822076888754964" lon="10.317481588572264">
        <ele>0</ele>
        <time>2010-01-01T20:19:57Z</time>
      </trkpt>
      <trkpt lat="53.822238743305206" lon="10.317550487816334">
        <ele>0</ele>
        <time>2010-01-01T20:19:50Z</time>
      </trkpt>
      <trkpt lat="53.822382241487503" lon="10.31757622025907">
        <ele>0</ele>
        <time>2010-01-01T20:19:44Z</time>
      </trkpt>
      <trkpt lat="53.822382241487503" lon="10.31757622025907">
        <ele>0</ele>
        <time>2010-01-01T20:14:36Z</time>
      </trkpt>
      <trkpt lat="53.822401938959956" lon="10.317822899669409">
        <ele>0</ele>
        <time>2010-01-01T20:14:42Z</time>
      </trkpt>
      <trkpt lat="53.822447033599019" lon="10.317973103374243">
        <ele>0</ele>
        <time>2010-01-01T20:14:46Z</time>
      </trkpt>
      <trkpt lat="53.822710309177637" lon="10.318383816629648">
        <ele>0</ele>
        <time>2010-01-01T20:15:00Z</time>
      </trkpt>
      <trkpt lat="53.82273537106812" lon="10.318428827449679">
        <ele>0</ele>
        <time>2010-01-01T20:15:01Z</time>
      </trkpt>
      <trkpt lat="53.822897057980299" lon="10.318719260394573">
        <ele>0</ele>
        <time>2010-01-01T20:15:11Z</time>
      </trkpt>
      <trkpt lat="53.823151364922523" lon="10.319287553429604">
        <ele>0</ele>
        <time>2010-01-01T20:15:28Z</time>
      </trkpt>
      <trkpt lat="53.823197884485126" lon="10.319390818476677">
        <ele>0</ele>
        <time>2010-01-01T20:15:31Z</time>
      </trkpt>
      <trkpt lat="53.823405336588621" lon="10.319893900305033">
        <ele>0</ele>
        <time>2010-01-01T20:15:45Z</time>
      </trkpt>
      <trkpt lat="53.823446407914162" lon="10.320046618580818">
        <ele>0</ele>
        <time>2010-01-01T20:15:49Z</time>
      </trkpt>
      <trkpt lat="53.823472643271089" lon="10.320178549736738">
        <ele>0</ele>
        <time>2010-01-01T20:15:52Z</time>
      </trkpt>
      <trkpt lat="53.823522515594959" lon="10.320511143654585">
        <ele>0</ele>
        <time>2010-01-01T20:16:01Z</time>
      </trkpt>
      <trkpt lat="53.823587810620666" lon="10.32069998793304">
        <ele>0</ele>
        <time>2010-01-01T20:16:06Z</time>
      </trkpt>
      <trkpt lat="53.823689483106136" lon="10.320850526914001">
        <ele>0</ele>
        <time>2010-01-01T20:16:11Z</time>
      </trkpt>
      <trkpt lat="53.823865838348866" lon="10.320994276553392">
        <ele>0</ele>
        <time>2010-01-01T20:16:19Z</time>
      </trkpt>
      <trkpt lat="53.823977988213301" lon="10.321071138605475">
        <ele>0</ele>
        <time>2010-01-01T20:16:24Z</time>
      </trkpt>
      <trkpt lat="53.824004726484418" lon="10.32109385356307">
        <ele>0</ele>
        <time>2010-01-01T20:16:25Z</time>
      </trkpt>
      <trkpt lat="53.82401168346405" lon="10.321103492751718">
        <ele>0</ele>
        <time>2010-01-01T20:16:25Z</time>
      </trkpt>
      <trkpt lat="53.824039930477738" lon="10.321141546592116">
        <ele>0</ele>
        <time>2010-01-01T20:16:27Z</time>
      </trkpt>
      <trkpt lat="53.824090892449021" lon="10.321210948750377">
        <ele>0</ele>
        <time>2010-01-01T20:16:29Z</time>
      </trkpt>
      <trkpt lat="53.824121821671724" lon="10.321283452212811">
        <ele>0</ele>
        <time>2010-01-01T20:16:32Z</time>
      </trkpt>
      <trkpt lat="53.824147889390588" lon="10.321344556286931">
        <ele>0</ele>
        <time>2010-01-01T20:16:33Z</time>
      </trkpt>
      <trkpt lat="53.824153589084744" lon="10.321370204910636">
        <ele>0</ele>
        <time>2010-01-01T20:16:34Z</time>
      </trkpt>
      <trkpt lat="53.824177645146847" lon="10.321478247642517">
        <ele>0</ele>
        <time>2010-01-01T20:16:37Z</time>
      </trkpt>
      <trkpt lat="53.824194157496095" lon="10.321588050574064">
        <ele>0</ele>
        <time>2010-01-01T20:16:39Z</time>
      </trkpt>
      <trkpt lat="53.82420664653182" lon="10.32182433642447">
        <ele>0</ele>
        <time>2010-01-01T20:16:45Z</time>
      </trkpt>
      <trkpt lat="53.824170269072056" lon="10.322060119360685">
        <ele>0</ele>
        <time>2010-01-01T20:16:51Z</time>
      </trkpt>
      <trkpt lat="53.8241006154567" lon="10.322269750759006">
        <ele>0</ele>
        <time>2010-01-01T20:16:56Z</time>
      </trkpt>
      <trkpt lat="53.824019646272063" lon="10.322369076311588">
        <ele>0</ele>
        <time>2010-01-01T20:17:00Z</time>
      </trkpt>
      <trkpt lat="53.82390758022666" lon="10.322474017739296">
        <ele>0</ele>
        <time>2010-01-01T20:17:06Z</time>
      </trkpt>
      <trkpt lat="53.823787719011307" lon="10.322531769052148">
        <ele>0</ele>
        <time>2010-01-01T20:17:11Z</time>
      </trkpt>
      <trkpt lat="53.823594180867076" lon="10.322487680241466">
        <ele>0</ele>
        <time>2010-01-01T20:17:18Z</time>
      </trkpt>
      <trkpt lat="53.823421178385615" lon="10.322447279468179">
        <ele>0</ele>
        <time>2010-01-01T20:17:25Z</time>
      </trkpt>
      <trkpt lat="53.823315817862749" lon="10.322466725483537">
        <ele>0</ele>
        <time>2010-01-01T20:17:30Z</time>
      </trkpt>
      <trkpt lat="53.823187658563256" lon="10.322599411010742">
        <ele>0</ele>
        <time>2010-01-01T20:17:36Z</time>
      </trkpt>
      <trkpt lat="53.823092943057418" lon="10.322796888649464">
        <ele>0</ele>
        <time>2010-01-01T20:17:42Z</time>
      </trkpt>
      <trkpt lat="53.823061175644398" lon="10.322987241670489">
        <ele>0</ele>
        <time>2010-01-01T20:17:46Z</time>
      </trkpt>
      <trkpt lat="53.823074335232377" lon="10.323262503370643">
        <ele>0</ele>
        <time>2010-01-01T20:17:53Z</time>
      </trkpt>
      <trkpt lat="53.823134014382958" lon="10.323798945173621">
        <ele>0</ele>
        <time>2010-01-01T20:18:06Z</time>
      </trkpt>
      <trkpt lat="53.823142228648067" lon="10.323888966813684">
        <ele>0</ele>
        <time>2010-01-01T20:18:08Z</time>
      </trkpt>
      <trkpt lat="53.823169972747564" lon="10.324123576283455">
        <ele>0</ele>
        <time>2010-01-01T20:18:13Z</time>
      </trkpt>
      <trkpt lat="53.823298467323184" lon="10.325262006372213">
        <ele>0</ele>
        <time>2010-01-01T20:18:41Z</time>
      </trkpt>
      <trkpt lat="53.823300395160913" lon="10.325280195102096">
        <ele>0</ele>
        <time>2010-01-01T20:18:41Z</time>
      </trkpt>
      <trkpt lat="53.823420340195298" lon="10.326281413435936">
        <ele>0</ele>
        <time>2010-01-01T20:19:05Z</time>
      </trkpt>
      <trkpt lat="53.823432326316833" lon="10.326373027637601">
        <ele>0</ele>
        <time>2010-01-01T20:19:08Z</time>
      </trkpt>
      <trkpt lat="53.823523102328181" lon="10.327065289020538">
        <ele>0</ele>
        <time>2010-01-01T20:19:24Z</time>
      </trkpt>
      <trkpt lat="53.823555372655392" lon="10.327412970364094">
        <ele>0</ele>
        <time>2010-01-01T20:19:33Z</time>
      </trkpt>
      <trkpt lat="53.823567107319832" lon="10.327908173203468">
        <ele>0</ele>
        <time>2010-01-01T20:19:44Z</time>
      </trkpt>
      <trkpt lat="53.823567107319832" lon="10.327908173203468">
        <ele>0</ele>
        <time>2010-01-01T20:19:44Z</time>
      </trkpt>
      <trkpt lat="53.823555372655392" lon="10.327412970364094">
        <ele>0</ele>
        <time>2010-01-01T20:19:33Z</time>
      </trkpt>
      <trkpt lat="53.823523102328181" lon="10.327065289020538">
        <ele>0</ele>
        <time>2010-01-01T20:19:24Z</time>
      </trkpt>
      <trkpt lat="53.823432326316833" lon="10.326373027637601">
        <ele>0</ele>
        <time>2010-01-01T20:19:08Z</time>
      </trkpt>
      <trkpt lat="53.823420340195298" lon="10.326281413435936">
        <ele>0</ele>
        <time>2010-01-01T20:19:05Z</time>
      </trkpt>
      <trkpt lat="53.823300395160913" lon="10.325280195102096">
        <ele>0</ele>
        <time>2010-01-01T20:18:41Z</time>
      </trkpt>
      <trkpt lat="53.823298467323184" lon="10.325262006372213">
        <ele>0</ele>
        <time>2010-01-01T20:18:41Z</time>
      </trkpt>
      <trkpt lat="53.823169972747564" lon="10.324123576283455">
        <ele>0</ele>
        <time>2010-01-01T20:18:13Z</time>
      </trkpt>
      <trkpt lat="53.823142228648067" lon="10.323888966813684">
        <ele>0</ele>
        <time>2010-01-01T20:18:08Z</time>
      </trkpt>
      <trkpt lat="53.823134014382958" lon="10.323798945173621">
        <ele>0</ele>
        <time>2010-01-01T20:18:06Z</time>
      </trkpt>
      <trkpt lat="53.823074335232377" lon="10.323262503370643">
        <ele>0</ele>
        <time>2010-01-01T20:17:53Z</time>
      </trkpt>
      <trkpt lat="53.823061175644398" lon="10.322987241670489">
        <ele>0</ele>
        <time>2010-01-01T20:17:46Z</time>
      </trkpt>
      <trkpt lat="53.823092943057418" lon="10.322796888649464">
        <ele>0</ele>
        <time>2010-01-01T20:17:42Z</time>
      </trkpt>
      <trkpt lat="53.823187658563256" lon="10.322599411010742">
        <ele>0</ele>
        <time>2010-01-01T20:17:36Z</time>
      </trkpt>
      <trkpt lat="53.823315817862749" lon="10.322466725483537">
        <ele>0</ele>
        <time>2010-01-01T20:17:30Z</time>
      </trkpt>
      <trkpt lat="53.823421178385615" lon="10.322447279468179">
        <ele>0</ele>
        <time>2010-01-01T20:17:25Z</time>
      </trkpt>
      <trkpt lat="53.823594180867076" lon="10.322487680241466">
        <ele>0</ele>
        <time>2010-01-01T20:17:18Z</time>
      </trkpt>
      <trkpt lat="53.823787719011307" lon="10.322531769052148">
        <ele>0</ele>
        <time>2010-01-01T20:17:11Z</time>
      </trkpt>
      <trkpt lat="53.82390758022666" lon="10.322474017739296">
        <ele>0</ele>
        <time>2010-01-01T20:17:06Z</time>
      </trkpt>
      <trkpt lat="53.824019646272063" lon="10.322369076311588">
        <ele>0</ele>
        <time>2010-01-01T20:17:00Z</time>
      </trkpt>
      <trkpt lat="53.8241006154567" lon="10.322269750759006">
        <ele>0</ele>
        <time>2010-01-01T20:16:56Z</time>
      </trkpt>
      <trkpt lat="53.824170269072056" lon="10.322060119360685">
        <ele>0</ele>
        <time>2010-01-01T20:16:51Z</time>
      </trkpt>
      <trkpt lat="53.82420664653182" lon="10.32182433642447">
        <ele>0</ele>
        <time>2010-01-01T20:16:45Z</time>
      </trkpt>
      <trkpt lat="53.824194157496095" lon="10.321588050574064">
        <ele>0</ele>
        <time>2010-01-01T20:16:39Z</time>
      </trkpt>
      <trkpt lat="53.824177645146847" lon="10.321478247642517">
        <ele>0</ele>
        <time>2010-01-01T20:16:37Z</time>
      </trkpt>
      <trkpt lat="53.824153589084744" lon="10.321370204910636">
        <ele>0</ele>
        <time>2010-01-01T20:16:34Z</time>
      </trkpt>
      <trkpt lat="53.824147889390588" lon="10.321344556286931">
        <ele>0</ele>
        <time>2010-01-01T20:16:33Z</time>
      </trkpt>
      <trkpt lat="53.824121821671724" lon="10.321283452212811">
        <ele>0</ele>
        <time>2010-01-01T20:16:32Z</time>
      </trkpt>
      <trkpt lat="53.824090892449021" lon="10.321210948750377">
        <ele>0</ele>
        <time>2010-01-01T20:16:29Z</time>
      </trkpt>
      <trkpt lat="53.824039930477738" lon="10.321141546592116">
        <ele>0</ele>
        <time>2010-01-01T20:16:27Z</time>
      </trkpt>
      <trkpt lat="53.82401168346405" lon="10.321103492751718">
        <ele>0</ele>
        <time>2010-01-01T20:16:25Z</time>
      </trkpt>
      <trkpt lat="53.824004726484418" lon="10.32109385356307">
        <ele>0</ele>
        <time>2010-01-01T20:16:25Z</time>
      </trkpt>
      <trkpt lat="53.823977988213301" lon="10.321071138605475">
        <ele>0</ele>
        <time>2010-01-01T20:16:24Z</time>
      </trkpt>
      <trkpt lat="53.823865838348866" lon="10.320994276553392">
        <ele>0</ele>
        <time>2010-01-01T20:16:19Z</time>
      </trkpt>
      <trkpt lat="53.823689483106136" lon="10.320850526914001">
        <ele>0</ele>
        <time>2010-01-01T20:16:11Z</time>
      </trkpt>
      <trkpt lat="53.823587810620666" lon="10.32069998793304">
        <ele>0</ele>
        <time>2010-01-01T20:16:06Z</time>
      </trkpt>
      <trkpt lat="53.823522515594959" lon="10.320511143654585">
        <ele>0</ele>
        <time>2010-01-01T20:16:01Z</time>
      </trkpt>
      <trkpt lat="53.823472643271089" lon="10.320178549736738">
        <ele>0</ele>
        <time>2010-01-01T20:15:52Z</time>
      </trkpt>
      <trkpt lat="53.823446407914162" lon="10.320046618580818">
        <ele>0</ele>
        <time>2010-01-01T20:15:49Z</time>
      </trkpt>
      <trkpt lat="53.823405336588621" lon="10.319893900305033">
        <ele>0</ele>
        <time>2010-01-01T20:15:45Z</time>
      </trkpt>
      <trkpt lat="53.823197884485126" lon="10.319390818476677">
        <ele>0</ele>
        <time>2010-01-01T20:15:31Z</time>
      </trkpt>
      <trkpt lat="53.823151364922523" lon="10.319287553429604">
        <ele>0</ele>
        <time>2010-01-01T20:15:28Z</time>
      </trkpt>
      <trkpt lat="53.822897057980299" lon="10.318719260394573">
        <ele>0</ele>
        <time>2010-01-01T20:15:11Z</time>
      </trkpt>
      <trkpt lat="53.82273537106812" lon="10.318428827449679">
        <ele>0</ele>
        <time>2010-01-01T20:15:01Z</time>
      </trkpt>
      <trkpt lat="53.822710309177637" lon="10.318383816629648">
        <ele>0</ele>
        <time>2010-01-01T20:15:00Z</time>
      </trkpt>
      <trkpt lat="53.822447033599019" lon="10.317973103374243">
        <ele>0</ele>
        <time>2010-01-01T20:14:46Z</time>
      </trkpt>
      <trkpt lat="53.822401938959956" lon="10.317822899669409">
        <ele>0</ele>
        <time>2010-01-01T20:14:42Z</time>
      </trkpt>
      <trkpt lat="53.822382241487503" lon="10.31757622025907">
        <ele>0</ele>
        <time>2010-01-01T20:14:36Z</time>
      </trkpt>
      <trkpt lat="53.822382241487503" lon="10.31757622025907">
        <ele>0</ele>
        <time>2010-01-01T22:42:22Z</time>
      </trkpt>
      <trkpt lat="53.822476705536246" lon="10.317565491423011">
        <ele>0</ele>
        <time>2010-01-01T22:42:26Z</time>
      </trkpt>
      <trkpt lat="53.822636967524886" lon="10.31753565184772">
        <ele>0</ele>
        <time>2010-01-01T22:42:32Z</time>
      </trkpt>
      <trkpt lat="53.823571968823671" lon="10.317321997135878">
        <ele>0</ele>
        <time>2010-01-01T22:43:10Z</time>
      </trkpt>
      <trkpt lat="53.82393934763968" lon="10.317246979102492">
        <ele>0</ele>
        <time>2010-01-01T22:43:25Z</time>
      </trkpt>
      <trkpt lat="53.824099861085415" lon="10.317201884463429">
        <ele>0</ele>
        <time>2010-01-01T22:43:31Z</time>
      </trkpt>
      <trkpt lat="53.824328519403934" lon="10.317161986604333">
        <ele>0</ele>
        <time>2010-01-01T22:43:40Z</time>
      </trkpt>
      <trkpt lat="53.824687851592898" lon="10.317082107067108">
        <ele>0</ele>
        <time>2010-01-01T22:43:55Z</time>
      </trkpt>
      <trkpt lat="53.824872337281704" lon="10.316980099305511">
        <ele>0</ele>
        <time>2010-01-01T22:44:03Z</time>
      </trkpt>
      <trkpt lat="53.824935788288713" lon="10.316912876442075">
        <ele>0</ele>
        <time>2010-01-01T22:44:06Z</time>
      </trkpt>
      <trkpt lat="53.824979541823268" lon="10.316866524517536">
        <ele>0</ele>
        <time>2010-01-01T22:44:08Z</time>
      </trkpt>
      <trkpt lat="53.825012063607574" lon="10.316809695214033">
        <ele>0</ele>
        <time>2010-01-01T22:44:09Z</time>
      </trkpt>
      <trkpt lat="53.82514575496316" lon="10.316540636122227">
        <ele>0</ele>
        <time>2010-01-01T22:44:18Z</time>
      </trkpt>
      <trkpt lat="53.825467620044947" lon="10.315792886540294">
        <ele>0</ele>
        <time>2010-01-01T22:44:40Z</time>
      </trkpt>
      <trkpt lat="53.825627127662301" lon="10.315419724211097">
        <ele>0</ele>
        <time>2010-01-01T22:44:51Z</time>
      </trkpt>
      <trkpt lat="53.825958296656609" lon="10.31471480615437">
        <ele>0</ele>
        <time>2010-01-01T22:45:12Z</time>
      </trkpt>
      <trkpt lat="53.826052509248257" lon="10.314564350992441">
        <ele>0</ele>
        <time>2010-01-01T22:45:17Z</time>
      </trkpt>
      <trkpt lat="53.826126605272293" lon="10.314448177814484">
        <ele>0</ele>
        <time>2010-01-01T22:45:21Z</time>
      </trkpt>
      <trkpt lat="53.826305726543069" lon="10.314172832295299">
        <ele>0</ele>
        <time>2010-01-01T22:45:31Z</time>
      </trkpt>
      <trkpt lat="53.826618622988462" lon="10.313740661367774">
        <ele>0</ele>
        <time>2010-01-01T22:45:47Z</time>
      </trkpt>
      <trkpt lat="53.826759606599808" lon="10.313585596159101">
        <ele>0</ele>
        <time>2010-01-01T22:45:54Z</time>
      </trkpt>
      <trkpt lat="53.826906709000468" lon="10.313442936167121">
        <ele>0</ele>
        <time>2010-01-01T22:46:00Z</time>
      </trkpt>
      <trkpt lat="53.827292108908296" lon="10.3130520042032">
        <ele>0</ele>
        <time>2010-01-01T22:46:18Z</time>
      </trkpt>
      <trkpt lat="53.827421022579074" lon="10.312921330332756">
        <ele>0</ele>
        <time>2010-01-01T22:46:24Z</time>
      </trkpt>
      <trkpt lat="53.82761724293232" lon="10.31272703781724">
        <ele>0</ele>
        <time>2010-01-01T22:46:33Z</time>
      </trkpt>
      <trkpt lat="53.827784545719624" lon="10.312546910718083">
        <ele>0</ele>
        <time>2010-01-01T22:46:41Z</time>
      </trkpt>
      <trkpt lat="53.827904909849167" lon="10.312382122501731">
        <ele>0</ele>
        <time>2010-01-01T22:46:48Z</time>
      </trkpt>
      <trkpt lat="53.828023010864854" lon="10.312186824157834">
        <ele>0</ele>
        <time>2010-01-01T22:46:54Z</time>
      </trkpt>
      <trkpt lat="53.828202048316598" lon="10.311835538595915">
        <ele>0</ele>
        <time>2010-01-01T22:47:05Z</time>
      </trkpt>
      <trkpt lat="53.828408662229776" lon="10.311349891126156">
        <ele>0</ele>
        <time>2010-01-01T22:47:19Z</time>
      </trkpt>
      <trkpt lat="53.828546544536948" lon="10.311059542000294">
        <ele>0</ele>
        <time>2010-01-01T22:47:28Z</time>
      </trkpt>
      <trkpt lat="53.828739244490862" lon="10.310778496786952">
        <ele>0</ele>
        <time>2010-01-01T22:47:38Z</time>
      </trkpt>
      <trkpt lat="53.829278200864792" lon="10.310133090242743">
        <ele>0</ele>
        <time>2010-01-01T22:48:05Z</time>
      </trkpt>
      <trkpt lat="53.82950384169817" lon="10.309875849634409">
        <ele>0</ele>
        <time>2010-01-01T22:48:16Z</time>
      </trkpt>
      <trkpt lat="53.829791005700827" lon="10.309669151902199">
        <ele>0</ele>
        <time>2010-01-01T22:48:28Z</time>
      </trkpt>
      <trkpt lat="53.830215884372592" lon="10.309349801391363">
        <ele>0</ele>
        <time>2010-01-01T22:48:47Z</time>
      </trkpt>
      <trkpt lat="53.830291070044041" lon="10.309305377304554">
        <ele>0</ele>
        <time>2010-01-01T22:48:50Z</time>
      </trkpt>
      <trkpt lat="53.830328034237027" lon="10.309283416718245">
        <ele>0</ele>
        <time>2010-01-01T22:48:51Z</time>
      </trkpt>
      <trkpt lat="53.830789290368557" lon="10.308924168348312">
        <ele>0</ele>
        <time>2010-01-01T22:49:12Z</time>
      </trkpt>
      <trkpt lat="53.831136887893081" lon="10.308605404570699">
        <ele>0</ele>
        <time>2010-01-01T22:49:28Z</time>
      </trkpt>
      <trkpt lat="53.831401253119111" lon="10.308368029072881">
        <ele>0</ele>
        <time>2010-01-01T22:49:40Z</time>
      </trkpt>
      <trkpt lat="53.831707527860999" lon="10.308108273893595">
        <ele>0</ele>
        <time>2010-01-01T22:49:53Z</time>
      </trkpt>
      <trkpt lat="53.831840297207236" lon="10.307962009683251">
        <ele>0</ele>
        <time>2010-01-01T22:50:00Z</time>
      </trkpt>
      <trkpt lat="53.832074152305722" lon="10.307688340544701">
        <ele>0</ele>
        <time>2010-01-01T22:50:11Z</time>
      </trkpt>
      <trkpt lat="53.832241287454963" lon="10.307444427162409">
        <ele>0</ele>
        <time>2010-01-01T22:50:20Z</time>
      </trkpt>
      <trkpt lat="53.832383947446942" lon="10.307131363078952">
        <ele>0</ele>
        <time>2010-01-01T22:50:29Z</time>
      </trkpt>
      <trkpt lat="53.83254605345428" lon="10.306770354509354">
        <ele>0</ele>
        <time>2010-01-01T22:50:40Z</time>
      </trkpt>
      <trkpt lat="53.832730371505022" lon="10.306349247694016">
        <ele>0</ele>
        <time>2010-01-01T22:50:52Z</time>
      </trkpt>
      <trkpt lat="53.832873953506351" lon="10.306030148640275">
        <ele>0</ele>
        <time>2010-01-01T22:51:02Z</time>
      </trkpt>
      <trkpt lat="53.833050560206175" lon="10.305737955495715">
        <ele>0</ele>
        <time>2010-01-01T22:51:12Z</time>
      </trkpt>
      <trkpt lat="53.833395978435874" lon="10.30520947650075">
        <ele>0</ele>
        <time>2010-01-01T22:51:30Z</time>
      </trkpt>
      <trkpt lat="53.833404192700982" lon="10.305197574198246">
        <ele>0</ele>
        <time>2010-01-01T22:51:31Z</time>
      </trkpt>
      <trkpt lat="53.834045408293605" lon="10.304239271208644">
        <ele>0</ele>
        <time>2010-01-01T22:52:05Z</time>
      </trkpt>
      <trkpt lat="53.834207095205784" lon="10.303993597626686">
        <ele>0</ele>
        <time>2010-01-01T22:52:14Z</time>
      </trkpt>
      <trkpt lat="53.834618395194411" lon="10.303433770313859">
        <ele>0</ele>
        <time>2010-01-01T22:52:35Z</time>
      </trkpt>
      <trkpt lat="53.834715122357011" lon="10.303301503881812">
        <ele>0</ele>
        <time>2010-01-01T22:52:40Z</time>
      </trkpt>
      <trkpt lat="53.835091972723603" lon="10.30276489444077">
        <ele>0</ele>
        <time>2010-01-01T22:52:59Z</time>
      </trkpt>
      <trkpt lat="53.835463793948293" lon="10.302258711308241">
        <ele>0</ele>
        <time>2010-01-01T22:53:19Z</time>
      </trkpt>
      <trkpt lat="53.835782809183002" lon="10.301870293915272">
        <ele>0</ele>
        <time>2010-01-01T22:53:34Z</time>
      </trkpt>
      <trkpt lat="53.835917506366968" lon="10.301713468506932">
        <ele>0</ele>
        <time>2010-01-01T22:53:41Z</time>
      </trkpt>
      <trkpt lat="53.83610769174993" lon="10.301490006968379">
        <ele>0</ele>
        <time>2010-01-01T22:53:50Z</time>
      </trkpt>
      <trkpt lat="53.836324866861105" lon="10.301268808543682">
        <ele>0</ele>
        <time>2010-01-01T22:54:00Z</time>
      </trkpt>
      <trkpt lat="53.836564254015684" lon="10.301068145781755">
        <ele>0</ele>
        <time>2010-01-01T22:54:11Z</time>
      </trkpt>
      <trkpt lat="53.836917467415333" lon="10.300810234621167">
        <ele>0</ele>
        <time>2010-01-01T22:54:26Z</time>
      </trkpt>
      <trkpt lat="53.837202284485102" lon="10.300614684820175">
        <ele>0</ele>
        <time>2010-01-01T22:54:39Z</time>
      </trkpt>
      <trkpt lat="53.837463799864054" lon="10.300398766994476">
        <ele>0</ele>
        <time>2010-01-01T22:54:50Z</time>
      </trkpt>
      <trkpt lat="53.837579553946853" lon="10.300247389823198">
        <ele>0</ele>
        <time>2010-01-01T22:54:56Z</time>
      </trkpt>
      <trkpt lat="53.837681729346514" lon="10.300022670999169">
        <ele>0</ele>
        <time>2010-01-01T22:55:03Z</time>
      </trkpt>
      <trkpt lat="53.837763536721468" lon="10.299765430390835">
        <ele>0</ele>
        <time>2010-01-01T22:55:10Z</time>
      </trkpt>
      <trkpt lat="53.837941568344831" lon="10.299006784334779">
        <ele>0</ele>
        <time>2010-01-01T22:55:29Z</time>
      </trkpt>
      <trkpt lat="53.83806511759758" lon="10.29863839969039">
        <ele>0</ele>
        <time>2010-01-01T22:55:39Z</time>
      </trkpt>
      <trkpt lat="53.838184392079711" lon="10.298285102471709">
        <ele>0</ele>
        <time>2010-01-01T22:55:49Z</time>
      </trkpt>
      <trkpt lat="53.838206017389894" lon="10.298152081668377">
        <ele>0</ele>
        <time>2010-01-01T22:55:52Z</time>
      </trkpt>
      <trkpt lat="53.838198641315103" lon="10.298032891005278">
        <ele>0</ele>
        <time>2010-01-01T22:55:55Z</time>
      </trkpt>
      <trkpt lat="53.838293356820941" lon="10.297927698120475">
        <ele>0</ele>
        <time>2010-01-01T22:55:59Z</time>
      </trkpt>
      <trkpt lat="53.838507598266006" lon="10.297350184991956">
        <ele>0</ele>
        <time>2010-01-01T22:56:15Z</time>
      </trkpt>
      <trkpt lat="53.83867934346199" lon="10.297064865007997">
        <ele>0</ele>
        <time>2010-01-01T22:56:25Z</time>
      </trkpt>
      <trkpt lat="53.838830888271332" lon="10.296869482845068">
        <ele>0</ele>
        <time>2010-01-01T22:56:33Z</time>
      </trkpt>
      <trkpt lat="53.839051248505712" lon="10.296601261943579">
        <ele>0</ele>
        <time>2010-01-01T22:56:43Z</time>
      </trkpt>
      <trkpt lat="53.839202793315053" lon="10.296381153166294">
        <ele>0</ele>
        <time>2010-01-01T22:56:51Z</time>
      </trkpt>
      <trkpt lat="53.839321481063962" lon="10.296125002205372">
        <ele>0</ele>
        <time>2010-01-01T22:56:59Z</time>
      </trkpt>
      <trkpt lat="53.839387949556112" lon="10.295962980017066">
        <ele>0</ele>
        <time>2010-01-01T22:57:04Z</time>
      </trkpt>
      <trkpt lat="53.839491633698344" lon="10.295764161273837">
        <ele>0</ele>
        <time>2010-01-01T22:57:10Z</time>
      </trkpt>
      <trkpt lat="53.839612752199173" lon="10.295696519315243">
        <ele>0</ele>
        <time>2010-01-01T22:57:15Z</time>
      </trkpt>
      <trkpt lat="53.84022144600749" lon="10.295573975890875">
        <ele>0</ele>
        <time>2010-01-01T22:57:40Z</time>
      </trkpt>
      <trkpt lat="53.8405283074826" lon="10.295533323660493">
        <ele>0</ele>
        <time>2010-01-01T22:57:52Z</time>
      </trkpt>
      <trkpt lat="53.841268345713615" lon="10.295398207381368">
        <ele>0</ele>
        <time>2010-01-01T22:58:22Z</time>
      </trkpt>
      <trkpt lat="53.841791460290551" lon="10.295301899313927">
        <ele>0</ele>
        <time>2010-01-01T22:58:43Z</time>
      </trkpt>
      <trkpt lat="53.842898709699512" lon="10.295109702274203">
        <ele>0</ele>
        <time>2010-01-01T22:59:27Z</time>
      </trkpt>
      <trkpt lat="53.843320151790977" lon="10.295023955404758">
        <ele>0</ele>
        <time>2010-01-01T22:59:44Z</time>
      </trkpt>
      <trkpt lat="53.845080016180873" lon="10.294718267396092">
        <ele>0</ele>
        <time>2010-01-01T23:00:55Z</time>
      </trkpt>
      <trkpt lat="53.845938825979829" lon="10.294569991528988">
        <ele>0</ele>
        <time>2010-01-01T23:01:30Z</time>
      </trkpt>
      <trkpt lat="53.846703255549073" lon="10.294428002089262">
        <ele>0</ele>
        <time>2010-01-01T23:02:01Z</time>
      </trkpt>
      <trkpt lat="53.847269620746374" lon="10.294316271319985">
        <ele>0</ele>
        <time>2010-01-01T23:02:23Z</time>
      </trkpt>
      <trkpt lat="53.847978143021464" lon="10.294187776744366">
        <ele>0</ele>
        <time>2010-01-01T23:02:52Z</time>
      </trkpt>
      <trkpt lat="53.848627237603068" lon="10.294069508090615">
        <ele>0</ele>
        <time>2010-01-01T23:03:18Z</time>
      </trkpt>
      <trkpt lat="53.84953667409718" lon="10.293887872248888">
        <ele>0</ele>
        <time>2010-01-01T23:03:55Z</time>
      </trkpt>
      <trkpt lat="53.850165735930204" lon="10.293718809261918">
        <ele>0</ele>
        <time>2010-01-01T23:04:20Z</time>
      </trkpt>
      <trkpt lat="53.850351059809327" lon="10.293691148981452">
        <ele>0</ele>
        <time>2010-01-01T23:04:28Z</time>
      </trkpt>
      <trkpt lat="53.850510735064745" lon="10.293718809261918">
        <ele>0</ele>
        <time>2010-01-01T23:04:34Z</time>
      </trkpt>
      <trkpt lat="53.850711230188608" lon="10.293793408200145">
        <ele>0</ele>
        <time>2010-01-01T23:04:42Z</time>
      </trkpt>
      <trkpt lat="53.850974841043353" lon="10.293924668803811">
        <ele>0</ele>
        <time>2010-01-01T23:04:53Z</time>
      </trkpt>
      <trkpt lat="53.851324785500765" lon="10.294054001569748">
        <ele>0</ele>
        <time>2010-01-01T23:05:08Z</time>
      </trkpt>
      <trkpt lat="53.851757710799575" lon="10.29414938762784">
        <ele>0</ele>
        <time>2010-01-01T23:05:25Z</time>
      </trkpt>
      <trkpt lat="53.852008832618594" lon="10.294192135334015">
        <ele>0</ele>
        <time>2010-01-01T23:05:35Z</time>
      </trkpt>
      <trkpt lat="53.852107571437955" lon="10.294205797836185">
        <ele>0</ele>
        <time>2010-01-01T23:05:39Z</time>
      </trkpt>
      <trkpt lat="53.852277053520083" lon="10.294151734560728">
        <ele>0</ele>
        <time>2010-01-01T23:05:46Z</time>
      </trkpt>
      <trkpt lat="53.852472603321075" lon="10.294016450643539">
        <ele>0</ele>
        <time>2010-01-01T23:05:55Z</time>
      </trkpt>
      <trkpt lat="53.852696316316724" lon="10.293848644942045">
        <ele>0</ele>
        <time>2010-01-01T23:06:04Z</time>
      </trkpt>
      <trkpt lat="53.852848028764129" lon="10.293778823688626">
        <ele>0</ele>
        <time>2010-01-01T23:06:11Z</time>
      </trkpt>
      <trkpt lat="53.853096636012197" lon="10.293777650222182">
        <ele>0</ele>
        <time>2010-01-01T23:06:21Z</time>
      </trkpt>
      <trkpt lat="53.853335687890649" lon="10.293743284419179">
        <ele>0</ele>
        <time>2010-01-01T23:06:30Z</time>
      </trkpt>
      <trkpt lat="53.853729302063584" lon="10.293765161186457">
        <ele>0</ele>
        <time>2010-01-01T23:06:46Z</time>
      </trkpt>
      <trkpt lat="53.853900209069252" lon="10.29386599548161">
        <ele>0</ele>
        <time>2010-01-01T23:06:53Z</time>
      </trkpt>
      <trkpt lat="53.853972209617496" lon="10.293938163667917">
        <ele>0</ele>
        <time>2010-01-01T23:06:57Z</time>
      </trkpt>
      <trkpt lat="53.854015879333019" lon="10.294018546119332">
        <ele>0</ele>
        <time>2010-01-01T23:06:59Z</time>
      </trkpt>
      <trkpt lat="53.854039767757058" lon="10.294089121744037">
        <ele>0</ele>
        <time>2010-01-01T23:07:01Z</time>
      </trkpt>
      <trkpt lat="53.854073965921998" lon="10.294167743995786">
        <ele>0</ele>
        <time>2010-01-01T23:07:03Z</time>
      </trkpt>
      <trkpt lat="53.854125095531344" lon="10.294336471706629">
        <ele>0</ele>
        <time>2010-01-01T23:07:08Z</time>
      </trkpt>
      <trkpt lat="53.854162897914648" lon="10.294501762837172">
        <ele>0</ele>
        <time>2010-01-01T23:07:12Z</time>
      </trkpt>
      <trkpt lat="53.854215703904629" lon="10.294769397005439">
        <ele>0</ele>
        <time>2010-01-01T23:07:19Z</time>
      </trkpt>
      <trkpt lat="53.854246633127332" lon="10.29498003423214">
        <ele>0</ele>
        <time>2010-01-01T23:07:24Z</time>
      </trkpt>
      <trkpt lat="53.854342019185424" lon="10.295300642028451">
        <ele>0</ele>
        <time>2010-01-01T23:07:32Z</time>
      </trkpt>
      <trkpt lat="53.854404212906957" lon="10.295450007542968">
        <ele>0</ele>
        <time>2010-01-01T23:07:37Z</time>
      </trkpt>
      <trkpt lat="53.854485601186752" lon="10.295650083571672">
        <ele>0</ele>
        <time>2010-01-01T23:07:42Z</time>
      </trkpt>
      <trkpt lat="53.854571683332324" lon="10.295832054689527">
        <ele>0</ele>
        <time>2010-01-01T23:07:48Z</time>
      </trkpt>
      <trkpt lat="53.854664051905274" lon="10.296017294749618">
        <ele>0</ele>
        <time>2010-01-01T23:07:54Z</time>
      </trkpt>
      <trkpt lat="53.854666985571384" lon="10.296022575348616">
        <ele>0</ele>
        <time>2010-01-01T23:07:54Z</time>
      </trkpt>
      <trkpt lat="53.854690538719296" lon="10.296065239235759">
        <ele>0</ele>
        <time>2010-01-01T23:07:55Z</time>
      </trkpt>
      <trkpt lat="53.854736303910613" lon="10.296151740476489">
        <ele>0</ele>
        <time>2010-01-01T23:07:58Z</time>
      </trkpt>
      <trkpt lat="53.854776956140995" lon="10.296210749074817">
        <ele>0</ele>
        <time>2010-01-01T23:08:00Z</time>
      </trkpt>
      <trkpt lat="53.854828756302595" lon="10.296239666640759">
        <ele>0</ele>
        <time>2010-01-01T23:08:02Z</time>
      </trkpt>
      <trkpt lat="53.854926489293575" lon="10.296262465417385">
        <ele>0</ele>
        <time>2010-01-01T23:08:06Z</time>
      </trkpt>
      <trkpt lat="53.85508649982512" lon="10.296250730752945">
        <ele>0</ele>
        <time>2010-01-01T23:08:13Z</time>
      </trkpt>
      <trkpt lat="53.855252377688885" lon="10.296207228675485">
        <ele>0</ele>
        <time>2010-01-01T23:08:19Z</time>
      </trkpt>
      <trkpt lat="53.855344410985708" lon="10.296167498454452">
        <ele>0</ele>
        <time>2010-01-01T23:08:23Z</time>
      </trkpt>
      <trkpt lat="53.855409454554319" lon="10.296136066317558">
        <ele>0</ele>
        <time>2010-01-01T23:08:26Z</time>
      </trkpt>
      <trkpt lat="53.855446837842464" lon="10.296087032184005">
        <ele>0</ele>
        <time>2010-01-01T23:08:28Z</time>
      </trkpt>
      <trkpt lat="53.855490004643798" lon="10.29600178822875">
        <ele>0</ele>
        <time>2010-01-01T23:08:30Z</time>
      </trkpt>
      <trkpt lat="53.855546331033111" lon="10.295856110751629">
        <ele>0</ele>
        <time>2010-01-01T23:08:34Z</time>
      </trkpt>
      <trkpt lat="53.855590922757983" lon="10.295720659196377">
        <ele>0</ele>
        <time>2010-01-01T23:08:38Z</time>
      </trkpt>
      <trkpt lat="53.855627216398716" lon="10.295609347522259">
        <ele>0</ele>
        <time>2010-01-01T23:08:41Z</time>
      </trkpt>
      <trkpt lat="53.855741629377007" lon="10.295243561267853">
        <ele>0</ele>
        <time>2010-01-01T23:08:51Z</time>
      </trkpt>
      <trkpt lat="53.855926534160972" lon="10.294679375365376">
        <ele>0</ele>
        <time>2010-01-01T23:09:06Z</time>
      </trkpt>
      <trkpt lat="53.856001803651452" lon="10.294447615742683">
        <ele>0</ele>
        <time>2010-01-01T23:09:12Z</time>
      </trkpt>
      <trkpt lat="53.856030218303204" lon="10.294398330152035">
        <ele>0</ele>
        <time>2010-01-01T23:09:14Z</time>
      </trkpt>
      <trkpt lat="53.856052262708545" lon="10.294354911893606">
        <ele>0</ele>
        <time>2010-01-01T23:09:15Z</time>
      </trkpt>
      <trkpt lat="53.856065841391683" lon="10.294343177229166">
        <ele>0</ele>
        <time>2010-01-01T23:09:16Z</time>
      </trkpt>
      <trkpt lat="53.856077659875154" lon="10.294334460049868">
        <ele>0</ele>
        <time>2010-01-01T23:09:16Z</time>
      </trkpt>
      <trkpt lat="53.856110097840428" lon="10.294323312118649">
        <ele>0</ele>
        <time>2010-01-01T23:09:18Z</time>
      </trkpt>
      <trkpt lat="53.856183774769306" lon="10.294322557747364">
        <ele>0</ele>
        <time>2010-01-01T23:09:21Z</time>
      </trkpt>
      <trkpt lat="53.856435399502516" lon="10.294404784217477">
        <ele>0</ele>
        <time>2010-01-01T23:09:31Z</time>
      </trkpt>
      <trkpt lat="53.85699606500566" lon="10.294575607404113">
        <ele>0</ele>
        <time>2010-01-01T23:09:54Z</time>
      </trkpt>
      <trkpt lat="53.857621774077415" lon="10.294789429754019">
        <ele>0</ele>
        <time>2010-01-01T23:10:19Z</time>
      </trkpt>
      <trkpt lat="53.858211021870375" lon="10.294971819967031">
        <ele>0</ele>
        <time>2010-01-01T23:10:43Z</time>
      </trkpt>
      <trkpt lat="53.858661465346813" lon="10.295111881569028">
        <ele>0</ele>
        <time>2010-01-01T23:11:02Z</time>
      </trkpt>
      <trkpt lat="53.85888266377151" lon="10.295179523527622">
        <ele>0</ele>
        <time>2010-01-01T23:11:11Z</time>
      </trkpt>
      <trkpt lat="53.859617924317718" lon="10.295410444959998">
        <ele>0</ele>
        <time>2010-01-01T23:11:41Z</time>
      </trkpt>
      <trkpt lat="53.860303899273276" lon="10.29562016017735">
        <ele>0</ele>
        <time>2010-01-01T23:12:08Z</time>
      </trkpt>
      <trkpt lat="53.860792815685272" lon="10.295776650309563">
        <ele>0</ele>
        <time>2010-01-01T23:12:28Z</time>
      </trkpt>
      <trkpt lat="53.861319199204445" lon="10.295954011380672">
        <ele>0</ele>
        <time>2010-01-01T23:12:50Z</time>
      </trkpt>
      <trkpt lat="53.861390613019466" lon="10.295580765232444">
        <ele>0</ele>
        <time>2010-01-01T23:12:59Z</time>
      </trkpt>
      <trkpt lat="53.861522125080228" lon="10.294858748093247">
        <ele>0</ele>
        <time>2010-01-01T23:13:17Z</time>
      </trkpt>
      <trkpt lat="53.861534865573049" lon="10.294788759201765">
        <ele>0</ele>
        <time>2010-01-01T23:13:19Z</time>
      </trkpt>
      <trkpt lat="53.861551210284233" lon="10.294688930734992">
        <ele>0</ele>
        <time>2010-01-01T23:13:21Z</time>
      </trkpt>
      <trkpt lat="53.861567471176386" lon="10.294597735628486">
        <ele>0</ele>
        <time>2010-01-01T23:13:23Z</time>
      </trkpt>
      <trkpt lat="53.86198396794498" lon="10.294759757816792">
        <ele>0</ele>
        <time>2010-01-01T23:13:41Z</time>
      </trkpt>
      <trkpt lat="53.862051945179701" lon="10.294751543551683">
        <ele>0</ele>
        <time>2010-01-01T23:13:43Z</time>
      </trkpt>
      <trkpt lat="53.862212877720594" lon="10.294738300144672">
        <ele>0</ele>
        <time>2010-01-01T23:13:50Z</time>
      </trkpt>
      <trkpt lat="53.862551674246788" lon="10.294733522459865">
        <ele>0</ele>
        <time>2010-01-01T23:14:03Z</time>
      </trkpt>
      <trkpt lat="53.862731214612722" lon="10.294746682047844">
        <ele>0</ele>
        <time>2010-01-01T23:14:10Z</time>
      </trkpt>
      <trkpt lat="53.862775135785341" lon="10.294761685654521">
        <ele>0</ele>
        <time>2010-01-01T23:14:12Z</time>
      </trkpt>
      <trkpt lat="53.862808076664805" lon="10.294791609048843">
        <ele>0</ele>
        <time>2010-01-01T23:14:14Z</time>
      </trkpt>
      <trkpt lat="53.862836407497525" lon="10.294827483594418">
        <ele>0</ele>
        <time>2010-01-01T23:14:15Z</time>
      </trkpt>
      <trkpt lat="53.862863564863801" lon="10.29489210806787">
        <ele>0</ele>
        <time>2010-01-01T23:14:17Z</time>
      </trkpt>
      <trkpt lat="53.862924836575985" lon="10.295042982324958">
        <ele>0</ele>
        <time>2010-01-01T23:14:21Z</time>
      </trkpt>
      <trkpt lat="53.862957861274481" lon="10.295065278187394">
        <ele>0</ele>
        <time>2010-01-01T23:14:23Z</time>
      </trkpt>
      <trkpt lat="53.863049307838082" lon="10.295080281794071">
        <ele>0</ele>
        <time>2010-01-01T23:14:26Z</time>
      </trkpt>
      <trkpt lat="53.863239493221045" lon="10.295110456645489">
        <ele>0</ele>
        <time>2010-01-01T23:14:34Z</time>
      </trkpt>
      <trkpt lat="53.863582648336887" lon="10.295198634266853">
        <ele>0</ele>
        <time>2010-01-01T23:14:48Z</time>
      </trkpt>
      <trkpt lat="53.863736037164927" lon="10.295227635651827">
        <ele>0</ele>
        <time>2010-01-01T23:14:54Z</time>
      </trkpt>
      <trkpt lat="53.863946925848722" lon="10.295268371701241">
        <ele>0</ele>
        <time>2010-01-01T23:15:03Z</time>
      </trkpt>
      <trkpt lat="53.863979866728187" lon="10.295274741947651">
        <ele>0</ele>
        <time>2010-01-01T23:15:04Z</time>
      </trkpt>
      <trkpt lat="53.864139625802636" lon="10.295294858515263">
        <ele>0</ele>
        <time>2010-01-01T23:15:10Z</time>
      </trkpt>
      <trkpt lat="53.864257140085101" lon="10.295309107750654">
        <ele>0</ele>
        <time>2010-01-01T23:15:15Z</time>
      </trkpt>
      <trkpt lat="53.864423017948866" lon="10.295344647020102">
        <ele>0</ele>
        <time>2010-01-01T23:15:22Z</time>
      </trkpt>
      <trkpt lat="53.864438608288765" lon="10.295565593987703">
        <ele>0</ele>
        <time>2010-01-01T23:15:27Z</time>
      </trkpt>
      <trkpt lat="53.864440452307463" lon="10.295584453269839">
        <ele>0</ele>
        <time>2010-01-01T23:15:28Z</time>
      </trkpt>
      <trkpt lat="53.864443302154541" lon="10.295614041388035">
        <ele>0</ele>
        <time>2010-01-01T23:15:28Z</time>
      </trkpt>
      <trkpt lat="53.86444229632616" lon="10.295740021392703">
        <ele>0</ele>
        <time>2010-01-01T23:15:31Z</time>
      </trkpt>
      <trkpt lat="53.864429472014308" lon="10.295873461291194">
        <ele>0</ele>
        <time>2010-01-01T23:15:34Z</time>
      </trkpt>
      <trkpt lat="53.864405918866396" lon="10.295968176797032">
        <ele>0</ele>
        <time>2010-01-01T23:15:37Z</time>
      </trkpt>
      <trkpt lat="53.864374570548534" lon="10.296075297519565">
        <ele>0</ele>
        <time>2010-01-01T23:15:40Z</time>
      </trkpt>
      <trkpt lat="53.864328805357218" lon="10.296169342473149">
        <ele>0</ele>
        <time>2010-01-01T23:15:43Z</time>
      </trkpt>
      <trkpt lat="53.86438949033618" lon="10.296267746016383">
        <ele>0</ele>
        <time>2010-01-01T23:15:46Z</time>
      </trkpt>
      <trkpt lat="53.864455120638013" lon="10.296369921416044">
        <ele>0</ele>
        <time>2010-01-01T23:15:49Z</time>
      </trkpt>
      <trkpt lat="53.864592080935836" lon="10.296636382117867">
        <ele>0</ele>
        <time>2010-01-01T23:15:58Z</time>
      </trkpt>
      <trkpt lat="53.864685958251357" lon="10.296836122870445">
        <ele>0</ele>
        <time>2010-01-01T23:16:04Z</time>
      </trkpt>
      <trkpt lat="53.8649582862854" lon="10.297361752018332">
        <ele>0</ele>
        <time>2010-01-01T23:16:20Z</time>
      </trkpt>
      <trkpt lat="53.865048894658685" lon="10.297540873289108">
        <ele>0</ele>
        <time>2010-01-01T23:16:26Z</time>
      </trkpt>
      <trkpt lat="53.865177305415273" lon="10.297713624313474">
        <ele>0</ele>
        <time>2010-01-01T23:16:32Z</time>
      </trkpt>
      <trkpt lat="53.865294987335801" lon="10.297879921272397">
        <ele>0</ele>
        <time>2010-01-01T23:16:39Z</time>
      </trkpt>
      <trkpt lat="53.865445693954825" lon="10.298071531578898">
        <ele>0</ele>
        <time>2010-01-01T23:16:46Z</time>
      </trkpt>
      <trkpt lat="53.865629257634282" lon="10.298293149098754">
        <ele>0</ele>
        <time>2010-01-01T23:16:55Z</time>
      </trkpt>
      <trkpt lat="53.865681728348136" lon="10.298349475488067">
        <ele>0</ele>
        <time>2010-01-01T23:16:58Z</time>
      </trkpt>
      <trkpt lat="53.865782059729099" lon="10.298457434400916">
        <ele>0</ele>
        <time>2010-01-01T23:17:02Z</time>
      </trkpt>
      <trkpt lat="53.865906447172165" lon="10.298589030280709">
        <ele>0</ele>
        <time>2010-01-01T23:17:08Z</time>
      </trkpt>
      <trkpt lat="53.866020357236266" lon="10.298686763271689">
        <ele>0</ele>
        <time>2010-01-01T23:17:13Z</time>
      </trkpt>
      <trkpt lat="53.866076599806547" lon="10.298724984750152">
        <ele>0</ele>
        <time>2010-01-01T23:17:16Z</time>
      </trkpt>
      <trkpt lat="53.866140889003873" lon="10.298761948943138">
        <ele>0</ele>
        <time>2010-01-01T23:17:19Z</time>
      </trkpt>
      <trkpt lat="53.866209704428911" lon="10.298796063289046">
        <ele>0</ele>
        <time>2010-01-01T23:17:21Z</time>
      </trkpt>
      <trkpt lat="53.866351107135415" lon="10.29884903691709">
        <ele>0</ele>
        <time>2010-01-01T23:17:27Z</time>
      </trkpt>
      <trkpt lat="53.866560822352767" lon="10.298895137384534">
        <ele>0</ele>
        <time>2010-01-01T23:17:36Z</time>
      </trkpt>
      <trkpt lat="53.866813620552421" lon="10.298948530107737">
        <ele>0</ele>
        <time>2010-01-01T23:17:46Z</time>
      </trkpt>
      <trkpt lat="53.866887129843235" lon="10.298964539542794">
        <ele>0</ele>
        <time>2010-01-01T23:17:49Z</time>
      </trkpt>
      <trkpt lat="53.867157027125359" lon="10.29902002774179">
        <ele>0</ele>
        <time>2010-01-01T23:18:00Z</time>
      </trkpt>
      <trkpt lat="53.867502948269248" lon="10.2991006616503">
        <ele>0</ele>
        <time>2010-01-01T23:18:14Z</time>
      </trkpt>
      <trkpt lat="53.867600681260228" lon="10.299123460426927">
        <ele>0</ele>
        <time>2010-01-01T23:18:18Z</time>
      </trkpt>
      <trkpt lat="53.867657091468573" lon="10.29913435690105">
        <ele>0</ele>
        <time>2010-01-01T23:18:20Z</time>
      </trkpt>
      <trkpt lat="53.868042742833495" lon="10.299205519258976">
        <ele>0</ele>
        <time>2010-01-01T23:18:35Z</time>
      </trkpt>
      <trkpt lat="53.868379108607769" lon="10.299280285835266">
        <ele>0</ele>
        <time>2010-01-01T23:18:49Z</time>
      </trkpt>
      <trkpt lat="53.86844071559608" lon="10.299293948337436">
        <ele>0</ele>
        <time>2010-01-01T23:18:52Z</time>
      </trkpt>
      <trkpt lat="53.86884774081409" lon="10.299373408779502">
        <ele>0</ele>
        <time>2010-01-01T23:19:08Z</time>
      </trkpt>
      <trkpt lat="53.869049409404397" lon="10.299420766532421">
        <ele>0</ele>
        <time>2010-01-01T23:19:16Z</time>
      </trkpt>
      <trkpt lat="53.869305728003383" lon="10.299481870606542">
        <ele>0</ele>
        <time>2010-01-01T23:19:26Z</time>
      </trkpt>
      <trkpt lat="53.869742341339588" lon="10.299577508121729">
        <ele>0</ele>
        <time>2010-01-01T23:19:44Z</time>
      </trkpt>
      <trkpt lat="53.869977202266455" lon="10.299622854217887">
        <ele>0</ele>
        <time>2010-01-01T23:19:54Z</time>
      </trkpt>
      <trkpt lat="53.87010452337563" lon="10.299648083746433">
        <ele>0</ele>
        <time>2010-01-01T23:19:59Z</time>
      </trkpt>
      <trkpt lat="53.870528563857079" lon="10.299738775938749">
        <ele>0</ele>
        <time>2010-01-01T23:20:16Z</time>
      </trkpt>
      <trkpt lat="53.870807345956564" lon="10.299796024337411">
        <ele>0</ele>
        <time>2010-01-01T23:20:27Z</time>
      </trkpt>
      <trkpt lat="53.870978588238358" lon="10.299830222502351">
        <ele>0</ele>
        <time>2010-01-01T23:20:34Z</time>
      </trkpt>
      <trkpt lat="53.871413357555866" lon="10.299924351274967">
        <ele>0</ele>
        <time>2010-01-01T23:20:51Z</time>
      </trkpt>
      <trkpt lat="53.871876960620284" lon="10.300016216933727">
        <ele>0</ele>
        <time>2010-01-01T23:21:10Z</time>
      </trkpt>
      <trkpt lat="53.872173679992557" lon="10.300075644627213">
        <ele>0</ele>
        <time>2010-01-01T23:21:22Z</time>
      </trkpt>
      <trkpt lat="53.872226234525442" lon="10.300086876377463">
        <ele>0</ele>
        <time>2010-01-01T23:21:24Z</time>
      </trkpt>
      <trkpt lat="53.872308125719428" lon="10.300104143097997">
        <ele>0</ele>
        <time>2010-01-01T23:21:28Z</time>
      </trkpt>
      <trkpt lat="53.872403344139457" lon="10.300113195553422">
        <ele>0</ele>
        <time>2010-01-01T23:21:31Z</time>
      </trkpt>
      <trkpt lat="53.872522534802556" lon="10.300054522231221">
        <ele>0</ele>
        <time>2010-01-01T23:21:36Z</time>
      </trkpt>
      <trkpt lat="53.872680198401213" lon="10.2999347448349">
        <ele>0</ele>
        <time>2010-01-01T23:21:43Z</time>
      </trkpt>
      <trkpt lat="53.872958309948444" lon="10.299721425399184">
        <ele>0</ele>
        <time>2010-01-01T23:21:55Z</time>
      </trkpt>
      <trkpt lat="53.873232314363122" lon="10.299480529502034">
        <ele>0</ele>
        <time>2010-01-01T23:22:08Z</time>
      </trkpt>
      <trkpt lat="53.87325226329267" lon="10.299462927505374">
        <ele>0</ele>
        <time>2010-01-01T23:22:09Z</time>
      </trkpt>
      <trkpt lat="53.873525010421872" lon="10.299204513430595">
        <ele>0</ele>
        <time>2010-01-01T23:22:21Z</time>
      </trkpt>
      <trkpt lat="53.873974531888962" lon="10.298810228705406">
        <ele>0</ele>
        <time>2010-01-01T23:22:41Z</time>
      </trkpt>
      <trkpt lat="53.874251218512654" lon="10.298569416627288">
        <ele>0</ele>
        <time>2010-01-01T23:22:54Z</time>
      </trkpt>
      <trkpt lat="53.874376444146037" lon="10.298459278419614">
        <ele>0</ele>
        <time>2010-01-01T23:23:00Z</time>
      </trkpt>
      <trkpt lat="53.87453293427825" lon="10.298357689753175">
        <ele>0</ele>
        <time>2010-01-01T23:23:06Z</time>
      </trkpt>
      <trkpt lat="53.87468246743083" lon="10.29832131229341">
        <ele>0</ele>
        <time>2010-01-01T23:23:12Z</time>
      </trkpt>
      <trkpt lat="53.874811716377735" lon="10.298337489366531">
        <ele>0</ele>
        <time>2010-01-01T23:23:17Z</time>
      </trkpt>
      <trkpt lat="53.874957729130983" lon="10.298375459387898">
        <ele>0</ele>
        <time>2010-01-01T23:23:23Z</time>
      </trkpt>
      <trkpt lat="53.875144561752677" lon="10.298469420522451">
        <ele>0</ele>
        <time>2010-01-01T23:23:31Z</time>
      </trkpt>
      <trkpt lat="53.875447902828455" lon="10.298670418560505">
        <ele>0</ele>
        <time>2010-01-01T23:23:44Z</time>
      </trkpt>
      <trkpt lat="53.875864567235112" lon="10.298937214538455">
        <ele>0</ele>
        <time>2010-01-01T23:24:02Z</time>
      </trkpt>
      <trkpt lat="53.875976465642452" lon="10.298974178731441">
        <ele>0</ele>
        <time>2010-01-01T23:24:07Z</time>
      </trkpt>
      <trkpt lat="53.876047628000379" lon="10.298958169296384">
        <ele>0</ele>
        <time>2010-01-01T23:24:09Z</time>
      </trkpt>
      <trkpt lat="53.87615667656064" lon="10.298928078263998">
        <ele>0</ele>
        <time>2010-01-01T23:24:14Z</time>
      </trkpt>
      <trkpt lat="53.876272011548281" lon="10.298898154869676">
        <ele>0</ele>
        <time>2010-01-01T23:24:19Z</time>
      </trkpt>
      <trkpt lat="53.876516176387668" lon="10.29883730225265">
        <ele>0</ele>
        <time>2010-01-01T23:24:28Z</time>
      </trkpt>
      <trkpt lat="53.876785738393664" lon="10.298752980306745">
        <ele>0</ele>
        <time>2010-01-01T23:24:39Z</time>
      </trkpt>
      <trkpt lat="53.877014564350247" lon="10.298699168488383">
        <ele>0</ele>
        <time>2010-01-01T23:24:49Z</time>
      </trkpt>
      <trkpt lat="53.8770532887429" lon="10.298689780756831">
        <ele>0</ele>
        <time>2010-01-01T23:24:50Z</time>
      </trkpt>
      <trkpt lat="53.877233164384961" lon="10.298672514036298">
        <ele>0</ele>
        <time>2010-01-01T23:24:57Z</time>
      </trkpt>
      <trkpt lat="53.877438940107822" lon="10.298675866797566">
        <ele>0</ele>
        <time>2010-01-01T23:25:06Z</time>
      </trkpt>
      <trkpt lat="53.877679584547877" lon="10.298687936738133">
        <ele>0</ele>
        <time>2010-01-01T23:25:15Z</time>
      </trkpt>
      <trkpt lat="53.877883180975914" lon="10.298726158216596">
        <ele>0</ele>
        <time>2010-01-01T23:25:24Z</time>
      </trkpt>
      <trkpt lat="53.878417611122131" lon="10.298826321959496">
        <ele>0</ele>
        <time>2010-01-01T23:25:45Z</time>
      </trkpt>
      <trkpt lat="53.878696309402585" lon="10.298892790451646">
        <ele>0</ele>
        <time>2010-01-01T23:25:56Z</time>
      </trkpt>
      <trkpt lat="53.878941982984543" lon="10.298938388004899">
        <ele>0</ele>
        <time>2010-01-01T23:26:06Z</time>
      </trkpt>
      <trkpt lat="53.879061676561832" lon="10.29896236024797">
        <ele>0</ele>
        <time>2010-01-01T23:26:11Z</time>
      </trkpt>
      <trkpt lat="53.879194865003228" lon="10.298988847061992">
        <ele>0</ele>
        <time>2010-01-01T23:26:16Z</time>
      </trkpt>
      <trkpt lat="53.879526704549789" lon="10.299046263098717">
        <ele>0</ele>
        <time>2010-01-01T23:26:30Z</time>
      </trkpt>
      <trkpt lat="53.879859130829573" lon="10.299129579216242">
        <ele>0</ele>
        <time>2010-01-01T23:26:43Z</time>
      </trkpt>
      <trkpt lat="53.880263641476631" lon="10.299195377156138">
        <ele>0</ele>
        <time>2010-01-01T23:26:59Z</time>
      </trkpt>
      <trkpt lat="53.880516523495317" lon="10.299241226166487">
        <ele>0</ele>
        <time>2010-01-01T23:27:10Z</time>
      </trkpt>
      <trkpt lat="53.880682401359081" lon="10.299272239208221">
        <ele>0</ele>
        <time>2010-01-01T23:27:16Z</time>
      </trkpt>
      <trkpt lat="53.881031088531017" lon="10.299351448193192">
        <ele>0</ele>
        <time>2010-01-01T23:27:30Z</time>
      </trkpt>
      <trkpt lat="53.881255639716983" lon="10.299394782632589">
        <ele>0</ele>
        <time>2010-01-01T23:27:39Z</time>
      </trkpt>
      <trkpt lat="53.881313558667898" lon="10.299405846744776">
        <ele>0</ele>
        <time>2010-01-01T23:27:42Z</time>
      </trkpt>
      <trkpt lat="53.881636345759034" lon="10.299469130113721">
        <ele>0</ele>
        <time>2010-01-01T23:27:55Z</time>
      </trkpt>
      <trkpt lat="53.881932226940989" lon="10.299520846456289">
        <ele>0</ele>
        <time>2010-01-01T23:28:07Z</time>
      </trkpt>
      <trkpt lat="53.88222886249423" lon="10.299560325220227">
        <ele>0</ele>
        <time>2010-01-01T23:28:19Z</time>
      </trkpt>
      <trkpt lat="53.882245374843478" lon="10.299562504515052">
        <ele>0</ele>
        <time>2010-01-01T23:28:19Z</time>
      </trkpt>
      <trkpt lat="53.882555337622762" lon="10.299569042399526">
        <ele>0</ele>
        <time>2010-01-01T23:28:32Z</time>
      </trkpt>
      <trkpt lat="53.882757592946291" lon="10.299555631354451">
        <ele>0</ele>
        <time>2010-01-01T23:28:40Z</time>
      </trkpt>
      <trkpt lat="53.882922381162643" lon="10.299521181732416">
        <ele>0</ele>
        <time>2010-01-01T23:28:46Z</time>
      </trkpt>
      <trkpt lat="53.883125390857458" lon="10.299449935555458">
        <ele>0</ele>
        <time>2010-01-01T23:28:55Z</time>
      </trkpt>
      <trkpt lat="53.883593771606684" lon="10.2992560621351">
        <ele>0</ele>
        <time>2010-01-01T23:29:14Z</time>
      </trkpt>
      <trkpt lat="53.884212858974934" lon="10.299012148752809">
        <ele>0</ele>
        <time>2010-01-01T23:29:39Z</time>
      </trkpt>
      <trkpt lat="53.884858852252364" lon="10.29876152984798">
        <ele>0</ele>
        <time>2010-01-01T23:30:06Z</time>
      </trkpt>
      <trkpt lat="53.885298483073711" lon="10.298572853207588">
        <ele>0</ele>
        <time>2010-01-01T23:30:24Z</time>
      </trkpt>
      <trkpt lat="53.885727887973189" lon="10.298417368903756">
        <ele>0</ele>
        <time>2010-01-01T23:30:42Z</time>
      </trkpt>
      <trkpt lat="53.885887814685702" lon="10.298337154090405">
        <ele>0</ele>
        <time>2010-01-01T23:30:48Z</time>
      </trkpt>
      <trkpt lat="53.886090740561485" lon="10.298265907913446">
        <ele>0</ele>
        <time>2010-01-01T23:30:57Z</time>
      </trkpt>
      <trkpt lat="53.88629081659019" lon="10.298219891265035">
        <ele>0</ele>
        <time>2010-01-01T23:31:05Z</time>
      </trkpt>
      <trkpt lat="53.88663187623024" lon="10.29816247522831">
        <ele>0</ele>
        <time>2010-01-01T23:31:19Z</time>
      </trkpt>
      <trkpt lat="53.886983748525381" lon="10.29811168089509">
        <ele>0</ele>
        <time>2010-01-01T23:31:33Z</time>
      </trkpt>
      <trkpt lat="53.887418266385794" lon="10.298037668690085">
        <ele>0</ele>
        <time>2010-01-01T23:31:50Z</time>
      </trkpt>
      <trkpt lat="53.887608284130692" lon="10.298019396141171">
        <ele>0</ele>
        <time>2010-01-01T23:31:58Z</time>
      </trkpt>
      <trkpt lat="53.888047579675913" lon="10.297943288460374">
        <ele>0</ele>
        <time>2010-01-01T23:32:15Z</time>
      </trkpt>
      <trkpt lat="53.888473967090249" lon="10.297815045341849">
        <ele>0</ele>
        <time>2010-01-01T23:32:33Z</time>
      </trkpt>
      <trkpt lat="53.888814859092236" lon="10.297702392563224">
        <ele>0</ele>
        <time>2010-01-01T23:32:47Z</time>
      </trkpt>
      <trkpt lat="53.889209982007742" lon="10.297556463629007">
        <ele>0</ele>
        <time>2010-01-01T23:33:03Z</time>
      </trkpt>
      <trkpt lat="53.889403184875846" lon="10.297478009015322">
        <ele>0</ele>
        <time>2010-01-01T23:33:11Z</time>
      </trkpt>
      <trkpt lat="53.889453643932939" lon="10.297457557171583">
        <ele>0</ele>
        <time>2010-01-01T23:33:13Z</time>
      </trkpt>
      <trkpt lat="53.889518603682518" lon="10.297430651262403">
        <ele>0</ele>
        <time>2010-01-01T23:33:16Z</time>
      </trkpt>
      <trkpt lat="53.88958272524178" lon="10.297405254095793">
        <ele>0</ele>
        <time>2010-01-01T23:33:18Z</time>
      </trkpt>
      <trkpt lat="53.889829069375992" lon="10.297309448942542">
        <ele>0</ele>
        <time>2010-01-01T23:33:28Z</time>
      </trkpt>
      <trkpt lat="53.889876930043101" lon="10.297286566346884">
        <ele>0</ele>
        <time>2010-01-01T23:33:30Z</time>
      </trkpt>
      <trkpt lat="53.890110617503524" lon="10.297193443402648">
        <ele>0</ele>
        <time>2010-01-01T23:33:40Z</time>
      </trkpt>
      <trkpt lat="53.890371629968286" lon="10.297072241082788">
        <ele>0</ele>
        <time>2010-01-01T23:33:51Z</time>
      </trkpt>
      <trkpt lat="53.890640689060092" lon="10.296945171430707">
        <ele>0</ele>
        <time>2010-01-01T23:34:02Z</time>
      </trkpt>
      <trkpt lat="53.890888206660748" lon="10.296823550015688">
        <ele>0</ele>
        <time>2010-01-01T23:34:12Z</time>
      </trkpt>
      <trkpt lat="53.891121642664075" lon="10.29667560942471">
        <ele>0</ele>
        <time>2010-01-01T23:34:22Z</time>
      </trkpt>
      <trkpt lat="53.891379637643695" lon="10.296501098200679">
        <ele>0</ele>
        <time>2010-01-01T23:34:33Z</time>
      </trkpt>
      <trkpt lat="53.891657330095768" lon="10.29632868245244">
        <ele>0</ele>
        <time>2010-01-01T23:34:45Z</time>
      </trkpt>
      <trkpt lat="53.891774006187916" lon="10.296256262809038">
        <ele>0</ele>
        <time>2010-01-01T23:34:50Z</time>
      </trkpt>
      <trkpt lat="53.892368786036968" lon="10.295845717191696">
        <ele>0</ele>
        <time>2010-01-01T23:35:16Z</time>
      </trkpt>
      <trkpt lat="53.892756281420588" lon="10.295576239004731">
        <ele>0</ele>
        <time>2010-01-01T23:35:33Z</time>
      </trkpt>
      <trkpt lat="53.893187195062637" lon="10.295276250690222">
        <ele>0</ele>
        <time>2010-01-01T23:35:51Z</time>
      </trkpt>
      <trkpt lat="53.893761187791824" lon="10.294874170795083">
        <ele>0</ele>
        <time>2010-01-01T23:36:16Z</time>
      </trkpt>
      <trkpt lat="53.894782522693276" lon="10.294148214161396">
        <ele>0</ele>
        <time>2010-01-01T23:37:00Z</time>
      </trkpt>
      <trkpt lat="53.895529601722956" lon="10.293616047129035">
        <ele>0</ele>
        <time>2010-01-01T23:37:33Z</time>
      </trkpt>
      <trkpt lat="53.895667316392064" lon="10.293507669121027">
        <ele>0</ele>
        <time>2010-01-01T23:37:39Z</time>
      </trkpt>
      <trkpt lat="53.895771419629455" lon="10.29343793168664">
        <ele>0</ele>
        <time>2010-01-01T23:37:43Z</time>
      </trkpt>
      <trkpt lat="53.895863369107246" lon="10.293407253921032">
        <ele>0</ele>
        <time>2010-01-01T23:37:47Z</time>
      </trkpt>
      <trkpt lat="53.896002005785704" lon="10.293387221172452">
        <ele>0</ele>
        <time>2010-01-01T23:37:53Z</time>
      </trkpt>
      <trkpt lat="53.89652662910521" lon="10.293310610577464">
        <ele>0</ele>
        <time>2010-01-01T23:38:14Z</time>
      </trkpt>
      <trkpt lat="53.896658141165972" lon="10.29327817261219">
        <ele>0</ele>
        <time>2010-01-01T23:38:19Z</time>
      </trkpt>
      <trkpt lat="53.896782863885164" lon="10.293210530653596">
        <ele>0</ele>
        <time>2010-01-01T23:38:24Z</time>
      </trkpt>
      <trkpt lat="53.896931558847427" lon="10.293088825419545">
        <ele>0</ele>
        <time>2010-01-01T23:38:31Z</time>
      </trkpt>
      <trkpt lat="53.897032979875803" lon="10.292935268953443">
        <ele>0</ele>
        <time>2010-01-01T23:38:36Z</time>
      </trkpt>
      <trkpt lat="53.897147895768285" lon="10.292777605354786">
        <ele>0</ele>
        <time>2010-01-01T23:38:42Z</time>
      </trkpt>
      <trkpt lat="53.897343026474118" lon="10.29242305085063">
        <ele>0</ele>
        <time>2010-01-01T23:38:54Z</time>
      </trkpt>
      <trkpt lat="53.897557016462088" lon="10.291994567960501">
        <ele>0</ele>
        <time>2010-01-01T23:39:07Z</time>
      </trkpt>
      <trkpt lat="53.897597417235374" lon="10.291912090033293">
        <ele>0</ele>
        <time>2010-01-01T23:39:10Z</time>
      </trkpt>
      <trkpt lat="53.897711578756571" lon="10.291743781417608">
        <ele>0</ele>
        <time>2010-01-01T23:39:16Z</time>
      </trkpt>
      <trkpt lat="53.897845018655062" lon="10.291537921875715">
        <ele>0</ele>
        <time>2010-01-01T23:39:23Z</time>
      </trkpt>
      <trkpt lat="53.897978123277426" lon="10.291353352367878">
        <ele>0</ele>
        <time>2010-01-01T23:39:30Z</time>
      </trkpt>
      <trkpt lat="53.898409875109792" lon="10.290809869766235">
        <ele>0</ele>
        <time>2010-01-01T23:39:51Z</time>
      </trkpt>
      <trkpt lat="53.898495454341173" lon="10.290710544213653">
        <ele>0</ele>
        <time>2010-01-01T23:39:55Z</time>
      </trkpt>
      <trkpt lat="53.89855345711112" lon="10.290665198117495">
        <ele>0</ele>
        <time>2010-01-01T23:39:58Z</time>
      </trkpt>
      <trkpt lat="53.898629564791918" lon="10.290599064901471">
        <ele>0</ele>
        <time>2010-01-01T23:40:01Z</time>
      </trkpt>
      <trkpt lat="53.899038517847657" lon="10.289889955893159">
        <ele>0</ele>
        <time>2010-01-01T23:40:25Z</time>
      </trkpt>
      <trkpt lat="53.899357449263334" lon="10.289403637871146">
        <ele>0</ele>
        <time>2010-01-01T23:40:42Z</time>
      </trkpt>
      <trkpt lat="53.901099963113666" lon="10.286468379199505">
        <ele>0</ele>
        <time>2010-01-01T23:42:20Z</time>
      </trkpt>
      <trkpt lat="53.901227032765746" lon="10.28627953492105">
        <ele>0</ele>
        <time>2010-01-01T23:42:27Z</time>
      </trkpt>
      <trkpt lat="53.901306241750717" lon="10.286165876314044">
        <ele>0</ele>
        <time>2010-01-01T23:42:31Z</time>
      </trkpt>
      <trkpt lat="53.901377152651548" lon="10.286087421700358">
        <ele>0</ele>
        <time>2010-01-01T23:42:35Z</time>
      </trkpt>
      <trkpt lat="53.901456110179424" lon="10.286016846075654">
        <ele>0</ele>
        <time>2010-01-01T23:42:38Z</time>
      </trkpt>
      <trkpt lat="53.901566499844193" lon="10.285942666232586">
        <ele>0</ele>
        <time>2010-01-01T23:42:43Z</time>
      </trkpt>
      <trkpt lat="53.901674542576075" lon="10.285840993747115">
        <ele>0</ele>
        <time>2010-01-01T23:42:48Z</time>
      </trkpt>
      <trkpt lat="53.901790967211127" lon="10.285710655152798">
        <ele>0</ele>
        <time>2010-01-01T23:42:53Z</time>
      </trkpt>
      <trkpt lat="53.901943350210786" lon="10.285491719841957">
        <ele>0</ele>
        <time>2010-01-01T23:43:01Z</time>
      </trkpt>
      <trkpt lat="53.90200168825686" lon="10.28539415448904">
        <ele>0</ele>
        <time>2010-01-01T23:43:05Z</time>
      </trkpt>
      <trkpt lat="53.902929648756981" lon="10.283842161297798">
        <ele>0</ele>
        <time>2010-01-01T23:43:57Z</time>
      </trkpt>
      <trkpt lat="53.903022101148963" lon="10.283680725842714">
        <ele>0</ele>
        <time>2010-01-01T23:44:02Z</time>
      </trkpt>
      <trkpt lat="53.903069458901882" lon="10.283534545451403">
        <ele>0</ele>
        <time>2010-01-01T23:44:06Z</time>
      </trkpt>
      <trkpt lat="53.903118744492531" lon="10.283295661211014">
        <ele>0</ele>
        <time>2010-01-01T23:44:12Z</time>
      </trkpt>
      <trkpt lat="53.903614701703191" lon="10.2799376193434">
        <ele>0</ele>
        <time>2010-01-01T23:45:34Z</time>
      </trkpt>
      <trkpt lat="53.903871774673462" lon="10.278118662536144">
        <ele>0</ele>
        <time>2010-01-01T23:46:18Z</time>
      </trkpt>
      <trkpt lat="53.903902620077133" lon="10.277912802994251">
        <ele>0</ele>
        <time>2010-01-01T23:46:23Z</time>
      </trkpt>
      <trkpt lat="53.903930447995663" lon="10.277695963159204">
        <ele>0</ele>
        <time>2010-01-01T23:46:28Z</time>
      </trkpt>
      <trkpt lat="53.903945200145245" lon="10.277417348697782">
        <ele>0</ele>
        <time>2010-01-01T23:46:35Z</time>
      </trkpt>
      <trkpt lat="53.903964310884476" lon="10.276978220790625">
        <ele>0</ele>
        <time>2010-01-01T23:46:45Z</time>
      </trkpt>
      <trkpt lat="53.904004292562604" lon="10.27657144702971">
        <ele>0</ele>
        <time>2010-01-01T23:46:55Z</time>
      </trkpt>
      <trkpt lat="53.904055925086141" lon="10.276012541726232">
        <ele>0</ele>
        <time>2010-01-01T23:47:08Z</time>
      </trkpt>
      <trkpt lat="53.904097834601998" lon="10.275650443509221">
        <ele>0</ele>
        <time>2010-01-01T23:47:17Z</time>
      </trkpt>
      <trkpt lat="53.904108311980963" lon="10.275551872327924">
        <ele>0</ele>
        <time>2010-01-01T23:47:19Z</time>
      </trkpt>
      <trkpt lat="53.904116358608007" lon="10.275459922850132">
        <ele>0</ele>
        <time>2010-01-01T23:47:21Z</time>
      </trkpt>
      <trkpt lat="53.904152233153582" lon="10.27512900531292">
        <ele>0</ele>
        <time>2010-01-01T23:47:29Z</time>
      </trkpt>
      <trkpt lat="53.9042704179883" lon="10.274040196090937">
        <ele>0</ele>
        <time>2010-01-01T23:47:55Z</time>
      </trkpt>
      <trkpt lat="53.904310232028365" lon="10.273680863901973">
        <ele>0</ele>
        <time>2010-01-01T23:48:04Z</time>
      </trkpt>
      <trkpt lat="53.904356751590967" lon="10.27344181202352">
        <ele>0</ele>
        <time>2010-01-01T23:48:10Z</time>
      </trkpt>
      <trkpt lat="53.904405869543552" lon="10.27321508154273">
        <ele>0</ele>
        <time>2010-01-01T23:48:16Z</time>
      </trkpt>
      <trkpt lat="53.904454484581947" lon="10.272956416010857">
        <ele>0</ele>
        <time>2010-01-01T23:48:22Z</time>
      </trkpt>
      <trkpt lat="53.904475858435035" lon="10.272804871201515">
        <ele>0</ele>
        <time>2010-01-01T23:48:26Z</time>
      </trkpt>
      <trkpt lat="53.904502764344215" lon="10.272554671391845">
        <ele>0</ele>
        <time>2010-01-01T23:48:32Z</time>
      </trkpt>
      <trkpt lat="53.904627067968249" lon="10.269808927550912">
        <ele>0</ele>
        <time>2010-01-01T23:49:37Z</time>
      </trkpt>
      <trkpt lat="53.904916411265731" lon="10.264157596975565">
        <ele>0</ele>
        <time>2010-01-01T23:51:50Z</time>
      </trkpt>
      <trkpt lat="53.907243479043245" lon="10.263689886778593">
        <ele>0</ele>
        <time>2010-01-01T23:53:24Z</time>
      </trkpt>
      <trkpt lat="53.907293770462275" lon="10.263602044433355">
        <ele>0</ele>
        <time>2010-01-01T23:53:27Z</time>
      </trkpt>
      <trkpt lat="53.907304834574461" lon="10.263535575941205">
        <ele>0</ele>
        <time>2010-01-01T23:53:29Z</time>
      </trkpt>
      <trkpt lat="53.907276419922709" lon="10.263232486322522">
        <ele>0</ele>
        <time>2010-01-01T23:53:36Z</time>
      </trkpt>
      <trkpt lat="53.907274743542075" lon="10.263024950399995">
        <ele>0</ele>
        <time>2010-01-01T23:53:41Z</time>
      </trkpt>
      <trkpt lat="53.90728228725493" lon="10.262821270152926">
        <ele>0</ele>
        <time>2010-01-01T23:53:46Z</time>
      </trkpt>
      <trkpt lat="53.907304666936398" lon="10.262652961537242">
        <ele>0</ele>
        <time>2010-01-01T23:53:50Z</time>
      </trkpt>
      <trkpt lat="53.90736342407763" lon="10.262450873851776">
        <ele>0</ele>
        <time>2010-01-01T23:53:55Z</time>
      </trkpt>
      <trkpt lat="53.90744062140584" lon="10.262282732874155">
        <ele>0</ele>
        <time>2010-01-01T23:54:00Z</time>
      </trkpt>
      <trkpt lat="53.907427461817861" lon="10.262172762304544">
        <ele>0</ele>
        <time>2010-01-01T23:54:03Z</time>
      </trkpt>
      <trkpt lat="53.907471718266606" lon="10.261897835880518">
        <ele>0</ele>
        <time>2010-01-01T23:54:09Z</time>
      </trkpt>
      <trkpt lat="53.907499965280294" lon="10.261682001873851">
        <ele>0</ele>
        <time>2010-01-01T23:54:15Z</time>
      </trkpt>
      <trkpt lat="53.907555118203163" lon="10.261479746550322">
        <ele>0</ele>
        <time>2010-01-01T23:54:20Z</time>
      </trkpt>
      <trkpt lat="53.907640194520354" lon="10.261167269200087">
        <ele>0</ele>
        <time>2010-01-01T23:54:28Z</time>
      </trkpt>
      <trkpt lat="53.907780507579446" lon="10.260807853192091">
        <ele>0</ele>
        <time>2010-01-01T23:54:38Z</time>
      </trkpt>
      <trkpt lat="53.907940937206149" lon="10.260420106351376">
        <ele>0</ele>
        <time>2010-01-01T23:54:49Z</time>
      </trkpt>
      <trkpt lat="53.908247128129005" lon="10.259755169972777">
        <ele>0</ele>
        <time>2010-01-01T23:55:09Z</time>
      </trkpt>
      <trkpt lat="53.90840956941247" lon="10.259431377053261">
        <ele>0</ele>
        <time>2010-01-01T23:55:19Z</time>
      </trkpt>
      <trkpt lat="53.908414179459214" lon="10.259422408416867">
        <ele>0</ele>
        <time>2010-01-01T23:55:20Z</time>
      </trkpt>
      <trkpt lat="53.908454412594438" lon="10.2593551017344">
        <ele>0</ele>
        <time>2010-01-01T23:55:22Z</time>
      </trkpt>
      <trkpt lat="53.908501854166389" lon="10.259286537766457">
        <ele>0</ele>
        <time>2010-01-01T23:55:24Z</time>
      </trkpt>
      <trkpt lat="53.908557510003448" lon="10.25920607149601">
        <ele>0</ele>
        <time>2010-01-01T23:55:27Z</time>
      </trkpt>
      <trkpt lat="53.908665468916297" lon="10.259058633819222">
        <ele>0</ele>
        <time>2010-01-01T23:55:33Z</time>
      </trkpt>
      <trkpt lat="53.908792035654187" lon="10.258911531418562">
        <ele>0</ele>
        <time>2010-01-01T23:55:39Z</time>
      </trkpt>
      <trkpt lat="53.909009294584394" lon="10.25870525278151">
        <ele>0</ele>
        <time>2010-01-01T23:55:49Z</time>
      </trkpt>
      <trkpt lat="53.909376338124275" lon="10.258408952504396">
        <ele>0</ele>
        <time>2010-01-01T23:56:05Z</time>
      </trkpt>
      <trkpt lat="53.909481195732951" lon="10.258346674963832">
        <ele>0</ele>
        <time>2010-01-01T23:56:10Z</time>
      </trkpt>
      <trkpt lat="53.909559734165668" lon="10.258312476798892">
        <ele>0</ele>
        <time>2010-01-01T23:56:13Z</time>
      </trkpt>
      <trkpt lat="53.909683031961322" lon="10.258294874802232">
        <ele>0</ele>
        <time>2010-01-01T23:56:18Z</time>
      </trkpt>
      <trkpt lat="53.910358613356948" lon="10.258299987763166">
        <ele>0</ele>
        <time>2010-01-01T23:56:45Z</time>
      </trkpt>
      <trkpt lat="53.910511331632733" lon="10.258300071582198">
        <ele>0</ele>
        <time>2010-01-01T23:56:51Z</time>
      </trkpt>
      <trkpt lat="53.910622727125883" lon="10.258307950571179">
        <ele>0</ele>
        <time>2010-01-01T23:56:55Z</time>
      </trkpt>
      <trkpt lat="53.910734876990318" lon="10.258321948349476">
        <ele>0</ele>
        <time>2010-01-01T23:57:00Z</time>
      </trkpt>
      <trkpt lat="53.910962529480457" lon="10.258379029110074">
        <ele>0</ele>
        <time>2010-01-01T23:57:09Z</time>
      </trkpt>
      <trkpt lat="53.911274168640375" lon="10.258475169539452">
        <ele>0</ele>
        <time>2010-01-01T23:57:22Z</time>
      </trkpt>
      <trkpt lat="53.911595782265067" lon="10.258563933894038">
        <ele>0</ele>
        <time>2010-01-01T23:57:35Z</time>
      </trkpt>
      <trkpt lat="53.91169167123735" lon="10.258588157594204">
        <ele>0</ele>
        <time>2010-01-01T23:57:39Z</time>
      </trkpt>
      <trkpt lat="53.911785883828998" lon="10.258606178686023">
        <ele>0</ele>
        <time>2010-01-01T23:57:43Z</time>
      </trkpt>
      <trkpt lat="53.911911528557539" lon="10.258616069331765">
        <ele>0</ele>
        <time>2010-01-01T23:57:48Z</time>
      </trkpt>
      <trkpt lat="53.912436822429299" lon="10.258648591116071">
        <ele>0</ele>
        <time>2010-01-01T23:58:09Z</time>
      </trkpt>
      <trkpt lat="53.912520222365856" lon="10.258666360750794">
        <ele>0</ele>
        <time>2010-01-01T23:58:12Z</time>
      </trkpt>
      <trkpt lat="53.912607561796904" lon="10.258734421804547">
        <ele>0</ele>
        <time>2010-01-01T23:58:16Z</time>
      </trkpt>
      <trkpt lat="53.912662295624614" lon="10.258825868368149">
        <ele>0</ele>
        <time>2010-01-01T23:58:19Z</time>
      </trkpt>
      <trkpt lat="53.912734547629952" lon="10.258958889171481">
        <ele>0</ele>
        <time>2010-01-01T23:58:23Z</time>
      </trkpt>
      <trkpt lat="53.91294552013278" lon="10.259322915226221">
        <ele>0</ele>
        <time>2010-01-01T23:58:35Z</time>
      </trkpt>
      <trkpt lat="53.91302808187902" lon="10.259498851373792">
        <ele>0</ele>
        <time>2010-01-01T23:58:41Z</time>
      </trkpt>
      <trkpt lat="53.913156827911735" lon="10.259901518002152">
        <ele>0</ele>
        <time>2010-01-01T23:58:51Z</time>
      </trkpt>
      <trkpt lat="53.913191864266992" lon="10.259987767785788">
        <ele>0</ele>
        <time>2010-01-01T23:58:54Z</time>
      </trkpt>
      <trkpt lat="53.913247939199209" lon="10.260124895721674">
        <ele>0</ele>
        <time>2010-01-01T23:58:58Z</time>
      </trkpt>
      <trkpt lat="53.913296051323414" lon="10.260212067514658">
        <ele>0</ele>
        <time>2010-01-01T23:59:01Z</time>
      </trkpt>
      <trkpt lat="53.913359083235264" lon="10.260326145216823">
        <ele>0</ele>
        <time>2010-01-01T23:59:04Z</time>
      </trkpt>
      <trkpt lat="53.913451284170151" lon="10.260439971461892">
        <ele>0</ele>
        <time>2010-01-01T23:59:09Z</time>
      </trkpt>
      <trkpt lat="53.913519931957126" lon="10.260512558743358">
        <ele>0</ele>
        <time>2010-01-01T23:59:12Z</time>
      </trkpt>
      <trkpt lat="53.913575755432248" lon="10.260571567341685">
        <ele>0</ele>
        <time>2010-01-01T23:59:15Z</time>
      </trkpt>
      <trkpt lat="53.913699388504028" lon="10.26069100946188">
        <ele>0</ele>
        <time>2010-01-01T23:59:20Z</time>
      </trkpt>
      <trkpt lat="53.913800390437245" lon="10.260741217061877">
        <ele>0</ele>
        <time>2010-01-01T23:59:25Z</time>
      </trkpt>
      <trkpt lat="53.913809275254607" lon="10.260746078565717">
        <ele>0</ele>
        <time>2010-01-01T23:59:25Z</time>
      </trkpt>
      <trkpt lat="53.913937350735068" lon="10.260787988081574">
        <ele>0</ele>
        <time>2010-01-01T23:59:30Z</time>
      </trkpt>
      <trkpt lat="53.913969621062279" lon="10.26079804636538">
        <ele>0</ele>
        <time>2010-01-01T23:59:32Z</time>
      </trkpt>
      <trkpt lat="53.91415293328464" lon="10.260853786021471">
        <ele>0</ele>
        <time>2010-01-01T23:59:39Z</time>
      </trkpt>
      <trkpt lat="53.914214121177793" lon="10.260872393846512">
        <ele>0</ele>
        <time>2010-01-01T23:59:41Z</time>
      </trkpt>
      <trkpt lat="53.914362145587802" lon="10.260892091318965">
        <ele>0</ele>
        <time>2010-01-01T23:59:47Z</time>
      </trkpt>
      <trkpt lat="53.914476223289967" lon="10.260898545384407">
        <ele>0</ele>
        <time>2010-01-01T23:59:52Z</time>
      </trkpt>
      <trkpt lat="53.914558198302984" lon="10.260873651131988">
        <ele>0</ele>
        <time>2010-01-01T23:59:55Z</time>
      </trkpt>
      <trkpt lat="53.914643190801144" lon="10.260825958102942">
        <ele>0</ele>
        <time>2010-01-01T23:59:59Z</time>
      </trkpt>
      <trkpt lat="53.914723740890622" lon="10.260769044980407">
        <ele>0</ele>
        <time>2010-01-02T00:00:02Z</time>
      </trkpt>
      <trkpt lat="53.914795489981771" lon="10.260692099109292">
        <ele>0</ele>
        <time>2010-01-02T00:00:06Z</time>
      </trkpt>
      <trkpt lat="53.914881153032184" lon="10.260578943416476">
        <ele>0</ele>
        <time>2010-01-02T00:00:10Z</time>
      </trkpt>
      <trkpt lat="53.914949549362063" lon="10.260486658662558">
        <ele>0</ele>
        <time>2010-01-02T00:00:14Z</time>
      </trkpt>
      <trkpt lat="53.915141830220819" lon="10.260230675339699">
        <ele>0</ele>
        <time>2010-01-02T00:00:23Z</time>
      </trkpt>
      <trkpt lat="53.915258338674903" lon="10.26008659042418">
        <ele>0</ele>
        <time>2010-01-02T00:00:29Z</time>
      </trkpt>
      <trkpt lat="53.91533930785954" lon="10.259991623461246">
        <ele>0</ele>
        <time>2010-01-02T00:00:33Z</time>
      </trkpt>
      <trkpt lat="53.915430000051856" lon="10.259909061715007">
        <ele>0</ele>
        <time>2010-01-02T00:00:37Z</time>
      </trkpt>
      <trkpt lat="53.915526224300265" lon="10.259816106408834">
        <ele>0</ele>
        <time>2010-01-02T00:00:42Z</time>
      </trkpt>
      <trkpt lat="53.915736107155681" lon="10.259679397568107">
        <ele>0</ele>
        <time>2010-01-02T00:00:51Z</time>
      </trkpt>
      <trkpt lat="53.915876001119614" lon="10.259619634598494">
        <ele>0</ele>
        <time>2010-01-02T00:00:56Z</time>
      </trkpt>
      <trkpt lat="53.916014805436134" lon="10.259579736739397">
        <ele>0</ele>
        <time>2010-01-02T00:01:02Z</time>
      </trkpt>
      <trkpt lat="53.916106838732958" lon="10.259565152227879">
        <ele>0</ele>
        <time>2010-01-02T00:01:06Z</time>
      </trkpt>
      <trkpt lat="53.91629652120173" lon="10.259534893557429">
        <ele>0</ele>
        <time>2010-01-02T00:01:13Z</time>
      </trkpt>
      <trkpt lat="53.916471032425761" lon="10.259518884122372">
        <ele>0</ele>
        <time>2010-01-02T00:01:20Z</time>
      </trkpt>
      <trkpt lat="53.916674964129925" lon="10.259520392864943">
        <ele>0</ele>
        <time>2010-01-02T00:01:29Z</time>
      </trkpt>
      <trkpt lat="53.916844530031085" lon="10.259529026225209">
        <ele>0</ele>
        <time>2010-01-02T00:01:35Z</time>
      </trkpt>
      <trkpt lat="53.918383028358221" lon="10.259606894105673">
        <ele>0</ele>
        <time>2010-01-02T00:02:37Z</time>
      </trkpt>
      <trkpt lat="53.918465757742524" lon="10.259598679840565">
        <ele>0</ele>
        <time>2010-01-02T00:02:40Z</time>
      </trkpt>
      <trkpt lat="53.918543541803956" lon="10.259547801688313">
        <ele>0</ele>
        <time>2010-01-02T00:02:44Z</time>
      </trkpt>
      <trkpt lat="53.918610932305455" lon="10.259461551904678">
        <ele>0</ele>
        <time>2010-01-02T00:02:47Z</time>
      </trkpt>
      <trkpt lat="53.918743869289756" lon="10.259299613535404">
        <ele>0</ele>
        <time>2010-01-02T00:02:54Z</time>
      </trkpt>
      <trkpt lat="53.919036397710443" lon="10.258993338793516">
        <ele>0</ele>
        <time>2010-01-02T00:03:07Z</time>
      </trkpt>
      <trkpt lat="53.919325824826956" lon="10.258720507845283">
        <ele>0</ele>
        <time>2010-01-02T00:03:21Z</time>
      </trkpt>
      <trkpt lat="53.919642912223935" lon="10.258472738787532">
        <ele>0</ele>
        <time>2010-01-02T00:03:35Z</time>
      </trkpt>
      <trkpt lat="53.920054631307721" lon="10.258195968344808">
        <ele>0</ele>
        <time>2010-01-02T00:03:52Z</time>
      </trkpt>
      <trkpt lat="53.920886032283306" lon="10.257744519039989">
        <ele>0</ele>
        <time>2010-01-02T00:04:27Z</time>
      </trkpt>
      <trkpt lat="53.921249723061919" lon="10.25751150213182">
        <ele>0</ele>
        <time>2010-01-02T00:04:43Z</time>
      </trkpt>
      <trkpt lat="53.921338235959411" lon="10.257162982597947">
        <ele>0</ele>
        <time>2010-01-02T00:04:52Z</time>
      </trkpt>
      <trkpt lat="53.921442255377769" lon="10.25679468177259">
        <ele>0</ele>
        <time>2010-01-02T00:05:01Z</time>
      </trkpt>
      <trkpt lat="53.921605115756392" lon="10.256341388449073">
        <ele>0</ele>
        <time>2010-01-02T00:05:14Z</time>
      </trkpt>
      <trkpt lat="53.921813406050205" lon="10.255848364904523">
        <ele>0</ele>
        <time>2010-01-02T00:05:28Z</time>
      </trkpt>
      <trkpt lat="53.921943409368396" lon="10.255529517307878">
        <ele>0</ele>
        <time>2010-01-02T00:05:37Z</time>
      </trkpt>
      <trkpt lat="53.9220139849931" lon="10.255358275026083">
        <ele>0</ele>
        <time>2010-01-02T00:05:42Z</time>
      </trkpt>
      <trkpt lat="53.922065114602447" lon="10.255234809592366">
        <ele>0</ele>
        <time>2010-01-02T00:05:46Z</time>
      </trkpt>
      <trkpt lat="53.92217131331563" lon="10.254956446588039">
        <ele>0</ele>
        <time>2010-01-02T00:05:54Z</time>
      </trkpt>
      <trkpt lat="53.922237362712622" lon="10.254742205142975">
        <ele>0</ele>
        <time>2010-01-02T00:05:59Z</time>
      </trkpt>
      <trkpt lat="53.922335095703602" lon="10.254414891824126">
        <ele>0</ele>
        <time>2010-01-02T00:06:08Z</time>
      </trkpt>
      <trkpt lat="53.922421345487237" lon="10.254073413088918">
        <ele>0</ele>
        <time>2010-01-02T00:06:17Z</time>
      </trkpt>
      <trkpt lat="53.922510026022792" lon="10.253672674298286">
        <ele>0</ele>
        <time>2010-01-02T00:06:27Z</time>
      </trkpt>
      <trkpt lat="53.922586720436811" lon="10.253294399008155">
        <ele>0</ele>
        <time>2010-01-02T00:06:36Z</time>
      </trkpt>
      <trkpt lat="53.922651512548327" lon="10.253029949963093">
        <ele>0</ele>
        <time>2010-01-02T00:06:43Z</time>
      </trkpt>
      <trkpt lat="53.922702139243484" lon="10.252824425697327">
        <ele>0</ele>
        <time>2010-01-02T00:06:48Z</time>
      </trkpt>
      <trkpt lat="53.922780090942979" lon="10.25250406935811">
        <ele>0</ele>
        <time>2010-01-02T00:06:56Z</time>
      </trkpt>
      <trkpt lat="53.922873549163342" lon="10.25215370580554">
        <ele>0</ele>
        <time>2010-01-02T00:07:05Z</time>
      </trkpt>
      <trkpt lat="53.922973042353988" lon="10.251920772716403">
        <ele>0</ele>
        <time>2010-01-02T00:07:12Z</time>
      </trkpt>
      <trkpt lat="53.923063483089209" lon="10.25168901309371">
        <ele>0</ele>
        <time>2010-01-02T00:07:19Z</time>
      </trkpt>
      <trkpt lat="53.923173453658819" lon="10.25148524902761">
        <ele>0</ele>
        <time>2010-01-02T00:07:25Z</time>
      </trkpt>
      <trkpt lat="53.923277640715241" lon="10.251322472468019">
        <ele>0</ele>
        <time>2010-01-02T00:07:31Z</time>
      </trkpt>
      <trkpt lat="53.923398843035102" lon="10.251157097518444">
        <ele>0</ele>
        <time>2010-01-02T00:07:37Z</time>
      </trkpt>
      <trkpt lat="53.923541335389018" lon="10.251019801944494">
        <ele>0</ele>
        <time>2010-01-02T00:07:44Z</time>
      </trkpt>
      <trkpt lat="53.92372271977365" lon="10.250854762271047">
        <ele>0</ele>
        <time>2010-01-02T00:07:52Z</time>
      </trkpt>
      <trkpt lat="53.923800587654114" lon="10.250800782814622">
        <ele>0</ele>
        <time>2010-01-02T00:07:55Z</time>
      </trkpt>
      <trkpt lat="53.923922628164291" lon="10.250729788094759">
        <ele>0</ele>
        <time>2010-01-02T00:08:01Z</time>
      </trkpt>
      <trkpt lat="53.923977697268128" lon="10.250705564394593">
        <ele>0</ele>
        <time>2010-01-02T00:08:03Z</time>
      </trkpt>
      <trkpt lat="53.92410677857697" lon="10.250647058710456">
        <ele>0</ele>
        <time>2010-01-02T00:08:08Z</time>
      </trkpt>
      <trkpt lat="53.925695987418294" lon="10.249896878376603">
        <ele>0</ele>
        <time>2010-01-02T00:09:14Z</time>
      </trkpt>
      <trkpt lat="53.926323540508747" lon="10.249600494280457">
        <ele>0</ele>
        <time>2010-01-02T00:09:40Z</time>
      </trkpt>
      <trkpt lat="53.926501404494047" lon="10.24951902218163">
        <ele>0</ele>
        <time>2010-01-02T00:09:48Z</time>
      </trkpt>
      <trkpt lat="53.926599808037281" lon="10.249473256990314">
        <ele>0</ele>
        <time>2010-01-02T00:09:52Z</time>
      </trkpt>
      <trkpt lat="53.927134405821562" lon="10.24923806078732">
        <ele>0</ele>
        <time>2010-01-02T00:10:14Z</time>
      </trkpt>
      <trkpt lat="53.927225852385163" lon="10.249197827652097">
        <ele>0</ele>
        <time>2010-01-02T00:10:18Z</time>
      </trkpt>
      <trkpt lat="53.92735711298883" lon="10.249124234542251">
        <ele>0</ele>
        <time>2010-01-02T00:10:23Z</time>
      </trkpt>
      <trkpt lat="53.92746658064425" lon="10.249088108539581">
        <ele>0</ele>
        <time>2010-01-02T00:10:28Z</time>
      </trkpt>
      <trkpt lat="53.927580574527383" lon="10.249063968658447">
        <ele>0</ele>
        <time>2010-01-02T00:10:32Z</time>
      </trkpt>
      <trkpt lat="53.927863799035549" lon="10.249061873182654">
        <ele>0</ele>
        <time>2010-01-02T00:10:44Z</time>
      </trkpt>
      <trkpt lat="53.928018528968096" lon="10.249042175710201">
        <ele>0</ele>
        <time>2010-01-02T00:10:50Z</time>
      </trkpt>
      <trkpt lat="53.928139144554734" lon="10.249022981151938">
        <ele>0</ele>
        <time>2010-01-02T00:10:55Z</time>
      </trkpt>
      <trkpt lat="53.928276104852557" lon="10.248987441882491">
        <ele>0</ele>
        <time>2010-01-02T00:11:00Z</time>
      </trkpt>
      <trkpt lat="53.928345507010818" lon="10.248960619792342">
        <ele>0</ele>
        <time>2010-01-02T00:11:03Z</time>
      </trkpt>
      <trkpt lat="53.928400576114655" lon="10.248937904834747">
        <ele>0</ele>
        <time>2010-01-02T00:11:05Z</time>
      </trkpt>
      <trkpt lat="53.92855329439044" lon="10.248854169622064">
        <ele>0</ele>
        <time>2010-01-02T00:11:12Z</time>
      </trkpt>
      <trkpt lat="53.92870525829494" lon="10.24875970557332">
        <ele>0</ele>
        <time>2010-01-02T00:11:18Z</time>
      </trkpt>
      <trkpt lat="53.930217605084181" lon="10.247876169160008">
        <ele>0</ele>
        <time>2010-01-02T00:12:22Z</time>
      </trkpt>
      <trkpt lat="53.93037392757833" lon="10.247791009023786">
        <ele>0</ele>
        <time>2010-01-02T00:12:29Z</time>
      </trkpt>
      <trkpt lat="53.930501751601696" lon="10.247771982103586">
        <ele>0</ele>
        <time>2010-01-02T00:12:34Z</time>
      </trkpt>
      <trkpt lat="53.93059428781271" lon="10.247770138084888">
        <ele>0</ele>
        <time>2010-01-02T00:12:38Z</time>
      </trkpt>
      <trkpt lat="53.93065975047648" lon="10.247782794758677">
        <ele>0</ele>
        <time>2010-01-02T00:12:40Z</time>
      </trkpt>
      <trkpt lat="53.93072864972055" lon="10.247809197753668">
        <ele>0</ele>
        <time>2010-01-02T00:12:43Z</time>
      </trkpt>
      <trkpt lat="53.930771565064788" lon="10.247831828892231">
        <ele>0</ele>
        <time>2010-01-02T00:12:45Z</time>
      </trkpt>
      <trkpt lat="53.930811546742916" lon="10.247874073684216">
        <ele>0</ele>
        <time>2010-01-02T00:12:47Z</time>
      </trkpt>
      <trkpt lat="53.930861335247755" lon="10.247927382588387">
        <ele>0</ele>
        <time>2010-01-02T00:12:49Z</time>
      </trkpt>
      <trkpt lat="53.930901233106852" lon="10.247980272397399">
        <ele>0</ele>
        <time>2010-01-02T00:12:51Z</time>
      </trkpt>
      <trkpt lat="53.930945321917534" lon="10.248056212440133">
        <ele>0</ele>
        <time>2010-01-02T00:12:54Z</time>
      </trkpt>
      <trkpt lat="53.930992847308517" lon="10.248155118897557">
        <ele>0</ele>
        <time>2010-01-02T00:12:57Z</time>
      </trkpt>
      <trkpt lat="53.931069457903504" lon="10.248306579887867">
        <ele>0</ele>
        <time>2010-01-02T00:13:01Z</time>
      </trkpt>
      <trkpt lat="53.93171813338995" lon="10.249600326642394">
        <ele>0</ele>
        <time>2010-01-02T00:13:41Z</time>
      </trkpt>
      <trkpt lat="53.935144739225507" lon="10.256518414244056">
        <ele>0</ele>
        <time>2010-01-02T00:17:14Z</time>
      </trkpt>
      <trkpt lat="53.935611946508288" lon="10.257461294531822">
        <ele>0</ele>
        <time>2010-01-02T00:17:44Z</time>
      </trkpt>
      <trkpt lat="53.936054510995746" lon="10.258356314152479">
        <ele>0</ele>
        <time>2010-01-02T00:18:11Z</time>
      </trkpt>
      <trkpt lat="53.936109077185392" lon="10.25847215205431">
        <ele>0</ele>
        <time>2010-01-02T00:18:15Z</time>
      </trkpt>
      <trkpt lat="53.936153165996075" lon="10.258546583354473">
        <ele>0</ele>
        <time>2010-01-02T00:18:17Z</time>
      </trkpt>
      <trkpt lat="53.936195662245154" lon="10.258605675771832">
        <ele>0</ele>
        <time>2010-01-02T00:18:19Z</time>
      </trkpt>
      <trkpt lat="53.936239164322615" lon="10.258655715733767">
        <ele>0</ele>
        <time>2010-01-02T00:18:21Z</time>
      </trkpt>
      <trkpt lat="53.936276631429791" lon="10.258687315508723">
        <ele>0</ele>
        <time>2010-01-02T00:18:23Z</time>
      </trkpt>
      <trkpt lat="53.936310578137636" lon="10.258706593886018">
        <ele>0</ele>
        <time>2010-01-02T00:18:24Z</time>
      </trkpt>
      <trkpt lat="53.936341926455498" lon="10.258713634684682">
        <ele>0</ele>
        <time>2010-01-02T00:18:26Z</time>
      </trkpt>
      <trkpt lat="53.936371514573693" lon="10.258717574179173">
        <ele>0</ele>
        <time>2010-01-02T00:18:27Z</time>
      </trkpt>
      <trkpt lat="53.936405796557665" lon="10.258707934990525">
        <ele>0</ele>
        <time>2010-01-02T00:18:28Z</time>
      </trkpt>
      <trkpt lat="53.936454327777028" lon="10.258703324943781">
        <ele>0</ele>
        <time>2010-01-02T00:18:30Z</time>
      </trkpt>
      <trkpt lat="53.936517527326941" lon="10.258674742653966">
        <ele>0</ele>
        <time>2010-01-02T00:18:33Z</time>
      </trkpt>
      <trkpt lat="53.936607884243131" lon="10.258628809824586">
        <ele>0</ele>
        <time>2010-01-02T00:18:37Z</time>
      </trkpt>
      <trkpt lat="53.939092867076397" lon="10.25702241808176">
        <ele>0</ele>
        <time>2010-01-02T00:20:23Z</time>
      </trkpt>
      <trkpt lat="53.939177859574556" lon="10.256974725052714">
        <ele>0</ele>
        <time>2010-01-02T00:20:27Z</time>
      </trkpt>
      <trkpt lat="53.939238376915455" lon="10.256947567686439">
        <ele>0</ele>
        <time>2010-01-02T00:20:29Z</time>
      </trkpt>
      <trkpt lat="53.939290679991245" lon="10.256929378956556">
        <ele>0</ele>
        <time>2010-01-02T00:20:31Z</time>
      </trkpt>
      <trkpt lat="53.93935639411211" lon="10.256910771131516">
        <ele>0</ele>
        <time>2010-01-02T00:20:34Z</time>
      </trkpt>
      <trkpt lat="53.939422946423292" lon="10.256909010931849">
        <ele>0</ele>
        <time>2010-01-02T00:20:37Z</time>
      </trkpt>
      <trkpt lat="53.939488576725125" lon="10.256907921284437">
        <ele>0</ele>
        <time>2010-01-02T00:20:39Z</time>
      </trkpt>
      <trkpt lat="53.939531575888395" lon="10.256916806101799">
        <ele>0</ele>
        <time>2010-01-02T00:20:41Z</time>
      </trkpt>
      <trkpt lat="53.940521311014891" lon="10.257042534649372">
        <ele>0</ele>
        <time>2010-01-02T00:21:21Z</time>
      </trkpt>
      <trkpt lat="53.940583169460297" lon="10.257056532427669">
        <ele>0</ele>
        <time>2010-01-02T00:21:23Z</time>
      </trkpt>
      <trkpt lat="53.94086915999651" lon="10.257118474692106">
        <ele>0</ele>
        <time>2010-01-02T00:21:35Z</time>
      </trkpt>
      <trkpt lat="53.94092196598649" lon="10.257136831060052">
        <ele>0</ele>
        <time>2010-01-02T00:21:37Z</time>
      </trkpt>
      <trkpt lat="53.940962953492999" lon="10.257165497168899">
        <ele>0</ele>
        <time>2010-01-02T00:21:39Z</time>
      </trkpt>
      <trkpt lat="53.940991535782814" lon="10.257187625393271">
        <ele>0</ele>
        <time>2010-01-02T00:21:40Z</time>
      </trkpt>
      <trkpt lat="53.941037217155099" lon="10.257273707538843">
        <ele>0</ele>
        <time>2010-01-02T12:47:39Z</time>
      </trkpt>
      <trkpt lat="53.941103601828218" lon="10.257164323702455">
        <ele>0</ele>
        <time>2010-01-02T12:47:35Z</time>
      </trkpt>
      <trkpt lat="53.94119655713439" lon="10.257051838561893">
        <ele>0</ele>
        <time>2010-01-02T12:47:30Z</time>
      </trkpt>
      <trkpt lat="53.941292278468609" lon="10.256956033408642">
        <ele>0</ele>
        <time>2010-01-02T12:47:26Z</time>
      </trkpt>
      <trkpt lat="53.941348604857922" lon="10.256896857172251">
        <ele>0</ele>
        <time>2010-01-02T12:47:23Z</time>
      </trkpt>
      <trkpt lat="53.941375846043229" lon="10.256868693977594">
        <ele>0</ele>
        <time>2010-01-02T12:47:22Z</time>
      </trkpt>
      <trkpt lat="53.941467711701989" lon="10.256757298484445">
        <ele>0</ele>
        <time>2010-01-02T12:47:18Z</time>
      </trkpt>
      <trkpt lat="53.941527977585793" lon="10.256664678454399">
        <ele>0</ele>
        <time>2010-01-02T12:47:14Z</time>
      </trkpt>
      <trkpt lat="53.941587572917342" lon="10.256552193313837">
        <ele>0</ele>
        <time>2010-01-02T12:47:11Z</time>
      </trkpt>
      <trkpt lat="53.941628141328692" lon="10.256451442837715">
        <ele>0</ele>
        <time>2010-01-02T12:47:08Z</time>
      </trkpt>
      <trkpt lat="53.941667033359408" lon="10.256344489753246">
        <ele>0</ele>
        <time>2010-01-02T12:47:05Z</time>
      </trkpt>
      <trkpt lat="53.941691759973764" lon="10.256215743720531">
        <ele>0</ele>
        <time>2010-01-02T12:47:02Z</time>
      </trkpt>
      <trkpt lat="53.941699303686619" lon="10.256179450079799">
        <ele>0</ele>
        <time>2010-01-02T12:47:01Z</time>
      </trkpt>
      <trkpt lat="53.94173794426024" lon="10.256003933027387">
        <ele>0</ele>
        <time>2010-01-02T12:46:56Z</time>
      </trkpt>
      <trkpt lat="53.941825870424509" lon="10.255500935018063">
        <ele>0</ele>
        <time>2010-01-02T12:46:44Z</time>
      </trkpt>
      <trkpt lat="53.941911533474922" lon="10.255048144608736">
        <ele>0</ele>
        <time>2010-01-02T12:46:33Z</time>
      </trkpt>
      <trkpt lat="53.941953778266907" lon="10.254875812679529">
        <ele>0</ele>
        <time>2010-01-02T12:46:28Z</time>
      </trkpt>
      <trkpt lat="53.941992251202464" lon="10.254715550690889">
        <ele>0</ele>
        <time>2010-01-02T12:46:24Z</time>
      </trkpt>
      <trkpt lat="53.942043129354715" lon="10.254572387784719">
        <ele>0</ele>
        <time>2010-01-02T12:46:20Z</time>
      </trkpt>
      <trkpt lat="53.942095767706633" lon="10.254442971199751">
        <ele>0</ele>
        <time>2010-01-02T12:46:17Z</time>
      </trkpt>
      <trkpt lat="53.942194590345025" lon="10.254272315651178">
        <ele>0</ele>
        <time>2010-01-02T12:46:11Z</time>
      </trkpt>
      <trkpt lat="53.942206995561719" lon="10.254258569329977">
        <ele>0</ele>
        <time>2010-01-02T12:46:10Z</time>
      </trkpt>
      <trkpt lat="53.942248150706291" lon="10.254213055595756">
        <ele>0</ele>
        <time>2010-01-02T12:46:08Z</time>
      </trkpt>
      <trkpt lat="53.94227547571063" lon="10.254183383658528">
        <ele>0</ele>
        <time>2010-01-02T12:46:07Z</time>
      </trkpt>
      <trkpt lat="53.942372538149357" lon="10.254093362018466">
        <ele>0</ele>
        <time>2010-01-02T12:46:03Z</time>
      </trkpt>
      <trkpt lat="53.9424704387784" lon="10.25400803424418">
        <ele>0</ele>
        <time>2010-01-02T12:45:58Z</time>
      </trkpt>
      <trkpt lat="53.942555347457528" lon="10.253966376185417">
        <ele>0</ele>
        <time>2010-01-02T12:45:55Z</time>
      </trkpt>
      <trkpt lat="53.94263899885118" lon="10.253962771967053">
        <ele>0</ele>
        <time>2010-01-02T12:45:51Z</time>
      </trkpt>
      <trkpt lat="53.942708233371377" lon="10.25395723991096">
        <ele>0</ele>
        <time>2010-01-02T12:45:49Z</time>
      </trkpt>
      <trkpt lat="53.94277285784483" lon="10.253959251567721">
        <ele>0</ele>
        <time>2010-01-02T12:45:46Z</time>
      </trkpt>
      <trkpt lat="53.942834213376045" lon="10.253852885216475">
        <ele>0</ele>
        <time>2010-01-02T12:45:43Z</time>
      </trkpt>
      <trkpt lat="53.942871512845159" lon="10.253802258521318">
        <ele>0</ele>
        <time>2010-01-02T12:45:41Z</time>
      </trkpt>
      <trkpt lat="53.942944351583719" lon="10.253717601299286">
        <ele>0</ele>
        <time>2010-01-02T12:45:37Z</time>
      </trkpt>
      <trkpt lat="53.943079048767686" lon="10.253546526655555">
        <ele>0</ele>
        <time>2010-01-02T12:45:30Z</time>
      </trkpt>
      <trkpt lat="53.943225648254156" lon="10.253360532224178">
        <ele>0</ele>
        <time>2010-01-02T12:45:23Z</time>
      </trkpt>
      <trkpt lat="53.94340954720974" lon="10.253137657418847">
        <ele>0</ele>
        <time>2010-01-02T12:45:14Z</time>
      </trkpt>
      <trkpt lat="53.943475680425763" lon="10.253086276352406">
        <ele>0</ele>
        <time>2010-01-02T12:45:11Z</time>
      </trkpt>
      <trkpt lat="53.943543322384357" lon="10.253056352958083">
        <ele>0</ele>
        <time>2010-01-02T12:45:08Z</time>
      </trkpt>
      <trkpt lat="53.943588668480515" lon="10.253019640222192">
        <ele>0</ele>
        <time>2010-01-02T12:45:06Z</time>
      </trkpt>
      <trkpt lat="53.943624207749963" lon="10.252970438450575">
        <ele>0</ele>
        <time>2010-01-02T12:45:04Z</time>
      </trkpt>
      <trkpt lat="53.943664776161313" lon="10.252872621640563">
        <ele>0</ele>
        <time>2010-01-02T12:45:02Z</time>
      </trkpt>
      <trkpt lat="53.943706350401044" lon="10.252761226147413">
        <ele>0</ele>
        <time>2010-01-02T12:44:59Z</time>
      </trkpt>
      <trkpt lat="53.943751277402043" lon="10.25259199552238">
        <ele>0</ele>
        <time>2010-01-02T12:44:54Z</time>
      </trkpt>
      <trkpt lat="53.943806178867817" lon="10.252325534820557">
        <ele>0</ele>
        <time>2010-01-02T12:44:48Z</time>
      </trkpt>
      <trkpt lat="53.943906929343939" lon="10.25179554708302">
        <ele>0</ele>
        <time>2010-01-02T12:44:34Z</time>
      </trkpt>
      <trkpt lat="53.94393727183342" lon="10.251645678654313">
        <ele>0</ele>
        <time>2010-01-02T12:44:31Z</time>
      </trkpt>
      <trkpt lat="53.943958729505539" lon="10.251568648964167">
        <ele>0</ele>
        <time>2010-01-02T12:44:29Z</time>
      </trkpt>
      <trkpt lat="53.944016480818391" lon="10.251459181308746">
        <ele>0</ele>
        <time>2010-01-02T12:44:25Z</time>
      </trkpt>
      <trkpt lat="53.944077249616385" lon="10.251317862421274">
        <ele>0</ele>
        <time>2010-01-02T12:44:21Z</time>
      </trkpt>
      <trkpt lat="53.944136342033744" lon="10.25116422213614">
        <ele>0</ele>
        <time>2010-01-02T12:44:17Z</time>
      </trkpt>
      <trkpt lat="53.94419333897531" lon="10.250955764204264">
        <ele>0</ele>
        <time>2010-01-02T12:44:11Z</time>
      </trkpt>
      <trkpt lat="53.944282857701182" lon="10.250641694292426">
        <ele>0</ele>
        <time>2010-01-02T12:44:03Z</time>
      </trkpt>
      <trkpt lat="53.944502379745245" lon="10.249752709642053">
        <ele>0</ele>
        <time>2010-01-02T12:43:40Z</time>
      </trkpt>
      <trkpt lat="53.944612434133887" lon="10.249358508735895">
        <ele>0</ele>
        <time>2010-01-02T12:43:30Z</time>
      </trkpt>
      <trkpt lat="53.94463749602437" lon="10.249180309474468">
        <ele>0</ele>
        <time>2010-01-02T12:43:26Z</time>
      </trkpt>
      <trkpt lat="53.944651829078794" lon="10.248585781082511">
        <ele>0</ele>
        <time>2010-01-02T12:43:12Z</time>
      </trkpt>
      <trkpt lat="53.944684853777289" lon="10.24834094569087">
        <ele>0</ele>
        <time>2010-01-02T12:43:06Z</time>
      </trkpt>
      <trkpt lat="53.94474109634757" lon="10.248139277100563">
        <ele>0</ele>
        <time>2010-01-02T12:43:01Z</time>
      </trkpt>
      <trkpt lat="53.944815611466765" lon="10.247967950999737">
        <ele>0</ele>
        <time>2010-01-02T12:42:56Z</time>
      </trkpt>
      <trkpt lat="53.944861711934209" lon="10.247855046764016">
        <ele>0</ele>
        <time>2010-01-02T12:42:52Z</time>
      </trkpt>
      <trkpt lat="53.94493312574923" lon="10.247811460867524">
        <ele>0</ele>
        <time>2010-01-02T12:42:49Z</time>
      </trkpt>
      <trkpt lat="53.945038067176938" lon="10.247798804193735">
        <ele>0</ele>
        <time>2010-01-02T12:42:45Z</time>
      </trkpt>
      <trkpt lat="53.945133872330189" lon="10.247774831950665">
        <ele>0</ele>
        <time>2010-01-02T12:42:41Z</time>
      </trkpt>
      <trkpt lat="53.945187600329518" lon="10.247704843059182">
        <ele>0</ele>
        <time>2010-01-02T12:42:39Z</time>
      </trkpt>
      <trkpt lat="53.945267144590616" lon="10.247579282149673">
        <ele>0</ele>
        <time>2010-01-02T12:42:34Z</time>
      </trkpt>
      <trkpt lat="53.945360518991947" lon="10.247408458963037">
        <ele>0</ele>
        <time>2010-01-02T12:42:29Z</time>
      </trkpt>
      <trkpt lat="53.945487588644028" lon="10.247115259990096">
        <ele>0</ele>
        <time>2010-01-02T12:42:20Z</time>
      </trkpt>
      <trkpt lat="53.945631003007293" lon="10.246798172593117">
        <ele>0</ele>
        <time>2010-01-02T12:42:11Z</time>
      </trkpt>
      <trkpt lat="53.945789756253362" lon="10.246442696079612">
        <ele>0</ele>
        <time>2010-01-02T12:42:00Z</time>
      </trkpt>
      <trkpt lat="53.945960663259029" lon="10.246116556227207">
        <ele>0</ele>
        <time>2010-01-02T12:41:50Z</time>
      </trkpt>
      <trkpt lat="53.946498446166515" lon="10.245299153029919">
        <ele>0</ele>
        <time>2010-01-02T12:41:21Z</time>
      </trkpt>
      <trkpt lat="53.946577738970518" lon="10.245145931839943">
        <ele>0</ele>
        <time>2010-01-02T12:41:16Z</time>
      </trkpt>
      <trkpt lat="53.946639765053988" lon="10.245027495548129">
        <ele>0</ele>
        <time>2010-01-02T12:41:12Z</time>
      </trkpt>
      <trkpt lat="53.946704808622599" lon="10.244978126138449">
        <ele>0</ele>
        <time>2010-01-02T12:41:10Z</time>
      </trkpt>
      <trkpt lat="53.94679818302393" lon="10.244980892166495">
        <ele>0</ele>
        <time>2010-01-02T12:41:06Z</time>
      </trkpt>
      <trkpt lat="53.946869680657983" lon="10.244667744264007">
        <ele>0</ele>
        <time>2010-01-02T12:40:58Z</time>
      </trkpt>
      <trkpt lat="53.946956433355808" lon="10.244275806471705">
        <ele>0</ele>
        <time>2010-01-02T12:40:48Z</time>
      </trkpt>
      <trkpt lat="53.947049137204885" lon="10.24391152895987">
        <ele>0</ele>
        <time>2010-01-02T12:40:39Z</time>
      </trkpt>
      <trkpt lat="53.947170004248619" lon="10.243433760479093">
        <ele>0</ele>
        <time>2010-01-02T12:40:26Z</time>
      </trkpt>
      <trkpt lat="53.947204370051622" lon="10.243294117972255">
        <ele>0</ele>
        <time>2010-01-02T12:40:23Z</time>
      </trkpt>
      <trkpt lat="53.947366056963801" lon="10.242635384202003">
        <ele>0</ele>
        <time>2010-01-02T12:40:06Z</time>
      </trkpt>
      <trkpt lat="53.947442835196853" lon="10.242339167743921">
        <ele>0</ele>
        <time>2010-01-02T12:39:58Z</time>
      </trkpt>
      <trkpt lat="53.947531934827566" lon="10.241976231336594">
        <ele>0</ele>
        <time>2010-01-02T12:39:49Z</time>
      </trkpt>
      <trkpt lat="53.94759907387197" lon="10.241655372083187">
        <ele>0</ele>
        <time>2010-01-02T12:39:41Z</time>
      </trkpt>
      <trkpt lat="53.947615334764123" lon="10.241559818387032">
        <ele>0</ele>
        <time>2010-01-02T12:39:39Z</time>
      </trkpt>
      <trkpt lat="53.947633439674973" lon="10.241456804797053">
        <ele>0</ele>
        <time>2010-01-02T12:39:36Z</time>
      </trkpt>
      <trkpt lat="53.947652550414205" lon="10.241347756236792">
        <ele>0</ele>
        <time>2010-01-02T12:39:34Z</time>
      </trkpt>
      <trkpt lat="53.947693957015872" lon="10.241079367697239">
        <ele>0</ele>
        <time>2010-01-02T12:39:27Z</time>
      </trkpt>
      <trkpt lat="53.947734190151095" lon="10.240579470992088">
        <ele>0</ele>
        <time>2010-01-02T12:39:15Z</time>
      </trkpt>
      <trkpt lat="53.94775103777647" lon="10.240429099649191">
        <ele>0</ele>
        <time>2010-01-02T12:39:12Z</time>
      </trkpt>
      <trkpt lat="53.947791690006852" lon="10.24005719460547">
        <ele>0</ele>
        <time>2010-01-02T12:39:03Z</time>
      </trkpt>
      <trkpt lat="53.947861259803176" lon="10.239584036171436">
        <ele>0</ele>
        <time>2010-01-02T12:38:51Z</time>
      </trkpt>
      <trkpt lat="53.947930075228214" lon="10.239182459190488">
        <ele>0</ele>
        <time>2010-01-02T12:38:41Z</time>
      </trkpt>
      <trkpt lat="53.948023365810513" lon="10.238761771470308">
        <ele>0</ele>
        <time>2010-01-02T12:38:31Z</time>
      </trkpt>
      <trkpt lat="53.948047589510679" lon="10.238680215552449">
        <ele>0</ele>
        <time>2010-01-02T12:38:29Z</time>
      </trkpt>
      <trkpt lat="53.948076423257589" lon="10.238585080951452">
        <ele>0</ele>
        <time>2010-01-02T12:38:26Z</time>
      </trkpt>
      <trkpt lat="53.94808572717011" lon="10.238553397357464">
        <ele>0</ele>
        <time>2010-01-02T12:38:25Z</time>
      </trkpt>
      <trkpt lat="53.948153620585799" lon="10.238333037123084">
        <ele>0</ele>
        <time>2010-01-02T12:38:19Z</time>
      </trkpt>
      <trkpt lat="53.948199972510338" lon="10.238215103745461">
        <ele>0</ele>
        <time>2010-01-02T12:38:16Z</time>
      </trkpt>
      <trkpt lat="53.948299381881952" lon="10.237962640821934">
        <ele>0</ele>
        <time>2010-01-02T12:38:09Z</time>
      </trkpt>
      <trkpt lat="53.948324276134372" lon="10.237897848710418">
        <ele>0</ele>
        <time>2010-01-02T12:38:07Z</time>
      </trkpt>
      <trkpt lat="53.948384374380112" lon="10.237739766016603">
        <ele>0</ele>
        <time>2010-01-02T12:38:03Z</time>
      </trkpt>
      <trkpt lat="53.948394516482949" lon="10.237712608650327">
        <ele>0</ele>
        <time>2010-01-02T12:38:02Z</time>
      </trkpt>
      <trkpt lat="53.948448915034533" lon="10.237491829320788">
        <ele>0</ele>
        <time>2010-01-02T12:37:56Z</time>
      </trkpt>
      <trkpt lat="53.948478670790792" lon="10.23730231449008">
        <ele>0</ele>
        <time>2010-01-02T12:37:52Z</time>
      </trkpt>
      <trkpt lat="53.948492249473929" lon="10.237119924277067">
        <ele>0</ele>
        <time>2010-01-02T12:37:47Z</time>
      </trkpt>
      <trkpt lat="53.948498116806149" lon="10.236812476068735">
        <ele>0</ele>
        <time>2010-01-02T12:37:40Z</time>
      </trkpt>
      <trkpt lat="53.948504822328687" lon="10.236507961526513">
        <ele>0</ele>
        <time>2010-01-02T12:37:33Z</time>
      </trkpt>
      <trkpt lat="53.948528543114662" lon="10.235427198931575">
        <ele>0</ele>
        <time>2010-01-02T12:37:07Z</time>
      </trkpt>
      <trkpt lat="53.948533572256565" lon="10.235200468450785">
        <ele>0</ele>
        <time>2010-01-02T12:37:02Z</time>
      </trkpt>
      <trkpt lat="53.948536673560739" lon="10.235078679397702">
        <ele>0</ele>
        <time>2010-01-02T12:36:59Z</time>
      </trkpt>
      <trkpt lat="53.948564920574427" lon="10.23398894816637">
        <ele>0</ele>
        <time>2010-01-02T12:36:33Z</time>
      </trkpt>
      <trkpt lat="53.948582354933023" lon="10.23334052413702">
        <ele>0</ele>
        <time>2010-01-02T12:36:18Z</time>
      </trkpt>
      <trkpt lat="53.948611943051219" lon="10.231946194544435">
        <ele>0</ele>
        <time>2010-01-02T12:35:45Z</time>
      </trkpt>
      <trkpt lat="53.948614038527012" lon="10.23183505050838">
        <ele>0</ele>
        <time>2010-01-02T12:35:43Z</time>
      </trkpt>
      <trkpt lat="53.948643794283271" lon="10.230771219357848">
        <ele>0</ele>
        <time>2010-01-02T12:35:18Z</time>
      </trkpt>
      <trkpt lat="53.94864278845489" lon="10.230505429208279">
        <ele>0</ele>
        <time>2010-01-02T12:35:11Z</time>
      </trkpt>
      <trkpt lat="53.947711056098342" lon="10.230516828596592">
        <ele>0</ele>
        <time>2010-01-02T12:34:34Z</time>
      </trkpt>
      <trkpt lat="53.946771780028939" lon="10.230531916022301">
        <ele>0</ele>
        <time>2010-01-02T12:33:56Z</time>
      </trkpt>
      <trkpt lat="53.946101479232311" lon="10.230548596009612">
        <ele>0</ele>
        <time>2010-01-02T12:33:30Z</time>
      </trkpt>
      <trkpt lat="53.945536790415645" lon="10.230591343715787">
        <ele>0</ele>
        <time>2010-01-02T12:33:07Z</time>
      </trkpt>
      <trkpt lat="53.945390023291111" lon="10.230183396488428">
        <ele>0</ele>
        <time>2010-01-02T12:32:56Z</time>
      </trkpt>
      <trkpt lat="53.945157760754228" lon="10.229354090988636">
        <ele>0</ele>
        <time>2010-01-02T12:32:34Z</time>
      </trkpt>
      <trkpt lat="53.944915356114507" lon="10.228541297838092">
        <ele>0</ele>
        <time>2010-01-02T12:32:13Z</time>
      </trkpt>
      <trkpt lat="53.944669682532549" lon="10.227615684270859">
        <ele>0</ele>
        <time>2010-01-02T12:31:49Z</time>
      </trkpt>
      <trkpt lat="53.944528196007013" lon="10.226866761222482">
        <ele>0</ele>
        <time>2010-01-02T12:31:30Z</time>
      </trkpt>
      <trkpt lat="53.944416213780642" lon="10.226217666640878">
        <ele>0</ele>
        <time>2010-01-02T12:31:14Z</time>
      </trkpt>
      <trkpt lat="53.9442871324718" lon="10.22539297118783">
        <ele>0</ele>
        <time>2010-01-02T12:30:54Z</time>
      </trkpt>
      <trkpt lat="53.944126619026065" lon="10.224477499723434">
        <ele>0</ele>
        <time>2010-01-02T12:30:32Z</time>
      </trkpt>
      <trkpt lat="53.943973900750279" lon="10.223600333556533">
        <ele>0</ele>
        <time>2010-01-02T12:30:10Z</time>
      </trkpt>
      <trkpt lat="53.94382881000638" lon="10.222846800461411">
        <ele>0</ele>
        <time>2010-01-02T12:29:51Z</time>
      </trkpt>
      <trkpt lat="53.943695705384016" lon="10.222154455259442">
        <ele>0</ele>
        <time>2010-01-02T12:29:34Z</time>
      </trkpt>
      <trkpt lat="53.943594451993704" lon="10.221594125032425">
        <ele>0</ele>
        <time>2010-01-02T12:29:20Z</time>
      </trkpt>
      <trkpt lat="53.943399405106902" lon="10.221688924357295">
        <ele>0</ele>
        <time>2010-01-02T12:29:12Z</time>
      </trkpt>
      <trkpt lat="53.943262947723269" lon="10.221323976293206">
        <ele>0</ele>
        <time>2010-01-02T12:29:02Z</time>
      </trkpt>
      <trkpt lat="53.943038899451494" lon="10.220741769298911">
        <ele>0</ele>
        <time>2010-01-02T12:28:46Z</time>
      </trkpt>
      <trkpt lat="53.942684261128306" lon="10.21974147297442">
        <ele>0</ele>
        <time>2010-01-02T12:28:18Z</time>
      </trkpt>
      <trkpt lat="53.942415285855532" lon="10.21897972561419">
        <ele>0</ele>
        <time>2010-01-02T12:27:57Z</time>
      </trkpt>
      <trkpt lat="53.942101299762726" lon="10.218136003240943">
        <ele>0</ele>
        <time>2010-01-02T12:27:34Z</time>
      </trkpt>
      <trkpt lat="53.941869121044874" lon="10.217460673302412">
        <ele>0</ele>
        <time>2010-01-02T12:27:15Z</time>
      </trkpt>
      <trkpt lat="53.941785302013159" lon="10.217216089367867">
        <ele>0</ele>
        <time>2010-01-02T12:27:09Z</time>
      </trkpt>
      <trkpt lat="53.941354556009173" lon="10.216015633195639">
        <ele>0</ele>
        <time>2010-01-02T12:26:36Z</time>
      </trkpt>
      <trkpt lat="53.94077243283391" lon="10.214401194825768">
        <ele>0</ele>
        <time>2010-01-02T12:25:51Z</time>
      </trkpt>
      <trkpt lat="53.939951760694385" lon="10.212125005200505">
        <ele>0</ele>
        <time>2010-01-02T12:24:48Z</time>
      </trkpt>
      <trkpt lat="53.939715391024947" lon="10.211425283923745">
        <ele>0</ele>
        <time>2010-01-02T12:24:29Z</time>
      </trkpt>
      <trkpt lat="53.939705416560173" lon="10.211368035525084">
        <ele>0</ele>
        <time>2010-01-02T12:24:28Z</time>
      </trkpt>
      <trkpt lat="53.939661830663681" lon="10.211116075515747">
        <ele>0</ele>
        <time>2010-01-02T12:24:21Z</time>
      </trkpt>
      <trkpt lat="53.939642887562513" lon="10.210948018357158">
        <ele>0</ele>
        <time>2010-01-02T12:24:17Z</time>
      </trkpt>
      <trkpt lat="53.939663507044315" lon="10.210864869877696">
        <ele>0</ele>
        <time>2010-01-02T12:24:15Z</time>
      </trkpt>
      <trkpt lat="53.939740117639303" lon="10.210754396393895">
        <ele>0</ele>
        <time>2010-01-02T12:24:11Z</time>
      </trkpt>
      <trkpt lat="53.942660540342331" lon="10.209242217242718">
        <ele>0</ele>
        <time>2010-01-02T12:22:09Z</time>
      </trkpt>
      <trkpt lat="53.943143002688885" lon="10.208999225869775">
        <ele>0</ele>
        <time>2010-01-02T12:21:49Z</time>
      </trkpt>
      <trkpt lat="53.943269988521934" lon="10.208955723792315">
        <ele>0</ele>
        <time>2010-01-02T12:21:44Z</time>
      </trkpt>
      <trkpt lat="53.94329471513629" lon="10.208955220878124">
        <ele>0</ele>
        <time>2010-01-02T12:21:43Z</time>
      </trkpt>
      <trkpt lat="53.943349532783031" lon="10.208956729620695">
        <ele>0</ele>
        <time>2010-01-02T12:21:40Z</time>
      </trkpt>
      <trkpt lat="53.943413067609072" lon="10.208982964977622">
        <ele>0</ele>
        <time>2010-01-02T12:21:38Z</time>
      </trkpt>
      <trkpt lat="53.943489929661155" lon="10.209018671885133">
        <ele>0</ele>
        <time>2010-01-02T12:21:35Z</time>
      </trkpt>
      <trkpt lat="53.943532845005393" lon="10.209039710462093">
        <ele>0</ele>
        <time>2010-01-02T12:21:33Z</time>
      </trkpt>
      <trkpt lat="53.943714397028089" lon="10.209127217531204">
        <ele>0</ele>
        <time>2010-01-02T12:21:25Z</time>
      </trkpt>
      <trkpt lat="53.943877089768648" lon="10.209206594154239">
        <ele>0</ele>
        <time>2010-01-02T12:21:19Z</time>
      </trkpt>
      <trkpt lat="53.944144388660789" lon="10.209343805909157">
        <ele>0</ele>
        <time>2010-01-02T12:21:07Z</time>
      </trkpt>
      <trkpt lat="53.944176407530904" lon="10.209108609706163">
        <ele>0</ele>
        <time>2010-01-02T12:21:02Z</time>
      </trkpt>
      <trkpt lat="53.944192919880152" lon="10.208719186484814">
        <ele>0</ele>
        <time>2010-01-02T12:20:53Z</time>
      </trkpt>
      <trkpt lat="53.944269111379981" lon="10.206886315718293">
        <ele>0</ele>
        <time>2010-01-02T12:20:09Z</time>
      </trkpt>
      <trkpt lat="53.944289982318878" lon="10.206385245546699">
        <ele>0</ele>
        <time>2010-01-02T12:19:57Z</time>
      </trkpt>
      <trkpt lat="53.944319738075137" lon="10.205669179558754">
        <ele>0</ele>
        <time>2010-01-02T12:19:40Z</time>
      </trkpt>
      <trkpt lat="53.944365754723549" lon="10.204570898786187">
        <ele>0</ele>
        <time>2010-01-02T12:19:15Z</time>
      </trkpt>
      <trkpt lat="53.944379668682814" lon="10.20435506477952">
        <ele>0</ele>
        <time>2010-01-02T12:19:09Z</time>
      </trkpt>
      <trkpt lat="53.944369945675135" lon="10.204245094209909">
        <ele>0</ele>
        <time>2010-01-02T12:19:07Z</time>
      </trkpt>
      <trkpt lat="53.944350080564618" lon="10.20407703705132">
        <ele>0</ele>
        <time>2010-01-02T12:19:03Z</time>
      </trkpt>
      <trkpt lat="53.944116309285164" lon="10.203020917251706">
        <ele>0</ele>
        <time>2010-01-02T12:18:36Z</time>
      </trkpt>
      <trkpt lat="53.944079848006368" lon="10.202888902276754">
        <ele>0</ele>
        <time>2010-01-02T12:18:33Z</time>
      </trkpt>
      <trkpt lat="53.944037687033415" lon="10.202796282246709">
        <ele>0</ele>
        <time>2010-01-02T12:18:30Z</time>
      </trkpt>
      <trkpt lat="53.943984378129244" lon="10.202730819582939">
        <ele>0</ele>
        <time>2010-01-02T12:18:27Z</time>
      </trkpt>
      <trkpt lat="53.943894188851118" lon="10.202676421031356">
        <ele>0</ele>
        <time>2010-01-02T12:18:24Z</time>
      </trkpt>
      <trkpt lat="53.943610964342952" lon="10.202608862891793">
        <ele>0</ele>
        <time>2010-01-02T12:18:12Z</time>
      </trkpt>
      <trkpt lat="53.943500909954309" lon="10.202566115185618">
        <ele>0</ele>
        <time>2010-01-02T12:18:08Z</time>
      </trkpt>
      <trkpt lat="53.94343938678503" lon="10.202511046081781">
        <ele>0</ele>
        <time>2010-01-02T12:18:05Z</time>
      </trkpt>
      <trkpt lat="53.943396303802729" lon="10.202421443536878">
        <ele>0</ele>
        <time>2010-01-02T12:18:02Z</time>
      </trkpt>
      <trkpt lat="53.943354981020093" lon="10.202237460762262">
        <ele>0</ele>
        <time>2010-01-02T12:17:57Z</time>
      </trkpt>
      <trkpt lat="53.943246267735958" lon="10.201428690925241">
        <ele>0</ele>
        <time>2010-01-02T12:17:38Z</time>
      </trkpt>
      <trkpt lat="53.944791220128536" lon="10.200851764529943">
        <ele>0</ele>
        <time>2010-01-02T12:16:35Z</time>
      </trkpt>
      <trkpt lat="53.945230264216661" lon="10.200737016275525">
        <ele>0</ele>
        <time>2010-01-02T12:16:17Z</time>
      </trkpt>
      <trkpt lat="53.945397399365902" lon="10.200686557218432">
        <ele>0</ele>
        <time>2010-01-02T12:16:10Z</time>
      </trkpt>
      <trkpt lat="53.945567635819316" lon="10.200639618560672">
        <ele>0</ele>
        <time>2010-01-02T12:16:03Z</time>
      </trkpt>
      <trkpt lat="53.945432100445032" lon="10.199533794075251">
        <ele>0</ele>
        <time>2010-01-02T12:15:36Z</time>
      </trkpt>
      <trkpt lat="53.945410056039691" lon="10.199353918433189">
        <ele>0</ele>
        <time>2010-01-02T12:15:32Z</time>
      </trkpt>
      <trkpt lat="53.945265468209982" lon="10.198174752295017">
        <ele>0</ele>
        <time>2010-01-02T12:15:04Z</time>
      </trkpt>
      <trkpt lat="53.945133620873094" lon="10.197099186480045">
        <ele>0</ele>
        <time>2010-01-02T12:14:38Z</time>
      </trkpt>
      <trkpt lat="53.94486665725708" lon="10.194921987131238">
        <ele>0</ele>
        <time>2010-01-02T12:13:45Z</time>
      </trkpt>
      <trkpt lat="53.944851569831371" lon="10.194799359887838">
        <ele>0</ele>
        <time>2010-01-02T12:13:42Z</time>
      </trkpt>
      <trkpt lat="53.944477820768952" lon="10.191183658316731">
        <ele>0</ele>
        <time>2010-01-02T12:12:16Z</time>
      </trkpt>
      <trkpt lat="53.94444789737463" lon="10.190942175686359">
        <ele>0</ele>
        <time>2010-01-02T12:12:10Z</time>
      </trkpt>
      <trkpt lat="53.94442836754024" lon="10.19073598086834">
        <ele>0</ele>
        <time>2010-01-02T12:12:05Z</time>
      </trkpt>
      <trkpt lat="53.944433564320207" lon="10.190571695566177">
        <ele>0</ele>
        <time>2010-01-02T12:12:01Z</time>
      </trkpt>
      <trkpt lat="53.944479413330555" lon="10.190385617315769">
        <ele>0</ele>
        <time>2010-01-02T12:11:57Z</time>
      </trkpt>
      <trkpt lat="53.9445133600384" lon="10.190323255956173">
        <ele>0</ele>
        <time>2010-01-02T12:11:55Z</time>
      </trkpt>
      <trkpt lat="53.944460302591324" lon="10.19022149965167">
        <ele>0</ele>
        <time>2010-01-02T12:11:51Z</time>
      </trkpt>
      <trkpt lat="53.944442952051759" lon="10.190188307315111">
        <ele>0</ele>
        <time>2010-01-02T12:11:50Z</time>
      </trkpt>
      <trkpt lat="53.944423170760274" lon="10.190167017281055">
        <ele>0</ele>
        <time>2010-01-02T12:11:49Z</time>
      </trkpt>
      <trkpt lat="53.94440833479166" lon="10.190150169655681">
        <ele>0</ele>
        <time>2010-01-02T12:11:49Z</time>
      </trkpt>
      <trkpt lat="53.944319235160947" lon="10.190106332302094">
        <ele>0</ele>
        <time>2010-01-02T12:11:45Z</time>
      </trkpt>
      <trkpt lat="53.943690257146955" lon="10.189962582662702">
        <ele>0</ele>
        <time>2010-01-02T12:11:20Z</time>
      </trkpt>
      <trkpt lat="53.943539718165994" lon="10.190014634281397">
        <ele>0</ele>
        <time>2010-01-02T12:11:13Z</time>
      </trkpt>
      <trkpt lat="53.942817784845829" lon="10.190690131857991">
        <ele>0</ele>
        <time>2010-01-02T12:10:40Z</time>
      </trkpt>
      <trkpt lat="53.942749472334981" lon="10.190510004758835">
        <ele>0</ele>
        <time>2010-01-02T12:10:35Z</time>
      </trkpt>
      <trkpt lat="53.942725080996752" lon="10.190341779962182">
        <ele>0</ele>
        <time>2010-01-02T12:10:31Z</time>
      </trkpt>
      <trkpt lat="53.942713178694248" lon="10.190090155228972">
        <ele>0</ele>
        <time>2010-01-02T12:10:25Z</time>
      </trkpt>
      <trkpt lat="53.942720219492912" lon="10.18980567343533">
        <ele>0</ele>
        <time>2010-01-02T12:10:19Z</time>
      </trkpt>
      <trkpt lat="53.942750645801425" lon="10.188581915572286">
        <ele>0</ele>
        <time>2010-01-02T12:09:50Z</time>
      </trkpt>
      <trkpt lat="53.94274553284049" lon="10.186944175511599">
        <ele>0</ele>
        <time>2010-01-02T12:09:11Z</time>
      </trkpt>
      <trkpt lat="53.9427450299263" lon="10.186784667894244">
        <ele>0</ele>
        <time>2010-01-02T12:09:07Z</time>
      </trkpt>
      <trkpt lat="53.942747041583061" lon="10.185945555567741">
        <ele>0</ele>
        <time>2010-01-02T12:08:48Z</time>
      </trkpt>
      <trkpt lat="53.942742180079222" lon="10.184985995292664">
        <ele>0</ele>
        <time>2010-01-02T12:08:25Z</time>
      </trkpt>
      <trkpt lat="53.942758524790406" lon="10.183609519153833">
        <ele>0</ele>
        <time>2010-01-02T12:07:53Z</time>
      </trkpt>
      <trkpt lat="53.942775204777718" lon="10.182210663333535">
        <ele>0</ele>
        <time>2010-01-02T12:07:20Z</time>
      </trkpt>
      <trkpt lat="53.942778808996081" lon="10.181904556229711">
        <ele>0</ele>
        <time>2010-01-02T12:07:12Z</time>
      </trkpt>
      <trkpt lat="53.942794231697917" lon="10.180066740140319">
        <ele>0</ele>
        <time>2010-01-02T12:06:29Z</time>
      </trkpt>
      <trkpt lat="53.942804876714945" lon="10.178519692271948">
        <ele>0</ele>
        <time>2010-01-02T12:05:53Z</time>
      </trkpt>
      <trkpt lat="53.942808229476213" lon="10.178341744467616">
        <ele>0</ele>
        <time>2010-01-02T12:05:49Z</time>
      </trkpt>
      <trkpt lat="53.942814683541656" lon="10.177983921021223">
        <ele>0</ele>
        <time>2010-01-02T11:49:51Z</time>
      </trkpt>
      <trkpt lat="53.942814012989402" lon="10.177868166938424">
        <ele>0</ele>
        <time>2010-01-02T11:49:48Z</time>
      </trkpt>
      <trkpt lat="53.942791381850839" lon="10.17778979614377">
        <ele>0</ele>
        <time>2010-01-02T11:49:46Z</time>
      </trkpt>
      <trkpt lat="53.942743353545666" lon="10.177648393437266">
        <ele>0</ele>
        <time>2010-01-02T11:49:42Z</time>
      </trkpt>
      <trkpt lat="53.942651236429811" lon="10.177423423156142">
        <ele>0</ele>
        <time>2010-01-02T11:49:36Z</time>
      </trkpt>
      <trkpt lat="53.942283354699612" lon="10.176637871190906">
        <ele>0</ele>
        <time>2010-01-02T11:49:12Z</time>
      </trkpt>
      <trkpt lat="53.941917987540364" lon="10.175875285640359">
        <ele>0</ele>
        <time>2010-01-02T11:48:49Z</time>
      </trkpt>
      <trkpt lat="53.941724533215165" lon="10.175441857427359">
        <ele>0</ele>
        <time>2010-01-02T11:48:36Z</time>
      </trkpt>
      <trkpt lat="53.94152881577611" lon="10.174964256584644">
        <ele>0</ele>
        <time>2010-01-02T11:48:23Z</time>
      </trkpt>
      <trkpt lat="53.941110894083977" lon="10.173970246687531">
        <ele>0</ele>
        <time>2010-01-02T11:47:54Z</time>
      </trkpt>
      <trkpt lat="53.94068693742156" lon="10.172941032797098">
        <ele>0</ele>
        <time>2010-01-02T11:47:24Z</time>
      </trkpt>
      <trkpt lat="53.940575541928411" lon="10.172668369486928">
        <ele>0</ele>
        <time>2010-01-02T11:47:16Z</time>
      </trkpt>
      <trkpt lat="53.940514856949449" lon="10.172442812472582">
        <ele>0</ele>
        <time>2010-01-02T11:47:11Z</time>
      </trkpt>
      <trkpt lat="53.940488873049617" lon="10.172247095033526">
        <ele>0</ele>
        <time>2010-01-02T11:47:06Z</time>
      </trkpt>
      <trkpt lat="53.940474120900035" lon="10.172012150287628">
        <ele>0</ele>
        <time>2010-01-02T11:47:00Z</time>
      </trkpt>
      <trkpt lat="53.940463308244944" lon="10.171829173341393">
        <ele>0</ele>
        <time>2010-01-02T11:46:56Z</time>
      </trkpt>
      <trkpt lat="53.940442856401205" lon="10.171441761776805">
        <ele>0</ele>
        <time>2010-01-02T11:46:47Z</time>
      </trkpt>
      <trkpt lat="53.940402371808887" lon="10.170619748532772">
        <ele>0</ele>
        <time>2010-01-02T11:46:27Z</time>
      </trkpt>
      <trkpt lat="53.940358366817236" lon="10.16978558152914">
        <ele>0</ele>
        <time>2010-01-02T11:46:08Z</time>
      </trkpt>
      <trkpt lat="53.940304135903716" lon="10.169082004576921">
        <ele>0</ele>
        <time>2010-01-02T11:45:51Z</time>
      </trkpt>
      <trkpt lat="53.940292401239276" lon="10.168714625760913">
        <ele>0</ele>
        <time>2010-01-02T11:45:42Z</time>
      </trkpt>
      <trkpt lat="53.940261555835605" lon="10.16819603741169">
        <ele>0</ele>
        <time>2010-01-02T11:45:30Z</time>
      </trkpt>
      <trkpt lat="53.940226770937443" lon="10.167704690247774">
        <ele>0</ele>
        <time>2010-01-02T11:45:18Z</time>
      </trkpt>
      <trkpt lat="53.940212605521083" lon="10.167501680552959">
        <ele>0</ele>
        <time>2010-01-02T11:45:14Z</time>
      </trkpt>
      <trkpt lat="53.940183352679014" lon="10.167181072756648">
        <ele>0</ele>
        <time>2010-01-02T11:45:06Z</time>
      </trkpt>
      <trkpt lat="53.940151920542121" lon="10.166808664798737">
        <ele>0</ele>
        <time>2010-01-02T11:44:57Z</time>
      </trkpt>
      <trkpt lat="53.940106155350804" lon="10.166432736441493">
        <ele>0</ele>
        <time>2010-01-02T11:44:48Z</time>
      </trkpt>
      <trkpt lat="53.940008841454983" lon="10.165726477280259">
        <ele>0</ele>
        <time>2010-01-02T11:44:31Z</time>
      </trkpt>
      <trkpt lat="53.939896775409579" lon="10.164862889796495">
        <ele>0</ele>
        <time>2010-01-02T11:44:10Z</time>
      </trkpt>
      <trkpt lat="53.939811196178198" lon="10.164146320894361">
        <ele>0</ele>
        <time>2010-01-02T11:43:53Z</time>
      </trkpt>
      <trkpt lat="53.93971698358655" lon="10.163578698411584">
        <ele>0</ele>
        <time>2010-01-02T11:43:39Z</time>
      </trkpt>
      <trkpt lat="53.93963735550642" lon="10.16308156773448">
        <ele>0</ele>
        <time>2010-01-02T11:43:27Z</time>
      </trkpt>
      <trkpt lat="53.939560409635305" lon="10.162490056827664">
        <ele>0</ele>
        <time>2010-01-02T11:43:12Z</time>
      </trkpt>
      <trkpt lat="53.939505591988564" lon="10.161932744085789">
        <ele>0</ele>
        <time>2010-01-02T11:42:59Z</time>
      </trkpt>
      <trkpt lat="53.939491175115108" lon="10.161467883735895">
        <ele>0</ele>
        <time>2010-01-02T11:42:48Z</time>
      </trkpt>
      <trkpt lat="53.939479105174541" lon="10.160951307043433">
        <ele>0</ele>
        <time>2010-01-02T11:42:36Z</time>
      </trkpt>
      <trkpt lat="53.93943996168673" lon="10.160450739786029">
        <ele>0</ele>
        <time>2010-01-02T11:42:24Z</time>
      </trkpt>
      <trkpt lat="53.939396711066365" lon="10.159812960773706">
        <ele>0</ele>
        <time>2010-01-02T11:42:09Z</time>
      </trkpt>
      <trkpt lat="53.939371732994914" lon="10.159419346600771">
        <ele>0</ele>
        <time>2010-01-02T11:42:00Z</time>
      </trkpt>
      <trkpt lat="53.939352873712778" lon="10.159231508150697">
        <ele>0</ele>
        <time>2010-01-02T11:41:55Z</time>
      </trkpt>
      <trkpt lat="53.939302666112781" lon="10.158668244257569">
        <ele>0</ele>
        <time>2010-01-02T11:41:42Z</time>
      </trkpt>
      <trkpt lat="53.939220272004604" lon="10.15789233148098">
        <ele>0</ele>
        <time>2010-01-02T11:41:23Z</time>
      </trkpt>
      <trkpt lat="53.939142823219299" lon="10.157258240506053">
        <ele>0</ele>
        <time>2010-01-02T11:41:08Z</time>
      </trkpt>
      <trkpt lat="53.93911792896688" lon="10.15694685280323">
        <ele>0</ele>
        <time>2010-01-02T11:41:01Z</time>
      </trkpt>
      <trkpt lat="53.939121197909117" lon="10.156703274697065">
        <ele>0</ele>
        <time>2010-01-02T11:40:55Z</time>
      </trkpt>
      <trkpt lat="53.939122287556529" lon="10.156685085967183">
        <ele>0</ele>
        <time>2010-01-02T11:40:54Z</time>
      </trkpt>
      <trkpt lat="53.939141985028982" lon="10.156225673854351">
        <ele>0</ele>
        <time>2010-01-02T11:40:43Z</time>
      </trkpt>
      <trkpt lat="53.939154222607613" lon="10.15597932972014">
        <ele>0</ele>
        <time>2010-01-02T11:40:38Z</time>
      </trkpt>
      <trkpt lat="53.939166627824306" lon="10.155624859035015">
        <ele>0</ele>
        <time>2010-01-02T11:40:29Z</time>
      </trkpt>
      <trkpt lat="53.939179535955191" lon="10.155311543494463">
        <ele>0</ele>
        <time>2010-01-02T11:40:22Z</time>
      </trkpt>
      <trkpt lat="53.939201328903437" lon="10.155007531866431">
        <ele>0</ele>
        <time>2010-01-02T11:40:15Z</time>
      </trkpt>
      <trkpt lat="53.939242567867041" lon="10.154460445046425">
        <ele>0</ele>
        <time>2010-01-02T11:40:02Z</time>
      </trkpt>
      <trkpt lat="53.939285818487406" lon="10.153881506994367">
        <ele>0</ele>
        <time>2010-01-02T11:39:48Z</time>
      </trkpt>
      <trkpt lat="53.939306773245335" lon="10.153483115136623">
        <ele>0</ele>
        <time>2010-01-02T11:39:38Z</time>
      </trkpt>
      <trkpt lat="53.939327895641327" lon="10.152961341664195">
        <ele>0</ele>
        <time>2010-01-02T11:39:26Z</time>
      </trkpt>
      <trkpt lat="53.939383802935481" lon="10.152198420837522">
        <ele>0</ele>
        <time>2010-01-02T11:39:08Z</time>
      </trkpt>
      <trkpt lat="53.939471310004592" lon="10.151125704869628">
        <ele>0</ele>
        <time>2010-01-02T11:38:43Z</time>
      </trkpt>
      <trkpt lat="53.939579352736473" lon="10.149512942880392">
        <ele>0</ele>
        <time>2010-01-02T11:38:04Z</time>
      </trkpt>
      <trkpt lat="53.939618496224284" lon="10.149175906553864">
        <ele>0</ele>
        <time>2010-01-02T11:37:56Z</time>
      </trkpt>
      <trkpt lat="53.939618496224284" lon="10.149175906553864">
        <ele>0</ele>
        <time>2010-01-02T11:37:56Z</time>
      </trkpt>
      <trkpt lat="53.939579352736473" lon="10.149512942880392">
        <ele>0</ele>
        <time>2010-01-02T11:38:04Z</time>
      </trkpt>
      <trkpt lat="53.939471310004592" lon="10.151125704869628">
        <ele>0</ele>
        <time>2010-01-02T11:38:43Z</time>
      </trkpt>
      <trkpt lat="53.939383802935481" lon="10.152198420837522">
        <ele>0</ele>
        <time>2010-01-02T11:39:08Z</time>
      </trkpt>
      <trkpt lat="53.939327895641327" lon="10.152961341664195">
        <ele>0</ele>
        <time>2010-01-02T11:39:26Z</time>
      </trkpt>
      <trkpt lat="53.939306773245335" lon="10.153483115136623">
        <ele>0</ele>
        <time>2010-01-02T11:39:38Z</time>
      </trkpt>
      <trkpt lat="53.939285818487406" lon="10.153881506994367">
        <ele>0</ele>
        <time>2010-01-02T11:39:48Z</time>
      </trkpt>
      <trkpt lat="53.939242567867041" lon="10.154460445046425">
        <ele>0</ele>
        <time>2010-01-02T11:40:02Z</time>
      </trkpt>
      <trkpt lat="53.939201328903437" lon="10.155007531866431">
        <ele>0</ele>
        <time>2010-01-02T11:40:15Z</time>
      </trkpt>
      <trkpt lat="53.939179535955191" lon="10.155311543494463">
        <ele>0</ele>
        <time>2010-01-02T11:40:22Z</time>
      </trkpt>
      <trkpt lat="53.939166627824306" lon="10.155624859035015">
        <ele>0</ele>
        <time>2010-01-02T11:40:29Z</time>
      </trkpt>
      <trkpt lat="53.939154222607613" lon="10.15597932972014">
        <ele>0</ele>
        <time>2010-01-02T11:40:38Z</time>
      </trkpt>
      <trkpt lat="53.939141985028982" lon="10.156225673854351">
        <ele>0</ele>
        <time>2010-01-02T11:40:43Z</time>
      </trkpt>
      <trkpt lat="53.939122287556529" lon="10.156685085967183">
        <ele>0</ele>
        <time>2010-01-02T11:40:54Z</time>
      </trkpt>
      <trkpt lat="53.939121197909117" lon="10.156703274697065">
        <ele>0</ele>
        <time>2010-01-02T11:40:55Z</time>
      </trkpt>
      <trkpt lat="53.93911792896688" lon="10.15694685280323">
        <ele>0</ele>
        <time>2010-01-02T11:41:01Z</time>
      </trkpt>
      <trkpt lat="53.939142823219299" lon="10.157258240506053">
        <ele>0</ele>
        <time>2010-01-02T11:41:08Z</time>
      </trkpt>
      <trkpt lat="53.939220272004604" lon="10.15789233148098">
        <ele>0</ele>
        <time>2010-01-02T11:41:23Z</time>
      </trkpt>
      <trkpt lat="53.939302666112781" lon="10.158668244257569">
        <ele>0</ele>
        <time>2010-01-02T11:41:42Z</time>
      </trkpt>
      <trkpt lat="53.939352873712778" lon="10.159231508150697">
        <ele>0</ele>
        <time>2010-01-02T11:41:55Z</time>
      </trkpt>
      <trkpt lat="53.939371732994914" lon="10.159419346600771">
        <ele>0</ele>
        <time>2010-01-02T11:42:00Z</time>
      </trkpt>
      <trkpt lat="53.939396711066365" lon="10.159812960773706">
        <ele>0</ele>
        <time>2010-01-02T11:42:09Z</time>
      </trkpt>
      <trkpt lat="53.93943996168673" lon="10.160450739786029">
        <ele>0</ele>
        <time>2010-01-02T11:42:24Z</time>
      </trkpt>
      <trkpt lat="53.939479105174541" lon="10.160951307043433">
        <ele>0</ele>
        <time>2010-01-02T11:42:36Z</time>
      </trkpt>
      <trkpt lat="53.939491175115108" lon="10.161467883735895">
        <ele>0</ele>
        <time>2010-01-02T11:42:48Z</time>
      </trkpt>
      <trkpt lat="53.939505591988564" lon="10.161932744085789">
        <ele>0</ele>
        <time>2010-01-02T11:42:59Z</time>
      </trkpt>
      <trkpt lat="53.939560409635305" lon="10.162490056827664">
        <ele>0</ele>
        <time>2010-01-02T11:43:12Z</time>
      </trkpt>
      <trkpt lat="53.93963735550642" lon="10.16308156773448">
        <ele>0</ele>
        <time>2010-01-02T11:43:27Z</time>
      </trkpt>
      <trkpt lat="53.93971698358655" lon="10.163578698411584">
        <ele>0</ele>
        <time>2010-01-02T11:43:39Z</time>
      </trkpt>
      <trkpt lat="53.939811196178198" lon="10.164146320894361">
        <ele>0</ele>
        <time>2010-01-02T11:43:53Z</time>
      </trkpt>
      <trkpt lat="53.939896775409579" lon="10.164862889796495">
        <ele>0</ele>
        <time>2010-01-02T11:44:10Z</time>
      </trkpt>
      <trkpt lat="53.940008841454983" lon="10.165726477280259">
        <ele>0</ele>
        <time>2010-01-02T11:44:31Z</time>
      </trkpt>
      <trkpt lat="53.940106155350804" lon="10.166432736441493">
        <ele>0</ele>
        <time>2010-01-02T11:44:48Z</time>
      </trkpt>
      <trkpt lat="53.940151920542121" lon="10.166808664798737">
        <ele>0</ele>
        <time>2010-01-02T11:44:57Z</time>
      </trkpt>
      <trkpt lat="53.940183352679014" lon="10.167181072756648">
        <ele>0</ele>
        <time>2010-01-02T11:45:06Z</time>
      </trkpt>
      <trkpt lat="53.940212605521083" lon="10.167501680552959">
        <ele>0</ele>
        <time>2010-01-02T11:45:14Z</time>
      </trkpt>
      <trkpt lat="53.940226770937443" lon="10.167704690247774">
        <ele>0</ele>
        <time>2010-01-02T11:45:18Z</time>
      </trkpt>
      <trkpt lat="53.940261555835605" lon="10.16819603741169">
        <ele>0</ele>
        <time>2010-01-02T11:45:30Z</time>
      </trkpt>
      <trkpt lat="53.940292401239276" lon="10.168714625760913">
        <ele>0</ele>
        <time>2010-01-02T11:45:42Z</time>
      </trkpt>
      <trkpt lat="53.940304135903716" lon="10.169082004576921">
        <ele>0</ele>
        <time>2010-01-02T11:45:51Z</time>
      </trkpt>
      <trkpt lat="53.940358366817236" lon="10.16978558152914">
        <ele>0</ele>
        <time>2010-01-02T11:46:08Z</time>
      </trkpt>
      <trkpt lat="53.940402371808887" lon="10.170619748532772">
        <ele>0</ele>
        <time>2010-01-02T11:46:27Z</time>
      </trkpt>
      <trkpt lat="53.940442856401205" lon="10.171441761776805">
        <ele>0</ele>
        <time>2010-01-02T11:46:47Z</time>
      </trkpt>
      <trkpt lat="53.940463308244944" lon="10.171829173341393">
        <ele>0</ele>
        <time>2010-01-02T11:46:56Z</time>
      </trkpt>
      <trkpt lat="53.940474120900035" lon="10.172012150287628">
        <ele>0</ele>
        <time>2010-01-02T11:47:00Z</time>
      </trkpt>
      <trkpt lat="53.940488873049617" lon="10.172247095033526">
        <ele>0</ele>
        <time>2010-01-02T11:47:06Z</time>
      </trkpt>
      <trkpt lat="53.940514856949449" lon="10.172442812472582">
        <ele>0</ele>
        <time>2010-01-02T11:47:11Z</time>
      </trkpt>
      <trkpt lat="53.940575541928411" lon="10.172668369486928">
        <ele>0</ele>
        <time>2010-01-02T11:47:16Z</time>
      </trkpt>
      <trkpt lat="53.94068693742156" lon="10.172941032797098">
        <ele>0</ele>
        <time>2010-01-02T11:47:24Z</time>
      </trkpt>
      <trkpt lat="53.941110894083977" lon="10.173970246687531">
        <ele>0</ele>
        <time>2010-01-02T11:47:54Z</time>
      </trkpt>
      <trkpt lat="53.94152881577611" lon="10.174964256584644">
        <ele>0</ele>
        <time>2010-01-02T11:48:23Z</time>
      </trkpt>
      <trkpt lat="53.941724533215165" lon="10.175441857427359">
        <ele>0</ele>
        <time>2010-01-02T11:48:36Z</time>
      </trkpt>
      <trkpt lat="53.941917987540364" lon="10.175875285640359">
        <ele>0</ele>
        <time>2010-01-02T11:48:49Z</time>
      </trkpt>
      <trkpt lat="53.942283354699612" lon="10.176637871190906">
        <ele>0</ele>
        <time>2010-01-02T11:49:12Z</time>
      </trkpt>
      <trkpt lat="53.942651236429811" lon="10.177423423156142">
        <ele>0</ele>
        <time>2010-01-02T11:49:36Z</time>
      </trkpt>
      <trkpt lat="53.942743353545666" lon="10.177648393437266">
        <ele>0</ele>
        <time>2010-01-02T11:49:42Z</time>
      </trkpt>
      <trkpt lat="53.942791381850839" lon="10.17778979614377">
        <ele>0</ele>
        <time>2010-01-02T11:49:46Z</time>
      </trkpt>
      <trkpt lat="53.942814012989402" lon="10.177868166938424">
        <ele>0</ele>
        <time>2010-01-02T11:49:48Z</time>
      </trkpt>
      <trkpt lat="53.942814683541656" lon="10.177983921021223">
        <ele>0</ele>
        <time>2010-01-02T11:49:51Z</time>
      </trkpt>
      <trkpt lat="53.942808229476213" lon="10.178341744467616">
        <ele>0</ele>
        <time>2010-01-02T12:05:49Z</time>
      </trkpt>
      <trkpt lat="53.942804876714945" lon="10.178519692271948">
        <ele>0</ele>
        <time>2010-01-02T12:05:53Z</time>
      </trkpt>
      <trkpt lat="53.942794231697917" lon="10.180066740140319">
        <ele>0</ele>
        <time>2010-01-02T12:06:29Z</time>
      </trkpt>
      <trkpt lat="53.942778808996081" lon="10.181904556229711">
        <ele>0</ele>
        <time>2010-01-02T12:07:12Z</time>
      </trkpt>
      <trkpt lat="53.942775204777718" lon="10.182210663333535">
        <ele>0</ele>
        <time>2010-01-02T12:07:20Z</time>
      </trkpt>
      <trkpt lat="53.942758524790406" lon="10.183609519153833">
        <ele>0</ele>
        <time>2010-01-02T12:07:53Z</time>
      </trkpt>
      <trkpt lat="53.942742180079222" lon="10.184985995292664">
        <ele>0</ele>
        <time>2010-01-02T12:08:25Z</time>
      </trkpt>
      <trkpt lat="53.942747041583061" lon="10.185945555567741">
        <ele>0</ele>
        <time>2010-01-02T12:08:48Z</time>
      </trkpt>
      <trkpt lat="53.9427450299263" lon="10.186784667894244">
        <ele>0</ele>
        <time>2010-01-02T12:09:07Z</time>
      </trkpt>
      <trkpt lat="53.94274553284049" lon="10.186944175511599">
        <ele>0</ele>
        <time>2010-01-02T12:09:11Z</time>
      </trkpt>
      <trkpt lat="53.942750645801425" lon="10.188581915572286">
        <ele>0</ele>
        <time>2010-01-02T12:09:50Z</time>
      </trkpt>
      <trkpt lat="53.942720219492912" lon="10.18980567343533">
        <ele>0</ele>
        <time>2010-01-02T12:10:19Z</time>
      </trkpt>
      <trkpt lat="53.942713178694248" lon="10.190090155228972">
        <ele>0</ele>
        <time>2010-01-02T12:10:25Z</time>
      </trkpt>
      <trkpt lat="53.942725080996752" lon="10.190341779962182">
        <ele>0</ele>
        <time>2010-01-02T12:10:31Z</time>
      </trkpt>
      <trkpt lat="53.942749472334981" lon="10.190510004758835">
        <ele>0</ele>
        <time>2010-01-02T12:10:35Z</time>
      </trkpt>
      <trkpt lat="53.942817784845829" lon="10.190690131857991">
        <ele>0</ele>
        <time>2010-01-02T12:10:40Z</time>
      </trkpt>
      <trkpt lat="53.943539718165994" lon="10.190014634281397">
        <ele>0</ele>
        <time>2010-01-02T12:11:13Z</time>
      </trkpt>
      <trkpt lat="53.943690257146955" lon="10.189962582662702">
        <ele>0</ele>
        <time>2010-01-02T12:11:20Z</time>
      </trkpt>
      <trkpt lat="53.944319235160947" lon="10.190106332302094">
        <ele>0</ele>
        <time>2010-01-02T12:11:45Z</time>
      </trkpt>
      <trkpt lat="53.94440833479166" lon="10.190150169655681">
        <ele>0</ele>
        <time>2010-01-02T12:11:49Z</time>
      </trkpt>
      <trkpt lat="53.944423170760274" lon="10.190167017281055">
        <ele>0</ele>
        <time>2010-01-02T12:11:49Z</time>
      </trkpt>
      <trkpt lat="53.944442952051759" lon="10.190188307315111">
        <ele>0</ele>
        <time>2010-01-02T12:11:50Z</time>
      </trkpt>
      <trkpt lat="53.944460302591324" lon="10.19022149965167">
        <ele>0</ele>
        <time>2010-01-02T12:11:51Z</time>
      </trkpt>
      <trkpt lat="53.9445133600384" lon="10.190323255956173">
        <ele>0</ele>
        <time>2010-01-02T12:11:55Z</time>
      </trkpt>
      <trkpt lat="53.944479413330555" lon="10.190385617315769">
        <ele>0</ele>
        <time>2010-01-02T12:11:57Z</time>
      </trkpt>
      <trkpt lat="53.944433564320207" lon="10.190571695566177">
        <ele>0</ele>
        <time>2010-01-02T12:12:01Z</time>
      </trkpt>
      <trkpt lat="53.94442836754024" lon="10.19073598086834">
        <ele>0</ele>
        <time>2010-01-02T12:12:05Z</time>
      </trkpt>
      <trkpt lat="53.94444789737463" lon="10.190942175686359">
        <ele>0</ele>
        <time>2010-01-02T12:12:10Z</time>
      </trkpt>
      <trkpt lat="53.944477820768952" lon="10.191183658316731">
        <ele>0</ele>
        <time>2010-01-02T12:12:16Z</time>
      </trkpt>
      <trkpt lat="53.944851569831371" lon="10.194799359887838">
        <ele>0</ele>
        <time>2010-01-02T12:13:42Z</time>
      </trkpt>
      <trkpt lat="53.94486665725708" lon="10.194921987131238">
        <ele>0</ele>
        <time>2010-01-02T12:13:45Z</time>
      </trkpt>
      <trkpt lat="53.945133620873094" lon="10.197099186480045">
        <ele>0</ele>
        <time>2010-01-02T12:14:38Z</time>
      </trkpt>
      <trkpt lat="53.945265468209982" lon="10.198174752295017">
        <ele>0</ele>
        <time>2010-01-02T12:15:04Z</time>
      </trkpt>
      <trkpt lat="53.945410056039691" lon="10.199353918433189">
        <ele>0</ele>
        <time>2010-01-02T12:15:32Z</time>
      </trkpt>
      <trkpt lat="53.945432100445032" lon="10.199533794075251">
        <ele>0</ele>
        <time>2010-01-02T12:15:36Z</time>
      </trkpt>
      <trkpt lat="53.945567635819316" lon="10.200639618560672">
        <ele>0</ele>
        <time>2010-01-02T12:16:03Z</time>
      </trkpt>
      <trkpt lat="53.945397399365902" lon="10.200686557218432">
        <ele>0</ele>
        <time>2010-01-02T12:16:10Z</time>
      </trkpt>
      <trkpt lat="53.945230264216661" lon="10.200737016275525">
        <ele>0</ele>
        <time>2010-01-02T12:16:17Z</time>
      </trkpt>
      <trkpt lat="53.944791220128536" lon="10.200851764529943">
        <ele>0</ele>
        <time>2010-01-02T12:16:35Z</time>
      </trkpt>
      <trkpt lat="53.943246267735958" lon="10.201428690925241">
        <ele>0</ele>
        <time>2010-01-02T12:17:38Z</time>
      </trkpt>
      <trkpt lat="53.943354981020093" lon="10.202237460762262">
        <ele>0</ele>
        <time>2010-01-02T12:17:57Z</time>
      </trkpt>
      <trkpt lat="53.943396303802729" lon="10.202421443536878">
        <ele>0</ele>
        <time>2010-01-02T12:18:02Z</time>
      </trkpt>
      <trkpt lat="53.94343938678503" lon="10.202511046081781">
        <ele>0</ele>
        <time>2010-01-02T12:18:05Z</time>
      </trkpt>
      <trkpt lat="53.943500909954309" lon="10.202566115185618">
        <ele>0</ele>
        <time>2010-01-02T12:18:08Z</time>
      </trkpt>
      <trkpt lat="53.943610964342952" lon="10.202608862891793">
        <ele>0</ele>
        <time>2010-01-02T12:18:12Z</time>
      </trkpt>
      <trkpt lat="53.943894188851118" lon="10.202676421031356">
        <ele>0</ele>
        <time>2010-01-02T12:18:24Z</time>
      </trkpt>
      <trkpt lat="53.943984378129244" lon="10.202730819582939">
        <ele>0</ele>
        <time>2010-01-02T12:18:27Z</time>
      </trkpt>
      <trkpt lat="53.944037687033415" lon="10.202796282246709">
        <ele>0</ele>
        <time>2010-01-02T12:18:30Z</time>
      </trkpt>
      <trkpt lat="53.944079848006368" lon="10.202888902276754">
        <ele>0</ele>
        <time>2010-01-02T12:18:33Z</time>
      </trkpt>
      <trkpt lat="53.944116309285164" lon="10.203020917251706">
        <ele>0</ele>
        <time>2010-01-02T12:18:36Z</time>
      </trkpt>
      <trkpt lat="53.944350080564618" lon="10.20407703705132">
        <ele>0</ele>
        <time>2010-01-02T12:19:03Z</time>
      </trkpt>
      <trkpt lat="53.944369945675135" lon="10.204245094209909">
        <ele>0</ele>
        <time>2010-01-02T12:19:07Z</time>
      </trkpt>
      <trkpt lat="53.944379668682814" lon="10.20435506477952">
        <ele>0</ele>
        <time>2010-01-02T12:19:09Z</time>
      </trkpt>
      <trkpt lat="53.944365754723549" lon="10.204570898786187">
        <ele>0</ele>
        <time>2010-01-02T12:19:15Z</time>
      </trkpt>
      <trkpt lat="53.944319738075137" lon="10.205669179558754">
        <ele>0</ele>
        <time>2010-01-02T12:19:40Z</time>
      </trkpt>
      <trkpt lat="53.944289982318878" lon="10.206385245546699">
        <ele>0</ele>
        <time>2010-01-02T12:19:57Z</time>
      </trkpt>
      <trkpt lat="53.944269111379981" lon="10.206886315718293">
        <ele>0</ele>
        <time>2010-01-02T12:20:09Z</time>
      </trkpt>
      <trkpt lat="53.944192919880152" lon="10.208719186484814">
        <ele>0</ele>
        <time>2010-01-02T12:20:53Z</time>
      </trkpt>
      <trkpt lat="53.944176407530904" lon="10.209108609706163">
        <ele>0</ele>
        <time>2010-01-02T12:21:02Z</time>
      </trkpt>
      <trkpt lat="53.944144388660789" lon="10.209343805909157">
        <ele>0</ele>
        <time>2010-01-02T12:21:07Z</time>
      </trkpt>
      <trkpt lat="53.943877089768648" lon="10.209206594154239">
        <ele>0</ele>
        <time>2010-01-02T12:21:19Z</time>
      </trkpt>
      <trkpt lat="53.943714397028089" lon="10.209127217531204">
        <ele>0</ele>
        <time>2010-01-02T12:21:25Z</time>
      </trkpt>
      <trkpt lat="53.943532845005393" lon="10.209039710462093">
        <ele>0</ele>
        <time>2010-01-02T12:21:33Z</time>
      </trkpt>
      <trkpt lat="53.943489929661155" lon="10.209018671885133">
        <ele>0</ele>
        <time>2010-01-02T12:21:35Z</time>
      </trkpt>
      <trkpt lat="53.943413067609072" lon="10.208982964977622">
        <ele>0</ele>
        <time>2010-01-02T12:21:38Z</time>
      </trkpt>
      <trkpt lat="53.943349532783031" lon="10.208956729620695">
        <ele>0</ele>
        <time>2010-01-02T12:21:40Z</time>
      </trkpt>
      <trkpt lat="53.94329471513629" lon="10.208955220878124">
        <ele>0</ele>
        <time>2010-01-02T12:21:43Z</time>
      </trkpt>
      <trkpt lat="53.943269988521934" lon="10.208955723792315">
        <ele>0</ele>
        <time>2010-01-02T12:21:44Z</time>
      </trkpt>
      <trkpt lat="53.943143002688885" lon="10.208999225869775">
        <ele>0</ele>
        <time>2010-01-02T12:21:49Z</time>
      </trkpt>
      <trkpt lat="53.942660540342331" lon="10.209242217242718">
        <ele>0</ele>
        <time>2010-01-02T12:22:09Z</time>
      </trkpt>
      <trkpt lat="53.939740117639303" lon="10.210754396393895">
        <ele>0</ele>
        <time>2010-01-02T12:24:11Z</time>
      </trkpt>
      <trkpt lat="53.939663507044315" lon="10.210864869877696">
        <ele>0</ele>
        <time>2010-01-02T12:24:15Z</time>
      </trkpt>
      <trkpt lat="53.939642887562513" lon="10.210948018357158">
        <ele>0</ele>
        <time>2010-01-02T12:24:17Z</time>
      </trkpt>
      <trkpt lat="53.939661830663681" lon="10.211116075515747">
        <ele>0</ele>
        <time>2010-01-02T12:24:21Z</time>
      </trkpt>
      <trkpt lat="53.939705416560173" lon="10.211368035525084">
        <ele>0</ele>
        <time>2010-01-02T12:24:28Z</time>
      </trkpt>
      <trkpt lat="53.939715391024947" lon="10.211425283923745">
        <ele>0</ele>
        <time>2010-01-02T12:24:29Z</time>
      </trkpt>
      <trkpt lat="53.939951760694385" lon="10.212125005200505">
        <ele>0</ele>
        <time>2010-01-02T12:24:48Z</time>
      </trkpt>
      <trkpt lat="53.94077243283391" lon="10.214401194825768">
        <ele>0</ele>
        <time>2010-01-02T12:25:51Z</time>
      </trkpt>
      <trkpt lat="53.941354556009173" lon="10.216015633195639">
        <ele>0</ele>
        <time>2010-01-02T12:26:36Z</time>
      </trkpt>
      <trkpt lat="53.941785302013159" lon="10.217216089367867">
        <ele>0</ele>
        <time>2010-01-02T12:27:09Z</time>
      </trkpt>
      <trkpt lat="53.941869121044874" lon="10.217460673302412">
        <ele>0</ele>
        <time>2010-01-02T12:27:15Z</time>
      </trkpt>
      <trkpt lat="53.942101299762726" lon="10.218136003240943">
        <ele>0</ele>
        <time>2010-01-02T12:27:34Z</time>
      </trkpt>
      <trkpt lat="53.942415285855532" lon="10.21897972561419">
        <ele>0</ele>
        <time>2010-01-02T12:27:57Z</time>
      </trkpt>
      <trkpt lat="53.942684261128306" lon="10.21974147297442">
        <ele>0</ele>
        <time>2010-01-02T12:28:18Z</time>
      </trkpt>
      <trkpt lat="53.943038899451494" lon="10.220741769298911">
        <ele>0</ele>
        <time>2010-01-02T12:28:46Z</time>
      </trkpt>
      <trkpt lat="53.943262947723269" lon="10.221323976293206">
        <ele>0</ele>
        <time>2010-01-02T12:29:02Z</time>
      </trkpt>
      <trkpt lat="53.943399405106902" lon="10.221688924357295">
        <ele>0</ele>
        <time>2010-01-02T12:29:12Z</time>
      </trkpt>
      <trkpt lat="53.943594451993704" lon="10.221594125032425">
        <ele>0</ele>
        <time>2010-01-02T12:29:20Z</time>
      </trkpt>
      <trkpt lat="53.943695705384016" lon="10.222154455259442">
        <ele>0</ele>
        <time>2010-01-02T12:29:34Z</time>
      </trkpt>
      <trkpt lat="53.94382881000638" lon="10.222846800461411">
        <ele>0</ele>
        <time>2010-01-02T12:29:51Z</time>
      </trkpt>
      <trkpt lat="53.943973900750279" lon="10.223600333556533">
        <ele>0</ele>
        <time>2010-01-02T12:30:10Z</time>
      </trkpt>
      <trkpt lat="53.944126619026065" lon="10.224477499723434">
        <ele>0</ele>
        <time>2010-01-02T12:30:32Z</time>
      </trkpt>
      <trkpt lat="53.9442871324718" lon="10.22539297118783">
        <ele>0</ele>
        <time>2010-01-02T12:30:54Z</time>
      </trkpt>
      <trkpt lat="53.944416213780642" lon="10.226217666640878">
        <ele>0</ele>
        <time>2010-01-02T12:31:14Z</time>
      </trkpt>
      <trkpt lat="53.944528196007013" lon="10.226866761222482">
        <ele>0</ele>
        <time>2010-01-02T12:31:30Z</time>
      </trkpt>
      <trkpt lat="53.944669682532549" lon="10.227615684270859">
        <ele>0</ele>
        <time>2010-01-02T12:31:49Z</time>
      </trkpt>
      <trkpt lat="53.944915356114507" lon="10.228541297838092">
        <ele>0</ele>
        <time>2010-01-02T12:32:13Z</time>
      </trkpt>
      <trkpt lat="53.945157760754228" lon="10.229354090988636">
        <ele>0</ele>
        <time>2010-01-02T12:32:34Z</time>
      </trkpt>
      <trkpt lat="53.945390023291111" lon="10.230183396488428">
        <ele>0</ele>
        <time>2010-01-02T12:32:56Z</time>
      </trkpt>
      <trkpt lat="53.945536790415645" lon="10.230591343715787">
        <ele>0</ele>
        <time>2010-01-02T12:33:07Z</time>
      </trkpt>
      <trkpt lat="53.946101479232311" lon="10.230548596009612">
        <ele>0</ele>
        <time>2010-01-02T12:33:30Z</time>
      </trkpt>
      <trkpt lat="53.946771780028939" lon="10.230531916022301">
        <ele>0</ele>
        <time>2010-01-02T12:33:56Z</time>
      </trkpt>
      <trkpt lat="53.947711056098342" lon="10.230516828596592">
        <ele>0</ele>
        <time>2010-01-02T12:34:34Z</time>
      </trkpt>
      <trkpt lat="53.94864278845489" lon="10.230505429208279">
        <ele>0</ele>
        <time>2010-01-02T12:35:11Z</time>
      </trkpt>
      <trkpt lat="53.948643794283271" lon="10.230771219357848">
        <ele>0</ele>
        <time>2010-01-02T12:35:18Z</time>
      </trkpt>
      <trkpt lat="53.948614038527012" lon="10.23183505050838">
        <ele>0</ele>
        <time>2010-01-02T12:35:43Z</time>
      </trkpt>
      <trkpt lat="53.948611943051219" lon="10.231946194544435">
        <ele>0</ele>
        <time>2010-01-02T12:35:45Z</time>
      </trkpt>
      <trkpt lat="53.948582354933023" lon="10.23334052413702">
        <ele>0</ele>
        <time>2010-01-02T12:36:18Z</time>
      </trkpt>
      <trkpt lat="53.948564920574427" lon="10.23398894816637">
        <ele>0</ele>
        <time>2010-01-02T12:36:33Z</time>
      </trkpt>
      <trkpt lat="53.948536673560739" lon="10.235078679397702">
        <ele>0</ele>
        <time>2010-01-02T12:36:59Z</time>
      </trkpt>
      <trkpt lat="53.948533572256565" lon="10.235200468450785">
        <ele>0</ele>
        <time>2010-01-02T12:37:02Z</time>
      </trkpt>
      <trkpt lat="53.948528543114662" lon="10.235427198931575">
        <ele>0</ele>
        <time>2010-01-02T12:37:07Z</time>
      </trkpt>
      <trkpt lat="53.948504822328687" lon="10.236507961526513">
        <ele>0</ele>
        <time>2010-01-02T12:37:33Z</time>
      </trkpt>
      <trkpt lat="53.948498116806149" lon="10.236812476068735">
        <ele>0</ele>
        <time>2010-01-02T12:37:40Z</time>
      </trkpt>
      <trkpt lat="53.948492249473929" lon="10.237119924277067">
        <ele>0</ele>
        <time>2010-01-02T12:37:47Z</time>
      </trkpt>
      <trkpt lat="53.948478670790792" lon="10.23730231449008">
        <ele>0</ele>
        <time>2010-01-02T12:37:52Z</time>
      </trkpt>
      <trkpt lat="53.948448915034533" lon="10.237491829320788">
        <ele>0</ele>
        <time>2010-01-02T12:37:56Z</time>
      </trkpt>
      <trkpt lat="53.948394516482949" lon="10.237712608650327">
        <ele>0</ele>
        <time>2010-01-02T12:38:02Z</time>
      </trkpt>
      <trkpt lat="53.948384374380112" lon="10.237739766016603">
        <ele>0</ele>
        <time>2010-01-02T12:38:03Z</time>
      </trkpt>
      <trkpt lat="53.948324276134372" lon="10.237897848710418">
        <ele>0</ele>
        <time>2010-01-02T12:38:07Z</time>
      </trkpt>
      <trkpt lat="53.948299381881952" lon="10.237962640821934">
        <ele>0</ele>
        <time>2010-01-02T12:38:09Z</time>
      </trkpt>
      <trkpt lat="53.948199972510338" lon="10.238215103745461">
        <ele>0</ele>
        <time>2010-01-02T12:38:16Z</time>
      </trkpt>
      <trkpt lat="53.948153620585799" lon="10.238333037123084">
        <ele>0</ele>
        <time>2010-01-02T12:38:19Z</time>
      </trkpt>
      <trkpt lat="53.94808572717011" lon="10.238553397357464">
        <ele>0</ele>
        <time>2010-01-02T12:38:25Z</time>
      </trkpt>
      <trkpt lat="53.948076423257589" lon="10.238585080951452">
        <ele>0</ele>
        <time>2010-01-02T12:38:26Z</time>
      </trkpt>
      <trkpt lat="53.948047589510679" lon="10.238680215552449">
        <ele>0</ele>
        <time>2010-01-02T12:38:29Z</time>
      </trkpt>
      <trkpt lat="53.948023365810513" lon="10.238761771470308">
        <ele>0</ele>
        <time>2010-01-02T12:38:31Z</time>
      </trkpt>
      <trkpt lat="53.947930075228214" lon="10.239182459190488">
        <ele>0</ele>
        <time>2010-01-02T12:38:41Z</time>
      </trkpt>
      <trkpt lat="53.947861259803176" lon="10.239584036171436">
        <ele>0</ele>
        <time>2010-01-02T12:38:51Z</time>
      </trkpt>
      <trkpt lat="53.947791690006852" lon="10.24005719460547">
        <ele>0</ele>
        <time>2010-01-02T12:39:03Z</time>
      </trkpt>
      <trkpt lat="53.94775103777647" lon="10.240429099649191">
        <ele>0</ele>
        <time>2010-01-02T12:39:12Z</time>
      </trkpt>
      <trkpt lat="53.947734190151095" lon="10.240579470992088">
        <ele>0</ele>
        <time>2010-01-02T12:39:15Z</time>
      </trkpt>
      <trkpt lat="53.947693957015872" lon="10.241079367697239">
        <ele>0</ele>
        <time>2010-01-02T12:39:27Z</time>
      </trkpt>
      <trkpt lat="53.947652550414205" lon="10.241347756236792">
        <ele>0</ele>
        <time>2010-01-02T12:39:34Z</time>
      </trkpt>
      <trkpt lat="53.947633439674973" lon="10.241456804797053">
        <ele>0</ele>
        <time>2010-01-02T12:39:36Z</time>
      </trkpt>
      <trkpt lat="53.947615334764123" lon="10.241559818387032">
        <ele>0</ele>
        <time>2010-01-02T12:39:39Z</time>
      </trkpt>
      <trkpt lat="53.94759907387197" lon="10.241655372083187">
        <ele>0</ele>
        <time>2010-01-02T12:39:41Z</time>
      </trkpt>
      <trkpt lat="53.947531934827566" lon="10.241976231336594">
        <ele>0</ele>
        <time>2010-01-02T12:39:49Z</time>
      </trkpt>
      <trkpt lat="53.947442835196853" lon="10.242339167743921">
        <ele>0</ele>
        <time>2010-01-02T12:39:58Z</time>
      </trkpt>
      <trkpt lat="53.947366056963801" lon="10.242635384202003">
        <ele>0</ele>
        <time>2010-01-02T12:40:06Z</time>
      </trkpt>
      <trkpt lat="53.947204370051622" lon="10.243294117972255">
        <ele>0</ele>
        <time>2010-01-02T12:40:23Z</time>
      </trkpt>
      <trkpt lat="53.947170004248619" lon="10.243433760479093">
        <ele>0</ele>
        <time>2010-01-02T12:40:26Z</time>
      </trkpt>
      <trkpt lat="53.947049137204885" lon="10.24391152895987">
        <ele>0</ele>
        <time>2010-01-02T12:40:39Z</time>
      </trkpt>
      <trkpt lat="53.946956433355808" lon="10.244275806471705">
        <ele>0</ele>
        <time>2010-01-02T12:40:48Z</time>
      </trkpt>
      <trkpt lat="53.946869680657983" lon="10.244667744264007">
        <ele>0</ele>
        <time>2010-01-02T12:40:58Z</time>
      </trkpt>
      <trkpt lat="53.94679818302393" lon="10.244980892166495">
        <ele>0</ele>
        <time>2010-01-02T12:41:06Z</time>
      </trkpt>
      <trkpt lat="53.946704808622599" lon="10.244978126138449">
        <ele>0</ele>
        <time>2010-01-02T12:41:10Z</time>
      </trkpt>
      <trkpt lat="53.946639765053988" lon="10.245027495548129">
        <ele>0</ele>
        <time>2010-01-02T12:41:12Z</time>
      </trkpt>
      <trkpt lat="53.946577738970518" lon="10.245145931839943">
        <ele>0</ele>
        <time>2010-01-02T12:41:16Z</time>
      </trkpt>
      <trkpt lat="53.946498446166515" lon="10.245299153029919">
        <ele>0</ele>
        <time>2010-01-02T12:41:21Z</time>
      </trkpt>
      <trkpt lat="53.945960663259029" lon="10.246116556227207">
        <ele>0</ele>
        <time>2010-01-02T12:41:50Z</time>
      </trkpt>
      <trkpt lat="53.945789756253362" lon="10.246442696079612">
        <ele>0</ele>
        <time>2010-01-02T12:42:00Z</time>
      </trkpt>
      <trkpt lat="53.945631003007293" lon="10.246798172593117">
        <ele>0</ele>
        <time>2010-01-02T12:42:11Z</time>
      </trkpt>
      <trkpt lat="53.945487588644028" lon="10.247115259990096">
        <ele>0</ele>
        <time>2010-01-02T12:42:20Z</time>
      </trkpt>
      <trkpt lat="53.945360518991947" lon="10.247408458963037">
        <ele>0</ele>
        <time>2010-01-02T12:42:29Z</time>
      </trkpt>
      <trkpt lat="53.945267144590616" lon="10.247579282149673">
        <ele>0</ele>
        <time>2010-01-02T12:42:34Z</time>
      </trkpt>
      <trkpt lat="53.945187600329518" lon="10.247704843059182">
        <ele>0</ele>
        <time>2010-01-02T12:42:39Z</time>
      </trkpt>
      <trkpt lat="53.945133872330189" lon="10.247774831950665">
        <ele>0</ele>
        <time>2010-01-02T12:42:41Z</time>
      </trkpt>
      <trkpt lat="53.945038067176938" lon="10.247798804193735">
        <ele>0</ele>
        <time>2010-01-02T12:42:45Z</time>
      </trkpt>
      <trkpt lat="53.94493312574923" lon="10.247811460867524">
        <ele>0</ele>
        <time>2010-01-02T12:42:49Z</time>
      </trkpt>
      <trkpt lat="53.944861711934209" lon="10.247855046764016">
        <ele>0</ele>
        <time>2010-01-02T12:42:52Z</time>
      </trkpt>
      <trkpt lat="53.944815611466765" lon="10.247967950999737">
        <ele>0</ele>
        <time>2010-01-02T12:42:56Z</time>
      </trkpt>
      <trkpt lat="53.94474109634757" lon="10.248139277100563">
        <ele>0</ele>
        <time>2010-01-02T12:43:01Z</time>
      </trkpt>
      <trkpt lat="53.944684853777289" lon="10.24834094569087">
        <ele>0</ele>
        <time>2010-01-02T12:43:06Z</time>
      </trkpt>
      <trkpt lat="53.944651829078794" lon="10.248585781082511">
        <ele>0</ele>
        <time>2010-01-02T12:43:12Z</time>
      </trkpt>
      <trkpt lat="53.94463749602437" lon="10.249180309474468">
        <ele>0</ele>
        <time>2010-01-02T12:43:26Z</time>
      </trkpt>
      <trkpt lat="53.944612434133887" lon="10.249358508735895">
        <ele>0</ele>
        <time>2010-01-02T12:43:30Z</time>
      </trkpt>
      <trkpt lat="53.944502379745245" lon="10.249752709642053">
        <ele>0</ele>
        <time>2010-01-02T12:43:40Z</time>
      </trkpt>
      <trkpt lat="53.944282857701182" lon="10.250641694292426">
        <ele>0</ele>
        <time>2010-01-02T12:44:03Z</time>
      </trkpt>
      <trkpt lat="53.94419333897531" lon="10.250955764204264">
        <ele>0</ele>
        <time>2010-01-02T12:44:11Z</time>
      </trkpt>
      <trkpt lat="53.944136342033744" lon="10.25116422213614">
        <ele>0</ele>
        <time>2010-01-02T12:44:17Z</time>
      </trkpt>
      <trkpt lat="53.944077249616385" lon="10.251317862421274">
        <ele>0</ele>
        <time>2010-01-02T12:44:21Z</time>
      </trkpt>
      <trkpt lat="53.944016480818391" lon="10.251459181308746">
        <ele>0</ele>
        <time>2010-01-02T12:44:25Z</time>
      </trkpt>
      <trkpt lat="53.943958729505539" lon="10.251568648964167">
        <ele>0</ele>
        <time>2010-01-02T12:44:29Z</time>
      </trkpt>
      <trkpt lat="53.94393727183342" lon="10.251645678654313">
        <ele>0</ele>
        <time>2010-01-02T12:44:31Z</time>
      </trkpt>
      <trkpt lat="53.943906929343939" lon="10.25179554708302">
        <ele>0</ele>
        <time>2010-01-02T12:44:34Z</time>
      </trkpt>
      <trkpt lat="53.943806178867817" lon="10.252325534820557">
        <ele>0</ele>
        <time>2010-01-02T12:44:48Z</time>
      </trkpt>
      <trkpt lat="53.943751277402043" lon="10.25259199552238">
        <ele>0</ele>
        <time>2010-01-02T12:44:54Z</time>
      </trkpt>
      <trkpt lat="53.943706350401044" lon="10.252761226147413">
        <ele>0</ele>
        <time>2010-01-02T12:44:59Z</time>
      </trkpt>
      <trkpt lat="53.943664776161313" lon="10.252872621640563">
        <ele>0</ele>
        <time>2010-01-02T12:45:02Z</time>
      </trkpt>
      <trkpt lat="53.943624207749963" lon="10.252970438450575">
        <ele>0</ele>
        <time>2010-01-02T12:45:04Z</time>
      </trkpt>
      <trkpt lat="53.943588668480515" lon="10.253019640222192">
        <ele>0</ele>
        <time>2010-01-02T12:45:06Z</time>
      </trkpt>
      <trkpt lat="53.943543322384357" lon="10.253056352958083">
        <ele>0</ele>
        <time>2010-01-02T12:45:08Z</time>
      </trkpt>
      <trkpt lat="53.943475680425763" lon="10.253086276352406">
        <ele>0</ele>
        <time>2010-01-02T12:45:11Z</time>
      </trkpt>
      <trkpt lat="53.94340954720974" lon="10.253137657418847">
        <ele>0</ele>
        <time>2010-01-02T12:45:14Z</time>
      </trkpt>
      <trkpt lat="53.943225648254156" lon="10.253360532224178">
        <ele>0</ele>
        <time>2010-01-02T12:45:23Z</time>
      </trkpt>
      <trkpt lat="53.943079048767686" lon="10.253546526655555">
        <ele>0</ele>
        <time>2010-01-02T12:45:30Z</time>
      </trkpt>
      <trkpt lat="53.942944351583719" lon="10.253717601299286">
        <ele>0</ele>
        <time>2010-01-02T12:45:37Z</time>
      </trkpt>
      <trkpt lat="53.942871512845159" lon="10.253802258521318">
        <ele>0</ele>
        <time>2010-01-02T12:45:41Z</time>
      </trkpt>
      <trkpt lat="53.942834213376045" lon="10.253852885216475">
        <ele>0</ele>
        <time>2010-01-02T12:45:43Z</time>
      </trkpt>
      <trkpt lat="53.94277285784483" lon="10.253959251567721">
        <ele>0</ele>
        <time>2010-01-02T12:45:46Z</time>
      </trkpt>
      <trkpt lat="53.942708233371377" lon="10.25395723991096">
        <ele>0</ele>
        <time>2010-01-02T12:45:49Z</time>
      </trkpt>
      <trkpt lat="53.94263899885118" lon="10.253962771967053">
        <ele>0</ele>
        <time>2010-01-02T12:45:51Z</time>
      </trkpt>
      <trkpt lat="53.942555347457528" lon="10.253966376185417">
        <ele>0</ele>
        <time>2010-01-02T12:45:55Z</time>
      </trkpt>
      <trkpt lat="53.9424704387784" lon="10.25400803424418">
        <ele>0</ele>
        <time>2010-01-02T12:45:58Z</time>
      </trkpt>
      <trkpt lat="53.942372538149357" lon="10.254093362018466">
        <ele>0</ele>
        <time>2010-01-02T12:46:03Z</time>
      </trkpt>
      <trkpt lat="53.94227547571063" lon="10.254183383658528">
        <ele>0</ele>
        <time>2010-01-02T12:46:07Z</time>
      </trkpt>
      <trkpt lat="53.942248150706291" lon="10.254213055595756">
        <ele>0</ele>
        <time>2010-01-02T12:46:08Z</time>
      </trkpt>
      <trkpt lat="53.942206995561719" lon="10.254258569329977">
        <ele>0</ele>
        <time>2010-01-02T12:46:10Z</time>
      </trkpt>
      <trkpt lat="53.942194590345025" lon="10.254272315651178">
        <ele>0</ele>
        <time>2010-01-02T12:46:11Z</time>
      </trkpt>
      <trkpt lat="53.942095767706633" lon="10.254442971199751">
        <ele>0</ele>
        <time>2010-01-02T12:46:17Z</time>
      </trkpt>
      <trkpt lat="53.942043129354715" lon="10.254572387784719">
        <ele>0</ele>
        <time>2010-01-02T12:46:20Z</time>
      </trkpt>
      <trkpt lat="53.941992251202464" lon="10.254715550690889">
        <ele>0</ele>
        <time>2010-01-02T12:46:24Z</time>
      </trkpt>
      <trkpt lat="53.941953778266907" lon="10.254875812679529">
        <ele>0</ele>
        <time>2010-01-02T12:46:28Z</time>
      </trkpt>
      <trkpt lat="53.941911533474922" lon="10.255048144608736">
        <ele>0</ele>
        <time>2010-01-02T12:46:33Z</time>
      </trkpt>
      <trkpt lat="53.941825870424509" lon="10.255500935018063">
        <ele>0</ele>
        <time>2010-01-02T12:46:44Z</time>
      </trkpt>
      <trkpt lat="53.94173794426024" lon="10.256003933027387">
        <ele>0</ele>
        <time>2010-01-02T12:46:56Z</time>
      </trkpt>
      <trkpt lat="53.941699303686619" lon="10.256179450079799">
        <ele>0</ele>
        <time>2010-01-02T12:47:01Z</time>
      </trkpt>
      <trkpt lat="53.941691759973764" lon="10.256215743720531">
        <ele>0</ele>
        <time>2010-01-02T12:47:02Z</time>
      </trkpt>
      <trkpt lat="53.941667033359408" lon="10.256344489753246">
        <ele>0</ele>
        <time>2010-01-02T12:47:05Z</time>
      </trkpt>
      <trkpt lat="53.941628141328692" lon="10.256451442837715">
        <ele>0</ele>
        <time>2010-01-02T12:47:08Z</time>
      </trkpt>
      <trkpt lat="53.941587572917342" lon="10.256552193313837">
        <ele>0</ele>
        <time>2010-01-02T12:47:11Z</time>
      </trkpt>
      <trkpt lat="53.941527977585793" lon="10.256664678454399">
        <ele>0</ele>
        <time>2010-01-02T12:47:14Z</time>
      </trkpt>
      <trkpt lat="53.941467711701989" lon="10.256757298484445">
        <ele>0</ele>
        <time>2010-01-02T12:47:18Z</time>
      </trkpt>
      <trkpt lat="53.941375846043229" lon="10.256868693977594">
        <ele>0</ele>
        <time>2010-01-02T12:47:22Z</time>
      </trkpt>
      <trkpt lat="53.941348604857922" lon="10.256896857172251">
        <ele>0</ele>
        <time>2010-01-02T12:47:23Z</time>
      </trkpt>
      <trkpt lat="53.941292278468609" lon="10.256956033408642">
        <ele>0</ele>
        <time>2010-01-02T12:47:26Z</time>
      </trkpt>
      <trkpt lat="53.94119655713439" lon="10.257051838561893">
        <ele>0</ele>
        <time>2010-01-02T12:47:30Z</time>
      </trkpt>
      <trkpt lat="53.941103601828218" lon="10.257164323702455">
        <ele>0</ele>
        <time>2010-01-02T12:47:35Z</time>
      </trkpt>
      <trkpt lat="53.941037217155099" lon="10.257273707538843">
        <ele>0</ele>
        <time>2010-01-02T12:47:39Z</time>
      </trkpt>
      <trkpt lat="53.941037217155099" lon="10.257273707538843">
        <ele>0</ele>
        <time>2010-01-02T11:54:46Z</time>
      </trkpt>
      <trkpt lat="53.940972089767456" lon="10.257396418601274">
        <ele>0</ele>
        <time>2010-01-02T11:54:50Z</time>
      </trkpt>
      <trkpt lat="53.940925989300013" lon="10.257554249837995">
        <ele>0</ele>
        <time>2010-01-02T11:54:54Z</time>
      </trkpt>
      <trkpt lat="53.94089070148766" lon="10.25775583460927">
        <ele>0</ele>
        <time>2010-01-02T11:54:59Z</time>
      </trkpt>
      <trkpt lat="53.94085843116045" lon="10.258072419092059">
        <ele>0</ele>
        <time>2010-01-02T11:55:06Z</time>
      </trkpt>
      <trkpt lat="53.940810402855277" lon="10.258642975240946">
        <ele>0</ele>
        <time>2010-01-02T11:55:20Z</time>
      </trkpt>
      <trkpt lat="53.940760614350438" lon="10.259229457005858">
        <ele>0</ele>
        <time>2010-01-02T11:55:34Z</time>
      </trkpt>
      <trkpt lat="53.940714430063963" lon="10.25973916053772">
        <ele>0</ele>
        <time>2010-01-02T11:55:46Z</time>
      </trkpt>
      <trkpt lat="53.940649470314384" lon="10.260404348373413">
        <ele>0</ele>
        <time>2010-01-02T11:56:02Z</time>
      </trkpt>
      <trkpt lat="53.94056087359786" lon="10.261074481531978">
        <ele>0</ele>
        <time>2010-01-02T11:56:18Z</time>
      </trkpt>
      <trkpt lat="53.940462386235595" lon="10.261770095676184">
        <ele>0</ele>
        <time>2010-01-02T11:56:35Z</time>
      </trkpt>
      <trkpt lat="53.940440593287349" lon="10.261918036267161">
        <ele>0</ele>
        <time>2010-01-02T11:56:39Z</time>
      </trkpt>
      <trkpt lat="53.940367251634598" lon="10.262388680130243">
        <ele>0</ele>
        <time>2010-01-02T11:56:50Z</time>
      </trkpt>
      <trkpt lat="53.940149741247296" lon="10.2638172917068">
        <ele>0</ele>
        <time>2010-01-02T11:57:25Z</time>
      </trkpt>
      <trkpt lat="53.940059132874012" lon="10.264349123463035">
        <ele>0</ele>
        <time>2010-01-02T11:57:38Z</time>
      </trkpt>
      <trkpt lat="53.940017558634281" lon="10.264631090685725">
        <ele>0</ele>
        <time>2010-01-02T11:57:45Z</time>
      </trkpt>
      <trkpt lat="53.939942121505737" lon="10.265138950198889">
        <ele>0</ele>
        <time>2010-01-02T11:57:57Z</time>
      </trkpt>
      <trkpt lat="53.939833156764507" lon="10.265922993421555">
        <ele>0</ele>
        <time>2010-01-02T11:58:16Z</time>
      </trkpt>
      <trkpt lat="53.939708517864347" lon="10.266752215102315">
        <ele>0</ele>
        <time>2010-01-02T11:58:36Z</time>
      </trkpt>
      <trkpt lat="53.939689071848989" lon="10.266893282532692">
        <ele>0</ele>
        <time>2010-01-02T11:58:40Z</time>
      </trkpt>
      <trkpt lat="53.939610198140144" lon="10.267468029633164">
        <ele>0</ele>
        <time>2010-01-02T11:58:54Z</time>
      </trkpt>
      <trkpt lat="53.939548674970865" lon="10.2678875438869">
        <ele>0</ele>
        <time>2010-01-02T11:59:04Z</time>
      </trkpt>
      <trkpt lat="53.939512465149164" lon="10.268133636564016">
        <ele>0</ele>
        <time>2010-01-02T11:59:10Z</time>
      </trkpt>
      <trkpt lat="53.93947659060359" lon="10.268380735069513">
        <ele>0</ele>
        <time>2010-01-02T11:59:16Z</time>
      </trkpt>
      <trkpt lat="53.939349604770541" lon="10.269254799932241">
        <ele>0</ele>
        <time>2010-01-02T11:59:37Z</time>
      </trkpt>
      <trkpt lat="53.939312808215618" lon="10.269508771598339">
        <ele>0</ele>
        <time>2010-01-02T11:59:43Z</time>
      </trkpt>
      <trkpt lat="53.939224043861032" lon="10.270089386031032">
        <ele>0</ele>
        <time>2010-01-02T11:59:57Z</time>
      </trkpt>
      <trkpt lat="53.939207531511784" lon="10.270204553380609">
        <ele>0</ele>
        <time>2010-01-02T12:00:00Z</time>
      </trkpt>
      <trkpt lat="53.939142404124141" lon="10.270670084282756">
        <ele>0</ele>
        <time>2010-01-02T12:00:11Z</time>
      </trkpt>
      <trkpt lat="53.939079539850354" lon="10.271098734810948">
        <ele>0</ele>
        <time>2010-01-02T12:00:22Z</time>
      </trkpt>
      <trkpt lat="53.939053053036332" lon="10.271359998732805">
        <ele>0</ele>
        <time>2010-01-02T12:00:28Z</time>
      </trkpt>
      <trkpt lat="53.939020531252027" lon="10.27164557017386">
        <ele>0</ele>
        <time>2010-01-02T12:00:35Z</time>
      </trkpt>
      <trkpt lat="53.938999995589256" lon="10.271960645914078">
        <ele>0</ele>
        <time>2010-01-02T12:00:42Z</time>
      </trkpt>
      <trkpt lat="53.938987841829658" lon="10.272147310897708">
        <ele>0</ele>
        <time>2010-01-02T12:00:47Z</time>
      </trkpt>
      <trkpt lat="53.938981974497437" lon="10.272381668910384">
        <ele>0</ele>
        <time>2010-01-02T12:00:52Z</time>
      </trkpt>
      <trkpt lat="53.93897820264101" lon="10.272731026634574">
        <ele>0</ele>
        <time>2010-01-02T12:01:01Z</time>
      </trkpt>
      <trkpt lat="53.938978370279074" lon="10.273199155926704">
        <ele>0</ele>
        <time>2010-01-02T12:01:12Z</time>
      </trkpt>
      <trkpt lat="53.938982058316469" lon="10.273476094007492">
        <ele>0</ele>
        <time>2010-01-02T12:01:18Z</time>
      </trkpt>
      <trkpt lat="53.938981974497437" lon="10.273872222751379">
        <ele>0</ele>
        <time>2010-01-02T12:01:27Z</time>
      </trkpt>
      <trkpt lat="53.938976861536503" lon="10.274258125573397">
        <ele>0</ele>
        <time>2010-01-02T12:01:37Z</time>
      </trkpt>
      <trkpt lat="53.938970575109124" lon="10.274494830518961">
        <ele>0</ele>
        <time>2010-01-02T12:01:42Z</time>
      </trkpt>
      <trkpt lat="53.938960349187255" lon="10.274769254028797">
        <ele>0</ele>
        <time>2010-01-02T12:01:49Z</time>
      </trkpt>
      <trkpt lat="53.938937382772565" lon="10.275132525712252">
        <ele>0</ele>
        <time>2010-01-02T12:01:57Z</time>
      </trkpt>
      <trkpt lat="53.938908716663718" lon="10.275480039417744">
        <ele>0</ele>
        <time>2010-01-02T12:02:05Z</time>
      </trkpt>
      <trkpt lat="53.938879212364554" lon="10.275779943913221">
        <ele>0</ele>
        <time>2010-01-02T12:02:13Z</time>
      </trkpt>
      <trkpt lat="53.938859263435006" lon="10.275946827605367">
        <ele>0</ele>
        <time>2010-01-02T12:02:17Z</time>
      </trkpt>
      <trkpt lat="53.938793884590268" lon="10.27644538320601">
        <ele>0</ele>
        <time>2010-01-02T12:02:29Z</time>
      </trkpt>
      <trkpt lat="53.938780641183257" lon="10.276527693495154">
        <ele>0</ele>
        <time>2010-01-02T12:02:31Z</time>
      </trkpt>
      <trkpt lat="53.938761362805963" lon="10.276648728176951">
        <ele>0</ele>
        <time>2010-01-02T12:02:34Z</time>
      </trkpt>
      <trkpt lat="53.938745856285095" lon="10.276744868606329">
        <ele>0</ele>
        <time>2010-01-02T12:02:36Z</time>
      </trkpt>
      <trkpt lat="53.938729092478752" lon="10.276849558576941">
        <ele>0</ele>
        <time>2010-01-02T12:02:39Z</time>
      </trkpt>
      <trkpt lat="53.938727164641023" lon="10.276861544698477">
        <ele>0</ele>
        <time>2010-01-02T12:02:39Z</time>
      </trkpt>
      <trkpt lat="53.938706126064062" lon="10.276970509439707">
        <ele>0</ele>
        <time>2010-01-02T12:02:42Z</time>
      </trkpt>
      <trkpt lat="53.938672598451376" lon="10.277144769206643">
        <ele>0</ele>
        <time>2010-01-02T12:02:46Z</time>
      </trkpt>
      <trkpt lat="53.938592886552215" lon="10.277553219348192">
        <ele>0</ele>
        <time>2010-01-02T12:02:56Z</time>
      </trkpt>
      <trkpt lat="53.938480401411653" lon="10.278032664209604">
        <ele>0</ele>
        <time>2010-01-02T12:03:08Z</time>
      </trkpt>
      <trkpt lat="53.938315948471427" lon="10.278625348582864">
        <ele>0</ele>
        <time>2010-01-02T12:03:24Z</time>
      </trkpt>
      <trkpt lat="53.938173539936543" lon="10.279071098193526">
        <ele>0</ele>
        <time>2010-01-02T12:03:36Z</time>
      </trkpt>
      <trkpt lat="53.937999112531543" lon="10.279563702642918">
        <ele>0</ele>
        <time>2010-01-02T12:03:49Z</time>
      </trkpt>
      <trkpt lat="53.937886962667108" lon="10.279850363731384">
        <ele>0</ele>
        <time>2010-01-02T12:03:57Z</time>
      </trkpt>
      <trkpt lat="53.937846394255757" lon="10.27995421551168">
        <ele>0</ele>
        <time>2010-01-02T12:04:00Z</time>
      </trkpt>
      <trkpt lat="53.937636846676469" lon="10.280418237671256">
        <ele>0</ele>
        <time>2010-01-02T12:04:14Z</time>
      </trkpt>
      <trkpt lat="53.937482871115208" lon="10.280749909579754">
        <ele>0</ele>
        <time>2010-01-02T12:04:24Z</time>
      </trkpt>
      <trkpt lat="53.937251698225737" lon="10.281175542622805">
        <ele>0</ele>
        <time>2010-01-02T12:04:38Z</time>
      </trkpt>
      <trkpt lat="53.937037624418736" lon="10.281537054106593">
        <ele>0</ele>
        <time>2010-01-02T12:04:50Z</time>
      </trkpt>
      <trkpt lat="53.936919355764985" lon="10.281728664413095">
        <ele>0</ele>
        <time>2010-01-02T12:04:56Z</time>
      </trkpt>
      <trkpt lat="53.936718357726932" lon="10.282018845900893">
        <ele>0</ele>
        <time>2010-01-02T12:05:07Z</time>
      </trkpt>
      <trkpt lat="53.936466732993722" lon="10.282326461747289">
        <ele>0</ele>
        <time>2010-01-02T12:05:19Z</time>
      </trkpt>
      <trkpt lat="53.936318540945649" lon="10.282483035698533">
        <ele>0</ele>
        <time>2010-01-02T12:05:26Z</time>
      </trkpt>
      <trkpt lat="53.936303956434131" lon="10.282502397894859">
        <ele>0</ele>
        <time>2010-01-02T12:05:27Z</time>
      </trkpt>
      <trkpt lat="53.936058785766363" lon="10.282743042334914">
        <ele>0</ele>
        <time>2010-01-02T12:05:38Z</time>
      </trkpt>
      <trkpt lat="53.935837168246508" lon="10.282969186082482">
        <ele>0</ele>
        <time>2010-01-02T12:05:49Z</time>
      </trkpt>
      <trkpt lat="53.935809675604105" lon="10.2829959243536">
        <ele>0</ele>
        <time>2010-01-02T11:18:25Z</time>
      </trkpt>
      <trkpt lat="53.935879580676556" lon="10.283201951533556">
        <ele>0</ele>
        <time>2010-01-02T11:18:30Z</time>
      </trkpt>
      <trkpt lat="53.936760099604726" lon="10.285804029554129">
        <ele>0</ele>
        <time>2010-01-02T11:19:41Z</time>
      </trkpt>
      <trkpt lat="53.936795387417078" lon="10.285913832485676">
        <ele>0</ele>
        <time>2010-01-02T11:19:44Z</time>
      </trkpt>
      <trkpt lat="53.936768313869834" lon="10.285938894376159">
        <ele>0</ele>
        <time>2010-01-02T11:19:44Z</time>
      </trkpt>
      <trkpt lat="53.93659757450223" lon="10.286502996459603">
        <ele>0</ele>
        <time>2010-01-02T11:19:59Z</time>
      </trkpt>
      <trkpt lat="53.936479138210416" lon="10.286889653652906">
        <ele>0</ele>
        <time>2010-01-02T11:20:09Z</time>
      </trkpt>
      <trkpt lat="53.936411831527948" lon="10.287116384133697">
        <ele>0</ele>
        <time>2010-01-02T11:20:15Z</time>
      </trkpt>
      <trkpt lat="53.936335891485214" lon="10.287322830408812">
        <ele>0</ele>
        <time>2010-01-02T11:20:21Z</time>
      </trkpt>
      <trkpt lat="53.936277721077204" lon="10.28747177682817">
        <ele>0</ele>
        <time>2010-01-02T11:20:25Z</time>
      </trkpt>
      <trkpt lat="53.936169510707259" lon="10.287672523409128">
        <ele>0</ele>
        <time>2010-01-02T11:20:32Z</time>
      </trkpt>
      <trkpt lat="53.93608552403748" lon="10.287797832861543">
        <ele>0</ele>
        <time>2010-01-02T11:20:36Z</time>
      </trkpt>
      <trkpt lat="53.936050655320287" lon="10.287868911400437">
        <ele>0</ele>
        <time>2010-01-02T11:20:38Z</time>
      </trkpt>
      <trkpt lat="53.935989802703261" lon="10.288053145632148">
        <ele>0</ele>
        <time>2010-01-02T11:20:43Z</time>
      </trkpt>
      <trkpt lat="53.935956861823797" lon="10.288173761218786">
        <ele>0</ele>
        <time>2010-01-02T11:20:46Z</time>
      </trkpt>
      <trkpt lat="53.935925932601094" lon="10.288319773972034">
        <ele>0</ele>
        <time>2010-01-02T11:20:50Z</time>
      </trkpt>
      <trkpt lat="53.935897266492248" lon="10.288440305739641">
        <ele>0</ele>
        <time>2010-01-02T11:20:53Z</time>
      </trkpt>
      <trkpt lat="53.935802634805441" lon="10.289115132763982">
        <ele>0</ele>
        <time>2010-01-02T11:21:09Z</time>
      </trkpt>
      <trkpt lat="53.935786206275225" lon="10.289222253486514">
        <ele>0</ele>
        <time>2010-01-02T11:21:12Z</time>
      </trkpt>
      <trkpt lat="53.93577036447823" lon="10.289336163550615">
        <ele>0</ele>
        <time>2010-01-02T11:21:15Z</time>
      </trkpt>
      <trkpt lat="53.935769442468882" lon="10.289429118856788">
        <ele>0</ele>
        <time>2010-01-02T11:21:17Z</time>
      </trkpt>
      <trkpt lat="53.935778997838497" lon="10.289507070556283">
        <ele>0</ele>
        <time>2010-01-02T11:21:19Z</time>
      </trkpt>
      <trkpt lat="53.93581185489893" lon="10.289642857387662">
        <ele>0</ele>
        <time>2010-01-02T11:21:22Z</time>
      </trkpt>
      <trkpt lat="53.935838928446174" lon="10.289774034172297">
        <ele>0</ele>
        <time>2010-01-02T11:21:26Z</time>
      </trkpt>
      <trkpt lat="53.93585636280477" lon="10.289886519312859">
        <ele>0</ele>
        <time>2010-01-02T11:21:28Z</time>
      </trkpt>
      <trkpt lat="53.935861056670547" lon="10.290002524852753">
        <ele>0</ele>
        <time>2010-01-02T11:21:31Z</time>
      </trkpt>
      <trkpt lat="53.935850830748677" lon="10.290130265057087">
        <ele>0</ele>
        <time>2010-01-02T11:21:34Z</time>
      </trkpt>
      <trkpt lat="53.935809759423137" lon="10.290351631119847">
        <ele>0</ele>
        <time>2010-01-02T11:21:40Z</time>
      </trkpt>
      <trkpt lat="53.93574982881546" lon="10.290661677718163">
        <ele>0</ele>
        <time>2010-01-02T11:21:47Z</time>
      </trkpt>
      <trkpt lat="53.935703057795763" lon="10.291039953008294">
        <ele>0</ele>
        <time>2010-01-02T11:21:56Z</time>
      </trkpt>
      <trkpt lat="53.935640025883913" lon="10.291442954912782">
        <ele>0</ele>
        <time>2010-01-02T11:22:06Z</time>
      </trkpt>
      <trkpt lat="53.935596356168389" lon="10.291699189692736">
        <ele>0</ele>
        <time>2010-01-02T11:22:12Z</time>
      </trkpt>
      <trkpt lat="53.935546902939677" lon="10.291895158588886">
        <ele>0</ele>
        <time>2010-01-02T11:22:17Z</time>
      </trkpt>
      <trkpt lat="53.935487978160381" lon="10.292067406699061">
        <ele>0</ele>
        <time>2010-01-02T11:22:22Z</time>
      </trkpt>
      <trkpt lat="53.935463251546025" lon="10.292022479698062">
        <ele>0</ele>
        <time>2010-01-02T11:22:24Z</time>
      </trkpt>
      <trkpt lat="53.934557670727372" lon="10.290340818464756">
        <ele>0</ele>
        <time>2010-01-02T11:23:17Z</time>
      </trkpt>
      <trkpt lat="53.93415785394609" lon="10.291181188076735">
        <ele>0</ele>
        <time>2010-01-02T11:23:43Z</time>
      </trkpt>
      <trkpt lat="53.93400589004159" lon="10.291520655155182">
        <ele>0</ele>
        <time>2010-01-02T11:23:53Z</time>
      </trkpt>
      <trkpt lat="53.933921149000525" lon="10.29171746224165">
        <ele>0</ele>
        <time>2010-01-02T11:23:59Z</time>
      </trkpt>
      <trkpt lat="53.933827774599195" lon="10.291956681758165">
        <ele>0</ele>
        <time>2010-01-02T11:24:05Z</time>
      </trkpt>
      <trkpt lat="53.933748817071319" lon="10.292200930416584">
        <ele>0</ele>
        <time>2010-01-02T11:24:12Z</time>
      </trkpt>
      <trkpt lat="53.933676732704043" lon="10.292466720566154">
        <ele>0</ele>
        <time>2010-01-02T11:24:19Z</time>
      </trkpt>
      <trkpt lat="53.933615377172828" lon="10.292744999751449">
        <ele>0</ele>
        <time>2010-01-02T11:24:26Z</time>
      </trkpt>
      <trkpt lat="53.93353977240622" lon="10.293085221201181">
        <ele>0</ele>
        <time>2010-01-02T11:24:34Z</time>
      </trkpt>
      <trkpt lat="53.933461736887693" lon="10.293408678844571">
        <ele>0</ele>
        <time>2010-01-02T11:24:43Z</time>
      </trkpt>
      <trkpt lat="53.933390993624926" lon="10.293718641623855">
        <ele>0</ele>
        <time>2010-01-02T11:24:50Z</time>
      </trkpt>
      <trkpt lat="53.93332771025598" lon="10.294010499492288">
        <ele>0</ele>
        <time>2010-01-02T11:24:58Z</time>
      </trkpt>
      <trkpt lat="53.933305917307734" lon="10.294110327959061">
        <ele>0</ele>
        <time>2010-01-02T11:25:00Z</time>
      </trkpt>
      <trkpt lat="53.933230647817254" lon="10.294429259374738">
        <ele>0</ele>
        <time>2010-01-02T11:25:08Z</time>
      </trkpt>
      <trkpt lat="53.933173315599561" lon="10.294663533568382">
        <ele>0</ele>
        <time>2010-01-02T11:25:14Z</time>
      </trkpt>
      <trkpt lat="53.933091005310416" lon="10.295046167448163">
        <ele>0</ele>
        <time>2010-01-02T11:25:24Z</time>
      </trkpt>
      <trkpt lat="53.93301447853446" lon="10.295387981459498">
        <ele>0</ele>
        <time>2010-01-02T11:25:33Z</time>
      </trkpt>
      <trkpt lat="53.932974496856332" lon="10.295682102441788">
        <ele>0</ele>
        <time>2010-01-02T11:25:40Z</time>
      </trkpt>
      <trkpt lat="53.932927222922444" lon="10.296068927273154">
        <ele>0</ele>
        <time>2010-01-02T11:25:49Z</time>
      </trkpt>
      <trkpt lat="53.932890677824616" lon="10.296369250863791">
        <ele>0</ele>
        <time>2010-01-02T11:25:56Z</time>
      </trkpt>
      <trkpt lat="53.932861508801579" lon="10.296662198379636">
        <ele>0</ele>
        <time>2010-01-02T11:26:03Z</time>
      </trkpt>
      <trkpt lat="53.932840218767524" lon="10.296970652416348">
        <ele>0</ele>
        <time>2010-01-02T11:26:11Z</time>
      </trkpt>
      <trkpt lat="53.932811049744487" lon="10.297339707612991">
        <ele>0</ele>
        <time>2010-01-02T11:26:19Z</time>
      </trkpt>
      <trkpt lat="53.932788083329797" lon="10.297644138336182">
        <ele>0</ele>
        <time>2010-01-02T11:26:27Z</time>
      </trkpt>
      <trkpt lat="53.932778527960181" lon="10.29776961542666">
        <ele>0</ele>
        <time>2010-01-02T11:26:30Z</time>
      </trkpt>
      <trkpt lat="53.932765536010265" lon="10.298306727781892">
        <ele>0</ele>
        <time>2010-01-02T11:26:42Z</time>
      </trkpt>
      <trkpt lat="53.932743240147829" lon="10.298872422426939">
        <ele>0</ele>
        <time>2010-01-02T11:26:56Z</time>
      </trkpt>
      <trkpt lat="53.932714406400919" lon="10.299625201150775">
        <ele>0</ele>
        <time>2010-01-02T11:27:13Z</time>
      </trkpt>
      <trkpt lat="53.932710383087397" lon="10.300413770601153">
        <ele>0</ele>
        <time>2010-01-02T11:27:32Z</time>
      </trkpt>
      <trkpt lat="53.932710299268365" lon="10.300922384485602">
        <ele>0</ele>
        <time>2010-01-02T11:27:44Z</time>
      </trkpt>
      <trkpt lat="53.932715998962522" lon="10.301219020038843">
        <ele>0</ele>
        <time>2010-01-02T11:27:51Z</time>
      </trkpt>
      <trkpt lat="53.932719519361854" lon="10.301396213471889">
        <ele>0</ele>
        <time>2010-01-02T11:27:55Z</time>
      </trkpt>
      <trkpt lat="53.932738713920116" lon="10.301780523732305">
        <ele>0</ele>
        <time>2010-01-02T11:28:04Z</time>
      </trkpt>
      <trkpt lat="53.932760171592236" lon="10.302119152620435">
        <ele>0</ele>
        <time>2010-01-02T11:28:12Z</time>
      </trkpt>
      <trkpt lat="53.932795627042651" lon="10.302409585565329">
        <ele>0</ele>
        <time>2010-01-02T11:28:19Z</time>
      </trkpt>
      <trkpt lat="53.932841643691063" lon="10.302643943578005">
        <ele>0</ele>
        <time>2010-01-02T11:28:25Z</time>
      </trkpt>
      <trkpt lat="53.932920014485717" lon="10.302955498918891">
        <ele>0</ele>
        <time>2010-01-02T11:28:33Z</time>
      </trkpt>
      <trkpt lat="53.932995032519102" lon="10.303160352632403">
        <ele>0</ele>
        <time>2010-01-02T11:28:39Z</time>
      </trkpt>
      <trkpt lat="53.933096705004573" lon="10.303397979587317">
        <ele>0</ele>
        <time>2010-01-02T11:28:46Z</time>
      </trkpt>
      <trkpt lat="53.933145655319095" lon="10.303443660959601">
        <ele>0</ele>
        <time>2010-01-02T11:28:48Z</time>
      </trkpt>
      <trkpt lat="53.933221260085702" lon="10.303516080603004">
        <ele>0</ele>
        <time>2010-01-02T11:28:51Z</time>
      </trkpt>
      <trkpt lat="53.933487888425589" lon="10.303448271006346">
        <ele>0</ele>
        <time>2010-01-02T11:29:02Z</time>
      </trkpt>
      <trkpt lat="53.933611856773496" lon="10.303456736728549">
        <ele>0</ele>
        <time>2010-01-02T11:29:07Z</time>
      </trkpt>
      <trkpt lat="53.933725347742438" lon="10.303510464727879">
        <ele>0</ele>
        <time>2010-01-02T11:29:12Z</time>
      </trkpt>
      <trkpt lat="53.933815956115723" lon="10.303601156920195">
        <ele>0</ele>
        <time>2010-01-02T11:29:16Z</time>
      </trkpt>
      <trkpt lat="53.933912850916386" lon="10.30370207503438">
        <ele>0</ele>
        <time>2010-01-02T11:29:21Z</time>
      </trkpt>
      <trkpt lat="53.93400052562356" lon="10.303822103887796">
        <ele>0</ele>
        <time>2010-01-02T11:29:25Z</time>
      </trkpt>
      <trkpt lat="53.934098929166794" lon="10.303946994245052">
        <ele>0</ele>
        <time>2010-01-02T11:29:30Z</time>
      </trkpt>
      <trkpt lat="53.934198589995503" lon="10.30403533950448">
        <ele>0</ele>
        <time>2010-01-02T11:29:34Z</time>
      </trkpt>
      <trkpt lat="53.934319959953427" lon="10.304107675328851">
        <ele>0</ele>
        <time>2010-01-02T11:29:40Z</time>
      </trkpt>
      <trkpt lat="53.934458261355758" lon="10.304197277873755">
        <ele>0</ele>
        <time>2010-01-02T11:29:46Z</time>
      </trkpt>
      <trkpt lat="53.934596227481961" lon="10.3042380977422">
        <ele>0</ele>
        <time>2010-01-02T11:29:51Z</time>
      </trkpt>
      <trkpt lat="53.934743329882622" lon="10.304262489080429">
        <ele>0</ele>
        <time>2010-01-02T11:29:57Z</time>
      </trkpt>
      <trkpt lat="53.934858329594135" lon="10.304259387776256">
        <ele>0</ele>
        <time>2010-01-02T11:30:02Z</time>
      </trkpt>
      <trkpt lat="53.935013227164745" lon="10.304254777729511">
        <ele>0</ele>
        <time>2010-01-02T11:30:08Z</time>
      </trkpt>
      <trkpt lat="53.935361998155713" lon="10.304202139377594">
        <ele>0</ele>
        <time>2010-01-02T11:30:22Z</time>
      </trkpt>
      <trkpt lat="53.935425700619817" lon="10.304192416369915">
        <ele>0</ele>
        <time>2010-01-02T11:30:24Z</time>
      </trkpt>
      <trkpt lat="53.9354576356709" lon="10.304187135770917">
        <ele>0</ele>
        <time>2010-01-02T11:30:26Z</time>
      </trkpt>
      <trkpt lat="53.93548890016973" lon="10.304181771352887">
        <ele>0</ele>
        <time>2010-01-02T11:30:27Z</time>
      </trkpt>
      <trkpt lat="53.93554849550128" lon="10.304182274267077">
        <ele>0</ele>
        <time>2010-01-02T11:30:29Z</time>
      </trkpt>
      <trkpt lat="53.935980414971709" lon="10.304185794666409">
        <ele>0</ele>
        <time>2010-01-02T11:30:47Z</time>
      </trkpt>
      <trkpt lat="53.936269003897905" lon="10.304160732775927">
        <ele>0</ele>
        <time>2010-01-02T11:30:58Z</time>
      </trkpt>
      <trkpt lat="53.936455082148314" lon="10.30416970141232">
        <ele>0</ele>
        <time>2010-01-02T11:31:06Z</time>
      </trkpt>
      <trkpt lat="53.936568824574351" lon="10.304203731939197">
        <ele>0</ele>
        <time>2010-01-02T11:31:10Z</time>
      </trkpt>
      <trkpt lat="53.936664797365665" lon="10.304299620911479">
        <ele>0</ele>
        <time>2010-01-02T11:31:15Z</time>
      </trkpt>
      <trkpt lat="53.936729673296213" lon="10.304435659199953">
        <ele>0</ele>
        <time>2010-01-02T11:31:19Z</time>
      </trkpt>
      <trkpt lat="53.936783401295543" lon="10.304548479616642">
        <ele>0</ele>
        <time>2010-01-02T11:31:22Z</time>
      </trkpt>
      <trkpt lat="53.936879709362984" lon="10.304779903963208">
        <ele>0</ele>
        <time>2010-01-02T11:31:29Z</time>
      </trkpt>
      <trkpt lat="53.936896305531263" lon="10.304821562021971">
        <ele>0</ele>
        <time>2010-01-02T11:31:30Z</time>
      </trkpt>
      <trkpt lat="53.936907537281513" lon="10.304840421304107">
        <ele>0</ele>
        <time>2010-01-02T11:31:31Z</time>
      </trkpt>
      <trkpt lat="53.936999570578337" lon="10.304996827617288">
        <ele>0</ele>
        <time>2010-01-02T11:31:36Z</time>
      </trkpt>
      <trkpt lat="53.937126472592354" lon="10.305142421275377">
        <ele>0</ele>
        <time>2010-01-02T11:31:42Z</time>
      </trkpt>
      <trkpt lat="53.937283298000693" lon="10.305260019376874">
        <ele>0</ele>
        <time>2010-01-02T11:31:49Z</time>
      </trkpt>
      <trkpt lat="53.9374521933496" lon="10.305428160354495">
        <ele>0</ele>
        <time>2010-01-02T11:31:57Z</time>
      </trkpt>
      <trkpt lat="53.937563002109528" lon="10.305567216128111">
        <ele>0</ele>
        <time>2010-01-02T11:32:02Z</time>
      </trkpt>
      <trkpt lat="53.937576161697507" lon="10.305596552789211">
        <ele>0</ele>
        <time>2010-01-02T11:32:03Z</time>
      </trkpt>
      <trkpt lat="53.937641959637403" lon="10.305741727352142">
        <ele>0</ele>
        <time>2010-01-02T11:32:08Z</time>
      </trkpt>
      <trkpt lat="53.937695100903511" lon="10.305977929383516">
        <ele>0</ele>
        <time>2010-01-02T11:32:14Z</time>
      </trkpt>
      <trkpt lat="53.937703566625714" lon="10.306355869397521">
        <ele>0</ele>
        <time>2010-01-02T11:32:22Z</time>
      </trkpt>
      <trkpt lat="53.937708679586649" lon="10.306634651497006">
        <ele>0</ele>
        <time>2010-01-02T11:32:29Z</time>
      </trkpt>
      <trkpt lat="53.937749834731221" lon="10.306894825771451">
        <ele>0</ele>
        <time>2010-01-02T11:32:35Z</time>
      </trkpt>
      <trkpt lat="53.937807334586978" lon="10.307061122730374">
        <ele>0</ele>
        <time>2010-01-02T11:32:40Z</time>
      </trkpt>
      <trkpt lat="53.937863996252418" lon="10.307137481868267">
        <ele>0</ele>
        <time>2010-01-02T11:32:43Z</time>
      </trkpt>
      <trkpt lat="53.937901211902499" lon="10.307188862934709">
        <ele>0</ele>
        <time>2010-01-02T11:32:45Z</time>
      </trkpt>
      <trkpt lat="53.938000285997987" lon="10.307243764400482">
        <ele>0</ele>
        <time>2010-01-02T11:32:49Z</time>
      </trkpt>
      <trkpt lat="53.938117800280452" lon="10.30726270750165">
        <ele>0</ele>
        <time>2010-01-02T11:32:54Z</time>
      </trkpt>
      <trkpt lat="53.938269764184952" lon="10.307253738865256">
        <ele>0</ele>
        <time>2010-01-02T11:33:00Z</time>
      </trkpt>
      <trkpt lat="53.938443353399634" lon="10.30723630450666">
        <ele>0</ele>
        <time>2010-01-02T11:33:07Z</time>
      </trkpt>
      <trkpt lat="53.939997274428606" lon="10.306872194632888">
        <ele>0</ele>
        <time>2010-01-02T11:34:09Z</time>
      </trkpt>
      <trkpt lat="53.940195925533772" lon="10.304884929209948">
        <ele>0</ele>
        <time>2010-01-02T11:34:57Z</time>
      </trkpt>
      <trkpt lat="53.940301705151796" lon="10.303831407800317">
        <ele>0</ele>
        <time>2010-01-02T11:35:22Z</time>
      </trkpt>
      <trkpt lat="53.940857676789165" lon="10.298879463225603">
        <ele>0</ele>
        <time>2010-01-02T11:37:21Z</time>
      </trkpt>
      <trkpt lat="53.940665563568473" lon="10.298692211508751">
        <ele>0</ele>
        <time>2010-01-02T11:37:30Z</time>
      </trkpt>
      <trkpt lat="53.94056674093008" lon="10.298609985038638">
        <ele>0</ele>
        <time>2010-01-02T11:37:34Z</time>
      </trkpt>
      <trkpt lat="53.940411591902375" lon="10.298500098288059">
        <ele>0</ele>
        <time>2010-01-02T11:37:41Z</time>
      </trkpt>
      <trkpt lat="53.940467583015561" lon="10.297858798876405">
        <ele>0</ele>
        <time>2010-01-02T11:37:56Z</time>
      </trkpt>
      <trkpt lat="53.94046800211072" lon="10.297854607924819">
        <ele>0</ele>
        <time>2010-01-02T11:49:55Z</time>
      </trkpt>
      <trkpt lat="53.94179561175406" lon="10.29853337444365">
        <ele>0</ele>
        <time>2010-01-02T11:50:50Z</time>
      </trkpt>
      <trkpt lat="53.942136252298951" lon="10.298707466572523">
        <ele>0</ele>
        <time>2010-01-02T11:51:04Z</time>
      </trkpt>
      <trkpt lat="53.943226486444473" lon="10.299263773486018">
        <ele>0</ele>
        <time>2010-01-02T11:51:50Z</time>
      </trkpt>
      <trkpt lat="53.943762928247452" lon="10.299588069319725">
        <ele>0</ele>
        <time>2010-01-02T11:52:13Z</time>
      </trkpt>
      <trkpt lat="53.944586114957929" lon="10.300239678472281">
        <ele>0</ele>
        <time>2010-01-02T11:52:49Z</time>
      </trkpt>
      <trkpt lat="53.945193970575929" lon="10.300697246566415">
        <ele>0</ele>
        <time>2010-01-02T11:53:16Z</time>
      </trkpt>
      <trkpt lat="53.945470405742526" lon="10.300891622900963">
        <ele>0</ele>
        <time>2010-01-02T11:53:28Z</time>
      </trkpt>
      <trkpt lat="53.945944737643003" lon="10.301227821037173">
        <ele>0</ele>
        <time>2010-01-02T11:53:48Z</time>
      </trkpt>
      <trkpt lat="53.946245480328798" lon="10.301454970613122">
        <ele>0</ele>
        <time>2010-01-02T11:54:01Z</time>
      </trkpt>
      <trkpt lat="53.946519568562508" lon="10.301661500707269">
        <ele>0</ele>
        <time>2010-01-02T11:54:13Z</time>
      </trkpt>
      <trkpt lat="53.947006808593869" lon="10.30205293558538">
        <ele>0</ele>
        <time>2010-01-02T11:54:35Z</time>
      </trkpt>
      <trkpt lat="53.947129854932427" lon="10.301895271986723">
        <ele>0</ele>
        <time>2010-01-02T11:54:41Z</time>
      </trkpt>
      <trkpt lat="53.947204705327749" lon="10.301787983626127">
        <ele>0</ele>
        <time>2010-01-02T11:54:45Z</time>
      </trkpt>
      <trkpt lat="53.94721208140254" lon="10.301771471276879">
        <ele>0</ele>
        <time>2010-01-02T11:54:45Z</time>
      </trkpt>
      <trkpt lat="53.947218619287014" lon="10.301756719127297">
        <ele>0</ele>
        <time>2010-01-02T11:54:46Z</time>
      </trkpt>
      <trkpt lat="53.947218619287014" lon="10.301756719127297">
        <ele>0</ele>
        <time>2010-01-02T12:47:39Z</time>
      </trkpt>
      <trkpt lat="53.94760443829" lon="10.302072046324611">
        <ele>0</ele>
        <time>2010-01-02T12:47:56Z</time>
      </trkpt>
      <trkpt lat="53.94760443829" lon="10.302072046324611">
        <ele>0</ele>
        <time>2010-01-02T12:47:56Z</time>
      </trkpt>
      <trkpt lat="53.948189243674278" lon="10.302551155909896">
        <ele>0</ele>
        <time>2010-01-02T12:48:22Z</time>
      </trkpt>
      <trkpt lat="53.948564752936363" lon="10.302892047911882">
        <ele>0</ele>
        <time>2010-01-02T12:48:39Z</time>
      </trkpt>
      <trkpt lat="53.94896381534636" lon="10.303291361778975">
        <ele>0</ele>
        <time>2010-01-02T12:48:57Z</time>
      </trkpt>
      <trkpt lat="53.949239244684577" lon="10.303578693419695">
        <ele>0</ele>
        <time>2010-01-02T12:49:10Z</time>
      </trkpt>
      <trkpt lat="53.949526827782393" lon="10.303817661479115">
        <ele>0</ele>
        <time>2010-01-02T12:49:23Z</time>
      </trkpt>
      <trkpt lat="53.949830839410424" lon="10.304035842418671">
        <ele>0</ele>
        <time>2010-01-02T12:49:36Z</time>
      </trkpt>
      <trkpt lat="53.949842490255833" lon="10.304043805226684">
        <ele>0</ele>
        <time>2010-01-02T12:49:37Z</time>
      </trkpt>
      <trkpt lat="53.950146250426769" lon="10.304202558472753">
        <ele>0</ele>
        <time>2010-01-02T12:49:50Z</time>
      </trkpt>
      <trkpt lat="53.950448669493198" lon="10.304320240393281">
        <ele>0</ele>
        <time>2010-01-02T12:50:02Z</time>
      </trkpt>
      <trkpt lat="53.950603064149618" lon="10.304332645609975">
        <ele>0</ele>
        <time>2010-01-02T12:50:08Z</time>
      </trkpt>
      <trkpt lat="53.950973711907864" lon="10.304371621459723">
        <ele>0</ele>
        <time>2010-01-02T12:50:23Z</time>
      </trkpt>
      <trkpt lat="53.95127110183239" lon="10.304377824068069">
        <ele>0</ele>
        <time>2010-01-02T12:50:35Z</time>
      </trkpt>
      <trkpt lat="53.951632445678115" lon="10.304282521829009">
        <ele>0</ele>
        <time>2010-01-02T12:50:50Z</time>
      </trkpt>
      <trkpt lat="53.951948191970587" lon="10.304159810766578">
        <ele>0</ele>
        <time>2010-01-02T12:51:03Z</time>
      </trkpt>
      <trkpt lat="53.952480610460043" lon="10.303870299831033">
        <ele>0</ele>
        <time>2010-01-02T12:51:25Z</time>
      </trkpt>
      <trkpt lat="53.952880594879389" lon="10.303692352026701">
        <ele>0</ele>
        <time>2010-01-02T12:51:41Z</time>
      </trkpt>
      <trkpt lat="53.953098021447659" lon="10.303612304851413">
        <ele>0</ele>
        <time>2010-01-02T12:51:50Z</time>
      </trkpt>
      <trkpt lat="53.953506723046303" lon="10.303539717569947">
        <ele>0</ele>
        <time>2010-01-02T12:52:07Z</time>
      </trkpt>
      <trkpt lat="53.953851219266653" lon="10.303582465276122">
        <ele>0</ele>
        <time>2010-01-02T12:52:21Z</time>
      </trkpt>
      <trkpt lat="53.954321527853608" lon="10.303712971508503">
        <ele>0</ele>
        <time>2010-01-02T12:52:40Z</time>
      </trkpt>
      <trkpt lat="53.954723943024874" lon="10.303888488560915">
        <ele>0</ele>
        <time>2010-01-02T12:52:56Z</time>
      </trkpt>
      <trkpt lat="53.95477750338614" lon="10.303923692554235">
        <ele>0</ele>
        <time>2010-01-02T12:52:59Z</time>
      </trkpt>
      <trkpt lat="53.954949667677283" lon="10.304040284827352">
        <ele>0</ele>
        <time>2010-01-02T12:53:06Z</time>
      </trkpt>
      <trkpt lat="53.955541178584099" lon="10.304594999179244">
        <ele>0</ele>
        <time>2010-01-02T12:53:33Z</time>
      </trkpt>
      <trkpt lat="53.955821888521314" lon="10.304885599762201">
        <ele>0</ele>
        <time>2010-01-02T12:53:46Z</time>
      </trkpt>
      <trkpt lat="53.956362102180719" lon="10.305444840341806">
        <ele>0</ele>
        <time>2010-01-02T12:54:12Z</time>
      </trkpt>
      <trkpt lat="53.95642270334065" lon="10.305244093760848">
        <ele>0</ele>
        <time>2010-01-02T12:54:17Z</time>
      </trkpt>
      <trkpt lat="53.956704083830118" lon="10.305559169501066">
        <ele>0</ele>
        <time>2010-01-02T12:54:30Z</time>
      </trkpt>
      <trkpt lat="53.956888988614082" lon="10.305743152275681">
        <ele>0</ele>
        <time>2010-01-02T12:54:39Z</time>
      </trkpt>
      <trkpt lat="53.95701345987618" lon="10.305865863338113">
        <ele>0</ele>
        <time>2010-01-02T12:54:45Z</time>
      </trkpt>
      <trkpt lat="53.957050004974008" lon="10.305894445627928">
        <ele>0</ele>
        <time>2010-01-02T12:54:46Z</time>
      </trkpt>
      <trkpt lat="53.957403721287847" lon="10.30617062933743">
        <ele>0</ele>
        <time>2010-01-02T12:55:02Z</time>
      </trkpt>
      <trkpt lat="53.957714857533574" lon="10.306395180523396">
        <ele>0</ele>
        <time>2010-01-02T12:55:15Z</time>
      </trkpt>
      <trkpt lat="53.957948628813028" lon="10.306539600715041">
        <ele>0</ele>
        <time>2010-01-02T12:55:25Z</time>
      </trkpt>
      <trkpt lat="53.957991963252425" lon="10.306783514097333">
        <ele>0</ele>
        <time>2010-01-02T12:55:31Z</time>
      </trkpt>
      <trkpt lat="53.958770139142871" lon="10.307146534323692">
        <ele>0</ele>
        <time>2010-01-02T12:56:04Z</time>
      </trkpt>
      <trkpt lat="53.959763310849667" lon="10.307629080489278">
        <ele>0</ele>
        <time>2010-01-02T12:56:45Z</time>
      </trkpt>
      <trkpt lat="53.96095035597682" lon="10.308653935790062">
        <ele>0</ele>
        <time>2010-01-02T12:57:38Z</time>
      </trkpt>
      <trkpt lat="53.964709974825382" lon="10.311819780617952">
        <ele>0</ele>
        <time>2010-01-02T13:00:26Z</time>
      </trkpt>
      <trkpt lat="53.966474533081055" lon="10.313286362215877">
        <ele>0</ele>
        <time>2010-01-02T13:01:45Z</time>
      </trkpt>
      <trkpt lat="53.968305056914687" lon="10.314811617136002">
        <ele>0</ele>
        <time>2010-01-02T13:03:07Z</time>
      </trkpt>
      <trkpt lat="53.969260929152369" lon="10.315660201013088">
        <ele>0</ele>
        <time>2010-01-02T13:03:50Z</time>
      </trkpt>
      <trkpt lat="53.969358578324318" lon="10.315860863775015">
        <ele>0</ele>
        <time>2010-01-02T13:03:56Z</time>
      </trkpt>
      <trkpt lat="53.969537867233157" lon="10.316205276176333">
        <ele>0</ele>
        <time>2010-01-02T13:04:07Z</time>
      </trkpt>
      <trkpt lat="53.970066178590059" lon="10.316588832065463">
        <ele>0</ele>
        <time>2010-01-02T13:04:30Z</time>
      </trkpt>
      <trkpt lat="53.970348397269845" lon="10.316654210910201">
        <ele>0</ele>
        <time>2010-01-02T13:04:41Z</time>
      </trkpt>
      <trkpt lat="53.970494661480188" lon="10.316969286650419">
        <ele>0</ele>
        <time>2010-01-02T13:04:51Z</time>
      </trkpt>
      <trkpt lat="53.971451204270124" lon="10.317761544138193">
        <ele>0</ele>
        <time>2010-01-02T13:05:33Z</time>
      </trkpt>
      <trkpt lat="53.971668379381299" lon="10.317683760076761">
        <ele>0</ele>
        <time>2010-01-02T13:05:42Z</time>
      </trkpt>
      <trkpt lat="53.971768459305167" lon="10.317658698186278">
        <ele>0</ele>
        <time>2010-01-02T13:05:46Z</time>
      </trkpt>
      <trkpt lat="53.972313450649381" lon="10.31804284080863">
        <ele>0</ele>
        <time>2010-01-02T13:06:10Z</time>
      </trkpt>
      <trkpt lat="53.972314121201634" lon="10.316462181508541">
        <ele>0</ele>
        <time>2010-01-02T13:06:47Z</time>
      </trkpt>
      <trkpt lat="53.972486117854714" lon="10.314435185864568">
        <ele>0</ele>
        <time>2010-01-02T13:07:35Z</time>
      </trkpt>
      <trkpt lat="53.97249324247241" lon="10.313786258921027">
        <ele>0</ele>
        <time>2010-01-02T13:07:50Z</time>
      </trkpt>
      <trkpt lat="53.972417721524835" lon="10.313078155741096">
        <ele>0</ele>
        <time>2010-01-02T13:08:07Z</time>
      </trkpt>
      <trkpt lat="53.972227368503809" lon="10.312225380912423">
        <ele>0</ele>
        <time>2010-01-02T13:08:29Z</time>
      </trkpt>
      <trkpt lat="53.972382685169578" lon="10.311722131446004">
        <ele>0</ele>
        <time>2010-01-02T13:08:42Z</time>
      </trkpt>
      <trkpt lat="53.97249324247241" lon="10.310737676918507">
        <ele>0</ele>
        <time>2010-01-02T13:09:06Z</time>
      </trkpt>
      <trkpt lat="53.972497601062059" lon="10.310342637822032">
        <ele>0</ele>
        <time>2010-01-02T13:09:15Z</time>
      </trkpt>
      <trkpt lat="53.972585694864392" lon="10.309893786907196">
        <ele>0</ele>
        <time>2010-01-02T13:09:26Z</time>
      </trkpt>
      <trkpt lat="53.972596088424325" lon="10.308934394270182">
        <ele>0</ele>
        <time>2010-01-02T13:09:49Z</time>
      </trkpt>
      <trkpt lat="53.972507072612643" lon="10.307943653315306">
        <ele>0</ele>
        <time>2010-01-02T13:10:12Z</time>
      </trkpt>
      <trkpt lat="53.97224547341466" lon="10.305987820029259">
        <ele>0</ele>
        <time>2010-01-02T13:11:00Z</time>
      </trkpt>
      <trkpt lat="53.971967780962586" lon="10.303974989801645">
        <ele>0</ele>
        <time>2010-01-02T13:11:48Z</time>
      </trkpt>
      <trkpt lat="53.971896702423692" lon="10.301319435238838">
        <ele>0</ele>
        <time>2010-01-02T13:12:51Z</time>
      </trkpt>
      <trkpt lat="53.971879351884127" lon="10.299851093441248">
        <ele>0</ele>
        <time>2010-01-02T13:13:26Z</time>
      </trkpt>
      <trkpt lat="53.972277659922838" lon="10.296871494501829">
        <ele>0</ele>
        <time>2010-01-02T13:14:37Z</time>
      </trkpt>
      <trkpt lat="53.972603883594275" lon="10.294397659599781">
        <ele>0</ele>
        <time>2010-01-02T13:15:37Z</time>
      </trkpt>
      <trkpt lat="53.97281720302999" lon="10.29313400387764">
        <ele>0</ele>
        <time>2010-01-02T13:16:08Z</time>
      </trkpt>
      <trkpt lat="53.973347190767527" lon="10.291823744773865">
        <ele>0</ele>
        <time>2010-01-02T13:16:46Z</time>
      </trkpt>
      <trkpt lat="53.974176747724414" lon="10.290132947266102">
        <ele>0</ele>
        <time>2010-01-02T13:17:37Z</time>
      </trkpt>
      <trkpt lat="53.974374141544104" lon="10.289768502116203">
        <ele>0</ele>
        <time>2010-01-02T13:17:49Z</time>
      </trkpt>
      <trkpt lat="53.974649738520384" lon="10.289290817454457">
        <ele>0</ele>
        <time>2010-01-02T13:18:05Z</time>
      </trkpt>
      <trkpt lat="53.975094649940729" lon="10.288587156683207">
        <ele>0</ele>
        <time>2010-01-02T13:18:29Z</time>
      </trkpt>
      <trkpt lat="53.975173607468605" lon="10.288466541096568">
        <ele>0</ele>
        <time>2010-01-02T13:18:33Z</time>
      </trkpt>
      <trkpt lat="53.975234795361757" lon="10.288374591618776">
        <ele>0</ele>
        <time>2010-01-02T13:18:37Z</time>
      </trkpt>
      <trkpt lat="53.975334959104657" lon="10.28822673484683">
        <ele>0</ele>
        <time>2010-01-02T13:18:42Z</time>
      </trkpt>
      <trkpt lat="53.975449958816171" lon="10.288061108440161">
        <ele>0</ele>
        <time>2010-01-02T13:18:48Z</time>
      </trkpt>
      <trkpt lat="53.975537801161408" lon="10.287914508953691">
        <ele>0</ele>
        <time>2010-01-02T13:18:53Z</time>
      </trkpt>
      <trkpt lat="53.97560334764421" lon="10.287748798727989">
        <ele>0</ele>
        <time>2010-01-02T13:18:58Z</time>
      </trkpt>
      <trkpt lat="53.975622961297631" lon="10.287680821493268">
        <ele>0</ele>
        <time>2010-01-02T13:18:59Z</time>
      </trkpt>
      <trkpt lat="53.975696722045541" lon="10.287427101284266">
        <ele>0</ele>
        <time>2010-01-02T13:19:06Z</time>
      </trkpt>
      <trkpt lat="53.975845417007804" lon="10.286879930645227">
        <ele>0</ele>
        <time>2010-01-02T13:19:20Z</time>
      </trkpt>
      <trkpt lat="53.975954633206129" lon="10.286508444696665">
        <ele>0</ele>
        <time>2010-01-02T13:19:30Z</time>
      </trkpt>
      <trkpt lat="53.976029232144356" lon="10.286327730864286">
        <ele>0</ele>
        <time>2010-01-02T13:19:35Z</time>
      </trkpt>
      <trkpt lat="53.976134173572063" lon="10.286096222698689">
        <ele>0</ele>
        <time>2010-01-02T13:19:42Z</time>
      </trkpt>
      <trkpt lat="53.976234085857868" lon="10.285918861627579">
        <ele>0</ele>
        <time>2010-01-02T13:19:48Z</time>
      </trkpt>
      <trkpt lat="53.97632259875536" lon="10.285805873572826">
        <ele>0</ele>
        <time>2010-01-02T13:19:52Z</time>
      </trkpt>
      <trkpt lat="53.976603979244828" lon="10.285519296303391">
        <ele>0</ele>
        <time>2010-01-02T13:20:05Z</time>
      </trkpt>
      <trkpt lat="53.97693338803947" lon="10.285172201693058">
        <ele>0</ele>
        <time>2010-01-02T13:20:21Z</time>
      </trkpt>
      <trkpt lat="53.977210996672511" lon="10.284879086539149">
        <ele>0</ele>
        <time>2010-01-02T13:20:34Z</time>
      </trkpt>
      <trkpt lat="53.977370085194707" lon="10.284706419333816">
        <ele>0</ele>
        <time>2010-01-02T13:20:42Z</time>
      </trkpt>
      <trkpt lat="53.977415515109897" lon="10.284658223390579">
        <ele>0</ele>
        <time>2010-01-02T13:20:44Z</time>
      </trkpt>
      <trkpt lat="53.977565132081509" lon="10.284535260871053">
        <ele>0</ele>
        <time>2010-01-02T13:20:50Z</time>
      </trkpt>
      <trkpt lat="53.977672755718231" lon="10.284468457102776">
        <ele>0</ele>
        <time>2010-01-02T13:20:55Z</time>
      </trkpt>
      <trkpt lat="53.977776439860463" lon="10.284435097128153">
        <ele>0</ele>
        <time>2010-01-02T13:20:59Z</time>
      </trkpt>
      <trkpt lat="53.978196373209357" lon="10.28440073132515">
        <ele>0</ele>
        <time>2010-01-02T13:21:16Z</time>
      </trkpt>
      <trkpt lat="53.978257644921541" lon="10.284388912841678">
        <ele>0</ele>
        <time>2010-01-02T13:21:19Z</time>
      </trkpt>
      <trkpt lat="53.978452105075121" lon="10.284350691363215">
        <ele>0</ele>
        <time>2010-01-02T13:21:26Z</time>
      </trkpt>
      <trkpt lat="53.978592082858086" lon="10.284280367195606">
        <ele>0</ele>
        <time>2010-01-02T13:21:32Z</time>
      </trkpt>
      <trkpt lat="53.978648157790303" lon="10.284251533448696">
        <ele>0</ele>
        <time>2010-01-02T13:21:35Z</time>
      </trkpt>
      <trkpt lat="53.978933645412326" lon="10.284101832658052">
        <ele>0</ele>
        <time>2010-01-02T13:21:46Z</time>
      </trkpt>
      <trkpt lat="53.979150485247374" lon="10.283992616459727">
        <ele>0</ele>
        <time>2010-01-02T13:21:56Z</time>
      </trkpt>
      <trkpt lat="53.979435050860047" lon="10.283848950639367">
        <ele>0</ele>
        <time>2010-01-02T13:22:07Z</time>
      </trkpt>
      <trkpt lat="53.979874849319458" lon="10.283635379746556">
        <ele>0</ele>
        <time>2010-01-02T13:22:26Z</time>
      </trkpt>
      <trkpt lat="53.980055060237646" lon="10.283479224890471">
        <ele>0</ele>
        <time>2010-01-02T13:22:34Z</time>
      </trkpt>
      <trkpt lat="53.980116164311767" lon="10.283426335081458">
        <ele>0</ele>
        <time>2010-01-02T13:22:37Z</time>
      </trkpt>
      <trkpt lat="53.98044322617352" lon="10.283169681206346">
        <ele>0</ele>
        <time>2010-01-02T13:22:51Z</time>
      </trkpt>
      <trkpt lat="53.980663334950805" lon="10.283002629876137">
        <ele>0</ele>
        <time>2010-01-02T13:23:01Z</time>
      </trkpt>
      <trkpt lat="53.980682361871004" lon="10.282987961545587">
        <ele>0</ele>
        <time>2010-01-02T13:23:01Z</time>
      </trkpt>
      <trkpt lat="53.980879839509726" lon="10.28283859603107">
        <ele>0</ele>
        <time>2010-01-02T13:23:10Z</time>
      </trkpt>
      <trkpt lat="53.98100858554244" lon="10.282731223851442">
        <ele>0</ele>
        <time>2010-01-02T13:23:16Z</time>
      </trkpt>
      <trkpt lat="53.98119768127799" lon="10.282563082873821">
        <ele>0</ele>
        <time>2010-01-02T13:23:24Z</time>
      </trkpt>
      <trkpt lat="53.981347046792507" lon="10.282439030706882">
        <ele>0</ele>
        <time>2010-01-02T13:23:31Z</time>
      </trkpt>
      <trkpt lat="53.981446204707026" lon="10.282342555001378">
        <ele>0</ele>
        <time>2010-01-02T13:23:36Z</time>
      </trkpt>
      <trkpt lat="53.981433548033237" lon="10.282260747626424">
        <ele>0</ele>
        <time>2010-01-02T13:23:38Z</time>
      </trkpt>
      <trkpt lat="53.981446037068963" lon="10.282206600531936">
        <ele>0</ele>
        <time>2010-01-02T13:23:39Z</time>
      </trkpt>
      <trkpt lat="53.981466656550765" lon="10.282174414023757">
        <ele>0</ele>
        <time>2010-01-02T13:23:40Z</time>
      </trkpt>
      <trkpt lat="53.98150403983891" lon="10.282147256657481">
        <ele>0</ele>
        <time>2010-01-02T13:23:42Z</time>
      </trkpt>
      <trkpt lat="53.981494400650263" lon="10.281916921958327">
        <ele>0</ele>
        <time>2010-01-02T13:23:47Z</time>
      </trkpt>
      <trkpt lat="53.981506386771798" lon="10.281560691073537">
        <ele>0</ele>
        <time>2010-01-02T13:23:56Z</time>
      </trkpt>
      <trkpt lat="53.981514098122716" lon="10.281273778527975">
        <ele>0</ele>
        <time>2010-01-02T13:24:02Z</time>
      </trkpt>
      <trkpt lat="53.981512254104018" lon="10.280845211818814">
        <ele>0</ele>
        <time>2010-01-02T13:24:12Z</time>
      </trkpt>
      <trkpt lat="53.981500267982483" lon="10.28045897372067">
        <ele>0</ele>
        <time>2010-01-02T13:24:22Z</time>
      </trkpt>
      <trkpt lat="53.981448048725724" lon="10.279348371550441">
        <ele>0</ele>
        <time>2010-01-02T13:24:48Z</time>
      </trkpt>
      <trkpt lat="53.981447545811534" lon="10.279317861422896">
        <ele>0</ele>
        <time>2010-01-02T13:24:48Z</time>
      </trkpt>
      <trkpt lat="53.981438409537077" lon="10.278989877551794">
        <ele>0</ele>
        <time>2010-01-02T13:24:56Z</time>
      </trkpt>
      <trkpt lat="53.981430279091001" lon="10.278773624449968">
        <ele>0</ele>
        <time>2010-01-02T13:25:01Z</time>
      </trkpt>
      <trkpt lat="53.981423825025558" lon="10.278586959466338">
        <ele>0</ele>
        <time>2010-01-02T13:25:06Z</time>
      </trkpt>
      <trkpt lat="53.981420053169131" lon="10.278185969218612">
        <ele>0</ele>
        <time>2010-01-02T13:25:15Z</time>
      </trkpt>
      <trkpt lat="53.981474200263619" lon="10.277146445587277">
        <ele>0</ele>
        <time>2010-01-02T13:25:40Z</time>
      </trkpt>
      <trkpt lat="53.981494819745421" lon="10.27681628242135">
        <ele>0</ele>
        <time>2010-01-02T13:25:48Z</time>
      </trkpt>
      <trkpt lat="53.981530778110027" lon="10.276561304926872">
        <ele>0</ele>
        <time>2010-01-02T13:25:54Z</time>
      </trkpt>
      <trkpt lat="53.981567742303014" lon="10.276381010189652">
        <ele>0</ele>
        <time>2010-01-02T13:25:58Z</time>
      </trkpt>
      <trkpt lat="53.981610490009189" lon="10.276245139539242">
        <ele>0</ele>
        <time>2010-01-02T13:26:02Z</time>
      </trkpt>
      <trkpt lat="53.981788186356425" lon="10.275755133479834">
        <ele>0</ele>
        <time>2010-01-02T13:26:15Z</time>
      </trkpt>
      <trkpt lat="53.981885248795152" lon="10.275498982518911">
        <ele>0</ele>
        <time>2010-01-02T13:26:23Z</time>
      </trkpt>
      <trkpt lat="53.982036290690303" lon="10.275410553440452">
        <ele>0</ele>
        <time>2010-01-02T13:26:29Z</time>
      </trkpt>
      <trkpt lat="53.982234355062246" lon="10.275285495445132">
        <ele>0</ele>
        <time>2010-01-02T13:26:37Z</time>
      </trkpt>
      <trkpt lat="53.982273247092962" lon="10.275259260088205">
        <ele>0</ele>
        <time>2010-01-02T13:26:39Z</time>
      </trkpt>
      <trkpt lat="53.982485979795456" lon="10.275116348639131">
        <ele>0</ele>
        <time>2010-01-02T13:26:48Z</time>
      </trkpt>
      <trkpt lat="53.982664011418819" lon="10.274996068328619">
        <ele>0</ele>
        <time>2010-01-02T13:26:56Z</time>
      </trkpt>
      <trkpt lat="53.982897698879242" lon="10.274796159937978">
        <ele>0</ele>
        <time>2010-01-02T13:27:06Z</time>
      </trkpt>
      <trkpt lat="53.983255857601762" lon="10.274447808042169">
        <ele>0</ele>
        <time>2010-01-02T13:27:23Z</time>
      </trkpt>
      <trkpt lat="53.983436487615108" lon="10.274279499426484">
        <ele>0</ele>
        <time>2010-01-02T13:27:31Z</time>
      </trkpt>
      <trkpt lat="53.983526257798076" lon="10.274196937680244">
        <ele>0</ele>
        <time>2010-01-02T13:27:35Z</time>
      </trkpt>
      <trkpt lat="53.983873687684536" lon="10.273890411481261">
        <ele>0</ele>
        <time>2010-01-02T13:27:51Z</time>
      </trkpt>
      <trkpt lat="53.984005283564329" lon="10.273767951875925">
        <ele>0</ele>
        <time>2010-01-02T13:27:57Z</time>
      </trkpt>
      <trkpt lat="53.984274845570326" lon="10.273510878905654">
        <ele>0</ele>
        <time>2010-01-02T13:28:09Z</time>
      </trkpt>
      <trkpt lat="53.984531667083502" lon="10.27327174320817">
        <ele>0</ele>
        <time>2010-01-02T13:28:21Z</time>
      </trkpt>
      <trkpt lat="53.984744902700186" lon="10.273069404065609">
        <ele>0</ele>
        <time>2010-01-02T13:28:31Z</time>
      </trkpt>
      <trkpt lat="53.985017230734229" lon="10.272810906171799">
        <ele>0</ele>
        <time>2010-01-02T13:28:43Z</time>
      </trkpt>
      <trkpt lat="53.985291738063097" lon="10.272563975304365">
        <ele>0</ele>
        <time>2010-01-02T13:28:56Z</time>
      </trkpt>
      <trkpt lat="53.985354686155915" lon="10.272507146000862">
        <ele>0</ele>
        <time>2010-01-02T13:28:59Z</time>
      </trkpt>
      <trkpt lat="53.98564419709146" lon="10.272238506004214">
        <ele>0</ele>
        <time>2010-01-02T13:29:12Z</time>
      </trkpt>
      <trkpt lat="53.985917363315821" lon="10.271976990625262">
        <ele>0</ele>
        <time>2010-01-02T13:29:24Z</time>
      </trkpt>
      <trkpt lat="53.986003696918488" lon="10.271889735013247">
        <ele>0</ele>
        <time>2010-01-02T13:29:28Z</time>
      </trkpt>
      <trkpt lat="53.986161779612303" lon="10.271722264587879">
        <ele>0</ele>
        <time>2010-01-02T13:29:36Z</time>
      </trkpt>
      <trkpt lat="53.986237971112132" lon="10.271622268483043">
        <ele>0</ele>
        <time>2010-01-02T13:29:40Z</time>
      </trkpt>
      <trkpt lat="53.986295722424984" lon="10.27154641225934">
        <ele>0</ele>
        <time>2010-01-02T13:29:43Z</time>
      </trkpt>
      <trkpt lat="53.986404184252024" lon="10.271403333172202">
        <ele>0</ele>
        <time>2010-01-02T13:29:48Z</time>
      </trkpt>
      <trkpt lat="53.98656134493649" lon="10.271155061200261">
        <ele>0</ele>
        <time>2010-01-02T13:29:57Z</time>
      </trkpt>
      <trkpt lat="53.986789165064692" lon="10.270767146721482">
        <ele>0</ele>
        <time>2010-01-02T13:30:10Z</time>
      </trkpt>
      <trkpt lat="53.987117148935795" lon="10.270170355215669">
        <ele>0</ele>
        <time>2010-01-02T13:30:29Z</time>
      </trkpt>
      <trkpt lat="53.987336000427604" lon="10.26977757923305">
        <ele>0</ele>
        <time>2010-01-02T13:30:41Z</time>
      </trkpt>
      <trkpt lat="53.987517803907394" lon="10.269414139911532">
        <ele>0</ele>
        <time>2010-01-02T13:30:53Z</time>
      </trkpt>
      <trkpt lat="53.987729698419571" lon="10.268999822437763">
        <ele>0</ele>
        <time>2010-01-02T13:31:06Z</time>
      </trkpt>
      <trkpt lat="53.987801698967814" lon="10.268852133303881">
        <ele>0</ele>
        <time>2010-01-02T13:31:10Z</time>
      </trkpt>
      <trkpt lat="53.987913345918059" lon="10.268622720614076">
        <ele>0</ele>
        <time>2010-01-02T13:31:17Z</time>
      </trkpt>
      <trkpt lat="53.98808098398149" lon="10.268240589648485">
        <ele>0</ele>
        <time>2010-01-02T13:31:28Z</time>
      </trkpt>
      <trkpt lat="53.988309055566788" lon="10.267736753448844">
        <ele>0</ele>
        <time>2010-01-02T13:31:43Z</time>
      </trkpt>
      <trkpt lat="53.988381391391158" lon="10.267573054879904">
        <ele>0</ele>
        <time>2010-01-02T13:31:48Z</time>
      </trkpt>
      <trkpt lat="53.988538300618529" lon="10.267217662185431">
        <ele>0</ele>
        <time>2010-01-02T13:31:59Z</time>
      </trkpt>
      <trkpt lat="53.988754553720355" lon="10.26673486456275">
        <ele>0</ele>
        <time>2010-01-02T13:32:13Z</time>
      </trkpt>
      <trkpt lat="53.988919006660581" lon="10.266379723325372">
        <ele>0</ele>
        <time>2010-01-02T13:32:24Z</time>
      </trkpt>
      <trkpt lat="53.988996203988791" lon="10.26621300727129">
        <ele>0</ele>
        <time>2010-01-02T13:32:29Z</time>
      </trkpt>
      <trkpt lat="53.989002490416169" lon="10.266199428588152">
        <ele>0</ele>
        <time>2010-01-02T13:32:29Z</time>
      </trkpt>
      <trkpt lat="53.989074490964413" lon="10.266025336459279">
        <ele>0</ele>
        <time>2010-01-02T13:32:34Z</time>
      </trkpt>
      <trkpt lat="53.989175241440535" lon="10.2657825127244">
        <ele>0</ele>
        <time>2010-01-02T13:32:41Z</time>
      </trkpt>
      <trkpt lat="53.989343969151378" lon="10.2654043212533">
        <ele>0</ele>
        <time>2010-01-02T13:32:52Z</time>
      </trkpt>
      <trkpt lat="53.989470368251204" lon="10.265105674043298">
        <ele>0</ele>
        <time>2010-01-02T13:33:01Z</time>
      </trkpt>
      <trkpt lat="53.989564329385757" lon="10.26486000046134">
        <ele>0</ele>
        <time>2010-01-02T13:33:08Z</time>
      </trkpt>
      <trkpt lat="53.989713946357369" lon="10.264456495642662">
        <ele>0</ele>
        <time>2010-01-02T13:33:19Z</time>
      </trkpt>
      <trkpt lat="53.989868760108948" lon="10.264001358300447">
        <ele>0</ele>
        <time>2010-01-02T13:33:31Z</time>
      </trkpt>
      <trkpt lat="53.990085013210773" lon="10.263444380834699">
        <ele>0</ele>
        <time>2010-01-02T13:33:47Z</time>
      </trkpt>
      <trkpt lat="53.990240078419447" lon="10.263071218505502">
        <ele>0</ele>
        <time>2010-01-02T13:33:58Z</time>
      </trkpt>
      <trkpt lat="53.990392293781042" lon="10.262690847739577">
        <ele>0</ele>
        <time>2010-01-02T13:34:09Z</time>
      </trkpt>
      <trkpt lat="53.990466725081205" lon="10.262521617114544">
        <ele>0</ele>
        <time>2010-01-02T13:34:14Z</time>
      </trkpt>
      <trkpt lat="53.990542832762003" lon="10.262348111718893">
        <ele>0</ele>
        <time>2010-01-02T13:34:19Z</time>
      </trkpt>
      <trkpt lat="53.990672919899225" lon="10.262042339891195">
        <ele>0</ele>
        <time>2010-01-02T13:34:28Z</time>
      </trkpt>
      <trkpt lat="53.990817843005061" lon="10.261720307171345">
        <ele>0</ele>
        <time>2010-01-02T13:34:37Z</time>
      </trkpt>
      <trkpt lat="53.991097714751959" lon="10.261087473481894">
        <ele>0</ele>
        <time>2010-01-02T13:34:56Z</time>
      </trkpt>
      <trkpt lat="53.99120332673192" lon="10.260889828205109">
        <ele>0</ele>
        <time>2010-01-02T13:35:02Z</time>
      </trkpt>
      <trkpt lat="53.99130298756063" lon="10.261326190084219">
        <ele>0</ele>
        <time>2010-01-02T13:35:13Z</time>
      </trkpt>
      <trkpt lat="53.991505578160286" lon="10.262145018205047">
        <ele>0</ele>
        <time>2010-01-02T13:35:34Z</time>
      </trkpt>
      <trkpt lat="53.991714874282479" lon="10.263003660365939">
        <ele>0</ele>
        <time>2010-01-02T13:35:56Z</time>
      </trkpt>
      <trkpt lat="53.991919392719865" lon="10.263804299756885">
        <ele>0</ele>
        <time>2010-01-02T13:36:16Z</time>
      </trkpt>
      <trkpt lat="53.992050318047404" lon="10.264341915026307">
        <ele>0</ele>
        <time>2010-01-02T13:36:30Z</time>
      </trkpt>
      <trkpt lat="53.992236983031034" lon="10.265038451179862">
        <ele>0</ele>
        <time>2010-01-02T13:36:48Z</time>
      </trkpt>
      <trkpt lat="53.992268918082118" lon="10.265144314616919">
        <ele>0</ele>
        <time>2010-01-02T13:36:51Z</time>
      </trkpt>
      <trkpt lat="53.992299931123853" lon="10.26521329768002">
        <ele>0</ele>
        <time>2010-01-02T13:36:53Z</time>
      </trkpt>
      <trkpt lat="53.992346450686455" lon="10.265291081741452">
        <ele>0</ele>
        <time>2010-01-02T13:36:56Z</time>
      </trkpt>
      <trkpt lat="53.992394814267755" lon="10.265355706214905">
        <ele>0</ele>
        <time>2010-01-02T13:36:58Z</time>
      </trkpt>
      <trkpt lat="53.992565637454391" lon="10.265571875497699">
        <ele>0</ele>
        <time>2010-01-02T13:37:06Z</time>
      </trkpt>
      <trkpt lat="53.992702262476087" lon="10.265741609036922">
        <ele>0</ele>
        <time>2010-01-02T13:37:13Z</time>
      </trkpt>
      <trkpt lat="53.992816088721156" lon="10.265851831063628">
        <ele>0</ele>
        <time>2010-01-02T13:37:19Z</time>
      </trkpt>
      <trkpt lat="53.992929244413972" lon="10.265940679237247">
        <ele>0</ele>
        <time>2010-01-02T13:37:23Z</time>
      </trkpt>
      <trkpt lat="53.992975847795606" lon="10.265955766662955">
        <ele>0</ele>
        <time>2010-01-02T13:37:25Z</time>
      </trkpt>
      <trkpt lat="53.992997389286757" lon="10.265956437215209">
        <ele>0</ele>
        <time>2010-01-02T13:37:26Z</time>
      </trkpt>
      <trkpt lat="53.993027061223984" lon="10.265957359224558">
        <ele>0</ele>
        <time>2010-01-02T13:37:27Z</time>
      </trkpt>
      <trkpt lat="53.993216995149851" lon="10.265918886289001">
        <ele>0</ele>
        <time>2010-01-02T13:37:35Z</time>
      </trkpt>
      <trkpt lat="53.993460405617952" lon="10.265845460817218">
        <ele>0</ele>
        <time>2010-01-02T13:37:45Z</time>
      </trkpt>
      <trkpt lat="53.993534250184894" lon="10.266080992296338">
        <ele>0</ele>
        <time>2010-01-02T13:37:51Z</time>
      </trkpt>
      <trkpt lat="53.993714964017272" lon="10.266752801835537">
        <ele>0</ele>
        <time>2010-01-02T13:38:09Z</time>
      </trkpt>
      <trkpt lat="53.993898862972856" lon="10.267459899187088">
        <ele>0</ele>
        <time>2010-01-02T13:38:27Z</time>
      </trkpt>
      <trkpt lat="53.994072452187538" lon="10.268123829737306">
        <ele>0</ele>
        <time>2010-01-02T13:38:44Z</time>
      </trkpt>
      <trkpt lat="53.994243778288364" lon="10.268751215189695">
        <ele>0</ele>
        <time>2010-01-02T13:39:00Z</time>
      </trkpt>
      <trkpt lat="53.994428096339107" lon="10.269417073577642">
        <ele>0</ele>
        <time>2010-01-02T13:39:18Z</time>
      </trkpt>
      <trkpt lat="53.994590286165476" lon="10.270053343847394">
        <ele>0</ele>
        <time>2010-01-02T13:39:34Z</time>
      </trkpt>
      <trkpt lat="53.994617024436593" lon="10.270159374922514">
        <ele>0</ele>
        <time>2010-01-02T13:39:37Z</time>
      </trkpt>
      <trkpt lat="53.99472439661622" lon="10.270115369930863">
        <ele>0</ele>
        <time>2010-01-02T13:39:41Z</time>
      </trkpt>
      <trkpt lat="53.994889268651605" lon="10.270076142624021">
        <ele>0</ele>
        <time>2010-01-02T13:39:48Z</time>
      </trkpt>
      <trkpt lat="53.995064618065953" lon="10.270063234493136">
        <ele>0</ele>
        <time>2010-01-02T13:39:55Z</time>
      </trkpt>
      <trkpt lat="53.995206607505679" lon="10.270059881731868">
        <ele>0</ele>
        <time>2010-01-02T13:40:00Z</time>
      </trkpt>
      <trkpt lat="53.995295539498329" lon="10.270070359110832">
        <ele>0</ele>
        <time>2010-01-02T13:40:04Z</time>
      </trkpt>
      <trkpt lat="53.995345747098327" lon="10.270076310262084">
        <ele>0</ele>
        <time>2010-01-02T13:40:06Z</time>
      </trkpt>
      <trkpt lat="53.995349016040564" lon="10.270077064633369">
        <ele>0</ele>
        <time>2010-01-02T13:40:06Z</time>
      </trkpt>
      <trkpt lat="53.995403330773115" lon="10.27008737437427">
        <ele>0</ele>
        <time>2010-01-02T13:40:08Z</time>
      </trkpt>
      <trkpt lat="53.9955232758075" lon="10.270106149837375">
        <ele>0</ele>
        <time>2010-01-02T13:40:13Z</time>
      </trkpt>
      <trkpt lat="53.995735673233867" lon="10.270159877836704">
        <ele>0</ele>
        <time>2010-01-02T13:40:22Z</time>
      </trkpt>
      <trkpt lat="53.995887888595462" lon="10.270205726847053">
        <ele>0</ele>
        <time>2010-01-02T13:40:28Z</time>
      </trkpt>
      <trkpt lat="53.996299020946026" lon="10.270331036299467">
        <ele>0</ele>
        <time>2010-01-02T13:40:45Z</time>
      </trkpt>
      <trkpt lat="53.996536647900939" lon="10.27042550034821">
        <ele>0</ele>
        <time>2010-01-02T13:40:54Z</time>
      </trkpt>
      <trkpt lat="53.996834959834814" lon="10.270542595535517">
        <ele>0</ele>
        <time>2010-01-02T13:41:07Z</time>
      </trkpt>
      <trkpt lat="53.997163362801075" lon="10.270670000463724">
        <ele>0</ele>
        <time>2010-01-02T13:41:20Z</time>
      </trkpt>
      <trkpt lat="53.997521353885531" lon="10.270808972418308">
        <ele>0</ele>
        <time>2010-01-02T13:41:35Z</time>
      </trkpt>
      <trkpt lat="53.997979927808046" lon="10.270943501964211">
        <ele>0</ele>
        <time>2010-01-02T13:41:53Z</time>
      </trkpt>
      <trkpt lat="53.998043378815055" lon="10.270974347367883">
        <ele>0</ele>
        <time>2010-01-02T13:41:56Z</time>
      </trkpt>
      <trkpt lat="53.998119570314884" lon="10.270994966849685">
        <ele>0</ele>
        <time>2010-01-02T13:41:59Z</time>
      </trkpt>
      <trkpt lat="53.998240772634745" lon="10.271003264933825">
        <ele>0</ele>
        <time>2010-01-02T13:42:04Z</time>
      </trkpt>
      <trkpt lat="53.998367339372635" lon="10.27101625688374">
        <ele>0</ele>
        <time>2010-01-02T13:42:09Z</time>
      </trkpt>
      <trkpt lat="53.998467167839408" lon="10.271004103124142">
        <ele>0</ele>
        <time>2010-01-02T13:42:13Z</time>
      </trkpt>
      <trkpt lat="53.998575964942575" lon="10.270993625745177">
        <ele>0</ele>
        <time>2010-01-02T13:42:17Z</time>
      </trkpt>
      <trkpt lat="53.998625669628382" lon="10.271225469186902">
        <ele>0</ele>
        <time>2010-01-02T13:42:23Z</time>
      </trkpt>
      <trkpt lat="53.998657772317529" lon="10.271334685385227">
        <ele>0</ele>
        <time>2010-01-02T13:42:26Z</time>
      </trkpt>
      <trkpt lat="53.99869398213923" lon="10.271395286545157">
        <ele>0</ele>
        <time>2010-01-02T13:42:28Z</time>
      </trkpt>
      <trkpt lat="53.998916354030371" lon="10.271607935428619">
        <ele>0</ele>
        <time>2010-01-02T13:42:38Z</time>
      </trkpt>
      <trkpt lat="53.999271495267749" lon="10.271920748054981">
        <ele>0</ele>
        <time>2010-01-02T13:42:54Z</time>
      </trkpt>
      <trkpt lat="53.999771811068058" lon="10.272364569827914">
        <ele>0</ele>
        <time>2010-01-02T13:43:17Z</time>
      </trkpt>
      <trkpt lat="54.000459713861346" lon="10.27298491448164">
        <ele>0</ele>
        <time>2010-01-02T13:43:48Z</time>
      </trkpt>
      <trkpt lat="54.001023229211569" lon="10.273482464253902">
        <ele>0</ele>
        <time>2010-01-02T13:44:14Z</time>
      </trkpt>
      <trkpt lat="54.001535950228572" lon="10.273938942700624">
        <ele>0</ele>
        <time>2010-01-02T13:44:37Z</time>
      </trkpt>
      <trkpt lat="54.001925876364112" lon="10.274278745055199">
        <ele>0</ele>
        <time>2010-01-02T13:44:54Z</time>
      </trkpt>
      <trkpt lat="54.002410098910332" lon="10.274709910154343">
        <ele>0</ele>
        <time>2010-01-02T13:45:16Z</time>
      </trkpt>
      <trkpt lat="54.002831038087606" lon="10.27509187348187">
        <ele>0</ele>
        <time>2010-01-02T13:45:35Z</time>
      </trkpt>
      <trkpt lat="54.00328223593533" lon="10.275494623929262">
        <ele>0</ele>
        <time>2010-01-02T13:45:56Z</time>
      </trkpt>
      <trkpt lat="54.003444341942668" lon="10.27563376352191">
        <ele>0</ele>
        <time>2010-01-02T13:46:03Z</time>
      </trkpt>
      <trkpt lat="54.003761261701584" lon="10.275905840098858">
        <ele>0</ele>
        <time>2010-01-02T13:46:17Z</time>
      </trkpt>
      <trkpt lat="54.004048844799399" lon="10.276167942211032">
        <ele>0</ele>
        <time>2010-01-02T13:46:30Z</time>
      </trkpt>
      <trkpt lat="54.004138614982367" lon="10.276249833405018">
        <ele>0</ele>
        <time>2010-01-02T13:46:34Z</time>
      </trkpt>
      <trkpt lat="54.00454631075263" lon="10.276610087603331">
        <ele>0</ele>
        <time>2010-01-02T13:46:53Z</time>
      </trkpt>
      <trkpt lat="54.004983427003026" lon="10.276988027617335">
        <ele>0</ele>
        <time>2010-01-02T13:47:12Z</time>
      </trkpt>
      <trkpt lat="54.005234465003014" lon="10.277207717299461">
        <ele>0</ele>
        <time>2010-01-02T13:47:24Z</time>
      </trkpt>
      <trkpt lat="54.005387518554926" lon="10.277346605435014">
        <ele>0</ele>
        <time>2010-01-02T13:47:31Z</time>
      </trkpt>
      <trkpt lat="54.005504362285137" lon="10.277427993714809">
        <ele>0</ele>
        <time>2010-01-02T13:47:36Z</time>
      </trkpt>
      <trkpt lat="54.005560521036386" lon="10.277467891573906">
        <ele>0</ele>
        <time>2010-01-02T13:47:38Z</time>
      </trkpt>
      <trkpt lat="54.005960840731859" lon="10.277681462466717">
        <ele>0</ele>
        <time>2010-01-02T13:47:55Z</time>
      </trkpt>
      <trkpt lat="54.006070559844375" lon="10.277757989242673">
        <ele>0</ele>
        <time>2010-01-02T13:48:00Z</time>
      </trkpt>
      <trkpt lat="54.006135603412986" lon="10.277807274833322">
        <ele>0</ele>
        <time>2010-01-02T13:48:02Z</time>
      </trkpt>
      <trkpt lat="54.006182793527842" lon="10.277843819931149">
        <ele>0</ele>
        <time>2010-01-02T13:48:04Z</time>
      </trkpt>
      <trkpt lat="54.006317406892776" lon="10.277945576235652">
        <ele>0</ele>
        <time>2010-01-02T13:48:10Z</time>
      </trkpt>
      <trkpt lat="54.006440285593271" lon="10.278053032234311">
        <ele>0</ele>
        <time>2010-01-02T13:48:16Z</time>
      </trkpt>
      <trkpt lat="54.006459228694439" lon="10.278071472421288">
        <ele>0</ele>
        <time>2010-01-02T13:48:17Z</time>
      </trkpt>
      <trkpt lat="54.00674706324935" lon="10.278350757434964">
        <ele>0</ele>
        <time>2010-01-02T13:48:30Z</time>
      </trkpt>
      <trkpt lat="54.006962310522795" lon="10.278555694967508">
        <ele>0</ele>
        <time>2010-01-02T13:48:40Z</time>
      </trkpt>
      <trkpt lat="54.007118884474039" lon="10.278703803196549">
        <ele>0</ele>
        <time>2010-01-02T13:48:47Z</time>
      </trkpt>
      <trkpt lat="54.007184514775872" lon="10.278765326365829">
        <ele>0</ele>
        <time>2010-01-02T13:48:50Z</time>
      </trkpt>
      <trkpt lat="54.007209660485387" lon="10.278788963332772">
        <ele>0</ele>
        <time>2010-01-02T13:48:51Z</time>
      </trkpt>
      <trkpt lat="54.007429350167513" lon="10.278997085988522">
        <ele>0</ele>
        <time>2010-01-02T13:49:01Z</time>
      </trkpt>
      <trkpt lat="54.007510403171182" lon="10.279060620814562">
        <ele>0</ele>
        <time>2010-01-02T13:49:05Z</time>
      </trkpt>
      <trkpt lat="54.007560359314084" lon="10.279098758473992">
        <ele>0</ele>
        <time>2010-01-02T13:49:07Z</time>
      </trkpt>
      <trkpt lat="54.007711065933108" lon="10.279204035177827">
        <ele>0</ele>
        <time>2010-01-02T13:49:14Z</time>
      </trkpt>
      <trkpt lat="54.007862191647291" lon="10.279274275526404">
        <ele>0</ele>
        <time>2010-01-02T13:49:20Z</time>
      </trkpt>
      <trkpt lat="54.007992781698704" lon="10.279330099001527">
        <ele>0</ele>
        <time>2010-01-02T13:49:25Z</time>
      </trkpt>
      <trkpt lat="54.008048269897699" lon="10.279345521703362">
        <ele>0</ele>
        <time>2010-01-02T13:49:28Z</time>
      </trkpt>
      <trkpt lat="54.008143236860633" lon="10.279371337965131">
        <ele>0</ele>
        <time>2010-01-02T13:49:31Z</time>
      </trkpt>
      <trkpt lat="54.00831020437181" lon="10.279388688504696">
        <ele>0</ele>
        <time>2010-01-02T13:49:38Z</time>
      </trkpt>
      <trkpt lat="54.008464682847261" lon="10.27939036488533">
        <ele>0</ele>
        <time>2010-01-02T13:49:44Z</time>
      </trkpt>
      <trkpt lat="54.008595021441579" lon="10.279385168105364">
        <ele>0</ele>
        <time>2010-01-02T13:49:49Z</time>
      </trkpt>
      <trkpt lat="54.008736507967114" lon="10.279352981597185">
        <ele>0</ele>
        <time>2010-01-02T13:49:55Z</time>
      </trkpt>
      <trkpt lat="54.008882604539394" lon="10.279294895008206">
        <ele>0</ele>
        <time>2010-01-02T13:50:01Z</time>
      </trkpt>
      <trkpt lat="54.009147975593805" lon="10.279182493686676">
        <ele>0</ele>
        <time>2010-01-02T13:50:12Z</time>
      </trkpt>
      <trkpt lat="54.009405383840203" lon="10.279059279710054">
        <ele>0</ele>
        <time>2010-01-02T13:50:23Z</time>
      </trkpt>
      <trkpt lat="54.009580565616488" lon="10.278976131230593">
        <ele>0</ele>
        <time>2010-01-02T13:50:30Z</time>
      </trkpt>
      <trkpt lat="54.009778378531337" lon="10.278881499543786">
        <ele>0</ele>
        <time>2010-01-02T13:50:38Z</time>
      </trkpt>
      <trkpt lat="54.010315407067537" lon="10.278650913387537">
        <ele>0</ele>
        <time>2010-01-02T13:51:01Z</time>
      </trkpt>
      <trkpt lat="54.010991156101227" lon="10.278387889266014">
        <ele>0</ele>
        <time>2010-01-02T13:51:28Z</time>
      </trkpt>
      <trkpt lat="54.011389799416065" lon="10.278250593692064">
        <ele>0</ele>
        <time>2010-01-02T13:51:45Z</time>
      </trkpt>
      <trkpt lat="54.01189137250185" lon="10.278063090518117">
        <ele>0</ele>
        <time>2010-01-02T13:52:05Z</time>
      </trkpt>
      <trkpt lat="54.012636356055737" lon="10.27779302559793">
        <ele>0</ele>
        <time>2010-01-02T13:52:36Z</time>
      </trkpt>
      <trkpt lat="54.013220826163888" lon="10.277583645656705">
        <ele>0</ele>
        <time>2010-01-02T13:52:59Z</time>
      </trkpt>
      <trkpt lat="54.013602621853352" lon="10.277418354526162">
        <ele>0</ele>
        <time>2010-01-02T13:53:15Z</time>
      </trkpt>
      <trkpt lat="54.013666408136487" lon="10.277420366182923">
        <ele>0</ele>
        <time>2010-01-02T13:53:18Z</time>
      </trkpt>
      <trkpt lat="54.013790376484394" lon="10.277424138039351">
        <ele>0</ele>
        <time>2010-01-02T13:53:23Z</time>
      </trkpt>
      <trkpt lat="54.014237048104405" lon="10.277414917945862">
        <ele>0</ele>
        <time>2010-01-02T13:53:41Z</time>
      </trkpt>
      <trkpt lat="54.014735771343112" lon="10.277408882975578">
        <ele>0</ele>
        <time>2010-01-02T13:54:01Z</time>
      </trkpt>
      <trkpt lat="54.01474691927433" lon="10.277408799156547">
        <ele>0</ele>
        <time>2010-01-02T13:54:01Z</time>
      </trkpt>
      <trkpt lat="54.015229130163789" lon="10.277404189109802">
        <ele>0</ele>
        <time>2010-01-02T13:54:20Z</time>
      </trkpt>
      <trkpt lat="54.015644369646907" lon="10.27738943696022">
        <ele>0</ele>
        <time>2010-01-02T13:54:37Z</time>
      </trkpt>
      <trkpt lat="54.01588149368763" lon="10.277393627911806">
        <ele>0</ele>
        <time>2010-01-02T13:54:46Z</time>
      </trkpt>
      <trkpt lat="54.016147451475263" lon="10.277392622083426">
        <ele>0</ele>
        <time>2010-01-02T13:54:57Z</time>
      </trkpt>
      <trkpt lat="54.016454815864563" lon="10.277386838570237">
        <ele>0</ele>
        <time>2010-01-02T13:55:09Z</time>
      </trkpt>
      <trkpt lat="54.016754133626819" lon="10.277376193553209">
        <ele>0</ele>
        <time>2010-01-02T13:55:21Z</time>
      </trkpt>
      <trkpt lat="54.016960747539997" lon="10.277383988723159">
        <ele>0</ele>
        <time>2010-01-02T13:55:30Z</time>
      </trkpt>
      <trkpt lat="54.017008440569043" lon="10.277383485808969">
        <ele>0</ele>
        <time>2010-01-02T13:55:32Z</time>
      </trkpt>
      <trkpt lat="54.017136851325631" lon="10.277381809428334">
        <ele>0</ele>
        <time>2010-01-02T13:55:37Z</time>
      </trkpt>
      <trkpt lat="54.017366683110595" lon="10.277401003986597">
        <ele>0</ele>
        <time>2010-01-02T13:55:46Z</time>
      </trkpt>
      <trkpt lat="54.017585702240467" lon="10.277418438345194">
        <ele>0</ele>
        <time>2010-01-02T13:55:55Z</time>
      </trkpt>
      <trkpt lat="54.017816288396716" lon="10.277449954301119">
        <ele>0</ele>
        <time>2010-01-02T13:56:04Z</time>
      </trkpt>
      <trkpt lat="54.01808962225914" lon="10.277517763897777">
        <ele>0</ele>
        <time>2010-01-02T13:56:15Z</time>
      </trkpt>
      <trkpt lat="54.018399668857455" lon="10.277595967054367">
        <ele>0</ele>
        <time>2010-01-02T13:56:28Z</time>
      </trkpt>
      <trkpt lat="54.018711475655437" lon="10.277674170210958">
        <ele>0</ele>
        <time>2010-01-02T13:56:40Z</time>
      </trkpt>
      <trkpt lat="54.01889487169683" lon="10.277753043919802">
        <ele>0</ele>
        <time>2010-01-02T13:56:48Z</time>
      </trkpt>
      <trkpt lat="54.019145574420691" lon="10.27783552184701">
        <ele>0</ele>
        <time>2010-01-02T13:56:58Z</time>
      </trkpt>
      <trkpt lat="54.019362246617675" lon="10.277904672548175">
        <ele>0</ele>
        <time>2010-01-02T13:57:07Z</time>
      </trkpt>
      <trkpt lat="54.019690984860063" lon="10.278004836291075">
        <ele>0</ele>
        <time>2010-01-02T13:57:20Z</time>
      </trkpt>
      <trkpt lat="54.02006565593183" lon="10.278083458542824">
        <ele>0</ele>
        <time>2010-01-02T13:57:35Z</time>
      </trkpt>
      <trkpt lat="54.020312167704105" lon="10.278139784932137">
        <ele>0</ele>
        <time>2010-01-02T13:57:45Z</time>
      </trkpt>
      <trkpt lat="54.020467316731811" lon="10.278168953955173">
        <ele>0</ele>
        <time>2010-01-02T13:57:52Z</time>
      </trkpt>
      <trkpt lat="54.020603690296412" lon="10.27818538248539">
        <ele>0</ele>
        <time>2010-01-02T13:57:57Z</time>
      </trkpt>
      <trkpt lat="54.020768897607923" lon="10.278198039159179">
        <ele>0</ele>
        <time>2010-01-02T13:58:04Z</time>
      </trkpt>
      <trkpt lat="54.021004261448979" lon="10.278197703883052">
        <ele>0</ele>
        <time>2010-01-02T13:58:13Z</time>
      </trkpt>
      <trkpt lat="54.021123787388206" lon="10.278196781873703">
        <ele>0</ele>
        <time>2010-01-02T13:58:18Z</time>
      </trkpt>
      <trkpt lat="54.021479850634933" lon="10.27817415073514">
        <ele>0</ele>
        <time>2010-01-02T13:58:32Z</time>
      </trkpt>
      <trkpt lat="54.02177288196981" lon="10.278160236775875">
        <ele>0</ele>
        <time>2010-01-02T13:58:44Z</time>
      </trkpt>
      <trkpt lat="54.022401357069612" lon="10.278120003640652">
        <ele>0</ele>
        <time>2010-01-02T13:59:09Z</time>
      </trkpt>
      <trkpt lat="54.022909300401807" lon="10.278092846274376">
        <ele>0</ele>
        <time>2010-01-02T13:59:29Z</time>
      </trkpt>
      <trkpt lat="54.023116501048207" lon="10.278045823797584">
        <ele>0</ele>
        <time>2010-01-02T13:59:38Z</time>
      </trkpt>
      <trkpt lat="54.023115495219827" lon="10.277969464659691">
        <ele>0</ele>
        <time>2010-01-02T13:59:40Z</time>
      </trkpt>
      <trkpt lat="54.023109208792448" lon="10.277635110542178">
        <ele>0</ele>
        <time>2010-01-02T13:59:47Z</time>
      </trkpt>
      <trkpt lat="54.023098815232515" lon="10.277343336492777">
        <ele>0</ele>
        <time>2010-01-02T13:59:54Z</time>
      </trkpt>
      <trkpt lat="54.023096049204469" lon="10.277263876050711">
        <ele>0</ele>
        <time>2010-01-02T13:59:56Z</time>
      </trkpt>
      <trkpt lat="54.023087751120329" lon="10.27711870148778">
        <ele>0</ele>
        <time>2010-01-02T14:00:00Z</time>
      </trkpt>
      <trkpt lat="54.023071154952049" lon="10.276983920484781">
        <ele>0</ele>
        <time>2010-01-02T14:00:03Z</time>
      </trkpt>
      <trkpt lat="54.023046512156725" lon="10.276848888024688">
        <ele>0</ele>
        <time>2010-01-02T14:00:06Z</time>
      </trkpt>
      <trkpt lat="54.023012481629848" lon="10.276672365143895">
        <ele>0</ele>
        <time>2010-01-02T14:00:10Z</time>
      </trkpt>
      <trkpt lat="54.022864876314998" lon="10.276017738506198">
        <ele>0</ele>
        <time>2010-01-02T14:00:27Z</time>
      </trkpt>
      <trkpt lat="54.022780805826187" lon="10.275645917281508">
        <ele>0</ele>
        <time>2010-01-02T14:00:36Z</time>
      </trkpt>
      <trkpt lat="54.022663962095976" lon="10.275225816294551">
        <ele>0</ele>
        <time>2010-01-02T14:00:47Z</time>
      </trkpt>
      <trkpt lat="54.022525073960423" lon="10.274679819121957">
        <ele>0</ele>
        <time>2010-01-02T14:01:01Z</time>
      </trkpt>
      <trkpt lat="54.022364225238562" lon="10.274093588814139">
        <ele>0</ele>
        <time>2010-01-02T14:01:16Z</time>
      </trkpt>
      <trkpt lat="54.022270096465945" lon="10.273732077330351">
        <ele>0</ele>
        <time>2010-01-02T14:01:26Z</time>
      </trkpt>
      <trkpt lat="54.022233970463276" lon="10.273579945787787">
        <ele>0</ele>
        <time>2010-01-02T14:01:30Z</time>
      </trkpt>
      <trkpt lat="54.022204214707017" lon="10.273418761789799">
        <ele>0</ele>
        <time>2010-01-02T14:01:34Z</time>
      </trkpt>
      <trkpt lat="54.02215207926929" lon="10.273084575310349">
        <ele>0</ele>
        <time>2010-01-02T14:01:42Z</time>
      </trkpt>
      <trkpt lat="54.022140512242913" lon="10.272983489558101">
        <ele>0</ele>
        <time>2010-01-02T14:01:44Z</time>
      </trkpt>
      <trkpt lat="54.022136405110359" lon="10.272867400199175">
        <ele>0</ele>
        <time>2010-01-02T14:01:47Z</time>
      </trkpt>
      <trkpt lat="54.022147133946419" lon="10.272619044408202">
        <ele>0</ele>
        <time>2010-01-02T14:01:53Z</time>
      </trkpt>
      <trkpt lat="54.02214671485126" lon="10.272397762164474">
        <ele>0</ele>
        <time>2010-01-02T14:01:58Z</time>
      </trkpt>
      <trkpt lat="54.022110002115369" lon="10.272135660052299">
        <ele>0</ele>
        <time>2010-01-02T14:02:04Z</time>
      </trkpt>
      <trkpt lat="54.021974131464958" lon="10.270965797826648">
        <ele>0</ele>
        <time>2010-01-02T14:02:32Z</time>
      </trkpt>
      <trkpt lat="54.021922331303358" lon="10.270599508658051">
        <ele>0</ele>
        <time>2010-01-02T14:02:41Z</time>
      </trkpt>
      <trkpt lat="54.021871201694012" lon="10.270335478708148">
        <ele>0</ele>
        <time>2010-01-02T14:02:48Z</time>
      </trkpt>
      <trkpt lat="54.021774558350444" lon="10.269784787669778">
        <ele>0</ele>
        <time>2010-01-02T14:03:01Z</time>
      </trkpt>
      <trkpt lat="54.02161655947566" lon="10.26892245747149">
        <ele>0</ele>
        <time>2010-01-02T14:03:22Z</time>
      </trkpt>
      <trkpt lat="54.021412711590528" lon="10.267802383750677">
        <ele>0</ele>
        <time>2010-01-02T14:03:50Z</time>
      </trkpt>
      <trkpt lat="54.021242642775178" lon="10.266808457672596">
        <ele>0</ele>
        <time>2010-01-02T14:04:14Z</time>
      </trkpt>
      <trkpt lat="54.021205510944128" lon="10.266660852357745">
        <ele>0</ele>
        <time>2010-01-02T14:04:18Z</time>
      </trkpt>
      <trkpt lat="54.021183717995882" lon="10.2665975689888">
        <ele>0</ele>
        <time>2010-01-02T14:04:20Z</time>
      </trkpt>
      <trkpt lat="54.02115429751575" lon="10.266575356945395">
        <ele>0</ele>
        <time>2010-01-02T14:04:21Z</time>
      </trkpt>
      <trkpt lat="54.021096043288708" lon="10.266567477956414">
        <ele>0</ele>
        <time>2010-01-02T14:04:24Z</time>
      </trkpt>
      <trkpt lat="54.021009625867009" lon="10.266581643372774">
        <ele>0</ele>
        <time>2010-01-02T14:04:27Z</time>
      </trkpt>
      <trkpt lat="54.020478799939156" lon="10.266736373305321">
        <ele>0</ele>
        <time>2010-01-02T14:04:49Z</time>
      </trkpt>
      <trkpt lat="54.020387018099427" lon="10.266748862341046">
        <ele>0</ele>
        <time>2010-01-02T14:04:52Z</time>
      </trkpt>
      <trkpt lat="54.020344857126474" lon="10.266741486266255">
        <ele>0</ele>
        <time>2010-01-02T14:04:54Z</time>
      </trkpt>
      <trkpt lat="54.020331278443336" lon="10.266728661954403">
        <ele>0</ele>
        <time>2010-01-02T14:04:55Z</time>
      </trkpt>
      <trkpt lat="54.020301271229982" lon="10.266700498759747">
        <ele>0</ele>
        <time>2010-01-02T14:04:56Z</time>
      </trkpt>
      <trkpt lat="54.020272437483072" lon="10.266620200127363">
        <ele>0</ele>
        <time>2010-01-02T14:04:58Z</time>
      </trkpt>
      <trkpt lat="54.020239831879735" lon="10.266472762450576">
        <ele>0</ele>
        <time>2010-01-02T14:05:02Z</time>
      </trkpt>
      <trkpt lat="54.020166909322143" lon="10.266063138842583">
        <ele>0</ele>
        <time>2010-01-02T14:05:12Z</time>
      </trkpt>
      <trkpt lat="54.019980244338512" lon="10.265019927173853">
        <ele>0</ele>
        <time>2010-01-02T14:05:38Z</time>
      </trkpt>
      <trkpt lat="54.019837835803628" lon="10.264379382133484">
        <ele>0</ele>
        <time>2010-01-02T14:05:54Z</time>
      </trkpt>
      <trkpt lat="54.01967816054821" lon="10.263664992526174">
        <ele>0</ele>
        <time>2010-01-02T14:06:12Z</time>
      </trkpt>
      <trkpt lat="54.019540278241038" lon="10.263110026717186">
        <ele>0</ele>
        <time>2010-01-02T14:06:26Z</time>
      </trkpt>
      <trkpt lat="54.019307512789965" lon="10.262172259390354">
        <ele>0</ele>
        <time>2010-01-02T14:06:50Z</time>
      </trkpt>
      <trkpt lat="54.019026467576623" lon="10.261040786281228">
        <ele>0</ele>
        <time>2010-01-02T14:07:19Z</time>
      </trkpt>
      <trkpt lat="54.018772998824716" lon="10.260021546855569">
        <ele>0</ele>
        <time>2010-01-02T14:07:45Z</time>
      </trkpt>
      <trkpt lat="54.018478794023395" lon="10.25885914452374">
        <ele>0</ele>
        <time>2010-01-02T14:08:14Z</time>
      </trkpt>
      <trkpt lat="54.018172519281507" lon="10.257653743028641">
        <ele>0</ele>
        <time>2010-01-02T14:08:45Z</time>
      </trkpt>
      <trkpt lat="54.017887031659484" lon="10.256513049826026">
        <ele>0</ele>
        <time>2010-01-02T14:09:15Z</time>
      </trkpt>
      <trkpt lat="54.017512612044811" lon="10.255026435479522">
        <ele>0</ele>
        <time>2010-01-02T14:09:53Z</time>
      </trkpt>
      <trkpt lat="54.017130481079221" lon="10.253505958244205">
        <ele>0</ele>
        <time>2010-01-02T14:10:31Z</time>
      </trkpt>
      <trkpt lat="54.016592614352703" lon="10.251350635662675">
        <ele>0</ele>
        <time>2010-01-02T14:11:27Z</time>
      </trkpt>
      <trkpt lat="54.016496473923326" lon="10.250971103087068">
        <ele>0</ele>
        <time>2010-01-02T14:11:36Z</time>
      </trkpt>
      <trkpt lat="54.01642388664186" lon="10.25069123134017">
        <ele>0</ele>
        <time>2010-01-02T14:11:43Z</time>
      </trkpt>
      <trkpt lat="54.016371415928006" lon="10.250471457839012">
        <ele>0</ele>
        <time>2010-01-02T14:11:49Z</time>
      </trkpt>
      <trkpt lat="54.016362866386771" lon="10.250426949933171">
        <ele>0</ele>
        <time>2010-01-02T14:11:50Z</time>
      </trkpt>
      <trkpt lat="54.016345012933016" lon="10.250325780361891">
        <ele>0</ele>
        <time>2010-01-02T14:11:53Z</time>
      </trkpt>
      <trkpt lat="54.016324393451214" lon="10.250154286623001">
        <ele>0</ele>
        <time>2010-01-02T14:11:57Z</time>
      </trkpt>
      <trkpt lat="54.016313496977091" lon="10.249905260279775">
        <ele>0</ele>
        <time>2010-01-02T14:12:03Z</time>
      </trkpt>
      <trkpt lat="54.016238478943706" lon="10.248995237052441">
        <ele>0</ele>
        <time>2010-01-02T14:12:24Z</time>
      </trkpt>
      <trkpt lat="54.016236634925008" lon="10.248827347531915">
        <ele>0</ele>
        <time>2010-01-02T14:12:28Z</time>
      </trkpt>
      <trkpt lat="54.016621615737677" lon="10.248963972553611">
        <ele>0</ele>
        <time>2010-01-02T14:12:44Z</time>
      </trkpt>
      <trkpt lat="54.01670141145587" lon="10.248975539579988">
        <ele>0</ele>
        <time>2010-01-02T14:12:47Z</time>
      </trkpt>
      <trkpt lat="54.016796797513962" lon="10.248966151848435">
        <ele>0</ele>
        <time>2010-01-02T14:12:51Z</time>
      </trkpt>
      <trkpt lat="54.016921939328313" lon="10.248939413577318">
        <ele>0</ele>
        <time>2010-01-02T14:12:56Z</time>
      </trkpt>
      <trkpt lat="54.017017660662532" lon="10.248891972005367">
        <ele>0</ele>
        <time>2010-01-02T14:13:00Z</time>
      </trkpt>
      <trkpt lat="54.017098378390074" lon="10.248822653666139">
        <ele>0</ele>
        <time>2010-01-02T14:13:04Z</time>
      </trkpt>
      <trkpt lat="54.01710013858974" lon="10.248306998983026">
        <ele>0</ele>
        <time>2010-01-02T14:13:16Z</time>
      </trkpt>
      <trkpt lat="54.017098294571042" lon="10.247960658743978">
        <ele>0</ele>
        <time>2010-01-02T14:13:24Z</time>
      </trkpt>
      <trkpt lat="54.017095360904932" lon="10.247551705688238">
        <ele>0</ele>
        <time>2010-01-02T14:13:33Z</time>
      </trkpt>
      <trkpt lat="54.017094187438488" lon="10.247409716248512">
        <ele>0</ele>
        <time>2010-01-02T14:13:37Z</time>
      </trkpt>
      <trkpt lat="54.017090080305934" lon="10.246854247525334">
        <ele>0</ele>
        <time>2010-01-02T14:13:50Z</time>
      </trkpt>
      <trkpt lat="54.017098965123296" lon="10.246598264202476">
        <ele>0</ele>
        <time>2010-01-02T14:13:56Z</time>
      </trkpt>
      <trkpt lat="54.017112962901592" lon="10.246374383568764">
        <ele>0</ele>
        <time>2010-01-02T14:14:01Z</time>
      </trkpt>
      <trkpt lat="54.017143389210105" lon="10.246129631996155">
        <ele>0</ele>
        <time>2010-01-02T14:14:07Z</time>
      </trkpt>
      <trkpt lat="54.017175575718284" lon="10.245883455500007">
        <ele>0</ele>
        <time>2010-01-02T14:14:13Z</time>
      </trkpt>
      <trkpt lat="54.017211953178048" lon="10.245667872950435">
        <ele>0</ele>
        <time>2010-01-02T14:14:18Z</time>
      </trkpt>
      <trkpt lat="54.017255622893572" lon="10.245444914326072">
        <ele>0</ele>
        <time>2010-01-02T14:14:24Z</time>
      </trkpt>
      <trkpt lat="54.017377411946654" lon="10.244958763942122">
        <ele>0</ele>
        <time>2010-01-02T14:14:36Z</time>
      </trkpt>
      <trkpt lat="54.017433319240808" lon="10.244685849174857">
        <ele>0</ele>
        <time>2010-01-02T14:14:43Z</time>
      </trkpt>
      <trkpt lat="54.017456201836467" lon="10.244558360427618">
        <ele>0</ele>
        <time>2010-01-02T14:14:46Z</time>
      </trkpt>
      <trkpt lat="54.017479000613093" lon="10.24443238042295">
        <ele>0</ele>
        <time>2010-01-02T14:14:49Z</time>
      </trkpt>
      <trkpt lat="54.017511019483209" lon="10.244207577779889">
        <ele>0</ele>
        <time>2010-01-02T14:14:55Z</time>
      </trkpt>
      <trkpt lat="54.017526106908917" lon="10.244047231972218">
        <ele>0</ele>
        <time>2010-01-02T14:14:59Z</time>
      </trkpt>
      <trkpt lat="54.017544379457831" lon="10.243851514533162">
        <ele>0</ele>
        <time>2010-01-02T14:15:03Z</time>
      </trkpt>
      <trkpt lat="54.017567681148648" lon="10.243508946150541">
        <ele>0</ele>
        <time>2010-01-02T14:15:11Z</time>
      </trkpt>
      <trkpt lat="54.01759123429656" lon="10.243138885125518">
        <ele>0</ele>
        <time>2010-01-02T14:15:20Z</time>
      </trkpt>
      <trkpt lat="54.017598778009415" lon="10.24292841553688">
        <ele>0</ele>
        <time>2010-01-02T14:15:25Z</time>
      </trkpt>
      <trkpt lat="54.017600119113922" lon="10.242888936772943">
        <ele>0</ele>
        <time>2010-01-02T14:15:26Z</time>
      </trkpt>
      <trkpt lat="54.017600202932954" lon="10.242794388905168">
        <ele>0</ele>
        <time>2010-01-02T14:15:28Z</time>
      </trkpt>
      <trkpt lat="54.017599197104573" lon="10.242634126916528">
        <ele>0</ele>
        <time>2010-01-02T14:15:32Z</time>
      </trkpt>
      <trkpt lat="54.017589977011085" lon="10.242397338151932">
        <ele>0</ele>
        <time>2010-01-02T14:15:38Z</time>
      </trkpt>
      <trkpt lat="54.017575727775693" lon="10.242206230759621">
        <ele>0</ele>
        <time>2010-01-02T14:15:42Z</time>
      </trkpt>
      <trkpt lat="54.017556281760335" lon="10.242004310712218">
        <ele>0</ele>
        <time>2010-01-02T14:15:47Z</time>
      </trkpt>
      <trkpt lat="54.017665749415755" lon="10.242022750899196">
        <ele>0</ele>
        <time>2010-01-02T14:15:51Z</time>
      </trkpt>
      <trkpt lat="54.018102362751961" lon="10.242113610729575">
        <ele>0</ele>
        <time>2010-01-02T14:16:09Z</time>
      </trkpt>
      <trkpt lat="54.018383910879493" lon="10.242166249081492">
        <ele>0</ele>
        <time>2010-01-02T14:16:20Z</time>
      </trkpt>
      <trkpt lat="54.018535623326898" lon="10.242178402841091">
        <ele>0</ele>
        <time>2010-01-02T14:16:26Z</time>
      </trkpt>
      <trkpt lat="54.018670655786991" lon="10.242154933512211">
        <ele>0</ele>
        <time>2010-01-02T14:16:32Z</time>
      </trkpt>
      <trkpt lat="54.018764449283481" lon="10.242116544395685">
        <ele>0</ele>
        <time>2010-01-02T14:16:36Z</time>
      </trkpt>
      <trkpt lat="54.01886947453022" lon="10.242043370380998">
        <ele>0</ele>
        <time>2010-01-02T14:16:40Z</time>
      </trkpt>
      <trkpt lat="54.01890367269516" lon="10.242010597139597">
        <ele>0</ele>
        <time>2010-01-02T14:16:42Z</time>
      </trkpt>
      <trkpt lat="54.018969302996993" lon="10.24194722995162">
        <ele>0</ele>
        <time>2010-01-02T14:16:45Z</time>
      </trkpt>
      <trkpt lat="54.019061420112848" lon="10.241812616586685">
        <ele>0</ele>
        <time>2010-01-02T14:16:50Z</time>
      </trkpt>
      <trkpt lat="54.019140210002661" lon="10.241668531671166">
        <ele>0</ele>
        <time>2010-01-02T14:16:54Z</time>
      </trkpt>
      <trkpt lat="54.019257640466094" lon="10.241435514762998">
        <ele>0</ele>
        <time>2010-01-02T14:17:01Z</time>
      </trkpt>
      <trkpt lat="54.019350344315171" lon="10.241241473704576">
        <ele>0</ele>
        <time>2010-01-02T14:17:07Z</time>
      </trkpt>
      <trkpt lat="54.019508343189955" lon="10.240910472348332">
        <ele>0</ele>
        <time>2010-01-02T14:17:17Z</time>
      </trkpt>
      <trkpt lat="54.019713113084435" lon="10.24048475548625">
        <ele>0</ele>
        <time>2010-01-02T14:17:30Z</time>
      </trkpt>
      <trkpt lat="54.01994101703167" lon="10.23999416269362">
        <ele>0</ele>
        <time>2010-01-02T14:17:45Z</time>
      </trkpt>
      <trkpt lat="54.019968593493104" lon="10.239933980628848">
        <ele>0</ele>
        <time>2010-01-02T14:17:47Z</time>
      </trkpt>
      <trkpt lat="54.020157940685749" lon="10.239515388384461">
        <ele>0</ele>
        <time>2010-01-02T14:17:59Z</time>
      </trkpt>
      <trkpt lat="54.020299762487411" lon="10.239182459190488">
        <ele>0</ele>
        <time>2010-01-02T14:18:09Z</time>
      </trkpt>
      <trkpt lat="54.020410403609276" lon="10.238909544423223">
        <ele>0</ele>
        <time>2010-01-02T14:18:17Z</time>
      </trkpt>
      <trkpt lat="54.020444015040994" lon="10.238816253840923">
        <ele>0</ele>
        <time>2010-01-02T14:18:19Z</time>
      </trkpt>
      <trkpt lat="54.020507549867034" lon="10.238639311864972">
        <ele>0</ele>
        <time>2010-01-02T14:18:24Z</time>
      </trkpt>
      <trkpt lat="54.020588016137481" lon="10.238415934145451">
        <ele>0</ele>
        <time>2010-01-02T14:18:30Z</time>
      </trkpt>
      <trkpt lat="54.020615927875042" lon="10.238323649391532">
        <ele>0</ele>
        <time>2010-01-02T14:18:33Z</time>
      </trkpt>
      <trkpt lat="54.020648449659348" lon="10.238216277211905">
        <ele>0</ele>
        <time>2010-01-02T14:18:36Z</time>
      </trkpt>
      <trkpt lat="54.020700752735138" lon="10.238020978868008">
        <ele>0</ele>
        <time>2010-01-02T14:18:41Z</time>
      </trkpt>
      <trkpt lat="54.020763365551829" lon="10.237787878140807">
        <ele>0</ele>
        <time>2010-01-02T14:18:47Z</time>
      </trkpt>
      <trkpt lat="54.020829498767853" lon="10.237478585913777">
        <ele>0</ele>
        <time>2010-01-02T14:18:54Z</time>
      </trkpt>
      <trkpt lat="54.020916419103742" lon="10.237061586230993">
        <ele>0</ele>
        <time>2010-01-02T14:19:05Z</time>
      </trkpt>
      <trkpt lat="54.020988084375858" lon="10.23673259653151">
        <ele>0</ele>
        <time>2010-01-02T14:19:13Z</time>
      </trkpt>
      <trkpt lat="54.021083386614919" lon="10.236292881891131">
        <ele>0</ele>
        <time>2010-01-02T14:19:24Z</time>
      </trkpt>
      <trkpt lat="54.021097803488374" lon="10.236116359010339">
        <ele>0</ele>
        <time>2010-01-02T14:19:28Z</time>
      </trkpt>
      <trkpt lat="54.021118842065334" lon="10.235988786444068">
        <ele>0</ele>
        <time>2010-01-02T14:19:31Z</time>
      </trkpt>
      <trkpt lat="54.021157566457987" lon="10.235806899145246">
        <ele>0</ele>
        <time>2010-01-02T14:19:36Z</time>
      </trkpt>
      <trkpt lat="54.021174497902393" lon="10.235729534178972">
        <ele>0</ele>
        <time>2010-01-02T14:19:38Z</time>
      </trkpt>
      <trkpt lat="54.02130919508636" lon="10.235037775710225">
        <ele>0</ele>
        <time>2010-01-02T14:19:55Z</time>
      </trkpt>
      <trkpt lat="54.021332412958145" lon="10.234876675531268">
        <ele>0</ele>
        <time>2010-01-02T14:19:59Z</time>
      </trkpt>
      <trkpt lat="54.021342135965824" lon="10.234809871762991">
        <ele>0</ele>
        <time>2010-01-02T14:20:01Z</time>
      </trkpt>
      <trkpt lat="54.021373149007559" lon="10.234758909791708">
        <ele>0</ele>
        <time>2010-01-02T14:20:02Z</time>
      </trkpt>
      <trkpt lat="54.021327132359147" lon="10.234522540122271">
        <ele>0</ele>
        <time>2010-01-02T14:20:08Z</time>
      </trkpt>
      <trkpt lat="54.02129695750773" lon="10.234393458813429">
        <ele>0</ele>
        <time>2010-01-02T14:20:11Z</time>
      </trkpt>
      <trkpt lat="54.021258652210236" lon="10.234276363626122">
        <ele>0</ele>
        <time>2010-01-02T14:20:15Z</time>
      </trkpt>
      <trkpt lat="54.021045416593552" lon="10.233604805544019">
        <ele>0</ele>
        <time>2010-01-02T14:20:33Z</time>
      </trkpt>
      <trkpt lat="54.020900074392557" lon="10.233148830011487">
        <ele>0</ele>
        <time>2010-01-02T14:20:45Z</time>
      </trkpt>
      <trkpt lat="54.020349131897092" lon="10.231406819075346">
        <ele>0</ele>
        <time>2010-01-02T14:21:31Z</time>
      </trkpt>
      <trkpt lat="54.019984770566225" lon="10.230225808918476">
        <ele>0</ele>
        <time>2010-01-02T14:22:03Z</time>
      </trkpt>
      <trkpt lat="54.019753178581595" lon="10.229417961090803">
        <ele>0</ele>
        <time>2010-01-02T14:22:24Z</time>
      </trkpt>
      <trkpt lat="54.019994409754872" lon="10.22872100584209">
        <ele>0</ele>
        <time>2010-01-02T14:22:43Z</time>
      </trkpt>
      <trkpt lat="54.020064817741513" lon="10.228213565424085">
        <ele>0</ele>
        <time>2010-01-02T14:22:55Z</time>
      </trkpt>
      <trkpt lat="54.020493887364864" lon="10.227074297145009">
        <ele>0</ele>
        <time>2010-01-02T14:23:27Z</time>
      </trkpt>
      <trkpt lat="54.021017840132117" lon="10.225583408027887">
        <ele>0</ele>
        <time>2010-01-02T14:24:08Z</time>
      </trkpt>
      <trkpt lat="54.021242391318083" lon="10.225302027538419">
        <ele>0</ele>
        <time>2010-01-02T14:24:19Z</time>
      </trkpt>
      <trkpt lat="54.021913446485996" lon="10.22346094250679">
        <ele>0</ele>
        <time>2010-01-02T14:25:10Z</time>
      </trkpt>
      <trkpt lat="54.022395238280296" lon="10.222256630659103">
        <ele>0</ele>
        <time>2010-01-02T14:25:44Z</time>
      </trkpt>
      <trkpt lat="54.022604115307331" lon="10.222240621224046">
        <ele>0</ele>
        <time>2010-01-02T14:25:52Z</time>
      </trkpt>
      <trkpt lat="54.022778039798141" lon="10.222674217075109">
        <ele>0</ele>
        <time>2010-01-02T14:26:05Z</time>
      </trkpt>
      <trkpt lat="54.022966297343373" lon="10.222539352253079">
        <ele>0</ele>
        <time>2010-01-02T14:26:13Z</time>
      </trkpt>
      <trkpt lat="54.023147262632847" lon="10.222413456067443">
        <ele>0</ele>
        <time>2010-01-02T14:26:21Z</time>
      </trkpt>
      <trkpt lat="54.023589910939336" lon="10.222090752795339">
        <ele>0</ele>
        <time>2010-01-02T14:26:40Z</time>
      </trkpt>
      <trkpt lat="54.023791076615453" lon="10.22192420437932">
        <ele>0</ele>
        <time>2010-01-02T14:26:49Z</time>
      </trkpt>
      <trkpt lat="54.023858299478889" lon="10.221852958202362">
        <ele>0</ele>
        <time>2010-01-02T14:26:52Z</time>
      </trkpt>
      <trkpt lat="54.02439147233963" lon="10.222343131899834">
        <ele>0</ele>
        <time>2010-01-02T14:27:16Z</time>
      </trkpt>
      <trkpt lat="54.025335190817714" lon="10.223199427127838">
        <ele>0</ele>
        <time>2010-01-02T14:27:59Z</time>
      </trkpt>
      <trkpt lat="54.026266923174262" lon="10.224078353494406">
        <ele>0</ele>
        <time>2010-01-02T14:28:42Z</time>
      </trkpt>
      <trkpt lat="54.026482505723834" lon="10.224278178066015">
        <ele>0</ele>
        <time>2010-01-02T14:28:52Z</time>
      </trkpt>
      <trkpt lat="54.02713268995285" lon="10.224884357303381">
        <ele>0</ele>
        <time>2010-01-02T14:29:21Z</time>
      </trkpt>
      <trkpt lat="54.02721231803298" lon="10.224957363680005">
        <ele>0</ele>
        <time>2010-01-02T14:29:25Z</time>
      </trkpt>
      <trkpt lat="54.027318097651005" lon="10.225054509937763">
        <ele>0</ele>
        <time>2010-01-02T14:29:30Z</time>
      </trkpt>
      <trkpt lat="54.027807349339128" lon="10.225508641451597">
        <ele>0</ele>
        <time>2010-01-02T14:29:52Z</time>
      </trkpt>
      <trkpt lat="54.027894018217921" lon="10.225586593151093">
        <ele>0</ele>
        <time>2010-01-02T14:29:56Z</time>
      </trkpt>
      <trkpt lat="54.028533976525068" lon="10.226183803752065">
        <ele>0</ele>
        <time>2010-01-02T14:30:25Z</time>
      </trkpt>
      <trkpt lat="54.029814898967743" lon="10.227357018738985">
        <ele>0</ele>
        <time>2010-01-02T14:31:24Z</time>
      </trkpt>
      <trkpt lat="54.03038302436471" lon="10.2278967294842">
        <ele>0</ele>
        <time>2010-01-02T14:31:50Z</time>
      </trkpt>
      <trkpt lat="54.03049299493432" lon="10.228001167997718">
        <ele>0</ele>
        <time>2010-01-02T14:31:55Z</time>
      </trkpt>
      <trkpt lat="54.03066105209291" lon="10.228172494098544">
        <ele>0</ele>
        <time>2010-01-02T14:32:02Z</time>
      </trkpt>
      <trkpt lat="54.03073288500309" lon="10.228264695033431">
        <ele>0</ele>
        <time>2010-01-02T14:32:06Z</time>
      </trkpt>
      <trkpt lat="54.030794156715274" lon="10.228188754990697">
        <ele>0</ele>
        <time>2010-01-02T14:32:09Z</time>
      </trkpt>
      <trkpt lat="54.030834892764688" lon="10.228111976757646">
        <ele>0</ele>
        <time>2010-01-02T14:32:12Z</time>
      </trkpt>
      <trkpt lat="54.030970679596066" lon="10.227965964004397">
        <ele>0</ele>
        <time>2010-01-02T14:32:18Z</time>
      </trkpt>
      <trkpt lat="54.031409220770001" lon="10.227491464465857">
        <ele>0</ele>
        <time>2010-01-02T14:32:39Z</time>
      </trkpt>
      <trkpt lat="54.031778946518898" lon="10.22713104262948">
        <ele>0</ele>
        <time>2010-01-02T14:32:56Z</time>
      </trkpt>
      <trkpt lat="54.032068122178316" lon="10.226844968274236">
        <ele>0</ele>
        <time>2010-01-02T14:33:09Z</time>
      </trkpt>
      <trkpt lat="54.032238610088825" lon="10.226692752912641">
        <ele>0</ele>
        <time>2010-01-02T14:33:17Z</time>
      </trkpt>
      <trkpt lat="54.032390154898167" lon="10.226549170911312">
        <ele>0</ele>
        <time>2010-01-02T14:33:24Z</time>
      </trkpt>
      <trkpt lat="54.032515045255423" lon="10.226449510082603">
        <ele>0</ele>
        <time>2010-01-02T14:33:29Z</time>
      </trkpt>
      <trkpt lat="54.032589392736554" lon="10.22639025002718">
        <ele>0</ele>
        <time>2010-01-02T14:33:33Z</time>
      </trkpt>
      <trkpt lat="54.032719982787967" lon="10.226290924474597">
        <ele>0</ele>
        <time>2010-01-02T14:33:38Z</time>
      </trkpt>
      <trkpt lat="54.033041261136532" lon="10.226046424359083">
        <ele>0</ele>
        <time>2010-01-02T14:33:52Z</time>
      </trkpt>
      <trkpt lat="54.033399000763893" lon="10.225768480449915">
        <ele>0</ele>
        <time>2010-01-02T14:34:08Z</time>
      </trkpt>
      <trkpt lat="54.033835530281067" lon="10.225430270656943">
        <ele>0</ele>
        <time>2010-01-02T14:34:27Z</time>
      </trkpt>
      <trkpt lat="54.034209530800581" lon="10.225142100825906">
        <ele>0</ele>
        <time>2010-01-02T14:34:44Z</time>
      </trkpt>
      <trkpt lat="54.034250266849995" lon="10.225111255422235">
        <ele>0</ele>
        <time>2010-01-02T14:34:46Z</time>
      </trkpt>
      <trkpt lat="54.034291002899408" lon="10.225081918761134">
        <ele>0</ele>
        <time>2010-01-02T14:34:47Z</time>
      </trkpt>
      <trkpt lat="54.034396950155497" lon="10.225005643442273">
        <ele>0</ele>
        <time>2010-01-02T14:34:52Z</time>
      </trkpt>
      <trkpt lat="54.034773213788867" lon="10.224747313186526">
        <ele>0</ele>
        <time>2010-01-02T14:35:08Z</time>
      </trkpt>
      <trkpt lat="54.034810429438949" lon="10.224721748381853">
        <ele>0</ele>
        <time>2010-01-02T14:35:10Z</time>
      </trkpt>
      <trkpt lat="54.035021234303713" lon="10.224576825276017">
        <ele>0</ele>
        <time>2010-01-02T14:35:19Z</time>
      </trkpt>
      <trkpt lat="54.03511444106698" lon="10.224510859698057">
        <ele>0</ele>
        <time>2010-01-02T14:35:23Z</time>
      </trkpt>
      <trkpt lat="54.035231117159128" lon="10.224436428397894">
        <ele>0</ele>
        <time>2010-01-02T14:35:28Z</time>
      </trkpt>
      <trkpt lat="54.03598171658814" lon="10.223959414288402">
        <ele>0</ele>
        <time>2010-01-02T14:36:00Z</time>
      </trkpt>
      <trkpt lat="54.036330822855234" lon="10.223740730434656">
        <ele>0</ele>
        <time>2010-01-02T14:36:15Z</time>
      </trkpt>
      <trkpt lat="54.036896266043186" lon="10.223355917260051">
        <ele>0</ele>
        <time>2010-01-02T14:36:39Z</time>
      </trkpt>
      <trkpt lat="54.037128612399101" lon="10.223213089630008">
        <ele>0</ele>
        <time>2010-01-02T14:36:49Z</time>
      </trkpt>
      <trkpt lat="54.037272445857525" lon="10.223119631409645">
        <ele>0</ele>
        <time>2010-01-02T14:36:55Z</time>
      </trkpt>
      <trkpt lat="54.03753018938005" lon="10.22295325063169">
        <ele>0</ele>
        <time>2010-01-02T14:37:06Z</time>
      </trkpt>
      <trkpt lat="54.037918020039797" lon="10.222723418846726">
        <ele>0</ele>
        <time>2010-01-02T14:37:23Z</time>
      </trkpt>
      <trkpt lat="54.038108708336949" lon="10.222616046667099">
        <ele>0</ele>
        <time>2010-01-02T14:37:31Z</time>
      </trkpt>
      <trkpt lat="54.038183726370335" lon="10.222567850723863">
        <ele>0</ele>
        <time>2010-01-02T14:37:34Z</time>
      </trkpt>
      <trkpt lat="54.038389921188354" lon="10.222435081377625">
        <ele>0</ele>
        <time>2010-01-02T14:37:43Z</time>
      </trkpt>
      <trkpt lat="54.038688316941261" lon="10.222254535183311">
        <ele>0</ele>
        <time>2010-01-02T14:37:56Z</time>
      </trkpt>
      <trkpt lat="54.039053432643414" lon="10.222039287909865">
        <ele>0</ele>
        <time>2010-01-02T14:38:11Z</time>
      </trkpt>
      <trkpt lat="54.039425924420357" lon="10.221812138333917">
        <ele>0</ele>
        <time>2010-01-02T14:38:27Z</time>
      </trkpt>
      <trkpt lat="54.039543522521853" lon="10.221739215776324">
        <ele>0</ele>
        <time>2010-01-02T14:38:32Z</time>
      </trkpt>
      <trkpt lat="54.03974954970181" lon="10.221617091447115">
        <ele>0</ele>
        <time>2010-01-02T14:38:41Z</time>
      </trkpt>
      <trkpt lat="54.040093794465065" lon="10.221431767567992">
        <ele>0</ele>
        <time>2010-01-02T14:38:55Z</time>
      </trkpt>
      <trkpt lat="54.040236370638013" lon="10.221374854445457">
        <ele>0</ele>
        <time>2010-01-02T14:39:01Z</time>
      </trkpt>
      <trkpt lat="54.040550859645009" lon="10.221281815320253">
        <ele>0</ele>
        <time>2010-01-02T14:39:14Z</time>
      </trkpt>
      <trkpt lat="54.040962662547827" lon="10.221162624657154">
        <ele>0</ele>
        <time>2010-01-02T14:39:30Z</time>
      </trkpt>
      <trkpt lat="54.041335573419929" lon="10.221074363216758">
        <ele>0</ele>
        <time>2010-01-02T14:39:46Z</time>
      </trkpt>
      <trkpt lat="54.041560711339116" lon="10.221022898331285">
        <ele>0</ele>
        <time>2010-01-02T14:39:55Z</time>
      </trkpt>
      <trkpt lat="54.041676884517074" lon="10.22099582478404">
        <ele>0</ele>
        <time>2010-01-02T14:39:59Z</time>
      </trkpt>
      <trkpt lat="54.04183647595346" lon="10.220949053764343">
        <ele>0</ele>
        <time>2010-01-02T14:40:06Z</time>
      </trkpt>
      <trkpt lat="54.041861621662974" lon="10.220941677689552">
        <ele>0</ele>
        <time>2010-01-02T14:40:07Z</time>
      </trkpt>
      <trkpt lat="54.04214283451438" lon="10.220855260267854">
        <ele>0</ele>
        <time>2010-01-02T14:40:18Z</time>
      </trkpt>
      <trkpt lat="54.042175272479653" lon="10.220842519775033">
        <ele>0</ele>
        <time>2010-01-02T14:40:20Z</time>
      </trkpt>
      <trkpt lat="54.042285578325391" lon="10.220801783725619">
        <ele>0</ele>
        <time>2010-01-02T14:40:24Z</time>
      </trkpt>
      <trkpt lat="54.042343916371465" lon="10.220780242234468">
        <ele>0</ele>
        <time>2010-01-02T14:40:26Z</time>
      </trkpt>
      <trkpt lat="54.042520774528384" lon="10.220710672438145">
        <ele>0</ele>
        <time>2010-01-02T14:40:34Z</time>
      </trkpt>
      <trkpt lat="54.042855547741055" lon="10.220567844808102">
        <ele>0</ele>
        <time>2010-01-02T14:40:48Z</time>
      </trkpt>
      <trkpt lat="54.042897121980786" lon="10.220547644421458">
        <ele>0</ele>
        <time>2010-01-02T14:40:49Z</time>
      </trkpt>
      <trkpt lat="54.042998207733035" lon="10.220497185364366">
        <ele>0</ele>
        <time>2010-01-02T14:40:54Z</time>
      </trkpt>
      <trkpt lat="54.043175233528018" lon="10.220409259200096">
        <ele>0</ele>
        <time>2010-01-02T14:41:01Z</time>
      </trkpt>
      <trkpt lat="54.043443538248539" lon="10.220266012474895">
        <ele>0</ele>
        <time>2010-01-02T14:41:12Z</time>
      </trkpt>
      <trkpt lat="54.043520484119654" lon="10.220205662772059">
        <ele>0</ele>
        <time>2010-01-02T14:41:16Z</time>
      </trkpt>
      <trkpt lat="54.043545881286263" lon="10.22018956951797">
        <ele>0</ele>
        <time>2010-01-02T14:41:17Z</time>
      </trkpt>
      <trkpt lat="54.04397327452898" lon="10.219950182363391">
        <ele>0</ele>
        <time>2010-01-02T14:41:35Z</time>
      </trkpt>
      <trkpt lat="54.044310227036476" lon="10.219767708331347">
        <ele>0</ele>
        <time>2010-01-02T14:41:49Z</time>
      </trkpt>
      <trkpt lat="54.044462023302913" lon="10.219685146585107">
        <ele>0</ele>
        <time>2010-01-02T14:41:55Z</time>
      </trkpt>
      <trkpt lat="54.044769303873181" lon="10.219504851847887">
        <ele>0</ele>
        <time>2010-01-02T14:42:08Z</time>
      </trkpt>
      <trkpt lat="54.045114386826754" lon="10.219328664243221">
        <ele>0</ele>
        <time>2010-01-02T14:42:23Z</time>
      </trkpt>
      <trkpt lat="54.045137856155634" lon="10.219317181035876">
        <ele>0</ele>
        <time>2010-01-02T14:42:24Z</time>
      </trkpt>
      <trkpt lat="54.045430468395352" lon="10.219165468588471">
        <ele>0</ele>
        <time>2010-01-02T14:42:36Z</time>
      </trkpt>
      <trkpt lat="54.045487297698855" lon="10.219583893194795">
        <ele>0</ele>
        <time>2010-01-02T14:42:46Z</time>
      </trkpt>
      <trkpt lat="54.045506324619055" lon="10.219923360273242">
        <ele>0</ele>
        <time>2010-01-02T14:42:54Z</time>
      </trkpt>
      <trkpt lat="54.045529123395681" lon="10.220247739925981">
        <ele>0</ele>
        <time>2010-01-02T14:43:02Z</time>
      </trkpt>
      <trkpt lat="54.045527530834079" lon="10.220404900610447">
        <ele>0</ele>
        <time>2010-01-02T14:43:05Z</time>
      </trkpt>
      <trkpt lat="54.045515796169639" lon="10.220584776252508">
        <ele>0</ele>
        <time>2010-01-02T14:43:10Z</time>
      </trkpt>
      <trkpt lat="54.045495428144932" lon="10.220819301903248">
        <ele>0</ele>
        <time>2010-01-02T14:43:15Z</time>
      </trkpt>
      <trkpt lat="54.045590478926897" lon="10.220838831737638">
        <ele>0</ele>
        <time>2010-01-02T14:43:19Z</time>
      </trkpt>
      <trkpt lat="54.04565367847681" lon="10.220900271087885">
        <ele>0</ele>
        <time>2010-01-02T14:43:22Z</time>
      </trkpt>
      <trkpt lat="54.045709585770965" lon="10.220964476466179">
        <ele>0</ele>
        <time>2010-01-02T14:43:25Z</time>
      </trkpt>
      <trkpt lat="54.045755350962281" lon="10.221062041819096">
        <ele>0</ele>
        <time>2010-01-02T14:43:27Z</time>
      </trkpt>
      <trkpt lat="54.045793740078807" lon="10.221177628263831">
        <ele>0</ele>
        <time>2010-01-02T14:43:31Z</time>
      </trkpt>
      <trkpt lat="54.045881582424045" lon="10.221636705100536">
        <ele>0</ele>
        <time>2010-01-02T14:43:42Z</time>
      </trkpt>
      <trkpt lat="54.046071097254753" lon="10.222793407738209">
        <ele>0</ele>
        <time>2010-01-02T14:44:10Z</time>
      </trkpt>
      <trkpt lat="54.046252397820354" lon="10.223957570269704">
        <ele>0</ele>
        <time>2010-01-02T14:44:38Z</time>
      </trkpt>
      <trkpt lat="54.046304114162922" lon="10.223911721259356">
        <ele>0</ele>
        <time>2010-01-02T14:44:41Z</time>
      </trkpt>
      <trkpt lat="54.046319117769599" lon="10.223898645490408">
        <ele>0</ele>
        <time>2010-01-02T14:44:42Z</time>
      </trkpt>
      <trkpt lat="54.046371169388294" lon="10.223852628841996">
        <ele>0</ele>
        <time>2010-01-02T14:44:44Z</time>
      </trkpt>
      <trkpt lat="54.047077847644687" lon="10.223276456817985">
        <ele>0</ele>
        <time>2010-01-02T14:45:15Z</time>
      </trkpt>
      <trkpt lat="54.047384122386575" lon="10.223025921732187">
        <ele>0</ele>
        <time>2010-01-02T14:45:29Z</time>
      </trkpt>
      <trkpt lat="54.048446696251631" lon="10.222176164388657">
        <ele>0</ele>
        <time>2010-01-02T14:46:16Z</time>
      </trkpt>
      <trkpt lat="54.048654148355126" lon="10.222011208534241">
        <ele>0</ele>
        <time>2010-01-02T14:46:25Z</time>
      </trkpt>
      <trkpt lat="54.048753641545773" lon="10.221932167187333">
        <ele>0</ele>
        <time>2010-01-02T14:46:29Z</time>
      </trkpt>
      <trkpt lat="54.049384128302336" lon="10.221431264653802">
        <ele>0</ele>
        <time>2010-01-02T14:46:57Z</time>
      </trkpt>
      <trkpt lat="54.049426792189479" lon="10.221397234126925">
        <ele>0</ele>
        <time>2010-01-02T14:46:59Z</time>
      </trkpt>
      <trkpt lat="54.049467528238893" lon="10.221363287419081">
        <ele>0</ele>
        <time>2010-01-02T14:47:01Z</time>
      </trkpt>
      <trkpt lat="54.050091812387109" lon="10.220850231125951">
        <ele>0</ele>
        <time>2010-01-02T14:47:29Z</time>
      </trkpt>
      <trkpt lat="54.050689358264208" lon="10.220399033278227">
        <ele>0</ele>
        <time>2010-01-02T14:47:55Z</time>
      </trkpt>
      <trkpt lat="54.051676914095879" lon="10.219591185450554">
        <ele>0</ele>
        <time>2010-01-02T14:48:39Z</time>
      </trkpt>
      <trkpt lat="54.052427932620049" lon="10.218982575461268">
        <ele>0</ele>
        <time>2010-01-02T14:49:12Z</time>
      </trkpt>
      <trkpt lat="54.053477346897125" lon="10.218193335458636">
        <ele>0</ele>
        <time>2010-01-02T14:49:58Z</time>
      </trkpt>
      <trkpt lat="54.054324924945831" lon="10.217538541182876">
        <ele>0</ele>
        <time>2010-01-02T14:50:35Z</time>
      </trkpt>
      <trkpt lat="54.055120199918747" lon="10.216909814625978">
        <ele>0</ele>
        <time>2010-01-02T14:51:10Z</time>
      </trkpt>
      <trkpt lat="54.05560702085495" lon="10.216572610661387">
        <ele>0</ele>
        <time>2010-01-02T14:51:31Z</time>
      </trkpt>
      <trkpt lat="54.055767199024558" lon="10.21643590182066">
        <ele>0</ele>
        <time>2010-01-02T14:51:38Z</time>
      </trkpt>
      <trkpt lat="54.055928885936737" lon="10.216265749186277">
        <ele>0</ele>
        <time>2010-01-02T14:51:46Z</time>
      </trkpt>
      <trkpt lat="54.056305317208171" lon="10.215890575200319">
        <ele>0</ele>
        <time>2010-01-02T14:52:04Z</time>
      </trkpt>
      <trkpt lat="54.056619638577104" lon="10.215550940483809">
        <ele>0</ele>
        <time>2010-01-02T14:52:18Z</time>
      </trkpt>
      <trkpt lat="54.057017443701625" lon="10.215128911659122">
        <ele>0</ele>
        <time>2010-01-02T14:52:37Z</time>
      </trkpt>
      <trkpt lat="54.057740299031138" lon="10.214316956698895">
        <ele>0</ele>
        <time>2010-01-02T14:53:12Z</time>
      </trkpt>
      <trkpt lat="54.057980021461844" lon="10.214959178119898">
        <ele>0</ele>
        <time>2010-01-02T14:53:30Z</time>
      </trkpt>
      <trkpt lat="54.057991337031126" lon="10.214991616085172">
        <ele>0</ele>
        <time>2010-01-02T14:53:31Z</time>
      </trkpt>
      <trkpt lat="54.0583760663867" lon="10.216047484427691">
        <ele>0</ele>
        <time>2010-01-02T14:54:00Z</time>
      </trkpt>
      <trkpt lat="54.058703128248453" lon="10.21692750044167">
        <ele>0</ele>
        <time>2010-01-02T14:54:24Z</time>
      </trkpt>
      <trkpt lat="54.05883832834661" lon="10.217284569516778">
        <ele>0</ele>
        <time>2010-01-02T14:54:34Z</time>
      </trkpt>
      <trkpt lat="54.058971935883164" lon="10.217553460970521">
        <ele>0</ele>
        <time>2010-01-02T14:54:43Z</time>
      </trkpt>
      <trkpt lat="54.059176035225391" lon="10.217877589166164">
        <ele>0</ele>
        <time>2010-01-02T14:54:54Z</time>
      </trkpt>
      <trkpt lat="54.059315929189324" lon="10.218077162280679">
        <ele>0</ele>
        <time>2010-01-02T14:55:01Z</time>
      </trkpt>
      <trkpt lat="54.059450039640069" lon="10.218236837536097">
        <ele>0</ele>
        <time>2010-01-02T14:55:08Z</time>
      </trkpt>
      <trkpt lat="54.059547940269113" lon="10.218329792842269">
        <ele>0</ele>
        <time>2010-01-02T14:55:12Z</time>
      </trkpt>
      <trkpt lat="54.059638883918524" lon="10.218398189172149">
        <ele>0</ele>
        <time>2010-01-02T14:55:16Z</time>
      </trkpt>
      <trkpt lat="54.059990253299475" lon="10.218655848875642">
        <ele>0</ele>
        <time>2010-01-02T14:55:31Z</time>
      </trkpt>
      <trkpt lat="54.061423391103745" lon="10.219716578722">
        <ele>0</ele>
        <time>2010-01-02T14:56:34Z</time>
      </trkpt>
      <trkpt lat="54.061500923708081" lon="10.219773827120662">
        <ele>0</ele>
        <time>2010-01-02T14:56:37Z</time>
      </trkpt>
      <trkpt lat="54.062266107648611" lon="10.220336923375726">
        <ele>0</ele>
        <time>2010-01-02T14:57:11Z</time>
      </trkpt>
      <trkpt lat="54.062576489523053" lon="10.220564408227801">
        <ele>0</ele>
        <time>2010-01-02T14:57:24Z</time>
      </trkpt>
      <trkpt lat="54.06271118670702" lon="10.22066306322813">
        <ele>0</ele>
        <time>2010-01-02T14:57:30Z</time>
      </trkpt>
      <trkpt lat="54.062813529744744" lon="10.220754677429795">
        <ele>0</ele>
        <time>2010-01-02T14:57:35Z</time>
      </trkpt>
      <trkpt lat="54.063122654333711" lon="10.22101728245616">
        <ele>0</ele>
        <time>2010-01-02T14:57:48Z</time>
      </trkpt>
      <trkpt lat="54.063398251309991" lon="10.221220878884196">
        <ele>0</ele>
        <time>2010-01-02T14:58:01Z</time>
      </trkpt>
      <trkpt lat="54.063742579892278" lon="10.221468983218074">
        <ele>0</ele>
        <time>2010-01-02T14:58:15Z</time>
      </trkpt>
      <trkpt lat="54.063800498843193" lon="10.221510641276836">
        <ele>0</ele>
        <time>2010-01-02T14:58:18Z</time>
      </trkpt>
      <trkpt lat="54.063916252925992" lon="10.221599154174328">
        <ele>0</ele>
        <time>2010-01-02T14:58:23Z</time>
      </trkpt>
      <trkpt lat="54.063989510759711" lon="10.221655229106545">
        <ele>0</ele>
        <time>2010-01-02T14:58:26Z</time>
      </trkpt>
      <trkpt lat="54.064141977578402" lon="10.22177274338901">
        <ele>0</ele>
        <time>2010-01-02T14:58:33Z</time>
      </trkpt>
      <trkpt lat="54.064226383343339" lon="10.221837870776653">
        <ele>0</ele>
        <time>2010-01-02T14:58:37Z</time>
      </trkpt>
      <trkpt lat="54.064300647005439" lon="10.221895035356283">
        <ele>0</ele>
        <time>2010-01-02T14:58:40Z</time>
      </trkpt>
      <trkpt lat="54.06443802639842" lon="10.221987152472138">
        <ele>0</ele>
        <time>2010-01-02T14:58:46Z</time>
      </trkpt>
      <trkpt lat="54.064600467681885" lon="10.222096284851432">
        <ele>0</ele>
        <time>2010-01-02T14:58:53Z</time>
      </trkpt>
      <trkpt lat="54.064802220091224" lon="10.222225952893496">
        <ele>0</ele>
        <time>2010-01-02T14:59:01Z</time>
      </trkpt>
      <trkpt lat="54.065047726035118" lon="10.222382778301835">
        <ele>0</ele>
        <time>2010-01-02T14:59:12Z</time>
      </trkpt>
      <trkpt lat="54.065128108486533" lon="10.222434075549245">
        <ele>0</ele>
        <time>2010-01-02T14:59:15Z</time>
      </trkpt>
      <trkpt lat="54.065184686332941" lon="10.222469614818692">
        <ele>0</ele>
        <time>2010-01-02T14:59:18Z</time>
      </trkpt>
      <trkpt lat="54.065309995785356" lon="10.222548488527536">
        <ele>0</ele>
        <time>2010-01-02T14:59:23Z</time>
      </trkpt>
      <trkpt lat="54.066021703183651" lon="10.222996501252055">
        <ele>0</ele>
        <time>2010-01-02T14:59:54Z</time>
      </trkpt>
      <trkpt lat="54.066190430894494" lon="10.223106807097793">
        <ele>0</ele>
        <time>2010-01-02T15:00:01Z</time>
      </trkpt>
      <trkpt lat="54.066464100033045" lon="10.223316522315145">
        <ele>0</ele>
        <time>2010-01-02T15:00:13Z</time>
      </trkpt>
      <trkpt lat="54.066636934876442" lon="10.223465133458376">
        <ele>0</ele>
        <time>2010-01-02T15:00:21Z</time>
      </trkpt>
      <trkpt lat="54.067004146054387" lon="10.223752465099096">
        <ele>0</ele>
        <time>2010-01-02T15:00:37Z</time>
      </trkpt>
      <trkpt lat="54.067114619538188" lon="10.223848856985569">
        <ele>0</ele>
        <time>2010-01-02T15:00:42Z</time>
      </trkpt>
      <trkpt lat="54.06718410551548" lon="10.223908955231309">
        <ele>0</ele>
        <time>2010-01-02T15:00:45Z</time>
      </trkpt>
      <trkpt lat="54.067350402474403" lon="10.22407122887671">
        <ele>0</ele>
        <time>2010-01-02T15:00:52Z</time>
      </trkpt>
      <trkpt lat="54.067503958940506" lon="10.224259067326784">
        <ele>0</ele>
        <time>2010-01-02T15:01:00Z</time>
      </trkpt>
      <trkpt lat="54.067704286426306" lon="10.224524606019258">
        <ele>0</ele>
        <time>2010-01-02T15:01:10Z</time>
      </trkpt>
      <trkpt lat="54.067944511771202" lon="10.224849404767156">
        <ele>0</ele>
        <time>2010-01-02T15:01:22Z</time>
      </trkpt>
      <trkpt lat="54.068246176466346" lon="10.225221896544099">
        <ele>0</ele>
        <time>2010-01-02T15:01:37Z</time>
      </trkpt>
      <trkpt lat="54.068536860868335" lon="10.225615343078971">
        <ele>0</ele>
        <time>2010-01-02T15:01:52Z</time>
      </trkpt>
      <trkpt lat="54.068601652979851" lon="10.225697904825211">
        <ele>0</ele>
        <time>2010-01-02T15:01:55Z</time>
      </trkpt>
      <trkpt lat="54.068705923855305" lon="10.225831177085638">
        <ele>0</ele>
        <time>2010-01-02T15:02:01Z</time>
      </trkpt>
      <trkpt lat="54.068945897743106" lon="10.226126974448562">
        <ele>0</ele>
        <time>2010-01-02T15:02:13Z</time>
      </trkpt>
      <trkpt lat="54.069175980985165" lon="10.226382706314325">
        <ele>0</ele>
        <time>2010-01-02T15:02:24Z</time>
      </trkpt>
      <trkpt lat="54.06948259100318" lon="10.226709516718984">
        <ele>0</ele>
        <time>2010-01-02T15:02:38Z</time>
      </trkpt>
      <trkpt lat="54.069487955421209" lon="10.226715803146362">
        <ele>0</ele>
        <time>2010-01-02T15:02:38Z</time>
      </trkpt>
      <trkpt lat="54.069564146921039" lon="10.226782020181417">
        <ele>0</ele>
        <time>2010-01-02T15:02:42Z</time>
      </trkpt>
      <trkpt lat="54.069653581827879" lon="10.226859636604786">
        <ele>0</ele>
        <time>2010-01-02T15:02:46Z</time>
      </trkpt>
      <trkpt lat="54.06978802755475" lon="10.226978240534663">
        <ele>0</ele>
        <time>2010-01-02T15:02:52Z</time>
      </trkpt>
      <trkpt lat="54.069943344220519" lon="10.227080583572388">
        <ele>0</ele>
        <time>2010-01-02T15:02:58Z</time>
      </trkpt>
      <trkpt lat="54.070146437734365" lon="10.227164486423135">
        <ele>0</ele>
        <time>2010-01-02T15:03:07Z</time>
      </trkpt>
      <trkpt lat="54.070313489064574" lon="10.227262554690242">
        <ele>0</ele>
        <time>2010-01-02T15:03:14Z</time>
      </trkpt>
      <trkpt lat="54.070497555658221" lon="10.227451315149665">
        <ele>0</ele>
        <time>2010-01-02T15:03:23Z</time>
      </trkpt>
      <trkpt lat="54.070572908967733" lon="10.227545192465186">
        <ele>0</ele>
        <time>2010-01-02T15:03:26Z</time>
      </trkpt>
      <trkpt lat="54.070769045501947" lon="10.227789273485541">
        <ele>0</ele>
        <time>2010-01-02T15:03:36Z</time>
      </trkpt>
      <trkpt lat="54.070906927809119" lon="10.227920198813081">
        <ele>0</ele>
        <time>2010-01-02T15:03:42Z</time>
      </trkpt>
      <trkpt lat="54.070676928386092" lon="10.228592930361629">
        <ele>0</ele>
        <time>2010-01-02T15:04:01Z</time>
      </trkpt>
      <trkpt lat="54.070475427433848" lon="10.229175388813019">
        <ele>0</ele>
        <time>2010-01-02T15:04:16Z</time>
      </trkpt>
      <trkpt lat="54.070289013907313" lon="10.229652570560575">
        <ele>0</ele>
        <time>2010-01-02T15:04:30Z</time>
      </trkpt>
      <trkpt lat="54.070161273702979" lon="10.230024643242359">
        <ele>0</ele>
        <time>2010-01-02T15:04:40Z</time>
      </trkpt>
      <trkpt lat="54.070074269548059" lon="10.230266461148858">
        <ele>0</ele>
        <time>2010-01-02T15:04:47Z</time>
      </trkpt>
      <trkpt lat="54.070008555427194" lon="10.230548679828644">
        <ele>0</ele>
        <time>2010-01-02T15:04:54Z</time>
      </trkpt>
      <trkpt lat="54.069970166310668" lon="10.230787396430969">
        <ele>0</ele>
        <time>2010-01-02T15:05:00Z</time>
      </trkpt>
      <trkpt lat="54.069946780800819" lon="10.230963919311762">
        <ele>0</ele>
        <time>2010-01-02T15:05:04Z</time>
      </trkpt>
      <trkpt lat="54.069942170754075" lon="10.231059975922108">
        <ele>0</ele>
        <time>2010-01-02T15:05:06Z</time>
      </trkpt>
      <trkpt lat="54.069933034479618" lon="10.231255274266005">
        <ele>0</ele>
        <time>2010-01-02T15:05:11Z</time>
      </trkpt>
      <trkpt lat="54.069908894598484" lon="10.231416458263993">
        <ele>0</ele>
        <time>2010-01-02T15:05:15Z</time>
      </trkpt>
      <trkpt lat="54.06988131813705" lon="10.23152181878686">
        <ele>0</ele>
        <time>2010-01-02T15:05:17Z</time>
      </trkpt>
      <trkpt lat="54.069860614836216" lon="10.231567835435271">
        <ele>0</ele>
        <time>2010-01-02T15:05:19Z</time>
      </trkpt>
      <trkpt lat="54.069827841594815" lon="10.231611169874668">
        <ele>0</ele>
        <time>2010-01-02T15:05:20Z</time>
      </trkpt>
      <trkpt lat="54.069793475791812" lon="10.231631537899375">
        <ele>0</ele>
        <time>2010-01-02T15:05:22Z</time>
      </trkpt>
      <trkpt lat="54.069732204079628" lon="10.231651067733765">
        <ele>0</ele>
        <time>2010-01-02T15:05:24Z</time>
      </trkpt>
      <trkpt lat="54.06979045830667" lon="10.231750560924411">
        <ele>0</ele>
        <time>2010-01-02T15:05:28Z</time>
      </trkpt>
      <trkpt lat="54.069831948727369" lon="10.231822058558464">
        <ele>0</ele>
        <time>2010-01-02T15:05:30Z</time>
      </trkpt>
      <trkpt lat="54.069867739453912" lon="10.232012579217553">
        <ele>0</ele>
        <time>2010-01-02T15:05:35Z</time>
      </trkpt>
      <trkpt lat="54.069914845749736" lon="10.232152976095676">
        <ele>0</ele>
        <time>2010-01-02T15:05:39Z</time>
      </trkpt>
      <trkpt lat="54.069991121068597" lon="10.23233394138515">
        <ele>0</ele>
        <time>2010-01-02T15:05:44Z</time>
      </trkpt>
      <trkpt lat="54.070086423307657" lon="10.232506357133389">
        <ele>0</ele>
        <time>2010-01-02T15:05:49Z</time>
      </trkpt>
      <trkpt lat="54.070097990334034" lon="10.232518929988146">
        <ele>0</ele>
        <time>2010-01-02T15:05:50Z</time>
      </trkpt>
      <trkpt lat="54.070200081914663" lon="10.232638036832213">
        <ele>0</ele>
        <time>2010-01-02T15:05:55Z</time>
      </trkpt>
      <trkpt lat="54.070258000865579" lon="10.232682544738054">
        <ele>0</ele>
        <time>2010-01-02T15:05:57Z</time>
      </trkpt>
      <trkpt lat="54.070464866235852" lon="10.232841381803155">
        <ele>0</ele>
        <time>2010-01-02T15:06:06Z</time>
      </trkpt>
      <trkpt lat="54.070585314184427" lon="10.232916818931699">
        <ele>0</ele>
        <time>2010-01-02T15:06:12Z</time>
      </trkpt>
      <trkpt lat="54.070697128772736" lon="10.232964428141713">
        <ele>0</ele>
        <time>2010-01-02T15:06:16Z</time>
      </trkpt>
      <trkpt lat="54.070840543136001" lon="10.233003823086619">
        <ele>0</ele>
        <time>2010-01-02T15:06:22Z</time>
      </trkpt>
      <trkpt lat="54.070991249755025" lon="10.233023520559072">
        <ele>0</ele>
        <time>2010-01-02T15:06:28Z</time>
      </trkpt>
      <trkpt lat="54.071100549772382" lon="10.233054282143712">
        <ele>0</ele>
        <time>2010-01-02T15:06:33Z</time>
      </trkpt>
      <trkpt lat="54.071167604997754" lon="10.233089905232191">
        <ele>0</ele>
        <time>2010-01-02T15:06:35Z</time>
      </trkpt>
      <trkpt lat="54.071212783455849" lon="10.233124857768416">
        <ele>0</ele>
        <time>2010-01-02T15:06:37Z</time>
      </trkpt>
      <trkpt lat="54.071250502020121" lon="10.23315193131566">
        <ele>0</ele>
        <time>2010-01-02T15:06:39Z</time>
      </trkpt>
      <trkpt lat="54.071289729326963" lon="10.233183614909649">
        <ele>0</ele>
        <time>2010-01-02T15:06:41Z</time>
      </trkpt>
      <trkpt lat="54.071362400427461" lon="10.233279000967741">
        <ele>0</ele>
        <time>2010-01-02T15:06:44Z</time>
      </trkpt>
      <trkpt lat="54.071543030440807" lon="10.233542528003454">
        <ele>0</ele>
        <time>2010-01-02T15:06:54Z</time>
      </trkpt>
      <trkpt lat="54.071798678487539" lon="10.233932035043836">
        <ele>0</ele>
        <time>2010-01-02T15:07:08Z</time>
      </trkpt>
      <trkpt lat="54.071818124502897" lon="10.233963131904602">
        <ele>0</ele>
        <time>2010-01-02T15:07:09Z</time>
      </trkpt>
      <trkpt lat="54.0719975810498" lon="10.234246524050832">
        <ele>0</ele>
        <time>2010-01-02T15:07:18Z</time>
      </trkpt>
      <trkpt lat="54.072091206908226" lon="10.234408210963011">
        <ele>0</ele>
        <time>2010-01-02T15:07:24Z</time>
      </trkpt>
      <trkpt lat="54.072165302932262" lon="10.234540225937963">
        <ele>0</ele>
        <time>2010-01-02T15:07:28Z</time>
      </trkpt>
      <trkpt lat="54.07221894711256" lon="10.23465639911592">
        <ele>0</ele>
        <time>2010-01-02T15:07:32Z</time>
      </trkpt>
      <trkpt lat="54.072272339835763" lon="10.234793946146965">
        <ele>0</ele>
        <time>2010-01-02T15:07:35Z</time>
      </trkpt>
      <trkpt lat="54.072303520515561" lon="10.234903329983354">
        <ele>0</ele>
        <time>2010-01-02T15:07:38Z</time>
      </trkpt>
      <trkpt lat="54.072346435859799" lon="10.23509711958468">
        <ele>0</ele>
        <time>2010-01-02T15:07:43Z</time>
      </trkpt>
      <trkpt lat="54.072351548820734" lon="10.235124779865146">
        <ele>0</ele>
        <time>2010-01-02T15:07:44Z</time>
      </trkpt>
      <trkpt lat="54.072375437244773" lon="10.235249251127243">
        <ele>0</ele>
        <time>2010-01-02T15:07:47Z</time>
      </trkpt>
      <trkpt lat="54.072395469993353" lon="10.23540104739368">
        <ele>0</ele>
        <time>2010-01-02T15:07:51Z</time>
      </trkpt>
      <trkpt lat="54.072410892695189" lon="10.23560481145978">
        <ele>0</ele>
        <time>2010-01-02T15:07:55Z</time>
      </trkpt>
      <trkpt lat="54.072419023141265" lon="10.235784016549587">
        <ele>0</ele>
        <time>2010-01-02T15:08:00Z</time>
      </trkpt>
      <trkpt lat="54.07242271117866" lon="10.235962802544236">
        <ele>0</ele>
        <time>2010-01-02T15:08:04Z</time>
      </trkpt>
      <trkpt lat="54.072423214092851" lon="10.2368073631078">
        <ele>0</ele>
        <time>2010-01-02T15:08:24Z</time>
      </trkpt>
      <trkpt lat="54.072427907958627" lon="10.237753177061677">
        <ele>0</ele>
        <time>2010-01-02T15:08:46Z</time>
      </trkpt>
      <trkpt lat="54.072430171072483" lon="10.238271178677678">
        <ele>0</ele>
        <time>2010-01-02T15:08:58Z</time>
      </trkpt>
      <trkpt lat="54.07242120243609" lon="10.238475780934095">
        <ele>0</ele>
        <time>2010-01-02T15:09:03Z</time>
      </trkpt>
      <trkpt lat="54.072407875210047" lon="10.238656243309379">
        <ele>0</ele>
        <time>2010-01-02T15:09:07Z</time>
      </trkpt>
      <trkpt lat="54.072405695915222" lon="10.238684406504035">
        <ele>0</ele>
        <time>2010-01-02T15:09:08Z</time>
      </trkpt>
      <trkpt lat="54.07230393961072" lon="10.239488063380122">
        <ele>0</ele>
        <time>2010-01-02T15:09:27Z</time>
      </trkpt>
      <trkpt lat="54.072236549109221" lon="10.240013105794787">
        <ele>0</ele>
        <time>2010-01-02T15:09:40Z</time>
      </trkpt>
      <trkpt lat="54.072221210226417" lon="10.240195915102959">
        <ele>0</ele>
        <time>2010-01-02T15:09:44Z</time>
      </trkpt>
      <trkpt lat="54.072222467511892" lon="10.240249475464225">
        <ele>0</ele>
        <time>2010-01-02T15:09:45Z</time>
      </trkpt>
      <trkpt lat="54.072229089215398" lon="10.240306137129664">
        <ele>0</ele>
        <time>2010-01-02T15:09:47Z</time>
      </trkpt>
      <trkpt lat="54.072260688990355" lon="10.240377383306623">
        <ele>0</ele>
        <time>2010-01-02T15:09:49Z</time>
      </trkpt>
      <trkpt lat="54.072417765855789" lon="10.240389704704285">
        <ele>0</ele>
        <time>2010-01-02T15:09:55Z</time>
      </trkpt>
      <trkpt lat="54.072587415575981" lon="10.240403953939676">
        <ele>0</ele>
        <time>2010-01-02T15:10:02Z</time>
      </trkpt>
      <trkpt lat="54.072700571268797" lon="10.240407306700945">
        <ele>0</ele>
        <time>2010-01-02T15:10:06Z</time>
      </trkpt>
      <trkpt lat="54.072773158550262" lon="10.240429351106286">
        <ele>0</ele>
        <time>2010-01-02T15:10:09Z</time>
      </trkpt>
      <trkpt lat="54.07282680273056" lon="10.24045541882515">
        <ele>0</ele>
        <time>2010-01-02T15:10:12Z</time>
      </trkpt>
      <trkpt lat="54.072871478274465" lon="10.240481151267886">
        <ele>0</ele>
        <time>2010-01-02T15:10:13Z</time>
      </trkpt>
      <trkpt lat="54.072886649519205" lon="10.240490790456533">
        <ele>0</ele>
        <time>2010-01-02T15:10:14Z</time>
      </trkpt>
      <trkpt lat="54.07294012606144" lon="10.240530604496598">
        <ele>0</ele>
        <time>2010-01-02T15:10:16Z</time>
      </trkpt>
      <trkpt lat="54.072992680594325" lon="10.240579470992088">
        <ele>0</ele>
        <time>2010-01-02T15:10:19Z</time>
      </trkpt>
      <trkpt lat="54.073050348088145" lon="10.240643844008446">
        <ele>0</ele>
        <time>2010-01-02T15:10:22Z</time>
      </trkpt>
      <trkpt lat="54.073090916499496" lon="10.240721460431814">
        <ele>0</ele>
        <time>2010-01-02T15:10:24Z</time>
      </trkpt>
      <trkpt lat="54.073138441890478" lon="10.240820618346334">
        <ele>0</ele>
        <time>2010-01-02T15:10:27Z</time>
      </trkpt>
      <trkpt lat="54.073150344192982" lon="10.240853726863861">
        <ele>0</ele>
        <time>2010-01-02T15:10:28Z</time>
      </trkpt>
      <trkpt lat="54.073239779099822" lon="10.241100154817104">
        <ele>0</ele>
        <time>2010-01-02T15:10:35Z</time>
      </trkpt>
      <trkpt lat="54.073292585089803" lon="10.241269217804074">
        <ele>0</ele>
        <time>2010-01-02T15:10:39Z</time>
      </trkpt>
      <trkpt lat="54.073420660570264" lon="10.241678506135941">
        <ele>0</ele>
        <time>2010-01-02T15:10:50Z</time>
      </trkpt>
      <trkpt lat="54.073626352474093" lon="10.242378227412701">
        <ele>0</ele>
        <time>2010-01-02T15:11:09Z</time>
      </trkpt>
      <trkpt lat="54.073669435456395" lon="10.242520719766617">
        <ele>0</ele>
        <time>2010-01-02T15:11:12Z</time>
      </trkpt>
      <trkpt lat="54.073927849531174" lon="10.243375757709146">
        <ele>0</ele>
        <time>2010-01-02T15:11:35Z</time>
      </trkpt>
      <trkpt lat="54.073984259739518" lon="10.243562255054712">
        <ele>0</ele>
        <time>2010-01-02T15:11:40Z</time>
      </trkpt>
      <trkpt lat="54.074096074327826" lon="10.243924940004945">
        <ele>0</ele>
        <time>2010-01-02T15:11:49Z</time>
      </trkpt>
      <trkpt lat="54.074244182556868" lon="10.244405725970864">
        <ele>0</ele>
        <time>2010-01-02T15:12:02Z</time>
      </trkpt>
      <trkpt lat="54.074289612472057" lon="10.244536986574531">
        <ele>0</ele>
        <time>2010-01-02T15:12:06Z</time>
      </trkpt>
      <trkpt lat="54.074330264702439" lon="10.244599264115095">
        <ele>0</ele>
        <time>2010-01-02T15:12:08Z</time>
      </trkpt>
      <trkpt lat="54.074382903054357" lon="10.244634468108416">
        <ele>0</ele>
        <time>2010-01-02T15:12:10Z</time>
      </trkpt>
      <trkpt lat="54.074394553899765" lon="10.244636395946145">
        <ele>0</ele>
        <time>2010-01-02T15:12:11Z</time>
      </trkpt>
      <trkpt lat="54.074432188645005" lon="10.244645113125443">
        <ele>0</ele>
        <time>2010-01-02T15:12:12Z</time>
      </trkpt>
      <trkpt lat="54.074528161436319" lon="10.244579063728452">
        <ele>0</ele>
        <time>2010-01-02T15:12:16Z</time>
      </trkpt>
      <trkpt lat="54.074725471436977" lon="10.244443109259009">
        <ele>0</ele>
        <time>2010-01-02T15:12:25Z</time>
      </trkpt>
      <trkpt lat="54.074833262711763" lon="10.244351578876376">
        <ele>0</ele>
        <time>2010-01-02T15:12:30Z</time>
      </trkpt>
      <trkpt lat="54.074925296008587" lon="10.24431461468339">
        <ele>0</ele>
        <time>2010-01-02T15:12:34Z</time>
      </trkpt>
      <trkpt lat="54.075005762279034" lon="10.244356691837311">
        <ele>0</ele>
        <time>2010-01-02T15:12:37Z</time>
      </trkpt>
      <trkpt lat="54.075073068961501" lon="10.244445791468024">
        <ele>0</ele>
        <time>2010-01-02T15:12:40Z</time>
      </trkpt>
      <trkpt lat="54.075117912143469" lon="10.244546458125114">
        <ele>0</ele>
        <time>2010-01-02T15:12:43Z</time>
      </trkpt>
      <trkpt lat="54.075179100036621" lon="10.244707223027945">
        <ele>0</ele>
        <time>2010-01-02T15:12:48Z</time>
      </trkpt>
      <trkpt lat="54.075301894918084" lon="10.244995057582855">
        <ele>0</ele>
        <time>2010-01-02T15:12:56Z</time>
      </trkpt>
      <trkpt lat="54.075390575453639" lon="10.245200917124748">
        <ele>0</ele>
        <time>2010-01-02T15:13:02Z</time>
      </trkpt>
      <trkpt lat="54.075531139969826" lon="10.245506102219224">
        <ele>0</ele>
        <time>2010-01-02T15:13:11Z</time>
      </trkpt>
      <trkpt lat="54.07568670809269" lon="10.245839282870293">
        <ele>0</ele>
        <time>2010-01-02T15:13:21Z</time>
      </trkpt>
      <trkpt lat="54.07577128149569" lon="10.24600675329566">
        <ele>0</ele>
        <time>2010-01-02T15:13:26Z</time>
      </trkpt>
      <trkpt lat="54.075826434418559" lon="10.246142875403166">
        <ele>0</ele>
        <time>2010-01-02T15:13:30Z</time>
      </trkpt>
      <trkpt lat="54.075873624533415" lon="10.246268101036549">
        <ele>0</ele>
        <time>2010-01-02T15:13:34Z</time>
      </trkpt>
      <trkpt lat="54.075972698628902" lon="10.24659650400281">
        <ele>0</ele>
        <time>2010-01-02T15:13:42Z</time>
      </trkpt>
      <trkpt lat="54.0760712698102" lon="10.246969163417816">
        <ele>0</ele>
        <time>2010-01-02T15:13:52Z</time>
      </trkpt>
      <trkpt lat="54.076140923425555" lon="10.247269151732326">
        <ele>0</ele>
        <time>2010-01-02T15:14:00Z</time>
      </trkpt>
      <trkpt lat="54.076213929802179" lon="10.247589172795415">
        <ele>0</ele>
        <time>2010-01-02T15:14:08Z</time>
      </trkpt>
      <trkpt lat="54.076263215392828" lon="10.247864099219441">
        <ele>0</ele>
        <time>2010-01-02T15:14:14Z</time>
      </trkpt>
      <trkpt lat="54.076339658349752" lon="10.248376736417413">
        <ele>0</ele>
        <time>2010-01-02T15:14:27Z</time>
      </trkpt>
      <trkpt lat="54.076364720240235" lon="10.248556276783347">
        <ele>0</ele>
        <time>2010-01-02T15:14:31Z</time>
      </trkpt>
      <trkpt lat="54.076373437419534" lon="10.248674126341939">
        <ele>0</ele>
        <time>2010-01-02T15:14:34Z</time>
      </trkpt>
      <trkpt lat="54.07637226395309" lon="10.248781079426408">
        <ele>0</ele>
        <time>2010-01-02T15:14:37Z</time>
      </trkpt>
      <trkpt lat="54.076327001675963" lon="10.248989034444094">
        <ele>0</ele>
        <time>2010-01-02T15:14:42Z</time>
      </trkpt>
      <trkpt lat="54.076309651136398" lon="10.249103112146258">
        <ele>0</ele>
        <time>2010-01-02T15:14:44Z</time>
      </trkpt>
      <trkpt lat="54.076304873451591" lon="10.249220626428723">
        <ele>0</ele>
        <time>2010-01-02T15:14:47Z</time>
      </trkpt>
      <trkpt lat="54.076305124908686" lon="10.249449787661433">
        <ele>0</ele>
        <time>2010-01-02T15:14:53Z</time>
      </trkpt>
      <trkpt lat="54.076321218162775" lon="10.249981954693794">
        <ele>0</ele>
        <time>2010-01-02T15:15:05Z</time>
      </trkpt>
      <trkpt lat="54.076329516246915" lon="10.250130398198962">
        <ele>0</ele>
        <time>2010-01-02T15:15:09Z</time>
      </trkpt>
      <trkpt lat="54.076349046081305" lon="10.250500710681081">
        <ele>0</ele>
        <time>2010-01-02T15:15:17Z</time>
      </trkpt>
      <trkpt lat="54.076350638642907" lon="10.2505221683532">
        <ele>0</ele>
        <time>2010-01-02T15:15:18Z</time>
      </trkpt>
      <trkpt lat="54.076393470168114" lon="10.250975713133812">
        <ele>0</ele>
        <time>2010-01-02T15:15:29Z</time>
      </trkpt>
      <trkpt lat="54.076418867334723" lon="10.251213340088725">
        <ele>0</ele>
        <time>2010-01-02T15:15:34Z</time>
      </trkpt>
      <trkpt lat="54.076472092419863" lon="10.251712985336781">
        <ele>0</ele>
        <time>2010-01-02T15:15:46Z</time>
      </trkpt>
      <trkpt lat="54.076510397717357" lon="10.252093020826578">
        <ele>0</ele>
        <time>2010-01-02T15:15:55Z</time>
      </trkpt>
      <trkpt lat="54.076544428244233" lon="10.252363001927733">
        <ele>0</ele>
        <time>2010-01-02T15:16:02Z</time>
      </trkpt>
      <trkpt lat="54.076549708843231" lon="10.252456376329064">
        <ele>0</ele>
        <time>2010-01-02T15:16:04Z</time>
      </trkpt>
      <trkpt lat="54.076545601710677" lon="10.252506667748094">
        <ele>0</ele>
        <time>2010-01-02T15:16:05Z</time>
      </trkpt>
      <trkpt lat="54.076528921723366" lon="10.252552013844252">
        <ele>0</ele>
        <time>2010-01-02T15:16:06Z</time>
      </trkpt>
      <trkpt lat="54.076494220644236" lon="10.252605909481645">
        <ele>0</ele>
        <time>2010-01-02T15:16:08Z</time>
      </trkpt>
      <trkpt lat="54.076444264501333" lon="10.252659469842911">
        <ele>0</ele>
        <time>2010-01-02T15:16:11Z</time>
      </trkpt>
      <trkpt lat="54.076309148222208" lon="10.252779079601169">
        <ele>0</ele>
        <time>2010-01-02T15:16:17Z</time>
      </trkpt>
      <trkpt lat="54.076193729415536" lon="10.252908580005169">
        <ele>0</ele>
        <time>2010-01-02T15:16:22Z</time>
      </trkpt>
      <trkpt lat="54.076054422184825" lon="10.253078565001488">
        <ele>0</ele>
        <time>2010-01-02T15:16:29Z</time>
      </trkpt>
      <trkpt lat="54.075893322005868" lon="10.253278389573097">
        <ele>0</ele>
        <time>2010-01-02T15:16:37Z</time>
      </trkpt>
      <trkpt lat="54.075650246813893" lon="10.253585837781429">
        <ele>0</ele>
        <time>2010-01-02T15:16:49Z</time>
      </trkpt>
      <trkpt lat="54.075596434995532" lon="10.253659095615149">
        <ele>0</ele>
        <time>2010-01-02T15:16:52Z</time>
      </trkpt>
      <trkpt lat="54.07556165009737" lon="10.253723720088601">
        <ele>0</ele>
        <time>2010-01-02T15:16:54Z</time>
      </trkpt>
      <trkpt lat="54.075559806078672" lon="10.253728246316314">
        <ele>0</ele>
        <time>2010-01-02T15:16:54Z</time>
      </trkpt>
      <trkpt lat="54.075500043109059" lon="10.253854813054204">
        <ele>0</ele>
        <time>2010-01-02T15:16:58Z</time>
      </trkpt>
      <trkpt lat="54.075431814417243" lon="10.254025384783745">
        <ele>0</ele>
        <time>2010-01-02T15:17:03Z</time>
      </trkpt>
      <trkpt lat="54.075397197157145" lon="10.25415270589292">
        <ele>0</ele>
        <time>2010-01-02T15:17:06Z</time>
      </trkpt>
      <trkpt lat="54.07535495236516" lon="10.254333168268204">
        <ele>0</ele>
        <time>2010-01-02T15:17:11Z</time>
      </trkpt>
      <trkpt lat="54.075319664552808" lon="10.254529220983386">
        <ele>0</ele>
        <time>2010-01-02T15:17:16Z</time>
      </trkpt>
      <trkpt lat="54.075309941545129" lon="10.254596192389727">
        <ele>0</ele>
        <time>2010-01-02T15:17:17Z</time>
      </trkpt>
      <trkpt lat="54.075288148596883" lon="10.254708593711257">
        <ele>0</ele>
        <time>2010-01-02T15:17:20Z</time>
      </trkpt>
      <trkpt lat="54.075238779187202" lon="10.25486902333796">
        <ele>0</ele>
        <time>2010-01-02T15:17:24Z</time>
      </trkpt>
      <trkpt lat="54.075181614607573" lon="10.255012437701225">
        <ele>0</ele>
        <time>2010-01-02T15:17:28Z</time>
      </trkpt>
      <trkpt lat="54.075114978477359" lon="10.255111260339618">
        <ele>0</ele>
        <time>2010-01-02T15:17:32Z</time>
      </trkpt>
      <trkpt lat="54.075041804462671" lon="10.255232797935605">
        <ele>0</ele>
        <time>2010-01-02T15:17:36Z</time>
      </trkpt>
      <trkpt lat="54.075000565499067" lon="10.25531561113894">
        <ele>0</ele>
        <time>2010-01-02T15:17:38Z</time>
      </trkpt>
      <trkpt lat="54.074958069249988" lon="10.255428850650787">
        <ele>0</ele>
        <time>2010-01-02T15:17:42Z</time>
      </trkpt>
      <trkpt lat="54.074914148077369" lon="10.255586430430412">
        <ele>0</ele>
        <time>2010-01-02T15:17:46Z</time>
      </trkpt>
      <trkpt lat="54.074881374835968" lon="10.255716852843761">
        <ele>0</ele>
        <time>2010-01-02T15:17:49Z</time>
      </trkpt>
      <trkpt lat="54.07485312782228" lon="10.255841324105859">
        <ele>0</ele>
        <time>2010-01-02T15:17:52Z</time>
      </trkpt>
      <trkpt lat="54.074822198599577" lon="10.255964118987322">
        <ele>0</ele>
        <time>2010-01-02T15:17:55Z</time>
      </trkpt>
      <trkpt lat="54.074790850281715" lon="10.256039556115866">
        <ele>0</ele>
        <time>2010-01-02T15:17:58Z</time>
      </trkpt>
      <trkpt lat="54.074748018756509" lon="10.256096301600337">
        <ele>0</ele>
        <time>2010-01-02T15:18:00Z</time>
      </trkpt>
      <trkpt lat="54.074649531394243" lon="10.256149861961603">
        <ele>0</ele>
        <time>2010-01-02T15:18:04Z</time>
      </trkpt>
      <trkpt lat="54.074566382914782" lon="10.256194705143571">
        <ele>0</ele>
        <time>2010-01-02T15:18:07Z</time>
      </trkpt>
      <trkpt lat="54.07430587336421" lon="10.256362510845065">
        <ele>0</ele>
        <time>2010-01-02T15:18:18Z</time>
      </trkpt>
      <trkpt lat="54.074213840067387" lon="10.256416322663426">
        <ele>0</ele>
        <time>2010-01-02T15:18:22Z</time>
      </trkpt>
      <trkpt lat="54.074124153703451" lon="10.256468541920185">
        <ele>0</ele>
        <time>2010-01-02T15:18:26Z</time>
      </trkpt>
      <trkpt lat="54.074321296066046" lon="10.257980972528458">
        <ele>0</ele>
        <time>2010-01-02T15:19:03Z</time>
      </trkpt>
      <trkpt lat="54.074348704889417" lon="10.258197225630283">
        <ele>0</ele>
        <time>2010-01-02T15:19:08Z</time>
      </trkpt>
      <trkpt lat="54.074420118704438" lon="10.258756969124079">
        <ele>0</ele>
        <time>2010-01-02T15:19:21Z</time>
      </trkpt>
      <trkpt lat="54.074580296874046" lon="10.260013081133366">
        <ele>0</ele>
        <time>2010-01-02T15:19:51Z</time>
      </trkpt>
      <trkpt lat="54.07459856942296" lon="10.260155741125345">
        <ele>0</ele>
        <time>2010-01-02T15:19:55Z</time>
      </trkpt>
      <trkpt lat="54.074670821428299" lon="10.260729817673564">
        <ele>0</ele>
        <time>2010-01-02T15:20:09Z</time>
      </trkpt>
      <trkpt lat="54.074803423136473" lon="10.261783003807068">
        <ele>0</ele>
        <time>2010-01-02T15:20:34Z</time>
      </trkpt>
      <trkpt lat="54.074948849156499" lon="10.262823281809688">
        <ele>0</ele>
        <time>2010-01-02T15:20:59Z</time>
      </trkpt>
      <trkpt lat="54.075037864968181" lon="10.263502802699804">
        <ele>0</ele>
        <time>2010-01-02T15:21:15Z</time>
      </trkpt>
      <trkpt lat="54.075110368430614" lon="10.263960286974907">
        <ele>0</ele>
        <time>2010-01-02T15:21:27Z</time>
      </trkpt>
      <trkpt lat="54.075172310695052" lon="10.264305872842669">
        <ele>0</ele>
        <time>2010-01-02T15:21:35Z</time>
      </trkpt>
      <trkpt lat="54.075259901583195" lon="10.264693619683385">
        <ele>0</ele>
        <time>2010-01-02T15:21:45Z</time>
      </trkpt>
      <trkpt lat="54.075362412258983" lon="10.265023615211248">
        <ele>0</ele>
        <time>2010-01-02T15:21:54Z</time>
      </trkpt>
      <trkpt lat="54.075390826910734" lon="10.265109278261662">
        <ele>0</ele>
        <time>2010-01-02T15:21:56Z</time>
      </trkpt>
      <trkpt lat="54.075434328988194" lon="10.26524062268436">
        <ele>0</ele>
        <time>2010-01-02T15:21:59Z</time>
      </trkpt>
      <trkpt lat="54.075441621243954" lon="10.265262918546796">
        <ele>0</ele>
        <time>2010-01-02T15:22:00Z</time>
      </trkpt>
      <trkpt lat="54.075524769723415" lon="10.265476237982512">
        <ele>0</ele>
        <time>2010-01-02T15:22:06Z</time>
      </trkpt>
      <trkpt lat="54.075630968436599" lon="10.2657116856426">
        <ele>0</ele>
        <time>2010-01-02T15:22:13Z</time>
      </trkpt>
      <trkpt lat="54.075804725289345" lon="10.266027180477977">
        <ele>0</ele>
        <time>2010-01-02T15:22:23Z</time>
      </trkpt>
      <trkpt lat="54.076079148799181" lon="10.266503021121025">
        <ele>0</ele>
        <time>2010-01-02T15:22:39Z</time>
      </trkpt>
      <trkpt lat="54.076136397197843" lon="10.266593210399151">
        <ele>0</ele>
        <time>2010-01-02T15:22:42Z</time>
      </trkpt>
      <trkpt lat="54.076511319726706" lon="10.267183883115649">
        <ele>0</ele>
        <time>2010-01-02T15:23:02Z</time>
      </trkpt>
      <trkpt lat="54.076751712709665" lon="10.267560984939337">
        <ele>0</ele>
        <time>2010-01-02T15:23:15Z</time>
      </trkpt>
      <trkpt lat="54.077000990509987" lon="10.267950491979718">
        <ele>0</ele>
        <time>2010-01-02T15:23:29Z</time>
      </trkpt>
      <trkpt lat="54.077308606356382" lon="10.268425913527608">
        <ele>0</ele>
        <time>2010-01-02T15:23:46Z</time>
      </trkpt>
      <trkpt lat="54.077350180596113" lon="10.268489867448807">
        <ele>0</ele>
        <time>2010-01-02T15:23:48Z</time>
      </trkpt>
      <trkpt lat="54.077615384012461" lon="10.268899742513895">
        <ele>0</ele>
        <time>2010-01-02T15:24:02Z</time>
      </trkpt>
      <trkpt lat="54.077679924666882" lon="10.269004097208381">
        <ele>0</ele>
        <time>2010-01-02T15:24:06Z</time>
      </trkpt>
      <trkpt lat="54.07778687775135" lon="10.269169304519892">
        <ele>0</ele>
        <time>2010-01-02T15:24:12Z</time>
      </trkpt>
      <trkpt lat="54.077928531914949" lon="10.269366195425391">
        <ele>0</ele>
        <time>2010-01-02T15:24:19Z</time>
      </trkpt>
      <trkpt lat="54.078107820823789" lon="10.26957331225276">
        <ele>0</ele>
        <time>2010-01-02T15:24:27Z</time>
      </trkpt>
      <trkpt lat="54.078268921002746" lon="10.269720330834389">
        <ele>0</ele>
        <time>2010-01-02T15:24:35Z</time>
      </trkpt>
      <trkpt lat="54.078441169112921" lon="10.269832564517856">
        <ele>0</ele>
        <time>2010-01-02T15:24:42Z</time>
      </trkpt>
      <trkpt lat="54.078486682847142" lon="10.269858380779624">
        <ele>0</ele>
        <time>2010-01-02T15:24:44Z</time>
      </trkpt>
      <trkpt lat="54.07866002060473" lon="10.269952341914177">
        <ele>0</ele>
        <time>2010-01-02T15:24:51Z</time>
      </trkpt>
      <trkpt lat="54.078694889321923" lon="10.269971704110503">
        <ele>0</ele>
        <time>2010-01-02T15:24:53Z</time>
      </trkpt>
      <trkpt lat="54.078924469649792" lon="10.270097935572267">
        <ele>0</ele>
        <time>2010-01-02T15:25:03Z</time>
      </trkpt>
      <trkpt lat="54.078941401094198" lon="10.270104557275772">
        <ele>0</ele>
        <time>2010-01-02T15:25:03Z</time>
      </trkpt>
      <trkpt lat="54.079200150445104" lon="10.270218970254064">
        <ele>0</ele>
        <time>2010-01-02T15:25:14Z</time>
      </trkpt>
      <trkpt lat="54.07943258062005" lon="10.270318211987615">
        <ele>0</ele>
        <time>2010-01-02T15:25:23Z</time>
      </trkpt>
      <trkpt lat="54.079471388831735" lon="10.27072356082499">
        <ele>0</ele>
        <time>2010-01-02T15:25:33Z</time>
      </trkpt>
      <trkpt lat="54.079520339146256" lon="10.271271234378219">
        <ele>0</ele>
        <time>2010-01-02T15:25:46Z</time>
      </trkpt>
      <trkpt lat="54.079570798203349" lon="10.271677756682038">
        <ele>0</ele>
        <time>2010-01-02T15:25:56Z</time>
      </trkpt>
      <trkpt lat="54.079615054652095" lon="10.271999957039952">
        <ele>0</ele>
        <time>2010-01-02T15:26:04Z</time>
      </trkpt>
      <trkpt lat="54.079684540629387" lon="10.272483425214887">
        <ele>0</ele>
        <time>2010-01-02T15:26:15Z</time>
      </trkpt>
      <trkpt lat="54.079696023836732" lon="10.272583086043596">
        <ele>0</ele>
        <time>2010-01-02T15:26:18Z</time>
      </trkpt>
      <trkpt lat="54.079722343012691" lon="10.272813085466623">
        <ele>0</ele>
        <time>2010-01-02T15:26:23Z</time>
      </trkpt>
      <trkpt lat="54.079752014949918" lon="10.273066135123372">
        <ele>0</ele>
        <time>2010-01-02T15:26:29Z</time>
      </trkpt>
      <trkpt lat="54.079767353832722" lon="10.273230085149407">
        <ele>0</ele>
        <time>2010-01-02T15:26:33Z</time>
      </trkpt>
      <trkpt lat="54.079787470400333" lon="10.273450696840882">
        <ele>0</ele>
        <time>2010-01-02T15:26:38Z</time>
      </trkpt>
      <trkpt lat="54.079805072396994" lon="10.273652952164412">
        <ele>0</ele>
        <time>2010-01-02T15:26:43Z</time>
      </trkpt>
      <trkpt lat="54.079825608059764" lon="10.273917904123664">
        <ele>0</ele>
        <time>2010-01-02T15:26:50Z</time>
      </trkpt>
      <trkpt lat="54.079834157600999" lon="10.274130553007126">
        <ele>0</ele>
        <time>2010-01-02T15:26:55Z</time>
      </trkpt>
      <trkpt lat="54.079827703535557" lon="10.274316798895597">
        <ele>0</ele>
        <time>2010-01-02T15:26:59Z</time>
      </trkpt>
      <trkpt lat="54.079805994406343" lon="10.274585019797087">
        <ele>0</ele>
        <time>2010-01-02T15:27:05Z</time>
      </trkpt>
      <trkpt lat="54.079798115417361" lon="10.274648973718286">
        <ele>0</ele>
        <time>2010-01-02T15:27:07Z</time>
      </trkpt>
      <trkpt lat="54.079769784584641" lon="10.274865059182048">
        <ele>0</ele>
        <time>2010-01-02T15:27:12Z</time>
      </trkpt>
      <trkpt lat="54.079820578917861" lon="10.274906381964684">
        <ele>0</ele>
        <time>2010-01-02T15:27:14Z</time>
      </trkpt>
      <trkpt lat="54.079848742112517" lon="10.274956170469522">
        <ele>0</ele>
        <time>2010-01-02T15:27:16Z</time>
      </trkpt>
      <trkpt lat="54.079894507303834" lon="10.275049209594727">
        <ele>0</ele>
        <time>2010-01-02T15:27:19Z</time>
      </trkpt>
      <trkpt lat="54.079925855621696" lon="10.275141913443804">
        <ele>0</ele>
        <time>2010-01-02T15:27:21Z</time>
      </trkpt>
      <trkpt lat="54.079976482316852" lon="10.275287088006735">
        <ele>0</ele>
        <time>2010-01-02T15:27:25Z</time>
      </trkpt>
      <trkpt lat="54.080032389611006" lon="10.275417426601052">
        <ele>0</ele>
        <time>2010-01-02T15:27:29Z</time>
      </trkpt>
      <trkpt lat="54.080086033791304" lon="10.275542568415403">
        <ele>0</ele>
        <time>2010-01-02T15:27:33Z</time>
      </trkpt>
      <trkpt lat="54.080238081514835" lon="10.275868121534586">
        <ele>0</ele>
        <time>2010-01-02T15:27:42Z</time>
      </trkpt>
      <trkpt lat="54.080301532521844" lon="10.276068700477481">
        <ele>0</ele>
        <time>2010-01-02T15:27:48Z</time>
      </trkpt>
      <trkpt lat="54.080335730686784" lon="10.276233237236738">
        <ele>0</ele>
        <time>2010-01-02T15:27:52Z</time>
      </trkpt>
      <trkpt lat="54.080368252471089" lon="10.276463404297829">
        <ele>0</ele>
        <time>2010-01-02T15:27:57Z</time>
      </trkpt>
      <trkpt lat="54.080400187522173" lon="10.276676807552576">
        <ele>0</ele>
        <time>2010-01-02T15:28:03Z</time>
      </trkpt>
      <trkpt lat="54.080465063452721" lon="10.277082156389952">
        <ele>0</ele>
        <time>2010-01-02T15:28:12Z</time>
      </trkpt>
      <trkpt lat="54.080537231639028" lon="10.277480129152536">
        <ele>0</ele>
        <time>2010-01-02T15:28:22Z</time>
      </trkpt>
      <trkpt lat="54.080588193610311" lon="10.277750696986914">
        <ele>0</ele>
        <time>2010-01-02T15:28:29Z</time>
      </trkpt>
      <trkpt lat="54.080688022077084" lon="10.278166271746159">
        <ele>0</ele>
        <time>2010-01-02T15:28:39Z</time>
      </trkpt>
      <trkpt lat="54.080771505832672" lon="10.27851571328938">
        <ele>0</ele>
        <time>2010-01-02T15:28:48Z</time>
      </trkpt>
      <trkpt lat="54.080772344022989" lon="10.278518814593554">
        <ele>0</ele>
        <time>2010-01-02T15:28:48Z</time>
      </trkpt>
      <trkpt lat="54.080863120034337" lon="10.278853168711066">
        <ele>0</ele>
        <time>2010-01-02T15:28:57Z</time>
      </trkpt>
      <trkpt lat="54.080922966822982" lon="10.279053663834929">
        <ele>0</ele>
        <time>2010-01-02T15:29:02Z</time>
      </trkpt>
      <trkpt lat="54.080944005399942" lon="10.279104709625244">
        <ele>0</ele>
        <time>2010-01-02T15:29:04Z</time>
      </trkpt>
      <trkpt lat="54.081080043688416" lon="10.279408469796181">
        <ele>0</ele>
        <time>2010-01-02T15:29:13Z</time>
      </trkpt>
      <trkpt lat="54.081195965409279" lon="10.279661100357771">
        <ele>0</ele>
        <time>2010-01-02T15:29:20Z</time>
      </trkpt>
      <trkpt lat="54.081324795261025" lon="10.279967626556754">
        <ele>0</ele>
        <time>2010-01-02T15:29:29Z</time>
      </trkpt>
      <trkpt lat="54.081352539360523" lon="10.280061671510339">
        <ele>0</ele>
        <time>2010-01-02T15:29:32Z</time>
      </trkpt>
      <trkpt lat="54.081361507996917" lon="10.280145993456244">
        <ele>0</ele>
        <time>2010-01-02T15:29:34Z</time>
      </trkpt>
      <trkpt lat="54.081344744190574" lon="10.280286055058241">
        <ele>0</ele>
        <time>2010-01-02T15:29:37Z</time>
      </trkpt>
      <trkpt lat="54.081329153850675" lon="10.280316146090627">
        <ele>0</ele>
        <time>2010-01-02T15:29:38Z</time>
      </trkpt>
      <trkpt lat="54.081253884360194" lon="10.280468109995127">
        <ele>0</ele>
        <time>2010-01-02T15:29:43Z</time>
      </trkpt>
      <trkpt lat="54.081019945442677" lon="10.280920900404453">
        <ele>0</ele>
        <time>2010-01-02T15:29:57Z</time>
      </trkpt>
      <trkpt lat="54.080667402595282" lon="10.281622046604753">
        <ele>0</ele>
        <time>2010-01-02T15:30:18Z</time>
      </trkpt>
      <trkpt lat="54.080356266349554" lon="10.282234344631433">
        <ele>0</ele>
        <time>2010-01-02T15:30:38Z</time>
      </trkpt>
      <trkpt lat="54.08028275705874" lon="10.282387984916568">
        <ele>0</ele>
        <time>2010-01-02T15:30:42Z</time>
      </trkpt>
      <trkpt lat="54.079292686656117" lon="10.284317834302783">
        <ele>0</ele>
        <time>2010-01-02T15:31:42Z</time>
      </trkpt>
      <trkpt lat="54.079504245892167" lon="10.284704826772213">
        <ele>0</ele>
        <time>2010-01-02T15:31:55Z</time>
      </trkpt>
      <trkpt lat="54.079225966706872" lon="10.285354759544134">
        <ele>0</ele>
        <time>2010-01-02T15:32:14Z</time>
      </trkpt>
      <trkpt lat="54.078716514632106" lon="10.286527806892991">
        <ele>0</ele>
        <time>2010-01-02T15:32:48Z</time>
      </trkpt>
      <trkpt lat="54.078180156648159" lon="10.28778400272131">
        <ele>0</ele>
        <time>2010-01-02T15:33:24Z</time>
      </trkpt>
      <trkpt lat="54.077651258558035" lon="10.289012873545289">
        <ele>0</ele>
        <time>2010-01-02T15:34:00Z</time>
      </trkpt>
      <trkpt lat="54.076859755441546" lon="10.290849264711142">
        <ele>0</ele>
        <time>2010-01-02T15:34:54Z</time>
      </trkpt>
      <trkpt lat="54.077297961339355" lon="10.291628362610936">
        <ele>0</ele>
        <time>2010-01-02T15:35:19Z</time>
      </trkpt>
      <trkpt lat="54.077798193320632" lon="10.292478119954467">
        <ele>0</ele>
        <time>2010-01-02T15:35:47Z</time>
      </trkpt>
      <trkpt lat="54.078233130276203" lon="10.293225115165114">
        <ele>0</ele>
        <time>2010-01-02T15:36:12Z</time>
      </trkpt>
      <trkpt lat="54.078373527154326" lon="10.293455617502332">
        <ele>0</ele>
        <time>2010-01-02T15:36:20Z</time>
      </trkpt>
      <trkpt lat="54.078435385599732" lon="10.293555278331041">
        <ele>0</ele>
        <time>2010-01-02T15:36:23Z</time>
      </trkpt>
      <trkpt lat="54.078626912087202" lon="10.293790474534035">
        <ele>0</ele>
        <time>2010-01-02T15:36:33Z</time>
      </trkpt>
      <trkpt lat="54.079112391918898" lon="10.294347954913974">
        <ele>0</ele>
        <time>2010-01-02T15:36:56Z</time>
      </trkpt>
      <trkpt lat="54.079603739082813" lon="10.294939298182726">
        <ele>0</ele>
        <time>2010-01-02T15:37:20Z</time>
      </trkpt>
      <trkpt lat="54.080119393765926" lon="10.29553759843111">
        <ele>0</ele>
        <time>2010-01-02T15:37:45Z</time>
      </trkpt>
      <trkpt lat="54.080563886091113" lon="10.296055683866143">
        <ele>0</ele>
        <time>2010-01-02T15:38:07Z</time>
      </trkpt>
      <trkpt lat="54.080876531079412" lon="10.296396994963288">
        <ele>0</ele>
        <time>2010-01-02T15:38:22Z</time>
      </trkpt>
      <trkpt lat="54.080923637375236" lon="10.296442760154605">
        <ele>0</ele>
        <time>2010-01-02T15:38:24Z</time>
      </trkpt>
      <trkpt lat="54.081064118072391" lon="10.296577038243413">
        <ele>0</ele>
        <time>2010-01-02T15:38:30Z</time>
      </trkpt>
      <trkpt lat="54.081335859373212" lon="10.296794883906841">
        <ele>0</ele>
        <time>2010-01-02T15:38:42Z</time>
      </trkpt>
      <trkpt lat="54.081407273188233" lon="10.296833775937557">
        <ele>0</ele>
        <time>2010-01-02T15:38:45Z</time>
      </trkpt>
      <trkpt lat="54.081498719751835" lon="10.296851880848408">
        <ele>0</ele>
        <time>2010-01-02T15:38:49Z</time>
      </trkpt>
      <trkpt lat="54.081688653677702" lon="10.296821119263768">
        <ele>0</ele>
        <time>2010-01-02T15:38:57Z</time>
      </trkpt>
      <trkpt lat="54.082305310294032" lon="10.296708969399333">
        <ele>0</ele>
        <time>2010-01-02T15:39:21Z</time>
      </trkpt>
      <trkpt lat="54.08243858255446" lon="10.296687176451087">
        <ele>0</ele>
        <time>2010-01-02T15:39:27Z</time>
      </trkpt>
      <trkpt lat="54.082906879484653" lon="10.296752220019698">
        <ele>0</ele>
        <time>2010-01-02T15:39:46Z</time>
      </trkpt>
      <trkpt lat="54.08302347175777" lon="10.296769570559263">
        <ele>0</ele>
        <time>2010-01-02T15:39:50Z</time>
      </trkpt>
      <trkpt lat="54.083634428679943" lon="10.296858921647072">
        <ele>0</ele>
        <time>2010-01-02T15:40:15Z</time>
      </trkpt>
      <trkpt lat="54.084307244047523" lon="10.296951709315181">
        <ele>0</ele>
        <time>2010-01-02T15:40:42Z</time>
      </trkpt>
      <trkpt lat="54.085147026926279" lon="10.297062015160918">
        <ele>0</ele>
        <time>2010-01-02T15:41:16Z</time>
      </trkpt>
      <trkpt lat="54.085779692977667" lon="10.297138290479779">
        <ele>0</ele>
        <time>2010-01-02T15:41:41Z</time>
      </trkpt>
      <trkpt lat="54.085814980790019" lon="10.29711339622736">
        <ele>0</ele>
        <time>2010-01-02T15:41:42Z</time>
      </trkpt>
      <trkpt lat="54.085845239460468" lon="10.297054722905159">
        <ele>0</ele>
        <time>2010-01-02T15:41:44Z</time>
      </trkpt>
      <trkpt lat="54.086151095107198" lon="10.29622851870954">
        <ele>0</ele>
        <time>2010-01-02T15:42:07Z</time>
      </trkpt>
      <trkpt lat="54.086183030158281" lon="10.296142268925905">
        <ele>0</ele>
        <time>2010-01-02T15:42:10Z</time>
      </trkpt>
      <trkpt lat="54.086217228323221" lon="10.296059288084507">
        <ele>0</ele>
        <time>2010-01-02T15:42:12Z</time>
      </trkpt>
      <trkpt lat="54.086344549432397" lon="10.29574379324913">
        <ele>0</ele>
        <time>2010-01-02T15:42:21Z</time>
      </trkpt>
      <trkpt lat="54.086381932720542" lon="10.295692998915911">
        <ele>0</ele>
        <time>2010-01-02T15:42:23Z</time>
      </trkpt>
      <trkpt lat="54.086423506960273" lon="10.295672966167331">
        <ele>0</ele>
        <time>2010-01-02T15:42:25Z</time>
      </trkpt>
      <trkpt lat="54.086511433124542" lon="10.295683275908232">
        <ele>0</ele>
        <time>2010-01-02T15:42:28Z</time>
      </trkpt>
      <trkpt lat="54.086661050096154" lon="10.29572619125247">
        <ele>0</ele>
        <time>2010-01-02T15:42:34Z</time>
      </trkpt>
      <trkpt lat="54.086769428104162" lon="10.295758629217744">
        <ele>0</ele>
        <time>2010-01-02T15:42:39Z</time>
      </trkpt>
      <trkpt lat="54.086916362866759" lon="10.295798359438777">
        <ele>0</ele>
        <time>2010-01-02T15:42:45Z</time>
      </trkpt>
      <trkpt lat="54.087032368406653" lon="10.295785116031766">
        <ele>0</ele>
        <time>2010-01-02T15:42:49Z</time>
      </trkpt>
      <trkpt lat="54.087130771949887" lon="10.295743877068162">
        <ele>0</ele>
        <time>2010-01-02T15:42:53Z</time>
      </trkpt>
      <trkpt lat="54.087228337302804" lon="10.295690400525928">
        <ele>0</ele>
        <time>2010-01-02T15:42:57Z</time>
      </trkpt>
      <trkpt lat="54.087071428075433" lon="10.297329900786281">
        <ele>0</ele>
        <time>2010-01-02T15:43:36Z</time>
      </trkpt>
      <trkpt lat="54.086876381188631" lon="10.299338037148118">
        <ele>0</ele>
        <time>2010-01-02T15:44:24Z</time>
      </trkpt>
      <trkpt lat="54.086645040661097" lon="10.301702655851841">
        <ele>0</ele>
        <time>2010-01-02T15:45:21Z</time>
      </trkpt>
      <trkpt lat="54.086462147533894" lon="10.303654633462429">
        <ele>0</ele>
        <time>2010-01-02T15:46:07Z</time>
      </trkpt>
      <trkpt lat="54.086412191390991" lon="10.304155871272087">
        <ele>0</ele>
        <time>2010-01-02T15:46:19Z</time>
      </trkpt>
      <trkpt lat="54.086376903578639" lon="10.304387044161558">
        <ele>0</ele>
        <time>2010-01-02T15:46:25Z</time>
      </trkpt>
      <trkpt lat="54.086338598281145" lon="10.304604386910796">
        <ele>0</ele>
        <time>2010-01-02T15:46:30Z</time>
      </trkpt>
      <trkpt lat="54.086289396509528" lon="10.304833631962538">
        <ele>0</ele>
        <time>2010-01-02T15:46:36Z</time>
      </trkpt>
      <trkpt lat="54.086142545565963" lon="10.305369989946485">
        <ele>0</ele>
        <time>2010-01-02T15:46:49Z</time>
      </trkpt>
      <trkpt lat="54.086098540574312" lon="10.305535197257996">
        <ele>0</ele>
        <time>2010-01-02T15:46:54Z</time>
      </trkpt>
      <trkpt lat="54.086041208356619" lon="10.305767208337784">
        <ele>0</ele>
        <time>2010-01-02T15:47:00Z</time>
      </trkpt>
      <trkpt lat="54.086010362952948" lon="10.305960327386856">
        <ele>0</ele>
        <time>2010-01-02T15:47:04Z</time>
      </trkpt>
      <trkpt lat="54.08598504960537" lon="10.306217819452286">
        <ele>0</ele>
        <time>2010-01-02T15:47:10Z</time>
      </trkpt>
      <trkpt lat="54.085896871984005" lon="10.30722364783287">
        <ele>0</ele>
        <time>2010-01-02T15:47:34Z</time>
      </trkpt>
      <trkpt lat="54.085872732102871" lon="10.307458257302642">
        <ele>0</ele>
        <time>2010-01-02T15:47:40Z</time>
      </trkpt>
      <trkpt lat="54.08578815869987" lon="10.307884979993105">
        <ele>0</ele>
        <time>2010-01-02T15:47:51Z</time>
      </trkpt>
      <trkpt lat="54.085349952802062" lon="10.309756994247437">
        <ele>0</ele>
        <time>2010-01-02T15:48:38Z</time>
      </trkpt>
      <trkpt lat="54.085016353055835" lon="10.311263976618648">
        <ele>0</ele>
        <time>2010-01-02T15:49:16Z</time>
      </trkpt>
      <trkpt lat="54.084823401644826" lon="10.312153464183211">
        <ele>0</ele>
        <time>2010-01-02T15:49:38Z</time>
      </trkpt>
      <trkpt lat="54.08462181687355" lon="10.313085364177823">
        <ele>0</ele>
        <time>2010-01-02T15:50:01Z</time>
      </trkpt>
      <trkpt lat="54.084559790790081" lon="10.313334055244923">
        <ele>0</ele>
        <time>2010-01-02T15:50:08Z</time>
      </trkpt>
      <trkpt lat="54.08451285213232" lon="10.31352206133306">
        <ele>0</ele>
        <time>2010-01-02T15:50:12Z</time>
      </trkpt>
      <trkpt lat="54.084479408338666" lon="10.313707469031215">
        <ele>0</ele>
        <time>2010-01-02T15:50:17Z</time>
      </trkpt>
      <trkpt lat="54.084446467459202" lon="10.313923386856914">
        <ele>0</ele>
        <time>2010-01-02T15:50:22Z</time>
      </trkpt>
      <trkpt lat="54.084387039765716" lon="10.314263859763741">
        <ele>0</ele>
        <time>2010-01-02T15:50:31Z</time>
      </trkpt>
      <trkpt lat="54.084361055865884" lon="10.314506012946367">
        <ele>0</ele>
        <time>2010-01-02T15:50:36Z</time>
      </trkpt>
      <trkpt lat="54.084335407242179" lon="10.314797032624483">
        <ele>0</ele>
        <time>2010-01-02T15:50:43Z</time>
      </trkpt>
      <trkpt lat="54.084324929863214" lon="10.315096266567707">
        <ele>0</ele>
        <time>2010-01-02T15:50:50Z</time>
      </trkpt>
      <trkpt lat="54.08433104865253" lon="10.315356189385056">
        <ele>0</ele>
        <time>2010-01-02T15:50:56Z</time>
      </trkpt>
      <trkpt lat="54.084348147735" lon="10.315599767491221">
        <ele>0</ele>
        <time>2010-01-02T15:51:02Z</time>
      </trkpt>
      <trkpt lat="54.084389638155699" lon="10.315836388617754">
        <ele>0</ele>
        <time>2010-01-02T15:51:08Z</time>
      </trkpt>
      <trkpt lat="54.08447471447289" lon="10.316265458241105">
        <ele>0</ele>
        <time>2010-01-02T15:51:19Z</time>
      </trkpt>
      <trkpt lat="54.084582589566708" lon="10.316841965541244">
        <ele>0</ele>
        <time>2010-01-02T15:51:33Z</time>
      </trkpt>
      <trkpt lat="54.084735894575715" lon="10.317687280476093">
        <ele>0</ele>
        <time>2010-01-02T15:51:54Z</time>
      </trkpt>
      <trkpt lat="54.084872268140316" lon="10.31844349578023">
        <ele>0</ele>
        <time>2010-01-02T15:52:12Z</time>
      </trkpt>
      <trkpt lat="54.084929348900914" lon="10.31880752183497">
        <ele>0</ele>
        <time>2010-01-02T15:52:21Z</time>
      </trkpt>
      <trkpt lat="54.08497896976769" lon="10.31920331530273">
        <ele>0</ele>
        <time>2010-01-02T15:52:30Z</time>
      </trkpt>
      <trkpt lat="54.085026076063514" lon="10.31966021284461">
        <ele>0</ele>
        <time>2010-01-02T15:52:41Z</time>
      </trkpt>
      <trkpt lat="54.085061112418771" lon="10.320151895284653">
        <ele>0</ele>
        <time>2010-01-02T15:52:53Z</time>
      </trkpt>
      <trkpt lat="54.085086425766349" lon="10.320710465312004">
        <ele>0</ele>
        <time>2010-01-02T15:53:06Z</time>
      </trkpt>
      <trkpt lat="54.085115343332291" lon="10.321267694234848">
        <ele>0</ele>
        <time>2010-01-02T15:53:19Z</time>
      </trkpt>
      <trkpt lat="54.085121294483542" lon="10.321376323699951">
        <ele>0</ele>
        <time>2010-01-02T15:53:22Z</time>
      </trkpt>
      <trkpt lat="54.085132861509919" lon="10.321634989231825">
        <ele>0</ele>
        <time>2010-01-02T15:53:28Z</time>
      </trkpt>
      <trkpt lat="54.085161443799734" lon="10.322302188724279">
        <ele>0</ele>
        <time>2010-01-02T15:53:44Z</time>
      </trkpt>
      <trkpt lat="54.085191451013088" lon="10.323087153956294">
        <ele>0</ele>
        <time>2010-01-02T15:54:02Z</time>
      </trkpt>
      <trkpt lat="54.085236126556993" lon="10.323681514710188">
        <ele>0</ele>
        <time>2010-01-02T15:54:16Z</time>
      </trkpt>
      <trkpt lat="54.085302846506238" lon="10.324479807168245">
        <ele>0</ele>
        <time>2010-01-02T15:54:35Z</time>
      </trkpt>
      <trkpt lat="54.085374679416418" lon="10.325134601444006">
        <ele>0</ele>
        <time>2010-01-02T15:54:51Z</time>
      </trkpt>
      <trkpt lat="54.085379708558321" lon="10.325166871771216">
        <ele>0</ele>
        <time>2010-01-02T15:54:52Z</time>
      </trkpt>
      <trkpt lat="54.085448943078518" lon="10.325648998841643">
        <ele>0</ele>
        <time>2010-01-02T15:55:03Z</time>
      </trkpt>
      <trkpt lat="54.085494205355644" lon="10.325948400422931">
        <ele>0</ele>
        <time>2010-01-02T15:55:10Z</time>
      </trkpt>
      <trkpt lat="54.085541730746627" lon="10.326200528070331">
        <ele>0</ele>
        <time>2010-01-02T15:55:17Z</time>
      </trkpt>
      <trkpt lat="54.085614988580346" lon="10.326560530811548">
        <ele>0</ele>
        <time>2010-01-02T15:55:26Z</time>
      </trkpt>
      <trkpt lat="54.085756139829755" lon="10.327124297618866">
        <ele>0</ele>
        <time>2010-01-02T15:55:40Z</time>
      </trkpt>
      <trkpt lat="54.085997287184" lon="10.328151332214475">
        <ele>0</ele>
        <time>2010-01-02T15:56:06Z</time>
      </trkpt>
      <trkpt lat="54.086161153391004" lon="10.328854992985725">
        <ele>0</ele>
        <time>2010-01-02T15:56:24Z</time>
      </trkpt>
      <trkpt lat="54.086275901645422" lon="10.329359918832779">
        <ele>0</ele>
        <time>2010-01-02T15:56:36Z</time>
      </trkpt>
      <trkpt lat="54.086382770910859" lon="10.329856965690851">
        <ele>0</ele>
        <time>2010-01-02T15:56:49Z</time>
      </trkpt>
      <trkpt lat="54.08645074814558" lon="10.330123510211706">
        <ele>0</ele>
        <time>2010-01-02T15:56:56Z</time>
      </trkpt>
      <trkpt lat="54.086565915495157" lon="10.330521482974291">
        <ele>0</ele>
        <time>2010-01-02T15:57:06Z</time>
      </trkpt>
      <trkpt lat="54.086679741740227" lon="10.330842090770602">
        <ele>0</ele>
        <time>2010-01-02T15:57:15Z</time>
      </trkpt>
      <trkpt lat="54.08678786829114" lon="10.331081813201308">
        <ele>0</ele>
        <time>2010-01-02T15:57:22Z</time>
      </trkpt>
      <trkpt lat="54.08692323602736" lon="10.331353638321161">
        <ele>0</ele>
        <time>2010-01-02T15:57:30Z</time>
      </trkpt>
      <trkpt lat="54.087019124999642" lon="10.331538543105125">
        <ele>0</ele>
        <time>2010-01-02T15:57:36Z</time>
      </trkpt>
      <trkpt lat="54.087170837447047" lon="10.331797124817967">
        <ele>0</ele>
        <time>2010-01-02T15:57:45Z</time>
      </trkpt>
      <trkpt lat="54.087376780807972" lon="10.332188811153173">
        <ele>0</ele>
        <time>2010-01-02T15:57:57Z</time>
      </trkpt>
      <trkpt lat="54.087510639801621" lon="10.332431551069021">
        <ele>0</ele>
        <time>2010-01-02T15:58:05Z</time>
      </trkpt>
      <trkpt lat="54.087709961459041" lon="10.332844443619251">
        <ele>0</ele>
        <time>2010-01-02T15:58:18Z</time>
      </trkpt>
      <trkpt lat="54.08788681961596" lon="10.333184832707047">
        <ele>0</ele>
        <time>2010-01-02T15:58:28Z</time>
      </trkpt>
      <trkpt lat="54.088009027764201" lon="10.333428662270308">
        <ele>0</ele>
        <time>2010-01-02T15:58:36Z</time>
      </trkpt>
      <trkpt lat="54.08809058368206" lon="10.333607029169798">
        <ele>0</ele>
        <time>2010-01-02T15:58:41Z</time>
      </trkpt>
      <trkpt lat="54.088158058002591" lon="10.333762094378471">
        <ele>0</ele>
        <time>2010-01-02T15:58:46Z</time>
      </trkpt>
      <trkpt lat="54.088204074651003" lon="10.333910286426544">
        <ele>0</ele>
        <time>2010-01-02T15:58:50Z</time>
      </trkpt>
      <trkpt lat="54.088239530101418" lon="10.334029057994485">
        <ele>0</ele>
        <time>2010-01-02T15:58:53Z</time>
      </trkpt>
      <trkpt lat="54.088275907561183" lon="10.334236593917012">
        <ele>0</ele>
        <time>2010-01-02T15:58:58Z</time>
      </trkpt>
      <trkpt lat="54.088279260322452" lon="10.33425654284656">
        <ele>0</ele>
        <time>2010-01-02T15:58:58Z</time>
      </trkpt>
      <trkpt lat="54.088299041613936" lon="10.334416134282947">
        <ele>0</ele>
        <time>2010-01-02T15:59:02Z</time>
      </trkpt>
      <trkpt lat="54.088331060484052" lon="10.334692234173417">
        <ele>0</ele>
        <time>2010-01-02T15:59:09Z</time>
      </trkpt>
      <trkpt lat="54.088461985811591" lon="10.336091844365001">
        <ele>0</ele>
        <time>2010-01-02T15:59:42Z</time>
      </trkpt>
      <trkpt lat="54.088499788194895" lon="10.336490403860807">
        <ele>0</ele>
        <time>2010-01-02T15:59:51Z</time>
      </trkpt>
      <trkpt lat="54.088571621105075" lon="10.337295066565275">
        <ele>0</ele>
        <time>2010-01-02T16:00:11Z</time>
      </trkpt>
      <trkpt lat="54.088593078777194" lon="10.337547948583961">
        <ele>0</ele>
        <time>2010-01-02T16:00:17Z</time>
      </trkpt>
      <trkpt lat="54.088611099869013" lon="10.337866460904479">
        <ele>0</ele>
        <time>2010-01-02T16:00:24Z</time>
      </trkpt>
      <trkpt lat="54.088620487600565" lon="10.338076092302799">
        <ele>0</ele>
        <time>2010-01-02T16:00:29Z</time>
      </trkpt>
      <trkpt lat="54.088629288598895" lon="10.338417235761881">
        <ele>0</ele>
        <time>2010-01-02T16:00:37Z</time>
      </trkpt>
      <trkpt lat="54.088627779856324" lon="10.338629633188248">
        <ele>0</ele>
        <time>2010-01-02T16:00:42Z</time>
      </trkpt>
      <trkpt lat="54.088625265285373" lon="10.338855693116784">
        <ele>0</ele>
        <time>2010-01-02T16:00:47Z</time>
      </trkpt>
      <trkpt lat="54.088613195344806" lon="10.339057026430964">
        <ele>0</ele>
        <time>2010-01-02T16:00:52Z</time>
      </trkpt>
      <trkpt lat="54.088602885603905" lon="10.33925081603229">
        <ele>0</ele>
        <time>2010-01-02T16:00:57Z</time>
      </trkpt>
      <trkpt lat="54.088592659682035" lon="10.339447623118758">
        <ele>0</ele>
        <time>2010-01-02T16:01:01Z</time>
      </trkpt>
      <trkpt lat="54.088581092655659" lon="10.339597072452307">
        <ele>0</ele>
        <time>2010-01-02T16:01:05Z</time>
      </trkpt>
      <trkpt lat="54.088561479002237" lon="10.339741660282016">
        <ele>0</ele>
        <time>2010-01-02T16:01:08Z</time>
      </trkpt>
      <trkpt lat="54.088523425161839" lon="10.339934444054961">
        <ele>0</ele>
        <time>2010-01-02T16:01:13Z</time>
      </trkpt>
      <trkpt lat="54.088500961661339" lon="10.340045671910048">
        <ele>0</ele>
        <time>2010-01-02T16:01:16Z</time>
      </trkpt>
      <trkpt lat="54.088442539796233" lon="10.340335350483656">
        <ele>0</ele>
        <time>2010-01-02T16:01:23Z</time>
      </trkpt>
      <trkpt lat="54.088321756571531" lon="10.340857207775116">
        <ele>0</ele>
        <time>2010-01-02T16:01:36Z</time>
      </trkpt>
      <trkpt lat="54.088289653882384" lon="10.340995257720351">
        <ele>0</ele>
        <time>2010-01-02T16:01:40Z</time>
      </trkpt>
      <trkpt lat="54.088147161528468" lon="10.341611159965396">
        <ele>0</ele>
        <time>2010-01-02T16:01:55Z</time>
      </trkpt>
      <trkpt lat="54.088345393538475" lon="10.341744851320982">
        <ele>0</ele>
        <time>2010-01-02T16:02:04Z</time>
      </trkpt>
      <trkpt lat="54.088684022426605" lon="10.341970827430487">
        <ele>0</ele>
        <time>2010-01-02T16:02:18Z</time>
      </trkpt>
      <trkpt lat="54.088907483965158" lon="10.342148439958692">
        <ele>0</ele>
        <time>2010-01-02T16:02:28Z</time>
      </trkpt>
      <trkpt lat="54.088980155065656" lon="10.342220775783062">
        <ele>0</ele>
        <time>2010-01-02T16:02:32Z</time>
      </trkpt>
      <trkpt lat="54.089046958833933" lon="10.342306438833475">
        <ele>0</ele>
        <time>2010-01-02T16:02:35Z</time>
      </trkpt>
      <trkpt lat="54.089076546952128" lon="10.34235455095768">
        <ele>0</ele>
        <time>2010-01-02T16:02:37Z</time>
      </trkpt>
      <trkpt lat="54.089110158383846" lon="10.342418504878879">
        <ele>0</ele>
        <time>2010-01-02T16:02:39Z</time>
      </trkpt>
      <trkpt lat="54.089147206395864" lon="10.342488577589393">
        <ele>0</ele>
        <time>2010-01-02T16:02:41Z</time>
      </trkpt>
      <trkpt lat="54.089219458401203" lon="10.342620676383376">
        <ele>0</ele>
        <time>2010-01-02T16:02:45Z</time>
      </trkpt>
      <trkpt lat="54.089307636022568" lon="10.342835253104568">
        <ele>0</ele>
        <time>2010-01-02T16:02:51Z</time>
      </trkpt>
      <trkpt lat="54.089373014867306" lon="10.343068856745958">
        <ele>0</ele>
        <time>2010-01-02T16:02:57Z</time>
      </trkpt>
      <trkpt lat="54.089407799765468" lon="10.343236746266484">
        <ele>0</ele>
        <time>2010-01-02T16:03:01Z</time>
      </trkpt>
      <trkpt lat="54.089427748695016" lon="10.343393152579665">
        <ele>0</ele>
        <time>2010-01-02T16:03:05Z</time>
      </trkpt>
      <trkpt lat="54.089479381218553" lon="10.343806128948927">
        <ele>0</ele>
        <time>2010-01-02T16:03:15Z</time>
      </trkpt>
      <trkpt lat="54.089476866647601" lon="10.344018274918199">
        <ele>0</ele>
        <time>2010-01-02T16:03:20Z</time>
      </trkpt>
      <trkpt lat="54.08950025215745" lon="10.344335697591305">
        <ele>0</ele>
        <time>2010-01-02T16:03:28Z</time>
      </trkpt>
      <trkpt lat="54.089525146409869" lon="10.344649348407984">
        <ele>0</ele>
        <time>2010-01-02T16:03:35Z</time>
      </trkpt>
      <trkpt lat="54.089552890509367" lon="10.344982696697116">
        <ele>0</ele>
        <time>2010-01-02T16:03:43Z</time>
      </trkpt>
      <trkpt lat="54.089593375101686" lon="10.345419477671385">
        <ele>0</ele>
        <time>2010-01-02T16:03:53Z</time>
      </trkpt>
      <trkpt lat="54.089657329022884" lon="10.345896827057004">
        <ele>0</ele>
        <time>2010-01-02T16:04:05Z</time>
      </trkpt>
      <trkpt lat="54.089677864685655" lon="10.346034793183208">
        <ele>0</ele>
        <time>2010-01-02T16:04:08Z</time>
      </trkpt>
      <trkpt lat="54.08970502205193" lon="10.346215507015586">
        <ele>0</ele>
        <time>2010-01-02T16:04:13Z</time>
      </trkpt>
      <trkpt lat="54.089754642918706" lon="10.34644533880055">
        <ele>0</ele>
        <time>2010-01-02T16:04:18Z</time>
      </trkpt>
      <trkpt lat="54.08979588188231" lon="10.346606941893697">
        <ele>0</ele>
        <time>2010-01-02T16:04:22Z</time>
      </trkpt>
      <trkpt lat="54.089852124452591" lon="10.346792517229915">
        <ele>0</ele>
        <time>2010-01-02T16:04:27Z</time>
      </trkpt>
      <trkpt lat="54.089921275153756" lon="10.346999382600188">
        <ele>0</ele>
        <time>2010-01-02T16:04:33Z</time>
      </trkpt>
      <trkpt lat="54.090028563514352" lon="10.347218066453934">
        <ele>0</ele>
        <time>2010-01-02T16:04:40Z</time>
      </trkpt>
      <trkpt lat="54.090154124423862" lon="10.347394086420536">
        <ele>0</ele>
        <time>2010-01-02T16:04:46Z</time>
      </trkpt>
      <trkpt lat="54.090236267074943" lon="10.34747245721519">
        <ele>0</ele>
        <time>2010-01-02T16:04:50Z</time>
      </trkpt>
      <trkpt lat="54.09031723625958" lon="10.347514199092984">
        <ele>0</ele>
        <time>2010-01-02T16:04:53Z</time>
      </trkpt>
      <trkpt lat="54.090416477993131" lon="10.347560299560428">
        <ele>0</ele>
        <time>2010-01-02T16:04:57Z</time>
      </trkpt>
      <trkpt lat="54.090537847951055" lon="10.347587205469608">
        <ele>0</ele>
        <time>2010-01-02T16:05:02Z</time>
      </trkpt>
      <trkpt lat="54.090923247858882" lon="10.347599694505334">
        <ele>0</ele>
        <time>2010-01-02T16:05:18Z</time>
      </trkpt>
      <trkpt lat="54.09137561917305" lon="10.347596006467938">
        <ele>0</ele>
        <time>2010-01-02T16:05:36Z</time>
      </trkpt>
      <trkpt lat="54.091604864224792" lon="10.347608830779791">
        <ele>0</ele>
        <time>2010-01-02T16:05:45Z</time>
      </trkpt>
      <trkpt lat="54.09169907681644" lon="10.347616458311677">
        <ele>0</ele>
        <time>2010-01-02T16:05:49Z</time>
      </trkpt>
      <trkpt lat="54.091797731816769" lon="10.347637999802828">
        <ele>0</ele>
        <time>2010-01-02T16:05:53Z</time>
      </trkpt>
      <trkpt lat="54.091838048771024" lon="10.347648477181792">
        <ele>0</ele>
        <time>2010-01-02T16:05:54Z</time>
      </trkpt>
      <trkpt lat="54.091890854761004" lon="10.347662391141057">
        <ele>0</ele>
        <time>2010-01-02T16:05:57Z</time>
      </trkpt>
      <trkpt lat="54.092265358194709" lon="10.347760124132037">
        <ele>0</ele>
        <time>2010-01-02T16:06:12Z</time>
      </trkpt>
      <trkpt lat="54.09372054040432" lon="10.348162120208144">
        <ele>0</ele>
        <time>2010-01-02T16:07:11Z</time>
      </trkpt>
      <trkpt lat="54.093954311683774" lon="10.348227331414819">
        <ele>0</ele>
        <time>2010-01-02T16:07:20Z</time>
      </trkpt>
      <trkpt lat="54.093949366360903" lon="10.348417768254876">
        <ele>0</ele>
        <time>2010-01-02T16:07:25Z</time>
      </trkpt>
      <trkpt lat="54.093989348039031" lon="10.348583394661546">
        <ele>0</ele>
        <time>2010-01-02T16:07:29Z</time>
      </trkpt>
      <trkpt lat="54.094007033854723" lon="10.348606863990426">
        <ele>0</ele>
        <time>2010-01-02T16:07:30Z</time>
      </trkpt>
      <trkpt lat="54.09431666135788" lon="10.348954712972045">
        <ele>0</ele>
        <time>2010-01-02T16:07:45Z</time>
      </trkpt>
      <trkpt lat="54.094344154000282" lon="10.348989246413112">
        <ele>0</ele>
        <time>2010-01-02T16:07:46Z</time>
      </trkpt>
      <trkpt lat="54.094365360215306" lon="10.349022019654512">
        <ele>0</ele>
        <time>2010-01-02T16:07:47Z</time>
      </trkpt>
      <trkpt lat="54.094396205618978" lon="10.34907809458673">
        <ele>0</ele>
        <time>2010-01-02T16:07:49Z</time>
      </trkpt>
      <trkpt lat="54.094422524794936" lon="10.349132409319282">
        <ele>0</ele>
        <time>2010-01-02T16:07:51Z</time>
      </trkpt>
      <trkpt lat="54.094447921961546" lon="10.349189825356007">
        <ele>0</ele>
        <time>2010-01-02T16:07:52Z</time>
      </trkpt>
      <trkpt lat="54.094467032700777" lon="10.349248498678207">
        <ele>0</ele>
        <time>2010-01-02T16:07:54Z</time>
      </trkpt>
      <trkpt lat="54.094483461230993" lon="10.349307172000408">
        <ele>0</ele>
        <time>2010-01-02T16:07:55Z</time>
      </trkpt>
      <trkpt lat="54.094498716294765" lon="10.349388644099236">
        <ele>0</ele>
        <time>2010-01-02T16:07:57Z</time>
      </trkpt>
      <trkpt lat="54.09451455809176" lon="10.349499201402068">
        <ele>0</ele>
        <time>2010-01-02T16:08:00Z</time>
      </trkpt>
      <trkpt lat="54.094516988843679" lon="10.349523760378361">
        <ele>0</ele>
        <time>2010-01-02T16:08:01Z</time>
      </trkpt>
      <trkpt lat="54.094529896974564" lon="10.349651081487536">
        <ele>0</ele>
        <time>2010-01-02T16:08:04Z</time>
      </trkpt>
      <trkpt lat="54.09483659081161" lon="10.352981043979526">
        <ele>0</ele>
        <time>2010-01-02T16:09:23Z</time>
      </trkpt>
      <trkpt lat="54.094855114817619" lon="10.353171229362488">
        <ele>0</ele>
        <time>2010-01-02T16:09:27Z</time>
      </trkpt>
      <trkpt lat="54.094870705157518" lon="10.353313386440277">
        <ele>0</ele>
        <time>2010-01-02T16:09:31Z</time>
      </trkpt>
      <trkpt lat="54.094878751784563" lon="10.353387482464314">
        <ele>0</ele>
        <time>2010-01-02T16:09:32Z</time>
      </trkpt>
      <trkpt lat="54.094889899715781" lon="10.353472223505378">
        <ele>0</ele>
        <time>2010-01-02T16:09:35Z</time>
      </trkpt>
      <trkpt lat="54.094892833381891" lon="10.353494938462973">
        <ele>0</ele>
        <time>2010-01-02T16:09:35Z</time>
      </trkpt>
      <trkpt lat="54.094909010455012" lon="10.353578003123403">
        <ele>0</ele>
        <time>2010-01-02T16:09:37Z</time>
      </trkpt>
      <trkpt lat="54.094918230548501" lon="10.353630306199193">
        <ele>0</ele>
        <time>2010-01-02T16:09:38Z</time>
      </trkpt>
      <trkpt lat="54.094962989911437" lon="10.353888552635908">
        <ele>0</ele>
        <time>2010-01-02T16:09:45Z</time>
      </trkpt>
      <trkpt lat="54.095382923260331" lon="10.35616759210825">
        <ele>0</ele>
        <time>2010-01-02T16:10:41Z</time>
      </trkpt>
      <trkpt lat="54.095415947958827" lon="10.356352077797055">
        <ele>0</ele>
        <time>2010-01-02T16:10:45Z</time>
      </trkpt>
      <trkpt lat="54.095435980707407" lon="10.356485769152641">
        <ele>0</ele>
        <time>2010-01-02T16:10:49Z</time>
      </trkpt>
      <trkpt lat="54.095451738685369" lon="10.356597835198045">
        <ele>0</ele>
        <time>2010-01-02T16:10:51Z</time>
      </trkpt>
      <trkpt lat="54.095467748120427" lon="10.356774190440774">
        <ele>0</ele>
        <time>2010-01-02T16:10:55Z</time>
      </trkpt>
      <trkpt lat="54.095483925193548" lon="10.357011649757624">
        <ele>0</ele>
        <time>2010-01-02T16:11:01Z</time>
      </trkpt>
      <trkpt lat="54.095494318753481" lon="10.357284061610699">
        <ele>0</ele>
        <time>2010-01-02T16:11:07Z</time>
      </trkpt>
      <trkpt lat="54.095512004569173" lon="10.358025943860412">
        <ele>0</ele>
        <time>2010-01-02T16:11:25Z</time>
      </trkpt>
      <trkpt lat="54.095515944063663" lon="10.358154186978936">
        <ele>0</ele>
        <time>2010-01-02T16:11:28Z</time>
      </trkpt>
      <trkpt lat="54.095598254352808" lon="10.358615359291434">
        <ele>0</ele>
        <time>2010-01-02T16:11:39Z</time>
      </trkpt>
      <trkpt lat="54.09567603841424" lon="10.359034286811948">
        <ele>0</ele>
        <time>2010-01-02T16:11:50Z</time>
      </trkpt>
      <trkpt lat="54.09577863290906" lon="10.359587911516428">
        <ele>0</ele>
        <time>2010-01-02T16:12:03Z</time>
      </trkpt>
      <trkpt lat="54.096019277349114" lon="10.360794067382812">
        <ele>0</ele>
        <time>2010-01-02T16:12:33Z</time>
      </trkpt>
      <trkpt lat="54.096254725009203" lon="10.361986476927996">
        <ele>0</ele>
        <time>2010-01-02T16:13:03Z</time>
      </trkpt>
      <trkpt lat="54.096364611759782" lon="10.362421246245503">
        <ele>0</ele>
        <time>2010-01-02T16:13:14Z</time>
      </trkpt>
      <trkpt lat="54.096463434398174" lon="10.36286473274231">
        <ele>0</ele>
        <time>2010-01-02T16:13:25Z</time>
      </trkpt>
      <trkpt lat="54.096469385549426" lon="10.362885436043143">
        <ele>0</ele>
        <time>2010-01-02T16:13:25Z</time>
      </trkpt>
      <trkpt lat="54.097131472080946" lon="10.365649871528149">
        <ele>0</ele>
        <time>2010-01-02T16:14:36Z</time>
      </trkpt>
      <trkpt lat="54.097267258912325" lon="10.366232581436634">
        <ele>0</ele>
        <time>2010-01-02T16:14:50Z</time>
      </trkpt>
      <trkpt lat="54.098052140325308" lon="10.369592467322946">
        <ele>0</ele>
        <time>2010-01-02T16:16:15Z</time>
      </trkpt>
      <trkpt lat="54.097733041271567" lon="10.370156737044454">
        <ele>0</ele>
        <time>2010-01-02T16:16:34Z</time>
      </trkpt>
      <trkpt lat="54.097678055986762" lon="10.370245082303882">
        <ele>0</ele>
        <time>2010-01-02T16:16:37Z</time>
      </trkpt>
      <trkpt lat="54.097621394321322" lon="10.37033342756331">
        <ele>0</ele>
        <time>2010-01-02T16:16:40Z</time>
      </trkpt>
      <trkpt lat="54.097558530047536" lon="10.370403248816729">
        <ele>0</ele>
        <time>2010-01-02T16:16:43Z</time>
      </trkpt>
      <trkpt lat="54.097545873373747" lon="10.370416576042771">
        <ele>0</ele>
        <time>2010-01-02T16:16:43Z</time>
      </trkpt>
      <trkpt lat="54.097468592226505" lon="10.370491929352283">
        <ele>0</ele>
        <time>2010-01-02T16:16:47Z</time>
      </trkpt>
      <trkpt lat="54.097404135391116" lon="10.370552530512214">
        <ele>0</ele>
        <time>2010-01-02T16:16:50Z</time>
      </trkpt>
      <trkpt lat="54.097309587523341" lon="10.370648754760623">
        <ele>0</ele>
        <time>2010-01-02T16:16:54Z</time>
      </trkpt>
      <trkpt lat="54.097254099324346" lon="10.370704997330904">
        <ele>0</ele>
        <time>2010-01-02T16:16:57Z</time>
      </trkpt>
      <trkpt lat="54.097147649154067" lon="10.370825361460447">
        <ele>0</ele>
        <time>2010-01-02T16:17:02Z</time>
      </trkpt>
      <trkpt lat="54.097076319158077" lon="10.370936086401343">
        <ele>0</ele>
        <time>2010-01-02T16:17:06Z</time>
      </trkpt>
      <trkpt lat="54.097013873979449" lon="10.371053265407681">
        <ele>0</ele>
        <time>2010-01-02T16:17:09Z</time>
      </trkpt>
      <trkpt lat="54.096937514841557" lon="10.371206654235721">
        <ele>0</ele>
        <time>2010-01-02T16:17:14Z</time>
      </trkpt>
      <trkpt lat="54.096859898418188" lon="10.371393654495478">
        <ele>0</ele>
        <time>2010-01-02T16:17:20Z</time>
      </trkpt>
      <trkpt lat="54.096823018044233" lon="10.371481077745557">
        <ele>0</ele>
        <time>2010-01-02T16:17:22Z</time>
      </trkpt>
      <trkpt lat="54.096767781302333" lon="10.371596999466419">
        <ele>0</ele>
        <time>2010-01-02T16:17:26Z</time>
      </trkpt>
      <trkpt lat="54.096729140728712" lon="10.371672185137868">
        <ele>0</ele>
        <time>2010-01-02T16:17:28Z</time>
      </trkpt>
      <trkpt lat="54.096717238426208" lon="10.371694648638368">
        <ele>0</ele>
        <time>2010-01-02T16:17:29Z</time>
      </trkpt>
      <trkpt lat="54.09665672108531" lon="10.371802775189281">
        <ele>0</ele>
        <time>2010-01-02T16:17:32Z</time>
      </trkpt>
      <trkpt lat="54.096597963944077" lon="10.371909309178591">
        <ele>0</ele>
        <time>2010-01-02T16:17:36Z</time>
      </trkpt>
      <trkpt lat="54.096591509878635" lon="10.371921379119158">
        <ele>0</ele>
        <time>2010-01-02T16:17:36Z</time>
      </trkpt>
      <trkpt lat="54.096478773280978" lon="10.372117850929499">
        <ele>0</ele>
        <time>2010-01-02T16:17:42Z</time>
      </trkpt>
      <trkpt lat="54.096387159079313" lon="10.372273838147521">
        <ele>0</ele>
        <time>2010-01-02T16:17:48Z</time>
      </trkpt>
      <trkpt lat="54.096345081925392" lon="10.37234122864902">
        <ele>0</ele>
        <time>2010-01-02T16:17:50Z</time>
      </trkpt>
      <trkpt lat="54.096302920952439" lon="10.37241012789309">
        <ele>0</ele>
        <time>2010-01-02T16:17:52Z</time>
      </trkpt>
      <trkpt lat="54.09620426595211" lon="10.37255672737956">
        <ele>0</ele>
        <time>2010-01-02T16:17:57Z</time>
      </trkpt>
      <trkpt lat="54.09608063288033" lon="10.372760491445661">
        <ele>0</ele>
        <time>2010-01-02T16:18:04Z</time>
      </trkpt>
      <trkpt lat="54.095891118049622" lon="10.373070705682039">
        <ele>0</ele>
        <time>2010-01-02T16:18:15Z</time>
      </trkpt>
      <trkpt lat="54.095818949863315" lon="10.37317531183362">
        <ele>0</ele>
        <time>2010-01-02T16:18:19Z</time>
      </trkpt>
      <trkpt lat="54.095763210207224" lon="10.373256029561162">
        <ele>0</ele>
        <time>2010-01-02T16:18:22Z</time>
      </trkpt>
      <trkpt lat="54.095592303201556" lon="10.373502541333437">
        <ele>0</ele>
        <time>2010-01-02T16:18:31Z</time>
      </trkpt>
      <trkpt lat="54.095171196386218" lon="10.374109223484993">
        <ele>0</ele>
        <time>2010-01-02T16:18:53Z</time>
      </trkpt>
      <trkpt lat="54.094955613836646" lon="10.374420024454594">
        <ele>0</ele>
        <time>2010-01-02T16:19:04Z</time>
      </trkpt>
      <trkpt lat="54.094864251092076" lon="10.374551536515355">
        <ele>0</ele>
        <time>2010-01-02T16:19:09Z</time>
      </trkpt>
      <trkpt lat="54.09473936073482" lon="10.374709451571107">
        <ele>0</ele>
        <time>2010-01-02T16:19:15Z</time>
      </trkpt>
      <trkpt lat="54.094645483419299" lon="10.374822523444891">
        <ele>0</ele>
        <time>2010-01-02T16:19:20Z</time>
      </trkpt>
      <trkpt lat="54.094561915844679" lon="10.374903827905655">
        <ele>0</ele>
        <time>2010-01-02T16:19:23Z</time>
      </trkpt>
      <trkpt lat="54.094480276107788" lon="10.374969877302647">
        <ele>0</ele>
        <time>2010-01-02T16:19:27Z</time>
      </trkpt>
      <trkpt lat="54.094339208677411" lon="10.375050846487284">
        <ele>0</ele>
        <time>2010-01-02T16:19:33Z</time>
      </trkpt>
      <trkpt lat="54.094228148460388" lon="10.375100634992123">
        <ele>0</ele>
        <time>2010-01-02T16:19:38Z</time>
      </trkpt>
      <trkpt lat="54.094110885635018" lon="10.375141119584441">
        <ele>0</ele>
        <time>2010-01-02T16:19:42Z</time>
      </trkpt>
      <trkpt lat="54.094008039683104" lon="10.375175904482603">
        <ele>0</ele>
        <time>2010-01-02T16:19:47Z</time>
      </trkpt>
      <trkpt lat="54.093892704695463" lon="10.375201134011149">
        <ele>0</ele>
        <time>2010-01-02T16:19:51Z</time>
      </trkpt>
      <trkpt lat="54.093791618943214" lon="10.375240612775087">
        <ele>0</ele>
        <time>2010-01-02T16:19:55Z</time>
      </trkpt>
      <trkpt lat="54.093659771606326" lon="10.37529886700213">
        <ele>0</ele>
        <time>2010-01-02T16:20:01Z</time>
      </trkpt>
      <trkpt lat="54.093496324494481" lon="10.375372963026166">
        <ele>0</ele>
        <time>2010-01-02T16:20:08Z</time>
      </trkpt>
      <trkpt lat="54.093365482985973" lon="10.375425182282925">
        <ele>0</ele>
        <time>2010-01-02T16:20:13Z</time>
      </trkpt>
      <trkpt lat="54.093276802450418" lon="10.375475725159049">
        <ele>0</ele>
        <time>2010-01-02T16:20:17Z</time>
      </trkpt>
      <trkpt lat="54.093153839930892" lon="10.375545043498278">
        <ele>0</ele>
        <time>2010-01-02T16:20:22Z</time>
      </trkpt>
      <trkpt lat="54.092947812750936" lon="10.37564679980278">
        <ele>0</ele>
        <time>2010-01-02T16:20:30Z</time>
      </trkpt>
      <trkpt lat="54.09281755797565" lon="10.375720392912626">
        <ele>0</ele>
        <time>2010-01-02T16:20:36Z</time>
      </trkpt>
      <trkpt lat="54.092646818608046" lon="10.375803373754025">
        <ele>0</ele>
        <time>2010-01-02T16:20:43Z</time>
      </trkpt>
      <trkpt lat="54.092517737299204" lon="10.375855676829815">
        <ele>0</ele>
        <time>2010-01-02T16:20:48Z</time>
      </trkpt>
      <trkpt lat="54.092382285743952" lon="10.375913847237825">
        <ele>0</ele>
        <time>2010-01-02T16:20:54Z</time>
      </trkpt>
      <trkpt lat="54.092244990170002" lon="10.375976543873549">
        <ele>0</ele>
        <time>2010-01-02T16:21:00Z</time>
      </trkpt>
      <trkpt lat="54.092130493372679" lon="10.376010993495584">
        <ele>0</ele>
        <time>2010-01-02T16:21:04Z</time>
      </trkpt>
      <trkpt lat="54.092045668512583" lon="10.376044856384397">
        <ele>0</ele>
        <time>2010-01-02T16:21:08Z</time>
      </trkpt>
      <trkpt lat="54.09196637570858" lon="10.376066649332643">
        <ele>0</ele>
        <time>2010-01-02T16:21:11Z</time>
      </trkpt>
      <trkpt lat="54.091875348240137" lon="10.376091208308935">
        <ele>0</ele>
        <time>2010-01-02T16:21:15Z</time>
      </trkpt>
      <trkpt lat="54.091865373775363" lon="10.376092381775379">
        <ele>0</ele>
        <time>2010-01-02T16:21:15Z</time>
      </trkpt>
      <trkpt lat="54.091809634119272" lon="10.376098165288568">
        <ele>0</ele>
        <time>2010-01-02T16:21:17Z</time>
      </trkpt>
      <trkpt lat="54.091745764017105" lon="10.376105206087232">
        <ele>0</ele>
        <time>2010-01-02T16:21:20Z</time>
      </trkpt>
      <trkpt lat="54.091678541153669" lon="10.376089280471206">
        <ele>0</ele>
        <time>2010-01-02T16:21:23Z</time>
      </trkpt>
      <trkpt lat="54.091553315520287" lon="10.376043850556016">
        <ele>0</ele>
        <time>2010-01-02T16:21:28Z</time>
      </trkpt>
      <trkpt lat="54.091409984976053" lon="10.37600546143949">
        <ele>0</ele>
        <time>2010-01-02T16:21:34Z</time>
      </trkpt>
      <trkpt lat="54.091308899223804" lon="10.375966988503933">
        <ele>0</ele>
        <time>2010-01-02T16:21:38Z</time>
      </trkpt>
      <trkpt lat="54.091246202588081" lon="10.375946536660194">
        <ele>0</ele>
        <time>2010-01-02T16:21:40Z</time>
      </trkpt>
      <trkpt lat="54.091197000816464" lon="10.37593119777739">
        <ele>0</ele>
        <time>2010-01-02T16:21:42Z</time>
      </trkpt>
      <trkpt lat="54.091172777116299" lon="10.375922732055187">
        <ele>0</ele>
        <time>2010-01-02T16:21:43Z</time>
      </trkpt>
      <trkpt lat="54.090949986129999" lon="10.375921474769711">
        <ele>0</ele>
        <time>2010-01-02T16:21:52Z</time>
      </trkpt>
      <trkpt lat="54.090865748003125" lon="10.375906471163034">
        <ele>0</ele>
        <time>2010-01-02T16:21:56Z</time>
      </trkpt>
      <trkpt lat="54.090796681120992" lon="10.375891970470548">
        <ele>0</ele>
        <time>2010-01-02T16:21:58Z</time>
      </trkpt>
      <trkpt lat="54.090666929259896" lon="10.375849390402436">
        <ele>0</ele>
        <time>2010-01-02T16:22:04Z</time>
      </trkpt>
      <trkpt lat="54.090545140206814" lon="10.375808738172054">
        <ele>0</ele>
        <time>2010-01-02T16:22:09Z</time>
      </trkpt>
      <trkpt lat="54.090364510193467" lon="10.375735480338335">
        <ele>0</ele>
        <time>2010-01-02T16:22:16Z</time>
      </trkpt>
      <trkpt lat="54.090199721977115" lon="10.375679908320308">
        <ele>0</ele>
        <time>2010-01-02T16:22:23Z</time>
      </trkpt>
      <trkpt lat="54.090030072256923" lon="10.37559449672699">
        <ele>0</ele>
        <time>2010-01-02T16:22:30Z</time>
      </trkpt>
      <trkpt lat="54.089849358424544" lon="10.375530458986759">
        <ele>0</ele>
        <time>2010-01-02T16:22:37Z</time>
      </trkpt>
      <trkpt lat="54.089693706482649" lon="10.375464158132672">
        <ele>0</ele>
        <time>2010-01-02T16:22:44Z</time>
      </trkpt>
      <trkpt lat="54.089538976550102" lon="10.37540246732533">
        <ele>0</ele>
        <time>2010-01-02T16:22:50Z</time>
      </trkpt>
      <trkpt lat="54.089454067870975" lon="10.375364497303963">
        <ele>0</ele>
        <time>2010-01-02T16:22:54Z</time>
      </trkpt>
      <trkpt lat="54.089361112564802" lon="10.375321665778756">
        <ele>0</ele>
        <time>2010-01-02T16:22:57Z</time>
      </trkpt>
      <trkpt lat="54.08915625885129" lon="10.375246144831181">
        <ele>0</ele>
        <time>2010-01-02T16:23:06Z</time>
      </trkpt>
      <trkpt lat="54.088951991870999" lon="10.375190488994122">
        <ele>0</ele>
        <time>2010-01-02T16:23:14Z</time>
      </trkpt>
      <trkpt lat="54.088802374899387" lon="10.375153440982103">
        <ele>0</ele>
        <time>2010-01-02T16:23:20Z</time>
      </trkpt>
      <trkpt lat="54.088700534775853" lon="10.375105747953057">
        <ele>0</ele>
        <time>2010-01-02T16:23:24Z</time>
      </trkpt>
      <trkpt lat="54.088599532842636" lon="10.375053528696299">
        <ele>0</ele>
        <time>2010-01-02T16:23:29Z</time>
      </trkpt>
      <trkpt lat="54.088485455140471" lon="10.374977923929691">
        <ele>0</ele>
        <time>2010-01-02T16:23:33Z</time>
      </trkpt>
      <trkpt lat="54.088366599753499" lon="10.374920424073935">
        <ele>0</ele>
        <time>2010-01-02T16:23:38Z</time>
      </trkpt>
      <trkpt lat="54.088247660547495" lon="10.374866109341383">
        <ele>0</ele>
        <time>2010-01-02T16:23:43Z</time>
      </trkpt>
      <trkpt lat="54.08808664418757" lon="10.374804250895977">
        <ele>0</ele>
        <time>2010-01-02T16:23:50Z</time>
      </trkpt>
      <trkpt lat="54.087959490716457" lon="10.374767957255244">
        <ele>0</ele>
        <time>2010-01-02T16:23:55Z</time>
      </trkpt>
      <trkpt lat="54.087851112708449" lon="10.37474138662219">
        <ele>0</ele>
        <time>2010-01-02T16:23:59Z</time>
      </trkpt>
      <trkpt lat="54.087821524590254" lon="10.374734345823526">
        <ele>0</ele>
        <time>2010-01-02T16:24:01Z</time>
      </trkpt>
      <trkpt lat="54.08766302280128" lon="10.374689335003495">
        <ele>0</ele>
        <time>2010-01-02T16:24:07Z</time>
      </trkpt>
      <trkpt lat="54.087645085528493" lon="10.374684138223529">
        <ele>0</ele>
        <time>2010-01-02T16:24:08Z</time>
      </trkpt>
      <trkpt lat="54.087408715859056" lon="10.374612137675285">
        <ele>0</ele>
        <time>2010-01-02T16:24:17Z</time>
      </trkpt>
      <trkpt lat="54.087344175204635" lon="10.374597804620862">
        <ele>0</ele>
        <time>2010-01-02T16:24:20Z</time>
      </trkpt>
      <trkpt lat="54.086691308766603" lon="10.37440812215209">
        <ele>0</ele>
        <time>2010-01-02T16:24:47Z</time>
      </trkpt>
      <trkpt lat="54.086608998477459" lon="10.374382473528385">
        <ele>0</ele>
        <time>2010-01-02T16:24:50Z</time>
      </trkpt>
      <trkpt lat="54.086548984050751" lon="10.374365206807852">
        <ele>0</ele>
        <time>2010-01-02T16:24:52Z</time>
      </trkpt>
      <trkpt lat="54.086393835023046" lon="10.374341737478971">
        <ele>0</ele>
        <time>2010-01-02T16:24:59Z</time>
      </trkpt>
      <trkpt lat="54.086307669058442" lon="10.374331260100007">
        <ele>0</ele>
        <time>2010-01-02T16:25:02Z</time>
      </trkpt>
      <trkpt lat="54.08600902184844" lon="10.374296391382813">
        <ele>0</ele>
        <time>2010-01-02T16:25:14Z</time>
      </trkpt>
      <trkpt lat="54.085752200335264" lon="10.374270072206855">
        <ele>0</ele>
        <time>2010-01-02T16:25:24Z</time>
      </trkpt>
      <trkpt lat="54.085652707144618" lon="10.374246938154101">
        <ele>0</ele>
        <time>2010-01-02T16:25:28Z</time>
      </trkpt>
      <trkpt lat="54.085425473749638" lon="10.37415842525661">
        <ele>0</ele>
        <time>2010-01-02T16:25:38Z</time>
      </trkpt>
      <trkpt lat="54.084883751347661" lon="10.37392046302557">
        <ele>0</ele>
        <time>2010-01-02T16:26:00Z</time>
      </trkpt>
      <trkpt lat="54.084603879600763" lon="10.373798087239265">
        <ele>0</ele>
        <time>2010-01-02T16:26:12Z</time>
      </trkpt>
      <trkpt lat="54.084437666460872" lon="10.373719213530421">
        <ele>0</ele>
        <time>2010-01-02T16:26:19Z</time>
      </trkpt>
      <trkpt lat="54.084358876571059" lon="10.37369373254478">
        <ele>0</ele>
        <time>2010-01-02T16:26:22Z</time>
      </trkpt>
      <trkpt lat="54.084279080852866" lon="10.37368493154645">
        <ele>0</ele>
        <time>2010-01-02T16:26:25Z</time>
      </trkpt>
      <trkpt lat="54.084206996485591" lon="10.373699432238936">
        <ele>0</ele>
        <time>2010-01-02T16:26:28Z</time>
      </trkpt>
      <trkpt lat="54.084111442789435" lon="10.373725248500705">
        <ele>0</ele>
        <time>2010-01-02T16:26:32Z</time>
      </trkpt>
      <trkpt lat="54.08402812667191" lon="10.373770678415895">
        <ele>0</ele>
        <time>2010-01-02T16:26:35Z</time>
      </trkpt>
      <trkpt lat="54.083994850516319" lon="10.373788699507713">
        <ele>0</ele>
        <time>2010-01-02T16:26:37Z</time>
      </trkpt>
      <trkpt lat="54.083961993455887" lon="10.373830357566476">
        <ele>0</ele>
        <time>2010-01-02T16:26:38Z</time>
      </trkpt>
      <trkpt lat="54.083925532177091" lon="10.373876541852951">
        <ele>0</ele>
        <time>2010-01-02T16:26:40Z</time>
      </trkpt>
      <trkpt lat="54.08387809060514" lon="10.373943764716387">
        <ele>0</ele>
        <time>2010-01-02T16:26:43Z</time>
      </trkpt>
      <trkpt lat="54.083857890218496" lon="10.373978214338422">
        <ele>0</ele>
        <time>2010-01-02T16:26:44Z</time>
      </trkpt>
      <trkpt lat="54.08384682610631" lon="10.374000761657953">
        <ele>0</ele>
        <time>2010-01-02T16:26:44Z</time>
      </trkpt>
      <trkpt lat="54.083829391747713" lon="10.374035378918052">
        <ele>0</ele>
        <time>2010-01-02T16:26:45Z</time>
      </trkpt>
      <trkpt lat="54.083804497495294" lon="10.374088017269969">
        <ele>0</ele>
        <time>2010-01-02T16:26:47Z</time>
      </trkpt>
      <trkpt lat="54.083755798637867" lon="10.374184157699347">
        <ele>0</ele>
        <time>2010-01-02T16:26:50Z</time>
      </trkpt>
      <trkpt lat="54.083708105608821" lon="10.374346096068621">
        <ele>0</ele>
        <time>2010-01-02T16:26:54Z</time>
      </trkpt>
      <trkpt lat="54.083635685965419" lon="10.374554637819529">
        <ele>0</ele>
        <time>2010-01-02T16:27:00Z</time>
      </trkpt>
      <trkpt lat="54.083588495850563" lon="10.374672235921025">
        <ele>0</ele>
        <time>2010-01-02T16:27:03Z</time>
      </trkpt>
      <trkpt lat="54.08354239538312" lon="10.374776171520352">
        <ele>0</ele>
        <time>2010-01-02T16:27:06Z</time>
      </trkpt>
      <trkpt lat="54.083510208874941" lon="10.374840795993805">
        <ele>0</ele>
        <time>2010-01-02T16:27:08Z</time>
      </trkpt>
      <trkpt lat="54.083478190004826" lon="10.374887147918344">
        <ele>0</ele>
        <time>2010-01-02T16:27:10Z</time>
      </trkpt>
      <trkpt lat="54.083438040688634" lon="10.374946910887957">
        <ele>0</ele>
        <time>2010-01-02T16:27:12Z</time>
      </trkpt>
      <trkpt lat="54.083344163373113" lon="10.375061491504312">
        <ele>0</ele>
        <time>2010-01-02T16:27:17Z</time>
      </trkpt>
      <trkpt lat="54.083240311592817" lon="10.375181855633855">
        <ele>0</ele>
        <time>2010-01-02T16:27:22Z</time>
      </trkpt>
      <trkpt lat="54.083165712654591" lon="10.375268021598458">
        <ele>0</ele>
        <time>2010-01-02T16:27:25Z</time>
      </trkpt>
      <trkpt lat="54.083102680742741" lon="10.375353014096618">
        <ele>0</ele>
        <time>2010-01-02T16:27:29Z</time>
      </trkpt>
      <trkpt lat="54.083040487021208" lon="10.375448735430837">
        <ele>0</ele>
        <time>2010-01-02T16:27:32Z</time>
      </trkpt>
      <trkpt lat="54.082999248057604" lon="10.375525346025825">
        <ele>0</ele>
        <time>2010-01-02T16:27:34Z</time>
      </trkpt>
      <trkpt lat="54.082970498129725" lon="10.375596173107624">
        <ele>0</ele>
        <time>2010-01-02T16:27:36Z</time>
      </trkpt>
      <trkpt lat="54.082939065992832" lon="10.375679237768054">
        <ele>0</ele>
        <time>2010-01-02T16:27:39Z</time>
      </trkpt>
      <trkpt lat="54.082911238074303" lon="10.375756183639169">
        <ele>0</ele>
        <time>2010-01-02T16:27:41Z</time>
      </trkpt>
      <trkpt lat="54.082875614985824" lon="10.375880319625139">
        <ele>0</ele>
        <time>2010-01-02T16:27:44Z</time>
      </trkpt>
      <trkpt lat="54.082816941663623" lon="10.376063296571374">
        <ele>0</ele>
        <time>2010-01-02T16:27:49Z</time>
      </trkpt>
      <trkpt lat="54.08278408460319" lon="10.376184498891234">
        <ele>0</ele>
        <time>2010-01-02T16:27:52Z</time>
      </trkpt>
      <trkpt lat="54.082746952772141" lon="10.376293295994401">
        <ele>0</ele>
        <time>2010-01-02T16:27:55Z</time>
      </trkpt>
      <trkpt lat="54.082699678838253" lon="10.376413995400071">
        <ele>0</ele>
        <time>2010-01-02T16:27:59Z</time>
      </trkpt>
      <trkpt lat="54.082689536735415" lon="10.376439560204744">
        <ele>0</ele>
        <time>2010-01-02T16:27:59Z</time>
      </trkpt>
      <trkpt lat="54.082667324692011" lon="10.376493874937296">
        <ele>0</ele>
        <time>2010-01-02T16:28:01Z</time>
      </trkpt>
      <trkpt lat="54.082643520087004" lon="10.376532850787044">
        <ele>0</ele>
        <time>2010-01-02T16:28:02Z</time>
      </trkpt>
      <trkpt lat="54.082611501216888" lon="10.376585237681866">
        <ele>0</ele>
        <time>2010-01-02T16:28:04Z</time>
      </trkpt>
      <trkpt lat="54.082564227283001" lon="10.376635612919927">
        <ele>0</ele>
        <time>2010-01-02T16:28:06Z</time>
      </trkpt>
      <trkpt lat="54.08250798471272" lon="10.376679617911577">
        <ele>0</ele>
        <time>2010-01-02T16:28:09Z</time>
      </trkpt>
      <trkpt lat="54.082452915608883" lon="10.376705266535282">
        <ele>0</ele>
        <time>2010-01-02T16:28:11Z</time>
      </trkpt>
      <trkpt lat="54.082385273650289" lon="10.376724461093545">
        <ele>0</ele>
        <time>2010-01-02T16:28:14Z</time>
      </trkpt>
      <trkpt lat="54.082311512902379" lon="10.376735776662827">
        <ele>0</ele>
        <time>2010-01-02T16:28:17Z</time>
      </trkpt>
      <trkpt lat="54.082237752154469" lon="10.376740973442793">
        <ele>0</ele>
        <time>2010-01-02T16:28:20Z</time>
      </trkpt>
      <trkpt lat="54.082153430208564" lon="10.376732088625431">
        <ele>0</ele>
        <time>2010-01-02T16:28:23Z</time>
      </trkpt>
      <trkpt lat="54.08206919208169" lon="10.376710882410407">
        <ele>0</ele>
        <time>2010-01-02T16:28:26Z</time>
      </trkpt>
      <trkpt lat="54.081953773275018" lon="10.376667380332947">
        <ele>0</ele>
        <time>2010-01-02T16:28:31Z</time>
      </trkpt>
      <trkpt lat="54.08184832893312" lon="10.376613484695554">
        <ele>0</ele>
        <time>2010-01-02T16:28:36Z</time>
      </trkpt>
      <trkpt lat="54.081738609820604" lon="10.376548692584038">
        <ele>0</ele>
        <time>2010-01-02T16:28:40Z</time>
      </trkpt>
      <trkpt lat="54.081637859344482" lon="10.376475099474192">
        <ele>0</ele>
        <time>2010-01-02T16:28:45Z</time>
      </trkpt>
      <trkpt lat="54.081518584862351" lon="10.376377869397402">
        <ele>0</ele>
        <time>2010-01-02T16:28:50Z</time>
      </trkpt>
      <trkpt lat="54.081417163833976" lon="10.376293547451496">
        <ele>0</ele>
        <time>2010-01-02T16:28:54Z</time>
      </trkpt>
      <trkpt lat="54.081232426688075" lon="10.376101015135646">
        <ele>0</ele>
        <time>2010-01-02T16:29:03Z</time>
      </trkpt>
      <trkpt lat="54.081056909635663" lon="10.375891970470548">
        <ele>0</ele>
        <time>2010-01-02T16:29:12Z</time>
      </trkpt>
      <trkpt lat="54.08096831291914" lon="10.375785101205111">
        <ele>0</ele>
        <time>2010-01-02T16:29:16Z</time>
      </trkpt>
      <trkpt lat="54.080856665968895" lon="10.375650068745017">
        <ele>0</ele>
        <time>2010-01-02T16:29:21Z</time>
      </trkpt>
      <trkpt lat="54.080802602693439" lon="10.375584019348025">
        <ele>0</ele>
        <time>2010-01-02T16:29:24Z</time>
      </trkpt>
      <trkpt lat="54.080732529982924" lon="10.375503804534674">
        <ele>0</ele>
        <time>2010-01-02T16:29:27Z</time>
      </trkpt>
      <trkpt lat="54.080665055662394" lon="10.375435911118984">
        <ele>0</ele>
        <time>2010-01-02T16:29:31Z</time>
      </trkpt>
      <trkpt lat="54.080600179731846" lon="10.375372627750039">
        <ele>0</ele>
        <time>2010-01-02T16:29:34Z</time>
      </trkpt>
      <trkpt lat="54.080537650734186" lon="10.375336920842528">
        <ele>0</ele>
        <time>2010-01-02T16:29:36Z</time>
      </trkpt>
      <trkpt lat="54.080488616600633" lon="10.375306243076921">
        <ele>0</ele>
        <time>2010-01-02T16:29:38Z</time>
      </trkpt>
      <trkpt lat="54.080439498648047" lon="10.375281684100628">
        <ele>0</ele>
        <time>2010-01-02T16:29:40Z</time>
      </trkpt>
      <trkpt lat="54.080400019884109" lon="10.375272799283266">
        <ele>0</ele>
        <time>2010-01-02T16:29:42Z</time>
      </trkpt>
      <trkpt lat="54.080342436209321" lon="10.375281600281596">
        <ele>0</ele>
        <time>2010-01-02T16:29:44Z</time>
      </trkpt>
      <trkpt lat="54.080219054594636" lon="10.375309595838189">
        <ele>0</ele>
        <time>2010-01-02T16:29:49Z</time>
      </trkpt>
      <trkpt lat="54.0799964312464" lon="10.37536483258009">
        <ele>0</ele>
        <time>2010-01-02T16:29:58Z</time>
      </trkpt>
      <trkpt lat="54.079944128170609" lon="10.375381428748369">
        <ele>0</ele>
        <time>2010-01-02T16:30:00Z</time>
      </trkpt>
      <trkpt lat="54.07985670492053" lon="10.375407580286264">
        <ele>0</ele>
        <time>2010-01-02T16:30:04Z</time>
      </trkpt>
      <trkpt lat="54.079769281670451" lon="10.37543373182416">
        <ele>0</ele>
        <time>2010-01-02T16:30:08Z</time>
      </trkpt>
      <trkpt lat="54.079712452366948" lon="10.375450160354376">
        <ele>0</ele>
        <time>2010-01-02T16:30:10Z</time>
      </trkpt>
      <trkpt lat="54.079653611406684" lon="10.37548947148025">
        <ele>0</ele>
        <time>2010-01-02T16:30:12Z</time>
      </trkpt>
      <trkpt lat="54.079603739082813" lon="10.375530626624823">
        <ele>0</ele>
        <time>2010-01-02T16:30:15Z</time>
      </trkpt>
      <trkpt lat="54.079557387158275" lon="10.3755749668926">
        <ele>0</ele>
        <time>2010-01-02T16:30:17Z</time>
      </trkpt>
      <trkpt lat="54.079499049112201" lon="10.375644871965051">
        <ele>0</ele>
        <time>2010-01-02T16:30:20Z</time>
      </trkpt>
      <trkpt lat="54.079441549256444" lon="10.375722404569387">
        <ele>0</ele>
        <time>2010-01-02T16:30:22Z</time>
      </trkpt>
      <trkpt lat="54.079385558143258" lon="10.375829022377729">
        <ele>0</ele>
        <time>2010-01-02T16:30:26Z</time>
      </trkpt>
      <trkpt lat="54.079369967803359" lon="10.375856012105942">
        <ele>0</ele>
        <time>2010-01-02T16:30:27Z</time>
      </trkpt>
      <trkpt lat="54.079301236197352" lon="10.375971430912614">
        <ele>0</ele>
        <time>2010-01-02T16:30:31Z</time>
      </trkpt>
      <trkpt lat="54.079159498214722" lon="10.376188270747662">
        <ele>0</ele>
        <time>2010-01-02T16:30:38Z</time>
      </trkpt>
      <trkpt lat="54.079047851264477" lon="10.376366386190057">
        <ele>0</ele>
        <time>2010-01-02T16:30:44Z</time>
      </trkpt>
      <trkpt lat="54.078976856544614" lon="10.37644961848855">
        <ele>0</ele>
        <time>2010-01-02T16:30:48Z</time>
      </trkpt>
      <trkpt lat="54.07888675108552" lon="10.37654441781342">
        <ele>0</ele>
        <time>2010-01-02T16:30:52Z</time>
      </trkpt>
      <trkpt lat="54.078721459954977" lon="10.376700907945633">
        <ele>0</ele>
        <time>2010-01-02T16:31:00Z</time>
      </trkpt>
      <trkpt lat="54.078655075281858" lon="10.376770561560988">
        <ele>0</ele>
        <time>2010-01-02T16:31:03Z</time>
      </trkpt>
      <trkpt lat="54.078571507707238" lon="10.37685027346015">
        <ele>0</ele>
        <time>2010-01-02T16:31:07Z</time>
      </trkpt>
      <trkpt lat="54.078515851870179" lon="10.376927889883518">
        <ele>0</ele>
        <time>2010-01-02T16:31:09Z</time>
      </trkpt>
      <trkpt lat="54.078472601249814" lon="10.377010451629758">
        <ele>0</ele>
        <time>2010-01-02T16:31:12Z</time>
      </trkpt>
      <trkpt lat="54.078427758067846" lon="10.377086894586682">
        <ele>0</ele>
        <time>2010-01-02T16:31:15Z</time>
      </trkpt>
      <trkpt lat="54.078388698399067" lon="10.377200217917562">
        <ele>0</ele>
        <time>2010-01-02T16:31:18Z</time>
      </trkpt>
      <trkpt lat="54.078217623755336" lon="10.377698773518205">
        <ele>0</ele>
        <time>2010-01-02T16:31:31Z</time>
      </trkpt>
      <trkpt lat="54.078146377578378" lon="10.377892144024372">
        <ele>0</ele>
        <time>2010-01-02T16:31:37Z</time>
      </trkpt>
      <trkpt lat="54.077984858304262" lon="10.378329763188958">
        <ele>0</ele>
        <time>2010-01-02T16:31:49Z</time>
      </trkpt>
      <trkpt lat="54.077934650704265" lon="10.378483990207314">
        <ele>0</ele>
        <time>2010-01-02T16:31:53Z</time>
      </trkpt>
      <trkpt lat="54.077888801693916" lon="10.3786367084831">
        <ele>0</ele>
        <time>2010-01-02T16:31:57Z</time>
      </trkpt>
      <trkpt lat="54.077799869701266" lon="10.378954634070396">
        <ele>0</ele>
        <time>2010-01-02T16:32:05Z</time>
      </trkpt>
      <trkpt lat="54.077623263001442" lon="10.37958369590342">
        <ele>0</ele>
        <time>2010-01-02T16:32:22Z</time>
      </trkpt>
      <trkpt lat="54.077589064836502" lon="10.379705568775535">
        <ele>0</ele>
        <time>2010-01-02T16:32:25Z</time>
      </trkpt>
      <trkpt lat="54.077551681548357" lon="10.379831129685044">
        <ele>0</ele>
        <time>2010-01-02T16:32:28Z</time>
      </trkpt>
      <trkpt lat="54.077530223876238" lon="10.379902208223939">
        <ele>0</ele>
        <time>2010-01-02T16:32:30Z</time>
      </trkpt>
      <trkpt lat="54.07750784419477" lon="10.379971778020263">
        <ele>0</ele>
        <time>2010-01-02T16:32:32Z</time>
      </trkpt>
      <trkpt lat="54.077475238591433" lon="10.380070013925433">
        <ele>0</ele>
        <time>2010-01-02T16:32:34Z</time>
      </trkpt>
      <trkpt lat="54.077428719028831" lon="10.380207477137446">
        <ele>0</ele>
        <time>2010-01-02T16:32:38Z</time>
      </trkpt>
      <trkpt lat="54.077294860035181" lon="10.380603354424238">
        <ele>0</ele>
        <time>2010-01-02T16:32:49Z</time>
      </trkpt>
      <trkpt lat="54.077065112069249" lon="10.381280276924372">
        <ele>0</ele>
        <time>2010-01-02T16:33:07Z</time>
      </trkpt>
      <trkpt lat="54.076956482604146" lon="10.381586803123355">
        <ele>0</ele>
        <time>2010-01-02T16:33:16Z</time>
      </trkpt>
      <trkpt lat="54.076911807060242" lon="10.381721248850226">
        <ele>0</ele>
        <time>2010-01-02T16:33:19Z</time>
      </trkpt>
      <trkpt lat="54.07685162499547" lon="10.381872123107314">
        <ele>0</ele>
        <time>2010-01-02T16:33:24Z</time>
      </trkpt>
      <trkpt lat="54.076787671074271" lon="10.382047221064568">
        <ele>0</ele>
        <time>2010-01-02T16:33:28Z</time>
      </trkpt>
      <trkpt lat="54.076755903661251" lon="10.382154593244195">
        <ele>0</ele>
        <time>2010-01-02T16:33:31Z</time>
      </trkpt>
      <trkpt lat="54.076721789315343" lon="10.382301695644855">
        <ele>0</ele>
        <time>2010-01-02T16:33:35Z</time>
      </trkpt>
      <trkpt lat="54.076708545908332" lon="10.382360871881247">
        <ele>0</ele>
        <time>2010-01-02T16:33:36Z</time>
      </trkpt>
      <trkpt lat="54.076691530644894" lon="10.382436644285917">
        <ele>0</ele>
        <time>2010-01-02T16:33:38Z</time>
      </trkpt>
      <trkpt lat="54.076666384935379" lon="10.382588608190417">
        <ele>0</ele>
        <time>2010-01-02T16:33:42Z</time>
      </trkpt>
      <trkpt lat="54.076632941141725" lon="10.382767813280225">
        <ele>0</ele>
        <time>2010-01-02T16:33:46Z</time>
      </trkpt>
      <trkpt lat="54.076617266982794" lon="10.38295523263514">
        <ele>0</ele>
        <time>2010-01-02T16:33:51Z</time>
      </trkpt>
      <trkpt lat="54.076604945585132" lon="10.383090768009424">
        <ele>0</ele>
        <time>2010-01-02T16:33:54Z</time>
      </trkpt>
      <trkpt lat="54.07661072909832" lon="10.383136784657836">
        <ele>0</ele>
        <time>2010-01-02T16:33:55Z</time>
      </trkpt>
      <trkpt lat="54.076618188992143" lon="10.383192105218768">
        <ele>0</ele>
        <time>2010-01-02T16:33:57Z</time>
      </trkpt>
      <trkpt lat="54.076632354408503" lon="10.383360581472516">
        <ele>0</ele>
        <time>2010-01-02T16:34:01Z</time>
      </trkpt>
      <trkpt lat="54.076646855100989" lon="10.383666688576341">
        <ele>0</ele>
        <time>2010-01-02T16:34:08Z</time>
      </trkpt>
      <trkpt lat="54.076650962233543" lon="10.383773809298873">
        <ele>0</ele>
        <time>2010-01-02T16:34:10Z</time>
      </trkpt>
      <trkpt lat="54.076666133478284" lon="10.384174548089504">
        <ele>0</ele>
        <time>2010-01-02T16:34:20Z</time>
      </trkpt>
      <trkpt lat="54.076675353571773" lon="10.384391890838742">
        <ele>0</ele>
        <time>2010-01-02T16:34:25Z</time>
      </trkpt>
      <trkpt lat="54.076677532866597" lon="10.384589033201337">
        <ele>0</ele>
        <time>2010-01-02T16:34:29Z</time>
      </trkpt>
      <trkpt lat="54.076684070751071" lon="10.384804699569941">
        <ele>0</ele>
        <time>2010-01-02T16:34:35Z</time>
      </trkpt>
      <trkpt lat="54.076694129034877" lon="10.385018941015005">
        <ele>0</ele>
        <time>2010-01-02T16:34:40Z</time>
      </trkpt>
      <trkpt lat="54.076707288622856" lon="10.385205773636699">
        <ele>0</ele>
        <time>2010-01-02T16:34:44Z</time>
      </trkpt>
      <trkpt lat="54.076724052429199" lon="10.385385062545538">
        <ele>0</ele>
        <time>2010-01-02T16:34:48Z</time>
      </trkpt>
      <trkpt lat="54.076736373826861" lon="10.385487824678421">
        <ele>0</ele>
        <time>2010-01-02T16:34:51Z</time>
      </trkpt>
      <trkpt lat="54.076752802357078" lon="10.385621348395944">
        <ele>0</ele>
        <time>2010-01-02T16:34:54Z</time>
      </trkpt>
      <trkpt lat="54.076778786256909" lon="10.385787226259708">
        <ele>0</ele>
        <time>2010-01-02T16:34:58Z</time>
      </trkpt>
      <trkpt lat="54.076788928359747" lon="10.385851766914129">
        <ele>0</ele>
        <time>2010-01-02T16:35:00Z</time>
      </trkpt>
      <trkpt lat="54.076815582811832" lon="10.386019153520465">
        <ele>0</ele>
        <time>2010-01-02T16:35:04Z</time>
      </trkpt>
      <trkpt lat="54.076881799846888" lon="10.386430872604251">
        <ele>0</ele>
        <time>2010-01-02T16:35:14Z</time>
      </trkpt>
      <trkpt lat="54.07692052423954" lon="10.386662883684039">
        <ele>0</ele>
        <time>2010-01-02T16:35:19Z</time>
      </trkpt>
      <trkpt lat="54.076941478997469" lon="10.386788863688707">
        <ele>0</ele>
        <time>2010-01-02T16:35:22Z</time>
      </trkpt>
      <trkpt lat="54.076995961368084" lon="10.387131348252296">
        <ele>0</ele>
        <time>2010-01-02T16:35:31Z</time>
      </trkpt>
      <trkpt lat="54.07707248814404" lon="10.38759277202189">
        <ele>0</ele>
        <time>2010-01-02T16:35:42Z</time>
      </trkpt>
      <trkpt lat="54.077111883088946" lon="10.387828890234232">
        <ele>0</ele>
        <time>2010-01-02T16:35:48Z</time>
      </trkpt>
      <trkpt lat="54.077133676037192" lon="10.387967191636562">
        <ele>0</ele>
        <time>2010-01-02T16:35:51Z</time>
      </trkpt>
      <trkpt lat="54.077183967456222" lon="10.388280507177114">
        <ele>0</ele>
        <time>2010-01-02T16:35:59Z</time>
      </trkpt>
      <trkpt lat="54.077216740697622" lon="10.388478739187121">
        <ele>0</ele>
        <time>2010-01-02T16:36:04Z</time>
      </trkpt>
      <trkpt lat="54.077338529750705" lon="10.389213161543012">
        <ele>0</ele>
        <time>2010-01-02T16:36:22Z</time>
      </trkpt>
      <trkpt lat="54.077373733744025" lon="10.389431258663535">
        <ele>0</ele>
        <time>2010-01-02T16:36:27Z</time>
      </trkpt>
      <trkpt lat="54.077380439266562" lon="10.389471240341663">
        <ele>0</ele>
        <time>2010-01-02T16:36:28Z</time>
      </trkpt>
      <trkpt lat="54.077419750392437" lon="10.389724625274539">
        <ele>0</ele>
        <time>2010-01-02T16:36:34Z</time>
      </trkpt>
      <trkpt lat="54.077442716807127" lon="10.389913385733962">
        <ele>0</ele>
        <time>2010-01-02T16:36:38Z</time>
      </trkpt>
      <trkpt lat="54.077464928850532" lon="10.390088316053152">
        <ele>0</ele>
        <time>2010-01-02T16:36:43Z</time>
      </trkpt>
      <trkpt lat="54.077483452856541" lon="10.390279926359653">
        <ele>0</ele>
        <time>2010-01-02T16:36:47Z</time>
      </trkpt>
      <trkpt lat="54.077502395957708" lon="10.390506656840444">
        <ele>0</ele>
        <time>2010-01-02T16:36:53Z</time>
      </trkpt>
      <trkpt lat="54.077503737062216" lon="10.390541860833764">
        <ele>0</ele>
        <time>2010-01-02T16:36:53Z</time>
      </trkpt>
      <trkpt lat="54.077509101480246" lon="10.39070094935596">
        <ele>0</ele>
        <time>2010-01-02T16:36:57Z</time>
      </trkpt>
      <trkpt lat="54.07750885002315" lon="10.39088124409318">
        <ele>0</ele>
        <time>2010-01-02T16:37:01Z</time>
      </trkpt>
      <trkpt lat="54.077511532232165" lon="10.391113590449095">
        <ele>0</ele>
        <time>2010-01-02T16:37:07Z</time>
      </trkpt>
      <trkpt lat="54.077515136450529" lon="10.391263458877802">
        <ele>0</ele>
        <time>2010-01-02T16:37:10Z</time>
      </trkpt>
      <trkpt lat="54.077518489211798" lon="10.391442328691483">
        <ele>0</ele>
        <time>2010-01-02T16:37:15Z</time>
      </trkpt>
      <trkpt lat="54.077526116743684" lon="10.39163812994957">
        <ele>0</ele>
        <time>2010-01-02T16:37:19Z</time>
      </trkpt>
      <trkpt lat="54.077532403171062" lon="10.391792692244053">
        <ele>0</ele>
        <time>2010-01-02T16:37:23Z</time>
      </trkpt>
      <trkpt lat="54.077543467283249" lon="10.391924455761909">
        <ele>0</ele>
        <time>2010-01-02T16:37:26Z</time>
      </trkpt>
      <trkpt lat="54.077557129785419" lon="10.392060913145542">
        <ele>0</ele>
        <time>2010-01-02T16:37:29Z</time>
      </trkpt>
      <trkpt lat="54.077578084543347" lon="10.392194520682096">
        <ele>0</ele>
        <time>2010-01-02T16:37:32Z</time>
      </trkpt>
      <trkpt lat="54.077609768137336" lon="10.392404906451702">
        <ele>0</ele>
        <time>2010-01-02T16:37:38Z</time>
      </trkpt>
      <trkpt lat="54.077655617147684" lon="10.392716629430652">
        <ele>0</ele>
        <time>2010-01-02T16:37:45Z</time>
      </trkpt>
      <trkpt lat="54.077677996829152" lon="10.392876304686069">
        <ele>0</ele>
        <time>2010-01-02T16:37:49Z</time>
      </trkpt>
      <trkpt lat="54.077838929370046" lon="10.394033761695027">
        <ele>0</ele>
        <time>2010-01-02T16:38:17Z</time>
      </trkpt>
      <trkpt lat="54.077862063422799" lon="10.394204081967473">
        <ele>0</ele>
        <time>2010-01-02T16:38:21Z</time>
      </trkpt>
      <trkpt lat="54.077868182212114" lon="10.394250182434916">
        <ele>0</ele>
        <time>2010-01-02T16:38:22Z</time>
      </trkpt>
      <trkpt lat="54.077915791422129" lon="10.394610855728388">
        <ele>0</ele>
        <time>2010-01-02T16:38:31Z</time>
      </trkpt>
      <trkpt lat="54.077944289892912" lon="10.394863905385137">
        <ele>0</ele>
        <time>2010-01-02T16:38:37Z</time>
      </trkpt>
      <trkpt lat="54.077976811677217" lon="10.395155260339379">
        <ele>0</ele>
        <time>2010-01-02T16:38:44Z</time>
      </trkpt>
      <trkpt lat="54.078029869124293" lon="10.395693378522992">
        <ele>0</ele>
        <time>2010-01-02T16:38:57Z</time>
      </trkpt>
      <trkpt lat="54.078064821660519" lon="10.396166704595089">
        <ele>0</ele>
        <time>2010-01-02T16:39:08Z</time>
      </trkpt>
      <trkpt lat="54.078115113079548" lon="10.396787216886878">
        <ele>0</ele>
        <time>2010-01-02T16:39:23Z</time>
      </trkpt>
      <trkpt lat="54.078171271830797" lon="10.397522477433085">
        <ele>0</ele>
        <time>2010-01-02T16:39:40Z</time>
      </trkpt>
      <trkpt lat="54.078191891312599" lon="10.397757003083825">
        <ele>0</ele>
        <time>2010-01-02T16:39:46Z</time>
      </trkpt>
      <trkpt lat="54.07821292988956" lon="10.397957833483815">
        <ele>0</ele>
        <time>2010-01-02T16:39:50Z</time>
      </trkpt>
      <trkpt lat="54.078234890475869" lon="10.398154137656093">
        <ele>0</ele>
        <time>2010-01-02T16:39:55Z</time>
      </trkpt>
      <trkpt lat="54.078243942931294" lon="10.3982263058424">
        <ele>0</ele>
        <time>2010-01-02T16:39:57Z</time>
      </trkpt>
      <trkpt lat="54.078248050063848" lon="10.398258492350578">
        <ele>0</ele>
        <time>2010-01-02T16:39:58Z</time>
      </trkpt>
      <trkpt lat="54.078258695080876" lon="10.39834750816226">
        <ele>0</ele>
        <time>2010-01-02T16:40:00Z</time>
      </trkpt>
      <trkpt lat="54.07829113304615" lon="10.398493772372603">
        <ele>0</ele>
        <time>2010-01-02T16:40:03Z</time>
      </trkpt>
      <trkpt lat="54.078335473313928" lon="10.398622015491128">
        <ele>0</ele>
        <time>2010-01-02T16:40:07Z</time>
      </trkpt>
      <trkpt lat="54.078392134979367" lon="10.398775236681104">
        <ele>0</ele>
        <time>2010-01-02T16:40:11Z</time>
      </trkpt>
      <trkpt lat="54.078490035608411" lon="10.399010768160224">
        <ele>0</ele>
        <time>2010-01-02T16:40:18Z</time>
      </trkpt>
      <trkpt lat="54.078692710027099" lon="10.39950504899025">
        <ele>0</ele>
        <time>2010-01-02T16:40:32Z</time>
      </trkpt>
      <trkpt lat="54.078743839636445" lon="10.399665646255016">
        <ele>0</ele>
        <time>2010-01-02T16:40:36Z</time>
      </trkpt>
      <trkpt lat="54.078788934275508" lon="10.399809228256345">
        <ele>0</ele>
        <time>2010-01-02T16:40:40Z</time>
      </trkpt>
      <trkpt lat="54.078842578455806" lon="10.399986756965518">
        <ele>0</ele>
        <time>2010-01-02T16:40:45Z</time>
      </trkpt>
      <trkpt lat="54.078933354467154" lon="10.400292361155152">
        <ele>0</ele>
        <time>2010-01-02T16:40:53Z</time>
      </trkpt>
      <trkpt lat="54.07903385348618" lon="10.400610538199544">
        <ele>0</ele>
        <time>2010-01-02T16:41:01Z</time>
      </trkpt>
      <trkpt lat="54.079091604799032" lon="10.400818744674325">
        <ele>0</ele>
        <time>2010-01-02T16:41:07Z</time>
      </trkpt>
      <trkpt lat="54.079143404960632" lon="10.401000799611211">
        <ele>0</ele>
        <time>2010-01-02T16:41:12Z</time>
      </trkpt>
      <trkpt lat="54.079191433265805" lon="10.401199534535408">
        <ele>0</ele>
        <time>2010-01-02T16:41:17Z</time>
      </trkpt>
      <trkpt lat="54.07922537997365" lon="10.4013657476753">
        <ele>0</ele>
        <time>2010-01-02T16:41:21Z</time>
      </trkpt>
      <trkpt lat="54.079260248690844" lon="10.401541097089648">
        <ele>0</ele>
        <time>2010-01-02T16:41:25Z</time>
      </trkpt>
      <trkpt lat="54.079290339723229" lon="10.401733126491308">
        <ele>0</ele>
        <time>2010-01-02T16:41:30Z</time>
      </trkpt>
      <trkpt lat="54.079319592565298" lon="10.401918953284621">
        <ele>0</ele>
        <time>2010-01-02T16:41:34Z</time>
      </trkpt>
      <trkpt lat="54.079345911741257" lon="10.402049710974097">
        <ele>0</ele>
        <time>2010-01-02T16:41:37Z</time>
      </trkpt>
      <trkpt lat="54.079374074935913" lon="10.402180552482605">
        <ele>0</ele>
        <time>2010-01-02T16:41:41Z</time>
      </trkpt>
      <trkpt lat="54.079409698024392" lon="10.402362104505301">
        <ele>0</ele>
        <time>2010-01-02T16:41:45Z</time>
      </trkpt>
      <trkpt lat="54.079452529549599" lon="10.402542315423489">
        <ele>0</ele>
        <time>2010-01-02T16:41:50Z</time>
      </trkpt>
      <trkpt lat="54.079502737149596" lon="10.402779271826148">
        <ele>0</ele>
        <time>2010-01-02T16:41:56Z</time>
      </trkpt>
      <trkpt lat="54.079555040225387" lon="10.40299192070961">
        <ele>0</ele>
        <time>2010-01-02T16:42:01Z</time>
      </trkpt>
      <trkpt lat="54.079588567838073" lon="10.403124438598752">
        <ele>0</ele>
        <time>2010-01-02T16:42:05Z</time>
      </trkpt>
      <trkpt lat="54.079637015238404" lon="10.403283527120948">
        <ele>0</ele>
        <time>2010-01-02T16:42:09Z</time>
      </trkpt>
      <trkpt lat="54.079711697995663" lon="10.403506066650152">
        <ele>0</ele>
        <time>2010-01-02T16:42:15Z</time>
      </trkpt>
      <trkpt lat="54.079807251691818" lon="10.40378887206316">
        <ele>0</ele>
        <time>2010-01-02T16:42:22Z</time>
      </trkpt>
      <trkpt lat="54.07985670492053" lon="10.40394033305347">
        <ele>0</ele>
        <time>2010-01-02T16:42:27Z</time>
      </trkpt>
      <trkpt lat="54.079899117350578" lon="10.404074694961309">
        <ele>0</ele>
        <time>2010-01-02T16:42:30Z</time>
      </trkpt>
      <trkpt lat="54.079941362142563" lon="10.404230430722237">
        <ele>0</ele>
        <time>2010-01-02T16:42:34Z</time>
      </trkpt>
      <trkpt lat="54.079986037686467" lon="10.404401589184999">
        <ele>0</ele>
        <time>2010-01-02T16:42:39Z</time>
      </trkpt>
      <trkpt lat="54.080013278871775" lon="10.404530838131905">
        <ele>0</ele>
        <time>2010-01-02T16:42:42Z</time>
      </trkpt>
      <trkpt lat="54.080026606097817" lon="10.404621446505189">
        <ele>0</ele>
        <time>2010-01-02T16:42:44Z</time>
      </trkpt>
      <trkpt lat="54.08005409874022" lon="10.404808782041073">
        <ele>0</ele>
        <time>2010-01-02T16:42:48Z</time>
      </trkpt>
      <trkpt lat="54.080073377117515" lon="10.404930151998997">
        <ele>0</ele>
        <time>2010-01-02T16:42:51Z</time>
      </trkpt>
      <trkpt lat="54.080089973285794" lon="10.405046828091145">
        <ele>0</ele>
        <time>2010-01-02T16:42:54Z</time>
      </trkpt>
      <trkpt lat="54.080096930265427" lon="10.405140286311507">
        <ele>0</ele>
        <time>2010-01-02T16:42:56Z</time>
      </trkpt>
      <trkpt lat="54.080110425129533" lon="10.405295100063086">
        <ele>0</ele>
        <time>2010-01-02T16:43:00Z</time>
      </trkpt>
      <trkpt lat="54.080122746527195" lon="10.40547120384872">
        <ele>0</ele>
        <time>2010-01-02T16:43:04Z</time>
      </trkpt>
      <trkpt lat="54.080132637172937" lon="10.405696174129844">
        <ele>0</ele>
        <time>2010-01-02T16:43:10Z</time>
      </trkpt>
      <trkpt lat="54.080140432342887" lon="10.405866829678416">
        <ele>0</ele>
        <time>2010-01-02T16:43:14Z</time>
      </trkpt>
      <trkpt lat="54.080145545303822" lon="10.405977806076407">
        <ele>0</ele>
        <time>2010-01-02T16:43:16Z</time>
      </trkpt>
      <trkpt lat="54.080155771225691" lon="10.406181318685412">
        <ele>0</ele>
        <time>2010-01-02T16:43:21Z</time>
      </trkpt>
      <trkpt lat="54.08018259331584" lon="10.406649867072701">
        <ele>0</ele>
        <time>2010-01-02T16:43:32Z</time>
      </trkpt>
      <trkpt lat="54.080199440941215" lon="10.406980449333787">
        <ele>0</ele>
        <time>2010-01-02T16:43:40Z</time>
      </trkpt>
      <trkpt lat="54.080215282738209" lon="10.40723467245698">
        <ele>0</ele>
        <time>2010-01-02T16:43:46Z</time>
      </trkpt>
      <trkpt lat="54.080225843936205" lon="10.407485626637936">
        <ele>0</ele>
        <time>2010-01-02T16:43:52Z</time>
      </trkpt>
      <trkpt lat="54.080248223617673" lon="10.407950906082988">
        <ele>0</ele>
        <time>2010-01-02T16:44:03Z</time>
      </trkpt>
      <trkpt lat="54.080269513651729" lon="10.408281655982137">
        <ele>0</ele>
        <time>2010-01-02T16:44:11Z</time>
      </trkpt>
      <trkpt lat="54.080290552228689" lon="10.40855742059648">
        <ele>0</ele>
        <time>2010-01-02T16:44:17Z</time>
      </trkpt>
      <trkpt lat="54.080312261357903" lon="10.408775182440877">
        <ele>0</ele>
        <time>2010-01-02T16:44:22Z</time>
      </trkpt>
      <trkpt lat="54.080335646867752" lon="10.409002080559731">
        <ele>0</ele>
        <time>2010-01-02T16:44:28Z</time>
      </trkpt>
      <trkpt lat="54.080365234985948" lon="10.409238450229168">
        <ele>0</ele>
        <time>2010-01-02T16:44:33Z</time>
      </trkpt>
      <trkpt lat="54.080404797568917" lon="10.409542294219136">
        <ele>0</ele>
        <time>2010-01-02T16:44:41Z</time>
      </trkpt>
      <trkpt lat="54.08043765462935" lon="10.409727366641164">
        <ele>0</ele>
        <time>2010-01-02T16:44:45Z</time>
      </trkpt>
      <trkpt lat="54.080463806167245" lon="10.409874385222793">
        <ele>0</ele>
        <time>2010-01-02T16:44:49Z</time>
      </trkpt>
      <trkpt lat="54.08052415587008" lon="10.410246206447482">
        <ele>0</ele>
        <time>2010-01-02T16:44:58Z</time>
      </trkpt>
      <trkpt lat="54.080639909952879" lon="10.410794131457806">
        <ele>0</ele>
        <time>2010-01-02T16:45:12Z</time>
      </trkpt>
      <trkpt lat="54.080727752298117" lon="10.411194367334247">
        <ele>0</ele>
        <time>2010-01-02T16:45:22Z</time>
      </trkpt>
      <trkpt lat="54.080832861363888" lon="10.41165336035192">
        <ele>0</ele>
        <time>2010-01-02T16:45:33Z</time>
      </trkpt>
      <trkpt lat="54.0809047780931" lon="10.411962904036045">
        <ele>0</ele>
        <time>2010-01-02T16:45:41Z</time>
      </trkpt>
      <trkpt lat="54.081039223819971" lon="10.41252214461565">
        <ele>0</ele>
        <time>2010-01-02T16:45:55Z</time>
      </trkpt>
      <trkpt lat="54.081192193552852" lon="10.413118684664369">
        <ele>0</ele>
        <time>2010-01-02T16:46:10Z</time>
      </trkpt>
      <trkpt lat="54.081240305677056" lon="10.413303757086396">
        <ele>0</ele>
        <time>2010-01-02T16:46:15Z</time>
      </trkpt>
      <trkpt lat="54.081245418637991" lon="10.413323789834976">
        <ele>0</ele>
        <time>2010-01-02T16:46:16Z</time>
      </trkpt>
      <trkpt lat="54.081289675086737" lon="10.413461253046989">
        <ele>0</ele>
        <time>2010-01-02T16:46:19Z</time>
      </trkpt>
      <trkpt lat="54.081340050324798" lon="10.413608103990555">
        <ele>0</ele>
        <time>2010-01-02T16:46:23Z</time>
      </trkpt>
      <trkpt lat="54.081385564059019" lon="10.413712039589882">
        <ele>0</ele>
        <time>2010-01-02T16:46:26Z</time>
      </trkpt>
      <trkpt lat="54.08139780163765" lon="10.413738442584872">
        <ele>0</ele>
        <time>2010-01-02T16:46:27Z</time>
      </trkpt>
      <trkpt lat="54.081438118591905" lon="10.41382385417819">
        <ele>0</ele>
        <time>2010-01-02T16:46:30Z</time>
      </trkpt>
      <trkpt lat="54.081494193524122" lon="10.413948073983192">
        <ele>0</ele>
        <time>2010-01-02T16:46:34Z</time>
      </trkpt>
      <trkpt lat="54.081521602347493" lon="10.41399878449738">
        <ele>0</ele>
        <time>2010-01-02T16:46:35Z</time>
      </trkpt>
      <trkpt lat="54.081552196294069" lon="10.41405544616282">
        <ele>0</ele>
        <time>2010-01-02T16:46:37Z</time>
      </trkpt>
      <trkpt lat="54.081589244306087" lon="10.414137085899711">
        <ele>0</ele>
        <time>2010-01-02T16:46:39Z</time>
      </trkpt>
      <trkpt lat="54.081617072224617" lon="10.414198273792863">
        <ele>0</ele>
        <time>2010-01-02T16:46:41Z</time>
      </trkpt>
      <trkpt lat="54.081664178520441" lon="10.414319057017565">
        <ele>0</ele>
        <time>2010-01-02T16:46:45Z</time>
      </trkpt>
      <trkpt lat="54.081693766638637" lon="10.414394913241267">
        <ele>0</ele>
        <time>2010-01-02T16:46:47Z</time>
      </trkpt>
      <trkpt lat="54.081721510738134" lon="10.414486024528742">
        <ele>0</ele>
        <time>2010-01-02T16:46:49Z</time>
      </trkpt>
      <trkpt lat="54.081741292029619" lon="10.414557019248605">
        <ele>0</ele>
        <time>2010-01-02T16:46:51Z</time>
      </trkpt>
      <trkpt lat="54.081753361970186" lon="10.414600186049938">
        <ele>0</ele>
        <time>2010-01-02T16:46:52Z</time>
      </trkpt>
      <trkpt lat="54.08179460093379" lon="10.414765058085322">
        <ele>0</ele>
        <time>2010-01-02T16:46:56Z</time>
      </trkpt>
      <trkpt lat="54.081828128546476" lon="10.414969492703676">
        <ele>0</ele>
        <time>2010-01-02T16:47:01Z</time>
      </trkpt>
      <trkpt lat="54.081882191821933" lon="10.415261602029204">
        <ele>0</ele>
        <time>2010-01-02T16:47:08Z</time>
      </trkpt>
      <trkpt lat="54.081958802416921" lon="10.415695197880268">
        <ele>0</ele>
        <time>2010-01-02T16:47:19Z</time>
      </trkpt>
      <trkpt lat="54.081964753568172" lon="10.415725959464908">
        <ele>0</ele>
        <time>2010-01-02T16:47:20Z</time>
      </trkpt>
      <trkpt lat="54.082067431882024" lon="10.41623524390161">
        <ele>0</ele>
        <time>2010-01-02T16:47:33Z</time>
      </trkpt>
      <trkpt lat="54.082195926457644" lon="10.416849302127957">
        <ele>0</ele>
        <time>2010-01-02T16:47:48Z</time>
      </trkpt>
      <trkpt lat="54.082200201228261" lon="10.416869334876537">
        <ele>0</ele>
        <time>2010-01-02T16:47:48Z</time>
      </trkpt>
      <trkpt lat="54.082232555374503" lon="10.417020209133625">
        <ele>0</ele>
        <time>2010-01-02T16:47:52Z</time>
      </trkpt>
      <trkpt lat="54.082274129614234" lon="10.417152559384704">
        <ele>0</ele>
        <time>2010-01-02T16:47:56Z</time>
      </trkpt>
      <trkpt lat="54.082281002774835" lon="10.417174687609076">
        <ele>0</ele>
        <time>2010-01-02T16:47:56Z</time>
      </trkpt>
      <trkpt lat="54.082306819036603" lon="10.417271833866835">
        <ele>0</ele>
        <time>2010-01-02T16:47:59Z</time>
      </trkpt>
      <trkpt lat="54.082375802099705" lon="10.417520189657807">
        <ele>0</ele>
        <time>2010-01-02T16:48:05Z</time>
      </trkpt>
      <trkpt lat="54.082477474585176" lon="10.417890418320894">
        <ele>0</ele>
        <time>2010-01-02T16:48:15Z</time>
      </trkpt>
      <trkpt lat="54.082525754347444" lon="10.418060151860118">
        <ele>0</ele>
        <time>2010-01-02T16:48:19Z</time>
      </trkpt>
      <trkpt lat="54.082585098221898" lon="10.41820733807981">
        <ele>0</ele>
        <time>2010-01-02T16:48:23Z</time>
      </trkpt>
      <trkpt lat="54.082639580592513" lon="10.418313117697835">
        <ele>0</ele>
        <time>2010-01-02T16:48:27Z</time>
      </trkpt>
      <trkpt lat="54.082695068791509" lon="10.418411269783974">
        <ele>0</ele>
        <time>2010-01-02T16:48:30Z</time>
      </trkpt>
      <trkpt lat="54.082733038812876" lon="10.418461477383971">
        <ele>0</ele>
        <time>2010-01-02T16:48:32Z</time>
      </trkpt>
      <trkpt lat="54.082790622487664" lon="10.418536830693483">
        <ele>0</ele>
        <time>2010-01-02T16:48:35Z</time>
      </trkpt>
      <trkpt lat="54.08287201076746" lon="10.418641939759254">
        <ele>0</ele>
        <time>2010-01-02T16:48:39Z</time>
      </trkpt>
      <trkpt lat="54.08330543898046" lon="10.419148793444037">
        <ele>0</ele>
        <time>2010-01-02T16:49:00Z</time>
      </trkpt>
      <trkpt lat="54.083363022655249" lon="10.419215010479093">
        <ele>0</ele>
        <time>2010-01-02T16:49:03Z</time>
      </trkpt>
      <trkpt lat="54.083476513624191" lon="10.419345684349537">
        <ele>0</ele>
        <time>2010-01-02T16:49:08Z</time>
      </trkpt>
      <trkpt lat="54.083558237180114" lon="10.419424893334508">
        <ele>0</ele>
        <time>2010-01-02T16:49:12Z</time>
      </trkpt>
      <trkpt lat="54.083606684580445" lon="10.419506030157208">
        <ele>0</ele>
        <time>2010-01-02T16:49:15Z</time>
      </trkpt>
      <trkpt lat="54.08364892937243" lon="10.419577779248357">
        <ele>0</ele>
        <time>2010-01-02T16:49:17Z</time>
      </trkpt>
      <trkpt lat="54.083676673471928" lon="10.419662771746516">
        <ele>0</ele>
        <time>2010-01-02T16:49:19Z</time>
      </trkpt>
      <trkpt lat="54.083696538582444" lon="10.419733682647347">
        <ele>0</ele>
        <time>2010-01-02T16:49:21Z</time>
      </trkpt>
      <trkpt lat="54.083717912435532" lon="10.419823033735156">
        <ele>0</ele>
        <time>2010-01-02T16:49:23Z</time>
      </trkpt>
      <trkpt lat="54.083728473633528" lon="10.419921269640326">
        <ele>0</ele>
        <time>2010-01-02T16:49:26Z</time>
      </trkpt>
      <trkpt lat="54.083733083680272" lon="10.419984050095081">
        <ele>0</ele>
        <time>2010-01-02T16:49:27Z</time>
      </trkpt>
      <trkpt lat="54.083734760060906" lon="10.420074239373207">
        <ele>0</ele>
        <time>2010-01-02T16:49:29Z</time>
      </trkpt>
      <trkpt lat="54.083729730919003" lon="10.420191753655672">
        <ele>0</ele>
        <time>2010-01-02T16:49:32Z</time>
      </trkpt>
      <trkpt lat="54.08372612670064" lon="10.420274147763848">
        <ele>0</ele>
        <time>2010-01-02T16:49:34Z</time>
      </trkpt>
      <trkpt lat="54.083696873858571" lon="10.420771362259984">
        <ele>0</ele>
        <time>2010-01-02T16:49:46Z</time>
      </trkpt>
      <trkpt lat="54.083643313497305" lon="10.421729162335396">
        <ele>0</ele>
        <time>2010-01-02T16:50:08Z</time>
      </trkpt>
      <trkpt lat="54.083623113110662" lon="10.422449838370085">
        <ele>0</ele>
        <time>2010-01-02T16:50:25Z</time>
      </trkpt>
      <trkpt lat="54.083603164181113" lon="10.422999272122979">
        <ele>0</ele>
        <time>2010-01-02T16:50:38Z</time>
      </trkpt>
      <trkpt lat="54.083595788106322" lon="10.423315353691578">
        <ele>0</ele>
        <time>2010-01-02T16:50:46Z</time>
      </trkpt>
      <trkpt lat="54.083580700680614" lon="10.423985654488206">
        <ele>0</ele>
        <time>2010-01-02T16:51:01Z</time>
      </trkpt>
      <trkpt lat="54.083569636568427" lon="10.42476617731154">
        <ele>0</ele>
        <time>2010-01-02T16:51:20Z</time>
      </trkpt>
      <trkpt lat="54.083572905510664" lon="10.425016963854432">
        <ele>0</ele>
        <time>2010-01-02T16:51:26Z</time>
      </trkpt>
      <trkpt lat="54.083585310727358" lon="10.425188541412354">
        <ele>0</ele>
        <time>2010-01-02T16:51:30Z</time>
      </trkpt>
      <trkpt lat="54.083607941865921" lon="10.425398675724864">
        <ele>0</ele>
        <time>2010-01-02T16:51:35Z</time>
      </trkpt>
      <trkpt lat="54.083637949079275" lon="10.425596823915839">
        <ele>0</ele>
        <time>2010-01-02T16:51:40Z</time>
      </trkpt>
      <trkpt lat="54.083687821403146" lon="10.425864458084106">
        <ele>0</ele>
        <time>2010-01-02T16:51:46Z</time>
      </trkpt>
      <trkpt lat="54.083739118650556" lon="10.426158076152205">
        <ele>0</ele>
        <time>2010-01-02T16:51:53Z</time>
      </trkpt>
      <trkpt lat="54.083811286836863" lon="10.42651355266571">
        <ele>0</ele>
        <time>2010-01-02T16:52:02Z</time>
      </trkpt>
      <trkpt lat="54.08385562710464" lon="10.426715221256018">
        <ele>0</ele>
        <time>2010-01-02T16:52:07Z</time>
      </trkpt>
      <trkpt lat="54.083883874118328" lon="10.426833909004927">
        <ele>0</ele>
        <time>2010-01-02T16:52:10Z</time>
      </trkpt>
      <trkpt lat="54.083926118910313" lon="10.426985118538141">
        <ele>0</ele>
        <time>2010-01-02T16:52:14Z</time>
      </trkpt>
      <trkpt lat="54.083954868838191" lon="10.427060974761844">
        <ele>0</ele>
        <time>2010-01-02T16:52:16Z</time>
      </trkpt>
      <trkpt lat="54.083988144993782" lon="10.427130879834294">
        <ele>0</ele>
        <time>2010-01-02T16:52:18Z</time>
      </trkpt>
      <trkpt lat="54.084049165248871" lon="10.427210927009583">
        <ele>0</ele>
        <time>2010-01-02T16:52:21Z</time>
      </trkpt>
      <trkpt lat="54.084099037572742" lon="10.427249316126108">
        <ele>0</ele>
        <time>2010-01-02T16:52:24Z</time>
      </trkpt>
      <trkpt lat="54.084172295406461" lon="10.427285442128778">
        <ele>0</ele>
        <time>2010-01-02T16:52:27Z</time>
      </trkpt>
      <trkpt lat="54.084269860759377" lon="10.42731779627502">
        <ele>0</ele>
        <time>2010-01-02T16:52:31Z</time>
      </trkpt>
      <trkpt lat="54.084600359201431" lon="10.427404046058655">
        <ele>0</ele>
        <time>2010-01-02T16:52:44Z</time>
      </trkpt>
      <trkpt lat="54.084669342264533" lon="10.427423240616918">
        <ele>0</ele>
        <time>2010-01-02T16:52:47Z</time>
      </trkpt>
      <trkpt lat="54.08473564311862" lon="10.427436232566833">
        <ele>0</ele>
        <time>2010-01-02T16:52:50Z</time>
      </trkpt>
      <trkpt lat="54.084809403866529" lon="10.427429610863328">
        <ele>0</ele>
        <time>2010-01-02T16:52:53Z</time>
      </trkpt>
      <trkpt lat="54.084830107167363" lon="10.427425671368837">
        <ele>0</ele>
        <time>2010-01-02T16:52:53Z</time>
      </trkpt>
      <trkpt lat="54.084865227341652" lon="10.427419301122427">
        <ele>0</ele>
        <time>2010-01-02T16:52:55Z</time>
      </trkpt>
      <trkpt lat="54.084914764389396" lon="10.427413349971175">
        <ele>0</ele>
        <time>2010-01-02T16:52:57Z</time>
      </trkpt>
      <trkpt lat="54.084945358335972" lon="10.42740672826767">
        <ele>0</ele>
        <time>2010-01-02T16:52:58Z</time>
      </trkpt>
      <trkpt lat="54.084996907040477" lon="10.427382504567504">
        <ele>0</ele>
        <time>2010-01-02T16:53:00Z</time>
      </trkpt>
      <trkpt lat="54.085105285048485" lon="10.427329698577523">
        <ele>0</ele>
        <time>2010-01-02T16:53:05Z</time>
      </trkpt>
      <trkpt lat="54.085403261706233" lon="10.427211597561836">
        <ele>0</ele>
        <time>2010-01-02T16:53:17Z</time>
      </trkpt>
      <trkpt lat="54.08562739379704" lon="10.427098525688052">
        <ele>0</ele>
        <time>2010-01-02T16:53:26Z</time>
      </trkpt>
      <trkpt lat="54.085814226418734" lon="10.42702853679657">
        <ele>0</ele>
        <time>2010-01-02T16:53:34Z</time>
      </trkpt>
      <trkpt lat="54.086079346016049" lon="10.426947483792901">
        <ele>0</ele>
        <time>2010-01-02T16:53:45Z</time>
      </trkpt>
      <trkpt lat="54.086113544180989" lon="10.426939437165856">
        <ele>0</ele>
        <time>2010-01-02T16:53:46Z</time>
      </trkpt>
      <trkpt lat="54.086149586364627" lon="10.426934575662017">
        <ele>0</ele>
        <time>2010-01-02T16:53:47Z</time>
      </trkpt>
      <trkpt lat="54.086184622719884" lon="10.42693424038589">
        <ele>0</ele>
        <time>2010-01-02T16:53:49Z</time>
      </trkpt>
      <trkpt lat="54.086741432547569" lon="10.42703440412879">
        <ele>0</ele>
        <time>2010-01-02T16:54:11Z</time>
      </trkpt>
      <trkpt lat="54.088083459064364" lon="10.427291393280029">
        <ele>0</ele>
        <time>2010-01-02T16:55:05Z</time>
      </trkpt>
      <trkpt lat="54.088960289955139" lon="10.427452912554145">
        <ele>0</ele>
        <time>2010-01-02T16:55:41Z</time>
      </trkpt>
      <trkpt lat="54.088979987427592" lon="10.427456684410572">
        <ele>0</ele>
        <time>2010-01-02T16:55:41Z</time>
      </trkpt>
      <trkpt lat="54.089056178927422" lon="10.427471520379186">
        <ele>0</ele>
        <time>2010-01-02T16:55:45Z</time>
      </trkpt>
      <trkpt lat="54.089120719581842" lon="10.42748442851007">
        <ele>0</ele>
        <time>2010-01-02T16:55:47Z</time>
      </trkpt>
      <trkpt lat="54.089195234701037" lon="10.427491553127766">
        <ele>0</ele>
        <time>2010-01-02T16:55:50Z</time>
      </trkpt>
      <trkpt lat="54.089261703193188" lon="10.42749079875648">
        <ele>0</ele>
        <time>2010-01-02T16:55:53Z</time>
      </trkpt>
      <trkpt lat="54.089330853894353" lon="10.427493145689368">
        <ele>0</ele>
        <time>2010-01-02T16:55:56Z</time>
      </trkpt>
      <trkpt lat="54.089448535814881" lon="10.427497169002891">
        <ele>0</ele>
        <time>2010-01-02T16:56:00Z</time>
      </trkpt>
      <trkpt lat="54.08955255523324" lon="10.427509909495711">
        <ele>0</ele>
        <time>2010-01-02T16:56:04Z</time>
      </trkpt>
      <trkpt lat="54.08967811614275" lon="10.427532624453306">
        <ele>0</ele>
        <time>2010-01-02T16:56:09Z</time>
      </trkpt>
      <trkpt lat="54.089801665395498" lon="10.427567409351468">
        <ele>0</ele>
        <time>2010-01-02T16:56:15Z</time>
      </trkpt>
      <trkpt lat="54.089996796101332" lon="10.427635218948126">
        <ele>0</ele>
        <time>2010-01-02T16:56:22Z</time>
      </trkpt>
      <trkpt lat="54.090212378650904" lon="10.427716020494699">
        <ele>0</ele>
        <time>2010-01-02T16:56:31Z</time>
      </trkpt>
      <trkpt lat="54.090313380584121" lon="10.427757678553462">
        <ele>0</ele>
        <time>2010-01-02T16:56:35Z</time>
      </trkpt>
      <trkpt lat="54.090443048626184" lon="10.427811071276665">
        <ele>0</ele>
        <time>2010-01-02T16:56:41Z</time>
      </trkpt>
      <trkpt lat="54.090821240097284" lon="10.42796622030437">
        <ele>0</ele>
        <time>2010-01-02T16:56:56Z</time>
      </trkpt>
      <trkpt lat="54.091106476262212" lon="10.428082980215549">
        <ele>0</ele>
        <time>2010-01-02T16:57:08Z</time>
      </trkpt>
      <trkpt lat="54.091549878939986" lon="10.428277021273971">
        <ele>0</ele>
        <time>2010-01-02T16:57:26Z</time>
      </trkpt>
      <trkpt lat="54.091717097908258" lon="10.428339382633567">
        <ele>0</ele>
        <time>2010-01-02T16:57:33Z</time>
      </trkpt>
      <trkpt lat="54.091804018244147" lon="10.428362181410193">
        <ele>0</ele>
        <time>2010-01-02T16:57:37Z</time>
      </trkpt>
      <trkpt lat="54.091816507279873" lon="10.428365701809525">
        <ele>0</ele>
        <time>2010-01-02T16:57:37Z</time>
      </trkpt>
      <trkpt lat="54.091870235279202" lon="10.428381292149425">
        <ele>0</ele>
        <time>2010-01-02T16:57:40Z</time>
      </trkpt>
      <trkpt lat="54.091941062361002" lon="10.428395960479975">
        <ele>0</ele>
        <time>2010-01-02T16:57:42Z</time>
      </trkpt>
      <trkpt lat="54.092021025717258" lon="10.428400235250592">
        <ele>0</ele>
        <time>2010-01-02T16:57:46Z</time>
      </trkpt>
      <trkpt lat="54.09210903570056" lon="10.428403252735734">
        <ele>0</ele>
        <time>2010-01-02T16:57:49Z</time>
      </trkpt>
      <trkpt lat="54.092488065361977" lon="10.428413227200508">
        <ele>0</ele>
        <time>2010-01-02T16:58:04Z</time>
      </trkpt>
      <trkpt lat="54.092612955719233" lon="10.428414484485984">
        <ele>0</ele>
        <time>2010-01-02T16:58:09Z</time>
      </trkpt>
      <trkpt lat="54.092739690095186" lon="10.428409706801176">
        <ele>0</ele>
        <time>2010-01-02T16:58:14Z</time>
      </trkpt>
      <trkpt lat="54.092870783060789" lon="10.428414149209857">
        <ele>0</ele>
        <time>2010-01-02T16:58:20Z</time>
      </trkpt>
      <trkpt lat="54.093001959845424" lon="10.42841867543757">
        <ele>0</ele>
        <time>2010-01-02T16:58:25Z</time>
      </trkpt>
      <trkpt lat="54.093172615393996" lon="10.428421525284648">
        <ele>0</ele>
        <time>2010-01-02T16:58:32Z</time>
      </trkpt>
      <trkpt lat="54.09325978718698" lon="10.428422950208187">
        <ele>0</ele>
        <time>2010-01-02T16:58:35Z</time>
      </trkpt>
      <trkpt lat="54.09335408359766" lon="10.428423117846251">
        <ele>0</ele>
        <time>2010-01-02T16:58:39Z</time>
      </trkpt>
      <trkpt lat="54.093481488525867" lon="10.428436696529388">
        <ele>0</ele>
        <time>2010-01-02T16:58:44Z</time>
      </trkpt>
      <trkpt lat="54.093601685017347" lon="10.428456142544746">
        <ele>0</ele>
        <time>2010-01-02T16:58:49Z</time>
      </trkpt>
      <trkpt lat="54.093802515417337" lon="10.428495118394494">
        <ele>0</ele>
        <time>2010-01-02T16:58:57Z</time>
      </trkpt>
      <trkpt lat="54.093913491815329" lon="10.428530992940068">
        <ele>0</ele>
        <time>2010-01-02T16:59:02Z</time>
      </trkpt>
      <trkpt lat="54.093961855396628" lon="10.428543398156762">
        <ele>0</ele>
        <time>2010-01-02T16:59:03Z</time>
      </trkpt>
      <trkpt lat="54.094018265604973" lon="10.428559072315693">
        <ele>0</ele>
        <time>2010-01-02T16:59:06Z</time>
      </trkpt>
      <trkpt lat="54.094102419912815" lon="10.42858337983489">
        <ele>0</ele>
        <time>2010-01-02T16:59:09Z</time>
      </trkpt>
      <trkpt lat="54.094234853982925" lon="10.42863073758781">
        <ele>0</ele>
        <time>2010-01-02T16:59:15Z</time>
      </trkpt>
      <trkpt lat="54.094257233664393" lon="10.428640628233552">
        <ele>0</ele>
        <time>2010-01-02T16:59:16Z</time>
      </trkpt>
      <trkpt lat="54.094406515359879" lon="10.428702402859926">
        <ele>0</ele>
        <time>2010-01-02T16:59:22Z</time>
      </trkpt>
      <trkpt lat="54.094512797892094" lon="10.428754957392812">
        <ele>0</ele>
        <time>2010-01-02T16:59:26Z</time>
      </trkpt>
      <trkpt lat="54.094593180343509" lon="10.428795944899321">
        <ele>0</ele>
        <time>2010-01-02T16:59:29Z</time>
      </trkpt>
      <trkpt lat="54.094659145921469" lon="10.428842548280954">
        <ele>0</ele>
        <time>2010-01-02T16:59:32Z</time>
      </trkpt>
      <trkpt lat="54.094724021852016" lon="10.428901305422187">
        <ele>0</ele>
        <time>2010-01-02T16:59:35Z</time>
      </trkpt>
      <trkpt lat="54.094802141189575" lon="10.428983448073268">
        <ele>0</ele>
        <time>2010-01-02T16:59:39Z</time>
      </trkpt>
      <trkpt lat="54.094851929694414" lon="10.429027955979109">
        <ele>0</ele>
        <time>2010-01-02T16:59:41Z</time>
      </trkpt>
      <trkpt lat="54.0948785841465" lon="10.429051844403148">
        <ele>0</ele>
        <time>2010-01-02T16:59:42Z</time>
      </trkpt>
      <trkpt lat="54.094917727634311" lon="10.429085288196802">
        <ele>0</ele>
        <time>2010-01-02T16:59:44Z</time>
      </trkpt>
      <trkpt lat="54.094922170042992" lon="10.429088473320007">
        <ele>0</ele>
        <time>2010-01-02T16:59:44Z</time>
      </trkpt>
      <trkpt lat="54.094981849193573" lon="10.429131807759404">
        <ele>0</ele>
        <time>2010-01-02T16:59:47Z</time>
      </trkpt>
      <trkpt lat="54.095029039308429" lon="10.429165503010154">
        <ele>0</ele>
        <time>2010-01-02T16:59:49Z</time>
      </trkpt>
      <trkpt lat="54.095084359869361" lon="10.429201042279601">
        <ele>0</ele>
        <time>2010-01-02T16:59:51Z</time>
      </trkpt>
      <trkpt lat="54.095157701522112" lon="10.429229540750384">
        <ele>0</ele>
        <time>2010-01-02T16:59:54Z</time>
      </trkpt>
      <trkpt lat="54.09521235153079" lon="10.429245214909315">
        <ele>0</ele>
        <time>2010-01-02T16:59:57Z</time>
      </trkpt>
      <trkpt lat="54.095282088965178" lon="10.429269019514322">
        <ele>0</ele>
        <time>2010-01-02T16:59:59Z</time>
      </trkpt>
      <trkpt lat="54.095382504165173" lon="10.42929382994771">
        <ele>0</ele>
        <time>2010-01-02T17:00:03Z</time>
      </trkpt>
      <trkpt lat="54.095513429492712" lon="10.429310593754053">
        <ele>0</ele>
        <time>2010-01-02T17:00:09Z</time>
      </trkpt>
      <trkpt lat="54.095762958750129" lon="10.429335990920663">
        <ele>0</ele>
        <time>2010-01-02T17:00:19Z</time>
      </trkpt>
      <trkpt lat="54.095892207697034" lon="10.429346552118659">
        <ele>0</ele>
        <time>2010-01-02T17:00:24Z</time>
      </trkpt>
      <trkpt lat="54.095950545743108" lon="10.429350072517991">
        <ele>0</ele>
        <time>2010-01-02T17:00:26Z</time>
      </trkpt>
      <trkpt lat="54.096001842990518" lon="10.429345713928342">
        <ele>0</ele>
        <time>2010-01-02T17:00:28Z</time>
      </trkpt>
      <trkpt lat="54.096038723364472" lon="10.429337834939361">
        <ele>0</ele>
        <time>2010-01-02T17:00:30Z</time>
      </trkpt>
      <trkpt lat="54.096070323139429" lon="10.429328195750713">
        <ele>0</ele>
        <time>2010-01-02T17:00:31Z</time>
      </trkpt>
      <trkpt lat="54.096103766933084" lon="10.429314114153385">
        <ele>0</ele>
        <time>2010-01-02T17:00:32Z</time>
      </trkpt>
      <trkpt lat="54.096169732511044" lon="10.429281173273921">
        <ele>0</ele>
        <time>2010-01-02T17:00:35Z</time>
      </trkpt>
      <trkpt lat="54.096283726394176" lon="10.429213279858232">
        <ele>0</ele>
        <time>2010-01-02T17:00:40Z</time>
      </trkpt>
      <trkpt lat="54.09650718793273" lon="10.429083360359073">
        <ele>0</ele>
        <time>2010-01-02T17:00:49Z</time>
      </trkpt>
      <trkpt lat="54.096670048311353" lon="10.428988058120012">
        <ele>0</ele>
        <time>2010-01-02T17:00:56Z</time>
      </trkpt>
      <trkpt lat="54.096738779917359" lon="10.42895226739347">
        <ele>0</ele>
        <time>2010-01-02T17:00:59Z</time>
      </trkpt>
      <trkpt lat="54.096904909238219" lon="10.428881524130702">
        <ele>0</ele>
        <time>2010-01-02T17:01:06Z</time>
      </trkpt>
      <trkpt lat="54.096929132938385" lon="10.428871968761086">
        <ele>0</ele>
        <time>2010-01-02T17:01:07Z</time>
      </trkpt>
      <trkpt lat="54.097104482352734" lon="10.428802818059921">
        <ele>0</ele>
        <time>2010-01-02T17:01:14Z</time>
      </trkpt>
      <trkpt lat="54.09725233912468" lon="10.428760489448905">
        <ele>0</ele>
        <time>2010-01-02T17:01:20Z</time>
      </trkpt>
      <trkpt lat="54.097295589745045" lon="10.428745150566101">
        <ele>0</ele>
        <time>2010-01-02T17:01:22Z</time>
      </trkpt>
      <trkpt lat="54.097345126792789" lon="10.428737690672278">
        <ele>0</ele>
        <time>2010-01-02T17:01:24Z</time>
      </trkpt>
      <trkpt lat="54.097354095429182" lon="10.428736433386803">
        <ele>0</ele>
        <time>2010-01-02T17:01:24Z</time>
      </trkpt>
      <trkpt lat="54.097392819821835" lon="10.428734757006168">
        <ele>0</ele>
        <time>2010-01-02T17:01:26Z</time>
      </trkpt>
      <trkpt lat="54.097411595284939" lon="10.428738445043564">
        <ele>0</ele>
        <time>2010-01-02T17:01:27Z</time>
      </trkpt>
      <trkpt lat="54.097468089312315" lon="10.428748000413179">
        <ele>0</ele>
        <time>2010-01-02T17:01:29Z</time>
      </trkpt>
      <trkpt lat="54.097531791776419" lon="10.428759399801493">
        <ele>0</ele>
        <time>2010-01-02T17:01:32Z</time>
      </trkpt>
      <trkpt lat="54.097742261365056" lon="10.428812457248569">
        <ele>0</ele>
        <time>2010-01-02T17:01:40Z</time>
      </trkpt>
      <trkpt lat="54.097941247746348" lon="10.428851433098316">
        <ele>0</ele>
        <time>2010-01-02T17:01:48Z</time>
      </trkpt>
      <trkpt lat="54.098020289093256" lon="10.428858725354075">
        <ele>0</ele>
        <time>2010-01-02T17:01:51Z</time>
      </trkpt>
      <trkpt lat="54.098142329603434" lon="10.428869035094976">
        <ele>0</ele>
        <time>2010-01-02T17:01:56Z</time>
      </trkpt>
      <trkpt lat="54.098277864977717" lon="10.428878339007497">
        <ele>0</ele>
        <time>2010-01-02T17:02:02Z</time>
      </trkpt>
      <trkpt lat="54.098344333469868" lon="10.428883619606495">
        <ele>0</ele>
        <time>2010-01-02T17:02:04Z</time>
      </trkpt>
      <trkpt lat="54.098358666524291" lon="10.428884122520685">
        <ele>0</ele>
        <time>2010-01-02T17:02:05Z</time>
      </trkpt>
      <trkpt lat="54.098407281562686" lon="10.42887507006526">
        <ele>0</ele>
        <time>2010-01-02T17:02:07Z</time>
      </trkpt>
      <trkpt lat="54.098456734791398" lon="10.428875321522355">
        <ele>0</ele>
        <time>2010-01-02T17:02:09Z</time>
      </trkpt>
      <trkpt lat="54.098519766703248" lon="10.428865179419518">
        <ele>0</ele>
        <time>2010-01-02T17:02:11Z</time>
      </trkpt>
      <trkpt lat="54.098671982064843" lon="10.428835256025195">
        <ele>0</ele>
        <time>2010-01-02T17:02:17Z</time>
      </trkpt>
      <trkpt lat="54.098807014524937" lon="10.428812373429537">
        <ele>0</ele>
        <time>2010-01-02T17:02:23Z</time>
      </trkpt>
      <trkpt lat="54.098878093063831" lon="10.428805667907">
        <ele>0</ele>
        <time>2010-01-02T17:02:26Z</time>
      </trkpt>
      <trkpt lat="54.098952692002058" lon="10.428800638765097">
        <ele>0</ele>
        <time>2010-01-02T17:02:29Z</time>
      </trkpt>
      <trkpt lat="54.099025363102555" lon="10.428812289610505">
        <ele>0</ele>
        <time>2010-01-02T17:02:32Z</time>
      </trkpt>
      <trkpt lat="54.099104236811399" lon="10.42882570065558">
        <ele>0</ele>
        <time>2010-01-02T17:02:35Z</time>
      </trkpt>
      <trkpt lat="54.099370781332254" lon="10.428925026208162">
        <ele>0</ele>
        <time>2010-01-02T17:02:46Z</time>
      </trkpt>
      <trkpt lat="54.100634772330523" lon="10.429396592080593">
        <ele>0</ele>
        <time>2010-01-02T17:03:38Z</time>
      </trkpt>
      <trkpt lat="54.10147313028574" lon="10.42969448491931">
        <ele>0</ele>
        <time>2010-01-02T17:04:12Z</time>
      </trkpt>
      <trkpt lat="54.101532222703099" lon="10.42971795424819">
        <ele>0</ele>
        <time>2010-01-02T17:04:14Z</time>
      </trkpt>
      <trkpt lat="54.101829109713435" lon="10.429836725816131">
        <ele>0</ele>
        <time>2010-01-02T17:04:26Z</time>
      </trkpt>
      <trkpt lat="54.101975038647652" lon="10.429881485179067">
        <ele>0</ele>
        <time>2010-01-02T17:04:32Z</time>
      </trkpt>
      <trkpt lat="54.102480048313737" lon="10.430025737732649">
        <ele>0</ele>
        <time>2010-01-02T17:04:53Z</time>
      </trkpt>
      <trkpt lat="54.102516761049628" lon="10.430037723854184">
        <ele>0</ele>
        <time>2010-01-02T17:04:54Z</time>
      </trkpt>
      <trkpt lat="54.102547187358141" lon="10.430047949776053">
        <ele>0</ele>
        <time>2010-01-02T17:04:56Z</time>
      </trkpt>
      <trkpt lat="54.102595634758472" lon="10.430052643641829">
        <ele>0</ele>
        <time>2010-01-02T17:04:58Z</time>
      </trkpt>
      <trkpt lat="54.102634275332093" lon="10.430049458518624">
        <ele>0</ele>
        <time>2010-01-02T17:04:59Z</time>
      </trkpt>
      <trkpt lat="54.102687416598201" lon="10.430040573701262">
        <ele>0</ele>
        <time>2010-01-02T17:05:01Z</time>
      </trkpt>
      <trkpt lat="54.103227881714702" lon="10.429848209023476">
        <ele>0</ele>
        <time>2010-01-02T17:05:23Z</time>
      </trkpt>
      <trkpt lat="54.103562571108341" lon="10.429735891520977">
        <ele>0</ele>
        <time>2010-01-02T17:05:37Z</time>
      </trkpt>
      <trkpt lat="54.104017876088619" lon="10.429609324783087">
        <ele>0</ele>
        <time>2010-01-02T17:05:55Z</time>
      </trkpt>
      <trkpt lat="54.104123907163739" lon="10.429603792726994">
        <ele>0</ele>
        <time>2010-01-02T17:06:00Z</time>
      </trkpt>
      <trkpt lat="54.104192135855556" lon="10.429612258449197">
        <ele>0</ele>
        <time>2010-01-02T17:06:02Z</time>
      </trkpt>
      <trkpt lat="54.104236895218492" lon="10.42962608858943">
        <ele>0</ele>
        <time>2010-01-02T17:06:04Z</time>
      </trkpt>
      <trkpt lat="54.104271680116653" lon="10.429650144651532">
        <ele>0</ele>
        <time>2010-01-02T17:06:06Z</time>
      </trkpt>
      <trkpt lat="54.104307135567069" lon="10.429688114672899">
        <ele>0</ele>
        <time>2010-01-02T17:06:07Z</time>
      </trkpt>
      <trkpt lat="54.104367904365063" lon="10.429788026958704">
        <ele>0</ele>
        <time>2010-01-02T17:06:11Z</time>
      </trkpt>
      <trkpt lat="54.104411154985428" lon="10.429705465212464">
        <ele>0</ele>
        <time>2010-01-02T17:06:13Z</time>
      </trkpt>
      <trkpt lat="54.104455159977078" lon="10.429627429693937">
        <ele>0</ele>
        <time>2010-01-02T17:06:16Z</time>
      </trkpt>
      <trkpt lat="54.104498997330666" lon="10.4295723605901">
        <ele>0</ele>
        <time>2010-01-02T17:06:18Z</time>
      </trkpt>
      <trkpt lat="54.104548953473568" lon="10.429526679217815">
        <ele>0</ele>
        <time>2010-01-02T17:06:20Z</time>
      </trkpt>
      <trkpt lat="54.104595389217138" lon="10.429476303979754">
        <ele>0</ele>
        <time>2010-01-02T17:06:23Z</time>
      </trkpt>
      <trkpt lat="54.104640986770391" lon="10.429418301209807">
        <ele>0</ele>
        <time>2010-01-02T17:06:25Z</time>
      </trkpt>
      <trkpt lat="54.104687506332994" lon="10.429357197135687">
        <ele>0</ele>
        <time>2010-01-02T17:06:27Z</time>
      </trkpt>
      <trkpt lat="54.104736121371388" lon="10.429274719208479">
        <ele>0</ele>
        <time>2010-01-02T17:06:30Z</time>
      </trkpt>
      <trkpt lat="54.104785909876227" lon="10.429172459989786">
        <ele>0</ele>
        <time>2010-01-02T17:06:33Z</time>
      </trkpt>
      <trkpt lat="54.104858497157693" lon="10.429032817482948">
        <ele>0</ele>
        <time>2010-01-02T17:06:37Z</time>
      </trkpt>
      <trkpt lat="54.104951787739992" lon="10.428820420056581">
        <ele>0</ele>
        <time>2010-01-02T17:06:44Z</time>
      </trkpt>
      <trkpt lat="54.105064021423459" lon="10.428598048165441">
        <ele>0</ele>
        <time>2010-01-02T17:06:51Z</time>
      </trkpt>
      <trkpt lat="54.105167118832469" lon="10.428393613547087">
        <ele>0</ele>
        <time>2010-01-02T17:06:57Z</time>
      </trkpt>
      <trkpt lat="54.105174327269197" lon="10.428381459787488">
        <ele>0</ele>
        <time>2010-01-02T17:06:57Z</time>
      </trkpt>
      <trkpt lat="54.105334924533963" lon="10.42811038903892">
        <ele>0</ele>
        <time>2010-01-02T17:07:06Z</time>
      </trkpt>
      <trkpt lat="54.105449253693223" lon="10.427940068766475">
        <ele>0</ele>
        <time>2010-01-02T17:07:12Z</time>
      </trkpt>
      <trkpt lat="54.105461994186044" lon="10.427920622751117">
        <ele>0</ele>
        <time>2010-01-02T17:07:13Z</time>
      </trkpt>
      <trkpt lat="54.105537179857492" lon="10.427799336612225">
        <ele>0</ele>
        <time>2010-01-02T17:07:17Z</time>
      </trkpt>
      <trkpt lat="54.105586716905236" lon="10.427713925018907">
        <ele>0</ele>
        <time>2010-01-02T17:07:20Z</time>
      </trkpt>
      <trkpt lat="54.10562988370657" lon="10.427629770711064">
        <ele>0</ele>
        <time>2010-01-02T17:07:23Z</time>
      </trkpt>
      <trkpt lat="54.105694759637117" lon="10.42746682651341">
        <ele>0</ele>
        <time>2010-01-02T17:07:27Z</time>
      </trkpt>
      <trkpt lat="54.105694759637117" lon="10.42746682651341">
        <ele>0</ele>
        <time>2010-01-02T17:53:51Z</time>
      </trkpt>
      <trkpt lat="54.105729293078184" lon="10.427281502634287">
        <ele>0</ele>
        <time>2010-01-02T17:53:46Z</time>
      </trkpt>
      <trkpt lat="54.10576868802309" lon="10.426977407187223">
        <ele>0</ele>
        <time>2010-01-02T17:53:39Z</time>
      </trkpt>
      <trkpt lat="54.105774806812406" lon="10.426929881796241">
        <ele>0</ele>
        <time>2010-01-02T17:53:38Z</time>
      </trkpt>
      <trkpt lat="54.105787966400385" lon="10.426804991438985">
        <ele>0</ele>
        <time>2010-01-02T17:53:35Z</time>
      </trkpt>
      <trkpt lat="54.105833061039448" lon="10.426449934020638">
        <ele>0</ele>
        <time>2010-01-02T17:53:26Z</time>
      </trkpt>
      <trkpt lat="54.105865582823753" lon="10.426235608756542">
        <ele>0</ele>
        <time>2010-01-02T17:53:21Z</time>
      </trkpt>
      <trkpt lat="54.10589131526649" lon="10.42610258795321">
        <ele>0</ele>
        <time>2010-01-02T17:53:18Z</time>
      </trkpt>
      <trkpt lat="54.105945965275168" lon="10.425935452803969">
        <ele>0</ele>
        <time>2010-01-02T17:53:13Z</time>
      </trkpt>
      <trkpt lat="54.105952084064484" lon="10.425919611006975">
        <ele>0</ele>
        <time>2010-01-02T17:53:13Z</time>
      </trkpt>
      <trkpt lat="54.106004973873496" lon="10.425782147794962">
        <ele>0</ele>
        <time>2010-01-02T17:53:09Z</time>
      </trkpt>
      <trkpt lat="54.106069849804044" lon="10.425617778673768">
        <ele>0</ele>
        <time>2010-01-02T17:53:04Z</time>
      </trkpt>
      <trkpt lat="54.106125421822071" lon="10.425487356260419">
        <ele>0</ele>
        <time>2010-01-02T17:53:01Z</time>
      </trkpt>
      <trkpt lat="54.106153585016727" lon="10.425435304641724">
        <ele>0</ele>
        <time>2010-01-02T17:52:59Z</time>
      </trkpt>
      <trkpt lat="54.106171438470483" lon="10.425402615219355">
        <ele>0</ele>
        <time>2010-01-02T17:52:58Z</time>
      </trkpt>
      <trkpt lat="54.106261963024735" lon="10.425274204462767">
        <ele>0</ele>
        <time>2010-01-02T17:52:53Z</time>
      </trkpt>
      <trkpt lat="54.10633547231555" lon="10.425217961892486">
        <ele>0</ele>
        <time>2010-01-02T17:52:50Z</time>
      </trkpt>
      <trkpt lat="54.1064209677279" lon="10.425166664645076">
        <ele>0</ele>
        <time>2010-01-02T17:52:46Z</time>
      </trkpt>
      <trkpt lat="54.10658466629684" lon="10.425083097070456">
        <ele>0</ele>
        <time>2010-01-02T17:52:40Z</time>
      </trkpt>
      <trkpt lat="54.10658466629684" lon="10.425083097070456">
        <ele>0</ele>
        <time>2010-01-02T17:52:40Z</time>
      </trkpt>
      <trkpt lat="54.1064209677279" lon="10.425166664645076">
        <ele>0</ele>
        <time>2010-01-02T17:52:46Z</time>
      </trkpt>
      <trkpt lat="54.10633547231555" lon="10.425217961892486">
        <ele>0</ele>
        <time>2010-01-02T17:52:50Z</time>
      </trkpt>
      <trkpt lat="54.106261963024735" lon="10.425274204462767">
        <ele>0</ele>
        <time>2010-01-02T17:52:53Z</time>
      </trkpt>
      <trkpt lat="54.106171438470483" lon="10.425402615219355">
        <ele>0</ele>
        <time>2010-01-02T17:52:58Z</time>
      </trkpt>
      <trkpt lat="54.106153585016727" lon="10.425435304641724">
        <ele>0</ele>
        <time>2010-01-02T17:52:59Z</time>
      </trkpt>
      <trkpt lat="54.106125421822071" lon="10.425487356260419">
        <ele>0</ele>
        <time>2010-01-02T17:53:01Z</time>
      </trkpt>
      <trkpt lat="54.106069849804044" lon="10.425617778673768">
        <ele>0</ele>
        <time>2010-01-02T17:53:04Z</time>
      </trkpt>
      <trkpt lat="54.106004973873496" lon="10.425782147794962">
        <ele>0</ele>
        <time>2010-01-02T17:53:09Z</time>
      </trkpt>
      <trkpt lat="54.105952084064484" lon="10.425919611006975">
        <ele>0</ele>
        <time>2010-01-02T17:53:13Z</time>
      </trkpt>
      <trkpt lat="54.105945965275168" lon="10.425935452803969">
        <ele>0</ele>
        <time>2010-01-02T17:53:13Z</time>
      </trkpt>
      <trkpt lat="54.10589131526649" lon="10.42610258795321">
        <ele>0</ele>
        <time>2010-01-02T17:53:18Z</time>
      </trkpt>
      <trkpt lat="54.105865582823753" lon="10.426235608756542">
        <ele>0</ele>
        <time>2010-01-02T17:53:21Z</time>
      </trkpt>
      <trkpt lat="54.105833061039448" lon="10.426449934020638">
        <ele>0</ele>
        <time>2010-01-02T17:53:26Z</time>
      </trkpt>
      <trkpt lat="54.105787966400385" lon="10.426804991438985">
        <ele>0</ele>
        <time>2010-01-02T17:53:35Z</time>
      </trkpt>
      <trkpt lat="54.105774806812406" lon="10.426929881796241">
        <ele>0</ele>
        <time>2010-01-02T17:53:38Z</time>
      </trkpt>
      <trkpt lat="54.10576868802309" lon="10.426977407187223">
        <ele>0</ele>
        <time>2010-01-02T17:53:39Z</time>
      </trkpt>
      <trkpt lat="54.105729293078184" lon="10.427281502634287">
        <ele>0</ele>
        <time>2010-01-02T17:53:46Z</time>
      </trkpt>
      <trkpt lat="54.105694759637117" lon="10.42746682651341">
        <ele>0</ele>
        <time>2010-01-02T17:53:51Z</time>
      </trkpt>
      <trkpt lat="54.105830797925591" lon="10.427888939157128">
        <ele>0</ele>
        <time>2010-01-02T17:07:39Z</time>
      </trkpt>
      <trkpt lat="54.106034142896533" lon="10.428547253832221">
        <ele>0</ele>
        <time>2010-01-02T17:07:56Z</time>
      </trkpt>
      <trkpt lat="54.106090385466814" lon="10.428729644045234">
        <ele>0</ele>
        <time>2010-01-02T17:08:01Z</time>
      </trkpt>
      <trkpt lat="54.106183759868145" lon="10.429008258506656">
        <ele>0</ele>
        <time>2010-01-02T17:08:08Z</time>
      </trkpt>
      <trkpt lat="54.106347458437085" lon="10.429547298699617">
        <ele>0</ele>
        <time>2010-01-02T17:08:23Z</time>
      </trkpt>
      <trkpt lat="54.106440078467131" lon="10.429850220680237">
        <ele>0</ele>
        <time>2010-01-02T17:08:31Z</time>
      </trkpt>
      <trkpt lat="54.106474611908197" lon="10.429966058582067">
        <ele>0</ele>
        <time>2010-01-02T17:08:34Z</time>
      </trkpt>
      <trkpt lat="54.106497075408697" lon="10.430038729682565">
        <ele>0</ele>
        <time>2010-01-02T17:08:36Z</time>
      </trkpt>
      <trkpt lat="54.106519874185324" lon="10.430089943110943">
        <ele>0</ele>
        <time>2010-01-02T17:08:37Z</time>
      </trkpt>
      <trkpt lat="54.106583325192332" lon="10.430189939215779">
        <ele>0</ele>
        <time>2010-01-02T17:08:41Z</time>
      </trkpt>
      <trkpt lat="54.107110714539886" lon="10.430874824523926">
        <ele>0</ele>
        <time>2010-01-02T17:09:07Z</time>
      </trkpt>
      <trkpt lat="54.107480524107814" lon="10.431361561641097">
        <ele>0</ele>
        <time>2010-01-02T17:09:26Z</time>
      </trkpt>
      <trkpt lat="54.107750840485096" lon="10.431673619896173">
        <ele>0</ele>
        <time>2010-01-02T17:09:39Z</time>
      </trkpt>
      <trkpt lat="54.108025599271059" lon="10.431987354531884">
        <ele>0</ele>
        <time>2010-01-02T17:09:52Z</time>
      </trkpt>
      <trkpt lat="54.108424661681056" lon="10.432435367256403">
        <ele>0</ele>
        <time>2010-01-02T17:10:11Z</time>
      </trkpt>
      <trkpt lat="54.108709394931793" lon="10.432741809636354">
        <ele>0</ele>
        <time>2010-01-02T17:10:25Z</time>
      </trkpt>
      <trkpt lat="54.108840906992555" lon="10.432867202907801">
        <ele>0</ele>
        <time>2010-01-02T17:10:31Z</time>
      </trkpt>
      <trkpt lat="54.109092447906733" lon="10.433096028864384">
        <ele>0</ele>
        <time>2010-01-02T17:10:42Z</time>
      </trkpt>
      <trkpt lat="54.109293194487691" lon="10.433291075751185">
        <ele>0</ele>
        <time>2010-01-02T17:10:52Z</time>
      </trkpt>
      <trkpt lat="54.109410373494029" lon="10.433409763500094">
        <ele>0</ele>
        <time>2010-01-02T17:10:57Z</time>
      </trkpt>
      <trkpt lat="54.109530234709382" lon="10.433531636372209">
        <ele>0</ele>
        <time>2010-01-02T17:11:03Z</time>
      </trkpt>
      <trkpt lat="54.109866600483656" lon="10.433879652991891">
        <ele>0</ele>
        <time>2010-01-02T17:11:18Z</time>
      </trkpt>
      <trkpt lat="54.110105400905013" lon="10.434123398736119">
        <ele>0</ele>
        <time>2010-01-02T17:11:29Z</time>
      </trkpt>
      <trkpt lat="54.110363982617855" lon="10.434361696243286">
        <ele>0</ele>
        <time>2010-01-02T17:11:41Z</time>
      </trkpt>
      <trkpt lat="54.110644944012165" lon="10.434613069519401">
        <ele>0</ele>
        <time>2010-01-02T17:11:54Z</time>
      </trkpt>
      <trkpt lat="54.110851138830185" lon="10.434800572693348">
        <ele>0</ele>
        <time>2010-01-02T17:12:03Z</time>
      </trkpt>
      <trkpt lat="54.110956499353051" lon="10.434878692030907">
        <ele>0</ele>
        <time>2010-01-02T17:12:08Z</time>
      </trkpt>
      <trkpt lat="54.111011484637856" lon="10.434919344261289">
        <ele>0</ele>
        <time>2010-01-02T17:12:10Z</time>
      </trkpt>
      <trkpt lat="54.11113721318543" lon="10.434997044503689">
        <ele>0</ele>
        <time>2010-01-02T17:12:16Z</time>
      </trkpt>
      <trkpt lat="54.111262187361717" lon="10.435064099729061">
        <ele>0</ele>
        <time>2010-01-02T17:12:21Z</time>
      </trkpt>
      <trkpt lat="54.111289009451866" lon="10.43507725931704">
        <ele>0</ele>
        <time>2010-01-02T17:12:22Z</time>
      </trkpt>
      <trkpt lat="54.111363189294934" lon="10.435110367834568">
        <ele>0</ele>
        <time>2010-01-02T17:12:25Z</time>
      </trkpt>
      <trkpt lat="54.111472405493259" lon="10.435147751122713">
        <ele>0</ele>
        <time>2010-01-02T17:12:30Z</time>
      </trkpt>
      <trkpt lat="54.111589584499598" lon="10.435186978429556">
        <ele>0</ele>
        <time>2010-01-02T17:12:34Z</time>
      </trkpt>
      <trkpt lat="54.111646078526974" lon="10.435198126360774">
        <ele>0</ele>
        <time>2010-01-02T17:12:37Z</time>
      </trkpt>
      <trkpt lat="54.111666614189744" lon="10.435201730579138">
        <ele>0</ele>
        <time>2010-01-02T17:12:37Z</time>
      </trkpt>
      <trkpt lat="54.111720509827137" lon="10.435211453586817">
        <ele>0</ele>
        <time>2010-01-02T17:12:40Z</time>
      </trkpt>
      <trkpt lat="54.111854955554008" lon="10.435239030048251">
        <ele>0</ele>
        <time>2010-01-02T17:12:45Z</time>
      </trkpt>
      <trkpt lat="54.111998537555337" lon="10.435254704207182">
        <ele>0</ele>
        <time>2010-01-02T17:12:51Z</time>
      </trkpt>
      <trkpt lat="54.112189561128616" lon="10.435282699763775">
        <ele>0</ele>
        <time>2010-01-02T17:12:58Z</time>
      </trkpt>
      <trkpt lat="54.112433725968003" lon="10.435303319245577">
        <ele>0</ele>
        <time>2010-01-02T17:13:08Z</time>
      </trkpt>
      <trkpt lat="54.11257185973227" lon="10.435320334509015">
        <ele>0</ele>
        <time>2010-01-02T17:13:14Z</time>
      </trkpt>
      <trkpt lat="54.112901268526912" lon="10.435348581522703">
        <ele>0</ele>
        <time>2010-01-02T17:13:27Z</time>
      </trkpt>
      <trkpt lat="54.113071840256453" lon="10.435359058901668">
        <ele>0</ele>
        <time>2010-01-02T17:13:34Z</time>
      </trkpt>
      <trkpt lat="54.113109391182661" lon="10.435352521017194">
        <ele>0</ele>
        <time>2010-01-02T17:13:35Z</time>
      </trkpt>
      <trkpt lat="54.113414827734232" lon="10.435297787189484">
        <ele>0</ele>
        <time>2010-01-02T17:13:48Z</time>
      </trkpt>
      <trkpt lat="54.114037184044719" lon="10.43530298396945">
        <ele>0</ele>
        <time>2010-01-02T17:14:12Z</time>
      </trkpt>
      <trkpt lat="54.114126618951559" lon="10.435296697542071">
        <ele>0</ele>
        <time>2010-01-02T17:14:16Z</time>
      </trkpt>
      <trkpt lat="54.114183867350221" lon="10.435300217941403">
        <ele>0</ele>
        <time>2010-01-02T17:14:18Z</time>
      </trkpt>
      <trkpt lat="54.114220160990953" lon="10.435302397236228">
        <ele>0</ele>
        <time>2010-01-02T17:14:20Z</time>
      </trkpt>
      <trkpt lat="54.114316636696458" lon="10.435310946777463">
        <ele>0</ele>
        <time>2010-01-02T17:14:24Z</time>
      </trkpt>
      <trkpt lat="54.11441202275455" lon="10.435281023383141">
        <ele>0</ele>
        <time>2010-01-02T17:14:28Z</time>
      </trkpt>
      <trkpt lat="54.114564321935177" lon="10.435228468850255">
        <ele>0</ele>
        <time>2010-01-02T17:14:34Z</time>
      </trkpt>
      <trkpt lat="54.114867160096765" lon="10.435119085013866">
        <ele>0</ele>
        <time>2010-01-02T17:14:46Z</time>
      </trkpt>
      <trkpt lat="54.115053741261363" lon="10.43508748523891">
        <ele>0</ele>
        <time>2010-01-02T17:14:54Z</time>
      </trkpt>
      <trkpt lat="54.115201346576214" lon="10.435076169669628">
        <ele>0</ele>
        <time>2010-01-02T17:15:00Z</time>
      </trkpt>
      <trkpt lat="54.115435453131795" lon="10.435089748352766">
        <ele>0</ele>
        <time>2010-01-02T17:15:09Z</time>
      </trkpt>
      <trkpt lat="54.11576259881258" lon="10.43512755073607">
        <ele>0</ele>
        <time>2010-01-02T17:15:22Z</time>
      </trkpt>
      <trkpt lat="54.115771818906069" lon="10.435128640383482">
        <ele>0</ele>
        <time>2010-01-02T17:15:22Z</time>
      </trkpt>
      <trkpt lat="54.115874329581857" lon="10.435148505493999">
        <ele>0</ele>
        <time>2010-01-02T17:15:27Z</time>
      </trkpt>
      <trkpt lat="54.115935685113072" lon="10.435183960944414">
        <ele>0</ele>
        <time>2010-01-02T17:15:29Z</time>
      </trkpt>
      <trkpt lat="54.115944486111403" lon="10.435189073905349">
        <ele>0</ele>
        <time>2010-01-02T17:15:30Z</time>
      </trkpt>
      <trkpt lat="54.116064431145787" lon="10.435351179912686">
        <ele>0</ele>
        <time>2010-01-02T17:15:36Z</time>
      </trkpt>
      <trkpt lat="54.116133414208889" lon="10.43548428453505">
        <ele>0</ele>
        <time>2010-01-02T17:15:40Z</time>
      </trkpt>
      <trkpt lat="54.116176748648286" lon="10.435616718605161">
        <ele>0</ele>
        <time>2010-01-02T17:15:43Z</time>
      </trkpt>
      <trkpt lat="54.116210946813226" lon="10.435747308656573">
        <ele>0</ele>
        <time>2010-01-02T17:15:47Z</time>
      </trkpt>
      <trkpt lat="54.11626392044127" lon="10.435931291431189">
        <ele>0</ele>
        <time>2010-01-02T17:15:52Z</time>
      </trkpt>
      <trkpt lat="54.116306332871318" lon="10.436065485700965">
        <ele>0</ele>
        <time>2010-01-02T17:15:55Z</time>
      </trkpt>
      <trkpt lat="54.116324773058295" lon="10.436123656108975">
        <ele>0</ele>
        <time>2010-01-02T17:15:57Z</time>
      </trkpt>
      <trkpt lat="54.116443963721395" lon="10.436440659686923">
        <ele>0</ele>
        <time>2010-01-02T17:16:06Z</time>
      </trkpt>
      <trkpt lat="54.116557706147432" lon="10.436697145923972">
        <ele>0</ele>
        <time>2010-01-02T17:16:13Z</time>
      </trkpt>
      <trkpt lat="54.116761051118374" lon="10.437111547216773">
        <ele>0</ele>
        <time>2010-01-02T17:16:26Z</time>
      </trkpt>
      <trkpt lat="54.116896418854594" lon="10.437398459762335">
        <ele>0</ele>
        <time>2010-01-02T17:16:34Z</time>
      </trkpt>
      <trkpt lat="54.116938160732388" lon="10.437498036772013">
        <ele>0</ele>
        <time>2010-01-02T17:16:37Z</time>
      </trkpt>
      <trkpt lat="54.11696657538414" lon="10.437613120302558">
        <ele>0</ele>
        <time>2010-01-02T17:16:40Z</time>
      </trkpt>
      <trkpt lat="54.117010580375791" lon="10.437836246564984">
        <ele>0</ele>
        <time>2010-01-02T17:16:46Z</time>
      </trkpt>
      <trkpt lat="54.117129687219858" lon="10.43847369030118">
        <ele>0</ele>
        <time>2010-01-02T17:17:01Z</time>
      </trkpt>
      <trkpt lat="54.117205375805497" lon="10.438923882320523">
        <ele>0</ele>
        <time>2010-01-02T17:17:12Z</time>
      </trkpt>
      <trkpt lat="54.117245608940721" lon="10.438904436305165">
        <ele>0</ele>
        <time>2010-01-02T17:17:14Z</time>
      </trkpt>
      <trkpt lat="54.11728274077177" lon="10.438916170969605">
        <ele>0</ele>
        <time>2010-01-02T17:17:16Z</time>
      </trkpt>
      <trkpt lat="54.117331691086292" lon="10.438970569521189">
        <ele>0</ele>
        <time>2010-01-02T17:17:18Z</time>
      </trkpt>
      <trkpt lat="54.117398830130696" lon="10.439062518998981">
        <ele>0</ele>
        <time>2010-01-02T17:17:21Z</time>
      </trkpt>
      <trkpt lat="54.117581471800804" lon="10.439379354938865">
        <ele>0</ele>
        <time>2010-01-02T17:17:32Z</time>
      </trkpt>
      <trkpt lat="54.117545261979103" lon="10.439291344955564">
        <ele>0</ele>
        <time>2010-01-02T17:17:34Z</time>
      </trkpt>
      <trkpt lat="54.117512404918671" lon="10.439183134585619">
        <ele>0</ele>
        <time>2010-01-02T17:17:37Z</time>
      </trkpt>
      <trkpt lat="54.11750553175807" lon="10.439161509275436">
        <ele>0</ele>
        <time>2010-01-02T17:17:38Z</time>
      </trkpt>
      <trkpt lat="54.117479296401143" lon="10.439027985557914">
        <ele>0</ele>
        <time>2010-01-02T17:17:41Z</time>
      </trkpt>
      <trkpt lat="54.117469908669591" lon="10.438979789614677">
        <ele>0</ele>
        <time>2010-01-02T17:17:42Z</time>
      </trkpt>
      <trkpt lat="54.117454653605819" lon="10.438817013055086">
        <ele>0</ele>
        <time>2010-01-02T17:17:46Z</time>
      </trkpt>
      <trkpt lat="54.117413330823183" lon="10.438376795500517">
        <ele>0</ele>
        <time>2010-01-02T17:17:57Z</time>
      </trkpt>
      <trkpt lat="54.117346443235874" lon="10.437586801126599">
        <ele>0</ele>
        <time>2010-01-02T17:18:15Z</time>
      </trkpt>
      <trkpt lat="54.117286093533039" lon="10.43646982870996">
        <ele>0</ele>
        <time>2010-01-02T17:18:42Z</time>
      </trkpt>
      <trkpt lat="54.117237729951739" lon="10.435552010312676">
        <ele>0</ele>
        <time>2010-01-02T17:19:03Z</time>
      </trkpt>
      <trkpt lat="54.117231359705329" lon="10.435334583744407">
        <ele>0</ele>
        <time>2010-01-02T17:19:08Z</time>
      </trkpt>
      <trkpt lat="54.117223648354411" lon="10.435075918212533">
        <ele>0</ele>
        <time>2010-01-02T17:19:14Z</time>
      </trkpt>
      <trkpt lat="54.117236891761422" lon="10.434869891032577">
        <ele>0</ele>
        <time>2010-01-02T17:19:19Z</time>
      </trkpt>
      <trkpt lat="54.117267401888967" lon="10.434572668746114">
        <ele>0</ele>
        <time>2010-01-02T17:19:26Z</time>
      </trkpt>
      <trkpt lat="54.117304952815175" lon="10.434284918010235">
        <ele>0</ele>
        <time>2010-01-02T17:19:33Z</time>
      </trkpt>
      <trkpt lat="54.117336552590132" lon="10.434048967435956">
        <ele>0</ele>
        <time>2010-01-02T17:19:39Z</time>
      </trkpt>
      <trkpt lat="54.117371924221516" lon="10.433868169784546">
        <ele>0</ele>
        <time>2010-01-02T17:19:43Z</time>
      </trkpt>
      <trkpt lat="54.117423221468925" lon="10.433635991066694">
        <ele>0</ele>
        <time>2010-01-02T17:19:49Z</time>
      </trkpt>
      <trkpt lat="54.117485331371427" lon="10.433399537578225">
        <ele>0</ele>
        <time>2010-01-02T17:19:55Z</time>
      </trkpt>
      <trkpt lat="54.117575604468584" lon="10.433141123503447">
        <ele>0</ele>
        <time>2010-01-02T17:20:02Z</time>
      </trkpt>
      <trkpt lat="54.117691610008478" lon="10.432825461030006">
        <ele>0</ele>
        <time>2010-01-02T17:20:11Z</time>
      </trkpt>
      <trkpt lat="54.117824966087937" lon="10.432493621483445">
        <ele>0</ele>
        <time>2010-01-02T17:20:21Z</time>
      </trkpt>
      <trkpt lat="54.118031077086926" lon="10.432009734213352">
        <ele>0</ele>
        <time>2010-01-02T17:20:35Z</time>
      </trkpt>
      <trkpt lat="54.118160074576735" lon="10.431745033711195">
        <ele>0</ele>
        <time>2010-01-02T17:20:43Z</time>
      </trkpt>
      <trkpt lat="54.11821598187089" lon="10.431653670966625">
        <ele>0</ele>
        <time>2010-01-02T17:20:46Z</time>
      </trkpt>
      <trkpt lat="54.118269458413124" lon="10.431608073413372">
        <ele>0</ele>
        <time>2010-01-02T17:20:48Z</time>
      </trkpt>
      <trkpt lat="54.118335256353021" lon="10.431596590206027">
        <ele>0</ele>
        <time>2010-01-02T17:20:51Z</time>
      </trkpt>
      <trkpt lat="54.118404993787408" lon="10.431620394811034">
        <ele>0</ele>
        <time>2010-01-02T17:20:54Z</time>
      </trkpt>
      <trkpt lat="54.118470875546336" lon="10.431673116981983">
        <ele>0</ele>
        <time>2010-01-02T17:20:57Z</time>
      </trkpt>
      <trkpt lat="54.118559556081891" lon="10.431769508868456">
        <ele>0</ele>
        <time>2010-01-02T17:21:01Z</time>
      </trkpt>
      <trkpt lat="54.118680004030466" lon="10.431915940716863">
        <ele>0</ele>
        <time>2010-01-02T17:21:07Z</time>
      </trkpt>
      <trkpt lat="54.118824508041143" lon="10.432082992047071">
        <ele>0</ele>
        <time>2010-01-02T17:21:14Z</time>
      </trkpt>
      <trkpt lat="54.118921738117933" lon="10.43221483938396">
        <ele>0</ele>
        <time>2010-01-02T17:21:19Z</time>
      </trkpt>
      <trkpt lat="54.119026176631451" lon="10.432348446920514">
        <ele>0</ele>
        <time>2010-01-02T17:21:24Z</time>
      </trkpt>
      <trkpt lat="54.11914486438036" lon="10.43249630369246">
        <ele>0</ele>
        <time>2010-01-02T17:21:30Z</time>
      </trkpt>
      <trkpt lat="54.119265647605062" lon="10.432690093293786">
        <ele>0</ele>
        <time>2010-01-02T17:21:36Z</time>
      </trkpt>
      <trkpt lat="54.119405122473836" lon="10.432898383587599">
        <ele>0</ele>
        <time>2010-01-02T17:21:44Z</time>
      </trkpt>
      <trkpt lat="54.119437225162983" lon="10.43295563198626">
        <ele>0</ele>
        <time>2010-01-02T17:21:46Z</time>
      </trkpt>
      <trkpt lat="54.119573179632425" lon="10.433197868987918">
        <ele>0</ele>
        <time>2010-01-02T17:21:54Z</time>
      </trkpt>
      <trkpt lat="54.119775854051113" lon="10.433532139286399">
        <ele>0</ele>
        <time>2010-01-02T17:22:05Z</time>
      </trkpt>
      <trkpt lat="54.120015911757946" lon="10.433893734589219">
        <ele>0</ele>
        <time>2010-01-02T17:22:18Z</time>
      </trkpt>
      <trkpt lat="54.12025555036962" lon="10.434220125898719">
        <ele>0</ele>
        <time>2010-01-02T17:22:30Z</time>
      </trkpt>
      <trkpt lat="54.120346829295158" lon="10.434327330440283">
        <ele>0</ele>
        <time>2010-01-02T17:22:34Z</time>
      </trkpt>
      <trkpt lat="54.120471971109509" lon="10.434450963512063">
        <ele>0</ele>
        <time>2010-01-02T17:22:40Z</time>
      </trkpt>
      <trkpt lat="54.120589401572943" lon="10.4345543961972">
        <ele>0</ele>
        <time>2010-01-02T17:22:46Z</time>
      </trkpt>
      <trkpt lat="54.120726445689797" lon="10.434663193300366">
        <ele>0</ele>
        <time>2010-01-02T17:22:52Z</time>
      </trkpt>
      <trkpt lat="54.120977902784944" lon="10.434826305136085">
        <ele>0</ele>
        <time>2010-01-02T17:23:02Z</time>
      </trkpt>
      <trkpt lat="54.121146462857723" lon="10.434930073097348">
        <ele>0</ele>
        <time>2010-01-02T17:23:10Z</time>
      </trkpt>
      <trkpt lat="54.121280405670404" lon="10.434997379779816">
        <ele>0</ele>
        <time>2010-01-02T17:23:15Z</time>
      </trkpt>
      <trkpt lat="54.121381491422653" lon="10.435037612915039">
        <ele>0</ele>
        <time>2010-01-02T17:23:19Z</time>
      </trkpt>
      <trkpt lat="54.121492467820644" lon="10.435070469975471">
        <ele>0</ele>
        <time>2010-01-02T17:23:24Z</time>
      </trkpt>
      <trkpt lat="54.121610149741173" lon="10.435071559622884">
        <ele>0</ele>
        <time>2010-01-02T17:23:28Z</time>
      </trkpt>
      <trkpt lat="54.121653316542506" lon="10.435074577108026">
        <ele>0</ele>
        <time>2010-01-02T17:23:30Z</time>
      </trkpt>
      <trkpt lat="54.121738560497761" lon="10.435079019516706">
        <ele>0</ele>
        <time>2010-01-02T17:23:34Z</time>
      </trkpt>
      <trkpt lat="54.121923046186566" lon="10.435054795816541">
        <ele>0</ele>
        <time>2010-01-02T17:23:41Z</time>
      </trkpt>
      <trkpt lat="54.122103173285723" lon="10.435024285688996">
        <ele>0</ele>
        <time>2010-01-02T17:23:48Z</time>
      </trkpt>
      <trkpt lat="54.122293023392558" lon="10.434997212141752">
        <ele>0</ele>
        <time>2010-01-02T17:23:56Z</time>
      </trkpt>
      <trkpt lat="54.122401066124439" lon="10.434981118887663">
        <ele>0</ele>
        <time>2010-01-02T17:24:00Z</time>
      </trkpt>
      <trkpt lat="54.122467450797558" lon="10.434987992048264">
        <ele>0</ele>
        <time>2010-01-02T17:24:03Z</time>
      </trkpt>
      <trkpt lat="54.122497038915753" lon="10.434992015361786">
        <ele>0</ele>
        <time>2010-01-02T17:24:04Z</time>
      </trkpt>
      <trkpt lat="54.122526710852981" lon="10.434994613751769">
        <ele>0</ele>
        <time>2010-01-02T17:24:05Z</time>
      </trkpt>
      <trkpt lat="54.122610529884696" lon="10.435040462762117">
        <ele>0</ele>
        <time>2010-01-02T17:24:09Z</time>
      </trkpt>
      <trkpt lat="54.12274899892509" lon="10.435128137469292">
        <ele>0</ele>
        <time>2010-01-02T17:24:15Z</time>
      </trkpt>
      <trkpt lat="54.122928706929088" lon="10.435279682278633">
        <ele>0</ele>
        <time>2010-01-02T17:24:23Z</time>
      </trkpt>
      <trkpt lat="54.123702524229884" lon="10.435845963656902">
        <ele>0</ele>
        <time>2010-01-02T17:24:56Z</time>
      </trkpt>
      <trkpt lat="54.124219352379441" lon="10.436211079359055">
        <ele>0</ele>
        <time>2010-01-02T17:25:19Z</time>
      </trkpt>
      <trkpt lat="54.124725200235844" lon="10.436584996059537">
        <ele>0</ele>
        <time>2010-01-02T17:25:41Z</time>
      </trkpt>
      <trkpt lat="54.124735007062554" lon="10.43659295886755">
        <ele>0</ele>
        <time>2010-01-02T17:25:41Z</time>
      </trkpt>
      <trkpt lat="54.124842043966055" lon="10.436657834798098">
        <ele>0</ele>
        <time>2010-01-02T17:25:46Z</time>
      </trkpt>
      <trkpt lat="54.124923096969724" lon="10.436720363795757">
        <ele>0</ele>
        <time>2010-01-02T17:25:49Z</time>
      </trkpt>
      <trkpt lat="54.124942626804113" lon="10.436734780669212">
        <ele>0</ele>
        <time>2010-01-02T17:25:50Z</time>
      </trkpt>
      <trkpt lat="54.125046478584409" lon="10.436843326315284">
        <ele>0</ele>
        <time>2010-01-02T17:25:55Z</time>
      </trkpt>
      <trkpt lat="54.125164914876223" lon="10.436963690444827">
        <ele>0</ele>
        <time>2010-01-02T17:26:01Z</time>
      </trkpt>
      <trkpt lat="54.125252002850175" lon="10.437060752883554">
        <ele>0</ele>
        <time>2010-01-02T17:26:05Z</time>
      </trkpt>
      <trkpt lat="54.125303886830807" lon="10.437127389013767">
        <ele>0</ele>
        <time>2010-01-02T17:26:07Z</time>
      </trkpt>
      <trkpt lat="54.125380581244826" lon="10.43721741065383">
        <ele>0</ele>
        <time>2010-01-02T17:26:11Z</time>
      </trkpt>
      <trkpt lat="54.125511338934302" lon="10.437407679855824">
        <ele>0</ele>
        <time>2010-01-02T17:26:18Z</time>
      </trkpt>
      <trkpt lat="54.125688448548317" lon="10.437637092545629">
        <ele>0</ele>
        <time>2010-01-02T17:26:27Z</time>
      </trkpt>
      <trkpt lat="54.12583370693028" lon="10.43788536451757">
        <ele>0</ele>
        <time>2010-01-02T17:26:35Z</time>
      </trkpt>
      <trkpt lat="54.125979132950306" lon="10.438118381425738">
        <ele>0</ele>
        <time>2010-01-02T17:26:43Z</time>
      </trkpt>
      <trkpt lat="54.126031352207065" lon="10.438189040869474">
        <ele>0</ele>
        <time>2010-01-02T17:26:46Z</time>
      </trkpt>
      <trkpt lat="54.126104107126594" lon="10.438263388350606">
        <ele>0</ele>
        <time>2010-01-02T17:26:49Z</time>
      </trkpt>
      <trkpt lat="54.12617183290422" lon="10.438308566808701">
        <ele>0</ele>
        <time>2010-01-02T17:26:52Z</time>
      </trkpt>
      <trkpt lat="54.126252299174666" lon="10.43834812939167">
        <ele>0</ele>
        <time>2010-01-02T17:26:55Z</time>
      </trkpt>
      <trkpt lat="54.126310553401709" lon="10.438357768580317">
        <ele>0</ele>
        <time>2010-01-02T17:26:58Z</time>
      </trkpt>
      <trkpt lat="54.126322204247117" lon="10.438359696418047">
        <ele>0</ele>
        <time>2010-01-02T17:26:58Z</time>
      </trkpt>
      <trkpt lat="54.126368053257465" lon="10.438359780237079">
        <ele>0</ele>
        <time>2010-01-02T17:27:00Z</time>
      </trkpt>
      <trkpt lat="54.126424714922905" lon="10.438352571800351">
        <ele>0</ele>
        <time>2010-01-02T17:27:02Z</time>
      </trkpt>
      <trkpt lat="54.126498559489846" lon="10.438335221260786">
        <ele>0</ele>
        <time>2010-01-02T17:27:05Z</time>
      </trkpt>
      <trkpt lat="54.126582546159625" lon="10.438304459676147">
        <ele>0</ele>
        <time>2010-01-02T17:27:09Z</time>
      </trkpt>
      <trkpt lat="54.126684470102191" lon="10.438268249854445">
        <ele>0</ele>
        <time>2010-01-02T17:27:13Z</time>
      </trkpt>
      <trkpt lat="54.126780945807695" lon="10.438241008669138">
        <ele>0</ele>
        <time>2010-01-02T17:27:17Z</time>
      </trkpt>
      <trkpt lat="54.126819167286158" lon="10.438239248469472">
        <ele>0</ele>
        <time>2010-01-02T17:27:18Z</time>
      </trkpt>
      <trkpt lat="54.126894269138575" lon="10.43823572807014">
        <ele>0</ele>
        <time>2010-01-02T17:27:21Z</time>
      </trkpt>
      <trkpt lat="54.127008011564612" lon="10.43826112523675">
        <ele>0</ele>
        <time>2010-01-02T17:27:26Z</time>
      </trkpt>
      <trkpt lat="54.12711882032454" lon="10.438312338665128">
        <ele>0</ele>
        <time>2010-01-02T17:27:31Z</time>
      </trkpt>
      <trkpt lat="54.127247482538223" lon="10.438373442739248">
        <ele>0</ele>
        <time>2010-01-02T17:27:36Z</time>
      </trkpt>
      <trkpt lat="54.127419563010335" lon="10.438486430794001">
        <ele>0</ele>
        <time>2010-01-02T17:27:43Z</time>
      </trkpt>
      <trkpt lat="54.127580830827355" lon="10.438599167391658">
        <ele>0</ele>
        <time>2010-01-02T17:27:50Z</time>
      </trkpt>
      <trkpt lat="54.12775743752718" lon="10.438706204295158">
        <ele>0</ele>
        <time>2010-01-02T17:27:58Z</time>
      </trkpt>
      <trkpt lat="54.127936642616987" lon="10.438824137672782">
        <ele>0</ele>
        <time>2010-01-02T17:28:06Z</time>
      </trkpt>
      <trkpt lat="54.128109393641353" lon="10.438952464610338">
        <ele>0</ele>
        <time>2010-01-02T17:28:13Z</time>
      </trkpt>
      <trkpt lat="54.128150381147861" lon="10.438982974737883">
        <ele>0</ele>
        <time>2010-01-02T17:28:15Z</time>
      </trkpt>
      <trkpt lat="54.128376441076398" lon="10.43916217982769">
        <ele>0</ele>
        <time>2010-01-02T17:28:25Z</time>
      </trkpt>
      <trkpt lat="54.128463696688414" lon="10.439227893948555">
        <ele>0</ele>
        <time>2010-01-02T17:28:29Z</time>
      </trkpt>
      <trkpt lat="54.128546426072717" lon="10.439299643039703">
        <ele>0</ele>
        <time>2010-01-02T17:28:32Z</time>
      </trkpt>
      <trkpt lat="54.128647763282061" lon="10.43939184397459">
        <ele>0</ele>
        <time>2010-01-02T17:28:37Z</time>
      </trkpt>
      <trkpt lat="54.128751531243324" lon="10.439507095143199">
        <ele>0</ele>
        <time>2010-01-02T17:28:42Z</time>
      </trkpt>
      <trkpt lat="54.128860412165523" lon="10.439639445394278">
        <ele>0</ele>
        <time>2010-01-02T17:28:47Z</time>
      </trkpt>
      <trkpt lat="54.128954540938139" lon="10.439731394872069">
        <ele>0</ele>
        <time>2010-01-02T17:28:52Z</time>
      </trkpt>
      <trkpt lat="54.129045316949487" lon="10.439804904162884">
        <ele>0</ele>
        <time>2010-01-02T17:28:56Z</time>
      </trkpt>
      <trkpt lat="54.129177331924438" lon="10.439889058470726">
        <ele>0</ele>
        <time>2010-01-02T17:29:01Z</time>
      </trkpt>
      <trkpt lat="54.129307251423597" lon="10.439991485327482">
        <ele>0</ele>
        <time>2010-01-02T17:29:07Z</time>
      </trkpt>
      <trkpt lat="54.129461981356144" lon="10.440125344321132">
        <ele>0</ele>
        <time>2010-01-02T17:29:14Z</time>
      </trkpt>
      <trkpt lat="54.129539346322417" lon="10.440193824470043">
        <ele>0</ele>
        <time>2010-01-02T17:29:17Z</time>
      </trkpt>
      <trkpt lat="54.129602545872331" lon="10.440241936594248">
        <ele>0</ele>
        <time>2010-01-02T17:29:20Z</time>
      </trkpt>
      <trkpt lat="54.129674043506384" lon="10.440274961292744">
        <ele>0</ele>
        <time>2010-01-02T17:29:23Z</time>
      </trkpt>
      <trkpt lat="54.129778062924743" lon="10.440295413136482">
        <ele>0</ele>
        <time>2010-01-02T17:29:27Z</time>
      </trkpt>
      <trkpt lat="54.12999046035111" lon="10.440336484462023">
        <ele>0</ele>
        <time>2010-01-02T17:29:36Z</time>
      </trkpt>
      <trkpt lat="54.130176119506359" lon="10.440370431169868">
        <ele>0</ele>
        <time>2010-01-02T17:29:43Z</time>
      </trkpt>
      <trkpt lat="54.130253987386823" lon="10.440394571051002">
        <ele>0</ele>
        <time>2010-01-02T17:29:47Z</time>
      </trkpt>
      <trkpt lat="54.130341494455934" lon="10.44044042006135">
        <ele>0</ele>
        <time>2010-01-02T17:29:50Z</time>
      </trkpt>
      <trkpt lat="54.130440400913358" lon="10.440506637096405">
        <ele>0</ele>
        <time>2010-01-02T17:29:54Z</time>
      </trkpt>
      <trkpt lat="54.130468815565109" lon="10.440535135567188">
        <ele>0</ele>
        <time>2010-01-02T17:29:56Z</time>
      </trkpt>
      <trkpt lat="54.130559423938394" lon="10.440623899921775">
        <ele>0</ele>
        <time>2010-01-02T17:30:00Z</time>
      </trkpt>
      <trkpt lat="54.130745837464929" lon="10.440799919888377">
        <ele>0</ele>
        <time>2010-01-02T17:30:09Z</time>
      </trkpt>
      <trkpt lat="54.130781544372439" lon="10.440833615139127">
        <ele>0</ele>
        <time>2010-01-02T17:30:10Z</time>
      </trkpt>
      <trkpt lat="54.130962677299976" lon="10.441009718924761">
        <ele>0</ele>
        <time>2010-01-02T17:30:19Z</time>
      </trkpt>
      <trkpt lat="54.131124364212155" lon="10.441162185743451">
        <ele>0</ele>
        <time>2010-01-02T17:30:26Z</time>
      </trkpt>
      <trkpt lat="54.131297701969743" lon="10.441318172961473">
        <ele>0</ele>
        <time>2010-01-02T17:30:34Z</time>
      </trkpt>
      <trkpt lat="54.131320752203465" lon="10.441419929265976">
        <ele>0</ele>
        <time>2010-01-02T17:30:36Z</time>
      </trkpt>
      <trkpt lat="54.131332570686936" lon="10.441483044996858">
        <ele>0</ele>
        <time>2010-01-02T17:30:38Z</time>
      </trkpt>
      <trkpt lat="54.131348580121994" lon="10.441575413569808">
        <ele>0</ele>
        <time>2010-01-02T17:30:40Z</time>
      </trkpt>
      <trkpt lat="54.131365260109305" lon="10.441684629768133">
        <ele>0</ele>
        <time>2010-01-02T17:30:43Z</time>
      </trkpt>
      <trkpt lat="54.131374647840858" lon="10.441798120737076">
        <ele>0</ele>
        <time>2010-01-02T17:30:45Z</time>
      </trkpt>
      <trkpt lat="54.131374312564731" lon="10.441902223974466">
        <ele>0</ele>
        <time>2010-01-02T17:30:48Z</time>
      </trkpt>
      <trkpt lat="54.131366517394781" lon="10.442028874531388">
        <ele>0</ele>
        <time>2010-01-02T17:30:51Z</time>
      </trkpt>
      <trkpt lat="54.131349502131343" lon="10.442169019952416">
        <ele>0</ele>
        <time>2010-01-02T17:30:54Z</time>
      </trkpt>
      <trkpt lat="54.131328463554382" lon="10.442276978865266">
        <ele>0</ele>
        <time>2010-01-02T17:30:57Z</time>
      </trkpt>
      <trkpt lat="54.131287643685937" lon="10.442460626363754">
        <ele>0</ele>
        <time>2010-01-02T17:31:02Z</time>
      </trkpt>
      <trkpt lat="54.131267024204135" lon="10.442609908059239">
        <ele>0</ele>
        <time>2010-01-02T17:31:05Z</time>
      </trkpt>
      <trkpt lat="54.131264090538025" lon="10.442626588046551">
        <ele>0</ele>
        <time>2010-01-02T17:31:06Z</time>
      </trkpt>
      <trkpt lat="54.13125260733068" lon="10.442759273573756">
        <ele>0</ele>
        <time>2010-01-02T17:31:09Z</time>
      </trkpt>
      <trkpt lat="54.131252355873585" lon="10.442929090932012">
        <ele>0</ele>
        <time>2010-01-02T17:31:13Z</time>
      </trkpt>
      <trkpt lat="54.131254702806473" lon="10.443033194169402">
        <ele>0</ele>
        <time>2010-01-02T17:31:15Z</time>
      </trkpt>
      <trkpt lat="54.131264174357057" lon="10.443143751472235">
        <ele>0</ele>
        <time>2010-01-02T17:31:18Z</time>
      </trkpt>
      <trkpt lat="54.131282446905971" lon="10.443346258252859">
        <ele>0</ele>
        <time>2010-01-02T17:31:23Z</time>
      </trkpt>
      <trkpt lat="54.131346484646201" lon="10.443845735862851">
        <ele>0</ele>
        <time>2010-01-02T17:31:35Z</time>
      </trkpt>
      <trkpt lat="54.131423179060221" lon="10.444417549297214">
        <ele>0</ele>
        <time>2010-01-02T17:31:48Z</time>
      </trkpt>
      <trkpt lat="54.131464585661888" lon="10.444714268669486">
        <ele>0</ele>
        <time>2010-01-02T17:31:55Z</time>
      </trkpt>
      <trkpt lat="54.131501214578748" lon="10.444879224523902">
        <ele>0</ele>
        <time>2010-01-02T17:32:00Z</time>
      </trkpt>
      <trkpt lat="54.131532311439514" lon="10.444985926151276">
        <ele>0</ele>
        <time>2010-01-02T17:32:02Z</time>
      </trkpt>
      <trkpt lat="54.1315848659724" lon="10.445093298330903">
        <ele>0</ele>
        <time>2010-01-02T17:32:06Z</time>
      </trkpt>
      <trkpt lat="54.131622919812799" lon="10.445142081007361">
        <ele>0</ele>
        <time>2010-01-02T17:32:08Z</time>
      </trkpt>
      <trkpt lat="54.131671031937003" lon="10.445178877562284">
        <ele>0</ele>
        <time>2010-01-02T17:32:10Z</time>
      </trkpt>
      <trkpt lat="54.13174076937139" lon="10.445204274728894">
        <ele>0</ele>
        <time>2010-01-02T17:32:13Z</time>
      </trkpt>
      <trkpt lat="54.131873371079564" lon="10.445241071283817">
        <ele>0</ele>
        <time>2010-01-02T17:32:18Z</time>
      </trkpt>
      <trkpt lat="54.13196112960577" lon="10.445267055183649">
        <ele>0</ele>
        <time>2010-01-02T17:32:21Z</time>
      </trkpt>
      <trkpt lat="54.132061963900924" lon="10.445321034640074">
        <ele>0</ele>
        <time>2010-01-02T17:32:26Z</time>
      </trkpt>
      <trkpt lat="54.132162546738982" lon="10.445399489253759">
        <ele>0</ele>
        <time>2010-01-02T17:32:30Z</time>
      </trkpt>
      <trkpt lat="54.132262207567692" lon="10.44548406265676">
        <ele>0</ele>
        <time>2010-01-02T17:32:35Z</time>
      </trkpt>
      <trkpt lat="54.132366478443146" lon="10.445555057376623">
        <ele>0</ele>
        <time>2010-01-02T17:32:39Z</time>
      </trkpt>
      <trkpt lat="54.132463037967682" lon="10.44559202156961">
        <ele>0</ele>
        <time>2010-01-02T17:32:43Z</time>
      </trkpt>
      <trkpt lat="54.132593041285872" lon="10.445611886680126">
        <ele>0</ele>
        <time>2010-01-02T17:32:48Z</time>
      </trkpt>
      <trkpt lat="54.132687253877521" lon="10.445625884458423">
        <ele>0</ele>
        <time>2010-01-02T17:32:52Z</time>
      </trkpt>
      <trkpt lat="54.132783813402057" lon="10.445669051259756">
        <ele>0</ele>
        <time>2010-01-02T17:32:56Z</time>
      </trkpt>
      <trkpt lat="54.132863860577345" lon="10.445731496438384">
        <ele>0</ele>
        <time>2010-01-02T17:33:00Z</time>
      </trkpt>
      <trkpt lat="54.133004508912563" lon="10.445921514183283">
        <ele>0</ele>
        <time>2010-01-02T17:33:07Z</time>
      </trkpt>
      <trkpt lat="54.133084891363978" lon="10.446034418419003">
        <ele>0</ele>
        <time>2010-01-02T17:33:11Z</time>
      </trkpt>
      <trkpt lat="54.13315437734127" lon="10.446156207472086">
        <ele>0</ele>
        <time>2010-01-02T17:33:15Z</time>
      </trkpt>
      <trkpt lat="54.13323593325913" lon="10.446324348449707">
        <ele>0</ele>
        <time>2010-01-02T17:33:20Z</time>
      </trkpt>
      <trkpt lat="54.133365266025066" lon="10.446628695353866">
        <ele>0</ele>
        <time>2010-01-02T17:33:29Z</time>
      </trkpt>
      <trkpt lat="54.133433159440756" lon="10.446813097223639">
        <ele>0</ele>
        <time>2010-01-02T17:33:34Z</time>
      </trkpt>
      <trkpt lat="54.133468782529235" lon="10.446985764428973">
        <ele>0</ele>
        <time>2010-01-02T17:33:38Z</time>
      </trkpt>
      <trkpt lat="54.133495353162289" lon="10.447167232632637">
        <ele>0</ele>
        <time>2010-01-02T17:33:43Z</time>
      </trkpt>
      <trkpt lat="54.133527791127563" lon="10.447380971163511">
        <ele>0</ele>
        <time>2010-01-02T17:33:48Z</time>
      </trkpt>
      <trkpt lat="54.133540531620383" lon="10.447447272017598">
        <ele>0</ele>
        <time>2010-01-02T17:33:49Z</time>
      </trkpt>
      <trkpt lat="54.133558636531234" lon="10.447509046643972">
        <ele>0</ele>
        <time>2010-01-02T17:33:51Z</time>
      </trkpt>
      <trkpt lat="54.133586632087827" lon="10.447569731622934">
        <ele>0</ele>
        <time>2010-01-02T17:33:53Z</time>
      </trkpt>
      <trkpt lat="54.133625356480479" lon="10.447635361924767">
        <ele>0</ele>
        <time>2010-01-02T17:33:55Z</time>
      </trkpt>
      <trkpt lat="54.133673971518874" lon="10.447702836245298">
        <ele>0</ele>
        <time>2010-01-02T17:33:58Z</time>
      </trkpt>
      <trkpt lat="54.13373239338398" lon="10.4477752558887">
        <ele>0</ele>
        <time>2010-01-02T17:34:00Z</time>
      </trkpt>
      <trkpt lat="54.133777488023043" lon="10.447841053828597">
        <ele>0</ele>
        <time>2010-01-02T17:34:03Z</time>
      </trkpt>
      <trkpt lat="54.133816044777632" lon="10.447918921709061">
        <ele>0</ele>
        <time>2010-01-02T17:34:05Z</time>
      </trkpt>
      <trkpt lat="54.133858708664775" lon="10.448030568659306">
        <ele>0</ele>
        <time>2010-01-02T17:34:08Z</time>
      </trkpt>
      <trkpt lat="54.13400262594223" lon="10.448390571400523">
        <ele>0</ele>
        <time>2010-01-02T17:34:19Z</time>
      </trkpt>
      <trkpt lat="54.134131539613008" lon="10.448731631040573">
        <ele>0</ele>
        <time>2010-01-02T17:34:28Z</time>
      </trkpt>
      <trkpt lat="54.134232206270099" lon="10.449028937146068">
        <ele>0</ele>
        <time>2010-01-02T17:34:36Z</time>
      </trkpt>
      <trkpt lat="54.134350391104817" lon="10.449358932673931">
        <ele>0</ele>
        <time>2010-01-02T17:34:45Z</time>
      </trkpt>
      <trkpt lat="54.134445860981941" lon="10.449637714773417">
        <ele>0</ele>
        <time>2010-01-02T17:34:53Z</time>
      </trkpt>
      <trkpt lat="54.134552227333188" lon="10.449907695874572">
        <ele>0</ele>
        <time>2010-01-02T17:35:00Z</time>
      </trkpt>
      <trkpt lat="54.134651971980929" lon="10.450204918161035">
        <ele>0</ele>
        <time>2010-01-02T17:35:08Z</time>
      </trkpt>
      <trkpt lat="54.134678626433015" lon="10.45030533336103">
        <ele>0</ele>
        <time>2010-01-02T17:35:11Z</time>
      </trkpt>
      <trkpt lat="54.134700670838356" lon="10.450411615893245">
        <ele>0</ele>
        <time>2010-01-02T17:35:14Z</time>
      </trkpt>
      <trkpt lat="54.134711232036352" lon="10.450505325570703">
        <ele>0</ele>
        <time>2010-01-02T17:35:16Z</time>
      </trkpt>
      <trkpt lat="54.134721541777253" lon="10.450770361348987">
        <ele>0</ele>
        <time>2010-01-02T17:35:22Z</time>
      </trkpt>
      <trkpt lat="54.134730258956552" lon="10.450868597254157">
        <ele>0</ele>
        <time>2010-01-02T17:35:24Z</time>
      </trkpt>
      <trkpt lat="54.134743502363563" lon="10.450963983312249">
        <ele>0</ele>
        <time>2010-01-02T17:35:27Z</time>
      </trkpt>
      <trkpt lat="54.134763199836016" lon="10.45104268938303">
        <ele>0</ele>
        <time>2010-01-02T17:35:29Z</time>
      </trkpt>
      <trkpt lat="54.13478834554553" lon="10.451115444302559">
        <ele>0</ele>
        <time>2010-01-02T17:35:31Z</time>
      </trkpt>
      <trkpt lat="54.134816257283092" lon="10.45118685811758">
        <ele>0</ele>
        <time>2010-01-02T17:35:33Z</time>
      </trkpt>
      <trkpt lat="54.134862776845694" lon="10.451275706291199">
        <ele>0</ele>
        <time>2010-01-02T17:35:36Z</time>
      </trkpt>
      <trkpt lat="54.134950116276741" lon="10.451408810913563">
        <ele>0</ele>
        <time>2010-01-02T17:35:40Z</time>
      </trkpt>
      <trkpt lat="54.135016584768891" lon="10.451484583318233">
        <ele>0</ele>
        <time>2010-01-02T17:35:43Z</time>
      </trkpt>
      <trkpt lat="54.135055895894766" lon="10.451529258862138">
        <ele>0</ele>
        <time>2010-01-02T17:35:45Z</time>
      </trkpt>
      <trkpt lat="54.135136194527149" lon="10.451576448976994">
        <ele>0</ele>
        <time>2010-01-02T17:35:49Z</time>
      </trkpt>
      <trkpt lat="54.135160334408283" lon="10.45160754583776">
        <ele>0</ele>
        <time>2010-01-02T17:35:50Z</time>
      </trkpt>
      <trkpt lat="54.135191179811954" lon="10.451668314635754">
        <ele>0</ele>
        <time>2010-01-02T17:35:52Z</time>
      </trkpt>
      <trkpt lat="54.13523836992681" lon="10.451784403994679">
        <ele>0</ele>
        <time>2010-01-02T17:35:55Z</time>
      </trkpt>
      <trkpt lat="54.135354962199926" lon="10.452102916315198">
        <ele>0</ele>
        <time>2010-01-02T17:36:04Z</time>
      </trkpt>
      <trkpt lat="54.135451102629304" lon="10.452364264056087">
        <ele>0</ele>
        <time>2010-01-02T17:36:11Z</time>
      </trkpt>
      <trkpt lat="54.135537436231971" lon="10.452627371996641">
        <ele>0</ele>
        <time>2010-01-02T17:36:18Z</time>
      </trkpt>
      <trkpt lat="54.135604910552502" lon="10.452858041971922">
        <ele>0</ele>
        <time>2010-01-02T17:36:24Z</time>
      </trkpt>
      <trkpt lat="54.135708175599575" lon="10.453312257304788">
        <ele>0</ele>
        <time>2010-01-02T17:36:36Z</time>
      </trkpt>
      <trkpt lat="54.135727621614933" lon="10.453375373035669">
        <ele>0</ele>
        <time>2010-01-02T17:36:37Z</time>
      </trkpt>
      <trkpt lat="54.135753940790892" lon="10.453413594514132">
        <ele>0</ele>
        <time>2010-01-02T17:36:39Z</time>
      </trkpt>
      <trkpt lat="54.135785708203912" lon="10.453443014994264">
        <ele>0</ele>
        <time>2010-01-02T17:36:40Z</time>
      </trkpt>
      <trkpt lat="54.135844130069017" lon="10.453468495979905">
        <ele>0</ele>
        <time>2010-01-02T17:36:43Z</time>
      </trkpt>
      <trkpt lat="54.135997770354152" lon="10.453448630869389">
        <ele>0</ele>
        <time>2010-01-02T17:36:49Z</time>
      </trkpt>
      <trkpt lat="54.136311840265989" lon="10.453343521803617">
        <ele>0</ele>
        <time>2010-01-02T17:37:02Z</time>
      </trkpt>
      <trkpt lat="54.136547958478332" lon="10.453263139352202">
        <ele>0</ele>
        <time>2010-01-02T17:37:11Z</time>
      </trkpt>
      <trkpt lat="54.136711992323399" lon="10.453207148239017">
        <ele>0</ele>
        <time>2010-01-02T17:37:18Z</time>
      </trkpt>
      <trkpt lat="54.13674627430737" lon="10.453194575384259">
        <ele>0</ele>
        <time>2010-01-02T17:37:19Z</time>
      </trkpt>
      <trkpt lat="54.136780556291342" lon="10.453183511272073">
        <ele>0</ele>
        <time>2010-01-02T17:37:21Z</time>
      </trkpt>
      <trkpt lat="54.136818526312709" lon="10.453163394704461">
        <ele>0</ele>
        <time>2010-01-02T17:37:22Z</time>
      </trkpt>
      <trkpt lat="54.136852221563458" lon="10.453126346692443">
        <ele>0</ele>
        <time>2010-01-02T17:37:24Z</time>
      </trkpt>
      <trkpt lat="54.136883150786161" lon="10.453096842393279">
        <ele>0</ele>
        <time>2010-01-02T17:37:25Z</time>
      </trkpt>
      <trkpt lat="54.136919276788831" lon="10.453078150749207">
        <ele>0</ele>
        <time>2010-01-02T17:37:27Z</time>
      </trkpt>
      <trkpt lat="54.136947356164455" lon="10.453062308952212">
        <ele>0</ele>
        <time>2010-01-02T17:37:28Z</time>
      </trkpt>
      <trkpt lat="54.136985158547759" lon="10.453051412478089">
        <ele>0</ele>
        <time>2010-01-02T17:37:30Z</time>
      </trkpt>
      <trkpt lat="54.137021200731397" lon="10.453048059716821">
        <ele>0</ele>
        <time>2010-01-02T17:37:31Z</time>
      </trkpt>
      <trkpt lat="54.137091860175133" lon="10.45307194814086">
        <ele>0</ele>
        <time>2010-01-02T17:37:34Z</time>
      </trkpt>
      <trkpt lat="54.137010807171464" lon="10.452787633985281">
        <ele>0</ele>
        <time>2010-01-02T17:37:41Z</time>
      </trkpt>
      <trkpt lat="54.136919109150767" lon="10.452426373958588">
        <ele>0</ele>
        <time>2010-01-02T17:37:51Z</time>
      </trkpt>
      <trkpt lat="54.136873092502356" lon="10.452212048694491">
        <ele>0</ele>
        <time>2010-01-02T17:37:56Z</time>
      </trkpt>
      <trkpt lat="54.136855490505695" lon="10.452113477513194">
        <ele>0</ele>
        <time>2010-01-02T17:37:58Z</time>
      </trkpt>
      <trkpt lat="54.136804696172476" lon="10.451704692095518">
        <ele>0</ele>
        <time>2010-01-02T17:38:08Z</time>
      </trkpt>
      <trkpt lat="54.136753985658288" lon="10.451286770403385">
        <ele>0</ele>
        <time>2010-01-02T17:38:18Z</time>
      </trkpt>
      <trkpt lat="54.136709561571479" lon="10.451023578643799">
        <ele>0</ele>
        <time>2010-01-02T17:38:25Z</time>
      </trkpt>
      <trkpt lat="54.136639991775155" lon="10.450611021369696">
        <ele>0</ele>
        <time>2010-01-02T17:38:35Z</time>
      </trkpt>
      <trkpt lat="54.136620545759797" lon="10.450507840141654">
        <ele>0</ele>
        <time>2010-01-02T17:38:37Z</time>
      </trkpt>
      <trkpt lat="54.136600093916059" lon="10.45041530393064">
        <ele>0</ele>
        <time>2010-01-02T17:38:40Z</time>
      </trkpt>
      <trkpt lat="54.13658794015646" lon="10.450307764112949">
        <ele>0</ele>
        <time>2010-01-02T17:38:42Z</time>
      </trkpt>
      <trkpt lat="54.136580731719732" lon="10.450160661712289">
        <ele>0</ele>
        <time>2010-01-02T17:38:46Z</time>
      </trkpt>
      <trkpt lat="54.13659917190671" lon="10.44960125349462">
        <ele>0</ele>
        <time>2010-01-02T17:38:59Z</time>
      </trkpt>
      <trkpt lat="54.136613924056292" lon="10.449118288233876">
        <ele>0</ele>
        <time>2010-01-02T17:39:10Z</time>
      </trkpt>
      <trkpt lat="54.136629346758127" lon="10.448434827849269">
        <ele>0</ele>
        <time>2010-01-02T17:39:26Z</time>
      </trkpt>
      <trkpt lat="54.136630771681666" lon="10.448320079594851">
        <ele>0</ele>
        <time>2010-01-02T17:39:29Z</time>
      </trkpt>
      <trkpt lat="54.136634459719062" lon="10.448232991620898">
        <ele>0</ele>
        <time>2010-01-02T17:39:31Z</time>
      </trkpt>
      <trkpt lat="54.136640075594187" lon="10.448141377419233">
        <ele>0</ele>
        <time>2010-01-02T17:39:33Z</time>
      </trkpt>
      <trkpt lat="54.1366480384022" lon="10.448074406012893">
        <ele>0</ele>
        <time>2010-01-02T17:39:35Z</time>
      </trkpt>
      <trkpt lat="54.136661197990179" lon="10.448030484840274">
        <ele>0</ele>
        <time>2010-01-02T17:39:36Z</time>
      </trkpt>
      <trkpt lat="54.136679889634252" lon="10.447966866195202">
        <ele>0</ele>
        <time>2010-01-02T17:39:37Z</time>
      </trkpt>
      <trkpt lat="54.136725822463632" lon="10.447807777673006">
        <ele>0</ele>
        <time>2010-01-02T17:39:42Z</time>
      </trkpt>
      <trkpt lat="54.136824309825897" lon="10.447468478232622">
        <ele>0</ele>
        <time>2010-01-02T17:39:50Z</time>
      </trkpt>
      <trkpt lat="54.136834535747766" lon="10.447435118257999">
        <ele>0</ele>
        <time>2010-01-02T17:39:51Z</time>
      </trkpt>
      <trkpt lat="54.136839481070638" lon="10.447401674464345">
        <ele>0</ele>
        <time>2010-01-02T17:39:52Z</time>
      </trkpt>
      <trkpt lat="54.136839061975479" lon="10.447358842939138">
        <ele>0</ele>
        <time>2010-01-02T17:39:53Z</time>
      </trkpt>
      <trkpt lat="54.13683176971972" lon="10.447292793542147">
        <ele>0</ele>
        <time>2010-01-02T17:39:55Z</time>
      </trkpt>
      <trkpt lat="54.13679514080286" lon="10.447123143821955">
        <ele>0</ele>
        <time>2010-01-02T17:39:59Z</time>
      </trkpt>
      <trkpt lat="54.13672674447298" lon="10.446836147457361">
        <ele>0</ele>
        <time>2010-01-02T17:40:06Z</time>
      </trkpt>
      <trkpt lat="54.136650720611215" lon="10.446437252685428">
        <ele>0</ele>
        <time>2010-01-02T17:40:16Z</time>
      </trkpt>
      <trkpt lat="54.136847862973809" lon="10.446627689525485">
        <ele>0</ele>
        <time>2010-01-02T17:40:25Z</time>
      </trkpt>
      <trkpt lat="54.137039221823215" lon="10.446778228506446">
        <ele>0</ele>
        <time>2010-01-02T17:40:34Z</time>
      </trkpt>
      <trkpt lat="54.137116083875299" lon="10.446829693391919">
        <ele>0</ele>
        <time>2010-01-02T17:40:37Z</time>
      </trkpt>
      <trkpt lat="54.13727986626327" lon="10.44693966396153">
        <ele>0</ele>
        <time>2010-01-02T17:40:44Z</time>
      </trkpt>
      <trkpt lat="54.13750265724957" lon="10.447092801332474">
        <ele>0</ele>
        <time>2010-01-02T17:40:54Z</time>
      </trkpt>
      <trkpt lat="54.137630229815841" lon="10.447170669212937">
        <ele>0</ele>
        <time>2010-01-02T17:40:59Z</time>
      </trkpt>
      <trkpt lat="54.137840699404478" lon="10.447298912331462">
        <ele>0</ele>
        <time>2010-01-02T17:41:08Z</time>
      </trkpt>
      <trkpt lat="54.138405388221145" lon="10.447636870667338">
        <ele>0</ele>
        <time>2010-01-02T17:41:32Z</time>
      </trkpt>
      <trkpt lat="54.138658018782735" lon="10.447777267545462">
        <ele>0</ele>
        <time>2010-01-02T17:41:42Z</time>
      </trkpt>
      <trkpt lat="54.138763295486569" lon="10.447836024686694">
        <ele>0</ele>
        <time>2010-01-02T17:41:47Z</time>
      </trkpt>
      <trkpt lat="54.138832949101925" lon="10.447875168174505">
        <ele>0</ele>
        <time>2010-01-02T17:41:50Z</time>
      </trkpt>
      <trkpt lat="54.138961443677545" lon="10.447948509827256">
        <ele>0</ele>
        <time>2010-01-02T17:41:55Z</time>
      </trkpt>
      <trkpt lat="54.139007795602083" lon="10.447974661365151">
        <ele>0</ele>
        <time>2010-01-02T17:41:57Z</time>
      </trkpt>
      <trkpt lat="54.139125645160675" lon="10.448041465133429">
        <ele>0</ele>
        <time>2010-01-02T17:42:02Z</time>
      </trkpt>
      <trkpt lat="54.139265455305576" lon="10.448142802342772">
        <ele>0</ele>
        <time>2010-01-02T17:42:08Z</time>
      </trkpt>
      <trkpt lat="54.139446755871177" lon="10.448308261111379">
        <ele>0</ele>
        <time>2010-01-02T17:42:17Z</time>
      </trkpt>
      <trkpt lat="54.139731153845787" lon="10.448566088452935">
        <ele>0</ele>
        <time>2010-01-02T17:42:29Z</time>
      </trkpt>
      <trkpt lat="54.139781361445785" lon="10.448623420670629">
        <ele>0</ele>
        <time>2010-01-02T17:42:32Z</time>
      </trkpt>
      <trkpt lat="54.139812709763646" lon="10.448659211397171">
        <ele>0</ele>
        <time>2010-01-02T17:42:33Z</time>
      </trkpt>
      <trkpt lat="54.139841878786683" lon="10.448693912476301">
        <ele>0</ele>
        <time>2010-01-02T17:42:35Z</time>
      </trkpt>
      <trkpt lat="54.139871969819069" lon="10.448739342391491">
        <ele>0</ele>
        <time>2010-01-02T17:42:36Z</time>
      </trkpt>
      <trkpt lat="54.139901138842106" lon="10.448778569698334">
        <ele>0</ele>
        <time>2010-01-02T17:42:38Z</time>
      </trkpt>
      <trkpt lat="54.139959393069148" lon="10.448863310739398">
        <ele>0</ele>
        <time>2010-01-02T17:42:41Z</time>
      </trkpt>
      <trkpt lat="54.139969618991017" lon="10.448878649622202">
        <ele>0</ele>
        <time>2010-01-02T17:42:41Z</time>
      </trkpt>
      <trkpt lat="54.140018569305539" lon="10.448952578008175">
        <ele>0</ele>
        <time>2010-01-02T17:42:44Z</time>
      </trkpt>
      <trkpt lat="54.140100460499525" lon="10.449090041220188">
        <ele>0</ele>
        <time>2010-01-02T17:42:49Z</time>
      </trkpt>
      <trkpt lat="54.140186794102192" lon="10.44923085719347">
        <ele>0</ele>
        <time>2010-01-02T17:42:53Z</time>
      </trkpt>
      <trkpt lat="54.140282431617379" lon="10.449351975694299">
        <ele>0</ele>
        <time>2010-01-02T17:42:58Z</time>
      </trkpt>
      <trkpt lat="54.141068235039711" lon="10.450274655595422">
        <ele>0</ele>
        <time>2010-01-02T17:43:36Z</time>
      </trkpt>
      <trkpt lat="54.141164878383279" lon="10.450383620336652">
        <ele>0</ele>
        <time>2010-01-02T17:43:41Z</time>
      </trkpt>
      <trkpt lat="54.141246685758233" lon="10.450456878170371">
        <ele>0</ele>
        <time>2010-01-02T17:43:45Z</time>
      </trkpt>
      <trkpt lat="54.141279710456729" lon="10.450468780472875">
        <ele>0</ele>
        <time>2010-01-02T17:43:46Z</time>
      </trkpt>
      <trkpt lat="54.141303850337863" lon="10.450480347499251">
        <ele>0</ele>
        <time>2010-01-02T17:43:47Z</time>
      </trkpt>
      <trkpt lat="54.141352297738194" lon="10.450489651411772">
        <ele>0</ele>
        <time>2010-01-02T17:43:49Z</time>
      </trkpt>
      <trkpt lat="54.141398062929511" lon="10.450491243973374">
        <ele>0</ele>
        <time>2010-01-02T17:43:51Z</time>
      </trkpt>
      <trkpt lat="54.141459250822663" lon="10.450488813221455">
        <ele>0</ele>
        <time>2010-01-02T17:43:53Z</time>
      </trkpt>
      <trkpt lat="54.141584392637014" lon="10.450465595349669">
        <ele>0</ele>
        <time>2010-01-02T17:43:58Z</time>
      </trkpt>
      <trkpt lat="54.142845366150141" lon="10.450206678360701">
        <ele>0</ele>
        <time>2010-01-02T17:44:49Z</time>
      </trkpt>
      <trkpt lat="54.143068660050631" lon="10.450173234567046">
        <ele>0</ele>
        <time>2010-01-02T17:44:58Z</time>
      </trkpt>
      <trkpt lat="54.143181145191193" lon="10.450160326436162">
        <ele>0</ele>
        <time>2010-01-02T17:45:03Z</time>
      </trkpt>
      <trkpt lat="54.143272927030921" lon="10.450145155191422">
        <ele>0</ele>
        <time>2010-01-02T17:45:06Z</time>
      </trkpt>
      <trkpt lat="54.143387172371149" lon="10.450135348364711">
        <ele>0</ele>
        <time>2010-01-02T17:45:11Z</time>
      </trkpt>
      <trkpt lat="54.14386267773807" lon="10.450121350586414">
        <ele>0</ele>
        <time>2010-01-02T17:45:30Z</time>
      </trkpt>
      <trkpt lat="54.143920177593827" lon="10.450118836015463">
        <ele>0</ele>
        <time>2010-01-02T17:45:32Z</time>
      </trkpt>
      <trkpt lat="54.143980275839567" lon="10.450123948976398">
        <ele>0</ele>
        <time>2010-01-02T17:45:35Z</time>
      </trkpt>
      <trkpt lat="54.144024280831218" lon="10.450131660327315">
        <ele>0</ele>
        <time>2010-01-02T17:45:36Z</time>
      </trkpt>
      <trkpt lat="54.144084881991148" lon="10.450167451053858">
        <ele>0</ele>
        <time>2010-01-02T17:45:39Z</time>
      </trkpt>
      <trkpt lat="54.144116146489978" lon="10.450182287022471">
        <ele>0</ele>
        <time>2010-01-02T17:45:40Z</time>
      </trkpt>
      <trkpt lat="54.144158056005836" lon="10.450214389711618">
        <ele>0</ele>
        <time>2010-01-02T17:45:42Z</time>
      </trkpt>
      <trkpt lat="54.144886946305633" lon="10.450790813192725">
        <ele>0</ele>
        <time>2010-01-02T17:46:14Z</time>
      </trkpt>
      <trkpt lat="54.145259857177734" lon="10.451085437089205">
        <ele>0</ele>
        <time>2010-01-02T17:46:31Z</time>
      </trkpt>
      <trkpt lat="54.145362200215459" lon="10.451165568083525">
        <ele>0</ele>
        <time>2010-01-02T17:46:35Z</time>
      </trkpt>
      <trkpt lat="54.145449539646506" lon="10.451225247234106">
        <ele>0</ele>
        <time>2010-01-02T17:46:39Z</time>
      </trkpt>
      <trkpt lat="54.145518355071545" lon="10.451255170628428">
        <ele>0</ele>
        <time>2010-01-02T17:46:42Z</time>
      </trkpt>
      <trkpt lat="54.14559630677104" lon="10.451277801766992">
        <ele>0</ele>
        <time>2010-01-02T17:46:45Z</time>
      </trkpt>
      <trkpt lat="54.145667050033808" lon="10.451294062659144">
        <ele>0</ele>
        <time>2010-01-02T17:46:48Z</time>
      </trkpt>
      <trkpt lat="54.145737960934639" lon="10.451302696019411">
        <ele>0</ele>
        <time>2010-01-02T17:46:51Z</time>
      </trkpt>
      <trkpt lat="54.145868048071861" lon="10.451316358521581">
        <ele>0</ele>
        <time>2010-01-02T17:46:56Z</time>
      </trkpt>
      <trkpt lat="54.145961590111256" lon="10.451317951083183">
        <ele>0</ele>
        <time>2010-01-02T17:47:00Z</time>
      </trkpt>
      <trkpt lat="54.146010037511587" lon="10.4513187892735">
        <ele>0</ele>
        <time>2010-01-02T17:47:02Z</time>
      </trkpt>
      <trkpt lat="54.146036021411419" lon="10.451319208368659">
        <ele>0</ele>
        <time>2010-01-02T17:47:03Z</time>
      </trkpt>
      <trkpt lat="54.14610156789422" lon="10.451323064044118">
        <ele>0</ele>
        <time>2010-01-02T17:47:05Z</time>
      </trkpt>
      <trkpt lat="54.146342631429434" lon="10.451300852000713">
        <ele>0</ele>
        <time>2010-01-02T17:47:15Z</time>
      </trkpt>
      <trkpt lat="54.146699700504541" lon="10.451272018253803">
        <ele>0</ele>
        <time>2010-01-02T17:47:29Z</time>
      </trkpt>
      <trkpt lat="54.146739766001701" lon="10.451265145093203">
        <ele>0</ele>
        <time>2010-01-02T17:47:31Z</time>
      </trkpt>
      <trkpt lat="54.147040927782655" lon="10.451213596388698">
        <ele>0</ele>
        <time>2010-01-02T17:47:43Z</time>
      </trkpt>
      <trkpt lat="54.147457173094153" lon="10.451120976358652">
        <ele>0</ele>
        <time>2010-01-02T17:48:00Z</time>
      </trkpt>
      <trkpt lat="54.147466141730547" lon="10.451119802892208">
        <ele>0</ele>
        <time>2010-01-02T17:48:00Z</time>
      </trkpt>
      <trkpt lat="54.148099143058062" lon="10.451008742675185">
        <ele>0</ele>
        <time>2010-01-02T17:48:26Z</time>
      </trkpt>
      <trkpt lat="54.148161252960563" lon="10.451000276952982">
        <ele>0</ele>
        <time>2010-01-02T17:48:28Z</time>
      </trkpt>
      <trkpt lat="54.148220513015985" lon="10.451006898656487">
        <ele>0</ele>
        <time>2010-01-02T17:48:31Z</time>
      </trkpt>
      <trkpt lat="54.148277929052711" lon="10.451013520359993">
        <ele>0</ele>
        <time>2010-01-02T17:48:33Z</time>
      </trkpt>
      <trkpt lat="54.148337859660387" lon="10.451033972203732">
        <ele>0</ele>
        <time>2010-01-02T17:48:35Z</time>
      </trkpt>
      <trkpt lat="54.148395108059049" lon="10.451057441532612">
        <ele>0</ele>
        <time>2010-01-02T17:48:38Z</time>
      </trkpt>
      <trkpt lat="54.148445064201951" lon="10.45108518563211">
        <ele>0</ele>
        <time>2010-01-02T17:48:40Z</time>
      </trkpt>
      <trkpt lat="54.148467946797609" lon="10.451103709638119">
        <ele>0</ele>
        <time>2010-01-02T17:48:41Z</time>
      </trkpt>
      <trkpt lat="54.148519830778241" lon="10.451145954430103">
        <ele>0</ele>
        <time>2010-01-02T17:48:43Z</time>
      </trkpt>
      <trkpt lat="54.148942781612277" lon="10.45155867934227">
        <ele>0</ele>
        <time>2010-01-02T17:49:03Z</time>
      </trkpt>
      <trkpt lat="54.149024002254009" lon="10.451638055965304">
        <ele>0</ele>
        <time>2010-01-02T17:49:06Z</time>
      </trkpt>
      <trkpt lat="54.149206224828959" lon="10.451815836131573">
        <ele>0</ele>
        <time>2010-01-02T17:49:15Z</time>
      </trkpt>
      <trkpt lat="54.149418538436294" lon="10.452022282406688">
        <ele>0</ele>
        <time>2010-01-02T17:49:24Z</time>
      </trkpt>
      <trkpt lat="54.149447791278362" lon="10.452053882181644">
        <ele>0</ele>
        <time>2010-01-02T17:49:26Z</time>
      </trkpt>
      <trkpt lat="54.149482324719429" lon="10.452094953507185">
        <ele>0</ele>
        <time>2010-01-02T17:49:28Z</time>
      </trkpt>
      <trkpt lat="54.149511577561498" lon="10.452128062024713">
        <ele>0</ele>
        <time>2010-01-02T17:49:29Z</time>
      </trkpt>
      <trkpt lat="54.149538818746805" lon="10.452179526910186">
        <ele>0</ele>
        <time>2010-01-02T17:49:31Z</time>
      </trkpt>
      <trkpt lat="54.149559773504734" lon="10.452227722853422">
        <ele>0</ele>
        <time>2010-01-02T17:49:32Z</time>
      </trkpt>
      <trkpt lat="54.149602437391877" lon="10.452339453622699">
        <ele>0</ele>
        <time>2010-01-02T17:49:35Z</time>
      </trkpt>
      <trkpt lat="54.15088377892971" lon="10.450916457921267">
        <ele>0</ele>
        <time>2010-01-02T17:50:36Z</time>
      </trkpt>
      <trkpt lat="54.150998946279287" lon="10.450833225622773">
        <ele>0</ele>
        <time>2010-01-02T17:50:41Z</time>
      </trkpt>
      <trkpt lat="54.151100283488631" lon="10.45077245682478">
        <ele>0</ele>
        <time>2010-01-02T17:50:46Z</time>
      </trkpt>
      <trkpt lat="54.151254007592797" lon="10.450690565630794">
        <ele>0</ele>
        <time>2010-01-02T17:50:52Z</time>
      </trkpt>
      <trkpt lat="54.151351740583777" lon="10.450638933107257">
        <ele>0</ele>
        <time>2010-01-02T17:50:56Z</time>
      </trkpt>
      <trkpt lat="54.151459196582437" lon="10.450590653344989">
        <ele>0</ele>
        <time>2010-01-02T17:51:01Z</time>
      </trkpt>
      <trkpt lat="54.151576543226838" lon="10.450548827648163">
        <ele>0</ele>
        <time>2010-01-02T17:51:05Z</time>
      </trkpt>
      <trkpt lat="54.151683915406466" lon="10.450511276721954">
        <ele>0</ele>
        <time>2010-01-02T17:51:10Z</time>
      </trkpt>
      <trkpt lat="54.151804782450199" lon="10.450471043586731">
        <ele>0</ele>
        <time>2010-01-02T17:51:15Z</time>
      </trkpt>
      <trkpt lat="54.151946352794766" lon="10.45042703859508">
        <ele>0</ele>
        <time>2010-01-02T17:51:20Z</time>
      </trkpt>
      <trkpt lat="54.152110302820802" lon="10.450391415506601">
        <ele>0</ele>
        <time>2010-01-02T17:51:27Z</time>
      </trkpt>
      <trkpt lat="54.15222748182714" lon="10.450358809903264">
        <ele>0</ele>
        <time>2010-01-02T17:51:32Z</time>
      </trkpt>
      <trkpt lat="54.152380786836147" lon="10.450313631445169">
        <ele>0</ele>
        <time>2010-01-02T17:51:38Z</time>
      </trkpt>
      <trkpt lat="54.152552280575037" lon="10.450249258428812">
        <ele>0</ele>
        <time>2010-01-02T17:51:45Z</time>
      </trkpt>
      <trkpt lat="54.152697706595063" lon="10.450185472145677">
        <ele>0</ele>
        <time>2010-01-02T17:51:51Z</time>
      </trkpt>
      <trkpt lat="54.152742885053158" lon="10.45016560703516">
        <ele>0</ele>
        <time>2010-01-02T17:51:53Z</time>
      </trkpt>
      <trkpt lat="54.152906583622098" lon="10.450077932327986">
        <ele>0</ele>
        <time>2010-01-02T17:52:00Z</time>
      </trkpt>
      <trkpt lat="54.152924688532948" lon="10.45006787404418">
        <ele>0</ele>
        <time>2010-01-02T17:52:01Z</time>
      </trkpt>
      <trkpt lat="54.153084782883525" lon="10.449980115517974">
        <ele>0</ele>
        <time>2010-01-02T17:52:07Z</time>
      </trkpt>
      <trkpt lat="54.153183354064822" lon="10.449923872947693">
        <ele>0</ele>
        <time>2010-01-02T17:52:12Z</time>
      </trkpt>
      <trkpt lat="54.153218725696206" lon="10.449900571256876">
        <ele>0</ele>
        <time>2010-01-02T17:52:13Z</time>
      </trkpt>
      <trkpt lat="54.15329659357667" lon="10.449849776923656">
        <ele>0</ele>
        <time>2010-01-02T17:52:16Z</time>
      </trkpt>
      <trkpt lat="54.153347052633762" lon="10.449815494939685">
        <ele>0</ele>
        <time>2010-01-02T17:52:19Z</time>
      </trkpt>
      <trkpt lat="54.153406228870153" lon="10.449775513261557">
        <ele>0</ele>
        <time>2010-01-02T17:52:21Z</time>
      </trkpt>
      <trkpt lat="54.15348862297833" lon="10.449717175215483">
        <ele>0</ele>
        <time>2010-01-02T17:52:25Z</time>
      </trkpt>
      <trkpt lat="54.153523072600365" lon="10.449692364782095">
        <ele>0</ele>
        <time>2010-01-02T17:52:26Z</time>
      </trkpt>
      <trkpt lat="54.153575710952282" lon="10.449651293456554">
        <ele>0</ele>
        <time>2010-01-02T17:52:28Z</time>
      </trkpt>
      <trkpt lat="54.153610160574317" lon="10.449623465538025">
        <ele>0</ele>
        <time>2010-01-02T17:52:30Z</time>
      </trkpt>
      <trkpt lat="54.153632875531912" lon="10.449604354798794">
        <ele>0</ele>
        <time>2010-01-02T17:52:31Z</time>
      </trkpt>
      <trkpt lat="54.153721891343594" lon="10.449521709233522">
        <ele>0</ele>
        <time>2010-01-02T17:52:35Z</time>
      </trkpt>
      <trkpt lat="54.153819205239415" lon="10.449424060061574">
        <ele>0</ele>
        <time>2010-01-02T17:52:40Z</time>
      </trkpt>
      <trkpt lat="54.153762040659785" lon="10.449214847758412">
        <ele>0</ele>
        <time>2010-01-02T18:05:44Z</time>
      </trkpt>
      <trkpt lat="54.153717951849103" lon="10.449186181649566">
        <ele>0</ele>
        <time>2010-01-02T18:05:42Z</time>
      </trkpt>
      <trkpt lat="54.153665732592344" lon="10.449117198586464">
        <ele>0</ele>
        <time>2010-01-02T18:05:40Z</time>
      </trkpt>
      <trkpt lat="54.153576884418726" lon="10.448932377621531">
        <ele>0</ele>
        <time>2010-01-02T18:05:34Z</time>
      </trkpt>
      <trkpt lat="54.153321990743279" lon="10.448458548635244">
        <ele>0</ele>
        <time>2010-01-02T18:05:19Z</time>
      </trkpt>
      <trkpt lat="54.153239764273167" lon="10.448305662721395">
        <ele>0</ele>
        <time>2010-01-02T18:05:14Z</time>
      </trkpt>
      <trkpt lat="54.153134990483522" lon="10.448075328022242">
        <ele>0</ele>
        <time>2010-01-02T18:05:07Z</time>
      </trkpt>
      <trkpt lat="54.153176145628095" lon="10.448010200634599">
        <ele>0</ele>
        <time>2010-01-02T18:05:05Z</time>
      </trkpt>
      <trkpt lat="54.153378317132592" lon="10.447873827069998">
        <ele>0</ele>
        <time>2010-01-02T18:04:56Z</time>
      </trkpt>
      <trkpt lat="54.153792634606361" lon="10.447550117969513">
        <ele>0</ele>
        <time>2010-01-02T18:04:38Z</time>
      </trkpt>
      <trkpt lat="54.154087258502841" lon="10.447314586490393">
        <ele>0</ele>
        <time>2010-01-02T18:04:25Z</time>
      </trkpt>
      <trkpt lat="54.154176441952586" lon="10.447255996987224">
        <ele>0</ele>
        <time>2010-01-02T18:04:21Z</time>
      </trkpt>
      <trkpt lat="54.154289094731212" lon="10.447158263996243">
        <ele>0</ele>
        <time>2010-01-02T18:04:16Z</time>
      </trkpt>
      <trkpt lat="54.154398897662759" lon="10.447009233757854">
        <ele>0</ele>
        <time>2010-01-02T18:04:11Z</time>
      </trkpt>
      <trkpt lat="54.154509538784623" lon="10.446817288175225">
        <ele>0</ele>
        <time>2010-01-02T18:04:04Z</time>
      </trkpt>
      <trkpt lat="54.154630238190293" lon="10.446451837196946">
        <ele>0</ele>
        <time>2010-01-02T18:03:55Z</time>
      </trkpt>
      <trkpt lat="54.154706764966249" lon="10.446306327357888">
        <ele>0</ele>
        <time>2010-01-02T18:03:50Z</time>
      </trkpt>
      <trkpt lat="54.15481086820364" lon="10.44608797878027">
        <ele>0</ele>
        <time>2010-01-02T18:03:43Z</time>
      </trkpt>
      <trkpt lat="54.15486166253686" lon="10.445963758975267">
        <ele>0</ele>
        <time>2010-01-02T18:03:40Z</time>
      </trkpt>
      <trkpt lat="54.154931232333183" lon="10.445793690159917">
        <ele>0</ele>
        <time>2010-01-02T18:03:35Z</time>
      </trkpt>
      <trkpt lat="54.154973812401295" lon="10.445592273026705">
        <ele>0</ele>
        <time>2010-01-02T18:03:30Z</time>
      </trkpt>
      <trkpt lat="54.1550063341856" lon="10.445406530052423">
        <ele>0</ele>
        <time>2010-01-02T18:03:25Z</time>
      </trkpt>
      <trkpt lat="54.155075317248702" lon="10.445255739614367">
        <ele>0</ele>
        <time>2010-01-02T18:03:21Z</time>
      </trkpt>
      <trkpt lat="54.155046483501792" lon="10.444863131269813">
        <ele>0</ele>
        <time>2010-01-02T17:53:51Z</time>
      </trkpt>
      <trkpt lat="54.155045980587602" lon="10.444841170683503">
        <ele>0</ele>
        <time>2010-01-02T17:53:51Z</time>
      </trkpt>
      <trkpt lat="54.155044723302126" lon="10.444819713011384">
        <ele>0</ele>
        <time>2010-01-02T17:53:52Z</time>
      </trkpt>
      <trkpt lat="54.155034832656384" lon="10.444763051345944">
        <ele>0</ele>
        <time>2010-01-02T17:53:53Z</time>
      </trkpt>
      <trkpt lat="54.154976159334183" lon="10.444492818787694">
        <ele>0</ele>
        <time>2010-01-02T17:54:00Z</time>
      </trkpt>
      <trkpt lat="54.154951767995954" lon="10.444325683638453">
        <ele>0</ele>
        <time>2010-01-02T17:54:04Z</time>
      </trkpt>
      <trkpt lat="54.154940452426672" lon="10.444154525175691">
        <ele>0</ele>
        <time>2010-01-02T17:54:08Z</time>
      </trkpt>
      <trkpt lat="54.154934417456388" lon="10.444001471623778">
        <ele>0</ele>
        <time>2010-01-02T17:54:12Z</time>
      </trkpt>
      <trkpt lat="54.154946822673082" lon="10.443849172443151">
        <ele>0</ele>
        <time>2010-01-02T17:54:15Z</time>
      </trkpt>
      <trkpt lat="54.154973225668073" lon="10.443634428083897">
        <ele>0</ele>
        <time>2010-01-02T17:54:21Z</time>
      </trkpt>
      <trkpt lat="54.1550063341856" lon="10.4432940389961">
        <ele>0</ele>
        <time>2010-01-02T17:54:29Z</time>
      </trkpt>
      <trkpt lat="54.155024690553546" lon="10.443087844178081">
        <ele>0</ele>
        <time>2010-01-02T17:54:33Z</time>
      </trkpt>
      <trkpt lat="54.155045226216316" lon="10.442917859181762">
        <ele>0</ele>
        <time>2010-01-02T17:54:38Z</time>
      </trkpt>
      <trkpt lat="54.155067857354879" lon="10.442797243595123">
        <ele>0</ele>
        <time>2010-01-02T17:54:41Z</time>
      </trkpt>
      <trkpt lat="54.155123010277748" lon="10.4426016099751">
        <ele>0</ele>
        <time>2010-01-02T17:54:46Z</time>
      </trkpt>
      <trkpt lat="54.155175313353539" lon="10.44243254698813">
        <ele>0</ele>
        <time>2010-01-02T17:54:50Z</time>
      </trkpt>
      <trkpt lat="54.155222419649363" lon="10.442254515364766">
        <ele>0</ele>
        <time>2010-01-02T17:54:55Z</time>
      </trkpt>
      <trkpt lat="54.155280590057373" lon="10.442022755742073">
        <ele>0</ele>
        <time>2010-01-02T17:55:01Z</time>
      </trkpt>
      <trkpt lat="54.155322248116136" lon="10.441862409934402">
        <ele>0</ele>
        <time>2010-01-02T17:55:05Z</time>
      </trkpt>
      <trkpt lat="54.155357871204615" lon="10.441755875945091">
        <ele>0</ele>
        <time>2010-01-02T17:55:08Z</time>
      </trkpt>
      <trkpt lat="54.155380418524146" lon="10.441644312813878">
        <ele>0</ele>
        <time>2010-01-02T17:55:10Z</time>
      </trkpt>
      <trkpt lat="54.155397685244679" lon="10.441519087180495">
        <ele>0</ele>
        <time>2010-01-02T17:55:13Z</time>
      </trkpt>
      <trkpt lat="54.155415035784245" lon="10.441402830183506">
        <ele>0</ele>
        <time>2010-01-02T17:55:16Z</time>
      </trkpt>
      <trkpt lat="54.155479827895761" lon="10.441063614562154">
        <ele>0</ele>
        <time>2010-01-02T17:55:25Z</time>
      </trkpt>
      <trkpt lat="54.155517378821969" lon="10.440795142203569">
        <ele>0</ele>
        <time>2010-01-02T17:55:31Z</time>
      </trkpt>
      <trkpt lat="54.155535316094756" lon="10.440620463341475">
        <ele>0</ele>
        <time>2010-01-02T17:55:35Z</time>
      </trkpt>
      <trkpt lat="54.155545458197594" lon="10.440441090613604">
        <ele>0</ele>
        <time>2010-01-02T17:55:39Z</time>
      </trkpt>
      <trkpt lat="54.155542440712452" lon="10.440252246335149">
        <ele>0</ele>
        <time>2010-01-02T17:55:44Z</time>
      </trkpt>
      <trkpt lat="54.155526598915458" lon="10.44002702459693">
        <ele>0</ele>
        <time>2010-01-02T17:55:49Z</time>
      </trkpt>
      <trkpt lat="54.155462980270386" lon="10.439602481201291">
        <ele>0</ele>
        <time>2010-01-02T17:55:59Z</time>
      </trkpt>
      <trkpt lat="54.155401792377234" lon="10.439186822623014">
        <ele>0</ele>
        <time>2010-01-02T17:56:09Z</time>
      </trkpt>
      <trkpt lat="54.155383184552193" lon="10.438975095748901">
        <ele>0</ele>
        <time>2010-01-02T17:56:14Z</time>
      </trkpt>
      <trkpt lat="54.155374970287085" lon="10.438781473785639">
        <ele>0</ele>
        <time>2010-01-02T17:56:19Z</time>
      </trkpt>
      <trkpt lat="54.155377065762877" lon="10.438601849600673">
        <ele>0</ele>
        <time>2010-01-02T17:56:23Z</time>
      </trkpt>
      <trkpt lat="54.155383855104446" lon="10.438480647280812">
        <ele>0</ele>
        <time>2010-01-02T17:56:26Z</time>
      </trkpt>
      <trkpt lat="54.155407911166549" lon="10.438238829374313">
        <ele>0</ele>
        <time>2010-01-02T17:56:32Z</time>
      </trkpt>
      <trkpt lat="54.155423836782575" lon="10.438014697283506">
        <ele>0</ele>
        <time>2010-01-02T17:56:37Z</time>
      </trkpt>
      <trkpt lat="54.155422914773226" lon="10.437866505235434">
        <ele>0</ele>
        <time>2010-01-02T17:56:41Z</time>
      </trkpt>
      <trkpt lat="54.15540992282331" lon="10.43762787245214">
        <ele>0</ele>
        <time>2010-01-02T17:56:46Z</time>
      </trkpt>
      <trkpt lat="54.155406318604946" lon="10.437483787536621">
        <ele>0</ele>
        <time>2010-01-02T17:56:50Z</time>
      </trkpt>
      <trkpt lat="54.155405983328819" lon="10.437286142259836">
        <ele>0</ele>
        <time>2010-01-02T17:56:54Z</time>
      </trkpt>
      <trkpt lat="54.155394667759538" lon="10.437128394842148">
        <ele>0</ele>
        <time>2010-01-02T17:56:58Z</time>
      </trkpt>
      <trkpt lat="54.155354434624314" lon="10.436965199187398">
        <ele>0</ele>
        <time>2010-01-02T17:57:02Z</time>
      </trkpt>
      <trkpt lat="54.155290564522147" lon="10.43677425943315">
        <ele>0</ele>
        <time>2010-01-02T17:57:07Z</time>
      </trkpt>
      <trkpt lat="54.155208170413971" lon="10.436591701582074">
        <ele>0</ele>
        <time>2010-01-02T17:57:13Z</time>
      </trkpt>
      <trkpt lat="54.155128290876746" lon="10.436422638595104">
        <ele>0</ele>
        <time>2010-01-02T17:57:18Z</time>
      </trkpt>
      <trkpt lat="54.155098032206297" lon="10.436295820400119">
        <ele>0</ele>
        <time>2010-01-02T17:57:21Z</time>
      </trkpt>
      <trkpt lat="54.15509132668376" lon="10.436192220076919">
        <ele>0</ele>
        <time>2010-01-02T17:57:23Z</time>
      </trkpt>
      <trkpt lat="54.155104402452707" lon="10.435981415212154">
        <ele>0</ele>
        <time>2010-01-02T17:57:28Z</time>
      </trkpt>
      <trkpt lat="54.155118316411972" lon="10.435707746073604">
        <ele>0</ele>
        <time>2010-01-02T17:57:35Z</time>
      </trkpt>
      <trkpt lat="54.155127620324492" lon="10.435362076386809">
        <ele>0</ele>
        <time>2010-01-02T17:57:43Z</time>
      </trkpt>
      <trkpt lat="54.155143545940518" lon="10.435142554342747">
        <ele>0</ele>
        <time>2010-01-02T17:57:48Z</time>
      </trkpt>
      <trkpt lat="54.15516902692616" lon="10.434995116665959">
        <ele>0</ele>
        <time>2010-01-02T17:57:52Z</time>
      </trkpt>
      <trkpt lat="54.155202554538846" lon="10.434838877990842">
        <ele>0</ele>
        <time>2010-01-02T17:57:56Z</time>
      </trkpt>
      <trkpt lat="54.155223174020648" lon="10.434664282947779">
        <ele>0</ele>
        <time>2010-01-02T17:58:00Z</time>
      </trkpt>
      <trkpt lat="54.155229963362217" lon="10.434538722038269">
        <ele>0</ele>
        <time>2010-01-02T17:58:03Z</time>
      </trkpt>
      <trkpt lat="54.155182689428329" lon="10.433849561959505">
        <ele>0</ele>
        <time>2010-01-02T17:58:19Z</time>
      </trkpt>
      <trkpt lat="54.155155112966895" lon="10.433498108759522">
        <ele>0</ele>
        <time>2010-01-02T17:58:27Z</time>
      </trkpt>
      <trkpt lat="54.155123680830002" lon="10.433258805423975">
        <ele>0</ele>
        <time>2010-01-02T17:58:33Z</time>
      </trkpt>
      <trkpt lat="54.155093925073743" lon="10.433091502636671">
        <ele>0</ele>
        <time>2010-01-02T17:58:37Z</time>
      </trkpt>
      <trkpt lat="54.15507959201932" lon="10.432960744947195">
        <ele>0</ele>
        <time>2010-01-02T17:58:40Z</time>
      </trkpt>
      <trkpt lat="54.155083363875747" lon="10.43287105858326">
        <ele>0</ele>
        <time>2010-01-02T17:58:42Z</time>
      </trkpt>
      <trkpt lat="54.155118986964226" lon="10.432759914547205">
        <ele>0</ele>
        <time>2010-01-02T17:58:45Z</time>
      </trkpt>
      <trkpt lat="54.155181096866727" lon="10.43265413492918">
        <ele>0</ele>
        <time>2010-01-02T17:58:49Z</time>
      </trkpt>
      <trkpt lat="54.15523742325604" lon="10.432588756084442">
        <ele>0</ele>
        <time>2010-01-02T17:58:52Z</time>
      </trkpt>
      <trkpt lat="54.155314955860376" lon="10.432514995336533">
        <ele>0</ele>
        <time>2010-01-02T17:58:55Z</time>
      </trkpt>
      <trkpt lat="54.155389554798603" lon="10.432463698089123">
        <ele>0</ele>
        <time>2010-01-02T17:58:58Z</time>
      </trkpt>
      <trkpt lat="54.155475134029984" lon="10.43237661011517">
        <ele>0</ele>
        <time>2010-01-02T17:59:02Z</time>
      </trkpt>
      <trkpt lat="54.155565742403269" lon="10.432316847145557">
        <ele>0</ele>
        <time>2010-01-02T17:59:06Z</time>
      </trkpt>
      <trkpt lat="54.15565081872046" lon="10.4322749376297">
        <ele>0</ele>
        <time>2010-01-02T17:59:10Z</time>
      </trkpt>
      <trkpt lat="54.155719885602593" lon="10.432250378653407">
        <ele>0</ele>
        <time>2010-01-02T17:59:13Z</time>
      </trkpt>
      <trkpt lat="54.155765064060688" lon="10.432224981486797">
        <ele>0</ele>
        <time>2010-01-02T17:59:15Z</time>
      </trkpt>
      <trkpt lat="54.15583647787571" lon="10.432151891291142">
        <ele>0</ele>
        <time>2010-01-02T17:59:18Z</time>
      </trkpt>
      <trkpt lat="54.155838489532471" lon="10.432139653712511">
        <ele>0</ele>
        <time>2010-01-02T17:59:18Z</time>
      </trkpt>
      <trkpt lat="54.155857264995575" lon="10.431990288197994">
        <ele>0</ele>
        <time>2010-01-02T17:59:22Z</time>
      </trkpt>
      <trkpt lat="54.155870927497745" lon="10.431902026757598">
        <ele>0</ele>
        <time>2010-01-02T17:59:24Z</time>
      </trkpt>
      <trkpt lat="54.155892636626959" lon="10.431815525516868">
        <ele>0</ele>
        <time>2010-01-02T17:59:26Z</time>
      </trkpt>
      <trkpt lat="54.155924152582884" lon="10.431729359552264">
        <ele>0</ele>
        <time>2010-01-02T17:59:28Z</time>
      </trkpt>
      <trkpt lat="54.155956506729126" lon="10.431655431166291">
        <ele>0</ele>
        <time>2010-01-02T17:59:31Z</time>
      </trkpt>
      <trkpt lat="54.156011324375868" lon="10.431580748409033">
        <ele>0</ele>
        <time>2010-01-02T17:59:33Z</time>
      </trkpt>
      <trkpt lat="54.156094808131456" lon="10.431511681526899">
        <ele>0</ele>
        <time>2010-01-02T17:59:37Z</time>
      </trkpt>
      <trkpt lat="54.156364621594548" lon="10.431340355426073">
        <ele>0</ele>
        <time>2010-01-02T17:59:49Z</time>
      </trkpt>
      <trkpt lat="54.156580707058311" lon="10.431226948276162">
        <ele>0</ele>
        <time>2010-01-02T17:59:58Z</time>
      </trkpt>
      <trkpt lat="54.156697299331427" lon="10.43116819113493">
        <ele>0</ele>
        <time>2010-01-02T18:00:03Z</time>
      </trkpt>
      <trkpt lat="54.156804587692022" lon="10.431138183921576">
        <ele>0</ele>
        <time>2010-01-02T18:00:07Z</time>
      </trkpt>
      <trkpt lat="54.156935848295689" lon="10.431127455085516">
        <ele>0</ele>
        <time>2010-01-02T18:00:12Z</time>
      </trkpt>
      <trkpt lat="54.157064259052277" lon="10.431134914979339">
        <ele>0</ele>
        <time>2010-01-02T18:00:17Z</time>
      </trkpt>
      <trkpt lat="54.157173642888665" lon="10.431152433156967">
        <ele>0</ele>
        <time>2010-01-02T18:00:22Z</time>
      </trkpt>
      <trkpt lat="54.157349830493331" lon="10.431221332401037">
        <ele>0</ele>
        <time>2010-01-02T18:00:29Z</time>
      </trkpt>
      <trkpt lat="54.157511685043573" lon="10.431291237473488">
        <ele>0</ele>
        <time>2010-01-02T18:00:36Z</time>
      </trkpt>
      <trkpt lat="54.157635821029544" lon="10.431355191394687">
        <ele>0</ele>
        <time>2010-01-02T18:00:41Z</time>
      </trkpt>
      <trkpt lat="54.157748138532043" lon="10.431424928829074">
        <ele>0</ele>
        <time>2010-01-02T18:00:46Z</time>
      </trkpt>
      <trkpt lat="54.157905047759414" lon="10.431531378999352">
        <ele>0</ele>
        <time>2010-01-02T18:00:52Z</time>
      </trkpt>
      <trkpt lat="54.158098669722676" lon="10.431642103940248">
        <ele>0</ele>
        <time>2010-01-02T18:01:01Z</time>
      </trkpt>
      <trkpt lat="54.158163880929351" lon="10.431678062304854">
        <ele>0</ele>
        <time>2010-01-02T18:01:03Z</time>
      </trkpt>
      <trkpt lat="54.158227080479264" lon="10.431726174429059">
        <ele>0</ele>
        <time>2010-01-02T18:01:06Z</time>
      </trkpt>
      <trkpt lat="54.158289358019829" lon="10.431780405342579">
        <ele>0</ele>
        <time>2010-01-02T18:01:09Z</time>
      </trkpt>
      <trkpt lat="54.15835490450263" lon="10.43185768648982">
        <ele>0</ele>
        <time>2010-01-02T18:01:12Z</time>
      </trkpt>
      <trkpt lat="54.15844090282917" lon="10.431957095861435">
        <ele>0</ele>
        <time>2010-01-02T18:01:16Z</time>
      </trkpt>
      <trkpt lat="54.158483482897282" lon="10.431996826082468">
        <ele>0</ele>
        <time>2010-01-02T18:01:18Z</time>
      </trkpt>
      <trkpt lat="54.158540479838848" lon="10.43204627931118">
        <ele>0</ele>
        <time>2010-01-02T18:01:21Z</time>
      </trkpt>
      <trkpt lat="54.158605439588428" lon="10.432094391435385">
        <ele>0</ele>
        <time>2010-01-02T18:01:24Z</time>
      </trkpt>
      <trkpt lat="54.158685905858874" lon="10.432127835229039">
        <ele>0</ele>
        <time>2010-01-02T18:01:27Z</time>
      </trkpt>
      <trkpt lat="54.158820100128651" lon="10.432175360620022">
        <ele>0</ele>
        <time>2010-01-02T18:01:32Z</time>
      </trkpt>
      <trkpt lat="54.159237267449498" lon="10.432306118309498">
        <ele>0</ele>
        <time>2010-01-02T18:01:49Z</time>
      </trkpt>
      <trkpt lat="54.159272974357009" lon="10.43204091489315">
        <ele>0</ele>
        <time>2010-01-02T18:01:56Z</time>
      </trkpt>
      <trkpt lat="54.15954178199172" lon="10.430043172091246">
        <ele>0</ele>
        <time>2010-01-02T18:02:44Z</time>
      </trkpt>
      <trkpt lat="54.159618141129613" lon="10.429444117471576">
        <ele>0</ele>
        <time>2010-01-02T18:02:58Z</time>
      </trkpt>
      <trkpt lat="54.159740768373013" lon="10.428494531661272">
        <ele>0</ele>
        <time>2010-01-02T18:03:21Z</time>
      </trkpt>
      <trkpt lat="54.159740768373013" lon="10.428494531661272">
        <ele>0</ele>
        <time>2010-01-02T18:10:27Z</time>
      </trkpt>
      <trkpt lat="54.159752754494548" lon="10.428398475050926">
        <ele>0</ele>
        <time>2010-01-02T18:10:25Z</time>
      </trkpt>
      <trkpt lat="54.159817295148969" lon="10.42788022197783">
        <ele>0</ele>
        <time>2010-01-02T18:10:13Z</time>
      </trkpt>
      <trkpt lat="54.159819474443793" lon="10.427849628031254">
        <ele>0</ele>
        <time>2010-01-02T18:10:12Z</time>
      </trkpt>
      <trkpt lat="54.159880494698882" lon="10.427097016945481">
        <ele>0</ele>
        <time>2010-01-02T18:09:54Z</time>
      </trkpt>
      <trkpt lat="54.159940760582685" lon="10.426258575171232">
        <ele>0</ele>
        <time>2010-01-02T18:09:34Z</time>
      </trkpt>
      <trkpt lat="54.160032039508224" lon="10.425012856721878">
        <ele>0</ele>
        <time>2010-01-02T18:09:05Z</time>
      </trkpt>
      <trkpt lat="54.159906227141619" lon="10.424992321059108">
        <ele>0</ele>
        <time>2010-01-02T18:09:00Z</time>
      </trkpt>
      <trkpt lat="54.159849816933274" lon="10.424956697970629">
        <ele>0</ele>
        <time>2010-01-02T18:08:57Z</time>
      </trkpt>
      <trkpt lat="54.159807236865163" lon="10.424892576411366">
        <ele>0</ele>
        <time>2010-01-02T18:08:55Z</time>
      </trkpt>
      <trkpt lat="54.159781588241458" lon="10.424815462902188">
        <ele>0</ele>
        <time>2010-01-02T18:08:53Z</time>
      </trkpt>
      <trkpt lat="54.159760214388371" lon="10.424717059358954">
        <ele>0</ele>
        <time>2010-01-02T18:08:51Z</time>
      </trkpt>
      <trkpt lat="54.159753927960992" lon="10.424617230892181">
        <ele>0</ele>
        <time>2010-01-02T18:08:48Z</time>
      </trkpt>
      <trkpt lat="54.159760801121593" lon="10.424535674974322">
        <ele>0</ele>
        <time>2010-01-02T18:08:46Z</time>
      </trkpt>
      <trkpt lat="54.159775637090206" lon="10.424449257552624">
        <ele>0</ele>
        <time>2010-01-02T18:08:44Z</time>
      </trkpt>
      <trkpt lat="54.159807404503226" lon="10.424333922564983">
        <ele>0</ele>
        <time>2010-01-02T18:08:41Z</time>
      </trkpt>
      <trkpt lat="54.159871358424425" lon="10.4242052603513">
        <ele>0</ele>
        <time>2010-01-02T18:08:37Z</time>
      </trkpt>
      <trkpt lat="54.159938497468829" lon="10.424066120758653">
        <ele>0</ele>
        <time>2010-01-02T18:08:33Z</time>
      </trkpt>
      <trkpt lat="54.159988956525922" lon="10.423961598426104">
        <ele>0</ele>
        <time>2010-01-02T18:08:30Z</time>
      </trkpt>
      <trkpt lat="54.159992728382349" lon="10.423901751637459">
        <ele>0</ele>
        <time>2010-01-02T18:08:29Z</time>
      </trkpt>
      <trkpt lat="54.159987363964319" lon="10.423841485753655">
        <ele>0</ele>
        <time>2010-01-02T18:08:27Z</time>
      </trkpt>
      <trkpt lat="54.159866496920586" lon="10.423014778643847">
        <ele>0</ele>
        <time>2010-01-02T18:08:07Z</time>
      </trkpt>
      <trkpt lat="54.159892229363322" lon="10.422921655699611">
        <ele>0</ele>
        <time>2010-01-02T18:08:05Z</time>
      </trkpt>
      <trkpt lat="54.15995174087584" lon="10.422841943800449">
        <ele>0</ele>
        <time>2010-01-02T18:08:02Z</time>
      </trkpt>
      <trkpt lat="54.159845374524593" lon="10.422018421813846">
        <ele>0</ele>
        <time>2010-01-02T18:07:42Z</time>
      </trkpt>
      <trkpt lat="54.159627361223102" lon="10.42044279165566">
        <ele>0</ele>
        <time>2010-01-02T18:07:04Z</time>
      </trkpt>
      <trkpt lat="54.159577656537294" lon="10.420034928247333">
        <ele>0</ele>
        <time>2010-01-02T18:06:54Z</time>
      </trkpt>
      <trkpt lat="54.159561982378364" lon="10.419916491955519">
        <ele>0</ele>
        <time>2010-01-02T18:06:51Z</time>
      </trkpt>
      <trkpt lat="54.159507751464844" lon="10.419712560251355">
        <ele>0</ele>
        <time>2010-01-02T18:06:46Z</time>
      </trkpt>
      <trkpt lat="54.15943281725049" lon="10.419518603011966">
        <ele>0</ele>
        <time>2010-01-02T18:06:41Z</time>
      </trkpt>
      <trkpt lat="54.159337347373366" lon="10.419310228899121">
        <ele>0</ele>
        <time>2010-01-02T18:06:34Z</time>
      </trkpt>
      <trkpt lat="54.15913132019341" lon="10.418951064348221">
        <ele>0</ele>
        <time>2010-01-02T18:06:23Z</time>
      </trkpt>
      <trkpt lat="54.159093182533979" lon="10.41889582760632">
        <ele>0</ele>
        <time>2010-01-02T18:06:21Z</time>
      </trkpt>
      <trkpt lat="54.159035179764032" lon="10.4188122600317">
        <ele>0</ele>
        <time>2010-01-02T18:06:18Z</time>
      </trkpt>
      <trkpt lat="54.15897935628891" lon="10.418731542304158">
        <ele>0</ele>
        <time>2010-01-02T18:06:15Z</time>
      </trkpt>
      <trkpt lat="54.158841809257865" lon="10.418507913127542">
        <ele>0</ele>
        <time>2010-01-02T18:06:07Z</time>
      </trkpt>
      <trkpt lat="54.158683558925986" lon="10.418217731639743">
        <ele>0</ele>
        <time>2010-01-02T18:05:58Z</time>
      </trkpt>
      <trkpt lat="54.158626981079578" lon="10.418094182386994">
        <ele>0</ele>
        <time>2010-01-02T18:05:54Z</time>
      </trkpt>
      <trkpt lat="54.158560931682587" lon="10.417950181290507">
        <ele>0</ele>
        <time>2010-01-02T18:05:50Z</time>
      </trkpt>
      <trkpt lat="54.158482309430838" lon="10.417757648974657">
        <ele>0</ele>
        <time>2010-01-02T18:05:44Z</time>
      </trkpt>
      <trkpt lat="54.158482309430838" lon="10.417757648974657">
        <ele>0</ele>
        <time>2010-01-02T18:05:44Z</time>
      </trkpt>
      <trkpt lat="54.158560931682587" lon="10.417950181290507">
        <ele>0</ele>
        <time>2010-01-02T18:05:50Z</time>
      </trkpt>
      <trkpt lat="54.158626981079578" lon="10.418094182386994">
        <ele>0</ele>
        <time>2010-01-02T18:05:54Z</time>
      </trkpt>
      <trkpt lat="54.158683558925986" lon="10.418217731639743">
        <ele>0</ele>
        <time>2010-01-02T18:05:58Z</time>
      </trkpt>
      <trkpt lat="54.158841809257865" lon="10.418507913127542">
        <ele>0</ele>
        <time>2010-01-02T18:06:07Z</time>
      </trkpt>
      <trkpt lat="54.15897935628891" lon="10.418731542304158">
        <ele>0</ele>
        <time>2010-01-02T18:06:15Z</time>
      </trkpt>
      <trkpt lat="54.159035179764032" lon="10.4188122600317">
        <ele>0</ele>
        <time>2010-01-02T18:06:18Z</time>
      </trkpt>
      <trkpt lat="54.159093182533979" lon="10.41889582760632">
        <ele>0</ele>
        <time>2010-01-02T18:06:21Z</time>
      </trkpt>
      <trkpt lat="54.15913132019341" lon="10.418951064348221">
        <ele>0</ele>
        <time>2010-01-02T18:06:23Z</time>
      </trkpt>
      <trkpt lat="54.159337347373366" lon="10.419310228899121">
        <ele>0</ele>
        <time>2010-01-02T18:06:34Z</time>
      </trkpt>
      <trkpt lat="54.15943281725049" lon="10.419518603011966">
        <ele>0</ele>
        <time>2010-01-02T18:06:41Z</time>
      </trkpt>
      <trkpt lat="54.159507751464844" lon="10.419712560251355">
        <ele>0</ele>
        <time>2010-01-02T18:06:46Z</time>
      </trkpt>
      <trkpt lat="54.159561982378364" lon="10.419916491955519">
        <ele>0</ele>
        <time>2010-01-02T18:06:51Z</time>
      </trkpt>
      <trkpt lat="54.159577656537294" lon="10.420034928247333">
        <ele>0</ele>
        <time>2010-01-02T18:06:54Z</time>
      </trkpt>
      <trkpt lat="54.159627361223102" lon="10.42044279165566">
        <ele>0</ele>
        <time>2010-01-02T18:07:04Z</time>
      </trkpt>
      <trkpt lat="54.159845374524593" lon="10.422018421813846">
        <ele>0</ele>
        <time>2010-01-02T18:07:42Z</time>
      </trkpt>
      <trkpt lat="54.15995174087584" lon="10.422841943800449">
        <ele>0</ele>
        <time>2010-01-02T18:08:02Z</time>
      </trkpt>
      <trkpt lat="54.159892229363322" lon="10.422921655699611">
        <ele>0</ele>
        <time>2010-01-02T18:08:05Z</time>
      </trkpt>
      <trkpt lat="54.159866496920586" lon="10.423014778643847">
        <ele>0</ele>
        <time>2010-01-02T18:08:07Z</time>
      </trkpt>
      <trkpt lat="54.159987363964319" lon="10.423841485753655">
        <ele>0</ele>
        <time>2010-01-02T18:08:27Z</time>
      </trkpt>
      <trkpt lat="54.159992728382349" lon="10.423901751637459">
        <ele>0</ele>
        <time>2010-01-02T18:08:29Z</time>
      </trkpt>
      <trkpt lat="54.159988956525922" lon="10.423961598426104">
        <ele>0</ele>
        <time>2010-01-02T18:08:30Z</time>
      </trkpt>
      <trkpt lat="54.159938497468829" lon="10.424066120758653">
        <ele>0</ele>
        <time>2010-01-02T18:08:33Z</time>
      </trkpt>
      <trkpt lat="54.159871358424425" lon="10.4242052603513">
        <ele>0</ele>
        <time>2010-01-02T18:08:37Z</time>
      </trkpt>
      <trkpt lat="54.159807404503226" lon="10.424333922564983">
        <ele>0</ele>
        <time>2010-01-02T18:08:41Z</time>
      </trkpt>
      <trkpt lat="54.159775637090206" lon="10.424449257552624">
        <ele>0</ele>
        <time>2010-01-02T18:08:44Z</time>
      </trkpt>
      <trkpt lat="54.159760801121593" lon="10.424535674974322">
        <ele>0</ele>
        <time>2010-01-02T18:08:46Z</time>
      </trkpt>
      <trkpt lat="54.159753927960992" lon="10.424617230892181">
        <ele>0</ele>
        <time>2010-01-02T18:08:48Z</time>
      </trkpt>
      <trkpt lat="54.159760214388371" lon="10.424717059358954">
        <ele>0</ele>
        <time>2010-01-02T18:08:51Z</time>
      </trkpt>
      <trkpt lat="54.159781588241458" lon="10.424815462902188">
        <ele>0</ele>
        <time>2010-01-02T18:08:53Z</time>
      </trkpt>
      <trkpt lat="54.159807236865163" lon="10.424892576411366">
        <ele>0</ele>
        <time>2010-01-02T18:08:55Z</time>
      </trkpt>
      <trkpt lat="54.159849816933274" lon="10.424956697970629">
        <ele>0</ele>
        <time>2010-01-02T18:08:57Z</time>
      </trkpt>
      <trkpt lat="54.159906227141619" lon="10.424992321059108">
        <ele>0</ele>
        <time>2010-01-02T18:09:00Z</time>
      </trkpt>
      <trkpt lat="54.160032039508224" lon="10.425012856721878">
        <ele>0</ele>
        <time>2010-01-02T18:09:05Z</time>
      </trkpt>
      <trkpt lat="54.159940760582685" lon="10.426258575171232">
        <ele>0</ele>
        <time>2010-01-02T18:09:34Z</time>
      </trkpt>
      <trkpt lat="54.159880494698882" lon="10.427097016945481">
        <ele>0</ele>
        <time>2010-01-02T18:09:54Z</time>
      </trkpt>
      <trkpt lat="54.159819474443793" lon="10.427849628031254">
        <ele>0</ele>
        <time>2010-01-02T18:10:12Z</time>
      </trkpt>
      <trkpt lat="54.159817295148969" lon="10.42788022197783">
        <ele>0</ele>
        <time>2010-01-02T18:10:13Z</time>
      </trkpt>
      <trkpt lat="54.159752754494548" lon="10.428398475050926">
        <ele>0</ele>
        <time>2010-01-02T18:10:25Z</time>
      </trkpt>
      <trkpt lat="54.159740768373013" lon="10.428494531661272">
        <ele>0</ele>
        <time>2010-01-02T18:10:27Z</time>
      </trkpt>
      <trkpt lat="54.159740768373013" lon="10.428494531661272">
        <ele>0</ele>
        <time>2010-01-02T18:10:27Z</time>
      </trkpt>
      <trkpt lat="54.159740768373013" lon="10.428494531661272">
        <ele>0</ele>
        <time>2010-01-02T18:10:27Z</time>
      </trkpt>
      <trkpt lat="54.161085728555918" lon="10.428885379806161">
        <ele>0</ele>
        <time>2010-01-02T18:11:22Z</time>
      </trkpt>
      <trkpt lat="54.161369539797306" lon="10.428968612104654">
        <ele>0</ele>
        <time>2010-01-02T18:11:34Z</time>
      </trkpt>
      <trkpt lat="54.161476157605648" lon="10.429016556590796">
        <ele>0</ele>
        <time>2010-01-02T18:11:38Z</time>
      </trkpt>
      <trkpt lat="54.161528125405312" lon="10.429054358974099">
        <ele>0</ele>
        <time>2010-01-02T18:11:40Z</time>
      </trkpt>
      <trkpt lat="54.161574644967914" lon="10.429099118337035">
        <ele>0</ele>
        <time>2010-01-02T18:11:42Z</time>
      </trkpt>
      <trkpt lat="54.161604652181268" lon="10.429128035902977">
        <ele>0</ele>
        <time>2010-01-02T18:11:44Z</time>
      </trkpt>
      <trkpt lat="54.161635246127844" lon="10.429157372564077">
        <ele>0</ele>
        <time>2010-01-02T18:11:45Z</time>
      </trkpt>
      <trkpt lat="54.161685705184937" lon="10.429205819964409">
        <ele>0</ele>
        <time>2010-01-02T18:11:47Z</time>
      </trkpt>
      <trkpt lat="54.161748988553882" lon="10.429290058091283">
        <ele>0</ele>
        <time>2010-01-02T18:11:51Z</time>
      </trkpt>
      <trkpt lat="54.161782683804631" lon="10.429193750023842">
        <ele>0</ele>
        <time>2010-01-02T18:11:53Z</time>
      </trkpt>
      <trkpt lat="54.161836327984929" lon="10.429020998999476">
        <ele>0</ele>
        <time>2010-01-02T18:11:58Z</time>
      </trkpt>
      <trkpt lat="54.161900617182255" lon="10.428836010396481">
        <ele>0</ele>
        <time>2010-01-02T18:12:03Z</time>
      </trkpt>
      <trkpt lat="54.161943783983588" lon="10.428729224950075">
        <ele>0</ele>
        <time>2010-01-02T18:12:06Z</time>
      </trkpt>
      <trkpt lat="54.161999439820647" lon="10.428613219410181">
        <ele>0</ele>
        <time>2010-01-02T18:12:10Z</time>
      </trkpt>
      <trkpt lat="54.162029949948192" lon="10.428562089800835">
        <ele>0</ele>
        <time>2010-01-02T18:12:11Z</time>
      </trkpt>
      <trkpt lat="54.162062639370561" lon="10.428507188335061">
        <ele>0</ele>
        <time>2010-01-02T18:12:13Z</time>
      </trkpt>
      <trkpt lat="54.162123072892427" lon="10.428440971300006">
        <ele>0</ele>
        <time>2010-01-02T18:12:16Z</time>
      </trkpt>
      <trkpt lat="54.162172442302108" lon="10.428403671830893">
        <ele>0</ele>
        <time>2010-01-02T18:12:18Z</time>
      </trkpt>
      <trkpt lat="54.16219255886972" lon="10.42838841676712">
        <ele>0</ele>
        <time>2010-01-02T18:12:19Z</time>
      </trkpt>
      <trkpt lat="54.162268918007612" lon="10.428345920518041">
        <ele>0</ele>
        <time>2010-01-02T18:12:22Z</time>
      </trkpt>
      <trkpt lat="54.16232499293983" lon="10.428327899426222">
        <ele>0</ele>
        <time>2010-01-02T18:12:24Z</time>
      </trkpt>
      <trkpt lat="54.162383666262031" lon="10.428327899426222">
        <ele>0</ele>
        <time>2010-01-02T18:12:27Z</time>
      </trkpt>
      <trkpt lat="54.162589190527797" lon="10.428509451448917">
        <ele>0</ele>
        <time>2010-01-02T18:12:36Z</time>
      </trkpt>
      <trkpt lat="54.162678625434637" lon="10.428573405370116">
        <ele>0</ele>
        <time>2010-01-02T18:12:40Z</time>
      </trkpt>
      <trkpt lat="54.162746770307422" lon="10.428608106449246">
        <ele>0</ele>
        <time>2010-01-02T18:12:43Z</time>
      </trkpt>
      <trkpt lat="54.162798654288054" lon="10.428624451160431">
        <ele>0</ele>
        <time>2010-01-02T18:12:45Z</time>
      </trkpt>
      <trkpt lat="54.162843078374863" lon="10.428631911054254">
        <ele>0</ele>
        <time>2010-01-02T18:12:47Z</time>
      </trkpt>
      <trkpt lat="54.162942990660667" lon="10.428618500009179">
        <ele>0</ele>
        <time>2010-01-02T18:12:51Z</time>
      </trkpt>
      <trkpt lat="54.163218252360821" lon="10.428853277117014">
        <ele>0</ele>
        <time>2010-01-02T18:13:03Z</time>
      </trkpt>
      <trkpt lat="54.163863407447934" lon="10.429379241541028">
        <ele>0</ele>
        <time>2010-01-02T18:13:32Z</time>
      </trkpt>
      <trkpt lat="54.16455902159214" lon="10.429935548454523">
        <ele>0</ele>
        <time>2010-01-02T18:14:02Z</time>
      </trkpt>
      <trkpt lat="54.164711572229862" lon="10.430057672783732">
        <ele>0</ele>
        <time>2010-01-02T18:14:09Z</time>
      </trkpt>
      <trkpt lat="54.16503201238811" lon="10.430316757410765">
        <ele>0</ele>
        <time>2010-01-02T18:14:23Z</time>
      </trkpt>
      <trkpt lat="54.165070233866572" lon="10.430349363014102">
        <ele>0</ele>
        <time>2010-01-02T18:14:25Z</time>
      </trkpt>
      <trkpt lat="54.16509110480547" lon="10.430367216467857">
        <ele>0</ele>
        <time>2010-01-02T18:14:26Z</time>
      </trkpt>
      <trkpt lat="54.165196549147367" lon="10.43045723810792">
        <ele>0</ele>
        <time>2010-01-02T18:14:31Z</time>
      </trkpt>
      <trkpt lat="54.165337029844522" lon="10.43057844042778">
        <ele>0</ele>
        <time>2010-01-02T18:14:37Z</time>
      </trkpt>
      <trkpt lat="54.165430823341012" lon="10.430671395733953">
        <ele>0</ele>
        <time>2010-01-02T18:14:41Z</time>
      </trkpt>
      <trkpt lat="54.165546661242843" lon="10.430786227807403">
        <ele>0</ele>
        <time>2010-01-02T18:14:47Z</time>
      </trkpt>
      <trkpt lat="54.165675491094589" lon="10.4309141356498">
        <ele>0</ele>
        <time>2010-01-02T18:14:53Z</time>
      </trkpt>
      <trkpt lat="54.165844134986401" lon="10.431081354618073">
        <ele>0</ele>
        <time>2010-01-02T18:15:00Z</time>
      </trkpt>
      <trkpt lat="54.166017472743988" lon="10.431269025430083">
        <ele>0</ele>
        <time>2010-01-02T18:15:09Z</time>
      </trkpt>
      <trkpt lat="54.166140435263515" lon="10.431402381509542">
        <ele>0</ele>
        <time>2010-01-02T18:15:15Z</time>
      </trkpt>
      <trkpt lat="54.16637621819973" lon="10.431672362610698">
        <ele>0</ele>
        <time>2010-01-02T18:15:26Z</time>
      </trkpt>
      <trkpt lat="54.166491385549307" lon="10.431806473061442">
        <ele>0</ele>
        <time>2010-01-02T18:15:31Z</time>
      </trkpt>
      <trkpt lat="54.166610995307565" lon="10.431946953758597">
        <ele>0</ele>
        <time>2010-01-02T18:15:37Z</time>
      </trkpt>
      <trkpt lat="54.166786847636104" lon="10.432199500501156">
        <ele>0</ele>
        <time>2010-01-02T18:15:46Z</time>
      </trkpt>
      <trkpt lat="54.16687318123877" lon="10.432333694770932">
        <ele>0</ele>
        <time>2010-01-02T18:15:51Z</time>
      </trkpt>
      <trkpt lat="54.166990611702204" lon="10.432514324784279">
        <ele>0</ele>
        <time>2010-01-02T18:15:57Z</time>
      </trkpt>
      <trkpt lat="54.167165877297521" lon="10.43281439691782">
        <ele>0</ele>
        <time>2010-01-02T18:16:07Z</time>
      </trkpt>
      <trkpt lat="54.16730317287147" lon="10.433051940053701">
        <ele>0</ele>
        <time>2010-01-02T18:16:15Z</time>
      </trkpt>
      <trkpt lat="54.167463183403015" lon="10.433351425454021">
        <ele>0</ele>
        <time>2010-01-02T18:16:25Z</time>
      </trkpt>
      <trkpt lat="54.167587319388986" lon="10.433583604171872">
        <ele>0</ele>
        <time>2010-01-02T18:16:32Z</time>
      </trkpt>
      <trkpt lat="54.167661750689149" lon="10.43372274376452">
        <ele>0</ele>
        <time>2010-01-02T18:16:37Z</time>
      </trkpt>
      <trkpt lat="54.167749006301165" lon="10.433871271088719">
        <ele>0</ele>
        <time>2010-01-02T18:16:41Z</time>
      </trkpt>
      <trkpt lat="54.167821258306503" lon="10.433985516428947">
        <ele>0</ele>
        <time>2010-01-02T18:16:45Z</time>
      </trkpt>
      <trkpt lat="54.167889570817351" lon="10.434058355167508">
        <ele>0</ele>
        <time>2010-01-02T18:16:49Z</time>
      </trkpt>
      <trkpt lat="54.167976658791304" lon="10.434137899428606">
        <ele>0</ele>
        <time>2010-01-02T18:16:53Z</time>
      </trkpt>
      <trkpt lat="54.168087132275105" lon="10.434221299365163">
        <ele>0</ele>
        <time>2010-01-02T18:16:57Z</time>
      </trkpt>
      <trkpt lat="54.168227026239038" lon="10.434318026527762">
        <ele>0</ele>
        <time>2010-01-02T18:17:03Z</time>
      </trkpt>
      <trkpt lat="54.168390221893787" lon="10.434418609365821">
        <ele>0</ele>
        <time>2010-01-02T18:17:10Z</time>
      </trkpt>
      <trkpt lat="54.168655509129167" lon="10.434556491672993">
        <ele>0</ele>
        <time>2010-01-02T18:17:21Z</time>
      </trkpt>
      <trkpt lat="54.168915515765548" lon="10.43467266485095">
        <ele>0</ele>
        <time>2010-01-02T18:17:32Z</time>
      </trkpt>
      <trkpt lat="54.169176695868373" lon="10.434772074222565">
        <ele>0</ele>
        <time>2010-01-02T18:17:43Z</time>
      </trkpt>
      <trkpt lat="54.169169487431645" lon="10.434849858283997">
        <ele>0</ele>
        <time>2010-01-02T18:17:45Z</time>
      </trkpt>
      <trkpt lat="54.16916529648006" lon="10.434904843568802">
        <ele>0</ele>
        <time>2010-01-02T18:17:46Z</time>
      </trkpt>
      <trkpt lat="54.169165631756186" lon="10.434950860217214">
        <ele>0</ele>
        <time>2010-01-02T18:17:47Z</time>
      </trkpt>
      <trkpt lat="54.169167811051011" lon="10.43499075807631">
        <ele>0</ele>
        <time>2010-01-02T18:17:48Z</time>
      </trkpt>
      <trkpt lat="54.169176612049341" lon="10.435079857707024">
        <ele>0</ele>
        <time>2010-01-02T18:17:50Z</time>
      </trkpt>
      <trkpt lat="54.16924400255084" lon="10.435460396111012">
        <ele>0</ele>
        <time>2010-01-02T18:18:00Z</time>
      </trkpt>
      <trkpt lat="54.169360511004925" lon="10.436084596440196">
        <ele>0</ele>
        <time>2010-01-02T18:18:15Z</time>
      </trkpt>
      <trkpt lat="54.169399486854672" lon="10.43628660030663">
        <ele>0</ele>
        <time>2010-01-02T18:18:20Z</time>
      </trkpt>
      <trkpt lat="54.169420776888728" lon="10.436379220336676">
        <ele>0</ele>
        <time>2010-01-02T18:18:22Z</time>
      </trkpt>
      <trkpt lat="54.16944139637053" lon="10.436459518969059">
        <ele>0</ele>
        <time>2010-01-02T18:18:24Z</time>
      </trkpt>
      <trkpt lat="54.169466625899076" lon="10.436529340222478">
        <ele>0</ele>
        <time>2010-01-02T18:18:26Z</time>
      </trkpt>
      <trkpt lat="54.169485820457339" lon="10.436582062393427">
        <ele>0</ele>
        <time>2010-01-02T18:18:28Z</time>
      </trkpt>
      <trkpt lat="54.169519934803247" lon="10.436653727665544">
        <ele>0</ele>
        <time>2010-01-02T18:18:30Z</time>
      </trkpt>
      <trkpt lat="54.169560587033629" lon="10.436713322997093">
        <ele>0</ele>
        <time>2010-01-02T18:18:32Z</time>
      </trkpt>
      <trkpt lat="54.169617081061006" lon="10.436799488961697">
        <ele>0</ele>
        <time>2010-01-02T18:18:35Z</time>
      </trkpt>
      <trkpt lat="54.16967005468905" lon="10.436877859756351">
        <ele>0</ele>
        <time>2010-01-02T18:18:38Z</time>
      </trkpt>
      <trkpt lat="54.169736439362168" lon="10.43696285225451">
        <ele>0</ele>
        <time>2010-01-02T18:18:41Z</time>
      </trkpt>
      <trkpt lat="54.169818833470345" lon="10.437054550275207">
        <ele>0</ele>
        <time>2010-01-02T18:18:45Z</time>
      </trkpt>
      <trkpt lat="54.169906591996551" lon="10.437157144770026">
        <ele>0</ele>
        <time>2010-01-02T18:18:49Z</time>
      </trkpt>
      <trkpt lat="54.17021781206131" lon="10.437507843598723">
        <ele>0</ele>
        <time>2010-01-02T18:19:04Z</time>
      </trkpt>
      <trkpt lat="54.170383522287011" lon="10.437697358429432">
        <ele>0</ele>
        <time>2010-01-02T18:19:12Z</time>
      </trkpt>
      <trkpt lat="54.17050464078784" lon="10.437863152474165">
        <ele>0</ele>
        <time>2010-01-02T18:19:18Z</time>
      </trkpt>
      <trkpt lat="54.170846873894334" lon="10.438326001167297">
        <ele>0</ele>
        <time>2010-01-02T18:19:36Z</time>
      </trkpt>
      <trkpt lat="54.17088819667697" lon="10.438400935381651">
        <ele>0</ele>
        <time>2010-01-02T18:19:38Z</time>
      </trkpt>
      <trkpt lat="54.171032449230552" lon="10.438660187646747">
        <ele>0</ele>
        <time>2010-01-02T18:19:47Z</time>
      </trkpt>
      <trkpt lat="54.17113202624023" lon="10.438824472948909">
        <ele>0</ele>
        <time>2010-01-02T18:19:52Z</time>
      </trkpt>
      <trkpt lat="54.171205116435885" lon="10.438944920897484">
        <ele>0</ele>
        <time>2010-01-02T18:19:56Z</time>
      </trkpt>
      <trkpt lat="54.171300334855914" lon="10.439099818468094">
        <ele>0</ele>
        <time>2010-01-02T18:20:02Z</time>
      </trkpt>
      <trkpt lat="54.171395217999816" lon="10.439201071858406">
        <ele>0</ele>
        <time>2010-01-02T18:20:06Z</time>
      </trkpt>
      <trkpt lat="54.171508960425854" lon="10.439328979700804">
        <ele>0</ele>
        <time>2010-01-02T18:20:12Z</time>
      </trkpt>
      <trkpt lat="54.17151759378612" lon="10.439338618889451">
        <ele>0</ele>
        <time>2010-01-02T18:20:12Z</time>
      </trkpt>
      <trkpt lat="54.171603508293629" lon="10.439439620822668">
        <ele>0</ele>
        <time>2010-01-02T18:20:16Z</time>
      </trkpt>
      <trkpt lat="54.171663522720337" lon="10.439530480653048">
        <ele>0</ele>
        <time>2010-01-02T18:20:19Z</time>
      </trkpt>
      <trkpt lat="54.171753460541368" lon="10.439672973006964">
        <ele>0</ele>
        <time>2010-01-02T18:20:24Z</time>
      </trkpt>
      <trkpt lat="54.171832920983434" lon="10.439793672412634">
        <ele>0</ele>
        <time>2010-01-02T18:20:28Z</time>
      </trkpt>
      <trkpt lat="54.171840799972415" lon="10.439807754009962">
        <ele>0</ele>
        <time>2010-01-02T18:20:29Z</time>
      </trkpt>
      <trkpt lat="54.171933168545365" lon="10.439976314082742">
        <ele>0</ele>
        <time>2010-01-02T18:20:34Z</time>
      </trkpt>
      <trkpt lat="54.172015730291605" lon="10.440136911347508">
        <ele>0</ele>
        <time>2010-01-02T18:20:39Z</time>
      </trkpt>
      <trkpt lat="54.17212150990963" lon="10.440385518595576">
        <ele>0</ele>
        <time>2010-01-02T18:20:47Z</time>
      </trkpt>
      <trkpt lat="54.172173561528325" lon="10.440508397296071">
        <ele>0</ele>
        <time>2010-01-02T18:20:50Z</time>
      </trkpt>
      <trkpt lat="54.17223391123116" lon="10.440651141107082">
        <ele>0</ele>
        <time>2010-01-02T18:20:54Z</time>
      </trkpt>
      <trkpt lat="54.172373050823808" lon="10.440988596528769">
        <ele>0</ele>
        <time>2010-01-02T18:21:04Z</time>
      </trkpt>
      <trkpt lat="54.172447817400098" lon="10.441188002005219">
        <ele>0</ele>
        <time>2010-01-02T18:21:09Z</time>
      </trkpt>
      <trkpt lat="54.172476399689913" lon="10.441277185454965">
        <ele>0</ele>
        <time>2010-01-02T18:21:12Z</time>
      </trkpt>
      <trkpt lat="54.172559212893248" lon="10.441518081352115">
        <ele>0</ele>
        <time>2010-01-02T18:21:18Z</time>
      </trkpt>
      <trkpt lat="54.172667423263192" lon="10.441887639462948">
        <ele>0</ele>
        <time>2010-01-02T18:21:28Z</time>
      </trkpt>
      <trkpt lat="54.172750320285559" lon="10.442163739353418">
        <ele>0</ele>
        <time>2010-01-02T18:21:35Z</time>
      </trkpt>
      <trkpt lat="54.172838581725955" lon="10.442459536716342">
        <ele>0</ele>
        <time>2010-01-02T18:21:43Z</time>
      </trkpt>
      <trkpt lat="54.172865487635136" lon="10.442555090412498">
        <ele>0</ele>
        <time>2010-01-02T18:21:46Z</time>
      </trkpt>
      <trkpt lat="54.172956263646483" lon="10.442837728187442">
        <ele>0</ele>
        <time>2010-01-02T18:21:53Z</time>
      </trkpt>
      <trkpt lat="54.173049386590719" lon="10.44309563934803">
        <ele>0</ele>
        <time>2010-01-02T18:22:00Z</time>
      </trkpt>
      <trkpt lat="54.173175534233451" lon="10.443457318469882">
        <ele>0</ele>
        <time>2010-01-02T18:22:10Z</time>
      </trkpt>
      <trkpt lat="54.173220042139292" lon="10.443574832752347">
        <ele>0</ele>
        <time>2010-01-02T18:22:13Z</time>
      </trkpt>
      <trkpt lat="54.17329371906817" lon="10.443769125267863">
        <ele>0</ele>
        <time>2010-01-02T18:22:19Z</time>
      </trkpt>
      <trkpt lat="54.17344962246716" lon="10.444118063896894">
        <ele>0</ele>
        <time>2010-01-02T18:22:29Z</time>
      </trkpt>
      <trkpt lat="54.173650871962309" lon="10.444570770487189">
        <ele>0</ele>
        <time>2010-01-02T18:22:42Z</time>
      </trkpt>
      <trkpt lat="54.173770314082503" lon="10.444872016087174">
        <ele>0</ele>
        <time>2010-01-02T18:22:51Z</time>
      </trkpt>
      <trkpt lat="54.173875004053116" lon="10.445134537294507">
        <ele>0</ele>
        <time>2010-01-02T18:22:58Z</time>
      </trkpt>
      <trkpt lat="54.173953710123897" lon="10.445389933884144">
        <ele>0</ele>
        <time>2010-01-02T18:23:05Z</time>
      </trkpt>
      <trkpt lat="54.174000816419721" lon="10.445578442886472">
        <ele>0</ele>
        <time>2010-01-02T18:23:10Z</time>
      </trkpt>
      <trkpt lat="54.174028979614377" lon="10.445777010172606">
        <ele>0</ele>
        <time>2010-01-02T18:23:15Z</time>
      </trkpt>
      <trkpt lat="54.174034176394343" lon="10.445831660181284">
        <ele>0</ele>
        <time>2010-01-02T18:23:16Z</time>
      </trkpt>
      <trkpt lat="54.174040965735912" lon="10.445902990177274">
        <ele>0</ele>
        <time>2010-01-02T18:23:18Z</time>
      </trkpt>
      <trkpt lat="54.174048928543925" lon="10.445990581065416">
        <ele>0</ele>
        <time>2010-01-02T18:23:20Z</time>
      </trkpt>
      <trkpt lat="54.174078600481153" lon="10.446437252685428">
        <ele>0</ele>
        <time>2010-01-02T18:23:30Z</time>
      </trkpt>
      <trkpt lat="54.174079690128565" lon="10.446490896865726">
        <ele>0</ele>
        <time>2010-01-02T18:23:32Z</time>
      </trkpt>
      <trkpt lat="54.174090502783656" lon="10.446864981204271">
        <ele>0</ele>
        <time>2010-01-02T18:23:40Z</time>
      </trkpt>
      <trkpt lat="54.174096370115876" lon="10.447045862674713">
        <ele>0</ele>
        <time>2010-01-02T18:23:45Z</time>
      </trkpt>
      <trkpt lat="54.174099639058113" lon="10.447154743596911">
        <ele>0</ele>
        <time>2010-01-02T18:23:47Z</time>
      </trkpt>
      <trkpt lat="54.174122018739581" lon="10.447382144629955">
        <ele>0</ele>
        <time>2010-01-02T18:23:53Z</time>
      </trkpt>
      <trkpt lat="54.174166191369295" lon="10.447668554261327">
        <ele>0</ele>
        <time>2010-01-02T18:24:00Z</time>
      </trkpt>
      <trkpt lat="54.174217404797673" lon="10.447969045490026">
        <ele>0</ele>
        <time>2010-01-02T18:24:07Z</time>
      </trkpt>
      <trkpt lat="54.174261577427387" lon="10.448225447908044">
        <ele>0</ele>
        <time>2010-01-02T18:24:13Z</time>
      </trkpt>
      <trkpt lat="54.174326620995998" lon="10.448602298274636">
        <ele>0</ele>
        <time>2010-01-02T18:24:22Z</time>
      </trkpt>
      <trkpt lat="54.174329889938235" lon="10.448623839765787">
        <ele>0</ele>
        <time>2010-01-02T18:24:23Z</time>
      </trkpt>
      <trkpt lat="54.174411948770285" lon="10.449047880247235">
        <ele>0</ele>
        <time>2010-01-02T18:24:33Z</time>
      </trkpt>
      <trkpt lat="54.174473891034722" lon="10.449320040643215">
        <ele>0</ele>
        <time>2010-01-02T18:24:40Z</time>
      </trkpt>
      <trkpt lat="54.174551507458091" lon="10.449632601812482">
        <ele>0</ele>
        <time>2010-01-02T18:24:48Z</time>
      </trkpt>
      <trkpt lat="54.174628369510174" lon="10.449836198240519">
        <ele>0</ele>
        <time>2010-01-02T18:24:54Z</time>
      </trkpt>
      <trkpt lat="54.174698190763593" lon="10.44997114688158">
        <ele>0</ele>
        <time>2010-01-02T18:24:58Z</time>
      </trkpt>
      <trkpt lat="54.174778908491135" lon="10.450102910399437">
        <ele>0</ele>
        <time>2010-01-02T18:25:02Z</time>
      </trkpt>
      <trkpt lat="54.175240164622664" lon="10.45072115957737">
        <ele>0</ele>
        <time>2010-01-02T18:25:26Z</time>
      </trkpt>
      <trkpt lat="54.175329599529505" lon="10.450865747407079">
        <ele>0</ele>
        <time>2010-01-02T18:25:31Z</time>
      </trkpt>
      <trkpt lat="54.175372514873743" lon="10.450962642207742">
        <ele>0</ele>
        <time>2010-01-02T18:25:34Z</time>
      </trkpt>
      <trkpt lat="54.175405707210302" lon="10.451039336621761">
        <ele>0</ele>
        <time>2010-01-02T18:25:36Z</time>
      </trkpt>
      <trkpt lat="54.175634365528822" lon="10.451617687940598">
        <ele>0</ele>
        <time>2010-01-02T18:25:52Z</time>
      </trkpt>
      <trkpt lat="54.175687339156866" lon="10.451775770634413">
        <ele>0</ele>
        <time>2010-01-02T18:25:57Z</time>
      </trkpt>
      <trkpt lat="54.17572807520628" lon="10.451893620193005">
        <ele>0</ele>
        <time>2010-01-02T18:26:00Z</time>
      </trkpt>
      <trkpt lat="54.175779037177563" lon="10.452066957950592">
        <ele>0</ele>
        <time>2010-01-02T18:26:04Z</time>
      </trkpt>
      <trkpt lat="54.175834944471717" lon="10.45227256603539">
        <ele>0</ele>
        <time>2010-01-02T18:26:10Z</time>
      </trkpt>
      <trkpt lat="54.175893366336823" lon="10.452498290687799">
        <ele>0</ele>
        <time>2010-01-02T18:26:15Z</time>
      </trkpt>
      <trkpt lat="54.175984393805265" lon="10.452844547107816">
        <ele>0</ele>
        <time>2010-01-02T18:26:24Z</time>
      </trkpt>
      <trkpt lat="54.176027895882726" lon="10.453037498518825">
        <ele>0</ele>
        <time>2010-01-02T18:26:29Z</time>
      </trkpt>
      <trkpt lat="54.176065949723125" lon="10.453231791034341">
        <ele>0</ele>
        <time>2010-01-02T18:26:34Z</time>
      </trkpt>
      <trkpt lat="54.176099477335811" lon="10.453435136005282">
        <ele>0</ele>
        <time>2010-01-02T18:26:39Z</time>
      </trkpt>
      <trkpt lat="54.176126131787896" lon="10.453607635572553">
        <ele>0</ele>
        <time>2010-01-02T18:26:43Z</time>
      </trkpt>
      <trkpt lat="54.176143649965525" lon="10.453793546184897">
        <ele>0</ele>
        <time>2010-01-02T18:26:48Z</time>
      </trkpt>
      <trkpt lat="54.176174243912101" lon="10.454088672995567">
        <ele>0</ele>
        <time>2010-01-02T18:26:55Z</time>
      </trkpt>
      <trkpt lat="54.176332578063011" lon="10.455929087474942">
        <ele>0</ele>
        <time>2010-01-02T18:27:38Z</time>
      </trkpt>
      <trkpt lat="54.176369123160839" lon="10.456325551494956">
        <ele>0</ele>
        <time>2010-01-02T18:27:48Z</time>
      </trkpt>
      <trkpt lat="54.176372895017266" lon="10.456386907026172">
        <ele>0</ele>
        <time>2010-01-02T18:27:49Z</time>
      </trkpt>
      <trkpt lat="54.176373900845647" lon="10.456523280590773">
        <ele>0</ele>
        <time>2010-01-02T18:27:52Z</time>
      </trkpt>
      <trkpt lat="54.176376918330789" lon="10.45664289034903">
        <ele>0</ele>
        <time>2010-01-02T18:27:55Z</time>
      </trkpt>
      <trkpt lat="54.176372895017266" lon="10.456756046041846">
        <ele>0</ele>
        <time>2010-01-02T18:27:58Z</time>
      </trkpt>
      <trkpt lat="54.176364345476031" lon="10.456866016611457">
        <ele>0</ele>
        <time>2010-01-02T18:28:00Z</time>
      </trkpt>
      <trkpt lat="54.176351269707084" lon="10.456986548379064">
        <ele>0</ele>
        <time>2010-01-02T18:28:03Z</time>
      </trkpt>
      <trkpt lat="54.176349174231291" lon="10.45700641348958">
        <ele>0</ele>
        <time>2010-01-02T18:28:04Z</time>
      </trkpt>
      <trkpt lat="54.176329309120774" lon="10.457163490355015">
        <ele>0</ele>
        <time>2010-01-02T18:28:07Z</time>
      </trkpt>
      <trkpt lat="54.176275664940476" lon="10.457510752603412">
        <ele>0</ele>
        <time>2010-01-02T18:28:16Z</time>
      </trkpt>
      <trkpt lat="54.176259906962514" lon="10.457628099247813">
        <ele>0</ele>
        <time>2010-01-02T18:28:19Z</time>
      </trkpt>
      <trkpt lat="54.176245909184217" lon="10.457730274647474">
        <ele>0</ele>
        <time>2010-01-02T18:28:21Z</time>
      </trkpt>
      <trkpt lat="54.17623526416719" lon="10.457807974889874">
        <ele>0</ele>
        <time>2010-01-02T18:28:23Z</time>
      </trkpt>
      <trkpt lat="54.176205424591899" lon="10.458047445863485">
        <ele>0</ele>
        <time>2010-01-02T18:28:29Z</time>
      </trkpt>
      <trkpt lat="54.176181787624955" lon="10.458293119445443">
        <ele>0</ele>
        <time>2010-01-02T18:28:34Z</time>
      </trkpt>
      <trkpt lat="54.176167622208595" lon="10.458499398082495">
        <ele>0</ele>
        <time>2010-01-02T18:28:39Z</time>
      </trkpt>
      <trkpt lat="54.176154714077711" lon="10.45867508277297">
        <ele>0</ele>
        <time>2010-01-02T18:28:43Z</time>
      </trkpt>
      <trkpt lat="54.17615219950676" lon="10.458808271214366">
        <ele>0</ele>
        <time>2010-01-02T18:28:47Z</time>
      </trkpt>
      <trkpt lat="54.176153959706426" lon="10.458959983661771">
        <ele>0</ele>
        <time>2010-01-02T18:28:50Z</time>
      </trkpt>
      <trkpt lat="54.17616443708539" lon="10.459131896495819">
        <ele>0</ele>
        <time>2010-01-02T18:28:54Z</time>
      </trkpt>
      <trkpt lat="54.17617323808372" lon="10.459203226491809">
        <ele>0</ele>
        <time>2010-01-02T18:28:56Z</time>
      </trkpt>
      <trkpt lat="54.176180781796575" lon="10.459264162927866">
        <ele>0</ele>
        <time>2010-01-02T18:28:57Z</time>
      </trkpt>
      <trkpt lat="54.176203245297074" lon="10.459415037184954">
        <ele>0</ele>
        <time>2010-01-02T18:29:01Z</time>
      </trkpt>
      <trkpt lat="54.176237443462014" lon="10.459629110991955">
        <ele>0</ele>
        <time>2010-01-02T18:29:06Z</time>
      </trkpt>
      <trkpt lat="54.176332661882043" lon="10.460147112607956">
        <ele>0</ele>
        <time>2010-01-02T18:29:19Z</time>
      </trkpt>
      <trkpt lat="54.176369039341807" lon="10.460333693772554">
        <ele>0</ele>
        <time>2010-01-02T18:29:24Z</time>
      </trkpt>
      <trkpt lat="54.17641899548471" lon="10.460588168352842">
        <ele>0</ele>
        <time>2010-01-02T18:29:30Z</time>
      </trkpt>
      <trkpt lat="54.176479009911418" lon="10.460973149165511">
        <ele>0</ele>
        <time>2010-01-02T18:29:39Z</time>
      </trkpt>
      <trkpt lat="54.176577245816588" lon="10.461543370038271">
        <ele>0</ele>
        <time>2010-01-02T18:29:53Z</time>
      </trkpt>
      <trkpt lat="54.176697190850973" lon="10.462242923676968">
        <ele>0</ele>
        <time>2010-01-02T18:30:10Z</time>
      </trkpt>
      <trkpt lat="54.176774136722088" lon="10.462705604732037">
        <ele>0</ele>
        <time>2010-01-02T18:30:21Z</time>
      </trkpt>
      <trkpt lat="54.176839767023921" lon="10.463229306042194">
        <ele>0</ele>
        <time>2010-01-02T18:30:34Z</time>
      </trkpt>
      <trkpt lat="54.176867175847292" lon="10.463559972122312">
        <ele>0</ele>
        <time>2010-01-02T18:30:42Z</time>
      </trkpt>
      <trkpt lat="54.176885364577174" lon="10.463762814179063">
        <ele>0</ele>
        <time>2010-01-02T18:30:47Z</time>
      </trkpt>
      <trkpt lat="54.176902379840612" lon="10.463988538831472">
        <ele>0</ele>
        <time>2010-01-02T18:30:52Z</time>
      </trkpt>
      <trkpt lat="54.176918053999543" lon="10.464180568233132">
        <ele>0</ele>
        <time>2010-01-02T18:30:56Z</time>
      </trkpt>
      <trkpt lat="54.176925178617239" lon="10.464260447770357">
        <ele>0</ele>
        <time>2010-01-02T18:30:58Z</time>
      </trkpt>
      <trkpt lat="54.176941942423582" lon="10.464357510209084">
        <ele>0</ele>
        <time>2010-01-02T18:31:01Z</time>
      </trkpt>
      <trkpt lat="54.176962394267321" lon="10.464451722800732">
        <ele>0</ele>
        <time>2010-01-02T18:31:03Z</time>
      </trkpt>
      <trkpt lat="54.176983684301376" lon="10.464545851573348">
        <ele>0</ele>
        <time>2010-01-02T18:31:05Z</time>
      </trkpt>
      <trkpt lat="54.177023498341441" lon="10.464669819921255">
        <ele>0</ele>
        <time>2010-01-02T18:31:09Z</time>
      </trkpt>
      <trkpt lat="54.177105640992522" lon="10.464933095499873">
        <ele>0</ele>
        <time>2010-01-02T18:31:16Z</time>
      </trkpt>
      <trkpt lat="54.177160710096359" lon="10.465135686099529">
        <ele>0</ele>
        <time>2010-01-02T18:31:21Z</time>
      </trkpt>
      <trkpt lat="54.177202200517058" lon="10.465271892026067">
        <ele>0</ele>
        <time>2010-01-02T18:31:25Z</time>
      </trkpt>
      <trkpt lat="54.177217707037926" lon="10.465324530377984">
        <ele>0</ele>
        <time>2010-01-02T18:31:26Z</time>
      </trkpt>
      <trkpt lat="54.177266741171479" lon="10.465505495667458">
        <ele>0</ele>
        <time>2010-01-02T18:31:31Z</time>
      </trkpt>
      <trkpt lat="54.177322732284665" lon="10.465698949992657">
        <ele>0</ele>
        <time>2010-01-02T18:31:36Z</time>
      </trkpt>
      <trkpt lat="54.177380818873644" lon="10.465946048498154">
        <ele>0</ele>
        <time>2010-01-02T18:31:42Z</time>
      </trkpt>
      <trkpt lat="54.177428092807531" lon="10.466197337955236">
        <ele>0</ele>
        <time>2010-01-02T18:31:48Z</time>
      </trkpt>
      <trkpt lat="54.177485760301352" lon="10.466478131711483">
        <ele>0</ele>
        <time>2010-01-02T18:31:55Z</time>
      </trkpt>
      <trkpt lat="54.177648033946753" lon="10.467321686446667">
        <ele>0</ele>
        <time>2010-01-02T18:32:16Z</time>
      </trkpt>
      <trkpt lat="54.177734367549419" lon="10.467827199026942">
        <ele>0</ele>
        <time>2010-01-02T18:32:28Z</time>
      </trkpt>
      <trkpt lat="54.177774684503675" lon="10.468059880658984">
        <ele>0</ele>
        <time>2010-01-02T18:32:34Z</time>
      </trkpt>
      <trkpt lat="54.177798740565777" lon="10.468199187889695">
        <ele>0</ele>
        <time>2010-01-02T18:32:37Z</time>
      </trkpt>
      <trkpt lat="54.177839979529381" lon="10.468437904492021">
        <ele>0</ele>
        <time>2010-01-02T18:32:43Z</time>
      </trkpt>
      <trkpt lat="54.17785607278347" lon="10.468531446531415">
        <ele>0</ele>
        <time>2010-01-02T18:32:45Z</time>
      </trkpt>
      <trkpt lat="54.177955985069275" lon="10.469178277999163">
        <ele>0</ele>
        <time>2010-01-02T18:33:01Z</time>
      </trkpt>
      <trkpt lat="54.177960176020861" lon="10.469205938279629">
        <ele>0</ele>
        <time>2010-01-02T18:33:02Z</time>
      </trkpt>
      <trkpt lat="54.177993452176452" lon="10.469352705404162">
        <ele>0</ele>
        <time>2010-01-02T18:33:05Z</time>
      </trkpt>
      <trkpt lat="54.178044833242893" lon="10.469555128365755">
        <ele>0</ele>
        <time>2010-01-02T18:33:11Z</time>
      </trkpt>
      <trkpt lat="54.178092107176781" lon="10.469736009836197">
        <ele>0</ele>
        <time>2010-01-02T18:33:15Z</time>
      </trkpt>
      <trkpt lat="54.178156815469265" lon="10.469952765852213">
        <ele>0</ele>
        <time>2010-01-02T18:33:21Z</time>
      </trkpt>
      <trkpt lat="54.17832856066525" lon="10.470531703904271">
        <ele>0</ele>
        <time>2010-01-02T18:33:36Z</time>
      </trkpt>
      <trkpt lat="54.178366530686617" lon="10.470661707222462">
        <ele>0</ele>
        <time>2010-01-02T18:33:40Z</time>
      </trkpt>
      <trkpt lat="54.178391508758068" lon="10.470746783539653">
        <ele>0</ele>
        <time>2010-01-02T18:33:42Z</time>
      </trkpt>
      <trkpt lat="54.178443728014827" lon="10.470955409109592">
        <ele>0</ele>
        <time>2010-01-02T18:33:47Z</time>
      </trkpt>
      <trkpt lat="54.178498461842537" lon="10.471184067428112">
        <ele>0</ele>
        <time>2010-01-02T18:33:53Z</time>
      </trkpt>
      <trkpt lat="54.178547160699964" lon="10.471394117921591">
        <ele>0</ele>
        <time>2010-01-02T18:33:58Z</time>
      </trkpt>
      <trkpt lat="54.17858169414103" lon="10.471576089039445">
        <ele>0</ele>
        <time>2010-01-02T18:34:03Z</time>
      </trkpt>
      <trkpt lat="54.178618574514985" lon="10.471793347969651">
        <ele>0</ele>
        <time>2010-01-02T18:34:08Z</time>
      </trkpt>
      <trkpt lat="54.178660567849874" lon="10.472035333514214">
        <ele>0</ele>
        <time>2010-01-02T18:34:14Z</time>
      </trkpt>
      <trkpt lat="54.178662914782763" lon="10.472050588577986">
        <ele>0</ele>
        <time>2010-01-02T18:34:14Z</time>
      </trkpt>
      <trkpt lat="54.178683031350374" lon="10.472180088981986">
        <ele>0</ele>
        <time>2010-01-02T18:34:17Z</time>
      </trkpt>
      <trkpt lat="54.178708679974079" lon="10.472363317385316">
        <ele>0</ele>
        <time>2010-01-02T18:34:22Z</time>
      </trkpt>
      <trkpt lat="54.178731897845864" lon="10.472523411735892">
        <ele>0</ele>
        <time>2010-01-02T18:34:26Z</time>
      </trkpt>
      <trkpt lat="54.178759809583426" lon="10.472660707309842">
        <ele>0</ele>
        <time>2010-01-02T18:34:29Z</time>
      </trkpt>
      <trkpt lat="54.178764084354043" lon="10.472682332620025">
        <ele>0</ele>
        <time>2010-01-02T18:34:30Z</time>
      </trkpt>
      <trkpt lat="54.178804149851203" lon="10.472855251282454">
        <ele>0</ele>
        <time>2010-01-02T18:34:34Z</time>
      </trkpt>
      <trkpt lat="54.178836923092604" lon="10.47297284938395">
        <ele>0</ele>
        <time>2010-01-02T18:34:37Z</time>
      </trkpt>
      <trkpt lat="54.17887045070529" lon="10.473095057532191">
        <ele>0</ele>
        <time>2010-01-02T18:34:40Z</time>
      </trkpt>
      <trkpt lat="54.178913030773401" lon="10.473216008394957">
        <ele>0</ele>
        <time>2010-01-02T18:34:44Z</time>
      </trkpt>
      <trkpt lat="54.178949492052197" lon="10.473318435251713">
        <ele>0</ele>
        <time>2010-01-02T18:34:46Z</time>
      </trkpt>
      <trkpt lat="54.178996849805117" lon="10.473410468548536">
        <ele>0</ele>
        <time>2010-01-02T18:34:49Z</time>
      </trkpt>
      <trkpt lat="54.179052254185081" lon="10.473510464653373">
        <ele>0</ele>
        <time>2010-01-02T18:34:52Z</time>
      </trkpt>
      <trkpt lat="54.17909718118608" lon="10.473579447716475">
        <ele>0</ele>
        <time>2010-01-02T18:34:55Z</time>
      </trkpt>
      <trkpt lat="54.179153088480234" lon="10.473639629781246">
        <ele>0</ele>
        <time>2010-01-02T18:34:58Z</time>
      </trkpt>
      <trkpt lat="54.179188627749681" lon="10.473676174879074">
        <ele>0</ele>
        <time>2010-01-02T18:34:59Z</time>
      </trkpt>
      <trkpt lat="54.179233890026808" lon="10.473722191527486">
        <ele>0</ele>
        <time>2010-01-02T18:35:01Z</time>
      </trkpt>
      <trkpt lat="54.179369676858187" lon="10.473857223987579">
        <ele>0</ele>
        <time>2010-01-02T18:35:08Z</time>
      </trkpt>
      <trkpt lat="54.179485933855176" lon="10.473973145708442">
        <ele>0</ele>
        <time>2010-01-02T18:35:13Z</time>
      </trkpt>
      <trkpt lat="54.179577212780714" lon="10.474074482917786">
        <ele>0</ele>
        <time>2010-01-02T18:35:17Z</time>
      </trkpt>
      <trkpt lat="54.179639238864183" lon="10.474148662760854">
        <ele>0</ele>
        <time>2010-01-02T18:35:20Z</time>
      </trkpt>
      <trkpt lat="54.179715095087886" lon="10.47426626086235">
        <ele>0</ele>
        <time>2010-01-02T18:35:24Z</time>
      </trkpt>
      <trkpt lat="54.180108541622758" lon="10.475096153095365">
        <ele>0</ele>
        <time>2010-01-02T18:35:49Z</time>
      </trkpt>
      <trkpt lat="54.180172244086862" lon="10.475195981562138">
        <ele>0</ele>
        <time>2010-01-02T18:35:53Z</time>
      </trkpt>
      <trkpt lat="54.180236617103219" lon="10.475251469761133">
        <ele>0</ele>
        <time>2010-01-02T18:35:56Z</time>
      </trkpt>
      <trkpt lat="54.180297553539276" lon="10.47530067153275">
        <ele>0</ele>
        <time>2010-01-02T18:35:59Z</time>
      </trkpt>
      <trkpt lat="54.180377097800374" lon="10.475345011800528">
        <ele>0</ele>
        <time>2010-01-02T18:36:02Z</time>
      </trkpt>
      <trkpt lat="54.180451026186347" lon="10.475380886346102">
        <ele>0</ele>
        <time>2010-01-02T18:36:05Z</time>
      </trkpt>
      <trkpt lat="54.180467035621405" lon="10.475388681516051">
        <ele>0</ele>
        <time>2010-01-02T18:36:06Z</time>
      </trkpt>
      <trkpt lat="54.180507268756628" lon="10.475398069247603">
        <ele>0</ele>
        <time>2010-01-02T18:36:07Z</time>
      </trkpt>
      <trkpt lat="54.180551944300532" lon="10.475395806133747">
        <ele>0</ele>
        <time>2010-01-02T18:36:09Z</time>
      </trkpt>
      <trkpt lat="54.180636685341597" lon="10.475376192480326">
        <ele>0</ele>
        <time>2010-01-02T18:36:12Z</time>
      </trkpt>
      <trkpt lat="54.181060390546918" lon="10.475178463384509">
        <ele>0</ele>
        <time>2010-01-02T18:36:30Z</time>
      </trkpt>
      <trkpt lat="54.181180335581303" lon="10.475163292139769">
        <ele>0</ele>
        <time>2010-01-02T18:36:35Z</time>
      </trkpt>
      <trkpt lat="54.181311596184969" lon="10.475158346816897">
        <ele>0</ele>
        <time>2010-01-02T18:36:40Z</time>
      </trkpt>
      <trkpt lat="54.181396840140224" lon="10.475180810317397">
        <ele>0</ele>
        <time>2010-01-02T18:36:44Z</time>
      </trkpt>
      <trkpt lat="54.18154913932085" lon="10.47522054053843">
        <ele>0</ele>
        <time>2010-01-02T18:36:50Z</time>
      </trkpt>
      <trkpt lat="54.181648213416338" lon="10.47528306953609">
        <ele>0</ele>
        <time>2010-01-02T18:36:54Z</time>
      </trkpt>
      <trkpt lat="54.181821886450052" lon="10.475399661809206">
        <ele>0</ele>
        <time>2010-01-02T18:37:01Z</time>
      </trkpt>
      <trkpt lat="54.181985668838024" lon="10.475501418113708">
        <ele>0</ele>
        <time>2010-01-02T18:37:08Z</time>
      </trkpt>
      <trkpt lat="54.182350616902113" lon="10.475699147209525">
        <ele>0</ele>
        <time>2010-01-02T18:37:24Z</time>
      </trkpt>
      <trkpt lat="54.182662926614285" lon="10.475889835506678">
        <ele>0</ele>
        <time>2010-01-02T18:37:37Z</time>
      </trkpt>
      <trkpt lat="54.182779686525464" lon="10.475965356454253">
        <ele>0</ele>
        <time>2010-01-02T18:37:42Z</time>
      </trkpt>
      <trkpt lat="54.183100629597902" lon="10.476169791072607">
        <ele>0</ele>
        <time>2010-01-02T18:37:56Z</time>
      </trkpt>
      <trkpt lat="54.183333981782198" lon="10.476311864331365">
        <ele>0</ele>
        <time>2010-01-02T18:38:06Z</time>
      </trkpt>
      <trkpt lat="54.183545205742121" lon="10.476420912891626">
        <ele>0</ele>
        <time>2010-01-02T18:38:14Z</time>
      </trkpt>
      <trkpt lat="54.183749305084348" lon="10.476499116048217">
        <ele>0</ele>
        <time>2010-01-02T18:38:23Z</time>
      </trkpt>
      <trkpt lat="54.185013296082616" lon="10.476882420480251">
        <ele>0</ele>
        <time>2010-01-02T18:39:14Z</time>
      </trkpt>
      <trkpt lat="54.185092002153397" lon="10.476906979456544">
        <ele>0</ele>
        <time>2010-01-02T18:39:17Z</time>
      </trkpt>
      <trkpt lat="54.185238182544708" lon="10.476961126551032">
        <ele>0</ele>
        <time>2010-01-02T18:39:23Z</time>
      </trkpt>
      <trkpt lat="54.185339100658894" lon="10.477014183998108">
        <ele>0</ele>
        <time>2010-01-02T18:39:28Z</time>
      </trkpt>
      <trkpt lat="54.185496596619487" lon="10.477093979716301">
        <ele>0</ele>
        <time>2010-01-02T18:39:34Z</time>
      </trkpt>
      <trkpt lat="54.185642777010798" lon="10.477177882567048">
        <ele>0</ele>
        <time>2010-01-02T18:39:40Z</time>
      </trkpt>
      <trkpt lat="54.186149882152677" lon="10.477458257228136">
        <ele>0</ele>
        <time>2010-01-02T18:40:02Z</time>
      </trkpt>
      <trkpt lat="54.186309725046158" lon="10.481470171362162">
        <ele>0</ele>
        <time>2010-01-02T18:41:36Z</time>
      </trkpt>
      <trkpt lat="54.186373176053166" lon="10.48304102383554">
        <ele>0</ele>
        <time>2010-01-02T18:42:13Z</time>
      </trkpt>
      <trkpt lat="54.186389604583383" lon="10.483449306339025">
        <ele>0</ele>
        <time>2010-01-02T18:42:22Z</time>
      </trkpt>
      <trkpt lat="54.186452636495233" lon="10.484659066423774">
        <ele>0</ele>
        <time>2010-01-02T18:42:51Z</time>
      </trkpt>
      <trkpt lat="54.186462527140975" lon="10.484752859920263">
        <ele>0</ele>
        <time>2010-01-02T18:42:53Z</time>
      </trkpt>
      <trkpt lat="54.186463449150324" lon="10.484844977036119">
        <ele>0</ele>
        <time>2010-01-02T18:42:55Z</time>
      </trkpt>
      <trkpt lat="54.186462359502912" lon="10.484934663400054">
        <ele>0</ele>
        <time>2010-01-02T18:42:57Z</time>
      </trkpt>
      <trkpt lat="54.186459006741643" lon="10.484975902363658">
        <ele>0</ele>
        <time>2010-01-02T18:42:58Z</time>
      </trkpt>
      <trkpt lat="54.186448445543647" lon="10.485026445239782">
        <ele>0</ele>
        <time>2010-01-02T18:43:00Z</time>
      </trkpt>
      <trkpt lat="54.186432519927621" lon="10.485040359199047">
        <ele>0</ele>
        <time>2010-01-02T18:43:00Z</time>
      </trkpt>
      <trkpt lat="54.186412487179041" lon="10.485049327835441">
        <ele>0</ele>
        <time>2010-01-02T18:43:01Z</time>
      </trkpt>
      <trkpt lat="54.186148876324296" lon="10.485032647848129">
        <ele>0</ele>
        <time>2010-01-02T18:43:12Z</time>
      </trkpt>
      <trkpt lat="54.186059189960361" lon="10.485024601221085">
        <ele>0</ele>
        <time>2010-01-02T18:43:15Z</time>
      </trkpt>
      <trkpt lat="54.185949387028813" lon="10.485025523230433">
        <ele>0</ele>
        <time>2010-01-02T18:43:20Z</time>
      </trkpt>
      <trkpt lat="54.185876380652189" lon="10.485047148540616">
        <ele>0</ele>
        <time>2010-01-02T18:43:23Z</time>
      </trkpt>
      <trkpt lat="54.185814689844847" lon="10.48511428758502">
        <ele>0</ele>
        <time>2010-01-02T18:43:26Z</time>
      </trkpt>
      <trkpt lat="54.185743443667889" lon="10.485198106616735">
        <ele>0</ele>
        <time>2010-01-02T18:43:29Z</time>
      </trkpt>
      <trkpt lat="54.185769008472562" lon="10.485254684463143">
        <ele>0</ele>
        <time>2010-01-02T18:43:31Z</time>
      </trkpt>
      <trkpt lat="54.185776468366385" lon="10.485360296443105">
        <ele>0</ele>
        <time>2010-01-02T18:43:33Z</time>
      </trkpt>
      <trkpt lat="54.185778060927987" lon="10.485527347773314">
        <ele>0</ele>
        <time>2010-01-02T18:43:37Z</time>
      </trkpt>
      <trkpt lat="54.185777893289924" lon="10.485688196495175">
        <ele>0</ele>
        <time>2010-01-02T18:43:41Z</time>
      </trkpt>
      <trkpt lat="54.185776552185416" lon="10.485872011631727">
        <ele>0</ele>
        <time>2010-01-02T18:43:45Z</time>
      </trkpt>
      <trkpt lat="54.185778731480241" lon="10.486131012439728">
        <ele>0</ele>
        <time>2010-01-02T18:43:51Z</time>
      </trkpt>
      <trkpt lat="54.185783257707953" lon="10.486420691013336">
        <ele>0</ele>
        <time>2010-01-02T18:43:58Z</time>
      </trkpt>
      <trkpt lat="54.185787364840508" lon="10.486814556643367">
        <ele>0</ele>
        <time>2010-01-02T18:44:07Z</time>
      </trkpt>
      <trkpt lat="54.18579482473433" lon="10.48708445392549">
        <ele>0</ele>
        <time>2010-01-02T18:44:14Z</time>
      </trkpt>
      <trkpt lat="54.185796920210123" lon="10.487130470573902">
        <ele>0</ele>
        <time>2010-01-02T18:44:15Z</time>
      </trkpt>
      <trkpt lat="54.18580261990428" lon="10.487176654860377">
        <ele>0</ele>
        <time>2010-01-02T18:44:16Z</time>
      </trkpt>
      <trkpt lat="54.185812762007117" lon="10.487227533012629">
        <ele>0</ele>
        <time>2010-01-02T18:44:17Z</time>
      </trkpt>
      <trkpt lat="54.185829944908619" lon="10.487294001504779">
        <ele>0</ele>
        <time>2010-01-02T18:44:19Z</time>
      </trkpt>
      <trkpt lat="54.185856766998768" lon="10.487374635413289">
        <ele>0</ele>
        <time>2010-01-02T18:44:21Z</time>
      </trkpt>
      <trkpt lat="54.185894904658198" lon="10.487487874925137">
        <ele>0</ele>
        <time>2010-01-02T18:44:24Z</time>
      </trkpt>
      <trkpt lat="54.185954164713621" lon="10.487688370049">
        <ele>0</ele>
        <time>2010-01-02T18:44:29Z</time>
      </trkpt>
      <trkpt lat="54.185983166098595" lon="10.487804794684052">
        <ele>0</ele>
        <time>2010-01-02T18:44:32Z</time>
      </trkpt>
      <trkpt lat="54.18599758297205" lon="10.487922811880708">
        <ele>0</ele>
        <time>2010-01-02T18:44:35Z</time>
      </trkpt>
      <trkpt lat="54.186002947390079" lon="10.488038817420602">
        <ele>0</ele>
        <time>2010-01-02T18:44:38Z</time>
      </trkpt>
      <trkpt lat="54.185998924076557" lon="10.488155409693718">
        <ele>0</ele>
        <time>2010-01-02T18:44:40Z</time>
      </trkpt>
      <trkpt lat="54.185961540788412" lon="10.488157756626606">
        <ele>0</ele>
        <time>2010-01-02T18:44:42Z</time>
      </trkpt>
      <trkpt lat="54.185876129195094" lon="10.488169994205236">
        <ele>0</ele>
        <time>2010-01-02T18:44:45Z</time>
      </trkpt>
      <trkpt lat="54.185749813914299" lon="10.488192290067673">
        <ele>0</ele>
        <time>2010-01-02T18:44:50Z</time>
      </trkpt>
      <trkpt lat="54.185670437291265" lon="10.488212238997221">
        <ele>0</ele>
        <time>2010-01-02T18:44:54Z</time>
      </trkpt>
      <trkpt lat="54.185582427307963" lon="10.488239983096719">
        <ele>0</ele>
        <time>2010-01-02T18:44:57Z</time>
      </trkpt>
      <trkpt lat="54.185466421768069" lon="10.488276109099388">
        <ele>0</ele>
        <time>2010-01-02T18:45:02Z</time>
      </trkpt>
      <trkpt lat="54.185395929962397" lon="10.488317096605897">
        <ele>0</ele>
        <time>2010-01-02T18:45:05Z</time>
      </trkpt>
      <trkpt lat="54.185316720977426" lon="10.488395467400551">
        <ele>0</ele>
        <time>2010-01-02T18:45:09Z</time>
      </trkpt>
      <trkpt lat="54.185230135917664" lon="10.488499570637941">
        <ele>0</ele>
        <time>2010-01-02T18:45:13Z</time>
      </trkpt>
      <trkpt lat="54.185144221410155" lon="10.488615995272994">
        <ele>0</ele>
        <time>2010-01-02T18:45:17Z</time>
      </trkpt>
      <trkpt lat="54.185055708512664" lon="10.488729234784842">
        <ele>0</ele>
        <time>2010-01-02T18:45:22Z</time>
      </trkpt>
      <trkpt lat="54.184976499527693" lon="10.488812131807208">
        <ele>0</ele>
        <time>2010-01-02T18:45:25Z</time>
      </trkpt>
      <trkpt lat="54.184898296371102" lon="10.488882875069976">
        <ele>0</ele>
        <time>2010-01-02T18:45:29Z</time>
      </trkpt>
      <trkpt lat="54.184782290831208" lon="10.488964514806867">
        <ele>0</ele>
        <time>2010-01-02T18:45:34Z</time>
      </trkpt>
      <trkpt lat="54.184639127925038" lon="10.489060487598181">
        <ele>0</ele>
        <time>2010-01-02T18:45:40Z</time>
      </trkpt>
      <trkpt lat="54.184514153748751" lon="10.489144809544086">
        <ele>0</ele>
        <time>2010-01-02T18:45:45Z</time>
      </trkpt>
      <trkpt lat="54.184307707473636" lon="10.48926760442555">
        <ele>0</ele>
        <time>2010-01-02T18:45:54Z</time>
      </trkpt>
      <trkpt lat="54.184149205684662" lon="10.48937221057713">
        <ele>0</ele>
        <time>2010-01-02T18:46:01Z</time>
      </trkpt>
      <trkpt lat="54.183928174898028" lon="10.489518977701664">
        <ele>0</ele>
        <time>2010-01-02T18:46:11Z</time>
      </trkpt>
      <trkpt lat="54.183727009221911" lon="10.489655686542392">
        <ele>0</ele>
        <time>2010-01-02T18:46:19Z</time>
      </trkpt>
      <trkpt lat="54.183518718928099" lon="10.489789126440883">
        <ele>0</ele>
        <time>2010-01-02T18:46:28Z</time>
      </trkpt>
      <trkpt lat="54.183123763650656" lon="10.490047624334693">
        <ele>0</ele>
        <time>2010-01-02T18:46:45Z</time>
      </trkpt>
      <trkpt lat="54.18300717137754" lon="10.490098586305976">
        <ele>0</ele>
        <time>2010-01-02T18:46:50Z</time>
      </trkpt>
      <trkpt lat="54.182955706492066" lon="10.490121217444539">
        <ele>0</ele>
        <time>2010-01-02T18:46:52Z</time>
      </trkpt>
      <trkpt lat="54.182897871360183" lon="10.490146698430181">
        <ele>0</ele>
        <time>2010-01-02T18:46:54Z</time>
      </trkpt>
      <trkpt lat="54.182819416746497" lon="10.490173017606139">
        <ele>0</ele>
        <time>2010-01-02T18:46:58Z</time>
      </trkpt>
      <trkpt lat="54.182773400098085" lon="10.490189697593451">
        <ele>0</ele>
        <time>2010-01-02T18:46:59Z</time>
      </trkpt>
      <trkpt lat="54.182707518339157" lon="10.490211909636855">
        <ele>0</ele>
        <time>2010-01-02T18:47:02Z</time>
      </trkpt>
      <trkpt lat="54.182523367926478" lon="10.490277204662561">
        <ele>0</ele>
        <time>2010-01-02T18:47:10Z</time>
      </trkpt>
      <trkpt lat="54.182438207790256" lon="10.490319952368736">
        <ele>0</ele>
        <time>2010-01-02T18:47:13Z</time>
      </trkpt>
      <trkpt lat="54.182284232228994" lon="10.490404525771737">
        <ele>0</ele>
        <time>2010-01-02T18:47:20Z</time>
      </trkpt>
      <trkpt lat="54.182199072092772" lon="10.49045548774302">
        <ele>0</ele>
        <time>2010-01-02T18:47:23Z</time>
      </trkpt>
      <trkpt lat="54.182106954976916" lon="10.490517765283585">
        <ele>0</ele>
        <time>2010-01-02T18:47:27Z</time>
      </trkpt>
      <trkpt lat="54.18204165995121" lon="10.490571660920978">
        <ele>0</ele>
        <time>2010-01-02T18:47:30Z</time>
      </trkpt>
      <trkpt lat="54.181973515078425" lon="10.490633687004447">
        <ele>0</ele>
        <time>2010-01-02T18:47:33Z</time>
      </trkpt>
      <trkpt lat="54.181911488994956" lon="10.490698562934995">
        <ele>0</ele>
        <time>2010-01-02T18:47:36Z</time>
      </trkpt>
      <trkpt lat="54.181839236989617" lon="10.490789087489247">
        <ele>0</ele>
        <time>2010-01-02T18:47:40Z</time>
      </trkpt>
      <trkpt lat="54.181645698845387" lon="10.491065187379718">
        <ele>0</ele>
        <time>2010-01-02T18:47:50Z</time>
      </trkpt>
      <trkpt lat="54.181348811835051" lon="10.491532394662499">
        <ele>0</ele>
        <time>2010-01-02T18:48:06Z</time>
      </trkpt>
      <trkpt lat="54.181043542921543" lon="10.492094317451119">
        <ele>0</ele>
        <time>2010-01-02T18:48:24Z</time>
      </trkpt>
      <trkpt lat="54.180703070014715" lon="10.492668729275465">
        <ele>0</ele>
        <time>2010-01-02T18:48:43Z</time>
      </trkpt>
      <trkpt lat="54.180515483021736" lon="10.492942230775952">
        <ele>0</ele>
        <time>2010-01-02T18:48:53Z</time>
      </trkpt>
      <trkpt lat="54.18029336258769" lon="10.493245152756572">
        <ele>0</ele>
        <time>2010-01-02T18:49:04Z</time>
      </trkpt>
      <trkpt lat="54.180108876898885" lon="10.493485126644373">
        <ele>0</ele>
        <time>2010-01-02T18:49:14Z</time>
      </trkpt>
      <trkpt lat="54.180010221898556" lon="10.493619404733181">
        <ele>0</ele>
        <time>2010-01-02T18:49:19Z</time>
      </trkpt>
      <trkpt lat="54.179929755628109" lon="10.493728369474411">
        <ele>0</ele>
        <time>2010-01-02T18:49:23Z</time>
      </trkpt>
      <trkpt lat="54.179876698181033" lon="10.493790647014976">
        <ele>0</ele>
        <time>2010-01-02T18:49:25Z</time>
      </trkpt>
      <trkpt lat="54.179409155622125" lon="10.494339074939489">
        <ele>0</ele>
        <time>2010-01-02T18:49:48Z</time>
      </trkpt>
      <trkpt lat="54.179040770977736" lon="10.494771664962173">
        <ele>0</ele>
        <time>2010-01-02T18:50:06Z</time>
      </trkpt>
      <trkpt lat="54.178750170394778" lon="10.495141809806228">
        <ele>0</ele>
        <time>2010-01-02T18:50:20Z</time>
      </trkpt>
      <trkpt lat="54.178699627518654" lon="10.49518933519721">
        <ele>0</ele>
        <time>2010-01-02T18:50:23Z</time>
      </trkpt>
      <trkpt lat="54.178640116006136" lon="10.495224287733436">
        <ele>0</ele>
        <time>2010-01-02T18:50:25Z</time>
      </trkpt>
      <trkpt lat="54.178575994446874" lon="10.495249349623919">
        <ele>0</ele>
        <time>2010-01-02T18:50:28Z</time>
      </trkpt>
      <trkpt lat="54.178511956706643" lon="10.49526846036315">
        <ele>0</ele>
        <time>2010-01-02T18:50:31Z</time>
      </trkpt>
      <trkpt lat="54.178044078871608" lon="10.495327720418572">
        <ele>0</ele>
        <time>2010-01-02T18:50:49Z</time>
      </trkpt>
      <trkpt lat="54.177985824644566" lon="10.495329732075334">
        <ele>0</ele>
        <time>2010-01-02T18:50:52Z</time>
      </trkpt>
      <trkpt lat="54.177716262638569" lon="10.495391255244613">
        <ele>0</ele>
        <time>2010-01-02T18:51:03Z</time>
      </trkpt>
      <trkpt lat="54.177621463313699" lon="10.495419837534428">
        <ele>0</ele>
        <time>2010-01-02T18:51:06Z</time>
      </trkpt>
      <trkpt lat="54.17748274281621" lon="10.495488820597529">
        <ele>0</ele>
        <time>2010-01-02T18:51:12Z</time>
      </trkpt>
      <trkpt lat="54.177403030917048" lon="10.49552452750504">
        <ele>0</ele>
        <time>2010-01-02T18:51:15Z</time>
      </trkpt>
      <trkpt lat="54.17733077891171" lon="10.495560318231583">
        <ele>0</ele>
        <time>2010-01-02T18:51:19Z</time>
      </trkpt>
      <trkpt lat="54.177241763100028" lon="10.495576411485672">
        <ele>0</ele>
        <time>2010-01-02T18:51:22Z</time>
      </trkpt>
      <trkpt lat="54.177177557721734" lon="10.495577333495021">
        <ele>0</ele>
        <time>2010-01-02T18:51:25Z</time>
      </trkpt>
      <trkpt lat="54.177090972661972" lon="10.495575908571482">
        <ele>0</ele>
        <time>2010-01-02T18:51:28Z</time>
      </trkpt>
      <trkpt lat="54.17703271843493" lon="10.495564341545105">
        <ele>0</ele>
        <time>2010-01-02T18:51:30Z</time>
      </trkpt>
      <trkpt lat="54.176950994879007" lon="10.495552271604538">
        <ele>0</ele>
        <time>2010-01-02T18:51:34Z</time>
      </trkpt>
      <trkpt lat="54.176868852227926" lon="10.495542297139764">
        <ele>0</ele>
        <time>2010-01-02T18:51:37Z</time>
      </trkpt>
      <trkpt lat="54.176773298531771" lon="10.495504830032587">
        <ele>0</ele>
        <time>2010-01-02T18:51:41Z</time>
      </trkpt>
      <trkpt lat="54.176673553884029" lon="10.495471805334091">
        <ele>0</ele>
        <time>2010-01-02T18:51:45Z</time>
      </trkpt>
      <trkpt lat="54.176578419283032" lon="10.495460741221905">
        <ele>0</ele>
        <time>2010-01-02T18:51:49Z</time>
      </trkpt>
      <trkpt lat="54.176325285807252" lon="10.495443977415562">
        <ele>0</ele>
        <time>2010-01-02T18:51:59Z</time>
      </trkpt>
      <trkpt lat="54.176177009940147" lon="10.495443223044276">
        <ele>0</ele>
        <time>2010-01-02T18:52:05Z</time>
      </trkpt>
      <trkpt lat="54.176064692437649" lon="10.495442217215896">
        <ele>0</ele>
        <time>2010-01-02T18:52:09Z</time>
      </trkpt>
      <trkpt lat="54.175791190937161" lon="10.495469123125076">
        <ele>0</ele>
        <time>2010-01-02T18:52:20Z</time>
      </trkpt>
      <trkpt lat="54.175738049671054" lon="10.495480941608548">
        <ele>0</ele>
        <time>2010-01-02T18:52:23Z</time>
      </trkpt>
      <trkpt lat="54.175681304186583" lon="10.495494185015559">
        <ele>0</ele>
        <time>2010-01-02T18:52:25Z</time>
      </trkpt>
      <trkpt lat="54.175635203719139" lon="10.495508601889014">
        <ele>0</ele>
        <time>2010-01-02T18:52:27Z</time>
      </trkpt>
      <trkpt lat="54.175598323345184" lon="10.495525952428579">
        <ele>0</ele>
        <time>2010-01-02T18:52:28Z</time>
      </trkpt>
      <trkpt lat="54.175559347495437" lon="10.495559815317392">
        <ele>0</ele>
        <time>2010-01-02T18:52:30Z</time>
      </trkpt>
      <trkpt lat="54.175533195957541" lon="10.495595606043935">
        <ele>0</ele>
        <time>2010-01-02T18:52:31Z</time>
      </trkpt>
      <trkpt lat="54.175569154322147" lon="10.495646819472313">
        <ele>0</ele>
        <time>2010-01-02T18:52:33Z</time>
      </trkpt>
      <trkpt lat="54.175636796280742" lon="10.49580154940486">
        <ele>0</ele>
        <time>2010-01-02T18:52:38Z</time>
      </trkpt>
      <trkpt lat="54.175681974738836" lon="10.49591051414609">
        <ele>0</ele>
        <time>2010-01-02T18:52:41Z</time>
      </trkpt>
      <trkpt lat="54.175729667767882" lon="10.496039679273963">
        <ele>0</ele>
        <time>2010-01-02T18:52:44Z</time>
      </trkpt>
      <trkpt lat="54.175843242555857" lon="10.496347462758422">
        <ele>0</ele>
        <time>2010-01-02T18:52:53Z</time>
      </trkpt>
      <trkpt lat="54.175911387428641" lon="10.4965799767524">
        <ele>0</ele>
        <time>2010-01-02T18:52:59Z</time>
      </trkpt>
      <trkpt lat="54.17599244043231" lon="10.49688340164721">
        <ele>0</ele>
        <time>2010-01-02T18:53:07Z</time>
      </trkpt>
      <trkpt lat="54.176142057403922" lon="10.49739595502615">
        <ele>0</ele>
        <time>2010-01-02T18:53:20Z</time>
      </trkpt>
      <trkpt lat="54.176216488704085" lon="10.497683370485902">
        <ele>0</ele>
        <time>2010-01-02T18:53:28Z</time>
      </trkpt>
      <trkpt lat="54.176352359354496" lon="10.498191565275192">
        <ele>0</ele>
        <time>2010-01-02T18:53:41Z</time>
      </trkpt>
      <trkpt lat="54.176470125094056" lon="10.498679308220744">
        <ele>0</ele>
        <time>2010-01-02T18:53:53Z</time>
      </trkpt>
      <trkpt lat="54.17649426497519" lon="10.498766144737601">
        <ele>0</ele>
        <time>2010-01-02T18:53:55Z</time>
      </trkpt>
      <trkpt lat="54.176553189754486" lon="10.498967478051782">
        <ele>0</ele>
        <time>2010-01-02T18:54:01Z</time>
      </trkpt>
      <trkpt lat="54.176678750663996" lon="10.499416831880808">
        <ele>0</ele>
        <time>2010-01-02T18:54:12Z</time>
      </trkpt>
      <trkpt lat="54.176843538880348" lon="10.499879596754909">
        <ele>0</ele>
        <time>2010-01-02T18:54:25Z</time>
      </trkpt>
      <trkpt lat="54.176867762580514" lon="10.499950675293803">
        <ele>0</ele>
        <time>2010-01-02T18:54:27Z</time>
      </trkpt>
      <trkpt lat="54.176881005987525" lon="10.500003816559911">
        <ele>0</ele>
        <time>2010-01-02T18:54:28Z</time>
      </trkpt>
      <trkpt lat="54.176889639347792" lon="10.500043295323849">
        <ele>0</ele>
        <time>2010-01-02T18:54:29Z</time>
      </trkpt>
      <trkpt lat="54.176903553307056" lon="10.500154606997967">
        <ele>0</ele>
        <time>2010-01-02T18:54:32Z</time>
      </trkpt>
      <trkpt lat="54.176611192524433" lon="10.500984918326139">
        <ele>0</ele>
        <time>2010-01-02T18:54:55Z</time>
      </trkpt>
      <trkpt lat="54.176327381283045" lon="10.501791341230273">
        <ele>0</ele>
        <time>2010-01-02T18:55:17Z</time>
      </trkpt>
      <trkpt lat="54.176240544766188" lon="10.502039529383183">
        <ele>0</ele>
        <time>2010-01-02T18:55:23Z</time>
      </trkpt>
      <trkpt lat="54.176098220050335" lon="10.502444375306368">
        <ele>0</ele>
        <time>2010-01-02T18:55:35Z</time>
      </trkpt>
      <trkpt lat="54.175979867577553" lon="10.502751907333732">
        <ele>0</ele>
        <time>2010-01-02T18:55:43Z</time>
      </trkpt>
      <trkpt lat="54.175880625844002" lon="10.503009734675288">
        <ele>0</ele>
        <time>2010-01-02T18:55:50Z</time>
      </trkpt>
      <trkpt lat="54.175776690244675" lon="10.503244763240218">
        <ele>0</ele>
        <time>2010-01-02T18:55:57Z</time>
      </trkpt>
      <trkpt lat="54.17567485012114" lon="10.503441402688622">
        <ele>0</ele>
        <time>2010-01-02T18:56:03Z</time>
      </trkpt>
      <trkpt lat="54.175538644194603" lon="10.503686824813485">
        <ele>0</ele>
        <time>2010-01-02T18:56:11Z</time>
      </trkpt>
      <trkpt lat="54.175438983365893" lon="10.503834346309304">
        <ele>0</ele>
        <time>2010-01-02T18:56:17Z</time>
      </trkpt>
      <trkpt lat="54.175385003909469" lon="10.503903664648533">
        <ele>0</ele>
        <time>2010-01-02T18:56:19Z</time>
      </trkpt>
      <trkpt lat="54.175126757472754" lon="10.504231564700603">
        <ele>0</ele>
        <time>2010-01-02T18:56:32Z</time>
      </trkpt>
      <trkpt lat="54.175052158534527" lon="10.504306247457862">
        <ele>0</ele>
        <time>2010-01-02T18:56:36Z</time>
      </trkpt>
      <trkpt lat="54.174976218491793" lon="10.504413116723299">
        <ele>0</ele>
        <time>2010-01-02T18:56:40Z</time>
      </trkpt>
      <trkpt lat="54.1749550960958" lon="10.504449158906937">
        <ele>0</ele>
        <time>2010-01-02T18:56:41Z</time>
      </trkpt>
      <trkpt lat="54.174911174923182" lon="10.504527278244495">
        <ele>0</ele>
        <time>2010-01-02T18:56:43Z</time>
      </trkpt>
      <trkpt lat="54.174822326749563" lon="10.504679074510932">
        <ele>0</ele>
        <time>2010-01-02T18:56:48Z</time>
      </trkpt>
      <trkpt lat="54.174714116379619" lon="10.504868254065514">
        <ele>0</ele>
        <time>2010-01-02T18:56:55Z</time>
      </trkpt>
      <trkpt lat="54.174609929323196" lon="10.505084926262498">
        <ele>0</ele>
        <time>2010-01-02T18:57:01Z</time>
      </trkpt>
      <trkpt lat="54.174520745873451" lon="10.505285672843456">
        <ele>0</ele>
        <time>2010-01-02T18:57:07Z</time>
      </trkpt>
      <trkpt lat="54.174431394785643" lon="10.505474181845784">
        <ele>0</ele>
        <time>2010-01-02T18:57:13Z</time>
      </trkpt>
      <trkpt lat="54.174356544390321" lon="10.505665289238095">
        <ele>0</ele>
        <time>2010-01-02T18:57:18Z</time>
      </trkpt>
      <trkpt lat="54.174297284334898" lon="10.505812894552946">
        <ele>0</ele>
        <time>2010-01-02T18:57:22Z</time>
      </trkpt>
      <trkpt lat="54.174247579649091" lon="10.50593719817698">
        <ele>0</ele>
        <time>2010-01-02T18:57:26Z</time>
      </trkpt>
      <trkpt lat="54.174172645434737" lon="10.50612679682672">
        <ele>0</ele>
        <time>2010-01-02T18:57:31Z</time>
      </trkpt>
      <trkpt lat="54.174151690676808" lon="10.50617809407413">
        <ele>0</ele>
        <time>2010-01-02T18:57:33Z</time>
      </trkpt>
      <trkpt lat="54.174132579937577" lon="10.506227798759937">
        <ele>0</ele>
        <time>2010-01-02T18:57:34Z</time>
      </trkpt>
      <trkpt lat="54.174106512218714" lon="10.506296111270785">
        <ele>0</ele>
        <time>2010-01-02T18:57:36Z</time>
      </trkpt>
      <trkpt lat="54.174081617966294" lon="10.506390407681465">
        <ele>0</ele>
        <time>2010-01-02T18:57:38Z</time>
      </trkpt>
      <trkpt lat="54.174067871645093" lon="10.506446063518524">
        <ele>0</ele>
        <time>2010-01-02T18:57:40Z</time>
      </trkpt>
      <trkpt lat="54.174055047333241" lon="10.506497025489807">
        <ele>0</ele>
        <time>2010-01-02T18:57:41Z</time>
      </trkpt>
      <trkpt lat="54.173840386793017" lon="10.507518611848354">
        <ele>0</ele>
        <time>2010-01-02T18:58:07Z</time>
      </trkpt>
      <trkpt lat="54.173801830038428" lon="10.507745174691081">
        <ele>0</ele>
        <time>2010-01-02T18:58:12Z</time>
      </trkpt>
      <trkpt lat="54.173766374588013" lon="10.507997637614608">
        <ele>0</ele>
        <time>2010-01-02T18:58:18Z</time>
      </trkpt>
      <trkpt lat="54.173702839761972" lon="10.50845168530941">
        <ele>0</ele>
        <time>2010-01-02T18:58:29Z</time>
      </trkpt>
      <trkpt lat="54.173621451482177" lon="10.50899064168334">
        <ele>0</ele>
        <time>2010-01-02T18:58:42Z</time>
      </trkpt>
      <trkpt lat="54.173525646328926" lon="10.509603610262275">
        <ele>0</ele>
        <time>2010-01-02T18:58:57Z</time>
      </trkpt>
      <trkpt lat="54.173496142029762" lon="10.509828245267272">
        <ele>0</ele>
        <time>2010-01-02T18:59:02Z</time>
      </trkpt>
      <trkpt lat="54.173469068482518" lon="10.510039050132036">
        <ele>0</ele>
        <time>2010-01-02T18:59:07Z</time>
      </trkpt>
      <trkpt lat="54.17343445122242" lon="10.510364938527346">
        <ele>0</ele>
        <time>2010-01-02T18:59:15Z</time>
      </trkpt>
      <trkpt lat="54.173421123996377" lon="10.510773891583085">
        <ele>0</ele>
        <time>2010-01-02T18:59:25Z</time>
      </trkpt>
      <trkpt lat="54.173415172845125" lon="10.510908421128988">
        <ele>0</ele>
        <time>2010-01-02T18:59:28Z</time>
      </trkpt>
      <trkpt lat="54.173424895852804" lon="10.511080669239163">
        <ele>0</ele>
        <time>2010-01-02T18:59:32Z</time>
      </trkpt>
      <trkpt lat="54.173449371010065" lon="10.511274877935648">
        <ele>0</ele>
        <time>2010-01-02T18:59:37Z</time>
      </trkpt>
      <trkpt lat="54.173505613580346" lon="10.511525329202414">
        <ele>0</ele>
        <time>2010-01-02T18:59:43Z</time>
      </trkpt>
      <trkpt lat="54.173576943576336" lon="10.51182322204113">
        <ele>0</ele>
        <time>2010-01-02T18:59:51Z</time>
      </trkpt>
      <trkpt lat="54.173664702102542" lon="10.512235695496202">
        <ele>0</ele>
        <time>2010-01-02T19:00:01Z</time>
      </trkpt>
      <trkpt lat="54.173707952722907" lon="10.512393862009048">
        <ele>0</ele>
        <time>2010-01-02T19:00:05Z</time>
      </trkpt>
      <trkpt lat="54.173733098432422" lon="10.512597626075149">
        <ele>0</ele>
        <time>2010-01-02T19:00:10Z</time>
      </trkpt>
      <trkpt lat="54.173734020441771" lon="10.512667866423726">
        <ele>0</ele>
        <time>2010-01-02T19:00:11Z</time>
      </trkpt>
      <trkpt lat="54.173742737621069" lon="10.512769874185324">
        <ele>0</ele>
        <time>2010-01-02T19:00:14Z</time>
      </trkpt>
      <trkpt lat="54.17374131269753" lon="10.512961819767952">
        <ele>0</ele>
        <time>2010-01-02T19:00:18Z</time>
      </trkpt>
      <trkpt lat="54.173733182251453" lon="10.5132114328444">
        <ele>0</ele>
        <time>2010-01-02T19:00:24Z</time>
      </trkpt>
      <trkpt lat="54.17370124720037" lon="10.513973431661725">
        <ele>0</ele>
        <time>2010-01-02T19:00:42Z</time>
      </trkpt>
      <trkpt lat="54.173641568049788" lon="10.514928130432963">
        <ele>0</ele>
        <time>2010-01-02T19:01:05Z</time>
      </trkpt>
      <trkpt lat="54.173584319651127" lon="10.515855839475989">
        <ele>0</ele>
        <time>2010-01-02T19:01:26Z</time>
      </trkpt>
      <trkpt lat="54.1735580842942" lon="10.51700902171433">
        <ele>0</ele>
        <time>2010-01-02T19:01:53Z</time>
      </trkpt>
      <trkpt lat="54.173556491732597" lon="10.517175318673253">
        <ele>0</ele>
        <time>2010-01-02T19:01:57Z</time>
      </trkpt>
      <trkpt lat="54.173569651320577" lon="10.517334658652544">
        <ele>0</ele>
        <time>2010-01-02T19:02:01Z</time>
      </trkpt>
      <trkpt lat="54.17357468046248" lon="10.517436834052205">
        <ele>0</ele>
        <time>2010-01-02T19:02:04Z</time>
      </trkpt>
      <trkpt lat="54.173591444268823" lon="10.51757681183517">
        <ele>0</ele>
        <time>2010-01-02T19:02:07Z</time>
      </trkpt>
      <trkpt lat="54.173641903325915" lon="10.518007390201092">
        <ele>0</ele>
        <time>2010-01-02T19:02:17Z</time>
      </trkpt>
      <trkpt lat="54.173693284392357" lon="10.518311820924282">
        <ele>0</ele>
        <time>2010-01-02T19:02:25Z</time>
      </trkpt>
      <trkpt lat="54.173793867230415" lon="10.518888663500547">
        <ele>0</ele>
        <time>2010-01-02T19:02:39Z</time>
      </trkpt>
      <trkpt lat="54.173912471160293" lon="10.519574973732233">
        <ele>0</ele>
        <time>2010-01-02T19:02:55Z</time>
      </trkpt>
      <trkpt lat="54.173942813649774" lon="10.519750155508518">
        <ele>0</ele>
        <time>2010-01-02T19:03:00Z</time>
      </trkpt>
      <trkpt lat="54.174158563837409" lon="10.520988330245018">
        <ele>0</ele>
        <time>2010-01-02T19:03:30Z</time>
      </trkpt>
      <trkpt lat="54.174210028722882" lon="10.52130457945168">
        <ele>0</ele>
        <time>2010-01-02T19:03:38Z</time>
      </trkpt>
      <trkpt lat="54.174244897440076" lon="10.521624265238643">
        <ele>0</ele>
        <time>2010-01-02T19:03:45Z</time>
      </trkpt>
      <trkpt lat="54.174247160553932" lon="10.521811433136463">
        <ele>0</ele>
        <time>2010-01-02T19:03:50Z</time>
      </trkpt>
      <trkpt lat="54.174241628497839" lon="10.521966330707073">
        <ele>0</ele>
        <time>2010-01-02T19:03:53Z</time>
      </trkpt>
      <trkpt lat="54.174220003187656" lon="10.52222809754312">
        <ele>0</ele>
        <time>2010-01-02T19:04:00Z</time>
      </trkpt>
      <trkpt lat="54.17408580891788" lon="10.52354983985424">
        <ele>0</ele>
        <time>2010-01-02T19:04:31Z</time>
      </trkpt>
      <trkpt lat="54.174006599932909" lon="10.524127520620823">
        <ele>0</ele>
        <time>2010-01-02T19:04:45Z</time>
      </trkpt>
      <trkpt lat="54.173971228301525" lon="10.524321142584085">
        <ele>0</ele>
        <time>2010-01-02T19:04:50Z</time>
      </trkpt>
      <trkpt lat="54.173918087035418" lon="10.524585088714957">
        <ele>0</ele>
        <time>2010-01-02T19:04:56Z</time>
      </trkpt>
      <trkpt lat="54.173874752596021" lon="10.52472741343081">
        <ele>0</ele>
        <time>2010-01-02T19:05:00Z</time>
      </trkpt>
      <trkpt lat="54.173815073445439" lon="10.524872839450836">
        <ele>0</ele>
        <time>2010-01-02T19:05:04Z</time>
      </trkpt>
      <trkpt lat="54.173761429265141" lon="10.524993455037475">
        <ele>0</ele>
        <time>2010-01-02T19:05:08Z</time>
      </trkpt>
      <trkpt lat="54.173597479239106" lon="10.525343231856823">
        <ele>0</ele>
        <time>2010-01-02T19:05:18Z</time>
      </trkpt>
      <trkpt lat="54.173522125929594" lon="10.525540458038449">
        <ele>0</ele>
        <time>2010-01-02T19:05:24Z</time>
      </trkpt>
      <trkpt lat="54.173475271090865" lon="10.525663085281849">
        <ele>0</ele>
        <time>2010-01-02T19:05:27Z</time>
      </trkpt>
      <trkpt lat="54.173427242785692" lon="10.525775067508221">
        <ele>0</ele>
        <time>2010-01-02T19:05:30Z</time>
      </trkpt>
      <trkpt lat="54.173398744314909" lon="10.525871040299535">
        <ele>0</ele>
        <time>2010-01-02T19:05:33Z</time>
      </trkpt>
      <trkpt lat="54.173374772071838" lon="10.525965336710215">
        <ele>0</ele>
        <time>2010-01-02T19:05:35Z</time>
      </trkpt>
      <trkpt lat="54.173359600827098" lon="10.526050077751279">
        <ele>0</ele>
        <time>2010-01-02T19:05:37Z</time>
      </trkpt>
      <trkpt lat="54.173344513401389" lon="10.526134818792343">
        <ele>0</ele>
        <time>2010-01-02T19:05:39Z</time>
      </trkpt>
      <trkpt lat="54.173339065164328" lon="10.526233054697514">
        <ele>0</ele>
        <time>2010-01-02T19:05:42Z</time>
      </trkpt>
      <trkpt lat="54.173335628584027" lon="10.526349227875471">
        <ele>0</ele>
        <time>2010-01-02T19:05:44Z</time>
      </trkpt>
      <trkpt lat="54.173332946375012" lon="10.526531869545579">
        <ele>0</ele>
        <time>2010-01-02T19:05:49Z</time>
      </trkpt>
      <trkpt lat="54.173341915011406" lon="10.526733454316854">
        <ele>0</ele>
        <time>2010-01-02T19:05:53Z</time>
      </trkpt>
      <trkpt lat="54.173365384340286" lon="10.526926154270768">
        <ele>0</ele>
        <time>2010-01-02T19:05:58Z</time>
      </trkpt>
      <trkpt lat="54.173482060432434" lon="10.527696534991264">
        <ele>0</ele>
        <time>2010-01-02T19:06:17Z</time>
      </trkpt>
      <trkpt lat="54.17350728996098" lon="10.528162904083729">
        <ele>0</ele>
        <time>2010-01-02T19:06:28Z</time>
      </trkpt>
      <trkpt lat="54.173502679914236" lon="10.528311599045992">
        <ele>0</ele>
        <time>2010-01-02T19:06:31Z</time>
      </trkpt>
      <trkpt lat="54.173442916944623" lon="10.528495833277702">
        <ele>0</ele>
        <time>2010-01-02T19:06:36Z</time>
      </trkpt>
      <trkpt lat="54.173377705737948" lon="10.528638828545809">
        <ele>0</ele>
        <time>2010-01-02T19:06:40Z</time>
      </trkpt>
      <trkpt lat="54.173201937228441" lon="10.528898416087031">
        <ele>0</ele>
        <time>2010-01-02T19:06:50Z</time>
      </trkpt>
      <trkpt lat="54.172944277524948" lon="10.529284151270986">
        <ele>0</ele>
        <time>2010-01-02T19:07:03Z</time>
      </trkpt>
      <trkpt lat="54.172872360795736" lon="10.529409041628242">
        <ele>0</ele>
        <time>2010-01-02T19:07:08Z</time>
      </trkpt>
      <trkpt lat="54.172805892303586" lon="10.529563771560788">
        <ele>0</ele>
        <time>2010-01-02T19:07:12Z</time>
      </trkpt>
      <trkpt lat="54.172748643904924" lon="10.529719842597842">
        <ele>0</ele>
        <time>2010-01-02T19:07:16Z</time>
      </trkpt>
      <trkpt lat="54.172716289758682" lon="10.529817324131727">
        <ele>0</ele>
        <time>2010-01-02T19:07:19Z</time>
      </trkpt>
      <trkpt lat="54.17269223369658" lon="10.5299430526793">
        <ele>0</ele>
        <time>2010-01-02T19:07:22Z</time>
      </trkpt>
      <trkpt lat="54.172682091593742" lon="10.53007741458714">
        <ele>0</ele>
        <time>2010-01-02T19:07:25Z</time>
      </trkpt>
      <trkpt lat="54.172672452405095" lon="10.53025871515274">
        <ele>0</ele>
        <time>2010-01-02T19:07:29Z</time>
      </trkpt>
      <trkpt lat="54.172667004168034" lon="10.530459880828857">
        <ele>0</ele>
        <time>2010-01-02T19:07:34Z</time>
      </trkpt>
      <trkpt lat="54.172665998339653" lon="10.530694490298629">
        <ele>0</ele>
        <time>2010-01-02T19:07:40Z</time>
      </trkpt>
      <trkpt lat="54.172664070501924" lon="10.531183741986752">
        <ele>0</ele>
        <time>2010-01-02T19:07:51Z</time>
      </trkpt>
      <trkpt lat="54.172663819044828" lon="10.5314851552248">
        <ele>0</ele>
        <time>2010-01-02T19:07:58Z</time>
      </trkpt>
      <trkpt lat="54.172671530395746" lon="10.531793190166354">
        <ele>0</ele>
        <time>2010-01-02T19:08:05Z</time>
      </trkpt>
      <trkpt lat="54.172696257010102" lon="10.532536078244448">
        <ele>0</ele>
        <time>2010-01-02T19:08:23Z</time>
      </trkpt>
      <trkpt lat="54.172702459618449" lon="10.532716708257794">
        <ele>0</ele>
        <time>2010-01-02T19:08:27Z</time>
      </trkpt>
      <trkpt lat="54.172699693590403" lon="10.532817291095853">
        <ele>0</ele>
        <time>2010-01-02T19:08:29Z</time>
      </trkpt>
      <trkpt lat="54.172636829316616" lon="10.533147873356938">
        <ele>0</ele>
        <time>2010-01-02T19:08:38Z</time>
      </trkpt>
      <trkpt lat="54.172573210671544" lon="10.533431600779295">
        <ele>0</ele>
        <time>2010-01-02T19:08:45Z</time>
      </trkpt>
      <trkpt lat="54.172536330297589" lon="10.533634023740888">
        <ele>0</ele>
        <time>2010-01-02T19:08:50Z</time>
      </trkpt>
      <trkpt lat="54.172489224001765" lon="10.533970557153225">
        <ele>0</ele>
        <time>2010-01-02T19:08:58Z</time>
      </trkpt>
      <trkpt lat="54.172452762722969" lon="10.534352101385593">
        <ele>0</ele>
        <time>2010-01-02T19:09:07Z</time>
      </trkpt>
      <trkpt lat="54.172435579821467" lon="10.534539604559541">
        <ele>0</ele>
        <time>2010-01-02T19:09:11Z</time>
      </trkpt>
      <trkpt lat="54.172406326979399" lon="10.534931709989905">
        <ele>0</ele>
        <time>2010-01-02T19:09:21Z</time>
      </trkpt>
      <trkpt lat="54.172368356958032" lon="10.535375364124775">
        <ele>0</ele>
        <time>2010-01-02T19:09:31Z</time>
      </trkpt>
      <trkpt lat="54.172331308946013" lon="10.535564292222261">
        <ele>0</ele>
        <time>2010-01-02T19:09:36Z</time>
      </trkpt>
      <trkpt lat="54.172282107174397" lon="10.535733522847295">
        <ele>0</ele>
        <time>2010-01-02T19:09:40Z</time>
      </trkpt>
      <trkpt lat="54.172217398881912" lon="10.535916667431593">
        <ele>0</ele>
        <time>2010-01-02T19:09:45Z</time>
      </trkpt>
      <trkpt lat="54.172152439132333" lon="10.536079779267311">
        <ele>0</ele>
        <time>2010-01-02T19:09:50Z</time>
      </trkpt>
      <trkpt lat="54.172006510198116" lon="10.536369457840919">
        <ele>0</ele>
        <time>2010-01-02T19:09:59Z</time>
      </trkpt>
      <trkpt lat="54.171854211017489" lon="10.536642288789153">
        <ele>0</ele>
        <time>2010-01-02T19:10:08Z</time>
      </trkpt>
      <trkpt lat="54.171763183549047" lon="10.536809172481298">
        <ele>0</ele>
        <time>2010-01-02T19:10:13Z</time>
      </trkpt>
      <trkpt lat="54.171687494963408" lon="10.536958118900657">
        <ele>0</ele>
        <time>2010-01-02T19:10:18Z</time>
      </trkpt>
      <trkpt lat="54.171619517728686" lon="10.537096336483955">
        <ele>0</ele>
        <time>2010-01-02T19:10:22Z</time>
      </trkpt>
      <trkpt lat="54.171549445018172" lon="10.537310410290956">
        <ele>0</ele>
        <time>2010-01-02T19:10:28Z</time>
      </trkpt>
      <trkpt lat="54.171518599614501" lon="10.537475533783436">
        <ele>0</ele>
        <time>2010-01-02T19:10:32Z</time>
      </trkpt>
      <trkpt lat="54.171506529673934" lon="10.537590784952044">
        <ele>0</ele>
        <time>2010-01-02T19:10:34Z</time>
      </trkpt>
      <trkpt lat="54.171497141942382" lon="10.537710562348366">
        <ele>0</ele>
        <time>2010-01-02T19:10:37Z</time>
      </trkpt>
      <trkpt lat="54.171490520238876" lon="10.537831848487258">
        <ele>0</ele>
        <time>2010-01-02T19:10:40Z</time>
      </trkpt>
      <trkpt lat="54.171487670391798" lon="10.537965120747685">
        <ele>0</ele>
        <time>2010-01-02T19:10:43Z</time>
      </trkpt>
      <trkpt lat="54.171487083658576" lon="10.538063189014792">
        <ele>0</ele>
        <time>2010-01-02T19:10:45Z</time>
      </trkpt>
      <trkpt lat="54.17149119079113" lon="10.538179446011782">
        <ele>0</ele>
        <time>2010-01-02T19:10:48Z</time>
      </trkpt>
      <trkpt lat="54.171497393399477" lon="10.538323195651174">
        <ele>0</ele>
        <time>2010-01-02T19:10:52Z</time>
      </trkpt>
      <trkpt lat="54.17151466012001" lon="10.538561409339309">
        <ele>0</ele>
        <time>2010-01-02T19:10:57Z</time>
      </trkpt>
      <trkpt lat="54.171529915183783" lon="10.538778332993388">
        <ele>0</ele>
        <time>2010-01-02T19:11:02Z</time>
      </trkpt>
      <trkpt lat="54.171532765030861" lon="10.538865588605404">
        <ele>0</ele>
        <time>2010-01-02T19:11:04Z</time>
      </trkpt>
      <trkpt lat="54.171535698696971" lon="10.538963489234447">
        <ele>0</ele>
        <time>2010-01-02T19:11:07Z</time>
      </trkpt>
      <trkpt lat="54.17153712362051" lon="10.539148729294538">
        <ele>0</ele>
        <time>2010-01-02T19:11:11Z</time>
      </trkpt>
      <trkpt lat="54.171530921012163" lon="10.539309745654464">
        <ele>0</ele>
        <time>2010-01-02T19:11:15Z</time>
      </trkpt>
      <trkpt lat="54.171524299308658" lon="10.539499847218394">
        <ele>0</ele>
        <time>2010-01-02T19:11:19Z</time>
      </trkpt>
      <trkpt lat="54.171505272388458" lon="10.539860436692834">
        <ele>0</ele>
        <time>2010-01-02T19:11:28Z</time>
      </trkpt>
      <trkpt lat="54.171480545774102" lon="10.540415653958917">
        <ele>0</ele>
        <time>2010-01-02T19:11:41Z</time>
      </trkpt>
      <trkpt lat="54.171468475833535" lon="10.540606006979942">
        <ele>0</ele>
        <time>2010-01-02T19:11:45Z</time>
      </trkpt>
      <trkpt lat="54.171457076445222" lon="10.540774818509817">
        <ele>0</ele>
        <time>2010-01-02T19:11:49Z</time>
      </trkpt>
      <trkpt lat="54.171440061181784" lon="10.540930135175586">
        <ele>0</ele>
        <time>2010-01-02T19:11:53Z</time>
      </trkpt>
      <trkpt lat="54.1713597625494" lon="10.541422991082072">
        <ele>0</ele>
        <time>2010-01-02T19:12:05Z</time>
      </trkpt>
      <trkpt lat="54.171324893832207" lon="10.541658522561193">
        <ele>0</ele>
        <time>2010-01-02T19:12:11Z</time>
      </trkpt>
      <trkpt lat="54.171299412846565" lon="10.54185239598155">
        <ele>0</ele>
        <time>2010-01-02T19:12:15Z</time>
      </trkpt>
      <trkpt lat="54.171279547736049" lon="10.541993966326118">
        <ele>0</ele>
        <time>2010-01-02T19:12:19Z</time>
      </trkpt>
      <trkpt lat="54.171269908547401" lon="10.54216118529439">
        <ele>0</ele>
        <time>2010-01-02T19:12:23Z</time>
      </trkpt>
      <trkpt lat="54.171268567442894" lon="10.54227308370173">
        <ele>0</ele>
        <time>2010-01-02T19:12:25Z</time>
      </trkpt>
      <trkpt lat="54.171272674575448" lon="10.542392358183861">
        <ele>0</ele>
        <time>2010-01-02T19:12:28Z</time>
      </trkpt>
      <trkpt lat="54.171284409239888" lon="10.542543567717075">
        <ele>0</ele>
        <time>2010-01-02T19:12:32Z</time>
      </trkpt>
      <trkpt lat="54.171303268522024" lon="10.542694525793195">
        <ele>0</ele>
        <time>2010-01-02T19:12:35Z</time>
      </trkpt>
      <trkpt lat="54.171332689002156" lon="10.54289560765028">
        <ele>0</ele>
        <time>2010-01-02T19:12:40Z</time>
      </trkpt>
      <trkpt lat="54.171402510255575" lon="10.543395420536399">
        <ele>0</ele>
        <time>2010-01-02T19:12:52Z</time>
      </trkpt>
      <trkpt lat="54.171439139172435" lon="10.543677471578121">
        <ele>0</ele>
        <time>2010-01-02T19:12:59Z</time>
      </trkpt>
      <trkpt lat="54.171461937949061" lon="10.543849719688296">
        <ele>0</ele>
        <time>2010-01-02T19:13:03Z</time>
      </trkpt>
      <trkpt lat="54.171522287651896" lon="10.544235035777092">
        <ele>0</ele>
        <time>2010-01-02T19:13:12Z</time>
      </trkpt>
      <trkpt lat="54.171599820256233" lon="10.544700985774398">
        <ele>0</ele>
        <time>2010-01-02T19:13:24Z</time>
      </trkpt>
      <trkpt lat="54.171674251556396" lon="10.545136341825128">
        <ele>0</ele>
        <time>2010-01-02T19:13:34Z</time>
      </trkpt>
      <trkpt lat="54.17172621935606" lon="10.545423924922943">
        <ele>0</ele>
        <time>2010-01-02T19:13:41Z</time>
      </trkpt>
      <trkpt lat="54.171760417521" lon="10.545647889375687">
        <ele>0</ele>
        <time>2010-01-02T19:13:47Z</time>
      </trkpt>
      <trkpt lat="54.171805176883936" lon="10.545937232673168">
        <ele>0</ele>
        <time>2010-01-02T19:13:54Z</time>
      </trkpt>
      <trkpt lat="54.171862760558724" lon="10.546385496854782">
        <ele>0</ele>
        <time>2010-01-02T19:14:05Z</time>
      </trkpt>
      <trkpt lat="54.172032494097948" lon="10.547591065987945">
        <ele>0</ele>
        <time>2010-01-02T19:14:34Z</time>
      </trkpt>
      <trkpt lat="54.172079851850867" lon="10.547927683219314">
        <ele>0</ele>
        <time>2010-01-02T19:14:42Z</time>
      </trkpt>
      <trkpt lat="54.172096531838179" lon="10.548041928559542">
        <ele>0</ele>
        <time>2010-01-02T19:14:45Z</time>
      </trkpt>
      <trkpt lat="54.172103488817811" lon="10.548098338767886">
        <ele>0</ele>
        <time>2010-01-02T19:14:46Z</time>
      </trkpt>
      <trkpt lat="54.172105751931667" lon="10.548135051503778">
        <ele>0</ele>
        <time>2010-01-02T19:14:47Z</time>
      </trkpt>
      <trkpt lat="54.172105332836509" lon="10.548177966848016">
        <ele>0</ele>
        <time>2010-01-02T19:14:48Z</time>
      </trkpt>
      <trkpt lat="54.172102063894272" lon="10.548199508339167">
        <ele>0</ele>
        <time>2010-01-02T19:14:48Z</time>
      </trkpt>
      <trkpt lat="54.172125617042184" lon="10.548289027065039">
        <ele>0</ele>
        <time>2010-01-02T19:14:51Z</time>
      </trkpt>
      <trkpt lat="54.172144308686256" lon="10.548427747562528">
        <ele>0</ele>
        <time>2010-01-02T19:14:54Z</time>
      </trkpt>
      <trkpt lat="54.172148331999779" lon="10.548461275175214">
        <ele>0</ele>
        <time>2010-01-02T19:14:55Z</time>
      </trkpt>
      <trkpt lat="54.172311360016465" lon="10.549689894542098">
        <ele>0</ele>
        <time>2010-01-02T19:15:24Z</time>
      </trkpt>
      <trkpt lat="54.172322424128652" lon="10.549773629754782">
        <ele>0</ele>
        <time>2010-01-02T19:15:26Z</time>
      </trkpt>
      <trkpt lat="54.172534737735987" lon="10.551380440592766">
        <ele>0</ele>
        <time>2010-01-02T19:16:05Z</time>
      </trkpt>
      <trkpt lat="54.172558290883899" lon="10.551541959866881">
        <ele>0</ele>
        <time>2010-01-02T19:16:09Z</time>
      </trkpt>
      <trkpt lat="54.17257983237505" lon="10.551691325381398">
        <ele>0</ele>
        <time>2010-01-02T19:16:12Z</time>
      </trkpt>
      <trkpt lat="54.172604894265532" lon="10.551831303164363">
        <ele>0</ele>
        <time>2010-01-02T19:16:16Z</time>
      </trkpt>
      <trkpt lat="54.172634398564696" lon="10.551972705870867">
        <ele>0</ele>
        <time>2010-01-02T19:16:19Z</time>
      </trkpt>
      <trkpt lat="54.172673039138317" lon="10.552119975909591">
        <ele>0</ele>
        <time>2010-01-02T19:16:23Z</time>
      </trkpt>
      <trkpt lat="54.17270296253264" lon="10.552218463271856">
        <ele>0</ele>
        <time>2010-01-02T19:16:26Z</time>
      </trkpt>
      <trkpt lat="54.172740262001753" lon="10.552330445498228">
        <ele>0</ele>
        <time>2010-01-02T19:16:29Z</time>
      </trkpt>
      <trkpt lat="54.172788541764021" lon="10.552462041378021">
        <ele>0</ele>
        <time>2010-01-02T19:16:32Z</time>
      </trkpt>
      <trkpt lat="54.172850651666522" lon="10.552620626986027">
        <ele>0</ele>
        <time>2010-01-02T19:16:37Z</time>
      </trkpt>
      <trkpt lat="54.17292189784348" lon="10.552788181230426">
        <ele>0</ele>
        <time>2010-01-02T19:16:42Z</time>
      </trkpt>
      <trkpt lat="54.1730020288378" lon="10.552950790151954">
        <ele>0</ele>
        <time>2010-01-02T19:16:47Z</time>
      </trkpt>
      <trkpt lat="54.173050643876195" lon="10.553037878125906">
        <ele>0</ele>
        <time>2010-01-02T19:16:49Z</time>
      </trkpt>
      <trkpt lat="54.17311392724514" lon="10.553142903372645">
        <ele>0</ele>
        <time>2010-01-02T19:16:53Z</time>
      </trkpt>
      <trkpt lat="54.173178803175688" lon="10.553235607221723">
        <ele>0</ele>
        <time>2010-01-02T19:16:56Z</time>
      </trkpt>
      <trkpt lat="54.173444174230099" lon="10.553563255816698">
        <ele>0</ele>
        <time>2010-01-02T19:17:10Z</time>
      </trkpt>
      <trkpt lat="54.173584654927254" lon="10.553737515583634">
        <ele>0</ele>
        <time>2010-01-02T19:17:16Z</time>
      </trkpt>
      <trkpt lat="54.17368951253593" lon="10.553865591064095">
        <ele>0</ele>
        <time>2010-01-02T19:17:22Z</time>
      </trkpt>
      <trkpt lat="54.173798225820065" lon="10.553992995992303">
        <ele>0</ele>
        <time>2010-01-02T19:17:27Z</time>
      </trkpt>
      <trkpt lat="54.173960331827402" lon="10.554150827229023">
        <ele>0</ele>
        <time>2010-01-02T19:17:34Z</time>
      </trkpt>
      <trkpt lat="54.174118665978312" lon="10.554298684000969">
        <ele>0</ele>
        <time>2010-01-02T19:17:42Z</time>
      </trkpt>
      <trkpt lat="54.174190163612366" lon="10.554382586851716">
        <ele>0</ele>
        <time>2010-01-02T19:17:45Z</time>
      </trkpt>
      <trkpt lat="54.174262834712863" lon="10.554488785564899">
        <ele>0</ele>
        <time>2010-01-02T19:17:49Z</time>
      </trkpt>
      <trkpt lat="54.174316059798002" lon="10.554622644558549">
        <ele>0</ele>
        <time>2010-01-02T19:17:53Z</time>
      </trkpt>
      <trkpt lat="54.174344642087817" lon="10.554701015353203">
        <ele>0</ele>
        <time>2010-01-02T19:17:55Z</time>
      </trkpt>
      <trkpt lat="54.174458216875792" lon="10.555183393880725">
        <ele>0</ele>
        <time>2010-01-02T19:18:07Z</time>
      </trkpt>
      <trkpt lat="54.174651671200991" lon="10.55593173019588">
        <ele>0</ele>
        <time>2010-01-02T19:18:26Z</time>
      </trkpt>
      <trkpt lat="54.174701627343893" lon="10.5561413615942">
        <ele>0</ele>
        <time>2010-01-02T19:18:31Z</time>
      </trkpt>
      <trkpt lat="54.174734819680452" lon="10.5562933254987">
        <ele>0</ele>
        <time>2010-01-02T19:18:35Z</time>
      </trkpt>
      <trkpt lat="54.174769604578614" lon="10.55649122223258">
        <ele>0</ele>
        <time>2010-01-02T19:18:40Z</time>
      </trkpt>
      <trkpt lat="54.174788044765592" lon="10.556610077619553">
        <ele>0</ele>
        <time>2010-01-02T19:18:43Z</time>
      </trkpt>
      <trkpt lat="54.17480262927711" lon="10.556698339059949">
        <ele>0</ele>
        <time>2010-01-02T19:18:45Z</time>
      </trkpt>
      <trkpt lat="54.174831882119179" lon="10.55689187720418">
        <ele>0</ele>
        <time>2010-01-02T19:18:50Z</time>
      </trkpt>
      <trkpt lat="54.174912767484784" lon="10.55749093182385">
        <ele>0</ele>
        <time>2010-01-02T19:19:04Z</time>
      </trkpt>
      <trkpt lat="54.174930788576603" lon="10.55749487131834">
        <ele>0</ele>
        <time>2010-01-02T19:19:05Z</time>
      </trkpt>
      <trkpt lat="54.174957862123847" lon="10.557506186887622">
        <ele>0</ele>
        <time>2010-01-02T19:19:06Z</time>
      </trkpt>
      <trkpt lat="54.174990551546216" lon="10.557538792490959">
        <ele>0</ele>
        <time>2010-01-02T19:19:08Z</time>
      </trkpt>
      <trkpt lat="54.175026006996632" lon="10.557569721713662">
        <ele>0</ele>
        <time>2010-01-02T19:19:09Z</time>
      </trkpt>
      <trkpt lat="54.175075124949217" lon="10.557620096951723">
        <ele>0</ele>
        <time>2010-01-02T19:19:11Z</time>
      </trkpt>
      <trkpt lat="54.175121476873755" lon="10.557662844657898">
        <ele>0</ele>
        <time>2010-01-02T19:19:14Z</time>
      </trkpt>
      <trkpt lat="54.175174031406641" lon="10.557702407240868">
        <ele>0</ele>
        <time>2010-01-02T19:19:16Z</time>
      </trkpt>
      <trkpt lat="54.175231698900461" lon="10.557718751952052">
        <ele>0</ele>
        <time>2010-01-02T19:19:18Z</time>
      </trkpt>
      <trkpt lat="54.175291964784265" lon="10.557724284008145">
        <ele>0</ele>
        <time>2010-01-02T19:19:21Z</time>
      </trkpt>
      <trkpt lat="54.17577987536788" lon="10.557797709479928">
        <ele>0</ele>
        <time>2010-01-02T19:19:40Z</time>
      </trkpt>
      <trkpt lat="54.176110373809934" lon="10.557864345610142">
        <ele>0</ele>
        <time>2010-01-02T19:19:54Z</time>
      </trkpt>
      <trkpt lat="54.176095873117447" lon="10.557929137721658">
        <ele>0</ele>
        <time>2010-01-02T19:19:55Z</time>
      </trkpt>
      <trkpt lat="54.176085144281387" lon="10.558009184896946">
        <ele>0</ele>
        <time>2010-01-02T19:19:57Z</time>
      </trkpt>
      <trkpt lat="54.176086317747831" lon="10.558101050555706">
        <ele>0</ele>
        <time>2010-01-02T19:19:59Z</time>
      </trkpt>
      <trkpt lat="54.176086569204926" lon="10.55827715434134">
        <ele>0</ele>
        <time>2010-01-02T19:20:03Z</time>
      </trkpt>
      <trkpt lat="54.176086988300085" lon="10.55846088565886">
        <ele>0</ele>
        <time>2010-01-02T19:20:08Z</time>
      </trkpt>
      <trkpt lat="54.176078690215945" lon="10.558596001937985">
        <ele>0</ele>
        <time>2010-01-02T19:20:11Z</time>
      </trkpt>
      <trkpt lat="54.176066620275378" lon="10.558711253106594">
        <ele>0</ele>
        <time>2010-01-02T19:20:14Z</time>
      </trkpt>
      <trkpt lat="54.176052371039987" lon="10.558795994147658">
        <ele>0</ele>
        <time>2010-01-02T19:20:16Z</time>
      </trkpt>
      <trkpt lat="54.176045833155513" lon="10.558852907270193">
        <ele>0</ele>
        <time>2010-01-02T19:20:17Z</time>
      </trkpt>
      <trkpt lat="54.176026470959187" lon="10.558957764878869">
        <ele>0</ele>
        <time>2010-01-02T19:20:20Z</time>
      </trkpt>
      <trkpt lat="54.175999397411942" lon="10.559101095423102">
        <ele>0</ele>
        <time>2010-01-02T19:20:23Z</time>
      </trkpt>
      <trkpt lat="54.175970396026969" lon="10.559229254722595">
        <ele>0</ele>
        <time>2010-01-02T19:20:26Z</time>
      </trkpt>
      <trkpt lat="54.175915494561195" lon="10.559450117871165">
        <ele>0</ele>
        <time>2010-01-02T19:20:32Z</time>
      </trkpt>
      <trkpt lat="54.176019597798586" lon="10.559510886669159">
        <ele>0</ele>
        <time>2010-01-02T19:20:36Z</time>
      </trkpt>
      <trkpt lat="54.176130741834641" lon="10.559566710144281">
        <ele>0</ele>
        <time>2010-01-02T19:20:41Z</time>
      </trkpt>
      <trkpt lat="54.176218416541815" lon="10.559611134231091">
        <ele>0</ele>
        <time>2010-01-02T19:20:45Z</time>
      </trkpt>
      <trkpt lat="54.176269127056003" lon="10.559643069282174">
        <ele>0</ele>
        <time>2010-01-02T19:20:47Z</time>
      </trkpt>
      <trkpt lat="54.176326207816601" lon="10.55968246422708">
        <ele>0</ele>
        <time>2010-01-02T19:20:49Z</time>
      </trkpt>
      <trkpt lat="54.176406087353826" lon="10.559745579957962">
        <ele>0</ele>
        <time>2010-01-02T19:20:53Z</time>
      </trkpt>
      <trkpt lat="54.176524942740798" lon="10.559847084805369">
        <ele>0</ele>
        <time>2010-01-02T19:20:58Z</time>
      </trkpt>
      <trkpt lat="54.176702974364161" lon="10.560004832223058">
        <ele>0</ele>
        <time>2010-01-02T19:21:06Z</time>
      </trkpt>
      <trkpt lat="54.177082423120737" lon="10.560330133885145">
        <ele>0</ele>
        <time>2010-01-02T19:21:23Z</time>
      </trkpt>
      <trkpt lat="54.177157860249281" lon="10.560404062271118">
        <ele>0</ele>
        <time>2010-01-02T19:21:27Z</time>
      </trkpt>
      <trkpt lat="54.177215192466974" lon="10.560466423630714">
        <ele>0</ele>
        <time>2010-01-02T19:21:29Z</time>
      </trkpt>
      <trkpt lat="54.177279900759459" lon="10.560543788596988">
        <ele>0</ele>
        <time>2010-01-02T19:21:33Z</time>
      </trkpt>
      <trkpt lat="54.177356511354446" lon="10.560637665912509">
        <ele>0</ele>
        <time>2010-01-02T19:21:36Z</time>
      </trkpt>
      <trkpt lat="54.177436977624893" lon="10.560754342004657">
        <ele>0</ele>
        <time>2010-01-02T19:21:41Z</time>
      </trkpt>
      <trkpt lat="54.177513923496008" lon="10.560877220705152">
        <ele>0</ele>
        <time>2010-01-02T19:21:45Z</time>
      </trkpt>
      <trkpt lat="54.177600760012865" lon="10.560998255386949">
        <ele>0</ele>
        <time>2010-01-02T19:21:49Z</time>
      </trkpt>
      <trkpt lat="54.177687177434564" lon="10.561091797426343">
        <ele>0</ele>
        <time>2010-01-02T19:21:53Z</time>
      </trkpt>
      <trkpt lat="54.177781725302339" lon="10.561178885400295">
        <ele>0</ele>
        <time>2010-01-02T19:21:58Z</time>
      </trkpt>
      <trkpt lat="54.178058914840221" lon="10.561441909521818">
        <ele>0</ele>
        <time>2010-01-02T19:22:10Z</time>
      </trkpt>
      <trkpt lat="54.178378265351057" lon="10.56179529055953">
        <ele>0</ele>
        <time>2010-01-02T19:22:26Z</time>
      </trkpt>
      <trkpt lat="54.178637685254216" lon="10.562097290530801">
        <ele>0</ele>
        <time>2010-01-02T19:22:38Z</time>
      </trkpt>
      <trkpt lat="54.178898865357041" lon="10.562412953004241">
        <ele>0</ele>
        <time>2010-01-02T19:22:51Z</time>
      </trkpt>
      <trkpt lat="54.178972793743014" lon="10.562508339062333">
        <ele>0</ele>
        <time>2010-01-02T19:22:55Z</time>
      </trkpt>
      <trkpt lat="54.17903121560812" lon="10.562587548047304">
        <ele>0</ele>
        <time>2010-01-02T19:22:58Z</time>
      </trkpt>
      <trkpt lat="54.179089805111289" lon="10.562677402049303">
        <ele>0</ele>
        <time>2010-01-02T19:23:01Z</time>
      </trkpt>
      <trkpt lat="54.179144036024809" lon="10.562778152525425">
        <ele>0</ele>
        <time>2010-01-02T19:23:04Z</time>
      </trkpt>
      <trkpt lat="54.17917974293232" lon="10.562758538872004">
        <ele>0</ele>
        <time>2010-01-02T19:23:06Z</time>
      </trkpt>
      <trkpt lat="54.179212097078562" lon="10.562757449224591">
        <ele>0</ele>
        <time>2010-01-02T19:23:07Z</time>
      </trkpt>
      <trkpt lat="54.179247133433819" lon="10.562757700681686">
        <ele>0</ele>
        <time>2010-01-02T19:23:08Z</time>
      </trkpt>
      <trkpt lat="54.180067805573344" lon="10.562861049547791">
        <ele>0</ele>
        <time>2010-01-02T19:23:41Z</time>
      </trkpt>
      <trkpt lat="54.181329030543566" lon="10.56299339979887">
        <ele>0</ele>
        <time>2010-01-02T19:24:32Z</time>
      </trkpt>
      <trkpt lat="54.181943591684103" lon="10.563064059242606">
        <ele>0</ele>
        <time>2010-01-02T19:24:56Z</time>
      </trkpt>
      <trkpt lat="54.182168478146195" lon="10.563086858019233">
        <ele>0</ele>
        <time>2010-01-02T19:25:05Z</time>
      </trkpt>
      <trkpt lat="54.182315161451697" lon="10.563107812777162">
        <ele>0</ele>
        <time>2010-01-02T19:25:11Z</time>
      </trkpt>
      <trkpt lat="54.182840622961521" lon="10.563170844689012">
        <ele>0</ele>
        <time>2010-01-02T19:25:32Z</time>
      </trkpt>
      <trkpt lat="54.183270782232285" lon="10.56322792544961">
        <ele>0</ele>
        <time>2010-01-02T19:25:50Z</time>
      </trkpt>
      <trkpt lat="54.183497428894043" lon="10.563247622922063">
        <ele>0</ele>
        <time>2010-01-02T19:25:59Z</time>
      </trkpt>
      <trkpt lat="54.183881487697363" lon="10.5632802285254">
        <ele>0</ele>
        <time>2010-01-02T19:26:14Z</time>
      </trkpt>
      <trkpt lat="54.184231348335743" lon="10.563312582671642">
        <ele>0</ele>
        <time>2010-01-02T19:26:28Z</time>
      </trkpt>
      <trkpt lat="54.184603840112686" lon="10.563351726159453">
        <ele>0</ele>
        <time>2010-01-02T19:26:43Z</time>
      </trkpt>
      <trkpt lat="54.184784721583128" lon="10.563374608755112">
        <ele>0</ele>
        <time>2010-01-02T19:26:50Z</time>
      </trkpt>
      <trkpt lat="54.184953449293971" lon="10.56339749135077">
        <ele>0</ele>
        <time>2010-01-02T19:26:57Z</time>
      </trkpt>
      <trkpt lat="54.185170792043209" lon="10.563427079468966">
        <ele>0</ele>
        <time>2010-01-02T19:27:06Z</time>
      </trkpt>
      <trkpt lat="54.185690050944686" lon="10.563493296504021">
        <ele>0</ele>
        <time>2010-01-02T19:27:27Z</time>
      </trkpt>
      <trkpt lat="54.185905968770385" lon="10.563521040603518">
        <ele>0</ele>
        <time>2010-01-02T19:27:35Z</time>
      </trkpt>
      <trkpt lat="54.186049969866872" lon="10.563537552952766">
        <ele>0</ele>
        <time>2010-01-02T19:27:41Z</time>
      </trkpt>
      <trkpt lat="54.186175866052508" lon="10.563551550731063">
        <ele>0</ele>
        <time>2010-01-02T19:27:46Z</time>
      </trkpt>
      <trkpt lat="54.186557326465845" lon="10.56359195150435">
        <ele>0</ele>
        <time>2010-01-02T19:28:02Z</time>
      </trkpt>
      <trkpt lat="54.187184292823076" lon="10.563651379197836">
        <ele>0</ele>
        <time>2010-01-02T19:28:27Z</time>
      </trkpt>
      <trkpt lat="54.187572794035077" lon="10.563680799677968">
        <ele>0</ele>
        <time>2010-01-02T19:28:42Z</time>
      </trkpt>
      <trkpt lat="54.187598861753941" lon="10.563682978972793">
        <ele>0</ele>
        <time>2010-01-02T19:28:43Z</time>
      </trkpt>
      <trkpt lat="54.18779038824141" lon="10.563697814941406">
        <ele>0</ele>
        <time>2010-01-02T19:28:51Z</time>
      </trkpt>
      <trkpt lat="54.187865070998669" lon="10.563704436644912">
        <ele>0</ele>
        <time>2010-01-02T19:28:54Z</time>
      </trkpt>
      <trkpt lat="54.187959535047412" lon="10.563711896538734">
        <ele>0</ele>
        <time>2010-01-02T19:28:58Z</time>
      </trkpt>
      <trkpt lat="54.18813044205308" lon="10.563728911802173">
        <ele>0</ele>
        <time>2010-01-02T19:29:05Z</time>
      </trkpt>
      <trkpt lat="54.188244771212339" lon="10.56374492123723">
        <ele>0</ele>
        <time>2010-01-02T19:29:09Z</time>
      </trkpt>
      <trkpt lat="54.1883400734514" lon="10.56375078856945">
        <ele>0</ele>
        <time>2010-01-02T19:29:13Z</time>
      </trkpt>
      <trkpt lat="54.188429843634367" lon="10.563747687265277">
        <ele>0</ele>
        <time>2010-01-02T19:29:17Z</time>
      </trkpt>
      <trkpt lat="54.188525062054396" lon="10.563747435808182">
        <ele>0</ele>
        <time>2010-01-02T19:29:20Z</time>
      </trkpt>
      <trkpt lat="54.188612150028348" lon="10.563742909580469">
        <ele>0</ele>
        <time>2010-01-02T19:29:24Z</time>
      </trkpt>
      <trkpt lat="54.188708206638694" lon="10.563734946772456">
        <ele>0</ele>
        <time>2010-01-02T19:29:28Z</time>
      </trkpt>
      <trkpt lat="54.189402228221297" lon="10.563690941780806">
        <ele>0</ele>
        <time>2010-01-02T19:29:56Z</time>
      </trkpt>
      <trkpt lat="54.189970353618264" lon="10.563639141619205">
        <ele>0</ele>
        <time>2010-01-02T19:30:18Z</time>
      </trkpt>
      <trkpt lat="54.190319459885359" lon="10.563605530187488">
        <ele>0</ele>
        <time>2010-01-02T19:30:32Z</time>
      </trkpt>
      <trkpt lat="54.190469328314066" lon="10.563591197133064">
        <ele>0</ele>
        <time>2010-01-02T19:30:38Z</time>
      </trkpt>
      <trkpt lat="54.190597739070654" lon="10.56358365342021">
        <ele>0</ele>
        <time>2010-01-02T19:30:43Z</time>
      </trkpt>
      <trkpt lat="54.19070653617382" lon="10.563587592914701">
        <ele>0</ele>
        <time>2010-01-02T19:30:48Z</time>
      </trkpt>
      <trkpt lat="54.190873503684998" lon="10.563577199354768">
        <ele>0</ele>
        <time>2010-01-02T19:30:54Z</time>
      </trkpt>
      <trkpt lat="54.190882472321391" lon="10.563576864078641">
        <ele>0</ele>
        <time>2010-01-02T19:30:55Z</time>
      </trkpt>
      <trkpt lat="54.190967883914709" lon="10.563580049201846">
        <ele>0</ele>
        <time>2010-01-02T19:30:58Z</time>
      </trkpt>
      <trkpt lat="54.191057654097676" lon="10.563572337850928">
        <ele>0</ele>
        <time>2010-01-02T19:31:02Z</time>
      </trkpt>
      <trkpt lat="54.19111498631537" lon="10.563561106100678">
        <ele>0</ele>
        <time>2010-01-02T19:31:04Z</time>
      </trkpt>
      <trkpt lat="54.191186651587486" lon="10.56353721767664">
        <ele>0</ele>
        <time>2010-01-02T19:31:07Z</time>
      </trkpt>
      <trkpt lat="54.191259993240237" lon="10.563510144129395">
        <ele>0</ele>
        <time>2010-01-02T19:31:10Z</time>
      </trkpt>
      <trkpt lat="54.191341297701001" lon="10.563476700335741">
        <ele>0</ele>
        <time>2010-01-02T19:31:13Z</time>
      </trkpt>
      <trkpt lat="54.19147465378046" lon="10.563430683687329">
        <ele>0</ele>
        <time>2010-01-02T19:31:19Z</time>
      </trkpt>
      <trkpt lat="54.191576577723026" lon="10.563388857990503">
        <ele>0</ele>
        <time>2010-01-02T19:31:23Z</time>
      </trkpt>
      <trkpt lat="54.191662576049566" lon="10.563365975394845">
        <ele>0</ele>
        <time>2010-01-02T19:31:27Z</time>
      </trkpt>
      <trkpt lat="54.191744886338711" lon="10.563338566571474">
        <ele>0</ele>
        <time>2010-01-02T19:31:30Z</time>
      </trkpt>
      <trkpt lat="54.191830046474934" lon="10.563318785279989">
        <ele>0</ele>
        <time>2010-01-02T19:31:33Z</time>
      </trkpt>
      <trkpt lat="54.191922331228852" lon="10.563297159969807">
        <ele>0</ele>
        <time>2010-01-02T19:31:37Z</time>
      </trkpt>
      <trkpt lat="54.192042527720332" lon="10.563280815258622">
        <ele>0</ele>
        <time>2010-01-02T19:31:42Z</time>
      </trkpt>
      <trkpt lat="54.19215283356607" lon="10.563264722004533">
        <ele>0</ele>
        <time>2010-01-02T19:31:46Z</time>
      </trkpt>
      <trkpt lat="54.192186025902629" lon="10.563260447233915">
        <ele>0</ele>
        <time>2010-01-02T19:31:48Z</time>
      </trkpt>
      <trkpt lat="54.192362716421485" lon="10.563229853287339">
        <ele>0</ele>
        <time>2010-01-02T19:31:55Z</time>
      </trkpt>
      <trkpt lat="54.193812031298876" lon="10.56301100179553">
        <ele>0</ele>
        <time>2010-01-02T19:32:53Z</time>
      </trkpt>
      <trkpt lat="54.193887049332261" lon="10.562990549951792">
        <ele>0</ele>
        <time>2010-01-02T19:32:56Z</time>
      </trkpt>
      <trkpt lat="54.193921331316233" lon="10.56298116222024">
        <ele>0</ele>
        <time>2010-01-02T19:32:57Z</time>
      </trkpt>
      <trkpt lat="54.193957960233092" lon="10.562970768660307">
        <ele>0</ele>
        <time>2010-01-02T19:32:59Z</time>
      </trkpt>
      <trkpt lat="54.194046556949615" lon="10.562940090894699">
        <ele>0</ele>
        <time>2010-01-02T19:33:03Z</time>
      </trkpt>
      <trkpt lat="54.194127945229411" lon="10.562903545796871">
        <ele>0</ele>
        <time>2010-01-02T19:33:06Z</time>
      </trkpt>
      <trkpt lat="54.194219978526235" lon="10.562863564118743">
        <ele>0</ele>
        <time>2010-01-02T19:33:10Z</time>
      </trkpt>
      <trkpt lat="54.194354927167296" lon="10.562803717330098">
        <ele>0</ele>
        <time>2010-01-02T19:33:15Z</time>
      </trkpt>
      <trkpt lat="54.19473035261035" lon="10.56264060549438">
        <ele>0</ele>
        <time>2010-01-02T19:33:31Z</time>
      </trkpt>
      <trkpt lat="54.195120111107826" lon="10.562473805621266">
        <ele>0</ele>
        <time>2010-01-02T19:33:47Z</time>
      </trkpt>
      <trkpt lat="54.195234188809991" lon="10.562420329079032">
        <ele>0</ele>
        <time>2010-01-02T19:33:52Z</time>
      </trkpt>
      <trkpt lat="54.19544180855155" lon="10.562323182821274">
        <ele>0</ele>
        <time>2010-01-02T19:34:00Z</time>
      </trkpt>
      <trkpt lat="54.19560894370079" lon="10.562253026291728">
        <ele>0</ele>
        <time>2010-01-02T19:34:07Z</time>
      </trkpt>
      <trkpt lat="54.195761745795608" lon="10.562180355191231">
        <ele>0</ele>
        <time>2010-01-02T19:34:14Z</time>
      </trkpt>
      <trkpt lat="54.195893760770559" lon="10.562097625806928">
        <ele>0</ele>
        <time>2010-01-02T19:34:19Z</time>
      </trkpt>
      <trkpt lat="54.196023847907782" lon="10.562008861452341">
        <ele>0</ele>
        <time>2010-01-02T19:34:25Z</time>
      </trkpt>
      <trkpt lat="54.196168184280396" lon="10.561905764043331">
        <ele>0</ele>
        <time>2010-01-02T19:34:31Z</time>
      </trkpt>
      <trkpt lat="54.196323752403259" lon="10.561770061030984">
        <ele>0</ele>
        <time>2010-01-02T19:34:38Z</time>
      </trkpt>
      <trkpt lat="54.19681778177619" lon="10.561305535957217">
        <ele>0</ele>
        <time>2010-01-02T19:35:01Z</time>
      </trkpt>
      <trkpt lat="54.196981647983193" lon="10.561181819066405">
        <ele>0</ele>
        <time>2010-01-02T19:35:08Z</time>
      </trkpt>
      <trkpt lat="54.197137970477343" lon="10.561102861538529">
        <ele>0</ele>
        <time>2010-01-02T19:35:14Z</time>
      </trkpt>
      <trkpt lat="54.197290940210223" lon="10.561048462986946">
        <ele>0</ele>
        <time>2010-01-02T19:35:21Z</time>
      </trkpt>
      <trkpt lat="54.197441479191184" lon="10.561012588441372">
        <ele>0</ele>
        <time>2010-01-02T19:35:27Z</time>
      </trkpt>
      <trkpt lat="54.197547258809209" lon="10.560996662825346">
        <ele>0</ele>
        <time>2010-01-02T19:35:31Z</time>
      </trkpt>
      <trkpt lat="54.197669383138418" lon="10.560990879312158">
        <ele>0</ele>
        <time>2010-01-02T19:35:36Z</time>
      </trkpt>
      <trkpt lat="54.198617208749056" lon="10.560902785509825">
        <ele>0</ele>
        <time>2010-01-02T19:36:14Z</time>
      </trkpt>
      <trkpt lat="54.199452633038163" lon="10.560815529897809">
        <ele>0</ele>
        <time>2010-01-02T19:36:47Z</time>
      </trkpt>
      <trkpt lat="54.200096949934959" lon="10.560751827433705">
        <ele>0</ele>
        <time>2010-01-02T19:37:13Z</time>
      </trkpt>
      <trkpt lat="54.200582513585687" lon="10.560704302042723">
        <ele>0</ele>
        <time>2010-01-02T19:37:33Z</time>
      </trkpt>
      <trkpt lat="54.201124403625727" lon="10.560637917369604">
        <ele>0</ele>
        <time>2010-01-02T19:37:54Z</time>
      </trkpt>
      <trkpt lat="54.201261531561613" lon="10.560610173270106">
        <ele>0</ele>
        <time>2010-01-02T19:38:00Z</time>
      </trkpt>
      <trkpt lat="54.201492536813021" lon="10.560543956235051">
        <ele>0</ele>
        <time>2010-01-02T19:38:09Z</time>
      </trkpt>
      <trkpt lat="54.201666293665767" lon="10.5604965146631">
        <ele>0</ele>
        <time>2010-01-02T19:38:16Z</time>
      </trkpt>
      <trkpt lat="54.201865112408996" lon="10.560445133596659">
        <ele>0</ele>
        <time>2010-01-02T19:38:24Z</time>
      </trkpt>
      <trkpt lat="54.202123777940869" lon="10.560361063107848">
        <ele>0</ele>
        <time>2010-01-02T19:38:35Z</time>
      </trkpt>
      <trkpt lat="54.20227138325572" lon="10.560303814709187">
        <ele>0</ele>
        <time>2010-01-02T19:38:41Z</time>
      </trkpt>
      <trkpt lat="54.202457126230001" lon="10.560210021212697">
        <ele>0</ele>
        <time>2010-01-02T19:38:49Z</time>
      </trkpt>
      <trkpt lat="54.202599786221981" lon="10.560114635154605">
        <ele>0</ele>
        <time>2010-01-02T19:38:55Z</time>
      </trkpt>
      <trkpt lat="54.202776644378901" lon="10.559955211356282">
        <ele>0</ele>
        <time>2010-01-02T19:39:03Z</time>
      </trkpt>
      <trkpt lat="54.202870773151517" lon="10.559859992936254">
        <ele>0</ele>
        <time>2010-01-02T19:39:07Z</time>
      </trkpt>
      <trkpt lat="54.202937912195921" lon="10.559764187783003">
        <ele>0</ele>
        <time>2010-01-02T19:39:11Z</time>
      </trkpt>
      <trkpt lat="54.203034052625299" lon="10.559613732621074">
        <ele>0</ele>
        <time>2010-01-02T19:39:16Z</time>
      </trkpt>
      <trkpt lat="54.203152908012271" lon="10.559413405135274">
        <ele>0</ele>
        <time>2010-01-02T19:39:23Z</time>
      </trkpt>
      <trkpt lat="54.203280145302415" lon="10.559156164526939">
        <ele>0</ele>
        <time>2010-01-02T19:39:30Z</time>
      </trkpt>
      <trkpt lat="54.203406795859337" lon="10.558926416561007">
        <ele>0</ele>
        <time>2010-01-02T19:39:38Z</time>
      </trkpt>
      <trkpt lat="54.203948685899377" lon="10.557882282882929">
        <ele>0</ele>
        <time>2010-01-02T19:40:11Z</time>
      </trkpt>
      <trkpt lat="54.204063015058637" lon="10.557751106098294">
        <ele>0</ele>
        <time>2010-01-02T19:40:16Z</time>
      </trkpt>
      <trkpt lat="54.204143146052957" lon="10.557691594585776">
        <ele>0</ele>
        <time>2010-01-02T19:40:20Z</time>
      </trkpt>
      <trkpt lat="54.204282201826572" lon="10.55760090239346">
        <ele>0</ele>
        <time>2010-01-02T19:40:25Z</time>
      </trkpt>
      <trkpt lat="54.204342886805534" lon="10.557562010362744">
        <ele>0</ele>
        <time>2010-01-02T19:40:28Z</time>
      </trkpt>
      <trkpt lat="54.204409690573812" lon="10.557518340647221">
        <ele>0</ele>
        <time>2010-01-02T19:40:31Z</time>
      </trkpt>
      <trkpt lat="54.204547069966793" lon="10.557436868548393">
        <ele>0</ele>
        <time>2010-01-02T19:40:37Z</time>
      </trkpt>
      <trkpt lat="54.204675061628222" lon="10.55762093514204">
        <ele>0</ele>
        <time>2010-01-02T19:40:43Z</time>
      </trkpt>
      <trkpt lat="54.204749157652259" lon="10.557728726416826">
        <ele>0</ele>
        <time>2010-01-02T19:40:47Z</time>
      </trkpt>
      <trkpt lat="54.204823421314359" lon="10.557851772755384">
        <ele>0</ele>
        <time>2010-01-02T19:40:51Z</time>
      </trkpt>
      <trkpt lat="54.204860553145409" lon="10.557954702526331">
        <ele>0</ele>
        <time>2010-01-02T19:40:54Z</time>
      </trkpt>
      <trkpt lat="54.204892823472619" lon="10.558097697794437">
        <ele>0</ele>
        <time>2010-01-02T19:40:58Z</time>
      </trkpt>
      <trkpt lat="54.204914197325706" lon="10.558228706941009">
        <ele>0</ele>
        <time>2010-01-02T19:41:01Z</time>
      </trkpt>
      <trkpt lat="54.204923836514354" lon="10.558285117149353">
        <ele>0</ele>
        <time>2010-01-02T19:41:02Z</time>
      </trkpt>
      <trkpt lat="54.204940348863602" lon="10.558387208729982">
        <ele>0</ele>
        <time>2010-01-02T19:41:05Z</time>
      </trkpt>
      <trkpt lat="54.204984102398157" lon="10.558817870914936">
        <ele>0</ele>
        <time>2010-01-02T19:41:15Z</time>
      </trkpt>
      <trkpt lat="54.205000028014183" lon="10.55894460529089">
        <ele>0</ele>
        <time>2010-01-02T19:41:18Z</time>
      </trkpt>
      <trkpt lat="54.205014361068606" lon="10.559017611667514">
        <ele>0</ele>
        <time>2010-01-02T19:41:20Z</time>
      </trkpt>
      <trkpt lat="54.205048140138388" lon="10.559136047959328">
        <ele>0</ele>
        <time>2010-01-02T19:41:23Z</time>
      </trkpt>
      <trkpt lat="54.20508879236877" lon="10.559232691302896">
        <ele>0</ele>
        <time>2010-01-02T19:41:26Z</time>
      </trkpt>
      <trkpt lat="54.205152913928032" lon="10.55933159776032">
        <ele>0</ele>
        <time>2010-01-02T19:41:29Z</time>
      </trkpt>
      <trkpt lat="54.205223154276609" lon="10.559421116486192">
        <ele>0</ele>
        <time>2010-01-02T19:41:33Z</time>
      </trkpt>
      <trkpt lat="54.205340500921011" lon="10.559542737901211">
        <ele>0</ele>
        <time>2010-01-02T19:41:38Z</time>
      </trkpt>
      <trkpt lat="54.205354079604149" lon="10.559551455080509">
        <ele>0</ele>
        <time>2010-01-02T19:41:39Z</time>
      </trkpt>
      <trkpt lat="54.205450136214495" lon="10.559615576639771">
        <ele>0</ele>
        <time>2010-01-02T19:41:43Z</time>
      </trkpt>
      <trkpt lat="54.205553149804473" lon="10.559665616601706">
        <ele>0</ele>
        <time>2010-01-02T19:41:47Z</time>
      </trkpt>
      <trkpt lat="54.205699246376753" lon="10.559712639078498">
        <ele>0</ele>
        <time>2010-01-02T19:41:53Z</time>
      </trkpt>
      <trkpt lat="54.205801840871572" lon="10.559730492532253">
        <ele>0</ele>
        <time>2010-01-02T19:41:57Z</time>
      </trkpt>
      <trkpt lat="54.206049190834165" lon="10.559748010709882">
        <ele>0</ele>
        <time>2010-01-02T19:42:07Z</time>
      </trkpt>
      <trkpt lat="54.206286901608109" lon="10.559758907184005">
        <ele>0</ele>
        <time>2010-01-02T19:42:17Z</time>
      </trkpt>
      <trkpt lat="54.207185273990035" lon="10.559856053441763">
        <ele>0</ele>
        <time>2010-01-02T19:42:53Z</time>
      </trkpt>
      <trkpt lat="54.207674777135253" lon="10.559885306283832">
        <ele>0</ele>
        <time>2010-01-02T19:43:12Z</time>
      </trkpt>
      <trkpt lat="54.207807630300522" lon="10.559867536649108">
        <ele>0</ele>
        <time>2010-01-02T19:43:18Z</time>
      </trkpt>
      <trkpt lat="54.207925144582987" lon="10.559811796993017">
        <ele>0</ele>
        <time>2010-01-02T19:43:23Z</time>
      </trkpt>
      <trkpt lat="54.207993457093835" lon="10.55976846255362">
        <ele>0</ele>
        <time>2010-01-02T19:43:26Z</time>
      </trkpt>
      <trkpt lat="54.208049615845084" lon="10.559704508632421">
        <ele>0</ele>
        <time>2010-01-02T19:43:28Z</time>
      </trkpt>
      <trkpt lat="54.208164447918534" lon="10.559539552778006">
        <ele>0</ele>
        <time>2010-01-02T19:43:34Z</time>
      </trkpt>
      <trkpt lat="54.20826829969883" lon="10.559362694621086">
        <ele>0</ele>
        <time>2010-01-02T19:43:40Z</time>
      </trkpt>
      <trkpt lat="54.208399392664433" lon="10.559129761531949">
        <ele>0</ele>
        <time>2010-01-02T19:43:48Z</time>
      </trkpt>
      <trkpt lat="54.208508944138885" lon="10.558972684666514">
        <ele>0</ele>
        <time>2010-01-02T19:43:53Z</time>
      </trkpt>
      <trkpt lat="54.208595613017678" lon="10.558857768774033">
        <ele>0</ele>
        <time>2010-01-02T19:43:58Z</time>
      </trkpt>
      <trkpt lat="54.208956118673086" lon="10.558420652523637">
        <ele>0</ele>
        <time>2010-01-02T19:44:16Z</time>
      </trkpt>
      <trkpt lat="54.209025353193283" lon="10.558349238708615">
        <ele>0</ele>
        <time>2010-01-02T19:44:19Z</time>
      </trkpt>
      <trkpt lat="54.209055528044701" lon="10.558317555114627">
        <ele>0</ele>
        <time>2010-01-02T19:44:20Z</time>
      </trkpt>
      <trkpt lat="54.209141861647367" lon="10.558253265917301">
        <ele>0</ele>
        <time>2010-01-02T19:44:24Z</time>
      </trkpt>
      <trkpt lat="54.209225932136178" lon="10.55821655318141">
        <ele>0</ele>
        <time>2010-01-02T19:44:27Z</time>
      </trkpt>
      <trkpt lat="54.209331627935171" lon="10.558194508776069">
        <ele>0</ele>
        <time>2010-01-02T19:44:32Z</time>
      </trkpt>
      <trkpt lat="54.209462804719806" lon="10.558194508776069">
        <ele>0</ele>
        <time>2010-01-02T19:44:37Z</time>
      </trkpt>
      <trkpt lat="54.209632622078061" lon="10.558193251490593">
        <ele>0</ele>
        <time>2010-01-02T19:44:44Z</time>
      </trkpt>
      <trkpt lat="54.209790201857686" lon="10.558219905942678">
        <ele>0</ele>
        <time>2010-01-02T19:44:50Z</time>
      </trkpt>
      <trkpt lat="54.210103265941143" lon="10.558250416070223">
        <ele>0</ele>
        <time>2010-01-02T19:45:03Z</time>
      </trkpt>
      <trkpt lat="54.210223965346813" lon="10.558206411078572">
        <ele>0</ele>
        <time>2010-01-02T19:45:08Z</time>
      </trkpt>
      <trkpt lat="54.210283812135458" lon="10.558173637837172">
        <ele>0</ele>
        <time>2010-01-02T19:45:10Z</time>
      </trkpt>
      <trkpt lat="54.21040853485465" lon="10.558086549863219">
        <ele>0</ele>
        <time>2010-01-02T19:45:16Z</time>
      </trkpt>
      <trkpt lat="54.210531245917082" lon="10.557979512959719">
        <ele>0</ele>
        <time>2010-01-02T19:45:21Z</time>
      </trkpt>
      <trkpt lat="54.210622441023588" lon="10.557862920686603">
        <ele>0</ele>
        <time>2010-01-02T19:45:26Z</time>
      </trkpt>
      <trkpt lat="54.210684131830931" lon="10.557764181867242">
        <ele>0</ele>
        <time>2010-01-02T19:45:29Z</time>
      </trkpt>
      <trkpt lat="54.210734842345119" lon="10.557645913213491">
        <ele>0</ele>
        <time>2010-01-02T19:45:32Z</time>
      </trkpt>
      <trkpt lat="54.210761329159141" lon="10.557533092796803">
        <ele>0</ele>
        <time>2010-01-02T19:45:35Z</time>
      </trkpt>
      <trkpt lat="54.21077499166131" lon="10.557471318170428">
        <ele>0</ele>
        <time>2010-01-02T19:45:37Z</time>
      </trkpt>
      <trkpt lat="54.210792509838939" lon="10.55736193433404">
        <ele>0</ele>
        <time>2010-01-02T19:45:39Z</time>
      </trkpt>
      <trkpt lat="54.210797538980842" lon="10.557331088930368">
        <ele>0</ele>
        <time>2010-01-02T19:45:40Z</time>
      </trkpt>
      <trkpt lat="54.210829976946115" lon="10.556986760348082">
        <ele>0</ele>
        <time>2010-01-02T19:45:48Z</time>
      </trkpt>
      <trkpt lat="54.211530452594161" lon="10.556786181405187">
        <ele>0</ele>
        <time>2010-01-02T19:46:17Z</time>
      </trkpt>
      <trkpt lat="54.21192230656743" lon="10.556353759020567">
        <ele>0</ele>
        <time>2010-01-02T19:46:35Z</time>
      </trkpt>
      <trkpt lat="54.212293121963739" lon="10.556173883378506">
        <ele>0</ele>
        <time>2010-01-02T19:46:51Z</time>
      </trkpt>
      <trkpt lat="54.212269652634859" lon="10.55543627589941">
        <ele>0</ele>
        <time>2010-01-02T19:47:08Z</time>
      </trkpt>
      <trkpt lat="54.212607694789767" lon="10.55515774525702">
        <ele>0</ele>
        <time>2010-01-02T19:47:23Z</time>
      </trkpt>
      <trkpt lat="54.212451791390777" lon="10.554379904642701">
        <ele>0</ele>
        <time>2010-01-02T19:47:42Z</time>
      </trkpt>
      <trkpt lat="54.212608281522989" lon="10.55434268899262">
        <ele>0</ele>
        <time>2010-01-02T19:47:49Z</time>
      </trkpt>
      <trkpt lat="54.212686568498611" lon="10.554327266290784">
        <ele>0</ele>
        <time>2010-01-02T19:47:52Z</time>
      </trkpt>
      <trkpt lat="54.212761502712965" lon="10.554343611001968">
        <ele>0</ele>
        <time>2010-01-02T19:47:55Z</time>
      </trkpt>
      <trkpt lat="54.212862672284245" lon="10.554365571588278">
        <ele>0</ele>
        <time>2010-01-02T19:47:59Z</time>
      </trkpt>
      <trkpt lat="54.21302855014801" lon="10.554486941546202">
        <ele>0</ele>
        <time>2010-01-02T19:48:06Z</time>
      </trkpt>
      <trkpt lat="54.213212952017784" lon="10.554595068097115">
        <ele>0</ele>
        <time>2010-01-02T19:48:14Z</time>
      </trkpt>
      <trkpt lat="54.21329190954566" lon="10.554630439728498">
        <ele>0</ele>
        <time>2010-01-02T19:48:17Z</time>
      </trkpt>
      <trkpt lat="54.213568931445479" lon="10.554665392264724">
        <ele>0</ele>
        <time>2010-01-02T19:48:28Z</time>
      </trkpt>
      <trkpt lat="54.213687954470515" lon="10.554627338424325">
        <ele>0</ele>
        <time>2010-01-02T19:48:33Z</time>
      </trkpt>
      <trkpt lat="54.213889287784696" lon="10.554632619023323">
        <ele>0</ele>
        <time>2010-01-02T19:48:41Z</time>
      </trkpt>
      <trkpt lat="54.213962210342288" lon="10.554643850773573">
        <ele>0</ele>
        <time>2010-01-02T19:48:44Z</time>
      </trkpt>
      <trkpt lat="54.214078383520246" lon="10.554667403921485">
        <ele>0</ele>
        <time>2010-01-02T19:48:49Z</time>
      </trkpt>
      <trkpt lat="54.214152228087187" lon="10.554681653156877">
        <ele>0</ele>
        <time>2010-01-02T19:48:52Z</time>
      </trkpt>
      <trkpt lat="54.214210901409388" lon="10.554701099172235">
        <ele>0</ele>
        <time>2010-01-02T19:48:54Z</time>
      </trkpt>
      <trkpt lat="54.214279381558299" lon="10.554721718654037">
        <ele>0</ele>
        <time>2010-01-02T19:48:57Z</time>
      </trkpt>
      <trkpt lat="54.214423801749945" lon="10.554773351177573">
        <ele>0</ele>
        <time>2010-01-02T19:49:03Z</time>
      </trkpt>
      <trkpt lat="54.214537376537919" lon="10.554809309542179">
        <ele>0</ele>
        <time>2010-01-02T19:49:08Z</time>
      </trkpt>
      <trkpt lat="54.214635780081153" lon="10.554844178259373">
        <ele>0</ele>
        <time>2010-01-02T19:49:12Z</time>
      </trkpt>
      <trkpt lat="54.214791851118207" lon="10.554900001734495">
        <ele>0</ele>
        <time>2010-01-02T19:49:18Z</time>
      </trkpt>
      <trkpt lat="54.215063424780965" lon="10.554991699755192">
        <ele>0</ele>
        <time>2010-01-02T19:49:29Z</time>
      </trkpt>
      <trkpt lat="54.215245647355914" lon="10.555055905133486">
        <ele>0</ele>
        <time>2010-01-02T19:49:37Z</time>
      </trkpt>
      <trkpt lat="54.215381937101483" lon="10.555104771628976">
        <ele>0</ele>
        <time>2010-01-02T19:49:42Z</time>
      </trkpt>
      <trkpt lat="54.215484699234366" lon="10.555134946480393">
        <ele>0</ele>
        <time>2010-01-02T19:49:46Z</time>
      </trkpt>
      <trkpt lat="54.215572290122509" lon="10.555170234292746">
        <ele>0</ele>
        <time>2010-01-02T19:49:50Z</time>
      </trkpt>
      <trkpt lat="54.215680668130517" lon="10.555213987827301">
        <ele>0</ele>
        <time>2010-01-02T19:49:54Z</time>
      </trkpt>
      <trkpt lat="54.215811677277088" lon="10.555275259539485">
        <ele>0</ele>
        <time>2010-01-02T19:50:00Z</time>
      </trkpt>
      <trkpt lat="54.216055674478412" lon="10.555394031107426">
        <ele>0</ele>
        <time>2010-01-02T19:50:10Z</time>
      </trkpt>
      <trkpt lat="54.216074617579579" lon="10.555404257029295">
        <ele>0</ele>
        <time>2010-01-02T19:50:11Z</time>
      </trkpt>
      <trkpt lat="54.216258097440004" lon="10.555491261184216">
        <ele>0</ele>
        <time>2010-01-02T19:50:18Z</time>
      </trkpt>
      <trkpt lat="54.216447779908776" lon="10.555571978911757">
        <ele>0</ele>
        <time>2010-01-02T19:50:26Z</time>
      </trkpt>
      <trkpt lat="54.216626398265362" lon="10.555637776851654">
        <ele>0</ele>
        <time>2010-01-02T19:50:34Z</time>
      </trkpt>
      <trkpt lat="54.216765454038978" lon="10.555692762136459">
        <ele>0</ele>
        <time>2010-01-02T19:50:39Z</time>
      </trkpt>
      <trkpt lat="54.216907359659672" lon="10.555761409923434">
        <ele>0</ele>
        <time>2010-01-02T19:50:45Z</time>
      </trkpt>
      <trkpt lat="54.217010289430618" lon="10.555806839838624">
        <ele>0</ele>
        <time>2010-01-02T19:50:49Z</time>
      </trkpt>
      <trkpt lat="54.217113303020597" lon="10.555850761011243">
        <ele>0</ele>
        <time>2010-01-02T19:50:54Z</time>
      </trkpt>
      <trkpt lat="54.217223273590207" lon="10.555880684405565">
        <ele>0</ele>
        <time>2010-01-02T19:50:58Z</time>
      </trkpt>
      <trkpt lat="54.217274989932775" lon="10.555902644991875">
        <ele>0</ele>
        <time>2010-01-02T19:51:00Z</time>
      </trkpt>
      <trkpt lat="54.217363838106394" lon="10.555917145684361">
        <ele>0</ele>
        <time>2010-01-02T19:51:04Z</time>
      </trkpt>
      <trkpt lat="54.217434916645288" lon="10.555925443768501">
        <ele>0</ele>
        <time>2010-01-02T19:51:07Z</time>
      </trkpt>
      <trkpt lat="54.217524854466319" lon="10.555931478738785">
        <ele>0</ele>
        <time>2010-01-02T19:51:10Z</time>
      </trkpt>
      <trkpt lat="54.217626610770822" lon="10.555949416011572">
        <ele>0</ele>
        <time>2010-01-02T19:51:14Z</time>
      </trkpt>
      <trkpt lat="54.217723840847611" lon="10.555964419618249">
        <ele>0</ele>
        <time>2010-01-02T19:51:18Z</time>
      </trkpt>
      <trkpt lat="54.217818388715386" lon="10.555985625833273">
        <ele>0</ele>
        <time>2010-01-02T19:51:22Z</time>
      </trkpt>
      <trkpt lat="54.217831045389175" lon="10.555988224223256">
        <ele>0</ele>
        <time>2010-01-02T19:51:23Z</time>
      </trkpt>
      <trkpt lat="54.217925677075982" lon="10.556011022999883">
        <ele>0</ele>
        <time>2010-01-02T19:51:26Z</time>
      </trkpt>
      <trkpt lat="54.218009496107697" lon="10.55603876709938">
        <ele>0</ele>
        <time>2010-01-02T19:51:30Z</time>
      </trkpt>
      <trkpt lat="54.218112342059612" lon="10.556068858131766">
        <ele>0</ele>
        <time>2010-01-02T19:51:34Z</time>
      </trkpt>
      <trkpt lat="54.218197083100677" lon="10.556096602231264">
        <ele>0</ele>
        <time>2010-01-02T19:51:37Z</time>
      </trkpt>
      <trkpt lat="54.218239495530725" lon="10.556110432371497">
        <ele>0</ele>
        <time>2010-01-02T19:51:39Z</time>
      </trkpt>
      <trkpt lat="54.218284506350756" lon="10.556115042418242">
        <ele>0</ele>
        <time>2010-01-02T19:51:41Z</time>
      </trkpt>
      <trkpt lat="54.218343766406178" lon="10.556111438199878">
        <ele>0</ele>
        <time>2010-01-02T19:51:43Z</time>
      </trkpt>
      <trkpt lat="54.21840294264257" lon="10.556100122630596">
        <ele>0</ele>
        <time>2010-01-02T19:51:46Z</time>
      </trkpt>
      <trkpt lat="54.218459352850914" lon="10.556085957214236">
        <ele>0</ele>
        <time>2010-01-02T19:51:48Z</time>
      </trkpt>
      <trkpt lat="54.218538058921695" lon="10.556058632209897">
        <ele>0</ele>
        <time>2010-01-02T19:51:51Z</time>
      </trkpt>
      <trkpt lat="54.218602431938052" lon="10.556033402681351">
        <ele>0</ele>
        <time>2010-01-02T19:51:54Z</time>
      </trkpt>
      <trkpt lat="54.218705948442221" lon="10.555974645540118">
        <ele>0</ele>
        <time>2010-01-02T19:51:58Z</time>
      </trkpt>
      <trkpt lat="54.218838214874268" lon="10.5559116974473">
        <ele>0</ele>
        <time>2010-01-02T19:52:04Z</time>
      </trkpt>
      <trkpt lat="54.218926560133696" lon="10.555859562009573">
        <ele>0</ele>
        <time>2010-01-02T19:52:08Z</time>
      </trkpt>
      <trkpt lat="54.21900937333703" lon="10.555801475420594">
        <ele>0</ele>
        <time>2010-01-02T19:52:11Z</time>
      </trkpt>
      <trkpt lat="54.219044996425509" lon="10.555772641673684">
        <ele>0</ele>
        <time>2010-01-02T19:52:13Z</time>
      </trkpt>
      <trkpt lat="54.219091767445207" lon="10.555853862315416">
        <ele>0</ele>
        <time>2010-01-02T19:52:15Z</time>
      </trkpt>
      <trkpt lat="54.219134179875255" lon="10.555942794308066">
        <ele>0</ele>
        <time>2010-01-02T19:52:18Z</time>
      </trkpt>
      <trkpt lat="54.219162091612816" lon="10.556021584197879">
        <ele>0</ele>
        <time>2010-01-02T19:52:20Z</time>
      </trkpt>
      <trkpt lat="54.219194781035185" lon="10.556124681606889">
        <ele>0</ele>
        <time>2010-01-02T19:52:23Z</time>
      </trkpt>
      <trkpt lat="54.219218418002129" lon="10.556223504245281">
        <ele>0</ele>
        <time>2010-01-02T19:52:25Z</time>
      </trkpt>
      <trkpt lat="54.219249933958054" lon="10.55637882091105">
        <ele>0</ele>
        <time>2010-01-02T19:52:29Z</time>
      </trkpt>
      <trkpt lat="54.219286143779755" lon="10.556550733745098">
        <ele>0</ele>
        <time>2010-01-02T19:52:34Z</time>
      </trkpt>
      <trkpt lat="54.219296621158719" lon="10.556601025164127">
        <ele>0</ele>
        <time>2010-01-02T19:52:35Z</time>
      </trkpt>
      <trkpt lat="54.219326041638851" lon="10.556734884157777">
        <ele>0</ele>
        <time>2010-01-02T19:52:38Z</time>
      </trkpt>
      <trkpt lat="54.219360072165728" lon="10.556871676817536">
        <ele>0</ele>
        <time>2010-01-02T19:52:42Z</time>
      </trkpt>
      <trkpt lat="54.219396449625492" lon="10.556983910501003">
        <ele>0</ele>
        <time>2010-01-02T19:52:45Z</time>
      </trkpt>
      <trkpt lat="54.219429809600115" lon="10.557070076465607">
        <ele>0</ele>
        <time>2010-01-02T19:52:47Z</time>
      </trkpt>
      <trkpt lat="54.219462079927325" lon="10.557134952396154">
        <ele>0</ele>
        <time>2010-01-02T19:52:49Z</time>
      </trkpt>
      <trkpt lat="54.219498122110963" lon="10.5572241358459">
        <ele>0</ele>
        <time>2010-01-02T19:52:52Z</time>
      </trkpt>
      <trkpt lat="54.219515640288591" lon="10.557261854410172">
        <ele>0</ele>
        <time>2010-01-02T19:52:53Z</time>
      </trkpt>
      <trkpt lat="54.21955076046288" lon="10.557338800281286">
        <ele>0</ele>
        <time>2010-01-02T19:52:55Z</time>
      </trkpt>
      <trkpt lat="54.219709429889917" lon="10.557682877406478">
        <ele>0</ele>
        <time>2010-01-02T19:53:05Z</time>
      </trkpt>
      <trkpt lat="54.219918474555016" lon="10.558112533763051">
        <ele>0</ele>
        <time>2010-01-02T19:53:18Z</time>
      </trkpt>
      <trkpt lat="54.220072031021118" lon="10.558404643088579">
        <ele>0</ele>
        <time>2010-01-02T19:53:28Z</time>
      </trkpt>
      <trkpt lat="54.220329187810421" lon="10.55886791087687">
        <ele>0</ele>
        <time>2010-01-02T19:53:42Z</time>
      </trkpt>
      <trkpt lat="54.220489952713251" lon="10.559164378792048">
        <ele>0</ele>
        <time>2010-01-02T19:53:52Z</time>
      </trkpt>
      <trkpt lat="54.220719365403056" lon="10.559565704315901">
        <ele>0</ele>
        <time>2010-01-02T19:54:05Z</time>
      </trkpt>
      <trkpt lat="54.220731351524591" lon="10.559591352939606">
        <ele>0</ele>
        <time>2010-01-02T19:54:06Z</time>
      </trkpt>
      <trkpt lat="54.220955148339272" lon="10.560051184147596">
        <ele>0</ele>
        <time>2010-01-02T19:54:20Z</time>
      </trkpt>
      <trkpt lat="54.221030753105879" lon="10.56021261960268">
        <ele>0</ele>
        <time>2010-01-02T19:54:25Z</time>
      </trkpt>
      <trkpt lat="54.221051959320903" lon="10.560256373137236">
        <ele>0</ele>
        <time>2010-01-02T19:54:26Z</time>
      </trkpt>
      <trkpt lat="54.22106210142374" lon="10.560277495533228">
        <ele>0</ele>
        <time>2010-01-02T19:54:27Z</time>
      </trkpt>
      <trkpt lat="54.221116080880165" lon="10.560356872156262">
        <ele>0</ele>
        <time>2010-01-02T19:54:30Z</time>
      </trkpt>
      <trkpt lat="54.221186237409711" lon="10.560441864654422">
        <ele>0</ele>
        <time>2010-01-02T19:54:33Z</time>
      </trkpt>
      <trkpt lat="54.221240887418389" lon="10.560499699786305">
        <ele>0</ele>
        <time>2010-01-02T19:54:36Z</time>
      </trkpt>
      <trkpt lat="54.221325293183327" lon="10.560573460534215">
        <ele>0</ele>
        <time>2010-01-02T19:54:39Z</time>
      </trkpt>
      <trkpt lat="54.221467701718211" lon="10.560688124969602">
        <ele>0</ele>
        <time>2010-01-02T19:54:46Z</time>
      </trkpt>
      <trkpt lat="54.221649002283812" lon="10.560821313410997">
        <ele>0</ele>
        <time>2010-01-02T19:54:54Z</time>
      </trkpt>
      <trkpt lat="54.221826028078794" lon="10.56097000837326">
        <ele>0</ele>
        <time>2010-01-02T19:55:01Z</time>
      </trkpt>
      <trkpt lat="54.222020069137216" lon="10.561122726649046">
        <ele>0</ele>
        <time>2010-01-02T19:55:10Z</time>
      </trkpt>
      <trkpt lat="54.22201638109982" lon="10.561340572312474">
        <ele>0</ele>
        <time>2010-01-02T19:55:15Z</time>
      </trkpt>
      <trkpt lat="54.222019230946898" lon="10.561576606705785">
        <ele>0</ele>
        <time>2010-01-02T19:55:21Z</time>
      </trkpt>
      <trkpt lat="54.222020655870438" lon="10.561619522050023">
        <ele>0</ele>
        <time>2010-01-02T19:55:22Z</time>
      </trkpt>
      <trkpt lat="54.22203004360199" lon="10.561879863962531">
        <ele>0</ele>
        <time>2010-01-02T19:55:28Z</time>
      </trkpt>
      <trkpt lat="54.222042113542557" lon="10.56228881701827">
        <ele>0</ele>
        <time>2010-01-02T19:55:37Z</time>
      </trkpt>
      <trkpt lat="54.222046639770269" lon="10.562443463131785">
        <ele>0</ele>
        <time>2010-01-02T19:55:41Z</time>
      </trkpt>
      <trkpt lat="54.222056530416012" lon="10.56274370290339">
        <ele>0</ele>
        <time>2010-01-02T19:55:48Z</time>
      </trkpt>
      <trkpt lat="54.222065750509501" lon="10.563142010942101">
        <ele>0</ele>
        <time>2010-01-02T19:55:57Z</time>
      </trkpt>
      <trkpt lat="54.22206767834723" lon="10.563379637897015">
        <ele>0</ele>
        <time>2010-01-02T19:56:03Z</time>
      </trkpt>
      <trkpt lat="54.222063235938549" lon="10.56353772059083">
        <ele>0</ele>
        <time>2010-01-02T19:56:07Z</time>
      </trkpt>
      <trkpt lat="54.222057703882456" lon="10.563974836841226">
        <ele>0</ele>
        <time>2010-01-02T19:56:17Z</time>
      </trkpt>
      <trkpt lat="54.222049238160253" lon="10.564320171251893">
        <ele>0</ele>
        <time>2010-01-02T19:56:25Z</time>
      </trkpt>
      <trkpt lat="54.222036665305495" lon="10.564621081575751">
        <ele>0</ele>
        <time>2010-01-02T19:56:32Z</time>
      </trkpt>
      <trkpt lat="54.222020655870438" lon="10.564860887825489">
        <ele>0</ele>
        <time>2010-01-02T19:56:38Z</time>
      </trkpt>
      <trkpt lat="54.222011435776949" lon="10.565069681033492">
        <ele>0</ele>
        <time>2010-01-02T19:56:42Z</time>
      </trkpt>
      <trkpt lat="54.222005400806665" lon="10.565243186429143">
        <ele>0</ele>
        <time>2010-01-02T19:56:47Z</time>
      </trkpt>
      <trkpt lat="54.222011184319854" lon="10.565425409004092">
        <ele>0</ele>
        <time>2010-01-02T19:56:51Z</time>
      </trkpt>
      <trkpt lat="54.22201931476593" lon="10.565583072602749">
        <ele>0</ele>
        <time>2010-01-02T19:56:55Z</time>
      </trkpt>
      <trkpt lat="54.222029205411673" lon="10.565736042335629">
        <ele>0</ele>
        <time>2010-01-02T19:56:58Z</time>
      </trkpt>
      <trkpt lat="54.222048986703157" lon="10.565884066745639">
        <ele>0</ele>
        <time>2010-01-02T19:57:02Z</time>
      </trkpt>
      <trkpt lat="54.222070947289467" lon="10.565996803343296">
        <ele>0</ele>
        <time>2010-01-02T19:57:04Z</time>
      </trkpt>
      <trkpt lat="54.222100367769599" lon="10.566126136109233">
        <ele>0</ele>
        <time>2010-01-02T19:57:08Z</time>
      </trkpt>
      <trkpt lat="54.222132302820683" lon="10.566243063658476">
        <ele>0</ele>
        <time>2010-01-02T19:57:11Z</time>
      </trkpt>
      <trkpt lat="54.222189970314503" lon="10.566408187150955">
        <ele>0</ele>
        <time>2010-01-02T19:57:15Z</time>
      </trkpt>
      <trkpt lat="54.222280913963914" lon="10.566647322848439">
        <ele>0</ele>
        <time>2010-01-02T19:57:22Z</time>
      </trkpt>
      <trkpt lat="54.222392644733191" lon="10.566999446600676">
        <ele>0</ele>
        <time>2010-01-02T19:57:31Z</time>
      </trkpt>
      <trkpt lat="54.222490042448044" lon="10.567327765747905">
        <ele>0</ele>
        <time>2010-01-02T19:57:40Z</time>
      </trkpt>
      <trkpt lat="54.222586853429675" lon="10.567685337737203">
        <ele>0</ele>
        <time>2010-01-02T19:57:49Z</time>
      </trkpt>
      <trkpt lat="54.222684670239687" lon="10.568050537258387">
        <ele>0</ele>
        <time>2010-01-02T19:57:59Z</time>
      </trkpt>
      <trkpt lat="54.222765723243356" lon="10.568355470895767">
        <ele>0</ele>
        <time>2010-01-02T19:58:06Z</time>
      </trkpt>
      <trkpt lat="54.22281626611948" lon="10.568525455892086">
        <ele>0</ele>
        <time>2010-01-02T19:58:11Z</time>
      </trkpt>
      <trkpt lat="54.22286119312048" lon="10.568683370947838">
        <ele>0</ele>
        <time>2010-01-02T19:58:15Z</time>
      </trkpt>
      <trkpt lat="54.222911484539509" lon="10.568828796967864">
        <ele>0</ele>
        <time>2010-01-02T19:58:19Z</time>
      </trkpt>
      <trkpt lat="54.222965883091092" lon="10.568949580192566">
        <ele>0</ele>
        <time>2010-01-02T19:58:22Z</time>
      </trkpt>
      <trkpt lat="54.223012737929821" lon="10.569030800834298">
        <ele>0</ele>
        <time>2010-01-02T19:58:25Z</time>
      </trkpt>
      <trkpt lat="54.223052887246013" lon="10.569084612652659">
        <ele>0</ele>
        <time>2010-01-02T19:58:27Z</time>
      </trkpt>
      <trkpt lat="54.223118601366878" lon="10.569171281531453">
        <ele>0</ele>
        <time>2010-01-02T19:58:30Z</time>
      </trkpt>
      <trkpt lat="54.223240055143833" lon="10.569338835775852">
        <ele>0</ele>
        <time>2010-01-02T19:58:37Z</time>
      </trkpt>
      <trkpt lat="54.223347930237651" lon="10.569489961490035">
        <ele>0</ele>
        <time>2010-01-02T19:58:42Z</time>
      </trkpt>
      <trkpt lat="54.223440550267696" lon="10.569652318954468">
        <ele>0</ele>
        <time>2010-01-02T19:58:48Z</time>
      </trkpt>
      <trkpt lat="54.223520681262016" lon="10.56981367059052">
        <ele>0</ele>
        <time>2010-01-02T19:58:53Z</time>
      </trkpt>
      <trkpt lat="54.223599806427956" lon="10.569968819618225">
        <ele>0</ele>
        <time>2010-01-02T19:58:57Z</time>
      </trkpt>
      <trkpt lat="54.223650516942143" lon="10.570079041644931">
        <ele>0</ele>
        <time>2010-01-02T19:59:01Z</time>
      </trkpt>
      <trkpt lat="54.223700473085046" lon="10.570199908688664">
        <ele>0</ele>
        <time>2010-01-02T19:59:04Z</time>
      </trkpt>
      <trkpt lat="54.223750596866012" lon="10.570337790995836">
        <ele>0</ele>
        <time>2010-01-02T19:59:08Z</time>
      </trkpt>
      <trkpt lat="54.223804660141468" lon="10.57050459086895">
        <ele>0</ele>
        <time>2010-01-02T19:59:12Z</time>
      </trkpt>
      <trkpt lat="54.223930388689041" lon="10.570875909179449">
        <ele>0</ele>
        <time>2010-01-02T19:59:22Z</time>
      </trkpt>
      <trkpt lat="54.223992833867669" lon="10.571062322705984">
        <ele>0</ele>
        <time>2010-01-02T19:59:27Z</time>
      </trkpt>
      <trkpt lat="54.224045304581523" lon="10.571249155327678">
        <ele>0</ele>
        <time>2010-01-02T19:59:32Z</time>
      </trkpt>
      <trkpt lat="54.224097020924091" lon="10.571437496691942">
        <ele>0</ele>
        <time>2010-01-02T19:59:37Z</time>
      </trkpt>
      <trkpt lat="54.224141109734774" lon="10.571600021794438">
        <ele>0</ele>
        <time>2010-01-02T19:59:41Z</time>
      </trkpt>
      <trkpt lat="54.224167512729764" lon="10.571704879403114">
        <ele>0</ele>
        <time>2010-01-02T19:59:44Z</time>
      </trkpt>
      <trkpt lat="54.224224844947457" lon="10.571919120848179">
        <ele>0</ele>
        <time>2010-01-02T19:59:50Z</time>
      </trkpt>
      <trkpt lat="54.224302126094699" lon="10.572223132476211">
        <ele>0</ele>
        <time>2010-01-02T19:59:57Z</time>
      </trkpt>
      <trkpt lat="54.224323751404881" lon="10.572302090004086">
        <ele>0</ele>
        <time>2010-01-02T19:59:59Z</time>
      </trkpt>
      <trkpt lat="54.224355015903711" lon="10.572437541559339">
        <ele>0</ele>
        <time>2010-01-02T20:00:03Z</time>
      </trkpt>
      <trkpt lat="54.224375300109386" lon="10.572559498250484">
        <ele>0</ele>
        <time>2010-01-02T20:00:06Z</time>
      </trkpt>
      <trkpt lat="54.224393740296364" lon="10.572676928713918">
        <ele>0</ele>
        <time>2010-01-02T20:00:09Z</time>
      </trkpt>
      <trkpt lat="54.224406816065311" lon="10.572791509330273">
        <ele>0</ele>
        <time>2010-01-02T20:00:11Z</time>
      </trkpt>
      <trkpt lat="54.224410839378834" lon="10.572900222614408">
        <ele>0</ele>
        <time>2010-01-02T20:00:14Z</time>
      </trkpt>
      <trkpt lat="54.224406229332089" lon="10.572969373315573">
        <ele>0</ele>
        <time>2010-01-02T20:00:16Z</time>
      </trkpt>
      <trkpt lat="54.224396422505379" lon="10.573052521795034">
        <ele>0</ele>
        <time>2010-01-02T20:00:18Z</time>
      </trkpt>
      <trkpt lat="54.224376725032926" lon="10.573132904246449">
        <ele>0</ele>
        <time>2010-01-02T20:00:20Z</time>
      </trkpt>
      <trkpt lat="54.22434420324862" lon="10.573273552581668">
        <ele>0</ele>
        <time>2010-01-02T20:00:23Z</time>
      </trkpt>
      <trkpt lat="54.224297013133764" lon="10.573459211736917">
        <ele>0</ele>
        <time>2010-01-02T20:00:28Z</time>
      </trkpt>
      <trkpt lat="54.224245296791196" lon="10.573643445968628">
        <ele>0</ele>
        <time>2010-01-02T20:00:33Z</time>
      </trkpt>
      <trkpt lat="54.224235406145453" lon="10.573675716295838">
        <ele>0</ele>
        <time>2010-01-02T20:00:33Z</time>
      </trkpt>
      <trkpt lat="54.22420640476048" lon="10.573770515620708">
        <ele>0</ele>
        <time>2010-01-02T20:00:36Z</time>
      </trkpt>
      <trkpt lat="54.224145216867328" lon="10.573991881683469">
        <ele>0</ele>
        <time>2010-01-02T20:00:42Z</time>
      </trkpt>
      <trkpt lat="54.224101966246963" lon="10.57413755916059">
        <ele>0</ele>
        <time>2010-01-02T20:00:46Z</time>
      </trkpt>
      <trkpt lat="54.224061062559485" lon="10.574246272444725">
        <ele>0</ele>
        <time>2010-01-02T20:00:49Z</time>
      </trkpt>
      <trkpt lat="54.224016470834613" lon="10.57435205206275">
        <ele>0</ele>
        <time>2010-01-02T20:00:52Z</time>
      </trkpt>
      <trkpt lat="54.223977830260992" lon="10.574426986277103">
        <ele>0</ele>
        <time>2010-01-02T20:00:54Z</time>
      </trkpt>
      <trkpt lat="54.223919659852982" lon="10.574521031230688">
        <ele>0</ele>
        <time>2010-01-02T20:00:57Z</time>
      </trkpt>
      <trkpt lat="54.223864926025271" lon="10.574607197195292">
        <ele>0</ele>
        <time>2010-01-02T20:01:00Z</time>
      </trkpt>
      <trkpt lat="54.223800469189882" lon="10.574703002348542">
        <ele>0</ele>
        <time>2010-01-02T20:01:04Z</time>
      </trkpt>
      <trkpt lat="54.223653115332127" lon="10.574930403381586">
        <ele>0</ele>
        <time>2010-01-02T20:01:11Z</time>
      </trkpt>
      <trkpt lat="54.223579857498407" lon="10.575040290132165">
        <ele>0</ele>
        <time>2010-01-02T20:01:15Z</time>
      </trkpt>
      <trkpt lat="54.223520597442985" lon="10.575120504945517">
        <ele>0</ele>
        <time>2010-01-02T20:01:18Z</time>
      </trkpt>
      <trkpt lat="54.223471144214272" lon="10.575192756950855">
        <ele>0</ele>
        <time>2010-01-02T20:01:21Z</time>
      </trkpt>
      <trkpt lat="54.223433258011937" lon="10.575253861024976">
        <ele>0</ele>
        <time>2010-01-02T20:01:23Z</time>
      </trkpt>
      <trkpt lat="54.223395371809602" lon="10.575319491326809">
        <ele>0</ele>
        <time>2010-01-02T20:01:25Z</time>
      </trkpt>
      <trkpt lat="54.223379530012608" lon="10.575350755825639">
        <ele>0</ele>
        <time>2010-01-02T20:01:26Z</time>
      </trkpt>
      <trkpt lat="54.223363939672709" lon="10.575394174084067">
        <ele>0</ele>
        <time>2010-01-02T20:01:27Z</time>
      </trkpt>
      <trkpt lat="54.223319767042994" lon="10.575538342818618">
        <ele>0</ele>
        <time>2010-01-02T20:01:31Z</time>
      </trkpt>
      <trkpt lat="54.22328389249742" lon="10.575695922598243">
        <ele>0</ele>
        <time>2010-01-02T20:01:35Z</time>
      </trkpt>
      <trkpt lat="54.223176268860698" lon="10.57608911767602">
        <ele>0</ele>
        <time>2010-01-02T20:01:45Z</time>
      </trkpt>
      <trkpt lat="54.222914250567555" lon="10.577031914144754">
        <ele>0</ele>
        <time>2010-01-02T20:02:10Z</time>
      </trkpt>
      <trkpt lat="54.222889943048358" lon="10.577106345444918">
        <ele>0</ele>
        <time>2010-01-02T20:02:12Z</time>
      </trkpt>
      <trkpt lat="54.22280503436923" lon="10.577371465042233">
        <ele>0</ele>
        <time>2010-01-02T20:02:19Z</time>
      </trkpt>
      <trkpt lat="54.222738649696112" lon="10.577609846368432">
        <ele>0</ele>
        <time>2010-01-02T20:02:25Z</time>
      </trkpt>
      <trkpt lat="54.222689615562558" lon="10.577790979295969">
        <ele>0</ele>
        <time>2010-01-02T20:02:30Z</time>
      </trkpt>
      <trkpt lat="54.222625829279423" lon="10.57802164927125">
        <ele>0</ele>
        <time>2010-01-02T20:02:36Z</time>
      </trkpt>
      <trkpt lat="54.222578555345535" lon="10.578204207122326">
        <ele>0</ele>
        <time>2010-01-02T20:02:40Z</time>
      </trkpt>
      <trkpt lat="54.222534131258726" lon="10.578397326171398">
        <ele>0</ele>
        <time>2010-01-02T20:02:45Z</time>
      </trkpt>
      <trkpt lat="54.222505548968911" lon="10.57856697589159">
        <ele>0</ele>
        <time>2010-01-02T20:02:49Z</time>
      </trkpt>
      <trkpt lat="54.222476799041033" lon="10.578719777986407">
        <ele>0</ele>
        <time>2010-01-02T20:02:53Z</time>
      </trkpt>
      <trkpt lat="54.222468500956893" lon="10.578773757442832">
        <ele>0</ele>
        <time>2010-01-02T20:02:54Z</time>
      </trkpt>
      <trkpt lat="54.222450898960233" lon="10.578886242583394">
        <ele>0</ele>
        <time>2010-01-02T20:02:57Z</time>
      </trkpt>
      <trkpt lat="54.222378982231021" lon="10.579347163438797">
        <ele>0</ele>
        <time>2010-01-02T20:03:08Z</time>
      </trkpt>
      <trkpt lat="54.222376551479101" lon="10.579362586140633">
        <ele>0</ele>
        <time>2010-01-02T20:03:09Z</time>
      </trkpt>
      <trkpt lat="54.222296671941876" lon="10.579825351014733">
        <ele>0</ele>
        <time>2010-01-02T20:03:20Z</time>
      </trkpt>
      <trkpt lat="54.222259372472763" lon="10.580087285488844">
        <ele>0</ele>
        <time>2010-01-02T20:03:26Z</time>
      </trkpt>
      <trkpt lat="54.222252666950226" lon="10.580131961032748">
        <ele>0</ele>
        <time>2010-01-02T20:03:27Z</time>
      </trkpt>
      <trkpt lat="54.222231125459075" lon="10.58028451167047">
        <ele>0</ele>
        <time>2010-01-02T20:03:31Z</time>
      </trkpt>
      <trkpt lat="54.222211511805654" lon="10.580527419224381">
        <ele>0</ele>
        <time>2010-01-02T20:03:37Z</time>
      </trkpt>
      <trkpt lat="54.222190640866756" lon="10.580739732831717">
        <ele>0</ele>
        <time>2010-01-02T20:03:42Z</time>
      </trkpt>
      <trkpt lat="54.222178319469094" lon="10.580916507169604">
        <ele>0</ele>
        <time>2010-01-02T20:03:46Z</time>
      </trkpt>
      <trkpt lat="54.222172452136874" lon="10.581099148839712">
        <ele>0</ele>
        <time>2010-01-02T20:03:50Z</time>
      </trkpt>
      <trkpt lat="54.222168680280447" lon="10.581312384456396">
        <ele>0</ele>
        <time>2010-01-02T20:03:55Z</time>
      </trkpt>
      <trkpt lat="54.222166417166591" lon="10.581502569839358">
        <ele>0</ele>
        <time>2010-01-02T20:04:00Z</time>
      </trkpt>
      <trkpt lat="54.222165746614337" lon="10.58168051764369">
        <ele>0</ele>
        <time>2010-01-02T20:04:04Z</time>
      </trkpt>
      <trkpt lat="54.222170691937208" lon="10.581867350265384">
        <ele>0</ele>
        <time>2010-01-02T20:04:08Z</time>
      </trkpt>
      <trkpt lat="54.222183851525187" lon="10.58207237161696">
        <ele>0</ele>
        <time>2010-01-02T20:04:13Z</time>
      </trkpt>
      <trkpt lat="54.222201956436038" lon="10.582234309986234">
        <ele>0</ele>
        <time>2010-01-02T20:04:17Z</time>
      </trkpt>
      <trkpt lat="54.22221964225173" lon="10.582364061847329">
        <ele>0</ele>
        <time>2010-01-02T20:04:20Z</time>
      </trkpt>
      <trkpt lat="54.222238082438707" lon="10.582478391006589">
        <ele>0</ele>
        <time>2010-01-02T20:04:23Z</time>
      </trkpt>
      <trkpt lat="54.222253086045384" lon="10.582609735429287">
        <ele>0</ele>
        <time>2010-01-02T20:04:26Z</time>
      </trkpt>
      <trkpt lat="54.222266497090459" lon="10.582754909992218">
        <ele>0</ele>
        <time>2010-01-02T20:04:29Z</time>
      </trkpt>
      <trkpt lat="54.222276220098138" lon="10.582898743450642">
        <ele>0</ele>
        <time>2010-01-02T20:04:33Z</time>
      </trkpt>
      <trkpt lat="54.222276723012328" lon="10.58294165879488">
        <ele>0</ele>
        <time>2010-01-02T20:04:34Z</time>
      </trkpt>
      <trkpt lat="54.222277728840709" lon="10.583024388179183">
        <ele>0</ele>
        <time>2010-01-02T20:04:36Z</time>
      </trkpt>
      <trkpt lat="54.222274040803313" lon="10.583170233294368">
        <ele>0</ele>
        <time>2010-01-02T20:04:39Z</time>
      </trkpt>
      <trkpt lat="54.222267419099808" lon="10.583293111994863">
        <ele>0</ele>
        <time>2010-01-02T20:04:42Z</time>
      </trkpt>
      <trkpt lat="54.222253756597638" lon="10.583431581035256">
        <ele>0</ele>
        <time>2010-01-02T20:04:45Z</time>
      </trkpt>
      <trkpt lat="54.22223917208612" lon="10.583566948771477">
        <ele>0</ele>
        <time>2010-01-02T20:04:49Z</time>
      </trkpt>
      <trkpt lat="54.222189718857408" lon="10.584019487723708">
        <ele>0</ele>
        <time>2010-01-02T20:04:59Z</time>
      </trkpt>
      <trkpt lat="54.222134733572602" lon="10.584465991705656">
        <ele>0</ele>
        <time>2010-01-02T20:05:10Z</time>
      </trkpt>
      <trkpt lat="54.222091818228364" lon="10.584792550653219">
        <ele>0</ele>
        <time>2010-01-02T20:05:18Z</time>
      </trkpt>
      <trkpt lat="54.22208771109581" lon="10.58482482098043">
        <ele>0</ele>
        <time>2010-01-02T20:05:19Z</time>
      </trkpt>
      <trkpt lat="54.222063068300486" lon="10.585023472085595">
        <ele>0</ele>
        <time>2010-01-02T20:05:23Z</time>
      </trkpt>
      <trkpt lat="54.222026355564594" lon="10.585259338840842">
        <ele>0</ele>
        <time>2010-01-02T20:05:29Z</time>
      </trkpt>
      <trkpt lat="54.221995761618018" lon="10.585412140935659">
        <ele>0</ele>
        <time>2010-01-02T20:05:33Z</time>
      </trkpt>
      <trkpt lat="54.22196751460433" lon="10.585529655218124">
        <ele>0</ele>
        <time>2010-01-02T20:05:36Z</time>
      </trkpt>
      <trkpt lat="54.22193574719131" lon="10.585651863366365">
        <ele>0</ele>
        <time>2010-01-02T20:05:39Z</time>
      </trkpt>
      <trkpt lat="54.221901129931211" lon="10.585771137848496">
        <ele>0</ele>
        <time>2010-01-02T20:05:42Z</time>
      </trkpt>
      <trkpt lat="54.221859304234385" lon="10.585879851132631">
        <ele>0</ele>
        <time>2010-01-02T20:05:45Z</time>
      </trkpt>
      <trkpt lat="54.221815299242735" lon="10.585954952985048">
        <ele>0</ele>
        <time>2010-01-02T20:05:48Z</time>
      </trkpt>
      <trkpt lat="54.221782526001334" lon="10.585999041795731">
        <ele>0</ele>
        <time>2010-01-02T20:05:49Z</time>
      </trkpt>
      <trkpt lat="54.221735503524542" lon="10.586046651005745">
        <ele>0</ele>
        <time>2010-01-02T20:05:51Z</time>
      </trkpt>
      <trkpt lat="54.22168898396194" lon="10.586063582450151">
        <ele>0</ele>
        <time>2010-01-02T20:05:53Z</time>
      </trkpt>
      <trkpt lat="54.221625281497836" lon="10.586073389276862">
        <ele>0</ele>
        <time>2010-01-02T20:05:56Z</time>
      </trkpt>
      <trkpt lat="54.221511203795671" lon="10.58607573620975">
        <ele>0</ele>
        <time>2010-01-02T20:06:00Z</time>
      </trkpt>
      <trkpt lat="54.2213542945683" lon="10.586102558299899">
        <ele>0</ele>
        <time>2010-01-02T20:06:07Z</time>
      </trkpt>
      <trkpt lat="54.221275588497519" lon="10.586131308227777">
        <ele>0</ele>
        <time>2010-01-02T20:06:10Z</time>
      </trkpt>
      <trkpt lat="54.221215741708875" lon="10.586165590211749">
        <ele>0</ele>
        <time>2010-01-02T20:06:13Z</time>
      </trkpt>
      <trkpt lat="54.22115882858634" lon="10.586212025955319">
        <ele>0</ele>
        <time>2010-01-02T20:06:15Z</time>
      </trkpt>
      <trkpt lat="54.221115577965975" lon="10.586277823895216">
        <ele>0</ele>
        <time>2010-01-02T20:06:17Z</time>
      </trkpt>
      <trkpt lat="54.221084984019399" lon="10.586354015395045">
        <ele>0</ele>
        <time>2010-01-02T20:06:20Z</time>
      </trkpt>
      <trkpt lat="54.221058329567313" lon="10.586457699537277">
        <ele>0</ele>
        <time>2010-01-02T20:06:22Z</time>
      </trkpt>
      <trkpt lat="54.221051624044776" lon="10.586497765034437">
        <ele>0</ele>
        <time>2010-01-02T20:06:23Z</time>
      </trkpt>
      <trkpt lat="54.221044918522239" lon="10.586540931835771">
        <ele>0</ele>
        <time>2010-01-02T20:06:24Z</time>
      </trkpt>
      <trkpt lat="54.221037458628416" lon="10.586666911840439">
        <ele>0</ele>
        <time>2010-01-02T20:06:27Z</time>
      </trkpt>
      <trkpt lat="54.221035949885845" lon="10.586769673973322">
        <ele>0</ele>
        <time>2010-01-02T20:06:30Z</time>
      </trkpt>
      <trkpt lat="54.221038715913892" lon="10.587079301476479">
        <ele>0</ele>
        <time>2010-01-02T20:06:37Z</time>
      </trkpt>
      <trkpt lat="54.221047013998032" lon="10.587405608966947">
        <ele>0</ele>
        <time>2010-01-02T20:06:44Z</time>
      </trkpt>
      <trkpt lat="54.221046594902873" lon="10.587601829320192">
        <ele>0</ele>
        <time>2010-01-02T20:06:49Z</time>
      </trkpt>
      <trkpt lat="54.221042906865478" lon="10.587824285030365">
        <ele>0</ele>
        <time>2010-01-02T20:06:54Z</time>
      </trkpt>
      <trkpt lat="54.22103812918067" lon="10.587951689958572">
        <ele>0</ele>
        <time>2010-01-02T20:06:57Z</time>
      </trkpt>
      <trkpt lat="54.221037039533257" lon="10.588318230584264">
        <ele>0</ele>
        <time>2010-01-02T20:07:06Z</time>
      </trkpt>
      <trkpt lat="54.22102203592658" lon="10.588568681851029">
        <ele>0</ele>
        <time>2010-01-02T20:07:12Z</time>
      </trkpt>
      <trkpt lat="54.220990100875497" lon="10.588838076218963">
        <ele>0</ele>
        <time>2010-01-02T20:07:18Z</time>
      </trkpt>
      <trkpt lat="54.220925560221076" lon="10.589384576305747">
        <ele>0</ele>
        <time>2010-01-02T20:07:31Z</time>
      </trkpt>
      <trkpt lat="54.220908293500543" lon="10.589526146650314">
        <ele>0</ele>
        <time>2010-01-02T20:07:35Z</time>
      </trkpt>
      <trkpt lat="54.220881722867489" lon="10.589631339535117">
        <ele>0</ele>
        <time>2010-01-02T20:07:37Z</time>
      </trkpt>
      <trkpt lat="54.22074543312192" lon="10.590118998661637">
        <ele>0</ele>
        <time>2010-01-02T20:07:50Z</time>
      </trkpt>
      <trkpt lat="54.220724562183022" lon="10.590254617854953">
        <ele>0</ele>
        <time>2010-01-02T20:07:53Z</time>
      </trkpt>
      <trkpt lat="54.220702098682523" lon="10.590407168492675">
        <ele>0</ele>
        <time>2010-01-02T20:07:57Z</time>
      </trkpt>
      <trkpt lat="54.220677958801389" lon="10.590723836794496">
        <ele>0</ele>
        <time>2010-01-02T20:08:04Z</time>
      </trkpt>
      <trkpt lat="54.220683155581355" lon="10.590861635282636">
        <ele>0</ele>
        <time>2010-01-02T20:08:08Z</time>
      </trkpt>
      <trkpt lat="54.220692375674844" lon="10.591423977166414">
        <ele>0</ele>
        <time>2010-01-02T20:08:21Z</time>
      </trkpt>
      <trkpt lat="54.220671420916915" lon="10.591553477570415">
        <ele>0</ele>
        <time>2010-01-02T20:08:24Z</time>
      </trkpt>
      <trkpt lat="54.220632277429104" lon="10.591659089550376">
        <ele>0</ele>
        <time>2010-01-02T20:08:27Z</time>
      </trkpt>
      <trkpt lat="54.22055390663445" lon="10.591799737885594">
        <ele>0</ele>
        <time>2010-01-02T20:08:31Z</time>
      </trkpt>
      <trkpt lat="54.220454497262836" lon="10.59197642840445">
        <ele>0</ele>
        <time>2010-01-02T20:08:37Z</time>
      </trkpt>
      <trkpt lat="54.220426334068179" lon="10.592109197750688">
        <ele>0</ele>
        <time>2010-01-02T20:08:40Z</time>
      </trkpt>
      <trkpt lat="54.220399176701903" lon="10.592243559658527">
        <ele>0</ele>
        <time>2010-01-02T20:08:44Z</time>
      </trkpt>
      <trkpt lat="54.220333630219102" lon="10.592629043385386">
        <ele>0</ele>
        <time>2010-01-02T20:08:53Z</time>
      </trkpt>
      <trkpt lat="54.220259450376034" lon="10.593280149623752">
        <ele>0</ele>
        <time>2010-01-02T20:09:09Z</time>
      </trkpt>
      <trkpt lat="54.220226593315601" lon="10.593548035249114">
        <ele>0</ele>
        <time>2010-01-02T20:09:15Z</time>
      </trkpt>
      <trkpt lat="54.22019331716001" lon="10.593721624463797">
        <ele>0</ele>
        <time>2010-01-02T20:09:19Z</time>
      </trkpt>
      <trkpt lat="54.220128608867526" lon="10.593977272510529">
        <ele>0</ele>
        <time>2010-01-02T20:09:26Z</time>
      </trkpt>
      <trkpt lat="54.219939345493913" lon="10.5944899097085">
        <ele>0</ele>
        <time>2010-01-02T20:09:40Z</time>
      </trkpt>
      <trkpt lat="54.219838092103601" lon="10.594749413430691">
        <ele>0</ele>
        <time>2010-01-02T20:09:47Z</time>
      </trkpt>
      <trkpt lat="54.219808671623468" lon="10.594843961298466">
        <ele>0</ele>
        <time>2010-01-02T20:09:50Z</time>
      </trkpt>
      <trkpt lat="54.219791740179062" lon="10.594934988766909">
        <ele>0</ele>
        <time>2010-01-02T20:09:52Z</time>
      </trkpt>
      <trkpt lat="54.219785537570715" lon="10.595014952123165">
        <ele>0</ele>
        <time>2010-01-02T20:09:54Z</time>
      </trkpt>
      <trkpt lat="54.21978771686554" lon="10.595129868015647">
        <ele>0</ele>
        <time>2010-01-02T20:09:57Z</time>
      </trkpt>
      <trkpt lat="54.219802804291248" lon="10.59526733122766">
        <ele>0</ele>
        <time>2010-01-02T20:10:00Z</time>
      </trkpt>
      <trkpt lat="54.219834739342332" lon="10.595381241291761">
        <ele>0</ele>
        <time>2010-01-02T20:10:03Z</time>
      </trkpt>
      <trkpt lat="54.219946470111609" lon="10.595600176602602">
        <ele>0</ele>
        <time>2010-01-02T20:10:10Z</time>
      </trkpt>
      <trkpt lat="54.219987038522959" lon="10.595734789967537">
        <ele>0</ele>
        <time>2010-01-02T20:10:13Z</time>
      </trkpt>
      <trkpt lat="54.220026433467865" lon="10.595952719449997">
        <ele>0</ele>
        <time>2010-01-02T20:10:19Z</time>
      </trkpt>
      <trkpt lat="54.220145372673869" lon="10.596828460693359">
        <ele>0</ele>
        <time>2010-01-02T20:10:40Z</time>
      </trkpt>
      <trkpt lat="54.220207314938307" lon="10.597286615520716">
        <ele>0</ele>
        <time>2010-01-02T20:10:51Z</time>
      </trkpt>
      <trkpt lat="54.220285685732961" lon="10.597615102306008">
        <ele>0</ele>
        <time>2010-01-02T20:10:59Z</time>
      </trkpt>
      <trkpt lat="54.220343604683876" lon="10.597728174179792">
        <ele>0</ele>
        <time>2010-01-02T20:11:02Z</time>
      </trkpt>
      <trkpt lat="54.220385765656829" lon="10.597800342366099">
        <ele>0</ele>
        <time>2010-01-02T20:11:05Z</time>
      </trkpt>
      <trkpt lat="54.220460532233119" lon="10.597895896062255">
        <ele>0</ele>
        <time>2010-01-02T20:11:09Z</time>
      </trkpt>
      <trkpt lat="54.220599252730608" lon="10.598078286275268">
        <ele>0</ele>
        <time>2010-01-02T20:11:16Z</time>
      </trkpt>
      <trkpt lat="54.220669576898217" lon="10.598172498866916">
        <ele>0</ele>
        <time>2010-01-02T20:11:19Z</time>
      </trkpt>
      <trkpt lat="54.220730094239116" lon="10.59827777557075">
        <ele>0</ele>
        <time>2010-01-02T20:11:23Z</time>
      </trkpt>
      <trkpt lat="54.220776110887527" lon="10.598372826352715">
        <ele>0</ele>
        <time>2010-01-02T20:11:25Z</time>
      </trkpt>
      <trkpt lat="54.220810392871499" lon="10.598465194925666">
        <ele>0</ele>
        <time>2010-01-02T20:11:28Z</time>
      </trkpt>
      <trkpt lat="54.220833275467157" lon="10.59857633896172">
        <ele>0</ele>
        <time>2010-01-02T20:11:31Z</time>
      </trkpt>
      <trkpt lat="54.220850458368659" lon="10.598817989230156">
        <ele>0</ele>
        <time>2010-01-02T20:11:37Z</time>
      </trkpt>
      <trkpt lat="54.220844926312566" lon="10.598957715556026">
        <ele>0</ele>
        <time>2010-01-02T20:11:40Z</time>
      </trkpt>
      <trkpt lat="54.220827324315906" lon="10.599070200696588">
        <ele>0</ele>
        <time>2010-01-02T20:11:43Z</time>
      </trkpt>
      <trkpt lat="54.220818774774671" lon="10.599104231223464">
        <ele>0</ele>
        <time>2010-01-02T20:11:43Z</time>
      </trkpt>
      <trkpt lat="54.220808381214738" lon="10.599141363054514">
        <ele>0</ele>
        <time>2010-01-02T20:11:44Z</time>
      </trkpt>
      <trkpt lat="54.220783235505223" lon="10.599220404401422">
        <ele>0</ele>
        <time>2010-01-02T20:11:46Z</time>
      </trkpt>
      <trkpt lat="54.220739146694541" lon="10.599290896207094">
        <ele>0</ele>
        <time>2010-01-02T20:11:49Z</time>
      </trkpt>
      <trkpt lat="54.220694806426764" lon="10.599343031644821">
        <ele>0</ele>
        <time>2010-01-02T20:11:51Z</time>
      </trkpt>
      <trkpt lat="54.220619034022093" lon="10.599394664168358">
        <ele>0</ele>
        <time>2010-01-02T20:11:54Z</time>
      </trkpt>
      <trkpt lat="54.220534879714251" lon="10.599415870383382">
        <ele>0</ele>
        <time>2010-01-02T20:11:58Z</time>
      </trkpt>
      <trkpt lat="54.220164734870195" lon="10.599423833191395">
        <ele>0</ele>
        <time>2010-01-02T20:12:13Z</time>
      </trkpt>
      <trkpt lat="54.21993775293231" lon="10.599426263943315">
        <ele>0</ele>
        <time>2010-01-02T20:12:22Z</time>
      </trkpt>
      <trkpt lat="54.219897016882896" lon="10.599426766857505">
        <ele>0</ele>
        <time>2010-01-02T20:12:23Z</time>
      </trkpt>
      <trkpt lat="54.219842283055186" lon="10.5994270183146">
        <ele>0</ele>
        <time>2010-01-02T20:12:25Z</time>
      </trkpt>
      <trkpt lat="54.219702389091253" lon="10.599450152367353">
        <ele>0</ele>
        <time>2010-01-02T20:12:31Z</time>
      </trkpt>
      <trkpt lat="54.219630807638168" lon="10.599472699686885">
        <ele>0</ele>
        <time>2010-01-02T20:12:34Z</time>
      </trkpt>
      <trkpt lat="54.21957272104919" lon="10.599498432129622">
        <ele>0</ele>
        <time>2010-01-02T20:12:36Z</time>
      </trkpt>
      <trkpt lat="54.219510108232498" lon="10.599528774619102">
        <ele>0</ele>
        <time>2010-01-02T20:12:39Z</time>
      </trkpt>
      <trkpt lat="54.219426289200783" lon="10.59958677738905">
        <ele>0</ele>
        <time>2010-01-02T20:12:43Z</time>
      </trkpt>
      <trkpt lat="54.219338530674577" lon="10.599686354398727">
        <ele>0</ele>
        <time>2010-01-02T20:12:47Z</time>
      </trkpt>
      <trkpt lat="54.219261165708303" lon="10.59979691170156">
        <ele>0</ele>
        <time>2010-01-02T20:12:51Z</time>
      </trkpt>
      <trkpt lat="54.219252783805132" lon="10.599808814004064">
        <ele>0</ele>
        <time>2010-01-02T20:12:51Z</time>
      </trkpt>
      <trkpt lat="54.219152200967073" lon="10.599994473159313">
        <ele>0</ele>
        <time>2010-01-02T20:12:57Z</time>
      </trkpt>
      <trkpt lat="54.219144573435187" lon="10.600008722394705">
        <ele>0</ele>
        <time>2010-01-02T20:12:58Z</time>
      </trkpt>
      <trkpt lat="54.219010295346379" lon="10.600281553342938">
        <ele>0</ele>
        <time>2010-01-02T20:13:06Z</time>
      </trkpt>
      <trkpt lat="54.219068549573421" lon="10.600350117310882">
        <ele>0</ele>
        <time>2010-01-02T20:13:09Z</time>
      </trkpt>
      <trkpt lat="54.219118924811482" lon="10.600426644086838">
        <ele>0</ele>
        <time>2010-01-02T20:13:12Z</time>
      </trkpt>
      <trkpt lat="54.219190590083599" lon="10.600565280765295">
        <ele>0</ele>
        <time>2010-01-02T20:13:16Z</time>
      </trkpt>
      <trkpt lat="54.219234762713313" lon="10.600654212757945">
        <ele>0</ele>
        <time>2010-01-02T20:13:19Z</time>
      </trkpt>
      <trkpt lat="54.219351271167397" lon="10.600938526913524">
        <ele>0</ele>
        <time>2010-01-02T20:13:27Z</time>
      </trkpt>
      <trkpt lat="54.21939586289227" lon="10.601064255461097">
        <ele>0</ele>
        <time>2010-01-02T20:13:30Z</time>
      </trkpt>
      <trkpt lat="54.219438610598445" lon="10.601186966523528">
        <ele>0</ele>
        <time>2010-01-02T20:13:34Z</time>
      </trkpt>
      <trkpt lat="54.219535421580076" lon="10.601399866864085">
        <ele>0</ele>
        <time>2010-01-02T20:13:40Z</time>
      </trkpt>
      <trkpt lat="54.219716973602772" lon="10.601712679490447">
        <ele>0</ele>
        <time>2010-01-02T20:13:50Z</time>
      </trkpt>
      <trkpt lat="54.219864662736654" lon="10.601974446326494">
        <ele>0</ele>
        <time>2010-01-02T20:13:59Z</time>
      </trkpt>
      <trkpt lat="54.219969185069203" lon="10.602158010005951">
        <ele>0</ele>
        <time>2010-01-02T20:14:05Z</time>
      </trkpt>
      <trkpt lat="54.220130788162351" lon="10.602460680529475">
        <ele>0</ele>
        <time>2010-01-02T20:14:14Z</time>
      </trkpt>
      <trkpt lat="54.220195077359676" lon="10.602579619735479">
        <ele>0</ele>
        <time>2010-01-02T20:14:18Z</time>
      </trkpt>
      <trkpt lat="54.220252996310592" lon="10.602691099047661">
        <ele>0</ele>
        <time>2010-01-02T20:14:22Z</time>
      </trkpt>
      <trkpt lat="54.220310160890222" lon="10.602818001061678">
        <ele>0</ele>
        <time>2010-01-02T20:14:25Z</time>
      </trkpt>
      <trkpt lat="54.220360452309251" lon="10.602971138432622">
        <ele>0</ele>
        <time>2010-01-02T20:14:29Z</time>
      </trkpt>
      <trkpt lat="54.220399847254157" lon="10.603115474805236">
        <ele>0</ele>
        <time>2010-01-02T20:14:33Z</time>
      </trkpt>
      <trkpt lat="54.220436559990048" lon="10.603259894996881">
        <ele>0</ele>
        <time>2010-01-02T20:14:37Z</time>
      </trkpt>
      <trkpt lat="54.220462795346975" lon="10.603427700698376">
        <ele>0</ele>
        <time>2010-01-02T20:14:41Z</time>
      </trkpt>
      <trkpt lat="54.220473859459162" lon="10.603608246892691">
        <ele>0</ele>
        <time>2010-01-02T20:14:45Z</time>
      </trkpt>
      <trkpt lat="54.220456089824438" lon="10.604786323383451">
        <ele>0</ele>
        <time>2010-01-02T20:15:13Z</time>
      </trkpt>
      <trkpt lat="54.220445612445474" lon="10.605827691033483">
        <ele>0</ele>
        <time>2010-01-02T20:15:37Z</time>
      </trkpt>
      <trkpt lat="54.220446534454823" lon="10.6061358936131">
        <ele>0</ele>
        <time>2010-01-02T20:15:44Z</time>
      </trkpt>
      <trkpt lat="54.220461035147309" lon="10.606382237747312">
        <ele>0</ele>
        <time>2010-01-02T20:15:50Z</time>
      </trkpt>
      <trkpt lat="54.220476793125272" lon="10.606502769514918">
        <ele>0</ele>
        <time>2010-01-02T20:15:53Z</time>
      </trkpt>
      <trkpt lat="54.220498502254486" lon="10.606666132807732">
        <ele>0</ele>
        <time>2010-01-02T20:15:57Z</time>
      </trkpt>
      <trkpt lat="54.220531191676855" lon="10.606856653466821">
        <ele>0</ele>
        <time>2010-01-02T20:16:02Z</time>
      </trkpt>
      <trkpt lat="54.22056270763278" lon="10.607013562694192">
        <ele>0</ele>
        <time>2010-01-02T20:16:05Z</time>
      </trkpt>
      <trkpt lat="54.220607047900558" lon="10.607196036726236">
        <ele>0</ele>
        <time>2010-01-02T20:16:10Z</time>
      </trkpt>
      <trkpt lat="54.220666643232107" lon="10.607379516586661">
        <ele>0</ele>
        <time>2010-01-02T20:16:15Z</time>
      </trkpt>
      <trkpt lat="54.220766639336944" lon="10.607632230967283">
        <ele>0</ele>
        <time>2010-01-02T20:16:22Z</time>
      </trkpt>
      <trkpt lat="54.220957411453128" lon="10.608047470450401">
        <ele>0</ele>
        <time>2010-01-02T20:16:34Z</time>
      </trkpt>
      <trkpt lat="54.221154553815722" lon="10.608470169827342">
        <ele>0</ele>
        <time>2010-01-02T20:16:47Z</time>
      </trkpt>
      <trkpt lat="54.221279863268137" lon="10.608741911128163">
        <ele>0</ele>
        <time>2010-01-02T20:16:55Z</time>
      </trkpt>
      <trkpt lat="54.221453117206693" lon="10.609117839485407">
        <ele>0</ele>
        <time>2010-01-02T20:17:06Z</time>
      </trkpt>
      <trkpt lat="54.221496703103185" lon="10.609215153381228">
        <ele>0</ele>
        <time>2010-01-02T20:17:09Z</time>
      </trkpt>
      <trkpt lat="54.221624610945582" lon="10.609499970450997">
        <ele>0</ele>
        <time>2010-01-02T20:17:18Z</time>
      </trkpt>
      <trkpt lat="54.221636597067118" lon="10.609524110332131">
        <ele>0</ele>
        <time>2010-01-02T20:17:18Z</time>
      </trkpt>
      <trkpt lat="54.221690911799669" lon="10.609634248539805">
        <ele>0</ele>
        <time>2010-01-02T20:17:22Z</time>
      </trkpt>
      <trkpt lat="54.221748076379299" lon="10.60975955799222">
        <ele>0</ele>
        <time>2010-01-02T20:17:26Z</time>
      </trkpt>
      <trkpt lat="54.221792500466108" lon="10.609876150265336">
        <ele>0</ele>
        <time>2010-01-02T20:17:29Z</time>
      </trkpt>
      <trkpt lat="54.221820831298828" lon="10.609996346756816">
        <ele>0</ele>
        <time>2010-01-02T20:17:32Z</time>
      </trkpt>
      <trkpt lat="54.221843965351582" lon="10.610133558511734">
        <ele>0</ele>
        <time>2010-01-02T20:17:35Z</time>
      </trkpt>
      <trkpt lat="54.221861567348242" lon="10.610333802178502">
        <ele>0</ele>
        <time>2010-01-02T20:17:40Z</time>
      </trkpt>
      <trkpt lat="54.221874140202999" lon="10.611193533986807">
        <ele>0</ele>
        <time>2010-01-02T20:18:00Z</time>
      </trkpt>
      <trkpt lat="54.221891071647406" lon="10.612270860001445">
        <ele>0</ele>
        <time>2010-01-02T20:18:25Z</time>
      </trkpt>
      <trkpt lat="54.221895514056087" lon="10.612482586875558">
        <ele>0</ele>
        <time>2010-01-02T20:18:30Z</time>
      </trkpt>
      <trkpt lat="54.221910098567605" lon="10.613190522417426">
        <ele>0</ele>
        <time>2010-01-02T20:18:47Z</time>
      </trkpt>
      <trkpt lat="54.221917223185301" lon="10.613458240404725">
        <ele>0</ele>
        <time>2010-01-02T20:18:53Z</time>
      </trkpt>
      <trkpt lat="54.221926778554916" lon="10.613813633099198">
        <ele>0</ele>
        <time>2010-01-02T20:19:01Z</time>
      </trkpt>
      <trkpt lat="54.22192795202136" lon="10.61393978074193">
        <ele>0</ele>
        <time>2010-01-02T20:19:04Z</time>
      </trkpt>
      <trkpt lat="54.221931137144566" lon="10.614271955564618">
        <ele>0</ele>
        <time>2010-01-02T20:19:12Z</time>
      </trkpt>
      <trkpt lat="54.221932729706168" lon="10.615346767008305">
        <ele>0</ele>
        <time>2010-01-02T20:19:37Z</time>
      </trkpt>
      <trkpt lat="54.221934825181961" lon="10.61615620739758">
        <ele>0</ele>
        <time>2010-01-02T20:19:56Z</time>
      </trkpt>
      <trkpt lat="54.221930718049407" lon="10.616576476022601">
        <ele>0</ele>
        <time>2010-01-02T20:20:06Z</time>
      </trkpt>
      <trkpt lat="54.221908086910844" lon="10.616955924779177">
        <ele>0</ele>
        <time>2010-01-02T20:20:15Z</time>
      </trkpt>
      <trkpt lat="54.221876403316855" lon="10.617251386865973">
        <ele>0</ele>
        <time>2010-01-02T20:20:22Z</time>
      </trkpt>
      <trkpt lat="54.221836337819695" lon="10.61751801520586">
        <ele>0</ele>
        <time>2010-01-02T20:20:28Z</time>
      </trkpt>
      <trkpt lat="54.221806162968278" lon="10.617703003808856">
        <ele>0</ele>
        <time>2010-01-02T20:20:33Z</time>
      </trkpt>
      <trkpt lat="54.221742628142238" lon="10.617965776473284">
        <ele>0</ele>
        <time>2010-01-02T20:20:40Z</time>
      </trkpt>
      <trkpt lat="54.221663838252425" lon="10.618218323215842">
        <ele>0</ele>
        <time>2010-01-02T20:20:46Z</time>
      </trkpt>
      <trkpt lat="54.221513634547591" lon="10.618600538000464">
        <ele>0</ele>
        <time>2010-01-02T20:20:57Z</time>
      </trkpt>
      <trkpt lat="54.221388911828399" lon="10.618926677852869">
        <ele>0</ele>
        <time>2010-01-02T20:21:06Z</time>
      </trkpt>
      <trkpt lat="54.221243569627404" lon="10.619179895147681">
        <ele>0</ele>
        <time>2010-01-02T20:21:14Z</time>
      </trkpt>
      <trkpt lat="54.221151620149612" lon="10.61931174248457">
        <ele>0</ele>
        <time>2010-01-02T20:21:19Z</time>
      </trkpt>
      <trkpt lat="54.221048690378666" lon="10.619424059987068">
        <ele>0</ele>
        <time>2010-01-02T20:21:24Z</time>
      </trkpt>
      <trkpt lat="54.220801675692201" lon="10.619665291160345">
        <ele>0</ele>
        <time>2010-01-02T20:21:36Z</time>
      </trkpt>
      <trkpt lat="54.220338575541973" lon="10.620105424895883">
        <ele>0</ele>
        <time>2010-01-02T20:21:57Z</time>
      </trkpt>
      <trkpt lat="54.219821495935321" lon="10.620614876970649">
        <ele>0</ele>
        <time>2010-01-02T20:22:21Z</time>
      </trkpt>
      <trkpt lat="54.219371890649199" lon="10.621049897745252">
        <ele>0</ele>
        <time>2010-01-02T20:22:41Z</time>
      </trkpt>
      <trkpt lat="54.219297962263227" lon="10.621107565239072">
        <ele>0</ele>
        <time>2010-01-02T20:22:45Z</time>
      </trkpt>
      <trkpt lat="54.21912420541048" lon="10.621223906055093">
        <ele>0</ele>
        <time>2010-01-02T20:22:52Z</time>
      </trkpt>
      <trkpt lat="54.218861181288958" lon="10.621413420885801">
        <ele>0</ele>
        <time>2010-01-02T20:23:03Z</time>
      </trkpt>
      <trkpt lat="54.218783061951399" lon="10.621494222432375">
        <ele>0</ele>
        <time>2010-01-02T20:23:07Z</time>
      </trkpt>
      <trkpt lat="54.218716593459249" lon="10.621576113626361">
        <ele>0</ele>
        <time>2010-01-02T20:23:10Z</time>
      </trkpt>
      <trkpt lat="54.218476200476289" lon="10.621922956779599">
        <ele>0</ele>
        <time>2010-01-02T20:23:23Z</time>
      </trkpt>
      <trkpt lat="54.218338150531054" lon="10.622114567086101">
        <ele>0</ele>
        <time>2010-01-02T20:23:30Z</time>
      </trkpt>
      <trkpt lat="54.218305880203843" lon="10.6221594940871">
        <ele>0</ele>
        <time>2010-01-02T20:23:32Z</time>
      </trkpt>
      <trkpt lat="54.21821971423924" lon="10.622279522940516">
        <ele>0</ele>
        <time>2010-01-02T20:23:36Z</time>
      </trkpt>
      <trkpt lat="54.218121310696006" lon="10.622474402189255">
        <ele>0</ele>
        <time>2010-01-02T20:23:42Z</time>
      </trkpt>
      <trkpt lat="54.218047466129065" lon="10.622619492933154">
        <ele>0</ele>
        <time>2010-01-02T20:23:47Z</time>
      </trkpt>
      <trkpt lat="54.217966748401523" lon="10.622792327776551">
        <ele>0</ele>
        <time>2010-01-02T20:23:52Z</time>
      </trkpt>
      <trkpt lat="54.21788795851171" lon="10.622969688847661">
        <ele>0</ele>
        <time>2010-01-02T20:23:57Z</time>
      </trkpt>
      <trkpt lat="54.217766420915723" lon="10.623265067115426">
        <ele>0</ele>
        <time>2010-01-02T20:24:06Z</time>
      </trkpt>
      <trkpt lat="54.217676399275661" lon="10.623487271368504">
        <ele>0</ele>
        <time>2010-01-02T20:24:12Z</time>
      </trkpt>
      <trkpt lat="54.217547317966819" lon="10.623827325180173">
        <ele>0</ele>
        <time>2010-01-02T20:24:21Z</time>
      </trkpt>
      <trkpt lat="54.21753860078752" lon="10.623853644356132">
        <ele>0</ele>
        <time>2010-01-02T20:24:22Z</time>
      </trkpt>
      <trkpt lat="54.217440783977509" lon="10.624172743409872">
        <ele>0</ele>
        <time>2010-01-02T20:24:31Z</time>
      </trkpt>
      <trkpt lat="54.217206509783864" lon="10.624907249584794">
        <ele>0</ele>
        <time>2010-01-02T20:24:50Z</time>
      </trkpt>
      <trkpt lat="54.216914232820272" lon="10.625825989991426">
        <ele>0</ele>
        <time>2010-01-02T20:25:15Z</time>
      </trkpt>
      <trkpt lat="54.216781631112099" lon="10.626253550872207">
        <ele>0</ele>
        <time>2010-01-02T20:25:26Z</time>
      </trkpt>
      <trkpt lat="54.2167211137712" lon="10.626382799819112">
        <ele>0</ele>
        <time>2010-01-02T20:25:30Z</time>
      </trkpt>
      <trkpt lat="54.21665221452713" lon="10.626487825065851">
        <ele>0</ele>
        <time>2010-01-02T20:25:34Z</time>
      </trkpt>
      <trkpt lat="54.216600833460689" lon="10.626552365720272">
        <ele>0</ele>
        <time>2010-01-02T20:25:36Z</time>
      </trkpt>
      <trkpt lat="54.216513829305768" lon="10.62664263881743">
        <ele>0</ele>
        <time>2010-01-02T20:25:40Z</time>
      </trkpt>
      <trkpt lat="54.216402685269713" lon="10.62674137763679">
        <ele>0</ele>
        <time>2010-01-02T20:25:45Z</time>
      </trkpt>
      <trkpt lat="54.216014016419649" lon="10.627089980989695">
        <ele>0</ele>
        <time>2010-01-02T20:26:03Z</time>
      </trkpt>
      <trkpt lat="54.215459553524852" lon="10.627557607367635">
        <ele>0</ele>
        <time>2010-01-02T20:26:27Z</time>
      </trkpt>
      <trkpt lat="54.214926129207015" lon="10.627978462725878">
        <ele>0</ele>
        <time>2010-01-02T20:26:51Z</time>
      </trkpt>
      <trkpt lat="54.214261863380671" lon="10.628501744940877">
        <ele>0</ele>
        <time>2010-01-02T20:27:20Z</time>
      </trkpt>
      <trkpt lat="54.213961036875844" lon="10.628744820132852">
        <ele>0</ele>
        <time>2010-01-02T20:27:34Z</time>
      </trkpt>
      <trkpt lat="54.213725924491882" lon="10.628934921696782">
        <ele>0</ele>
        <time>2010-01-02T20:27:44Z</time>
      </trkpt>
      <trkpt lat="54.21356356702745" lon="10.629042964428663">
        <ele>0</ele>
        <time>2010-01-02T20:27:51Z</time>
      </trkpt>
      <trkpt lat="54.21338964253664" lon="10.629154527559876">
        <ele>0</ele>
        <time>2010-01-02T20:27:58Z</time>
      </trkpt>
      <trkpt lat="54.213199457153678" lon="10.62925586476922">
        <ele>0</ele>
        <time>2010-01-02T20:28:06Z</time>
      </trkpt>
      <trkpt lat="54.21295621432364" lon="10.629357453435659">
        <ele>0</ele>
        <time>2010-01-02T20:28:16Z</time>
      </trkpt>
      <trkpt lat="54.212729902938008" lon="10.629449235275388">
        <ele>0</ele>
        <time>2010-01-02T20:28:26Z</time>
      </trkpt>
      <trkpt lat="54.212556062266231" lon="10.629491731524467">
        <ele>0</ele>
        <time>2010-01-02T20:28:33Z</time>
      </trkpt>
      <trkpt lat="54.212320614606142" lon="10.629560882225633">
        <ele>0</ele>
        <time>2010-01-02T20:28:42Z</time>
      </trkpt>
      <trkpt lat="54.21215926297009" lon="10.629598433151841">
        <ele>0</ele>
        <time>2010-01-02T20:28:49Z</time>
      </trkpt>
      <trkpt lat="54.211991708725691" lon="10.62963455915451">
        <ele>0</ele>
        <time>2010-01-02T20:28:56Z</time>
      </trkpt>
      <trkpt lat="54.211856005713344" lon="10.629632966592908">
        <ele>0</ele>
        <time>2010-01-02T20:29:01Z</time>
      </trkpt>
      <trkpt lat="54.21169507317245" lon="10.629621399566531">
        <ele>0</ele>
        <time>2010-01-02T20:29:07Z</time>
      </trkpt>
      <trkpt lat="54.211499942466617" lon="10.629614107310772">
        <ele>0</ele>
        <time>2010-01-02T20:29:15Z</time>
      </trkpt>
      <trkpt lat="54.211248904466629" lon="10.6295763887465">
        <ele>0</ele>
        <time>2010-01-02T20:29:25Z</time>
      </trkpt>
      <trkpt lat="54.210923099890351" lon="10.629527438431978">
        <ele>0</ele>
        <time>2010-01-02T20:29:38Z</time>
      </trkpt>
      <trkpt lat="54.21083802357316" lon="10.62951042316854">
        <ele>0</ele>
        <time>2010-01-02T20:29:42Z</time>
      </trkpt>
      <trkpt lat="54.210771806538105" lon="10.629497179761529">
        <ele>0</ele>
        <time>2010-01-02T20:29:45Z</time>
      </trkpt>
      <trkpt lat="54.210631661117077" lon="10.629500281065702">
        <ele>0</ele>
        <time>2010-01-02T20:29:50Z</time>
      </trkpt>
      <trkpt lat="54.21053753234446" lon="10.629521738737822">
        <ele>0</ele>
        <time>2010-01-02T20:29:54Z</time>
      </trkpt>
      <trkpt lat="54.210447259247303" lon="10.629558451473713">
        <ele>0</ele>
        <time>2010-01-02T20:29:58Z</time>
      </trkpt>
      <trkpt lat="54.210378611460328" lon="10.62960522249341">
        <ele>0</ele>
        <time>2010-01-02T20:30:01Z</time>
      </trkpt>
      <trkpt lat="54.210278950631618" lon="10.629695914685726">
        <ele>0</ele>
        <time>2010-01-02T20:30:05Z</time>
      </trkpt>
      <trkpt lat="54.210219439119101" lon="10.629754588007927">
        <ele>0</ele>
        <time>2010-01-02T20:30:08Z</time>
      </trkpt>
      <trkpt lat="54.210087256506085" lon="10.629899930208921">
        <ele>0</ele>
        <time>2010-01-02T20:30:14Z</time>
      </trkpt>
      <trkpt lat="54.209964545443654" lon="10.630094055086374">
        <ele>0</ele>
        <time>2010-01-02T20:30:21Z</time>
      </trkpt>
      <trkpt lat="54.209849378094077" lon="10.630313996225595">
        <ele>0</ele>
        <time>2010-01-02T20:30:28Z</time>
      </trkpt>
      <trkpt lat="54.209825657308102" lon="10.630365377292037">
        <ele>0</ele>
        <time>2010-01-02T20:30:29Z</time>
      </trkpt>
      <trkpt lat="54.209617869928479" lon="10.630815234035254">
        <ele>0</ele>
        <time>2010-01-02T20:30:43Z</time>
      </trkpt>
      <trkpt lat="54.209562633186579" lon="10.630939705297351">
        <ele>0</ele>
        <time>2010-01-02T20:30:46Z</time>
      </trkpt>
      <trkpt lat="54.209468923509121" lon="10.63114975579083">
        <ele>0</ele>
        <time>2010-01-02T20:30:53Z</time>
      </trkpt>
      <trkpt lat="54.20940387994051" lon="10.631279088556767">
        <ele>0</ele>
        <time>2010-01-02T20:30:57Z</time>
      </trkpt>
      <trkpt lat="54.209326850250363" lon="10.631378162652254">
        <ele>0</ele>
        <time>2010-01-02T20:31:00Z</time>
      </trkpt>
      <trkpt lat="54.209235655143857" lon="10.631500789895654">
        <ele>0</ele>
        <time>2010-01-02T20:31:05Z</time>
      </trkpt>
      <trkpt lat="54.2091522552073" lon="10.631592404097319">
        <ele>0</ele>
        <time>2010-01-02T20:31:09Z</time>
      </trkpt>
      <trkpt lat="54.209090229123831" lon="10.631664991378784">
        <ele>0</ele>
        <time>2010-01-02T20:31:12Z</time>
      </trkpt>
      <trkpt lat="54.209016552194953" lon="10.631745625287294">
        <ele>0</ele>
        <time>2010-01-02T20:31:16Z</time>
      </trkpt>
      <trkpt lat="54.208985539153218" lon="10.631788037717342">
        <ele>0</ele>
        <time>2010-01-02T20:31:17Z</time>
      </trkpt>
      <trkpt lat="54.208946563303471" lon="10.631832210347056">
        <ele>0</ele>
        <time>2010-01-02T20:31:19Z</time>
      </trkpt>
      <trkpt lat="54.208885291591287" lon="10.631895577535033">
        <ele>0</ele>
        <time>2010-01-02T20:31:22Z</time>
      </trkpt>
      <trkpt lat="54.208801221102476" lon="10.631935140118003">
        <ele>0</ele>
        <time>2010-01-02T20:31:25Z</time>
      </trkpt>
      <trkpt lat="54.208720419555902" lon="10.631937738507986">
        <ele>0</ele>
        <time>2010-01-02T20:31:29Z</time>
      </trkpt>
      <trkpt lat="54.208638276904821" lon="10.63190521672368">
        <ele>0</ele>
        <time>2010-01-02T20:31:32Z</time>
      </trkpt>
      <trkpt lat="54.20847600325942" lon="10.631853919476271">
        <ele>0</ele>
        <time>2010-01-02T20:31:39Z</time>
      </trkpt>
      <trkpt lat="54.208355806767941" lon="10.631796503439546">
        <ele>0</ele>
        <time>2010-01-02T20:31:44Z</time>
      </trkpt>
      <trkpt lat="54.208268215879798" lon="10.631755013018847">
        <ele>0</ele>
        <time>2010-01-02T20:31:47Z</time>
      </trkpt>
      <trkpt lat="54.208127316087484" lon="10.631692232564092">
        <ele>0</ele>
        <time>2010-01-02T20:31:53Z</time>
      </trkpt>
      <trkpt lat="54.208015333861113" lon="10.631564073264599">
        <ele>0</ele>
        <time>2010-01-02T20:31:58Z</time>
      </trkpt>
      <trkpt lat="54.208003515377641" lon="10.631550662219524">
        <ele>0</ele>
        <time>2010-01-02T20:31:59Z</time>
      </trkpt>
      <trkpt lat="54.207901423797011" lon="10.631423760205507">
        <ele>0</ele>
        <time>2010-01-02T20:32:04Z</time>
      </trkpt>
      <trkpt lat="54.207792542874813" lon="10.631326194852591">
        <ele>0</ele>
        <time>2010-01-02T20:32:09Z</time>
      </trkpt>
      <trkpt lat="54.207687852904201" lon="10.63120549544692">
        <ele>0</ele>
        <time>2010-01-02T20:32:14Z</time>
      </trkpt>
      <trkpt lat="54.207683661952615" lon="10.631075408309698">
        <ele>0</ele>
        <time>2010-01-02T20:32:17Z</time>
      </trkpt>
      <trkpt lat="54.20769464224577" lon="10.630932496860623">
        <ele>0</ele>
        <time>2010-01-02T20:32:21Z</time>
      </trkpt>
      <trkpt lat="54.207716938108206" lon="10.630844319239259">
        <ele>0</ele>
        <time>2010-01-02T20:32:23Z</time>
      </trkpt>
      <trkpt lat="54.207769827917218" lon="10.630672490224242">
        <ele>0</ele>
        <time>2010-01-02T20:32:27Z</time>
      </trkpt>
      <trkpt lat="54.207802768796682" lon="10.630567129701376">
        <ele>0</ele>
        <time>2010-01-02T20:32:30Z</time>
      </trkpt>
      <trkpt lat="54.207890359684825" lon="10.63028683885932">
        <ele>0</ele>
        <time>2010-01-02T20:32:38Z</time>
      </trkpt>
      <trkpt lat="54.207904860377312" lon="10.630221962928772">
        <ele>0</ele>
        <time>2010-01-02T20:32:39Z</time>
      </trkpt>
      <trkpt lat="54.207909973338246" lon="10.630197320133448">
        <ele>0</ele>
        <time>2010-01-02T20:32:40Z</time>
      </trkpt>
      <trkpt lat="54.207909386605024" lon="10.630067065358162">
        <ele>0</ele>
        <time>2010-01-02T20:32:43Z</time>
      </trkpt>
      <trkpt lat="54.207888264209032" lon="10.629943599924445">
        <ele>0</ele>
        <time>2010-01-02T20:32:46Z</time>
      </trkpt>
      <trkpt lat="54.207850880920887" lon="10.629816111177206">
        <ele>0</ele>
        <time>2010-01-02T20:32:49Z</time>
      </trkpt>
      <trkpt lat="54.207686595618725" lon="10.629042880609632">
        <ele>0</ele>
        <time>2010-01-02T20:33:08Z</time>
      </trkpt>
      <trkpt lat="54.207543432712555" lon="10.628380877897143">
        <ele>0</ele>
        <time>2010-01-02T20:33:25Z</time>
      </trkpt>
      <trkpt lat="54.207509234547615" lon="10.628222627565265">
        <ele>0</ele>
        <time>2010-01-02T20:33:29Z</time>
      </trkpt>
      <trkpt lat="54.207438742741942" lon="10.628027245402336">
        <ele>0</ele>
        <time>2010-01-02T20:33:34Z</time>
      </trkpt>
      <trkpt lat="54.207382583990693" lon="10.627906462177634">
        <ele>0</ele>
        <time>2010-01-02T20:33:38Z</time>
      </trkpt>
      <trkpt lat="54.207304464653134" lon="10.627751145511866">
        <ele>0</ele>
        <time>2010-01-02T20:33:43Z</time>
      </trkpt>
      <trkpt lat="54.207219975069165" lon="10.627591470256448">
        <ele>0</ele>
        <time>2010-01-02T20:33:48Z</time>
      </trkpt>
      <trkpt lat="54.207209832966328" lon="10.627573449164629">
        <ele>0</ele>
        <time>2010-01-02T20:33:48Z</time>
      </trkpt>
      <trkpt lat="54.207142107188702" lon="10.627460712566972">
        <ele>0</ele>
        <time>2010-01-02T20:33:52Z</time>
      </trkpt>
      <trkpt lat="54.207065580412745" lon="10.627371361479163">
        <ele>0</ele>
        <time>2010-01-02T20:33:56Z</time>
      </trkpt>
      <trkpt lat="54.207015624269843" lon="10.627319309860468">
        <ele>0</ele>
        <time>2010-01-02T20:33:58Z</time>
      </trkpt>
      <trkpt lat="54.206984611228108" lon="10.627282010391355">
        <ele>0</ele>
        <time>2010-01-02T20:34:00Z</time>
      </trkpt>
      <trkpt lat="54.206925434991717" lon="10.62721193768084">
        <ele>0</ele>
        <time>2010-01-02T20:34:03Z</time>
      </trkpt>
      <trkpt lat="54.206876149401069" lon="10.627143122255802">
        <ele>0</ele>
        <time>2010-01-02T20:34:05Z</time>
      </trkpt>
      <trkpt lat="54.206714797765017" lon="10.626941537484527">
        <ele>0</ele>
        <time>2010-01-02T20:34:13Z</time>
      </trkpt>
      <trkpt lat="54.206617819145322" lon="10.626786891371012">
        <ele>0</ele>
        <time>2010-01-02T20:34:18Z</time>
      </trkpt>
      <trkpt lat="54.206558307632804" lon="10.626690750941634">
        <ele>0</ele>
        <time>2010-01-02T20:34:22Z</time>
      </trkpt>
      <trkpt lat="54.206506758928299" lon="10.62658061273396">
        <ele>0</ele>
        <time>2010-01-02T20:34:25Z</time>
      </trkpt>
      <trkpt lat="54.206417491659522" lon="10.626395037397742">
        <ele>0</ele>
        <time>2010-01-02T20:34:31Z</time>
      </trkpt>
      <trkpt lat="54.206293858587742" lon="10.626195296645164">
        <ele>0</ele>
        <time>2010-01-02T20:34:37Z</time>
      </trkpt>
      <trkpt lat="54.206240884959698" lon="10.626115836203098">
        <ele>0</ele>
        <time>2010-01-02T20:34:40Z</time>
      </trkpt>
      <trkpt lat="54.206098895519972" lon="10.625954987481236">
        <ele>0</ele>
        <time>2010-01-02T20:34:47Z</time>
      </trkpt>
      <trkpt lat="54.206030666828156" lon="10.625883657485247">
        <ele>0</ele>
        <time>2010-01-02T20:34:50Z</time>
      </trkpt>
      <trkpt lat="54.205909380689263" lon="10.625726748257875">
        <ele>0</ele>
        <time>2010-01-02T20:34:56Z</time>
      </trkpt>
      <trkpt lat="54.205863699316978" lon="10.625660866498947">
        <ele>0</ele>
        <time>2010-01-02T20:34:59Z</time>
      </trkpt>
      <trkpt lat="54.205784322693944" lon="10.625554667785764">
        <ele>0</ele>
        <time>2010-01-02T20:35:03Z</time>
      </trkpt>
      <trkpt lat="54.205455081537366" lon="10.625124173238873">
        <ele>0</ele>
        <time>2010-01-02T20:35:19Z</time>
      </trkpt>
      <trkpt lat="54.20538391917944" lon="10.625029960647225">
        <ele>0</ele>
        <time>2010-01-02T20:35:23Z</time>
      </trkpt>
      <trkpt lat="54.205227848142385" lon="10.624820580706">
        <ele>0</ele>
        <time>2010-01-02T20:35:31Z</time>
      </trkpt>
      <trkpt lat="54.205041183158755" lon="10.624598460271955">
        <ele>0</ele>
        <time>2010-01-02T20:35:40Z</time>
      </trkpt>
      <trkpt lat="54.204840352758765" lon="10.624399725347757">
        <ele>0</ele>
        <time>2010-01-02T20:35:49Z</time>
      </trkpt>
      <trkpt lat="54.204693417996168" lon="10.6242835521698">
        <ele>0</ele>
        <time>2010-01-02T20:35:56Z</time>
      </trkpt>
      <trkpt lat="54.204629128798842" lon="10.62423812225461">
        <ele>0</ele>
        <time>2010-01-02T20:35:59Z</time>
      </trkpt>
      <trkpt lat="54.2044707108289" lon="10.624136114493012">
        <ele>0</ele>
        <time>2010-01-02T20:36:05Z</time>
      </trkpt>
      <trkpt lat="54.204333163797855" lon="10.624050283804536">
        <ele>0</ele>
        <time>2010-01-02T20:36:11Z</time>
      </trkpt>
      <trkpt lat="54.204172231256962" lon="10.6239605974406">
        <ele>0</ele>
        <time>2010-01-02T20:36:18Z</time>
      </trkpt>
      <trkpt lat="54.204116072505713" lon="10.623924136161804">
        <ele>0</ele>
        <time>2010-01-02T20:36:20Z</time>
      </trkpt>
      <trkpt lat="54.203703515231609" lon="10.623671170324087">
        <ele>0</ele>
        <time>2010-01-02T20:36:38Z</time>
      </trkpt>
      <trkpt lat="54.20349488966167" lon="10.623497245833278">
        <ele>0</ele>
        <time>2010-01-02T20:36:47Z</time>
      </trkpt>
      <trkpt lat="54.203419620171189" lon="10.623433878645301">
        <ele>0</ele>
        <time>2010-01-02T20:36:51Z</time>
      </trkpt>
      <trkpt lat="54.203186687082052" lon="10.623259199783206">
        <ele>0</ele>
        <time>2010-01-02T20:37:01Z</time>
      </trkpt>
      <trkpt lat="54.203016953542829" lon="10.623186696320772">
        <ele>0</ele>
        <time>2010-01-02T20:37:08Z</time>
      </trkpt>
      <trkpt lat="54.2027922347188" lon="10.623103799298406">
        <ele>0</ele>
        <time>2010-01-02T20:37:17Z</time>
      </trkpt>
      <trkpt lat="54.202620824798942" lon="10.623037414625287">
        <ele>0</ele>
        <time>2010-01-02T20:37:24Z</time>
      </trkpt>
      <trkpt lat="54.202416222542524" lon="10.622984440997243">
        <ele>0</ele>
        <time>2010-01-02T20:37:32Z</time>
      </trkpt>
      <trkpt lat="54.202198460698128" lon="10.622953427955508">
        <ele>0</ele>
        <time>2010-01-02T20:37:41Z</time>
      </trkpt>
      <trkpt lat="54.20191221870482" lon="10.622912356629968">
        <ele>0</ele>
        <time>2010-01-02T20:37:53Z</time>
      </trkpt>
      <trkpt lat="54.201727230101824" lon="10.622916966676712">
        <ele>0</ele>
        <time>2010-01-02T20:38:00Z</time>
      </trkpt>
      <trkpt lat="54.20150326564908" lon="10.622978070750833">
        <ele>0</ele>
        <time>2010-01-02T20:38:09Z</time>
      </trkpt>
      <trkpt lat="54.201271673664451" lon="10.623074630275369">
        <ele>0</ele>
        <time>2010-01-02T20:38:19Z</time>
      </trkpt>
      <trkpt lat="54.201095821335912" lon="10.623172447085381">
        <ele>0</ele>
        <time>2010-01-02T20:38:26Z</time>
      </trkpt>
      <trkpt lat="54.200937990099192" lon="10.623277304694057">
        <ele>0</ele>
        <time>2010-01-02T20:38:33Z</time>
      </trkpt>
      <trkpt lat="54.200742105022073" lon="10.623435471206903">
        <ele>0</ele>
        <time>2010-01-02T20:38:41Z</time>
      </trkpt>
      <trkpt lat="54.200635151937604" lon="10.623507974669337">
        <ele>0</ele>
        <time>2010-01-02T20:38:46Z</time>
      </trkpt>
      <trkpt lat="54.200511602684855" lon="10.623628590255976">
        <ele>0</ele>
        <time>2010-01-02T20:38:52Z</time>
      </trkpt>
      <trkpt lat="54.200354525819421" lon="10.623796228319407">
        <ele>0</ele>
        <time>2010-01-02T20:38:59Z</time>
      </trkpt>
      <trkpt lat="54.200215553864837" lon="10.623978618532419">
        <ele>0</ele>
        <time>2010-01-02T20:39:06Z</time>
      </trkpt>
      <trkpt lat="54.200002485886216" lon="10.62428455799818">
        <ele>0</ele>
        <time>2010-01-02T20:39:17Z</time>
      </trkpt>
      <trkpt lat="54.199808444827795" lon="10.624602064490318">
        <ele>0</ele>
        <time>2010-01-02T20:39:28Z</time>
      </trkpt>
      <trkpt lat="54.199584145098925" lon="10.625024763867259">
        <ele>0</ele>
        <time>2010-01-02T20:39:41Z</time>
      </trkpt>
      <trkpt lat="54.19950233772397" lon="10.625180751085281">
        <ele>0</ele>
        <time>2010-01-02T20:39:46Z</time>
      </trkpt>
      <trkpt lat="54.199337046593428" lon="10.625494234263897">
        <ele>0</ele>
        <time>2010-01-02T20:39:56Z</time>
      </trkpt>
      <trkpt lat="54.199275439605117" lon="10.625612754374743">
        <ele>0</ele>
        <time>2010-01-02T20:40:00Z</time>
      </trkpt>
      <trkpt lat="54.199244091287255" lon="10.625694980844855">
        <ele>0</ele>
        <time>2010-01-02T20:40:02Z</time>
      </trkpt>
      <trkpt lat="54.199128840118647" lon="10.625993041321635">
        <ele>0</ele>
        <time>2010-01-02T20:40:11Z</time>
      </trkpt>
      <trkpt lat="54.199078129604459" lon="10.626111226156354">
        <ele>0</ele>
        <time>2010-01-02T20:40:14Z</time>
      </trkpt>
      <trkpt lat="54.198942426592112" lon="10.626426804810762">
        <ele>0</ele>
        <time>2010-01-02T20:40:23Z</time>
      </trkpt>
      <trkpt lat="54.198814518749714" lon="10.626712962985039">
        <ele>0</ele>
        <time>2010-01-02T20:40:32Z</time>
      </trkpt>
      <trkpt lat="54.198697507381439" lon="10.626931395381689">
        <ele>0</ele>
        <time>2010-01-02T20:40:39Z</time>
      </trkpt>
      <trkpt lat="54.198584016412497" lon="10.62714203260839">
        <ele>0</ele>
        <time>2010-01-02T20:40:45Z</time>
      </trkpt>
      <trkpt lat="54.198524923995137" lon="10.627239011228085">
        <ele>0</ele>
        <time>2010-01-02T20:40:49Z</time>
      </trkpt>
      <trkpt lat="54.198371116071939" lon="10.627460209652781">
        <ele>0</ele>
        <time>2010-01-02T20:40:57Z</time>
      </trkpt>
      <trkpt lat="54.198222337290645" lon="10.627650478854775">
        <ele>0</ele>
        <time>2010-01-02T20:41:04Z</time>
      </trkpt>
      <trkpt lat="54.198141619563103" lon="10.627746703103185">
        <ele>0</ele>
        <time>2010-01-02T20:41:08Z</time>
      </trkpt>
      <trkpt lat="54.197831740602851" lon="10.628150710836053">
        <ele>0</ele>
        <time>2010-01-02T20:41:24Z</time>
      </trkpt>
      <trkpt lat="54.197472156956792" lon="10.62860400415957">
        <ele>0</ele>
        <time>2010-01-02T20:41:41Z</time>
      </trkpt>
      <trkpt lat="54.197021964937449" lon="10.62915519811213">
        <ele>0</ele>
        <time>2010-01-02T20:42:04Z</time>
      </trkpt>
      <trkpt lat="54.19695314951241" lon="10.629261648282409">
        <ele>0</ele>
        <time>2010-01-02T20:42:07Z</time>
      </trkpt>
      <trkpt lat="54.196922471746802" lon="10.629328535869718">
        <ele>0</ele>
        <time>2010-01-02T20:42:09Z</time>
      </trkpt>
      <trkpt lat="54.196894392371178" lon="10.629468932747841">
        <ele>0</ele>
        <time>2010-01-02T20:42:13Z</time>
      </trkpt>
      <trkpt lat="54.196884920820594" lon="10.629663895815611">
        <ele>0</ele>
        <time>2010-01-02T20:42:17Z</time>
      </trkpt>
      <trkpt lat="54.196880226954818" lon="10.629880065098405">
        <ele>0</ele>
        <time>2010-01-02T20:42:22Z</time>
      </trkpt>
      <trkpt lat="54.196891710162163" lon="10.630420614033937">
        <ele>0</ele>
        <time>2010-01-02T20:42:35Z</time>
      </trkpt>
      <trkpt lat="54.19689011760056" lon="10.630439054220915">
        <ele>0</ele>
        <time>2010-01-02T20:42:36Z</time>
      </trkpt>
      <trkpt lat="54.196878047659993" lon="10.6305589992553">
        <ele>0</ele>
        <time>2010-01-02T20:42:38Z</time>
      </trkpt>
      <trkpt lat="54.196861954405904" lon="10.630724960938096">
        <ele>0</ele>
        <time>2010-01-02T20:42:42Z</time>
      </trkpt>
      <trkpt lat="54.196825409308076" lon="10.630913134664297">
        <ele>0</ele>
        <time>2010-01-02T20:42:47Z</time>
      </trkpt>
      <trkpt lat="54.196747876703739" lon="10.631360057741404">
        <ele>0</ele>
        <time>2010-01-02T20:42:58Z</time>
      </trkpt>
      <trkpt lat="54.196716863662004" lon="10.631482182070613">
        <ele>0</ele>
        <time>2010-01-02T20:43:01Z</time>
      </trkpt>
      <trkpt lat="54.196678223088384" lon="10.631555439904332">
        <ele>0</ele>
        <time>2010-01-02T20:43:03Z</time>
      </trkpt>
      <trkpt lat="54.196639079600573" lon="10.631593493744731">
        <ele>0</ele>
        <time>2010-01-02T20:43:05Z</time>
      </trkpt>
      <trkpt lat="54.196599684655666" lon="10.631607072427869">
        <ele>0</ele>
        <time>2010-01-02T20:43:07Z</time>
      </trkpt>
      <trkpt lat="54.196511507034302" lon="10.631596175953746">
        <ele>0</ele>
        <time>2010-01-02T20:43:10Z</time>
      </trkpt>
      <trkpt lat="54.196364488452673" lon="10.631539765745401">
        <ele>0</ele>
        <time>2010-01-02T20:43:16Z</time>
      </trkpt>
      <trkpt lat="54.196316627785563" lon="10.631521409377456">
        <ele>0</ele>
        <time>2010-01-02T20:43:18Z</time>
      </trkpt>
      <trkpt lat="54.19615862891078" lon="10.631451588124037">
        <ele>0</ele>
        <time>2010-01-02T20:43:25Z</time>
      </trkpt>
      <trkpt lat="54.196062739938498" lon="10.6313965190202">
        <ele>0</ele>
        <time>2010-01-02T20:43:29Z</time>
      </trkpt>
      <trkpt lat="54.195956960320473" lon="10.631337175145745">
        <ele>0</ele>
        <time>2010-01-02T20:43:33Z</time>
      </trkpt>
      <trkpt lat="54.195887641981244" lon="10.631249081343412">
        <ele>0</ele>
        <time>2010-01-02T20:43:37Z</time>
      </trkpt>
      <trkpt lat="54.195798290893435" lon="10.631133997812867">
        <ele>0</ele>
        <time>2010-01-02T20:43:41Z</time>
      </trkpt>
      <trkpt lat="54.195739952847362" lon="10.630979686975479">
        <ele>0</ele>
        <time>2010-01-02T20:43:46Z</time>
      </trkpt>
      <trkpt lat="54.195668790489435" lon="10.63080576248467">
        <ele>0</ele>
        <time>2010-01-02T20:43:50Z</time>
      </trkpt>
      <trkpt lat="54.195555383339524" lon="10.630392786115408">
        <ele>0</ele>
        <time>2010-01-02T20:44:01Z</time>
      </trkpt>
      <trkpt lat="54.195488328114152" lon="10.630105370655656">
        <ele>0</ele>
        <time>2010-01-02T20:44:08Z</time>
      </trkpt>
      <trkpt lat="54.19527274556458" lon="10.629165591672063">
        <ele>0</ele>
        <time>2010-01-02T20:44:32Z</time>
      </trkpt>
      <trkpt lat="54.195045763626695" lon="10.628166384994984">
        <ele>0</ele>
        <time>2010-01-02T20:44:57Z</time>
      </trkpt>
      <trkpt lat="54.195002596825361" lon="10.6279272492975">
        <ele>0</ele>
        <time>2010-01-02T20:45:03Z</time>
      </trkpt>
      <trkpt lat="54.194986587390304" lon="10.627783751115203">
        <ele>0</ele>
        <time>2010-01-02T20:45:06Z</time>
      </trkpt>
      <trkpt lat="54.194976864382625" lon="10.627557272091508">
        <ele>0</ele>
        <time>2010-01-02T20:45:12Z</time>
      </trkpt>
      <trkpt lat="54.194933278486133" lon="10.627049999311566">
        <ele>0</ele>
        <time>2010-01-02T20:45:24Z</time>
      </trkpt>
      <trkpt lat="54.194875191897154" lon="10.626282719895244">
        <ele>0</ele>
        <time>2010-01-02T20:45:42Z</time>
      </trkpt>
      <trkpt lat="54.194810315966606" lon="10.626032100990415">
        <ele>0</ele>
        <time>2010-01-02T20:45:48Z</time>
      </trkpt>
      <trkpt lat="54.194749211892486" lon="10.625954400748014">
        <ele>0</ele>
        <time>2010-01-02T20:45:51Z</time>
      </trkpt>
      <trkpt lat="54.194677881896496" lon="10.625923052430153">
        <ele>0</ele>
        <time>2010-01-02T20:45:54Z</time>
      </trkpt>
      <trkpt lat="54.194631865248084" lon="10.625907713547349">
        <ele>0</ele>
        <time>2010-01-02T20:45:56Z</time>
      </trkpt>
      <trkpt lat="54.194602193310857" lon="10.625907210633159">
        <ele>0</ele>
        <time>2010-01-02T20:45:57Z</time>
      </trkpt>
      <trkpt lat="54.194545615464449" lon="10.625907545909286">
        <ele>0</ele>
        <time>2010-01-02T20:46:00Z</time>
      </trkpt>
      <trkpt lat="54.194394908845425" lon="10.626004440709949">
        <ele>0</ele>
        <time>2010-01-02T20:46:06Z</time>
      </trkpt>
      <trkpt lat="54.194304132834077" lon="10.626084068790078">
        <ele>0</ele>
        <time>2010-01-02T20:46:10Z</time>
      </trkpt>
      <trkpt lat="54.194211009889841" lon="10.626192949712276">
        <ele>0</ele>
        <time>2010-01-02T20:46:15Z</time>
      </trkpt>
      <trkpt lat="54.194083102047443" lon="10.626319767907262">
        <ele>0</ele>
        <time>2010-01-02T20:46:21Z</time>
      </trkpt>
      <trkpt lat="54.193790489807725" lon="10.626661917194724">
        <ele>0</ele>
        <time>2010-01-02T20:46:35Z</time>
      </trkpt>
      <trkpt lat="54.193421266973019" lon="10.627057207748294">
        <ele>0</ele>
        <time>2010-01-02T20:46:52Z</time>
      </trkpt>
      <trkpt lat="54.193305764347315" lon="10.62717136926949">
        <ele>0</ele>
        <time>2010-01-02T20:46:58Z</time>
      </trkpt>
      <trkpt lat="54.193238960579038" lon="10.627221073955297">
        <ele>0</ele>
        <time>2010-01-02T20:47:00Z</time>
      </trkpt>
      <trkpt lat="54.193186154589057" lon="10.627239681780338">
        <ele>0</ele>
        <time>2010-01-02T20:47:03Z</time>
      </trkpt>
      <trkpt lat="54.193116165697575" lon="10.627249656245112">
        <ele>0</ele>
        <time>2010-01-02T20:47:05Z</time>
      </trkpt>
      <trkpt lat="54.192953808233142" lon="10.62727346085012">
        <ele>0</ele>
        <time>2010-01-02T20:47:12Z</time>
      </trkpt>
      <trkpt lat="54.19275289401412" lon="10.627306150272489">
        <ele>0</ele>
        <time>2010-01-02T20:47:20Z</time>
      </trkpt>
      <trkpt lat="54.192706122994423" lon="10.627303048968315">
        <ele>0</ele>
        <time>2010-01-02T20:47:22Z</time>
      </trkpt>
      <trkpt lat="54.192668320611119" lon="10.62729055993259">
        <ele>0</ele>
        <time>2010-01-02T20:47:23Z</time>
      </trkpt>
      <trkpt lat="54.192620292305946" lon="10.62725686468184">
        <ele>0</ele>
        <time>2010-01-02T20:47:26Z</time>
      </trkpt>
      <trkpt lat="54.192574862390757" lon="10.627217050641775">
        <ele>0</ele>
        <time>2010-01-02T20:47:28Z</time>
      </trkpt>
      <trkpt lat="54.192015705630183" lon="10.626638028770685">
        <ele>0</ele>
        <time>2010-01-02T20:47:54Z</time>
      </trkpt>
      <trkpt lat="54.191967258229852" lon="10.626564519479871">
        <ele>0</ele>
        <time>2010-01-02T20:47:56Z</time>
      </trkpt>
      <trkpt lat="54.191912272945046" lon="10.626469803974032">
        <ele>0</ele>
        <time>2010-01-02T20:47:59Z</time>
      </trkpt>
      <trkpt lat="54.191776067018509" lon="10.62610661610961">
        <ele>0</ele>
        <time>2010-01-02T20:48:10Z</time>
      </trkpt>
      <trkpt lat="54.191462248563766" lon="10.62522224150598">
        <ele>0</ele>
        <time>2010-01-02T20:48:34Z</time>
      </trkpt>
      <trkpt lat="54.19142184779048" lon="10.625139344483614">
        <ele>0</ele>
        <time>2010-01-02T20:48:36Z</time>
      </trkpt>
      <trkpt lat="54.19138521887362" lon="10.625085365027189">
        <ele>0</ele>
        <time>2010-01-02T20:48:38Z</time>
      </trkpt>
      <trkpt lat="54.191320678219199" lon="10.625017052516341">
        <ele>0</ele>
        <time>2010-01-02T20:48:41Z</time>
      </trkpt>
      <trkpt lat="54.191206349059939" lon="10.624918229877949">
        <ele>0</ele>
        <time>2010-01-02T20:48:46Z</time>
      </trkpt>
      <trkpt lat="54.190843496471643" lon="10.624616146087646">
        <ele>0</ele>
        <time>2010-01-02T20:49:03Z</time>
      </trkpt>
      <trkpt lat="54.19065959751606" lon="10.624481281265616">
        <ele>0</ele>
        <time>2010-01-02T20:49:11Z</time>
      </trkpt>
      <trkpt lat="54.190607964992523" lon="10.62444775365293">
        <ele>0</ele>
        <time>2010-01-02T20:49:13Z</time>
      </trkpt>
      <trkpt lat="54.190544849261642" lon="10.624428391456604">
        <ele>0</ele>
        <time>2010-01-02T20:49:15Z</time>
      </trkpt>
      <trkpt lat="54.190472094342113" lon="10.624427804723382">
        <ele>0</ele>
        <time>2010-01-02T20:49:18Z</time>
      </trkpt>
      <trkpt lat="54.190423814579844" lon="10.624452363699675">
        <ele>0</ele>
        <time>2010-01-02T20:49:20Z</time>
      </trkpt>
      <trkpt lat="54.190376792103052" lon="10.624506007879972">
        <ele>0</ele>
        <time>2010-01-02T20:49:23Z</time>
      </trkpt>
      <trkpt lat="54.190334379673004" lon="10.624564094468951">
        <ele>0</ele>
        <time>2010-01-02T20:49:25Z</time>
      </trkpt>
      <trkpt lat="54.19004931114614" lon="10.625096010044217">
        <ele>0</ele>
        <time>2010-01-02T20:49:42Z</time>
      </trkpt>
      <trkpt lat="54.189627785235643" lon="10.625871419906616">
        <ele>0</ele>
        <time>2010-01-02T20:50:06Z</time>
      </trkpt>
      <trkpt lat="54.189570620656013" lon="10.625977534800768">
        <ele>0</ele>
        <time>2010-01-02T20:50:10Z</time>
      </trkpt>
      <trkpt lat="54.189118668437004" lon="10.626842798665166">
        <ele>0</ele>
        <time>2010-01-02T20:50:37Z</time>
      </trkpt>
      <trkpt lat="54.188934182748199" lon="10.62721042893827">
        <ele>0</ele>
        <time>2010-01-02T20:50:48Z</time>
      </trkpt>
      <trkpt lat="54.188845502212644" lon="10.627391142770648">
        <ele>0</ele>
        <time>2010-01-02T20:50:54Z</time>
      </trkpt>
      <trkpt lat="54.188780039548874" lon="10.62756028957665">
        <ele>0</ele>
        <time>2010-01-02T20:50:59Z</time>
      </trkpt>
      <trkpt lat="54.188731173053384" lon="10.627692136913538">
        <ele>0</ele>
        <time>2010-01-02T20:51:02Z</time>
      </trkpt>
      <trkpt lat="54.188691275194287" lon="10.627817530184984">
        <ele>0</ele>
        <time>2010-01-02T20:51:06Z</time>
      </trkpt>
      <trkpt lat="54.188625980168581" lon="10.62800201587379">
        <ele>0</ele>
        <time>2010-01-02T20:51:11Z</time>
      </trkpt>
      <trkpt lat="54.188548950478435" lon="10.628260429948568">
        <ele>0</ele>
        <time>2010-01-02T20:51:17Z</time>
      </trkpt>
      <trkpt lat="54.188500586897135" lon="10.628347769379616">
        <ele>0</ele>
        <time>2010-01-02T20:51:20Z</time>
      </trkpt>
      <trkpt lat="54.188459599390626" lon="10.628382805734873">
        <ele>0</ele>
        <time>2010-01-02T20:51:22Z</time>
      </trkpt>
      <trkpt lat="54.188441662117839" lon="10.628384985029697">
        <ele>0</ele>
        <time>2010-01-02T20:51:23Z</time>
      </trkpt>
      <trkpt lat="54.188412073999643" lon="10.628390517085791">
        <ele>0</ele>
        <time>2010-01-02T20:51:24Z</time>
      </trkpt>
      <trkpt lat="54.188364297151566" lon="10.628376770764589">
        <ele>0</ele>
        <time>2010-01-02T20:51:26Z</time>
      </trkpt>
      <trkpt lat="54.188309982419014" lon="10.628341818228364">
        <ele>0</ele>
        <time>2010-01-02T20:51:28Z</time>
      </trkpt>
      <trkpt lat="54.187707407400012" lon="10.627889949828386">
        <ele>0</ele>
        <time>2010-01-02T20:51:55Z</time>
      </trkpt>
      <trkpt lat="54.187646890059114" lon="10.627862792462111">
        <ele>0</ele>
        <time>2010-01-02T20:51:57Z</time>
      </trkpt>
      <trkpt lat="54.187592826783657" lon="10.627847788855433">
        <ele>0</ele>
        <time>2010-01-02T20:51:59Z</time>
      </trkpt>
      <trkpt lat="54.187544379383326" lon="10.62785399146378">
        <ele>0</ele>
        <time>2010-01-02T20:52:01Z</time>
      </trkpt>
      <trkpt lat="54.187512192875147" lon="10.627868827432394">
        <ele>0</ele>
        <time>2010-01-02T20:52:03Z</time>
      </trkpt>
      <trkpt lat="54.187470953911543" lon="10.627799676731229">
        <ele>0</ele>
        <time>2010-01-02T20:52:05Z</time>
      </trkpt>
      <trkpt lat="54.187457207590342" lon="10.627775620669127">
        <ele>0</ele>
        <time>2010-01-02T20:52:06Z</time>
      </trkpt>
      <trkpt lat="54.187392331659794" lon="10.627679731696844">
        <ele>0</ele>
        <time>2010-01-02T20:52:09Z</time>
      </trkpt>
      <trkpt lat="54.187329467386007" lon="10.627605216577649">
        <ele>0</ele>
        <time>2010-01-02T20:52:12Z</time>
      </trkpt>
      <trkpt lat="54.187280349433422" lon="10.627556266263127">
        <ele>0</ele>
        <time>2010-01-02T20:52:14Z</time>
      </trkpt>
      <trkpt lat="54.187189405784011" lon="10.627459706738591">
        <ele>0</ele>
        <time>2010-01-02T20:52:19Z</time>
      </trkpt>
      <trkpt lat="54.187057642266154" lon="10.627323165535927">
        <ele>0</ele>
        <time>2010-01-02T20:52:25Z</time>
      </trkpt>
      <trkpt lat="54.186858320608735" lon="10.62710146419704">
        <ele>0</ele>
        <time>2010-01-02T20:52:34Z</time>
      </trkpt>
      <trkpt lat="54.186748852953315" lon="10.626956541091204">
        <ele>0</ele>
        <time>2010-01-02T20:52:40Z</time>
      </trkpt>
      <trkpt lat="54.186670314520597" lon="10.626848833635449">
        <ele>0</ele>
        <time>2010-01-02T20:52:44Z</time>
      </trkpt>
      <trkpt lat="54.186619101092219" lon="10.626769289374352">
        <ele>0</ele>
        <time>2010-01-02T20:52:47Z</time>
      </trkpt>
      <trkpt lat="54.18656587600708" lon="10.626668455079198">
        <ele>0</ele>
        <time>2010-01-02T20:52:50Z</time>
      </trkpt>
      <trkpt lat="54.18651164509356" lon="10.626561501994729">
        <ele>0</ele>
        <time>2010-01-02T20:52:53Z</time>
      </trkpt>
      <trkpt lat="54.186459090560675" lon="10.626446753740311">
        <ele>0</ele>
        <time>2010-01-02T20:52:57Z</time>
      </trkpt>
      <trkpt lat="54.186403602361679" lon="10.626306189224124">
        <ele>0</ele>
        <time>2010-01-02T20:53:01Z</time>
      </trkpt>
      <trkpt lat="54.186354568228126" lon="10.626179119572043">
        <ele>0</ele>
        <time>2010-01-02T20:53:04Z</time>
      </trkpt>
      <trkpt lat="54.186321794986725" lon="10.626065293326974">
        <ele>0</ele>
        <time>2010-01-02T20:53:07Z</time>
      </trkpt>
      <trkpt lat="54.18628977611661" lon="10.625937636941671">
        <ele>0</ele>
        <time>2010-01-02T20:53:10Z</time>
      </trkpt>
      <trkpt lat="54.186254991218448" lon="10.625799419358373">
        <ele>0</ele>
        <time>2010-01-02T20:53:14Z</time>
      </trkpt>
      <trkpt lat="54.186210399493575" lon="10.625592553988099">
        <ele>0</ele>
        <time>2010-01-02T20:53:19Z</time>
      </trkpt>
      <trkpt lat="54.186040414497256" lon="10.624790824949741">
        <ele>0</ele>
        <time>2010-01-02T20:53:39Z</time>
      </trkpt>
      <trkpt lat="54.185922648757696" lon="10.624234098941088">
        <ele>0</ele>
        <time>2010-01-02T20:53:53Z</time>
      </trkpt>
      <trkpt lat="54.185833213850856" lon="10.62387702986598">
        <ele>0</ele>
        <time>2010-01-02T20:54:02Z</time>
      </trkpt>
      <trkpt lat="54.185754591599107" lon="10.623605456203222">
        <ele>0</ele>
        <time>2010-01-02T20:54:09Z</time>
      </trkpt>
      <trkpt lat="54.185673538595438" lon="10.623350730165839">
        <ele>0</ele>
        <time>2010-01-02T20:54:16Z</time>
      </trkpt>
      <trkpt lat="54.185600532218814" lon="10.623173955827951">
        <ele>0</ele>
        <time>2010-01-02T20:54:21Z</time>
      </trkpt>
      <trkpt lat="54.185533476993442" lon="10.623041354119778">
        <ele>0</ele>
        <time>2010-01-02T20:54:25Z</time>
      </trkpt>
      <trkpt lat="54.185507828369737" lon="10.622999360784888">
        <ele>0</ele>
        <time>2010-01-02T20:54:27Z</time>
      </trkpt>
      <trkpt lat="54.185470277443528" lon="10.622937753796577">
        <ele>0</ele>
        <time>2010-01-02T20:54:29Z</time>
      </trkpt>
      <trkpt lat="54.185407245531678" lon="10.622846391052008">
        <ele>0</ele>
        <time>2010-01-02T20:54:32Z</time>
      </trkpt>
      <trkpt lat="54.185326108708978" lon="10.622743461281061">
        <ele>0</ele>
        <time>2010-01-02T20:54:36Z</time>
      </trkpt>
      <trkpt lat="54.185264082625508" lon="10.622662743553519">
        <ele>0</ele>
        <time>2010-01-02T20:54:39Z</time>
      </trkpt>
      <trkpt lat="54.185173977166414" lon="10.62256308272481">
        <ele>0</ele>
        <time>2010-01-02T20:54:43Z</time>
      </trkpt>
      <trkpt lat="54.185064006596804" lon="10.622454956173897">
        <ele>0</ele>
        <time>2010-01-02T20:54:49Z</time>
      </trkpt>
      <trkpt lat="54.184889411553741" lon="10.62227382324636">
        <ele>0</ele>
        <time>2010-01-02T20:54:57Z</time>
      </trkpt>
      <trkpt lat="54.184651197865605" lon="10.622073747217655">
        <ele>0</ele>
        <time>2010-01-02T20:55:07Z</time>
      </trkpt>
      <trkpt lat="54.184271246194839" lon="10.621718438342214">
        <ele>0</ele>
        <time>2010-01-02T20:55:25Z</time>
      </trkpt>
      <trkpt lat="54.184160185977817" lon="10.621596481651068">
        <ele>0</ele>
        <time>2010-01-02T20:55:30Z</time>
      </trkpt>
      <trkpt lat="54.184084413573146" lon="10.621488690376282">
        <ele>0</ele>
        <time>2010-01-02T20:55:34Z</time>
      </trkpt>
      <trkpt lat="54.18405968695879" lon="10.621449714526534">
        <ele>0</ele>
        <time>2010-01-02T20:55:35Z</time>
      </trkpt>
      <trkpt lat="54.184019453823566" lon="10.621385173872113">
        <ele>0</ele>
        <time>2010-01-02T20:55:37Z</time>
      </trkpt>
      <trkpt lat="54.183967905119061" lon="10.621282747015357">
        <ele>0</ele>
        <time>2010-01-02T20:55:41Z</time>
      </trkpt>
      <trkpt lat="54.183906381949782" lon="10.621165316551924">
        <ele>0</ele>
        <time>2010-01-02T20:55:44Z</time>
      </trkpt>
      <trkpt lat="54.183790627866983" lon="10.620940933004022">
        <ele>0</ele>
        <time>2010-01-02T20:55:51Z</time>
      </trkpt>
      <trkpt lat="54.183627013117075" lon="10.620621582493186">
        <ele>0</ele>
        <time>2010-01-02T20:56:01Z</time>
      </trkpt>
      <trkpt lat="54.183234991505742" lon="10.619808956980705">
        <ele>0</ele>
        <time>2010-01-02T20:56:26Z</time>
      </trkpt>
      <trkpt lat="54.182912036776543" lon="10.620172061026096">
        <ele>0</ele>
        <time>2010-01-02T20:56:41Z</time>
      </trkpt>
      <trkpt lat="54.182730065658689" lon="10.620361911132932">
        <ele>0</ele>
        <time>2010-01-02T20:56:50Z</time>
      </trkpt>
      <trkpt lat="54.182615568861365" lon="10.620482191443443">
        <ele>0</ele>
        <time>2010-01-02T20:56:55Z</time>
      </trkpt>
      <trkpt lat="54.182499898597598" lon="10.620588641613722">
        <ele>0</ele>
        <time>2010-01-02T20:57:01Z</time>
      </trkpt>
      <trkpt lat="54.182366458699107" lon="10.620704898610711">
        <ele>0</ele>
        <time>2010-01-02T20:57:07Z</time>
      </trkpt>
      <trkpt lat="54.18216185644269" lon="10.620881756767631">
        <ele>0</ele>
        <time>2010-01-02T20:57:16Z</time>
      </trkpt>
      <trkpt lat="54.181958930566907" lon="10.621047802269459">
        <ele>0</ele>
        <time>2010-01-02T20:57:25Z</time>
      </trkpt>
      <trkpt lat="54.18192339129746" lon="10.621082670986652">
        <ele>0</ele>
        <time>2010-01-02T20:57:26Z</time>
      </trkpt>
      <trkpt lat="54.181892294436693" lon="10.62111284583807">
        <ele>0</ele>
        <time>2010-01-02T20:57:28Z</time>
      </trkpt>
      <trkpt lat="54.181831358000636" lon="10.621203705668449">
        <ele>0</ele>
        <time>2010-01-02T20:57:31Z</time>
      </trkpt>
      <trkpt lat="54.181774193421006" lon="10.621314346790314">
        <ele>0</ele>
        <time>2010-01-02T20:57:35Z</time>
      </trkpt>
      <trkpt lat="54.181686099618673" lon="10.621468909084797">
        <ele>0</ele>
        <time>2010-01-02T20:57:40Z</time>
      </trkpt>
      <trkpt lat="54.18162533082068" lon="10.621576616540551">
        <ele>0</ele>
        <time>2010-01-02T20:57:43Z</time>
      </trkpt>
      <trkpt lat="54.181566154584289" lon="10.621667392551899">
        <ele>0</ele>
        <time>2010-01-02T20:57:46Z</time>
      </trkpt>
      <trkpt lat="54.181454591453075" lon="10.621810555458069">
        <ele>0</ele>
        <time>2010-01-02T20:57:52Z</time>
      </trkpt>
      <trkpt lat="54.181428859010339" lon="10.621840478852391">
        <ele>0</ele>
        <time>2010-01-02T20:57:53Z</time>
      </trkpt>
      <trkpt lat="54.181360630318522" lon="10.621922370046377">
        <ele>0</ele>
        <time>2010-01-02T20:57:56Z</time>
      </trkpt>
      <trkpt lat="54.18127597309649" lon="10.621989592909813">
        <ele>0</ele>
        <time>2010-01-02T20:58:00Z</time>
      </trkpt>
      <trkpt lat="54.181237751618028" lon="10.622019935399294">
        <ele>0</ele>
        <time>2010-01-02T20:58:02Z</time>
      </trkpt>
      <trkpt lat="54.181139850988984" lon="10.62210132367909">
        <ele>0</ele>
        <time>2010-01-02T20:58:06Z</time>
      </trkpt>
      <trkpt lat="54.180980175733566" lon="10.622198553755879">
        <ele>0</ele>
        <time>2010-01-02T20:58:13Z</time>
      </trkpt>
      <trkpt lat="54.180868696421385" lon="10.622272649779916">
        <ele>0</ele>
        <time>2010-01-02T20:58:18Z</time>
      </trkpt>
      <trkpt lat="54.180736681446433" lon="10.6223598215729">
        <ele>0</ele>
        <time>2010-01-02T20:58:23Z</time>
      </trkpt>
      <trkpt lat="54.180614473298192" lon="10.622437354177237">
        <ele>0</ele>
        <time>2010-01-02T20:58:29Z</time>
      </trkpt>
      <trkpt lat="54.180423952639103" lon="10.622586132958531">
        <ele>0</ele>
        <time>2010-01-02T20:58:37Z</time>
      </trkpt>
      <trkpt lat="54.180199401453137" lon="10.622752932831645">
        <ele>0</ele>
        <time>2010-01-02T20:58:47Z</time>
      </trkpt>
      <trkpt lat="54.180047940462828" lon="10.622866675257683">
        <ele>0</ele>
        <time>2010-01-02T20:58:53Z</time>
      </trkpt>
      <trkpt lat="54.179929504171014" lon="10.622954852879047">
        <ele>0</ele>
        <time>2010-01-02T20:58:59Z</time>
      </trkpt>
      <trkpt lat="54.179887427017093" lon="10.62297161668539">
        <ele>0</ele>
        <time>2010-01-02T20:59:00Z</time>
      </trkpt>
      <trkpt lat="54.179826658219099" lon="10.622998103499413">
        <ele>0</ele>
        <time>2010-01-02T20:59:03Z</time>
      </trkpt>
      <trkpt lat="54.179773852229118" lon="10.623015202581882">
        <ele>0</ele>
        <time>2010-01-02T20:59:05Z</time>
      </trkpt>
      <trkpt lat="54.179720124229789" lon="10.623029200360179">
        <ele>0</ele>
        <time>2010-01-02T20:59:07Z</time>
      </trkpt>
      <trkpt lat="54.179682238027453" lon="10.623021321371198">
        <ele>0</ele>
        <time>2010-01-02T20:59:09Z</time>
      </trkpt>
      <trkpt lat="54.17952666990459" lon="10.623006569221616">
        <ele>0</ele>
        <time>2010-01-02T20:59:15Z</time>
      </trkpt>
      <trkpt lat="54.179276721552014" lon="10.622991900891066">
        <ele>0</ele>
        <time>2010-01-02T20:59:25Z</time>
      </trkpt>
      <trkpt lat="54.179212935268879" lon="10.622990895062685">
        <ele>0</ele>
        <time>2010-01-02T20:59:28Z</time>
      </trkpt>
      <trkpt lat="54.179166331887245" lon="10.623001623898745">
        <ele>0</ele>
        <time>2010-01-02T20:59:29Z</time>
      </trkpt>
      <trkpt lat="54.179083099588752" lon="10.623030457645655">
        <ele>0</ele>
        <time>2010-01-02T20:59:33Z</time>
      </trkpt>
      <trkpt lat="54.179052086547017" lon="10.622916631400585">
        <ele>0</ele>
        <time>2010-01-02T20:59:36Z</time>
      </trkpt>
      <trkpt lat="54.179020151495934" lon="10.622867094352841">
        <ele>0</ele>
        <time>2010-01-02T20:59:37Z</time>
      </trkpt>
      <trkpt lat="54.17899358086288" lon="10.622828202322125">
        <ele>0</ele>
        <time>2010-01-02T20:59:39Z</time>
      </trkpt>
      <trkpt lat="54.178961897268891" lon="10.622806241735816">
        <ele>0</ele>
        <time>2010-01-02T20:59:40Z</time>
      </trkpt>
      <trkpt lat="54.178935745730996" lon="10.622796434909105">
        <ele>0</ele>
        <time>2010-01-02T20:59:41Z</time>
      </trkpt>
      <trkpt lat="54.178628884255886" lon="10.622673388570547">
        <ele>0</ele>
        <time>2010-01-02T20:59:54Z</time>
      </trkpt>
      <trkpt lat="54.178469628095627" lon="10.622580600902438">
        <ele>0</ele>
        <time>2010-01-02T21:00:01Z</time>
      </trkpt>
      <trkpt lat="54.178358986973763" lon="10.622490830719471">
        <ele>0</ele>
        <time>2010-01-02T21:00:06Z</time>
      </trkpt>
      <trkpt lat="54.178286818787456" lon="10.622459566220641">
        <ele>0</ele>
        <time>2010-01-02T21:00:09Z</time>
      </trkpt>
      <trkpt lat="54.178222864866257" lon="10.622452525421977">
        <ele>0</ele>
        <time>2010-01-02T21:00:11Z</time>
      </trkpt>
      <trkpt lat="54.178164526820183" lon="10.622452944517136">
        <ele>0</ele>
        <time>2010-01-02T21:00:13Z</time>
      </trkpt>
      <trkpt lat="54.177968474105" lon="10.622441042214632">
        <ele>0</ele>
        <time>2010-01-02T21:00:21Z</time>
      </trkpt>
      <trkpt lat="54.177673598751426" lon="10.622423272579908">
        <ele>0</ele>
        <time>2010-01-02T21:00:33Z</time>
      </trkpt>
      <trkpt lat="54.177426164969802" lon="10.622393181547523">
        <ele>0</ele>
        <time>2010-01-02T21:00:43Z</time>
      </trkpt>
      <trkpt lat="54.177367491647601" lon="10.622372142970562">
        <ele>0</ele>
        <time>2010-01-02T21:00:45Z</time>
      </trkpt>
      <trkpt lat="54.177314015105367" lon="10.622329562902451">
        <ele>0</ele>
        <time>2010-01-02T21:00:48Z</time>
      </trkpt>
      <trkpt lat="54.177268585190177" lon="10.62228505499661">
        <ele>0</ele>
        <time>2010-01-02T21:00:50Z</time>
      </trkpt>
      <trkpt lat="54.177206642925739" lon="10.622210539877415">
        <ele>0</ele>
        <time>2010-01-02T21:00:53Z</time>
      </trkpt>
      <trkpt lat="54.176888801157475" lon="10.621599331498146">
        <ele>0</ele>
        <time>2010-01-02T21:01:12Z</time>
      </trkpt>
      <trkpt lat="54.176811771467328" lon="10.621465556323528">
        <ele>0</ele>
        <time>2010-01-02T21:01:16Z</time>
      </trkpt>
      <trkpt lat="54.176746057346463" lon="10.621375869959593">
        <ele>0</ele>
        <time>2010-01-02T21:01:20Z</time>
      </trkpt>
      <trkpt lat="54.176632566377521" lon="10.621195826679468">
        <ele>0</ele>
        <time>2010-01-02T21:01:26Z</time>
      </trkpt>
      <trkpt lat="54.176519410684705" lon="10.620965240523219">
        <ele>0</ele>
        <time>2010-01-02T21:01:33Z</time>
      </trkpt>
      <trkpt lat="54.176480686292052" lon="10.620877733454108">
        <ele>0</ele>
        <time>2010-01-02T21:01:36Z</time>
      </trkpt>
      <trkpt lat="54.176457384601235" lon="10.620801877230406">
        <ele>0</ele>
        <time>2010-01-02T21:01:38Z</time>
      </trkpt>
      <trkpt lat="54.17644003406167" lon="10.620702970772982">
        <ele>0</ele>
        <time>2010-01-02T21:01:40Z</time>
      </trkpt>
      <trkpt lat="54.176428886130452" lon="10.620588473975658">
        <ele>0</ele>
        <time>2010-01-02T21:01:43Z</time>
      </trkpt>
      <trkpt lat="54.17641363106668" lon="10.620360737666488">
        <ele>0</ele>
        <time>2010-01-02T21:01:48Z</time>
      </trkpt>
      <trkpt lat="54.176397286355495" lon="10.620103999972343">
        <ele>0</ele>
        <time>2010-01-02T21:01:54Z</time>
      </trkpt>
      <trkpt lat="54.176390580832958" lon="10.619914317503572">
        <ele>0</ele>
        <time>2010-01-02T21:01:59Z</time>
      </trkpt>
      <trkpt lat="54.176385048776865" lon="10.619669398292899">
        <ele>0</ele>
        <time>2010-01-02T21:02:04Z</time>
      </trkpt>
      <trkpt lat="54.176372811198235" lon="10.619463035836816">
        <ele>0</ele>
        <time>2010-01-02T21:02:09Z</time>
      </trkpt>
      <trkpt lat="54.176364094018936" lon="10.619247369468212">
        <ele>0</ele>
        <time>2010-01-02T21:02:14Z</time>
      </trkpt>
      <trkpt lat="54.176344480365515" lon="10.618869764730334">
        <ele>0</ele>
        <time>2010-01-02T21:02:23Z</time>
      </trkpt>
      <trkpt lat="54.176338110119104" lon="10.618704557418823">
        <ele>0</ele>
        <time>2010-01-02T21:02:27Z</time>
      </trkpt>
      <trkpt lat="54.176324866712093" lon="10.618568686768413">
        <ele>0</ele>
        <time>2010-01-02T21:02:30Z</time>
      </trkpt>
      <trkpt lat="54.176313551142812" lon="10.618441952392459">
        <ele>0</ele>
        <time>2010-01-02T21:02:33Z</time>
      </trkpt>
      <trkpt lat="54.176291171461344" lon="10.618297196924686">
        <ele>0</ele>
        <time>2010-01-02T21:02:37Z</time>
      </trkpt>
      <trkpt lat="54.176258482038975" lon="10.618106843903661">
        <ele>0</ele>
        <time>2010-01-02T21:02:42Z</time>
      </trkpt>
      <trkpt lat="54.17621623724699" lon="10.617873910814524">
        <ele>0</ele>
        <time>2010-01-02T21:02:47Z</time>
      </trkpt>
      <trkpt lat="54.176168292760849" lon="10.617610551416874">
        <ele>0</ele>
        <time>2010-01-02T21:02:54Z</time>
      </trkpt>
      <trkpt lat="54.17610090225935" lon="10.617220709100366">
        <ele>0</ele>
        <time>2010-01-02T21:03:03Z</time>
      </trkpt>
      <trkpt lat="54.176033679395914" lon="10.616840086877346">
        <ele>0</ele>
        <time>2010-01-02T21:03:13Z</time>
      </trkpt>
      <trkpt lat="54.175976179540157" lon="10.616526519879699">
        <ele>0</ele>
        <time>2010-01-02T21:03:20Z</time>
      </trkpt>
      <trkpt lat="54.175954051315784" lon="10.616401629522443">
        <ele>0</ele>
        <time>2010-01-02T21:03:23Z</time>
      </trkpt>
      <trkpt lat="54.175921613350511" lon="10.616313870996237">
        <ele>0</ele>
        <time>2010-01-02T21:03:26Z</time>
      </trkpt>
      <trkpt lat="54.175883810967207" lon="10.616227872669697">
        <ele>0</ele>
        <time>2010-01-02T21:03:28Z</time>
      </trkpt>
      <trkpt lat="54.175808792933822" lon="10.616110861301422">
        <ele>0</ele>
        <time>2010-01-02T21:03:32Z</time>
      </trkpt>
      <trkpt lat="54.175753891468048" lon="10.616025449708104">
        <ele>0</ele>
        <time>2010-01-02T21:03:35Z</time>
      </trkpt>
      <trkpt lat="54.175681052729487" lon="10.615940541028976">
        <ele>0</ele>
        <time>2010-01-02T21:03:39Z</time>
      </trkpt>
      <trkpt lat="54.175603101029992" lon="10.615883460268378">
        <ele>0</ele>
        <time>2010-01-02T21:03:42Z</time>
      </trkpt>
      <trkpt lat="54.175501931458712" lon="10.615837778896093">
        <ele>0</ele>
        <time>2010-01-02T21:03:46Z</time>
      </trkpt>
      <trkpt lat="54.175420878455043" lon="10.615822104737163">
        <ele>0</ele>
        <time>2010-01-02T21:03:50Z</time>
      </trkpt>
      <trkpt lat="54.175348961725831" lon="10.615813806653023">
        <ele>0</ele>
        <time>2010-01-02T21:03:53Z</time>
      </trkpt>
      <trkpt lat="54.175247540697455" lon="10.615827888250351">
        <ele>0</ele>
        <time>2010-01-02T21:03:57Z</time>
      </trkpt>
      <trkpt lat="54.175165146589279" lon="10.615852111950517">
        <ele>0</ele>
        <time>2010-01-02T21:04:00Z</time>
      </trkpt>
      <trkpt lat="54.175063306465745" lon="10.615901481360197">
        <ele>0</ele>
        <time>2010-01-02T21:04:04Z</time>
      </trkpt>
      <trkpt lat="54.174917042255402" lon="10.615998208522797">
        <ele>0</ele>
        <time>2010-01-02T21:04:10Z</time>
      </trkpt>
      <trkpt lat="54.174775304272771" lon="10.616091750562191">
        <ele>0</ele>
        <time>2010-01-02T21:04:17Z</time>
      </trkpt>
      <trkpt lat="54.174703136086464" lon="10.616144724190235">
        <ele>0</ele>
        <time>2010-01-02T21:04:20Z</time>
      </trkpt>
      <trkpt lat="54.1746477317065" lon="10.616174144670367">
        <ele>0</ele>
        <time>2010-01-02T21:04:22Z</time>
      </trkpt>
      <trkpt lat="54.174569780007005" lon="10.61618747189641">
        <ele>0</ele>
        <time>2010-01-02T21:04:25Z</time>
      </trkpt>
      <trkpt lat="54.174504149705172" lon="10.616186549887061">
        <ele>0</ele>
        <time>2010-01-02T21:04:28Z</time>
      </trkpt>
      <trkpt lat="54.174448410049081" lon="10.616188477724791">
        <ele>0</ele>
        <time>2010-01-02T21:04:30Z</time>
      </trkpt>
      <trkpt lat="54.174388898536563" lon="10.61616743914783">
        <ele>0</ele>
        <time>2010-01-02T21:04:32Z</time>
      </trkpt>
      <trkpt lat="54.174326369538903" lon="10.616117483004928">
        <ele>0</ele>
        <time>2010-01-02T21:04:35Z</time>
      </trkpt>
      <trkpt lat="54.174217404797673" lon="10.616020001471043">
        <ele>0</ele>
        <time>2010-01-02T21:04:40Z</time>
      </trkpt>
      <trkpt lat="54.174159318208694" lon="10.615969877690077">
        <ele>0</ele>
        <time>2010-01-02T21:04:43Z</time>
      </trkpt>
      <trkpt lat="54.174120426177979" lon="10.615949761122465">
        <ele>0</ele>
        <time>2010-01-02T21:04:44Z</time>
      </trkpt>
      <trkpt lat="54.174060830846429" lon="10.615922687575221">
        <ele>0</ele>
        <time>2010-01-02T21:04:47Z</time>
      </trkpt>
      <trkpt lat="54.173983298242092" lon="10.615896116942167">
        <ele>0</ele>
        <time>2010-01-02T21:04:50Z</time>
      </trkpt>
      <trkpt lat="54.173843488097191" lon="10.615853369235992">
        <ele>0</ele>
        <time>2010-01-02T21:04:56Z</time>
      </trkpt>
      <trkpt lat="54.173754137009382" lon="10.615819590166211">
        <ele>0</ele>
        <time>2010-01-02T21:04:59Z</time>
      </trkpt>
      <trkpt lat="54.173648692667484" lon="10.615787822753191">
        <ele>0</ele>
        <time>2010-01-02T21:05:04Z</time>
      </trkpt>
      <trkpt lat="54.173496225848794" lon="10.615733256563544">
        <ele>0</ele>
        <time>2010-01-02T21:05:10Z</time>
      </trkpt>
      <trkpt lat="54.173371670767665" lon="10.615686820819974">
        <ele>0</ele>
        <time>2010-01-02T21:05:15Z</time>
      </trkpt>
      <trkpt lat="54.173149717971683" lon="10.615602331236005">
        <ele>0</ele>
        <time>2010-01-02T21:05:24Z</time>
      </trkpt>
      <trkpt lat="54.172862889245152" lon="10.61550778336823">
        <ele>0</ele>
        <time>2010-01-02T21:05:36Z</time>
      </trkpt>
      <trkpt lat="54.172564577311277" lon="10.615432010963559">
        <ele>0</ele>
        <time>2010-01-02T21:05:48Z</time>
      </trkpt>
      <trkpt lat="54.172478914260864" lon="10.615404266864061">
        <ele>0</ele>
        <time>2010-01-02T21:05:51Z</time>
      </trkpt>
      <trkpt lat="54.172429293394089" lon="10.615384401753545">
        <ele>0</ele>
        <time>2010-01-02T21:05:53Z</time>
      </trkpt>
      <trkpt lat="54.17237414047122" lon="10.615355651825666">
        <ele>0</ele>
        <time>2010-01-02T21:05:56Z</time>
      </trkpt>
      <trkpt lat="54.172298032790422" lon="10.615299995988607">
        <ele>0</ele>
        <time>2010-01-02T21:05:59Z</time>
      </trkpt>
      <trkpt lat="54.172201137989759" lon="10.615234365686774">
        <ele>0</ele>
        <time>2010-01-02T21:06:03Z</time>
      </trkpt>
      <trkpt lat="54.172151181846857" lon="10.615185499191284">
        <ele>0</ele>
        <time>2010-01-02T21:06:05Z</time>
      </trkpt>
      <trkpt lat="54.172087479382753" lon="10.615112576633692">
        <ele>0</ele>
        <time>2010-01-02T21:06:09Z</time>
      </trkpt>
      <trkpt lat="54.172025285661221" lon="10.615021213889122">
        <ele>0</ele>
        <time>2010-01-02T21:06:12Z</time>
      </trkpt>
      <trkpt lat="54.171990416944027" lon="10.614956505596638">
        <ele>0</ele>
        <time>2010-01-02T21:06:14Z</time>
      </trkpt>
      <trkpt lat="54.171961834654212" lon="10.614893138408661">
        <ele>0</ele>
        <time>2010-01-02T21:06:16Z</time>
      </trkpt>
      <trkpt lat="54.17193585075438" lon="10.614825077354908">
        <ele>0</ele>
        <time>2010-01-02T21:06:18Z</time>
      </trkpt>
      <trkpt lat="54.171919925138354" lon="10.614762883633375">
        <ele>0</ele>
        <time>2010-01-02T21:06:19Z</time>
      </trkpt>
      <trkpt lat="54.171907268464565" lon="10.614682082086802">
        <ele>0</ele>
        <time>2010-01-02T21:06:21Z</time>
      </trkpt>
      <trkpt lat="54.171894527971745" lon="10.614589126780629">
        <ele>0</ele>
        <time>2010-01-02T21:06:23Z</time>
      </trkpt>
      <trkpt lat="54.171876674517989" lon="10.614445796236396">
        <ele>0</ele>
        <time>2010-01-02T21:06:27Z</time>
      </trkpt>
      <trkpt lat="54.171866532415152" lon="10.614343537017703">
        <ele>0</ele>
        <time>2010-01-02T21:06:29Z</time>
      </trkpt>
      <trkpt lat="54.171856641769409" lon="10.614265752956271">
        <ele>0</ele>
        <time>2010-01-02T21:06:31Z</time>
      </trkpt>
      <trkpt lat="54.171837950125337" lon="10.614200541749597">
        <ele>0</ele>
        <time>2010-01-02T21:06:33Z</time>
      </trkpt>
      <trkpt lat="54.171819174662232" lon="10.614130720496178">
        <ele>0</ele>
        <time>2010-01-02T21:06:35Z</time>
      </trkpt>
      <trkpt lat="54.171800566837192" lon="10.61407464556396">
        <ele>0</ele>
        <time>2010-01-02T21:06:36Z</time>
      </trkpt>
      <trkpt lat="54.171767374500632" lon="10.614003818482161">
        <ele>0</ele>
        <time>2010-01-02T21:06:38Z</time>
      </trkpt>
      <trkpt lat="54.171726135537028" lon="10.613933159038424">
        <ele>0</ele>
        <time>2010-01-02T21:06:41Z</time>
      </trkpt>
      <trkpt lat="54.171670479699969" lon="10.613856967538595">
        <ele>0</ele>
        <time>2010-01-02T21:06:44Z</time>
      </trkpt>
      <trkpt lat="54.171577608212829" lon="10.613752864301205">
        <ele>0</ele>
        <time>2010-01-02T21:06:48Z</time>
      </trkpt>
      <trkpt lat="54.171271501109004" lon="10.613464443013072">
        <ele>0</ele>
        <time>2010-01-02T21:07:02Z</time>
      </trkpt>
      <trkpt lat="54.171066312119365" lon="10.613276856020093">
        <ele>0</ele>
        <time>2010-01-02T21:07:11Z</time>
      </trkpt>
      <trkpt lat="54.170880150049925" lon="10.613108463585377">
        <ele>0</ele>
        <time>2010-01-02T21:07:20Z</time>
      </trkpt>
      <trkpt lat="54.170645037665963" lon="10.612895814701915">
        <ele>0</ele>
        <time>2010-01-02T21:07:30Z</time>
      </trkpt>
      <trkpt lat="54.170550657436252" lon="10.612816270440817">
        <ele>0</ele>
        <time>2010-01-02T21:07:35Z</time>
      </trkpt>
      <trkpt lat="54.170500114560127" lon="10.61279347166419">
        <ele>0</ele>
        <time>2010-01-02T21:07:37Z</time>
      </trkpt>
      <trkpt lat="54.170434148982167" lon="10.612763548269868">
        <ele>0</ele>
        <time>2010-01-02T21:07:39Z</time>
      </trkpt>
      <trkpt lat="54.170316969975829" lon="10.612729182466865">
        <ele>0</ele>
        <time>2010-01-02T21:07:44Z</time>
      </trkpt>
      <trkpt lat="54.170150337740779" lon="10.612694900482893">
        <ele>0</ele>
        <time>2010-01-02T21:07:51Z</time>
      </trkpt>
      <trkpt lat="54.16999108158052" lon="10.612674197182059">
        <ele>0</ele>
        <time>2010-01-02T21:07:57Z</time>
      </trkpt>
      <trkpt lat="54.169915057718754" lon="10.612473115324974">
        <ele>0</ele>
        <time>2010-01-02T21:08:03Z</time>
      </trkpt>
      <trkpt lat="54.169845907017589" lon="10.612320732325315">
        <ele>0</ele>
        <time>2010-01-02T21:08:07Z</time>
      </trkpt>
      <trkpt lat="54.1698107868433" lon="10.612236158922315">
        <ele>0</ele>
        <time>2010-01-02T21:08:10Z</time>
      </trkpt>
      <trkpt lat="54.169651949778199" lon="10.611942876130342">
        <ele>0</ele>
        <time>2010-01-02T21:08:19Z</time>
      </trkpt>
      <trkpt lat="54.169517168775201" lon="10.611702399328351">
        <ele>0</ele>
        <time>2010-01-02T21:08:27Z</time>
      </trkpt>
      <trkpt lat="54.169445503503084" lon="10.611566947773099">
        <ele>0</ele>
        <time>2010-01-02T21:08:31Z</time>
      </trkpt>
      <trkpt lat="54.169270908460021" lon="10.611228235065937">
        <ele>0</ele>
        <time>2010-01-02T21:08:42Z</time>
      </trkpt>
      <trkpt lat="54.169167894870043" lon="10.611021872609854">
        <ele>0</ele>
        <time>2010-01-02T21:08:48Z</time>
      </trkpt>
      <trkpt lat="54.169120956212282" lon="10.610930090770125">
        <ele>0</ele>
        <time>2010-01-02T21:08:51Z</time>
      </trkpt>
      <trkpt lat="54.169044429436326" lon="10.610761111602187">
        <ele>0</ele>
        <time>2010-01-02T21:08:56Z</time>
      </trkpt>
      <trkpt lat="54.168936302885413" lon="10.610495237633586">
        <ele>0</ele>
        <time>2010-01-02T21:09:04Z</time>
      </trkpt>
      <trkpt lat="54.168865727260709" lon="10.610297005623579">
        <ele>0</ele>
        <time>2010-01-02T21:09:09Z</time>
      </trkpt>
      <trkpt lat="54.168738070875406" lon="10.609904648736119">
        <ele>0</ele>
        <time>2010-01-02T21:09:20Z</time>
      </trkpt>
      <trkpt lat="54.168540425598621" lon="10.609283465892076">
        <ele>0</ele>
        <time>2010-01-02T21:09:36Z</time>
      </trkpt>
      <trkpt lat="54.168455936014652" lon="10.609047431498766">
        <ele>0</ele>
        <time>2010-01-02T21:09:43Z</time>
      </trkpt>
      <trkpt lat="54.168417211622" lon="10.608958331868052">
        <ele>0</ele>
        <time>2010-01-02T21:09:45Z</time>
      </trkpt>
      <trkpt lat="54.168375721201301" lon="10.608867891132832">
        <ele>0</ele>
        <time>2010-01-02T21:09:48Z</time>
      </trkpt>
      <trkpt lat="54.168320400640368" lon="10.608747191727161">
        <ele>0</ele>
        <time>2010-01-02T21:09:52Z</time>
      </trkpt>
      <trkpt lat="54.168266002088785" lon="10.608629593625665">
        <ele>0</ele>
        <time>2010-01-02T21:09:55Z</time>
      </trkpt>
      <trkpt lat="54.168203808367252" lon="10.608529094606638">
        <ele>0</ele>
        <time>2010-01-02T21:09:58Z</time>
      </trkpt>
      <trkpt lat="54.168152594938874" lon="10.608454244211316">
        <ele>0</ele>
        <time>2010-01-02T21:10:01Z</time>
      </trkpt>
      <trkpt lat="54.168105907738209" lon="10.608376208692789">
        <ele>0</ele>
        <time>2010-01-02T21:10:04Z</time>
      </trkpt>
      <trkpt lat="54.168059974908829" lon="10.608290461823344">
        <ele>0</ele>
        <time>2010-01-02T21:10:07Z</time>
      </trkpt>
      <trkpt lat="54.168019322678447" lon="10.608193818479776">
        <ele>0</ele>
        <time>2010-01-02T21:10:09Z</time>
      </trkpt>
      <trkpt lat="54.167970707640052" lon="10.608033137395978">
        <ele>0</ele>
        <time>2010-01-02T21:10:14Z</time>
      </trkpt>
      <trkpt lat="54.167915219441056" lon="10.607820656150579">
        <ele>0</ele>
        <time>2010-01-02T21:10:19Z</time>
      </trkpt>
      <trkpt lat="54.16785922832787" lon="10.607638768851757">
        <ele>0</ele>
        <time>2010-01-02T21:10:24Z</time>
      </trkpt>
      <trkpt lat="54.167819330468774" lon="10.607529887929559">
        <ele>0</ele>
        <time>2010-01-02T21:10:27Z</time>
      </trkpt>
      <trkpt lat="54.167763339355588" lon="10.607427628710866">
        <ele>0</ele>
        <time>2010-01-02T21:10:30Z</time>
      </trkpt>
      <trkpt lat="54.167681783437729" lon="10.607286393642426">
        <ele>0</ele>
        <time>2010-01-02T21:10:35Z</time>
      </trkpt>
      <trkpt lat="54.167593773454428" lon="10.607139291241765">
        <ele>0</ele>
        <time>2010-01-02T21:10:40Z</time>
      </trkpt>
      <trkpt lat="54.167436780408025" lon="10.606921026483178">
        <ele>0</ele>
        <time>2010-01-02T21:10:48Z</time>
      </trkpt>
      <trkpt lat="54.167257826775312" lon="10.606678957119584">
        <ele>0</ele>
        <time>2010-01-02T21:10:57Z</time>
      </trkpt>
      <trkpt lat="54.166985917836428" lon="10.606320630759001">
        <ele>0</ele>
        <time>2010-01-02T21:11:11Z</time>
      </trkpt>
      <trkpt lat="54.16687561199069" lon="10.606177300214767">
        <ele>0</ele>
        <time>2010-01-02T21:11:16Z</time>
      </trkpt>
      <trkpt lat="54.16678081266582" lon="10.606061043217778">
        <ele>0</ele>
        <time>2010-01-02T21:11:21Z</time>
      </trkpt>
      <trkpt lat="54.166738064959645" lon="10.606021145358682">
        <ele>0</ele>
        <time>2010-01-02T21:11:23Z</time>
      </trkpt>
      <trkpt lat="54.166682828217745" lon="10.605980157852173">
        <ele>0</ele>
        <time>2010-01-02T21:11:25Z</time>
      </trkpt>
      <trkpt lat="54.166622562333941" lon="10.60597755946219">
        <ele>0</ele>
        <time>2010-01-02T21:11:28Z</time>
      </trkpt>
      <trkpt lat="54.16652038693428" lon="10.605996334925294">
        <ele>0</ele>
        <time>2010-01-02T21:11:32Z</time>
      </trkpt>
      <trkpt lat="54.166453164070845" lon="10.606009243056178">
        <ele>0</ele>
        <time>2010-01-02T21:11:34Z</time>
      </trkpt>
      <trkpt lat="54.166272366419435" lon="10.606070514768362">
        <ele>0</ele>
        <time>2010-01-02T21:11:42Z</time>
      </trkpt>
      <trkpt lat="54.16606592014432" lon="10.606166236102581">
        <ele>0</ele>
        <time>2010-01-02T21:11:50Z</time>
      </trkpt>
      <trkpt lat="54.16593985632062" lon="10.606224071234465">
        <ele>0</ele>
        <time>2010-01-02T21:11:56Z</time>
      </trkpt>
      <trkpt lat="54.165866263210773" lon="10.606268160045147">
        <ele>0</ele>
        <time>2010-01-02T21:11:59Z</time>
      </trkpt>
      <trkpt lat="54.165777498856187" lon="10.606321385130286">
        <ele>0</ele>
        <time>2010-01-02T21:12:03Z</time>
      </trkpt>
      <trkpt lat="54.165611453354359" lon="10.606412747874856">
        <ele>0</ele>
        <time>2010-01-02T21:12:10Z</time>
      </trkpt>
      <trkpt lat="54.165430990979075" lon="10.606504529714584">
        <ele>0</ele>
        <time>2010-01-02T21:12:17Z</time>
      </trkpt>
      <trkpt lat="54.165219180285931" lon="10.606598909944296">
        <ele>0</ele>
        <time>2010-01-02T21:12:26Z</time>
      </trkpt>
      <trkpt lat="54.16501977480948" lon="10.606686752289534">
        <ele>0</ele>
        <time>2010-01-02T21:12:34Z</time>
      </trkpt>
      <trkpt lat="54.164866888895631" lon="10.606748526915908">
        <ele>0</ele>
        <time>2010-01-02T21:12:40Z</time>
      </trkpt>
      <trkpt lat="54.164770245552063" lon="10.606783898547292">
        <ele>0</ele>
        <time>2010-01-02T21:12:44Z</time>
      </trkpt>
      <trkpt lat="54.164672093465924" lon="10.606843912974">
        <ele>0</ele>
        <time>2010-01-02T21:12:48Z</time>
      </trkpt>
      <trkpt lat="54.16457218118012" lon="10.60690694488585">
        <ele>0</ele>
        <time>2010-01-02T21:12:53Z</time>
      </trkpt>
      <trkpt lat="54.164481991901994" lon="10.606957487761974">
        <ele>0</ele>
        <time>2010-01-02T21:12:57Z</time>
      </trkpt>
      <trkpt lat="54.164407392963767" lon="10.607027309015393">
        <ele>0</ele>
        <time>2010-01-02T21:13:00Z</time>
      </trkpt>
      <trkpt lat="54.164329273626208" lon="10.60711263678968">
        <ele>0</ele>
        <time>2010-01-02T21:13:04Z</time>
      </trkpt>
      <trkpt lat="54.164223158732057" lon="10.607260158285499">
        <ele>0</ele>
        <time>2010-01-02T21:13:09Z</time>
      </trkpt>
      <trkpt lat="54.164133220911026" lon="10.607410110533237">
        <ele>0</ele>
        <time>2010-01-02T21:13:14Z</time>
      </trkpt>
      <trkpt lat="54.164028530940413" lon="10.607595853507519">
        <ele>0</ele>
        <time>2010-01-02T21:13:20Z</time>
      </trkpt>
      <trkpt lat="54.163912190124393" lon="10.607794169336557">
        <ele>0</ele>
        <time>2010-01-02T21:13:27Z</time>
      </trkpt>
      <trkpt lat="54.163814289495349" lon="10.607950575649738">
        <ele>0</ele>
        <time>2010-01-02T21:13:32Z</time>
      </trkpt>
      <trkpt lat="54.163713287562132" lon="10.608077980577946">
        <ele>0</ele>
        <time>2010-01-02T21:13:37Z</time>
      </trkpt>
      <trkpt lat="54.163632653653622" lon="10.608177138492465">
        <ele>0</ele>
        <time>2010-01-02T21:13:41Z</time>
      </trkpt>
      <trkpt lat="54.163556210696697" lon="10.608245618641376">
        <ele>0</ele>
        <time>2010-01-02T21:13:45Z</time>
      </trkpt>
      <trkpt lat="54.163498459383845" lon="10.608221478760242">
        <ele>0</ele>
        <time>2010-01-02T21:13:47Z</time>
      </trkpt>
      <trkpt lat="54.163441965356469" lon="10.608235644176602">
        <ele>0</ele>
        <time>2010-01-02T21:13:49Z</time>
      </trkpt>
      <trkpt lat="54.163223784416914" lon="10.608325665816665">
        <ele>0</ele>
        <time>2010-01-02T21:13:58Z</time>
      </trkpt>
      <trkpt lat="54.163178941234946" lon="10.608334802091122">
        <ele>0</ele>
        <time>2010-01-02T21:14:00Z</time>
      </trkpt>
      <trkpt lat="54.163101492449641" lon="10.60832055285573">
        <ele>0</ele>
        <time>2010-01-02T21:14:03Z</time>
      </trkpt>
      <trkpt lat="54.16271198540926" lon="10.608200440183282">
        <ele>0</ele>
        <time>2010-01-02T21:14:19Z</time>
      </trkpt>
      <trkpt lat="54.162656916305423" lon="10.608177725225687">
        <ele>0</ele>
        <time>2010-01-02T21:14:21Z</time>
      </trkpt>
      <trkpt lat="54.162618778645992" lon="10.608161548152566">
        <ele>0</ele>
        <time>2010-01-02T21:14:23Z</time>
      </trkpt>
      <trkpt lat="54.162479052320123" lon="10.608102539554238">
        <ele>0</ele>
        <time>2010-01-02T21:14:29Z</time>
      </trkpt>
      <trkpt lat="54.162315856665373" lon="10.608049901202321">
        <ele>0</ele>
        <time>2010-01-02T21:14:35Z</time>
      </trkpt>
      <trkpt lat="54.162218375131488" lon="10.608017966151237">
        <ele>0</ele>
        <time>2010-01-02T21:14:39Z</time>
      </trkpt>
      <trkpt lat="54.16215693578124" lon="10.607987875118852">
        <ele>0</ele>
        <time>2010-01-02T21:14:42Z</time>
      </trkpt>
      <trkpt lat="54.162076385691762" lon="10.6079369969666">
        <ele>0</ele>
        <time>2010-01-02T21:14:45Z</time>
      </trkpt>
      <trkpt lat="54.161916123703122" lon="10.607830546796322">
        <ele>0</ele>
        <time>2010-01-02T21:14:52Z</time>
      </trkpt>
      <trkpt lat="54.16185007430613" lon="10.60778989456594">
        <ele>0</ele>
        <time>2010-01-02T21:14:55Z</time>
      </trkpt>
      <trkpt lat="54.161804057657719" lon="10.607768520712852">
        <ele>0</ele>
        <time>2010-01-02T21:14:57Z</time>
      </trkpt>
      <trkpt lat="54.16172644123435" lon="10.607745051383972">
        <ele>0</ele>
        <time>2010-01-02T21:15:00Z</time>
      </trkpt>
      <trkpt lat="54.161565508693457" lon="10.607730550691485">
        <ele>0</ele>
        <time>2010-01-02T21:15:06Z</time>
      </trkpt>
      <trkpt lat="54.161407928913832" lon="10.607703728601336">
        <ele>0</ele>
        <time>2010-01-02T21:15:13Z</time>
      </trkpt>
      <trkpt lat="54.16130525059998" lon="10.607682690024376">
        <ele>0</ele>
        <time>2010-01-02T21:15:17Z</time>
      </trkpt>
      <trkpt lat="54.161173822358251" lon="10.607659472152591">
        <ele>0</ele>
        <time>2010-01-02T21:15:22Z</time>
      </trkpt>
      <trkpt lat="54.161059409379959" lon="10.607635751366615">
        <ele>0</ele>
        <time>2010-01-02T21:15:27Z</time>
      </trkpt>
      <trkpt lat="54.160993862897158" lon="10.607636421918869">
        <ele>0</ele>
        <time>2010-01-02T21:15:29Z</time>
      </trkpt>
      <trkpt lat="54.160906858742237" lon="10.607647066935897">
        <ele>0</ele>
        <time>2010-01-02T21:15:33Z</time>
      </trkpt>
      <trkpt lat="54.160776101052761" lon="10.607683528214693">
        <ele>0</ele>
        <time>2010-01-02T21:15:38Z</time>
      </trkpt>
      <trkpt lat="54.160528080537915" lon="10.607762318104506">
        <ele>0</ele>
        <time>2010-01-02T21:15:48Z</time>
      </trkpt>
      <trkpt lat="54.160368824377656" lon="10.60781822539866">
        <ele>0</ele>
        <time>2010-01-02T21:15:55Z</time>
      </trkpt>
      <trkpt lat="54.160215016454458" lon="10.607880000025034">
        <ele>0</ele>
        <time>2010-01-02T21:16:01Z</time>
      </trkpt>
      <trkpt lat="54.160052323713899" lon="10.607955856248736">
        <ele>0</ele>
        <time>2010-01-02T21:16:08Z</time>
      </trkpt>
      <trkpt lat="54.159861216321588" lon="10.608054175972939">
        <ele>0</ele>
        <time>2010-01-02T21:16:16Z</time>
      </trkpt>
      <trkpt lat="54.15969274006784" lon="10.608174623921514">
        <ele>0</ele>
        <time>2010-01-02T21:16:23Z</time>
      </trkpt>
      <trkpt lat="54.159594085067511" lon="10.608265232294798">
        <ele>0</ele>
        <time>2010-01-02T21:16:28Z</time>
      </trkpt>
      <trkpt lat="54.159535327926278" lon="10.608314601704478">
        <ele>0</ele>
        <time>2010-01-02T21:16:30Z</time>
      </trkpt>
      <trkpt lat="54.159496184438467" lon="10.608348129317164">
        <ele>0</ele>
        <time>2010-01-02T21:16:32Z</time>
      </trkpt>
      <trkpt lat="54.159466847777367" lon="10.608370508998632">
        <ele>0</ele>
        <time>2010-01-02T21:16:33Z</time>
      </trkpt>
      <trkpt lat="54.15945528075099" lon="10.608381656929851">
        <ele>0</ele>
        <time>2010-01-02T21:16:34Z</time>
      </trkpt>
      <trkpt lat="54.159437343478203" lon="10.608389871194959">
        <ele>0</ele>
        <time>2010-01-02T21:16:35Z</time>
      </trkpt>
      <trkpt lat="54.159404234960675" lon="10.608398672193289">
        <ele>0</ele>
        <time>2010-01-02T21:16:36Z</time>
      </trkpt>
      <trkpt lat="54.15936928242445" lon="10.608402863144875">
        <ele>0</ele>
        <time>2010-01-02T21:16:37Z</time>
      </trkpt>
      <trkpt lat="54.159317146986723" lon="10.608401522040367">
        <ele>0</ele>
        <time>2010-01-02T21:16:40Z</time>
      </trkpt>
      <trkpt lat="54.159221509471536" lon="10.608369586989284">
        <ele>0</ele>
        <time>2010-01-02T21:16:43Z</time>
      </trkpt>
      <trkpt lat="54.159095026552677" lon="10.608310997486115">
        <ele>0</ele>
        <time>2010-01-02T21:16:49Z</time>
      </trkpt>
      <trkpt lat="54.158972064033151" lon="10.608243187889457">
        <ele>0</ele>
        <time>2010-01-02T21:16:54Z</time>
      </trkpt>
      <trkpt lat="54.158853543922305" lon="10.60816909186542">
        <ele>0</ele>
        <time>2010-01-02T21:16:59Z</time>
      </trkpt>
      <trkpt lat="54.15879663079977" lon="10.608146544545889">
        <ele>0</ele>
        <time>2010-01-02T21:17:01Z</time>
      </trkpt>
      <trkpt lat="54.158712141215801" lon="10.608140174299479">
        <ele>0</ele>
        <time>2010-01-02T21:17:05Z</time>
      </trkpt>
      <trkpt lat="54.158588005229831" lon="10.608130535110831">
        <ele>0</ele>
        <time>2010-01-02T21:17:10Z</time>
      </trkpt>
      <trkpt lat="54.158542072400451" lon="10.608121398836374">
        <ele>0</ele>
        <time>2010-01-02T21:17:11Z</time>
      </trkpt>
      <trkpt lat="54.158491529524326" lon="10.608104718849063">
        <ele>0</ele>
        <time>2010-01-02T21:17:13Z</time>
      </trkpt>
      <trkpt lat="54.158441741019487" lon="10.608068089932203">
        <ele>0</ele>
        <time>2010-01-02T21:17:16Z</time>
      </trkpt>
      <trkpt lat="54.158400753512979" lon="10.60802198946476">
        <ele>0</ele>
        <time>2010-01-02T21:17:18Z</time>
      </trkpt>
      <trkpt lat="54.158254908397794" lon="10.607915120199323">
        <ele>0</ele>
        <time>2010-01-02T21:17:24Z</time>
      </trkpt>
      <trkpt lat="54.158111913129687" lon="10.607829624786973">
        <ele>0</ele>
        <time>2010-01-02T21:17:30Z</time>
      </trkpt>
      <trkpt lat="54.15792440995574" lon="10.607773130759597">
        <ele>0</ele>
        <time>2010-01-02T21:17:38Z</time>
      </trkpt>
      <trkpt lat="54.157746797427535" lon="10.607724012807012">
        <ele>0</ele>
        <time>2010-01-02T21:17:45Z</time>
      </trkpt>
      <trkpt lat="54.157544374465942" lon="10.607703225687146">
        <ele>0</ele>
        <time>2010-01-02T21:17:53Z</time>
      </trkpt>
      <trkpt lat="54.157309597358108" lon="10.607678918167949">
        <ele>0</ele>
        <time>2010-01-02T21:18:02Z</time>
      </trkpt>
      <trkpt lat="54.157238770276308" lon="10.607692077755928">
        <ele>0</ele>
        <time>2010-01-02T21:18:05Z</time>
      </trkpt>
      <trkpt lat="54.157133912667632" lon="10.607713954523206">
        <ele>0</ele>
        <time>2010-01-02T21:18:09Z</time>
      </trkpt>
      <trkpt lat="54.157053278759122" lon="10.607730383053422">
        <ele>0</ele>
        <time>2010-01-02T21:18:13Z</time>
      </trkpt>
      <trkpt lat="54.156856639310718" lon="10.607824260368943">
        <ele>0</ele>
        <time>2010-01-02T21:18:21Z</time>
      </trkpt>
      <trkpt lat="54.156727138906717" lon="10.607891399413347">
        <ele>0</ele>
        <time>2010-01-02T21:18:26Z</time>
      </trkpt>
      <trkpt lat="54.156638458371162" lon="10.607912689447403">
        <ele>0</ele>
        <time>2010-01-02T21:18:30Z</time>
      </trkpt>
      <trkpt lat="54.156564110890031" lon="10.607929034158587">
        <ele>0</ele>
        <time>2010-01-02T21:18:33Z</time>
      </trkpt>
      <trkpt lat="54.156446428969502" lon="10.60793599113822">
        <ele>0</ele>
        <time>2010-01-02T21:18:38Z</time>
      </trkpt>
      <trkpt lat="54.156299829483032" lon="10.607922580093145">
        <ele>0</ele>
        <time>2010-01-02T21:18:43Z</time>
      </trkpt>
      <trkpt lat="54.156186422333121" lon="10.607904894277453">
        <ele>0</ele>
        <time>2010-01-02T21:18:48Z</time>
      </trkpt>
      <trkpt lat="54.155947202816606" lon="10.60781043022871">
        <ele>0</ele>
        <time>2010-01-02T21:18:58Z</time>
      </trkpt>
      <trkpt lat="54.155723238363862" lon="10.607707668095827">
        <ele>0</ele>
        <time>2010-01-02T21:19:07Z</time>
      </trkpt>
      <trkpt lat="54.155493658035994" lon="10.607591411098838">
        <ele>0</ele>
        <time>2010-01-02T21:19:17Z</time>
      </trkpt>
      <trkpt lat="54.155453257262707" lon="10.607903469353914">
        <ele>0</ele>
        <time>2010-01-02T21:19:24Z</time>
      </trkpt>
      <trkpt lat="54.155362984165549" lon="10.60856781899929">
        <ele>0</ele>
        <time>2010-01-02T21:19:40Z</time>
      </trkpt>
      <trkpt lat="54.155267849564552" lon="10.609203251078725">
        <ele>0</ele>
        <time>2010-01-02T21:19:56Z</time>
      </trkpt>
      <trkpt lat="54.155960362404585" lon="10.609570378437638">
        <ele>0</ele>
        <time>2010-01-02T21:20:25Z</time>
      </trkpt>
      <trkpt lat="54.155914010480046" lon="10.609910264611244">
        <ele>0</ele>
        <time>2010-01-02T21:20:33Z</time>
      </trkpt>
      <trkpt lat="54.155854918062687" lon="10.610550558194518">
        <ele>0</ele>
        <time>2010-01-02T21:20:48Z</time>
      </trkpt>
      <trkpt lat="54.15581401437521" lon="10.611060177907348">
        <ele>0</ele>
        <time>2010-01-02T21:21:00Z</time>
      </trkpt>
      <trkpt lat="54.155773194506764" lon="10.611491678282619">
        <ele>0</ele>
        <time>2010-01-02T21:21:10Z</time>
      </trkpt>
      <trkpt lat="54.155748300254345" lon="10.61166862025857">
        <ele>0</ele>
        <time>2010-01-02T21:21:15Z</time>
      </trkpt>
      <trkpt lat="54.155721813440323" lon="10.611791918054223">
        <ele>0</ele>
        <time>2010-01-02T21:21:18Z</time>
      </trkpt>
      <trkpt lat="54.155685435980558" lon="10.61190951615572">
        <ele>0</ele>
        <time>2010-01-02T21:21:21Z</time>
      </trkpt>
      <trkpt lat="54.155616955831647" lon="10.612044967710972">
        <ele>0</ele>
        <time>2010-01-02T21:21:25Z</time>
      </trkpt>
      <trkpt lat="54.155559623613954" lon="10.612138761207461">
        <ele>0</ele>
        <time>2010-01-02T21:21:28Z</time>
      </trkpt>
      <trkpt lat="54.155488209798932" lon="10.612255940213799">
        <ele>0</ele>
        <time>2010-01-02T21:21:32Z</time>
      </trkpt>
      <trkpt lat="54.155281679704785" lon="10.612579733133316">
        <ele>0</ele>
        <time>2010-01-02T21:21:43Z</time>
      </trkpt>
      <trkpt lat="54.155116304755211" lon="10.612811828032136">
        <ele>0</ele>
        <time>2010-01-02T21:21:52Z</time>
      </trkpt>
      <trkpt lat="54.15496576577425" lon="10.612998995929956">
        <ele>0</ele>
        <time>2010-01-02T21:21:59Z</time>
      </trkpt>
      <trkpt lat="54.154717912897468" lon="10.61332412995398">
        <ele>0</ele>
        <time>2010-01-02T21:22:12Z</time>
      </trkpt>
      <trkpt lat="54.154644068330526" lon="10.613468969240785">
        <ele>0</ele>
        <time>2010-01-02T21:22:16Z</time>
      </trkpt>
      <trkpt lat="54.154578521847725" lon="10.613624285906553">
        <ele>0</ele>
        <time>2010-01-02T21:22:21Z</time>
      </trkpt>
      <trkpt lat="54.154523955658078" lon="10.613800557330251">
        <ele>0</ele>
        <time>2010-01-02T21:22:26Z</time>
      </trkpt>
      <trkpt lat="54.154454302042723" lon="10.614155028015375">
        <ele>0</ele>
        <time>2010-01-02T21:22:34Z</time>
      </trkpt>
      <trkpt lat="54.154494535177946" lon="10.614367928355932">
        <ele>0</ele>
        <time>2010-01-02T21:22:40Z</time>
      </trkpt>
      <trkpt lat="54.154548430815339" lon="10.61468300409615">
        <ele>0</ele>
        <time>2010-01-02T21:22:47Z</time>
      </trkpt>
      <trkpt lat="54.154602577909827" lon="10.615014927461743">
        <ele>0</ele>
        <time>2010-01-02T21:22:55Z</time>
      </trkpt>
      <trkpt lat="54.154621353372931" lon="10.615240819752216">
        <ele>0</ele>
        <time>2010-01-02T21:23:01Z</time>
      </trkpt>
      <trkpt lat="54.154641469940543" lon="10.615509627386928">
        <ele>0</ele>
        <time>2010-01-02T21:23:07Z</time>
      </trkpt>
      <trkpt lat="54.154684050008655" lon="10.616164840757847">
        <ele>0</ele>
        <time>2010-01-02T21:23:22Z</time>
      </trkpt>
      <trkpt lat="54.154546335339546" lon="10.615982702001929">
        <ele>0</ele>
        <time>2010-01-02T21:23:29Z</time>
      </trkpt>
      <trkpt lat="54.154444746673107" lon="10.615825373679399">
        <ele>0</ele>
        <time>2010-01-02T21:23:35Z</time>
      </trkpt>
      <trkpt lat="54.154390767216682" lon="10.615739962086082">
        <ele>0</ele>
        <time>2010-01-02T21:23:38Z</time>
      </trkpt>
      <trkpt lat="54.154151799157262" lon="10.615352969616652">
        <ele>0</ele>
        <time>2010-01-02T21:23:51Z</time>
      </trkpt>
      <trkpt lat="54.154089270159602" lon="10.615307623520494">
        <ele>0</ele>
        <time>2010-01-02T21:23:54Z</time>
      </trkpt>
      <trkpt lat="54.154058760032058" lon="10.61530401930213">
        <ele>0</ele>
        <time>2010-01-02T21:23:55Z</time>
      </trkpt>
      <trkpt lat="54.154032105579972" lon="10.615335535258055">
        <ele>0</ele>
        <time>2010-01-02T21:23:56Z</time>
      </trkpt>
      <trkpt lat="54.153998410329223" lon="10.615374930202961">
        <ele>0</ele>
        <time>2010-01-02T21:23:58Z</time>
      </trkpt>
      <trkpt lat="54.153920039534569" lon="10.615507615730166">
        <ele>0</ele>
        <time>2010-01-02T21:24:02Z</time>
      </trkpt>
      <trkpt lat="54.153848458081484" lon="10.615615658462048">
        <ele>0</ele>
        <time>2010-01-02T21:24:06Z</time>
      </trkpt>
      <trkpt lat="54.153791628777981" lon="10.615675756707788">
        <ele>0</ele>
        <time>2010-01-02T21:24:09Z</time>
      </trkpt>
      <trkpt lat="54.153731530532241" lon="10.61567927710712">
        <ele>0</ele>
        <time>2010-01-02T21:24:11Z</time>
      </trkpt>
      <trkpt lat="54.153622649610043" lon="10.615586489439011">
        <ele>0</ele>
        <time>2010-01-02T21:24:16Z</time>
      </trkpt>
      <trkpt lat="54.153529359027743" lon="10.615522200241685">
        <ele>0</ele>
        <time>2010-01-02T21:24:20Z</time>
      </trkpt>
      <trkpt lat="54.153372617438436" lon="10.615411140024662">
        <ele>0</ele>
        <time>2010-01-02T21:24:27Z</time>
      </trkpt>
      <trkpt lat="54.153118478134274" lon="10.615191534161568">
        <ele>0</ele>
        <time>2010-01-02T21:24:38Z</time>
      </trkpt>
      <trkpt lat="54.152839779853821" lon="10.614943681284785">
        <ele>0</ele>
        <time>2010-01-02T21:24:51Z</time>
      </trkpt>
      <trkpt lat="54.152375841513276" lon="10.614597927778959">
        <ele>0</ele>
        <time>2010-01-02T21:25:11Z</time>
      </trkpt>
      <trkpt lat="54.152230499312282" lon="10.614541517570615">
        <ele>0</ele>
        <time>2010-01-02T21:25:17Z</time>
      </trkpt>
      <trkpt lat="54.152137292549014" lon="10.614484939724207">
        <ele>0</ele>
        <time>2010-01-02T21:25:21Z</time>
      </trkpt>
      <trkpt lat="54.152032854035497" lon="10.61438737437129">
        <ele>0</ele>
        <time>2010-01-02T21:25:26Z</time>
      </trkpt>
      <trkpt lat="54.151910394430161" lon="10.614282768219709">
        <ele>0</ele>
        <time>2010-01-02T21:25:31Z</time>
      </trkpt>
      <trkpt lat="54.151825737208128" lon="10.614190734922886">
        <ele>0</ele>
        <time>2010-01-02T21:25:35Z</time>
      </trkpt>
      <trkpt lat="54.151747617870569" lon="10.614115297794342">
        <ele>0</ele>
        <time>2010-01-02T21:25:39Z</time>
      </trkpt>
      <trkpt lat="54.151644939556718" lon="10.614013122394681">
        <ele>0</ele>
        <time>2010-01-02T21:25:44Z</time>
      </trkpt>
      <trkpt lat="54.15158006362617" lon="10.613999962806702">
        <ele>0</ele>
        <time>2010-01-02T21:25:46Z</time>
      </trkpt>
      <trkpt lat="54.151502698659897" lon="10.613990239799023">
        <ele>0</ele>
        <time>2010-01-02T21:25:49Z</time>
      </trkpt>
      <trkpt lat="54.151381496340036" lon="10.614000465720892">
        <ele>0</ele>
        <time>2010-01-02T21:25:54Z</time>
      </trkpt>
      <trkpt lat="54.151134816929698" lon="10.614036256447434">
        <ele>0</ele>
        <time>2010-01-02T21:26:04Z</time>
      </trkpt>
      <trkpt lat="54.150830889120698" lon="10.614090738818049">
        <ele>0</ele>
        <time>2010-01-02T21:26:16Z</time>
      </trkpt>
      <trkpt lat="54.150396371260285" lon="10.614126697182655">
        <ele>0</ele>
        <time>2010-01-02T21:26:34Z</time>
      </trkpt>
      <trkpt lat="54.150172909721732" lon="10.614146394655108">
        <ele>0</ele>
        <time>2010-01-02T21:26:43Z</time>
      </trkpt>
      <trkpt lat="54.15010929107666" lon="10.614160811528563">
        <ele>0</ele>
        <time>2010-01-02T21:26:45Z</time>
      </trkpt>
      <trkpt lat="54.150084061548114" lon="10.614155530929565">
        <ele>0</ele>
        <time>2010-01-02T21:26:46Z</time>
      </trkpt>
      <trkpt lat="54.150045923888683" lon="10.614118482917547">
        <ele>0</ele>
        <time>2010-01-02T21:26:48Z</time>
      </trkpt>
      <trkpt lat="54.149935785681009" lon="10.614919792860746">
        <ele>0</ele>
        <time>2010-01-02T21:27:07Z</time>
      </trkpt>
      <trkpt lat="54.149902928620577" lon="10.614936221390963">
        <ele>0</ele>
        <time>2010-01-02T21:27:09Z</time>
      </trkpt>
      <trkpt lat="54.149815421551466" lon="10.614933287724853">
        <ele>0</ele>
        <time>2010-01-02T21:27:12Z</time>
      </trkpt>
      <trkpt lat="54.149434128776193" lon="10.614920295774937">
        <ele>0</ele>
        <time>2010-01-02T21:27:28Z</time>
      </trkpt>
      <trkpt lat="54.149358356371522" lon="10.614910321310163">
        <ele>0</ele>
        <time>2010-01-02T21:27:31Z</time>
      </trkpt>
      <trkpt lat="54.149292726069689" lon="10.614901604130864">
        <ele>0</ele>
        <time>2010-01-02T21:27:33Z</time>
      </trkpt>
      <trkpt lat="54.148824764415622" lon="10.614889534190297">
        <ele>0</ele>
        <time>2010-01-02T21:27:52Z</time>
      </trkpt>
      <trkpt lat="54.148778077214956" lon="10.614881152287126">
        <ele>0</ele>
        <time>2010-01-02T21:27:54Z</time>
      </trkpt>
      <trkpt lat="54.148752680048347" lon="10.614856844767928">
        <ele>0</ele>
        <time>2010-01-02T21:27:55Z</time>
      </trkpt>
      <trkpt lat="54.148741783574224" lon="10.614806720986962">
        <ele>0</ele>
        <time>2010-01-02T21:27:56Z</time>
      </trkpt>
      <trkpt lat="54.148733820766211" lon="10.614714436233044">
        <ele>0</ele>
        <time>2010-01-02T21:27:59Z</time>
      </trkpt>
      <trkpt lat="54.14872501976788" lon="10.614545708522201">
        <ele>0</ele>
        <time>2010-01-02T21:28:02Z</time>
      </trkpt>
      <trkpt lat="54.148712027817965" lon="10.614442862570286">
        <ele>0</ele>
        <time>2010-01-02T21:28:05Z</time>
      </trkpt>
      <trkpt lat="54.148653605952859" lon="10.614320235326886">
        <ele>0</ele>
        <time>2010-01-02T21:28:09Z</time>
      </trkpt>
      <trkpt lat="54.148565344512463" lon="10.614181766286492">
        <ele>0</ele>
        <time>2010-01-02T21:28:13Z</time>
      </trkpt>
      <trkpt lat="54.148359317332506" lon="10.613907594233751">
        <ele>0</ele>
        <time>2010-01-02T21:28:24Z</time>
      </trkpt>
      <trkpt lat="54.148206179961562" lon="10.613608444109559">
        <ele>0</ele>
        <time>2010-01-02T21:28:33Z</time>
      </trkpt>
      <trkpt lat="54.147976599633694" lon="10.613174429163337">
        <ele>0</ele>
        <time>2010-01-02T21:28:47Z</time>
      </trkpt>
      <trkpt lat="54.147739894688129" lon="10.612750723958015">
        <ele>0</ele>
        <time>2010-01-02T21:29:01Z</time>
      </trkpt>
      <trkpt lat="54.147533448413014" lon="10.612382590770721">
        <ele>0</ele>
        <time>2010-01-02T21:29:13Z</time>
      </trkpt>
      <trkpt lat="54.147213259711862" lon="10.612969575449824">
        <ele>0</ele>
        <time>2010-01-02T21:29:31Z</time>
      </trkpt>
      <trkpt lat="54.147024918347597" lon="10.613314909860492">
        <ele>0</ele>
        <time>2010-01-02T21:29:42Z</time>
      </trkpt>
      <trkpt lat="54.146427791565657" lon="10.614391313865781">
        <ele>0</ele>
        <time>2010-01-02T21:30:17Z</time>
      </trkpt>
      <trkpt lat="54.146318407729268" lon="10.614575715735555">
        <ele>0</ele>
        <time>2010-01-02T21:30:23Z</time>
      </trkpt>
      <trkpt lat="54.146276917308569" lon="10.614632293581963">
        <ele>0</ele>
        <time>2010-01-02T21:30:26Z</time>
      </trkpt>
      <trkpt lat="54.146220590919256" lon="10.614680573344231">
        <ele>0</ele>
        <time>2010-01-02T21:30:28Z</time>
      </trkpt>
      <trkpt lat="54.146182285621762" lon="10.614688117057085">
        <ele>0</ele>
        <time>2010-01-02T21:30:30Z</time>
      </trkpt>
      <trkpt lat="54.146131910383701" lon="10.614673616364598">
        <ele>0</ele>
        <time>2010-01-02T21:30:32Z</time>
      </trkpt>
      <trkpt lat="54.145860001444817" lon="10.614526094868779">
        <ele>0</ele>
        <time>2010-01-02T21:30:43Z</time>
      </trkpt>
      <trkpt lat="54.145626984536648" lon="10.614422159269452">
        <ele>0</ele>
        <time>2010-01-02T21:30:53Z</time>
      </trkpt>
      <trkpt lat="54.145617093890905" lon="10.614417884498835">
        <ele>0</ele>
        <time>2010-01-02T21:30:53Z</time>
      </trkpt>
      <trkpt lat="54.145517097786069" lon="10.614393660798669">
        <ele>0</ele>
        <time>2010-01-02T21:30:57Z</time>
      </trkpt>
      <trkpt lat="54.145423471927643" lon="10.614383015781641">
        <ele>0</ele>
        <time>2010-01-02T21:31:01Z</time>
      </trkpt>
      <trkpt lat="54.14534610696137" lon="10.614371867850423">
        <ele>0</ele>
        <time>2010-01-02T21:31:04Z</time>
      </trkpt>
      <trkpt lat="54.145242339000106" lon="10.614332472905517">
        <ele>0</ele>
        <time>2010-01-02T21:31:08Z</time>
      </trkpt>
      <trkpt lat="54.145084759220481" lon="10.614227531477809">
        <ele>0</ele>
        <time>2010-01-02T21:31:15Z</time>
      </trkpt>
      <trkpt lat="54.144934136420488" lon="10.614172881469131">
        <ele>0</ele>
        <time>2010-01-02T21:31:21Z</time>
      </trkpt>
      <trkpt lat="54.144836151972413" lon="10.614174641668797">
        <ele>0</ele>
        <time>2010-01-02T21:31:25Z</time>
      </trkpt>
      <trkpt lat="54.144735652953386" lon="10.614182520657778">
        <ele>0</ele>
        <time>2010-01-02T21:31:29Z</time>
      </trkpt>
      <trkpt lat="54.144668513908982" lon="10.614201631397009">
        <ele>0</ele>
        <time>2010-01-02T21:31:32Z</time>
      </trkpt>
      <trkpt lat="54.144557621330023" lon="10.614171708002687">
        <ele>0</ele>
        <time>2010-01-02T21:31:36Z</time>
      </trkpt>
      <trkpt lat="54.144409345462918" lon="10.614092415198684">
        <ele>0</ele>
        <time>2010-01-02T21:31:43Z</time>
      </trkpt>
      <trkpt lat="54.144255369901657" lon="10.613984288647771">
        <ele>0</ele>
        <time>2010-01-02T21:31:49Z</time>
      </trkpt>
      <trkpt lat="54.144074572250247" lon="10.613814387470484">
        <ele>0</ele>
        <time>2010-01-02T21:31:58Z</time>
      </trkpt>
      <trkpt lat="54.143931157886982" lon="10.613686060532928">
        <ele>0</ele>
        <time>2010-01-02T21:32:04Z</time>
      </trkpt>
      <trkpt lat="54.143826132640243" lon="10.613616071641445">
        <ele>0</ele>
        <time>2010-01-02T21:32:08Z</time>
      </trkpt>
      <trkpt lat="54.143734015524387" lon="10.613571731373668">
        <ele>0</ele>
        <time>2010-01-02T21:32:12Z</time>
      </trkpt>
      <trkpt lat="54.143642820417881" lon="10.613533426076174">
        <ele>0</ele>
        <time>2010-01-02T21:32:16Z</time>
      </trkpt>
      <trkpt lat="54.143575262278318" lon="10.613521942868829">
        <ele>0</ele>
        <time>2010-01-02T21:32:19Z</time>
      </trkpt>
      <trkpt lat="54.143501417711377" lon="10.613509118556976">
        <ele>0</ele>
        <time>2010-01-02T21:32:22Z</time>
      </trkpt>
      <trkpt lat="54.143492449074984" lon="10.613507861271501">
        <ele>0</ele>
        <time>2010-01-02T21:32:22Z</time>
      </trkpt>
      <trkpt lat="54.143306789919734" lon="10.613538539037108">
        <ele>0</ele>
        <time>2010-01-02T21:32:30Z</time>
      </trkpt>
      <trkpt lat="54.143159184604883" lon="10.613592434674501">
        <ele>0</ele>
        <time>2010-01-02T21:32:36Z</time>
      </trkpt>
      <trkpt lat="54.143121633678675" lon="10.613605929538608">
        <ele>0</ele>
        <time>2010-01-02T21:32:37Z</time>
      </trkpt>
      <trkpt lat="54.142796164378524" lon="10.614117980003357">
        <ele>0</ele>
        <time>2010-01-02T21:32:55Z</time>
      </trkpt>
      <trkpt lat="54.142597764730453" lon="10.614509666338563">
        <ele>0</ele>
        <time>2010-01-02T21:33:07Z</time>
      </trkpt>
      <trkpt lat="54.142439514398575" lon="10.614996906369925">
        <ele>0</ele>
        <time>2010-01-02T21:33:20Z</time>
      </trkpt>
      <trkpt lat="54.142260476946831" lon="10.615448104217649">
        <ele>0</ele>
        <time>2010-01-02T21:33:33Z</time>
      </trkpt>
      <trkpt lat="54.141705427318811" lon="10.615939451381564">
        <ele>0</ele>
        <time>2010-01-02T21:33:58Z</time>
      </trkpt>
      <trkpt lat="54.141237800940871" lon="10.61636826954782">
        <ele>0</ele>
        <time>2010-01-02T21:34:19Z</time>
      </trkpt>
      <trkpt lat="54.140534643083811" lon="10.617028260603547">
        <ele>0</ele>
        <time>2010-01-02T21:34:51Z</time>
      </trkpt>
      <trkpt lat="54.140420481562614" lon="10.617121132090688">
        <ele>0</ele>
        <time>2010-01-02T21:34:56Z</time>
      </trkpt>
      <trkpt lat="54.140128791332245" lon="10.617366218939424">
        <ele>0</ele>
        <time>2010-01-02T21:35:09Z</time>
      </trkpt>
      <trkpt lat="54.139892924576998" lon="10.617635697126389">
        <ele>0</ele>
        <time>2010-01-02T21:35:21Z</time>
      </trkpt>
      <trkpt lat="54.139796951785684" lon="10.617808783426881">
        <ele>0</ele>
        <time>2010-01-02T21:35:26Z</time>
      </trkpt>
      <trkpt lat="54.139565611258149" lon="10.617302348837256">
        <ele>0</ele>
        <time>2010-01-02T21:35:41Z</time>
      </trkpt>
      <trkpt lat="54.139460250735283" lon="10.617045694962144">
        <ele>0</ele>
        <time>2010-01-02T21:35:49Z</time>
      </trkpt>
      <trkpt lat="54.13938095793128" lon="10.616870848461986">
        <ele>0</ele>
        <time>2010-01-02T21:35:54Z</time>
      </trkpt>
      <trkpt lat="54.139336198568344" lon="10.61680655926466">
        <ele>0</ele>
        <time>2010-01-02T21:35:56Z</time>
      </trkpt>
      <trkpt lat="54.139320692047477" lon="10.61678409576416">
        <ele>0</ele>
        <time>2010-01-02T21:35:57Z</time>
      </trkpt>
      <trkpt lat="54.13928079418838" lon="10.616754842922091">
        <ele>0</ele>
        <time>2010-01-02T21:35:59Z</time>
      </trkpt>
      <trkpt lat="54.139210972934961" lon="10.616697426885366">
        <ele>0</ele>
        <time>2010-01-02T21:36:02Z</time>
      </trkpt>
      <trkpt lat="54.139115586876869" lon="10.616682255640626">
        <ele>0</ele>
        <time>2010-01-02T21:36:06Z</time>
      </trkpt>
      <trkpt lat="54.139028079807758" lon="10.616732630878687">
        <ele>0</ele>
        <time>2010-01-02T21:36:09Z</time>
      </trkpt>
      <trkpt lat="54.138852395117283" lon="10.616832291707397">
        <ele>0</ele>
        <time>2010-01-02T21:36:17Z</time>
      </trkpt>
      <trkpt lat="54.138635471463203" lon="10.616970676928759">
        <ele>0</ele>
        <time>2010-01-02T21:36:26Z</time>
      </trkpt>
      <trkpt lat="54.138593310490251" lon="10.617051646113396">
        <ele>0</ele>
        <time>2010-01-02T21:36:29Z</time>
      </trkpt>
      <trkpt lat="54.138553831726313" lon="10.61721358448267">
        <ele>0</ele>
        <time>2010-01-02T21:36:33Z</time>
      </trkpt>
      <trkpt lat="54.138527177274227" lon="10.617398070171475">
        <ele>0</ele>
        <time>2010-01-02T21:36:37Z</time>
      </trkpt>
      <trkpt lat="54.138449477031827" lon="10.617833761498332">
        <ele>0</ele>
        <time>2010-01-02T21:36:48Z</time>
      </trkpt>
      <trkpt lat="54.138343697413802" lon="10.618401886895299">
        <ele>0</ele>
        <time>2010-01-02T21:37:02Z</time>
      </trkpt>
      <trkpt lat="54.138338332995772" lon="10.618457039818168">
        <ele>0</ele>
        <time>2010-01-02T21:37:03Z</time>
      </trkpt>
      <trkpt lat="54.13831721059978" lon="10.61867362819612">
        <ele>0</ele>
        <time>2010-01-02T21:37:08Z</time>
      </trkpt>
      <trkpt lat="54.138290723785758" lon="10.618954505771399">
        <ele>0</ele>
        <time>2010-01-02T21:37:15Z</time>
      </trkpt>
      <trkpt lat="54.138279492035508" lon="10.619072690606117">
        <ele>0</ele>
        <time>2010-01-02T21:37:18Z</time>
      </trkpt>
      <trkpt lat="54.13826591335237" lon="10.619215434417129">
        <ele>0</ele>
        <time>2010-01-02T21:37:21Z</time>
      </trkpt>
      <trkpt lat="54.138259459286928" lon="10.619323896244168">
        <ele>0</ele>
        <time>2010-01-02T21:37:24Z</time>
      </trkpt>
      <trkpt lat="54.138267505913973" lon="10.619378797709942">
        <ele>0</ele>
        <time>2010-01-02T21:37:25Z</time>
      </trkpt>
      <trkpt lat="54.138343697413802" lon="10.619497485458851">
        <ele>0</ele>
        <time>2010-01-02T21:37:29Z</time>
      </trkpt>
      <trkpt lat="54.138200785964727" lon="10.619651461020112">
        <ele>0</ele>
        <time>2010-01-02T21:37:36Z</time>
      </trkpt>
      <trkpt lat="54.138182261958718" lon="10.6195726711303">
        <ele>0</ele>
        <time>2010-01-02T21:37:38Z</time>
      </trkpt>
      <trkpt lat="54.138140436261892" lon="10.619492288678885">
        <ele>0</ele>
        <time>2010-01-02T21:37:41Z</time>
      </trkpt>
      <trkpt lat="54.138083355501294" lon="10.619440823793411">
        <ele>0</ele>
        <time>2010-01-02T21:37:43Z</time>
      </trkpt>
      <trkpt lat="54.138073548674583" lon="10.619443757459521">
        <ele>0</ele>
        <time>2010-01-02T21:37:43Z</time>
      </trkpt>
      <trkpt lat="54.137971121817827" lon="10.61944711022079">
        <ele>0</ele>
        <time>2010-01-02T21:37:48Z</time>
      </trkpt>
      <trkpt lat="54.137820163741708" lon="10.619443003088236">
        <ele>0</ele>
        <time>2010-01-02T21:37:54Z</time>
      </trkpt>
      <trkpt lat="54.137597288936377" lon="10.619442751631141">
        <ele>0</ele>
        <time>2010-01-02T21:38:03Z</time>
      </trkpt>
      <trkpt lat="54.137553116306663" lon="10.61934937722981">
        <ele>0</ele>
        <time>2010-01-02T21:38:05Z</time>
      </trkpt>
      <trkpt lat="54.137507099658251" lon="10.619256002828479">
        <ele>0</ele>
        <time>2010-01-02T21:38:08Z</time>
      </trkpt>
      <trkpt lat="54.13745085708797" lon="10.619207387790084">
        <ele>0</ele>
        <time>2010-01-02T21:38:11Z</time>
      </trkpt>
      <trkpt lat="54.13732873275876" lon="10.619211411103606">
        <ele>0</ele>
        <time>2010-01-02T21:38:16Z</time>
      </trkpt>
      <trkpt lat="54.137248853221536" lon="10.619223229587078">
        <ele>0</ele>
        <time>2010-01-02T21:38:19Z</time>
      </trkpt>
      <trkpt lat="54.137160340324044" lon="10.619255248457193">
        <ele>0</ele>
        <time>2010-01-02T21:38:22Z</time>
      </trkpt>
      <trkpt lat="54.137073755264282" lon="10.619307132437825">
        <ele>0</ele>
        <time>2010-01-02T21:38:26Z</time>
      </trkpt>
      <trkpt lat="54.136982643976808" lon="10.619354490190744">
        <ele>0</ele>
        <time>2010-01-02T21:38:30Z</time>
      </trkpt>
      <trkpt lat="54.136908631771803" lon="10.619399836286902">
        <ele>0</ele>
        <time>2010-01-02T21:38:33Z</time>
      </trkpt>
      <trkpt lat="54.136841408908367" lon="10.619414336979389">
        <ele>0</ele>
        <time>2010-01-02T21:38:36Z</time>
      </trkpt>
      <trkpt lat="54.136793799698353" lon="10.619422048330307">
        <ele>0</ele>
        <time>2010-01-02T21:38:38Z</time>
      </trkpt>
      <trkpt lat="54.136767229065299" lon="10.619426742196083">
        <ele>0</ele>
        <time>2010-01-02T21:38:39Z</time>
      </trkpt>
      <trkpt lat="54.136751722544432" lon="10.61942950822413">
        <ele>0</ele>
        <time>2010-01-02T21:38:39Z</time>
      </trkpt>
      <trkpt lat="54.136682655662298" lon="10.619445601478219">
        <ele>0</ele>
        <time>2010-01-02T21:38:42Z</time>
      </trkpt>
      <trkpt lat="54.136239001527429" lon="10.619457252323627">
        <ele>0</ele>
        <time>2010-01-02T21:39:00Z</time>
      </trkpt>
      <trkpt lat="54.13565662689507" lon="10.619484577327967">
        <ele>0</ele>
        <time>2010-01-02T21:39:23Z</time>
      </trkpt>
      <trkpt lat="54.134952798485756" lon="10.619500083848834">
        <ele>0</ele>
        <time>2010-01-02T21:39:51Z</time>
      </trkpt>
      <trkpt lat="54.134528758004308" lon="10.619525900110602">
        <ele>0</ele>
        <time>2010-01-02T21:40:08Z</time>
      </trkpt>
      <trkpt lat="54.134236313402653" lon="10.619543753564358">
        <ele>0</ele>
        <time>2010-01-02T21:40:20Z</time>
      </trkpt>
      <trkpt lat="54.134145034477115" lon="10.619548447430134">
        <ele>0</ele>
        <time>2010-01-02T21:40:24Z</time>
      </trkpt>
      <trkpt lat="54.133645473048091" lon="10.619574096053839">
        <ele>0</ele>
        <time>2010-01-02T21:40:44Z</time>
      </trkpt>
      <trkpt lat="54.13356282748282" lon="10.619573760777712">
        <ele>0</ele>
        <time>2010-01-02T21:40:47Z</time>
      </trkpt>
      <trkpt lat="54.133501388132572" lon="10.619543669745326">
        <ele>0</ele>
        <time>2010-01-02T21:40:50Z</time>
      </trkpt>
      <trkpt lat="54.133411785587668" lon="10.619493126869202">
        <ele>0</ele>
        <time>2010-01-02T21:40:53Z</time>
      </trkpt>
      <trkpt lat="54.1333566326648" lon="10.619462868198752">
        <ele>0</ele>
        <time>2010-01-02T21:40:56Z</time>
      </trkpt>
      <trkpt lat="54.133296282961965" lon="10.619446439668536">
        <ele>0</ele>
        <time>2010-01-02T21:40:58Z</time>
      </trkpt>
      <trkpt lat="54.133215313777328" lon="10.619438476860523">
        <ele>0</ele>
        <time>2010-01-02T21:41:01Z</time>
      </trkpt>
      <trkpt lat="54.133051112294197" lon="10.619459180161357">
        <ele>0</ele>
        <time>2010-01-02T21:41:08Z</time>
      </trkpt>
      <trkpt lat="54.132840139791369" lon="10.619470831006765">
        <ele>0</ele>
        <time>2010-01-02T21:41:17Z</time>
      </trkpt>
      <trkpt lat="54.132812898606062" lon="10.619684401899576">
        <ele>0</ele>
        <time>2010-01-02T21:41:22Z</time>
      </trkpt>
      <trkpt lat="54.132777443155646" lon="10.61988296918571">
        <ele>0</ele>
        <time>2010-01-02T21:41:27Z</time>
      </trkpt>
      <trkpt lat="54.132726565003395" lon="10.620069801807404">
        <ele>0</ele>
        <time>2010-01-02T21:41:31Z</time>
      </trkpt>
      <trkpt lat="54.132691947743297" lon="10.620182622224092">
        <ele>0</ele>
        <time>2010-01-02T21:41:34Z</time>
      </trkpt>
      <trkpt lat="54.132664119824767" lon="10.620266105979681">
        <ele>0</ele>
        <time>2010-01-02T21:41:37Z</time>
      </trkpt>
      <trkpt lat="54.132727151736617" lon="10.620671035721898">
        <ele>0</ele>
        <time>2010-01-02T21:41:46Z</time>
      </trkpt>
      <trkpt lat="54.132739305496216" lon="10.620869519189">
        <ele>0</ele>
        <time>2010-01-02T21:41:51Z</time>
      </trkpt>
      <trkpt lat="54.132839720696211" lon="10.6215516384691">
        <ele>0</ele>
        <time>2010-01-02T21:42:08Z</time>
      </trkpt>
      <trkpt lat="54.132870985195041" lon="10.621851962059736">
        <ele>0</ele>
        <time>2010-01-02T21:42:15Z</time>
      </trkpt>
      <trkpt lat="54.132976178079844" lon="10.622875057160854">
        <ele>0</ele>
        <time>2010-01-02T21:42:39Z</time>
      </trkpt>
      <trkpt lat="54.133090171962976" lon="10.623734202235937">
        <ele>0</ele>
        <time>2010-01-02T21:43:00Z</time>
      </trkpt>
      <trkpt lat="54.133162340149283" lon="10.624310122802854">
        <ele>0</ele>
        <time>2010-01-02T21:43:14Z</time>
      </trkpt>
      <trkpt lat="54.133177176117897" lon="10.624428978189826">
        <ele>0</ele>
        <time>2010-01-02T21:43:16Z</time>
      </trkpt>
      <trkpt lat="54.133250517770648" lon="10.625344533473253">
        <ele>0</ele>
        <time>2010-01-02T21:43:38Z</time>
      </trkpt>
      <trkpt lat="54.133306005969644" lon="10.626029670238495">
        <ele>0</ele>
        <time>2010-01-02T21:43:54Z</time>
      </trkpt>
      <trkpt lat="54.133412120863795" lon="10.627698423340917">
        <ele>0</ele>
        <time>2010-01-02T21:44:34Z</time>
      </trkpt>
      <trkpt lat="54.133426453918219" lon="10.627925908192992">
        <ele>0</ele>
        <time>2010-01-02T21:44:39Z</time>
      </trkpt>
      <trkpt lat="54.133457886055112" lon="10.628477269783616">
        <ele>0</ele>
        <time>2010-01-02T21:44:52Z</time>
      </trkpt>
      <trkpt lat="54.133493676781654" lon="10.629094177857041">
        <ele>0</ele>
        <time>2010-01-02T21:45:07Z</time>
      </trkpt>
      <trkpt lat="54.133804393932223" lon="10.628921762108803">
        <ele>0</ele>
        <time>2010-01-02T21:45:20Z</time>
      </trkpt>
      <trkpt lat="54.134318623691797" lon="10.628637028858066">
        <ele>0</ele>
        <time>2010-01-02T21:45:41Z</time>
      </trkpt>
      <trkpt lat="54.134374866262078" lon="10.62860450707376">
        <ele>0</ele>
        <time>2010-01-02T21:45:44Z</time>
      </trkpt>
      <trkpt lat="54.134421469643712" lon="10.628593862056732">
        <ele>0</ele>
        <time>2010-01-02T21:45:46Z</time>
      </trkpt>
      <trkpt lat="54.134472766891122" lon="10.628602830693126">
        <ele>0</ele>
        <time>2010-01-02T21:45:48Z</time>
      </trkpt>
      <trkpt lat="54.134513502940536" lon="10.62862747348845">
        <ele>0</ele>
        <time>2010-01-02T21:45:49Z</time>
      </trkpt>
      <trkpt lat="54.134540157392621" lon="10.62868170440197">
        <ele>0</ele>
        <time>2010-01-02T21:45:51Z</time>
      </trkpt>
      <trkpt lat="54.134591203182936" lon="10.628820760175586">
        <ele>0</ele>
        <time>2010-01-02T21:45:55Z</time>
      </trkpt>
      <trkpt lat="54.134725900366902" lon="10.629289140924811">
        <ele>0</ele>
        <time>2010-01-02T21:46:07Z</time>
      </trkpt>
      <trkpt lat="54.134947853162885" lon="10.63008357770741">
        <ele>0</ele>
        <time>2010-01-02T21:46:28Z</time>
      </trkpt>
      <trkpt lat="54.134972412139177" lon="10.630185250192881">
        <ele>0</ele>
        <time>2010-01-02T21:46:30Z</time>
      </trkpt>
      <trkpt lat="54.134978111833334" lon="10.630209557712078">
        <ele>0</ele>
        <time>2010-01-02T21:46:31Z</time>
      </trkpt>
      <trkpt lat="54.135004598647356" lon="10.630329502746463">
        <ele>0</ele>
        <time>2010-01-02T21:46:34Z</time>
      </trkpt>
      <trkpt lat="54.135123118758202" lon="10.631269700825214">
        <ele>0</ele>
        <time>2010-01-02T21:46:57Z</time>
      </trkpt>
      <trkpt lat="54.135144241154194" lon="10.631389813497663">
        <ele>0</ele>
        <time>2010-01-02T21:46:59Z</time>
      </trkpt>
      <trkpt lat="54.135165195912123" lon="10.631497772410512">
        <ele>0</ele>
        <time>2010-01-02T21:47:02Z</time>
      </trkpt>
      <trkpt lat="54.135192520916462" lon="10.631610089913011">
        <ele>0</ele>
        <time>2010-01-02T21:47:05Z</time>
      </trkpt>
      <trkpt lat="54.135244656354189" lon="10.631767502054572">
        <ele>0</ele>
        <time>2010-01-02T21:47:09Z</time>
      </trkpt>
      <trkpt lat="54.1354392003268" lon="10.632279803976417">
        <ele>0</ele>
        <time>2010-01-02T21:47:24Z</time>
      </trkpt>
      <trkpt lat="54.135557552799582" lon="10.632578870281577">
        <ele>0</ele>
        <time>2010-01-02T21:47:32Z</time>
      </trkpt>
      <trkpt lat="54.135638186708093" lon="10.632793447002769">
        <ele>0</ele>
        <time>2010-01-02T21:47:38Z</time>
      </trkpt>
      <trkpt lat="54.135721419006586" lon="10.633001904934645">
        <ele>0</ele>
        <time>2010-01-02T21:47:44Z</time>
      </trkpt>
      <trkpt lat="54.135811692103744" lon="10.633199298754334">
        <ele>0</ele>
        <time>2010-01-02T21:47:50Z</time>
      </trkpt>
      <trkpt lat="54.135955860838294" lon="10.633470034226775">
        <ele>0</ele>
        <time>2010-01-02T21:47:58Z</time>
      </trkpt>
      <trkpt lat="54.136084774509072" lon="10.633670780807734">
        <ele>0</ele>
        <time>2010-01-02T21:48:05Z</time>
      </trkpt>
      <trkpt lat="54.136343356221914" lon="10.63404637388885">
        <ele>0</ele>
        <time>2010-01-02T21:48:19Z</time>
      </trkpt>
      <trkpt lat="54.136388786137104" lon="10.634090797975659">
        <ele>0</ele>
        <time>2010-01-02T21:48:21Z</time>
      </trkpt>
      <trkpt lat="54.13646288216114" lon="10.634129606187344">
        <ele>0</ele>
        <time>2010-01-02T21:48:24Z</time>
      </trkpt>
      <trkpt lat="54.136518118903041" lon="10.634169168770313">
        <ele>0</ele>
        <time>2010-01-02T21:48:27Z</time>
      </trkpt>
      <trkpt lat="54.13658894598484" lon="10.634232619777322">
        <ele>0</ele>
        <time>2010-01-02T21:48:30Z</time>
      </trkpt>
      <trkpt lat="54.136759350076318" lon="10.634361617267132">
        <ele>0</ele>
        <time>2010-01-02T21:48:37Z</time>
      </trkpt>
      <trkpt lat="54.136819113045931" lon="10.63440402969718">
        <ele>0</ele>
        <time>2010-01-02T21:48:40Z</time>
      </trkpt>
      <trkpt lat="54.136965880170465" lon="10.634509390220046">
        <ele>0</ele>
        <time>2010-01-02T21:48:46Z</time>
      </trkpt>
      <trkpt lat="54.137161849066615" lon="10.634677363559604">
        <ele>0</ele>
        <time>2010-01-02T21:48:55Z</time>
      </trkpt>
      <trkpt lat="54.137263353914022" lon="10.634753638878465">
        <ele>0</ele>
        <time>2010-01-02T21:48:59Z</time>
      </trkpt>
      <trkpt lat="54.137378856539726" lon="10.63480032607913">
        <ele>0</ele>
        <time>2010-01-02T21:49:04Z</time>
      </trkpt>
      <trkpt lat="54.13752662949264" lon="10.634835194796324">
        <ele>0</ele>
        <time>2010-01-02T21:49:10Z</time>
      </trkpt>
      <trkpt lat="54.137602318078279" lon="10.634852629154921">
        <ele>0</ele>
        <time>2010-01-02T21:49:13Z</time>
      </trkpt>
      <trkpt lat="54.137852853164077" lon="10.634920941665769">
        <ele>0</ele>
        <time>2010-01-02T21:49:23Z</time>
      </trkpt>
      <trkpt lat="54.137918651103973" lon="10.634938627481461">
        <ele>0</ele>
        <time>2010-01-02T21:49:26Z</time>
      </trkpt>
      <trkpt lat="54.137934911996126" lon="10.634945752099156">
        <ele>0</ele>
        <time>2010-01-02T21:49:27Z</time>
      </trkpt>
      <trkpt lat="54.137968271970749" lon="10.634958408772945">
        <ele>0</ele>
        <time>2010-01-02T21:49:28Z</time>
      </trkpt>
      <trkpt lat="54.138157116249204" lon="10.635132752358913">
        <ele>0</ele>
        <time>2010-01-02T21:49:37Z</time>
      </trkpt>
      <trkpt lat="54.138450147584081" lon="10.635378677397966">
        <ele>0</ele>
        <time>2010-01-02T21:49:50Z</time>
      </trkpt>
      <trkpt lat="54.138492560014129" lon="10.635398710146546">
        <ele>0</ele>
        <time>2010-01-02T21:49:51Z</time>
      </trkpt>
      <trkpt lat="54.138539414852858" lon="10.635407846421003">
        <ele>0</ele>
        <time>2010-01-02T21:49:53Z</time>
      </trkpt>
      <trkpt lat="54.138609487563372" lon="10.635408600792289">
        <ele>0</ele>
        <time>2010-01-02T21:49:56Z</time>
      </trkpt>
      <trkpt lat="54.138939986005425" lon="10.635394686833024">
        <ele>0</ele>
        <time>2010-01-02T21:50:09Z</time>
      </trkpt>
      <trkpt lat="54.138993881642818" lon="10.635394435375929">
        <ele>0</ele>
        <time>2010-01-02T21:50:12Z</time>
      </trkpt>
      <trkpt lat="54.139046939089894" lon="10.635397285223007">
        <ele>0</ele>
        <time>2010-01-02T21:50:14Z</time>
      </trkpt>
      <trkpt lat="54.139110054820776" lon="10.635418239980936">
        <ele>0</ele>
        <time>2010-01-02T21:50:16Z</time>
      </trkpt>
      <trkpt lat="54.139421358704567" lon="10.635533491149545">
        <ele>0</ele>
        <time>2010-01-02T21:50:29Z</time>
      </trkpt>
      <trkpt lat="54.139500735327601" lon="10.635562995448709">
        <ele>0</ele>
        <time>2010-01-02T21:50:32Z</time>
      </trkpt>
      <trkpt lat="54.139767782762647" lon="10.635655196383595">
        <ele>0</ele>
        <time>2010-01-02T21:50:43Z</time>
      </trkpt>
      <trkpt lat="54.139820169657469" lon="10.635685622692108">
        <ele>0</ele>
        <time>2010-01-02T21:50:45Z</time>
      </trkpt>
      <trkpt lat="54.139862833544612" lon="10.63572091050446">
        <ele>0</ele>
        <time>2010-01-02T21:50:47Z</time>
      </trkpt>
      <trkpt lat="54.139904826879501" lon="10.635779248550534">
        <ele>0</ele>
        <time>2010-01-02T21:50:49Z</time>
      </trkpt>
      <trkpt lat="54.139947239309549" lon="10.63587580807507">
        <ele>0</ele>
        <time>2010-01-02T21:50:52Z</time>
      </trkpt>
      <trkpt lat="54.140129629522562" lon="10.636350307613611">
        <ele>0</ele>
        <time>2010-01-02T21:51:06Z</time>
      </trkpt>
      <trkpt lat="54.140348313376307" lon="10.636935280635953">
        <ele>0</ele>
        <time>2010-01-02T21:51:22Z</time>
      </trkpt>
      <trkpt lat="54.140524165704846" lon="10.637393184006214">
        <ele>0</ele>
        <time>2010-01-02T21:51:35Z</time>
      </trkpt>
      <trkpt lat="54.140600860118866" lon="10.637581944465637">
        <ele>0</ele>
        <time>2010-01-02T21:51:40Z</time>
      </trkpt>
      <trkpt lat="54.140663053840399" lon="10.63767783343792">
        <ele>0</ele>
        <time>2010-01-02T21:51:43Z</time>
      </trkpt>
      <trkpt lat="54.140673112124205" lon="10.637691244482994">
        <ele>0</ele>
        <time>2010-01-02T21:51:44Z</time>
      </trkpt>
      <trkpt lat="54.14077159948647" lon="10.63781663775444">
        <ele>0</ele>
        <time>2010-01-02T21:51:49Z</time>
      </trkpt>
      <trkpt lat="54.140855334699154" lon="10.637916382402182">
        <ele>0</ele>
        <time>2010-01-02T21:51:53Z</time>
      </trkpt>
      <trkpt lat="54.140923814848065" lon="10.638010511174798">
        <ele>0</ele>
        <time>2010-01-02T21:51:56Z</time>
      </trkpt>
      <trkpt lat="54.141012579202652" lon="10.638154512271285">
        <ele>0</ele>
        <time>2010-01-02T21:52:01Z</time>
      </trkpt>
      <trkpt lat="54.141121041029692" lon="10.638287197798491">
        <ele>0</ele>
        <time>2010-01-02T21:52:07Z</time>
      </trkpt>
      <trkpt lat="54.141204692423344" lon="10.638376213610172">
        <ele>0</ele>
        <time>2010-01-02T21:52:11Z</time>
      </trkpt>
      <trkpt lat="54.141258671879768" lon="10.638464726507664">
        <ele>0</ele>
        <time>2010-01-02T21:52:14Z</time>
      </trkpt>
      <trkpt lat="54.141324386000633" lon="10.63855592161417">
        <ele>0</ele>
        <time>2010-01-02T21:52:17Z</time>
      </trkpt>
      <trkpt lat="54.141385825350881" lon="10.638665640726686">
        <ele>0</ele>
        <time>2010-01-02T21:52:21Z</time>
      </trkpt>
      <trkpt lat="54.141465872526169" lon="10.638831350952387">
        <ele>0</ele>
        <time>2010-01-02T21:52:26Z</time>
      </trkpt>
      <trkpt lat="54.141526725143194" lon="10.638967053964734">
        <ele>0</ele>
        <time>2010-01-02T21:52:30Z</time>
      </trkpt>
      <trkpt lat="54.141579698771238" lon="10.639124466106296">
        <ele>0</ele>
        <time>2010-01-02T21:52:34Z</time>
      </trkpt>
      <trkpt lat="54.141627391800284" lon="10.639283638447523">
        <ele>0</ele>
        <time>2010-01-02T21:52:38Z</time>
      </trkpt>
      <trkpt lat="54.141675839200616" lon="10.639436608180404">
        <ele>0</ele>
        <time>2010-01-02T21:52:42Z</time>
      </trkpt>
      <trkpt lat="54.141736775636673" lon="10.639740619808435">
        <ele>0</ele>
        <time>2010-01-02T21:52:50Z</time>
      </trkpt>
      <trkpt lat="54.141777008771896" lon="10.639883195981383">
        <ele>0</ele>
        <time>2010-01-02T21:52:53Z</time>
      </trkpt>
      <trkpt lat="54.141834089532495" lon="10.640083272010088">
        <ele>0</ele>
        <time>2010-01-02T21:52:59Z</time>
      </trkpt>
      <trkpt lat="54.141949424520135" lon="10.640437575057149">
        <ele>0</ele>
        <time>2010-01-02T21:53:08Z</time>
      </trkpt>
      <trkpt lat="54.141975995153189" lon="10.640559196472168">
        <ele>0</ele>
        <time>2010-01-02T21:53:11Z</time>
      </trkpt>
      <trkpt lat="54.141987645998597" lon="10.640635304152966">
        <ele>0</ele>
        <time>2010-01-02T21:53:13Z</time>
      </trkpt>
      <trkpt lat="54.141987729817629" lon="10.640724068507552">
        <ele>0</ele>
        <time>2010-01-02T21:53:15Z</time>
      </trkpt>
      <trkpt lat="54.141981862485409" lon="10.640759440138936">
        <ele>0</ele>
        <time>2010-01-02T21:53:16Z</time>
      </trkpt>
      <trkpt lat="54.14197507314384" lon="10.640796404331923">
        <ele>0</ele>
        <time>2010-01-02T21:53:17Z</time>
      </trkpt>
      <trkpt lat="54.14194623939693" lon="10.640869243070483">
        <ele>0</ele>
        <time>2010-01-02T21:53:19Z</time>
      </trkpt>
      <trkpt lat="54.141899300739169" lon="10.640927413478494">
        <ele>0</ele>
        <time>2010-01-02T21:53:21Z</time>
      </trkpt>
      <trkpt lat="54.141743397340178" lon="10.641047274693847">
        <ele>0</ele>
        <time>2010-01-02T21:53:28Z</time>
      </trkpt>
      <trkpt lat="54.141577100381255" lon="10.641118520870805">
        <ele>0</ele>
        <time>2010-01-02T21:53:35Z</time>
      </trkpt>
      <trkpt lat="54.141426142305136" lon="10.641195382922888">
        <ele>0</ele>
        <time>2010-01-02T21:53:41Z</time>
      </trkpt>
      <trkpt lat="54.141333354637027" lon="10.641259672120214">
        <ele>0</ele>
        <time>2010-01-02T21:53:45Z</time>
      </trkpt>
      <trkpt lat="54.141262108460069" lon="10.641310969367623">
        <ele>0</ele>
        <time>2010-01-02T21:53:48Z</time>
      </trkpt>
      <trkpt lat="54.141212236136198" lon="10.641353884711862">
        <ele>0</ele>
        <time>2010-01-02T21:53:51Z</time>
      </trkpt>
      <trkpt lat="54.141166051849723" lon="10.641398224979639">
        <ele>0</ele>
        <time>2010-01-02T21:53:53Z</time>
      </trkpt>
      <trkpt lat="54.141111904755235" lon="10.641459748148918">
        <ele>0</ele>
        <time>2010-01-02T21:53:55Z</time>
      </trkpt>
      <trkpt lat="54.141065971925855" lon="10.641528563573956">
        <ele>0</ele>
        <time>2010-01-02T21:53:58Z</time>
      </trkpt>
      <trkpt lat="54.141012076288462" lon="10.641605341807008">
        <ele>0</ele>
        <time>2010-01-02T21:54:01Z</time>
      </trkpt>
      <trkpt lat="54.140960024669766" lon="10.6416972912848">
        <ele>0</ele>
        <time>2010-01-02T21:54:04Z</time>
      </trkpt>
      <trkpt lat="54.140903279185295" lon="10.64184146001935">
        <ele>0</ele>
        <time>2010-01-02T21:54:08Z</time>
      </trkpt>
      <trkpt lat="54.140852401033044" lon="10.642031310126185">
        <ele>0</ele>
        <time>2010-01-02T21:54:13Z</time>
      </trkpt>
      <trkpt lat="54.140820549800992" lon="10.64215175807476">
        <ele>0</ele>
        <time>2010-01-02T21:54:16Z</time>
      </trkpt>
      <trkpt lat="54.140736060217023" lon="10.642625838518143">
        <ele>0</ele>
        <time>2010-01-02T21:54:27Z</time>
      </trkpt>
      <trkpt lat="54.140705214813352" lon="10.642839577049017">
        <ele>0</ele>
        <time>2010-01-02T21:54:32Z</time>
      </trkpt>
      <trkpt lat="54.140686858445406" lon="10.642964048311114">
        <ele>0</ele>
        <time>2010-01-02T21:54:35Z</time>
      </trkpt>
      <trkpt lat="54.140668334439397" lon="10.643080975860357">
        <ele>0</ele>
        <time>2010-01-02T21:54:38Z</time>
      </trkpt>
      <trkpt lat="54.140634806826711" lon="10.643213661387563">
        <ele>0</ele>
        <time>2010-01-02T21:54:42Z</time>
      </trkpt>
      <trkpt lat="54.140571020543575" lon="10.643449863418937">
        <ele>0</ele>
        <time>2010-01-02T21:54:48Z</time>
      </trkpt>
      <trkpt lat="54.140347559005022" lon="10.644269781187177">
        <ele>0</ele>
        <time>2010-01-02T21:55:09Z</time>
      </trkpt>
      <trkpt lat="54.140188470482826" lon="10.644825836643577">
        <ele>0</ele>
        <time>2010-01-02T21:55:23Z</time>
      </trkpt>
      <trkpt lat="54.14018327370286" lon="10.644842851907015">
        <ele>0</ele>
        <time>2010-01-02T21:55:24Z</time>
      </trkpt>
      <trkpt lat="54.140079254284501" lon="10.64517829567194">
        <ele>0</ele>
        <time>2010-01-02T21:55:33Z</time>
      </trkpt>
      <trkpt lat="54.140042876824737" lon="10.645298827439547">
        <ele>0</ele>
        <time>2010-01-02T21:55:36Z</time>
      </trkpt>
      <trkpt lat="54.139995099976659" lon="10.645525306463242">
        <ele>0</ele>
        <time>2010-01-02T21:55:42Z</time>
      </trkpt>
      <trkpt lat="54.139940366148949" lon="10.645854631438851">
        <ele>0</ele>
        <time>2010-01-02T21:55:50Z</time>
      </trkpt>
      <trkpt lat="54.139919327571988" lon="10.645982287824154">
        <ele>0</ele>
        <time>2010-01-02T21:55:53Z</time>
      </trkpt>
      <trkpt lat="54.13987398147583" lon="10.646343380212784">
        <ele>0</ele>
        <time>2010-01-02T21:56:01Z</time>
      </trkpt>
      <trkpt lat="54.139841375872493" lon="10.646560220047832">
        <ele>0</ele>
        <time>2010-01-02T21:56:07Z</time>
      </trkpt>
      <trkpt lat="54.139798376709223" lon="10.646811006590724">
        <ele>0</ele>
        <time>2010-01-02T21:56:13Z</time>
      </trkpt>
      <trkpt lat="54.139744816347957" lon="10.647002533078194">
        <ele>0</ele>
        <time>2010-01-02T21:56:18Z</time>
      </trkpt>
      <trkpt lat="54.139624368399382" lon="10.647396650165319">
        <ele>0</ele>
        <time>2010-01-02T21:56:28Z</time>
      </trkpt>
      <trkpt lat="54.139585979282856" lon="10.647579962387681">
        <ele>0</ele>
        <time>2010-01-02T21:56:33Z</time>
      </trkpt>
      <trkpt lat="54.139560414478183" lon="10.647701751440763">
        <ele>0</ele>
        <time>2010-01-02T21:56:36Z</time>
      </trkpt>
      <trkpt lat="54.139547254890203" lon="10.647809291258454">
        <ele>0</ele>
        <time>2010-01-02T21:56:38Z</time>
      </trkpt>
      <trkpt lat="54.139536190778017" lon="10.647944239899516">
        <ele>0</ele>
        <time>2010-01-02T21:56:42Z</time>
      </trkpt>
      <trkpt lat="54.13953342474997" lon="10.648259567096829">
        <ele>0</ele>
        <time>2010-01-02T21:56:49Z</time>
      </trkpt>
      <trkpt lat="54.139540297910571" lon="10.64839250408113">
        <ele>0</ele>
        <time>2010-01-02T21:56:52Z</time>
      </trkpt>
      <trkpt lat="54.139556977897882" lon="10.648598531261086">
        <ele>0</ele>
        <time>2010-01-02T21:56:57Z</time>
      </trkpt>
      <trkpt lat="54.139580531045794" lon="10.648772204294801">
        <ele>0</ele>
        <time>2010-01-02T21:57:01Z</time>
      </trkpt>
      <trkpt lat="54.139609197154641" lon="10.648925844579935">
        <ele>0</ele>
        <time>2010-01-02T21:57:05Z</time>
      </trkpt>
      <trkpt lat="54.139675330370665" lon="10.649212840944529">
        <ele>0</ele>
        <time>2010-01-02T21:57:12Z</time>
      </trkpt>
      <trkpt lat="54.13977432064712" lon="10.649552391842008">
        <ele>0</ele>
        <time>2010-01-02T21:57:21Z</time>
      </trkpt>
      <trkpt lat="54.139829389750957" lon="10.649731177836657">
        <ele>0</ele>
        <time>2010-01-02T21:57:26Z</time>
      </trkpt>
      <trkpt lat="54.13990281522274" lon="10.649871155619621">
        <ele>0</ele>
        <time>2010-01-02T21:57:30Z</time>
      </trkpt>
      <trkpt lat="54.140035416930914" lon="10.650078020989895">
        <ele>0</ele>
        <time>2010-01-02T21:57:37Z</time>
      </trkpt>
      <trkpt lat="54.140099203214049" lon="10.650156978517771">
        <ele>0</ele>
        <time>2010-01-02T21:57:41Z</time>
      </trkpt>
      <trkpt lat="54.140144968405366" lon="10.650230487808585">
        <ele>0</ele>
        <time>2010-01-02T21:57:43Z</time>
      </trkpt>
      <trkpt lat="54.140196433290839" lon="10.650334423407912">
        <ele>0</ele>
        <time>2010-01-02T21:57:46Z</time>
      </trkpt>
      <trkpt lat="54.140288215130568" lon="10.650505917146802">
        <ele>0</ele>
        <time>2010-01-02T21:57:52Z</time>
      </trkpt>
      <trkpt lat="54.140413105487823" lon="10.650830799713731">
        <ele>0</ele>
        <time>2010-01-02T21:58:01Z</time>
      </trkpt>
      <trkpt lat="54.140519639477134" lon="10.651113521307707">
        <ele>0</ele>
        <time>2010-01-02T21:58:09Z</time>
      </trkpt>
      <trkpt lat="54.14055660367012" lon="10.651210248470306">
        <ele>0</ele>
        <time>2010-01-02T21:58:11Z</time>
      </trkpt>
      <trkpt lat="54.140599016100168" lon="10.651305299252272">
        <ele>0</ele>
        <time>2010-01-02T21:58:14Z</time>
      </trkpt>
      <trkpt lat="54.140674285590649" lon="10.651449719443917">
        <ele>0</ele>
        <time>2010-01-02T21:58:19Z</time>
      </trkpt>
      <trkpt lat="54.140859022736549" lon="10.651736045256257">
        <ele>0</ele>
        <time>2010-01-02T21:58:29Z</time>
      </trkpt>
      <trkpt lat="54.14092943072319" lon="10.651845429092646">
        <ele>0</ele>
        <time>2010-01-02T21:58:33Z</time>
      </trkpt>
      <trkpt lat="54.140950553119183" lon="10.651887590065598">
        <ele>0</ele>
        <time>2010-01-02T21:58:34Z</time>
      </trkpt>
      <trkpt lat="54.140963461250067" lon="10.651919357478619">
        <ele>0</ele>
        <time>2010-01-02T21:58:35Z</time>
      </trkpt>
      <trkpt lat="54.140999251976609" lon="10.652062017470598">
        <ele>0</ele>
        <time>2010-01-02T21:58:38Z</time>
      </trkpt>
      <trkpt lat="54.141027750447392" lon="10.652197301387787">
        <ele>0</ele>
        <time>2010-01-02T21:58:42Z</time>
      </trkpt>
      <trkpt lat="54.141030600294471" lon="10.652212472632527">
        <ele>0</ele>
        <time>2010-01-02T21:58:42Z</time>
      </trkpt>
      <trkpt lat="54.141056751832366" lon="10.652387654408813">
        <ele>0</ele>
        <time>2010-01-02T21:58:46Z</time>
      </trkpt>
      <trkpt lat="54.141125315800309" lon="10.652729719877243">
        <ele>0</ele>
        <time>2010-01-02T21:58:55Z</time>
      </trkpt>
      <trkpt lat="54.141252972185612" lon="10.653302455320954">
        <ele>0</ele>
        <time>2010-01-02T21:59:09Z</time>
      </trkpt>
      <trkpt lat="54.141332264989614" lon="10.653642676770687">
        <ele>0</ele>
        <time>2010-01-02T21:59:18Z</time>
      </trkpt>
      <trkpt lat="54.141343496739864" lon="10.653763208538294">
        <ele>0</ele>
        <time>2010-01-02T21:59:21Z</time>
      </trkpt>
      <trkpt lat="54.141350956633687" lon="10.653867060318589">
        <ele>0</ele>
        <time>2010-01-02T21:59:23Z</time>
      </trkpt>
      <trkpt lat="54.141346849501133" lon="10.653981892392039">
        <ele>0</ele>
        <time>2010-01-02T21:59:26Z</time>
      </trkpt>
      <trkpt lat="54.141339557245374" lon="10.654133688658476">
        <ele>0</ele>
        <time>2010-01-02T21:59:29Z</time>
      </trkpt>
      <trkpt lat="54.141324469819665" lon="10.654307110235095">
        <ele>0</ele>
        <time>2010-01-02T21:59:34Z</time>
      </trkpt>
      <trkpt lat="54.141318267211318" lon="10.654477179050446">
        <ele>0</ele>
        <time>2010-01-02T21:59:38Z</time>
      </trkpt>
      <trkpt lat="54.141315249726176" lon="10.654611876234412">
        <ele>0</ele>
        <time>2010-01-02T21:59:41Z</time>
      </trkpt>
      <trkpt lat="54.141319273039699" lon="10.654810694977641">
        <ele>0</ele>
        <time>2010-01-02T21:59:45Z</time>
      </trkpt>
      <trkpt lat="54.141369396820664" lon="10.655436487868428">
        <ele>0</ele>
        <time>2010-01-02T22:00:00Z</time>
      </trkpt>
      <trkpt lat="54.141393871977925" lon="10.655776960775256">
        <ele>0</ele>
        <time>2010-01-02T22:00:08Z</time>
      </trkpt>
      <trkpt lat="54.141405103728175" lon="10.65597552806139">
        <ele>0</ele>
        <time>2010-01-02T22:00:13Z</time>
      </trkpt>
      <trkpt lat="54.141411473974586" lon="10.656145177781582">
        <ele>0</ele>
        <time>2010-01-02T22:00:17Z</time>
      </trkpt>
      <trkpt lat="54.141414072364569" lon="10.656302673742175">
        <ele>0</ele>
        <time>2010-01-02T22:00:21Z</time>
      </trkpt>
      <trkpt lat="54.141399068757892" lon="10.656566368415952">
        <ele>0</ele>
        <time>2010-01-02T22:00:27Z</time>
      </trkpt>
      <trkpt lat="54.141350286081433" lon="10.656945984810591">
        <ele>0</ele>
        <time>2010-01-02T22:00:36Z</time>
      </trkpt>
      <trkpt lat="54.141289684921503" lon="10.657391734421253">
        <ele>0</ele>
        <time>2010-01-02T22:00:47Z</time>
      </trkpt>
      <trkpt lat="54.141264874488115" lon="10.657582255080342">
        <ele>0</ele>
        <time>2010-01-02T22:00:51Z</time>
      </trkpt>
      <trkpt lat="54.141250206157565" lon="10.657720472663641">
        <ele>0</ele>
        <time>2010-01-02T22:00:54Z</time>
      </trkpt>
      <trkpt lat="54.141251798719168" lon="10.657865814864635">
        <ele>0</ele>
        <time>2010-01-02T22:00:58Z</time>
      </trkpt>
      <trkpt lat="54.141259510070086" lon="10.657992549240589">
        <ele>0</ele>
        <time>2010-01-02T22:01:01Z</time>
      </trkpt>
      <trkpt lat="54.141279039904475" lon="10.658132694661617">
        <ele>0</ele>
        <time>2010-01-02T22:01:04Z</time>
      </trkpt>
      <trkpt lat="54.141319105401635" lon="10.658417595550418">
        <ele>0</ele>
        <time>2010-01-02T22:01:11Z</time>
      </trkpt>
      <trkpt lat="54.141442738473415" lon="10.658869631588459">
        <ele>0</ele>
        <time>2010-01-02T22:01:23Z</time>
      </trkpt>
      <trkpt lat="54.141613058745861" lon="10.659398194402456">
        <ele>0</ele>
        <time>2010-01-02T22:01:37Z</time>
      </trkpt>
      <trkpt lat="54.141648430377245" lon="10.65951026044786">
        <ele>0</ele>
        <time>2010-01-02T22:01:40Z</time>
      </trkpt>
      <trkpt lat="54.141669133678079" lon="10.659596845507622">
        <ele>0</ele>
        <time>2010-01-02T22:01:42Z</time>
      </trkpt>
      <trkpt lat="54.141738787293434" lon="10.660202102735639">
        <ele>0</ele>
        <time>2010-01-02T22:01:57Z</time>
      </trkpt>
      <trkpt lat="54.141820091754198" lon="10.660970723256469">
        <ele>0</ele>
        <time>2010-01-02T22:02:15Z</time>
      </trkpt>
      <trkpt lat="54.141859905794263" lon="10.661321422085166">
        <ele>0</ele>
        <time>2010-01-02T22:02:23Z</time>
      </trkpt>
      <trkpt lat="54.141906760632992" lon="10.661737667396665">
        <ele>0</ele>
        <time>2010-01-02T22:02:33Z</time>
      </trkpt>
      <trkpt lat="54.141925787553191" lon="10.661828862503171">
        <ele>0</ele>
        <time>2010-01-02T22:02:36Z</time>
      </trkpt>
      <trkpt lat="54.141945485025644" lon="10.661903209984303">
        <ele>0</ele>
        <time>2010-01-02T22:02:37Z</time>
      </trkpt>
      <trkpt lat="54.142055120319128" lon="10.662146117538214">
        <ele>0</ele>
        <time>2010-01-02T22:02:45Z</time>
      </trkpt>
      <trkpt lat="54.142078338190913" lon="10.662214178591967">
        <ele>0</ele>
        <time>2010-01-02T22:02:46Z</time>
      </trkpt>
      <trkpt lat="54.14209334179759" lon="10.662273354828358">
        <ele>0</ele>
        <time>2010-01-02T22:02:48Z</time>
      </trkpt>
      <trkpt lat="54.142105914652348" lon="10.662357173860073">
        <ele>0</ele>
        <time>2010-01-02T22:02:50Z</time>
      </trkpt>
      <trkpt lat="54.142119493335485" lon="10.662447027862072">
        <ele>0</ele>
        <time>2010-01-02T22:02:52Z</time>
      </trkpt>
      <trkpt lat="54.142139609903097" lon="10.662554986774921">
        <ele>0</ele>
        <time>2010-01-02T22:02:55Z</time>
      </trkpt>
      <trkpt lat="54.142209347337484" lon="10.66276696510613">
        <ele>0</ele>
        <time>2010-01-02T22:03:01Z</time>
      </trkpt>
      <trkpt lat="54.142251508310437" lon="10.662920186296105">
        <ele>0</ele>
        <time>2010-01-02T22:03:05Z</time>
      </trkpt>
      <trkpt lat="54.142315629869699" lon="10.663199722766876">
        <ele>0</ele>
        <time>2010-01-02T22:03:12Z</time>
      </trkpt>
      <trkpt lat="54.142348067834973" lon="10.663287397474051">
        <ele>0</ele>
        <time>2010-01-02T22:03:14Z</time>
      </trkpt>
      <trkpt lat="54.142384864389896" lon="10.663359733298421">
        <ele>0</ele>
        <time>2010-01-02T22:03:16Z</time>
      </trkpt>
      <trkpt lat="54.142489302903414" lon="10.663543045520782">
        <ele>0</ele>
        <time>2010-01-02T22:03:22Z</time>
      </trkpt>
      <trkpt lat="54.142533224076033" lon="10.663618147373199">
        <ele>0</ele>
        <time>2010-01-02T22:03:25Z</time>
      </trkpt>
      <trkpt lat="54.142564572393894" lon="10.663689058274031">
        <ele>0</ele>
        <time>2010-01-02T22:03:27Z</time>
      </trkpt>
      <trkpt lat="54.142626766115427" lon="10.663866084069014">
        <ele>0</ele>
        <time>2010-01-02T22:03:32Z</time>
      </trkpt>
      <trkpt lat="54.142785100266337" lon="10.664291046559811">
        <ele>0</ele>
        <time>2010-01-02T22:03:43Z</time>
      </trkpt>
      <trkpt lat="54.142825668677688" lon="10.664379978552461">
        <ele>0</ele>
        <time>2010-01-02T22:03:46Z</time>
      </trkpt>
      <trkpt lat="54.142895909026265" lon="10.664480309933424">
        <ele>0</ele>
        <time>2010-01-02T22:03:50Z</time>
      </trkpt>
      <trkpt lat="54.143027337267995" lon="10.664578629657626">
        <ele>0</ele>
        <time>2010-01-02T22:03:56Z</time>
      </trkpt>
      <trkpt lat="54.143133955076337" lon="10.664637889713049">
        <ele>0</ele>
        <time>2010-01-02T22:04:00Z</time>
      </trkpt>
      <trkpt lat="54.143264377489686" lon="10.664728581905365">
        <ele>0</ele>
        <time>2010-01-02T22:04:06Z</time>
      </trkpt>
      <trkpt lat="54.143339479342103" lon="10.664781220257282">
        <ele>0</ele>
        <time>2010-01-02T22:04:09Z</time>
      </trkpt>
      <trkpt lat="54.143424974754453" lon="10.664870319887996">
        <ele>0</ele>
        <time>2010-01-02T22:04:13Z</time>
      </trkpt>
      <trkpt lat="54.143466800451279" lon="10.664914911612868">
        <ele>0</ele>
        <time>2010-01-02T22:04:15Z</time>
      </trkpt>
      <trkpt lat="54.143509631976485" lon="10.664970148354769">
        <ele>0</ele>
        <time>2010-01-02T22:04:17Z</time>
      </trkpt>
      <trkpt lat="54.143549865111709" lon="10.665031587705016">
        <ele>0</ele>
        <time>2010-01-02T22:04:19Z</time>
      </trkpt>
      <trkpt lat="54.143584650009871" lon="10.665090177208185">
        <ele>0</ele>
        <time>2010-01-02T22:04:21Z</time>
      </trkpt>
      <trkpt lat="54.143632929772139" lon="10.665227891877294">
        <ele>0</ele>
        <time>2010-01-02T22:04:25Z</time>
      </trkpt>
      <trkpt lat="54.143650615587831" lon="10.665290085598826">
        <ele>0</ele>
        <time>2010-01-02T22:04:27Z</time>
      </trkpt>
      <trkpt lat="54.143665032461286" lon="10.665375245735049">
        <ele>0</ele>
        <time>2010-01-02T22:04:29Z</time>
      </trkpt>
      <trkpt lat="54.143688920885324" lon="10.665659140795469">
        <ele>0</ele>
        <time>2010-01-02T22:04:35Z</time>
      </trkpt>
      <trkpt lat="54.143696548417211" lon="10.665782857686281">
        <ele>0</ele>
        <time>2010-01-02T22:04:38Z</time>
      </trkpt>
      <trkpt lat="54.143711216747761" lon="10.665969103574753">
        <ele>0</ele>
        <time>2010-01-02T22:04:43Z</time>
      </trkpt>
      <trkpt lat="54.143774416297674" lon="10.666565475985408">
        <ele>0</ele>
        <time>2010-01-02T22:04:57Z</time>
      </trkpt>
      <trkpt lat="54.143794281408191" lon="10.666656671091914">
        <ele>0</ele>
        <time>2010-01-02T22:04:59Z</time>
      </trkpt>
      <trkpt lat="54.143827641382813" lon="10.66674736328423">
        <ele>0</ele>
        <time>2010-01-02T22:05:02Z</time>
      </trkpt>
      <trkpt lat="54.143863432109356" lon="10.666816597804427">
        <ele>0</ele>
        <time>2010-01-02T22:05:04Z</time>
      </trkpt>
      <trkpt lat="54.143938701599836" lon="10.666878456249833">
        <ele>0</ele>
        <time>2010-01-02T22:05:07Z</time>
      </trkpt>
      <trkpt lat="54.144021011888981" lon="10.666927909478545">
        <ele>0</ele>
        <time>2010-01-02T22:05:11Z</time>
      </trkpt>
      <trkpt lat="54.144118409603834" lon="10.666966047137976">
        <ele>0</ele>
        <time>2010-01-02T22:05:15Z</time>
      </trkpt>
      <trkpt lat="54.144210275262594" lon="10.66697845235467">
        <ele>0</ele>
        <time>2010-01-02T22:05:18Z</time>
      </trkpt>
      <trkpt lat="54.14438059553504" lon="10.666948445141315">
        <ele>0</ele>
        <time>2010-01-02T22:05:25Z</time>
      </trkpt>
      <trkpt lat="54.144579414278269" lon="10.66689002327621">
        <ele>0</ele>
        <time>2010-01-02T22:05:33Z</time>
      </trkpt>
      <trkpt lat="54.144654432311654" lon="10.666847862303257">
        <ele>0</ele>
        <time>2010-01-02T22:05:36Z</time>
      </trkpt>
      <trkpt lat="54.144714949652553" lon="10.666796900331974">
        <ele>0</ele>
        <time>2010-01-02T22:05:39Z</time>
      </trkpt>
      <trkpt lat="54.144787788391113" lon="10.666716517880559">
        <ele>0</ele>
        <time>2010-01-02T22:05:43Z</time>
      </trkpt>
      <trkpt lat="54.144865656271577" lon="10.666608475148678">
        <ele>0</ele>
        <time>2010-01-02T22:05:47Z</time>
      </trkpt>
      <trkpt lat="54.144989708438516" lon="10.666374871507287">
        <ele>0</ele>
        <time>2010-01-02T22:05:54Z</time>
      </trkpt>
      <trkpt lat="54.145038323476911" lon="10.666301446035504">
        <ele>0</ele>
        <time>2010-01-02T22:05:57Z</time>
      </trkpt>
      <trkpt lat="54.145085513591766" lon="10.66626314073801">
        <ele>0</ele>
        <time>2010-01-02T22:05:59Z</time>
      </trkpt>
      <trkpt lat="54.145133877173066" lon="10.666249394416809">
        <ele>0</ele>
        <time>2010-01-02T22:06:01Z</time>
      </trkpt>
      <trkpt lat="54.14533194154501" lon="10.666281245648861">
        <ele>0</ele>
        <time>2010-01-02T22:06:09Z</time>
      </trkpt>
      <trkpt lat="54.145127255469561" lon="10.667270394042134">
        <ele>0</ele>
        <time>2010-01-02T22:06:33Z</time>
      </trkpt>
      <trkpt lat="54.145075203850865" lon="10.667523024603724">
        <ele>0</ele>
        <time>2010-01-02T22:06:40Z</time>
      </trkpt>
      <trkpt lat="54.144918881356716" lon="10.668255016207695">
        <ele>0</ele>
        <time>2010-01-02T22:06:58Z</time>
      </trkpt>
      <trkpt lat="54.144818047061563" lon="10.668724989518523">
        <ele>0</ele>
        <time>2010-01-02T22:07:10Z</time>
      </trkpt>
      <trkpt lat="54.144777143374085" lon="10.66892221570015">
        <ele>0</ele>
        <time>2010-01-02T22:07:14Z</time>
      </trkpt>
      <trkpt lat="54.144631382077932" lon="10.669635431841016">
        <ele>0</ele>
        <time>2010-01-02T22:07:32Z</time>
      </trkpt>
      <trkpt lat="54.144581593573093" lon="10.669848248362541">
        <ele>0</ele>
        <time>2010-01-02T22:07:37Z</time>
      </trkpt>
      <trkpt lat="54.144453350454569" lon="10.66978957504034">
        <ele>0</ele>
        <time>2010-01-02T22:07:43Z</time>
      </trkpt>
      <trkpt lat="54.144345140084624" lon="10.669750180095434">
        <ele>0</ele>
        <time>2010-01-02T22:07:47Z</time>
      </trkpt>
      <trkpt lat="54.144253274425864" lon="10.669730231165886">
        <ele>0</ele>
        <time>2010-01-02T22:07:51Z</time>
      </trkpt>
      <trkpt lat="54.144180435687304" lon="10.669730985537171">
        <ele>0</ele>
        <time>2010-01-02T22:07:54Z</time>
      </trkpt>
      <trkpt lat="54.14409963414073" lon="10.669730566442013">
        <ele>0</ele>
        <time>2010-01-02T22:07:57Z</time>
      </trkpt>
      <trkpt lat="54.144071722403169" lon="10.669729895889759">
        <ele>0</ele>
        <time>2010-01-02T22:07:58Z</time>
      </trkpt>
      <trkpt lat="54.143832586705685" lon="10.669713048264384">
        <ele>0</ele>
        <time>2010-01-02T22:08:08Z</time>
      </trkpt>
      <trkpt lat="54.143938031047583" lon="10.669989734888077">
        <ele>0</ele>
        <time>2010-01-02T22:08:16Z</time>
      </trkpt>
      <trkpt lat="54.14399997331202" lon="10.670146895572543">
        <ele>0</ele>
        <time>2010-01-02T22:08:20Z</time>
      </trkpt>
      <trkpt lat="54.144122935831547" lon="10.670459792017937">
        <ele>0</ele>
        <time>2010-01-02T22:08:29Z</time>
      </trkpt>
      <trkpt lat="54.144194014370441" lon="10.670635057613254">
        <ele>0</ele>
        <time>2010-01-02T22:08:34Z</time>
      </trkpt>
      <trkpt lat="54.14438302628696" lon="10.671147778630257">
        <ele>0</ele>
        <time>2010-01-02T22:08:48Z</time>
      </trkpt>
      <trkpt lat="54.144493080675602" lon="10.671433517709374">
        <ele>0</ele>
        <time>2010-01-02T22:08:56Z</time>
      </trkpt>
      <trkpt lat="54.144547814503312" lon="10.671593947336078">
        <ele>0</ele>
        <time>2010-01-02T22:09:00Z</time>
      </trkpt>
      <trkpt lat="54.144568266347051" lon="10.671652955934405">
        <ele>0</ele>
        <time>2010-01-02T22:09:02Z</time>
      </trkpt>
      <trkpt lat="54.144591400399804" lon="10.671716490760446">
        <ele>0</ele>
        <time>2010-01-02T22:09:04Z</time>
      </trkpt>
      <trkpt lat="54.14463909342885" lon="10.671886391937733">
        <ele>0</ele>
        <time>2010-01-02T22:09:08Z</time>
      </trkpt>
      <trkpt lat="54.144696928560734" lon="10.67215695977211">
        <ele>0</ele>
        <time>2010-01-02T22:09:15Z</time>
      </trkpt>
      <trkpt lat="54.144915696233511" lon="10.673418687656522">
        <ele>0</ele>
        <time>2010-01-02T22:09:46Z</time>
      </trkpt>
      <trkpt lat="54.145127926021814" lon="10.674741854891181">
        <ele>0</ele>
        <time>2010-01-02T22:10:18Z</time>
      </trkpt>
      <trkpt lat="54.145367564633489" lon="10.676188068464398">
        <ele>0</ele>
        <time>2010-01-02T22:10:53Z</time>
      </trkpt>
      <trkpt lat="54.145479127764702" lon="10.676859458908439">
        <ele>0</ele>
        <time>2010-01-02T22:11:10Z</time>
      </trkpt>
      <trkpt lat="54.145497400313616" lon="10.676964400336146">
        <ele>0</ele>
        <time>2010-01-02T22:11:12Z</time>
      </trkpt>
      <trkpt lat="54.145554061979055" lon="10.67729783244431">
        <ele>0</ele>
        <time>2010-01-02T22:11:20Z</time>
      </trkpt>
      <trkpt lat="54.145606951788068" lon="10.677620535716414">
        <ele>0</ele>
        <time>2010-01-02T22:11:28Z</time>
      </trkpt>
      <trkpt lat="54.145880453288555" lon="10.679287696257234">
        <ele>0</ele>
        <time>2010-01-02T22:12:09Z</time>
      </trkpt>
      <trkpt lat="54.145914148539305" lon="10.679494729265571">
        <ele>0</ele>
        <time>2010-01-02T22:12:14Z</time>
      </trkpt>
      <trkpt lat="54.146148841828108" lon="10.680902972817421">
        <ele>0</ele>
        <time>2010-01-02T22:12:48Z</time>
      </trkpt>
      <trkpt lat="54.146380433812737" lon="10.682277604937553">
        <ele>0</ele>
        <time>2010-01-02T22:13:22Z</time>
      </trkpt>
      <trkpt lat="54.146383283659816" lon="10.682294368743896">
        <ele>0</ele>
        <time>2010-01-02T22:13:22Z</time>
      </trkpt>
      <trkpt lat="54.146387139335275" lon="10.682320268824697">
        <ele>0</ele>
        <time>2010-01-02T22:13:23Z</time>
      </trkpt>
      <trkpt lat="54.146455116569996" lon="10.682700639590621">
        <ele>0</ele>
        <time>2010-01-02T22:13:32Z</time>
      </trkpt>
      <trkpt lat="54.146459978073835" lon="10.682731149718165">
        <ele>0</ele>
        <time>2010-01-02T22:13:33Z</time>
      </trkpt>
      <trkpt lat="54.146537091583014" lon="10.683215372264385">
        <ele>0</ele>
        <time>2010-01-02T22:13:44Z</time>
      </trkpt>
      <trkpt lat="54.147019386291504" lon="10.686072763055563">
        <ele>0</ele>
        <time>2010-01-02T22:14:54Z</time>
      </trkpt>
      <trkpt lat="54.146948726847768" lon="10.686102602630854">
        <ele>0</ele>
        <time>2010-01-02T22:14:57Z</time>
      </trkpt>
      <trkpt lat="54.146526530385017" lon="10.686279712244868">
        <ele>0</ele>
        <time>2010-01-02T22:15:15Z</time>
      </trkpt>
      <trkpt lat="54.146021269261837" lon="10.686493115499616">
        <ele>0</ele>
        <time>2010-01-02T22:15:35Z</time>
      </trkpt>
      <trkpt lat="54.145088195800781" lon="10.686868540942669">
        <ele>0</ele>
        <time>2010-01-02T22:16:14Z</time>
      </trkpt>
      <trkpt lat="54.144876133650541" lon="10.686944061890244">
        <ele>0</ele>
        <time>2010-01-02T22:16:22Z</time>
      </trkpt>
      <trkpt lat="54.144247155636549" lon="10.687187388539314">
        <ele>0</ele>
        <time>2010-01-02T22:16:48Z</time>
      </trkpt>
      <trkpt lat="54.143740721046925" lon="10.687382519245148">
        <ele>0</ele>
        <time>2010-01-02T22:17:09Z</time>
      </trkpt>
      <trkpt lat="54.143091458827257" lon="10.687663145363331">
        <ele>0</ele>
        <time>2010-01-02T22:17:36Z</time>
      </trkpt>
      <trkpt lat="54.142803540453315" lon="10.687788538634777">
        <ele>0</ele>
        <time>2010-01-02T22:17:48Z</time>
      </trkpt>
      <trkpt lat="54.142641685903072" lon="10.687861042097211">
        <ele>0</ele>
        <time>2010-01-02T22:17:54Z</time>
      </trkpt>
      <trkpt lat="54.142441106960177" lon="10.687927007675171">
        <ele>0</ele>
        <time>2010-01-02T22:18:03Z</time>
      </trkpt>
      <trkpt lat="54.142398107796907" lon="10.687939077615738">
        <ele>0</ele>
        <time>2010-01-02T22:18:04Z</time>
      </trkpt>
      <trkpt lat="54.142169784754515" lon="10.688005965203047">
        <ele>0</ele>
        <time>2010-01-02T22:18:14Z</time>
      </trkpt>
      <trkpt lat="54.141970044001937" lon="10.688067404553294">
        <ele>0</ele>
        <time>2010-01-02T22:18:22Z</time>
      </trkpt>
      <trkpt lat="54.14182704873383" lon="10.688133118674159">
        <ele>0</ele>
        <time>2010-01-02T22:18:28Z</time>
      </trkpt>
      <trkpt lat="54.141726214438677" lon="10.688202101737261">
        <ele>0</ele>
        <time>2010-01-02T22:18:32Z</time>
      </trkpt>
      <trkpt lat="54.14164331741631" lon="10.688259853050113">
        <ele>0</ele>
        <time>2010-01-02T22:18:36Z</time>
      </trkpt>
      <trkpt lat="54.141541812568903" lon="10.688345683738589">
        <ele>0</ele>
        <time>2010-01-02T22:18:40Z</time>
      </trkpt>
      <trkpt lat="54.141442151740193" lon="10.688429921865463">
        <ele>0</ele>
        <time>2010-01-02T22:18:45Z</time>
      </trkpt>
      <trkpt lat="54.141334276646376" lon="10.688514411449432">
        <ele>0</ele>
        <time>2010-01-02T22:18:49Z</time>
      </trkpt>
      <trkpt lat="54.141295971348882" lon="10.688543161377311">
        <ele>0</ele>
        <time>2010-01-02T22:18:51Z</time>
      </trkpt>
      <trkpt lat="54.141252301633358" lon="10.688576688989997">
        <ele>0</ele>
        <time>2010-01-02T22:18:53Z</time>
      </trkpt>
      <trkpt lat="54.141129339113832" lon="10.688669309020042">
        <ele>0</ele>
        <time>2010-01-02T22:18:58Z</time>
      </trkpt>
      <trkpt lat="54.141016183421016" lon="10.688754050061107">
        <ele>0</ele>
        <time>2010-01-02T22:19:03Z</time>
      </trkpt>
      <trkpt lat="54.140855921432376" lon="10.688887657597661">
        <ele>0</ele>
        <time>2010-01-02T22:19:10Z</time>
      </trkpt>
      <trkpt lat="54.140761373564601" lon="10.688953371718526">
        <ele>0</ele>
        <time>2010-01-02T22:19:14Z</time>
      </trkpt>
      <trkpt lat="54.140682835131884" lon="10.68900634534657">
        <ele>0</ele>
        <time>2010-01-02T22:19:18Z</time>
      </trkpt>
      <trkpt lat="54.140602452680469" lon="10.689047081395984">
        <ele>0</ele>
        <time>2010-01-02T22:19:21Z</time>
      </trkpt>
      <trkpt lat="54.140517544001341" lon="10.689089577645063">
        <ele>0</ele>
        <time>2010-01-02T22:19:25Z</time>
      </trkpt>
      <trkpt lat="54.140446884557605" lon="10.689120925962925">
        <ele>0</ele>
        <time>2010-01-02T22:19:28Z</time>
      </trkpt>
      <trkpt lat="54.140383265912533" lon="10.689133582636714">
        <ele>0</ele>
        <time>2010-01-02T22:19:30Z</time>
      </trkpt>
      <trkpt lat="54.140342865139246" lon="10.689134923741221">
        <ele>0</ele>
        <time>2010-01-02T22:19:32Z</time>
      </trkpt>
      <trkpt lat="54.140290645882487" lon="10.689125871285796">
        <ele>0</ele>
        <time>2010-01-02T22:19:34Z</time>
      </trkpt>
      <trkpt lat="54.14016617462039" lon="10.689082285389304">
        <ele>0</ele>
        <time>2010-01-02T22:19:39Z</time>
      </trkpt>
      <trkpt lat="54.14004254154861" lon="10.689029647037387">
        <ele>0</ele>
        <time>2010-01-02T22:19:44Z</time>
      </trkpt>
      <trkpt lat="54.139966601505876" lon="10.688987653702497">
        <ele>0</ele>
        <time>2010-01-02T22:19:47Z</time>
      </trkpt>
      <trkpt lat="54.13987155072391" lon="10.688927890732884">
        <ele>0</ele>
        <time>2010-01-02T22:19:51Z</time>
      </trkpt>
      <trkpt lat="54.139795443043113" lon="10.688867541030049">
        <ele>0</ele>
        <time>2010-01-02T22:19:55Z</time>
      </trkpt>
      <trkpt lat="54.139710115268826" lon="10.688786068931222">
        <ele>0</ele>
        <time>2010-01-02T22:19:59Z</time>
      </trkpt>
      <trkpt lat="54.139620177447796" lon="10.688694035634398">
        <ele>0</ele>
        <time>2010-01-02T22:20:03Z</time>
      </trkpt>
      <trkpt lat="54.139539040625095" lon="10.688589513301849">
        <ele>0</ele>
        <time>2010-01-02T22:20:07Z</time>
      </trkpt>
      <trkpt lat="54.139481456950307" lon="10.688499491661787">
        <ele>0</ele>
        <time>2010-01-02T22:20:10Z</time>
      </trkpt>
      <trkpt lat="54.139444911852479" lon="10.688442494720221">
        <ele>0</ele>
        <time>2010-01-02T22:20:12Z</time>
      </trkpt>
      <trkpt lat="54.139297641813755" lon="10.688205370679498">
        <ele>0</ele>
        <time>2010-01-02T22:20:20Z</time>
      </trkpt>
      <trkpt lat="54.139272831380367" lon="10.688165221363306">
        <ele>0</ele>
        <time>2010-01-02T22:20:21Z</time>
      </trkpt>
      <trkpt lat="54.139237208291888" lon="10.688107972964644">
        <ele>0</ele>
        <time>2010-01-02T22:20:23Z</time>
      </trkpt>
      <trkpt lat="54.139193370938301" lon="10.688037313520908">
        <ele>0</ele>
        <time>2010-01-02T22:20:26Z</time>
      </trkpt>
      <trkpt lat="54.138997988775373" lon="10.687746629118919">
        <ele>0</ele>
        <time>2010-01-02T22:20:36Z</time>
      </trkpt>
      <trkpt lat="54.138890197500587" lon="10.687586283311248">
        <ele>0</ele>
        <time>2010-01-02T22:20:42Z</time>
      </trkpt>
      <trkpt lat="54.138843761757016" lon="10.687528112903237">
        <ele>0</ele>
        <time>2010-01-02T22:20:44Z</time>
      </trkpt>
      <trkpt lat="54.138791793957353" lon="10.687463907524943">
        <ele>0</ele>
        <time>2010-01-02T22:20:47Z</time>
      </trkpt>
      <trkpt lat="54.138693641871214" lon="10.687361480668187">
        <ele>0</ele>
        <time>2010-01-02T22:20:51Z</time>
      </trkpt>
      <trkpt lat="54.13853463716805" lon="10.687198201194406">
        <ele>0</ele>
        <time>2010-01-02T22:20:59Z</time>
      </trkpt>
      <trkpt lat="54.138484764844179" lon="10.687155369669199">
        <ele>0</ele>
        <time>2010-01-02T22:21:01Z</time>
      </trkpt>
      <trkpt lat="54.138416787609458" lon="10.687096361070871">
        <ele>0</ele>
        <time>2010-01-02T22:21:04Z</time>
      </trkpt>
      <trkpt lat="54.138319725170732" lon="10.687012206763029">
        <ele>0</ele>
        <time>2010-01-02T22:21:09Z</time>
      </trkpt>
      <trkpt lat="54.138093329966068" lon="10.68684951402247">
        <ele>0</ele>
        <time>2010-01-02T22:21:18Z</time>
      </trkpt>
      <trkpt lat="54.138062484562397" lon="10.686827469617128">
        <ele>0</ele>
        <time>2010-01-02T22:21:20Z</time>
      </trkpt>
      <trkpt lat="54.137903144583106" lon="10.686714733019471">
        <ele>0</ele>
        <time>2010-01-02T22:21:27Z</time>
      </trkpt>
      <trkpt lat="54.137763669714332" lon="10.686615072190762">
        <ele>0</ele>
        <time>2010-01-02T22:21:33Z</time>
      </trkpt>
      <trkpt lat="54.137601060792804" lon="10.686529912054539">
        <ele>0</ele>
        <time>2010-01-02T22:21:39Z</time>
      </trkpt>
      <trkpt lat="54.137467537075281" lon="10.686483643949032">
        <ele>0</ele>
        <time>2010-01-02T22:21:45Z</time>
      </trkpt>
      <trkpt lat="54.13732772693038" lon="10.686434525996447">
        <ele>0</ele>
        <time>2010-01-02T22:21:51Z</time>
      </trkpt>
      <trkpt lat="54.137284560129046" lon="10.686429748311639">
        <ele>0</ele>
        <time>2010-01-02T22:21:52Z</time>
      </trkpt>
      <trkpt lat="54.137229658663273" lon="10.686422372236848">
        <ele>0</ele>
        <time>2010-01-02T22:21:55Z</time>
      </trkpt>
      <trkpt lat="54.137135446071625" lon="10.686428407207131">
        <ele>0</ele>
        <time>2010-01-02T22:21:58Z</time>
      </trkpt>
      <trkpt lat="54.137132512405515" lon="10.686576934531331">
        <ele>0</ele>
        <time>2010-01-02T22:22:02Z</time>
      </trkpt>
      <trkpt lat="54.137134607881308" lon="10.686683971434832">
        <ele>0</ele>
        <time>2010-01-02T22:22:04Z</time>
      </trkpt>
      <trkpt lat="54.137148521840572" lon="10.686805928125978">
        <ele>0</ele>
        <time>2010-01-02T22:22:07Z</time>
      </trkpt>
      <trkpt lat="54.137162938714027" lon="10.686895698308945">
        <ele>0</ele>
        <time>2010-01-02T22:22:09Z</time>
      </trkpt>
      <trkpt lat="54.137168638408184" lon="10.687001142650843">
        <ele>0</ele>
        <time>2010-01-02T22:22:12Z</time>
      </trkpt>
      <trkpt lat="54.137167632579803" lon="10.687076160684228">
        <ele>0</ele>
        <time>2010-01-02T22:22:14Z</time>
      </trkpt>
      <trkpt lat="54.137154305353761" lon="10.687172971665859">
        <ele>0</ele>
        <time>2010-01-02T22:22:16Z</time>
      </trkpt>
      <trkpt lat="54.137127064168453" lon="10.687391068786383">
        <ele>0</ele>
        <time>2010-01-02T22:22:21Z</time>
      </trkpt>
      <trkpt lat="54.137109126895666" lon="10.687480419874191">
        <ele>0</ele>
        <time>2010-01-02T22:22:23Z</time>
      </trkpt>
      <trkpt lat="54.137073503807187" lon="10.687590138986707">
        <ele>0</ele>
        <time>2010-01-02T22:22:26Z</time>
      </trkpt>
      <trkpt lat="54.136959761381149" lon="10.687950309365988">
        <ele>0</ele>
        <time>2010-01-02T22:22:36Z</time>
      </trkpt>
      <trkpt lat="54.136902764439583" lon="10.688164718449116">
        <ele>0</ele>
        <time>2010-01-02T22:22:42Z</time>
      </trkpt>
      <trkpt lat="54.136854484677315" lon="10.688349874690175">
        <ele>0</ele>
        <time>2010-01-02T22:22:46Z</time>
      </trkpt>
      <trkpt lat="54.136828249320388" lon="10.688502173870802">
        <ele>0</ele>
        <time>2010-01-02T22:22:50Z</time>
      </trkpt>
      <trkpt lat="54.136812407523394" lon="10.688609797507524">
        <ele>0</ele>
        <time>2010-01-02T22:22:53Z</time>
      </trkpt>
      <trkpt lat="54.136809892952442" lon="10.688629830256104">
        <ele>0</ele>
        <time>2010-01-02T22:22:53Z</time>
      </trkpt>
      <trkpt lat="54.136798661202192" lon="10.688751032575965">
        <ele>0</ele>
        <time>2010-01-02T22:22:56Z</time>
      </trkpt>
      <trkpt lat="54.136801091954112" lon="10.688891680911183">
        <ele>0</ele>
        <time>2010-01-02T22:22:59Z</time>
      </trkpt>
      <trkpt lat="54.136810395866632" lon="10.689251013100147">
        <ele>0</ele>
        <time>2010-01-02T22:23:08Z</time>
      </trkpt>
      <trkpt lat="54.136821292340755" lon="10.689676059409976">
        <ele>0</ele>
        <time>2010-01-02T22:23:18Z</time>
      </trkpt>
      <trkpt lat="54.136818191036582" lon="10.68988879211247">
        <ele>0</ele>
        <time>2010-01-02T22:23:23Z</time>
      </trkpt>
      <trkpt lat="54.136808635666966" lon="10.690162964165211">
        <ele>0</ele>
        <time>2010-01-02T22:23:29Z</time>
      </trkpt>
      <trkpt lat="54.136793967336416" lon="10.690469490364194">
        <ele>0</ele>
        <time>2010-01-02T22:23:36Z</time>
      </trkpt>
      <trkpt lat="54.1367775388062" lon="10.690696472302079">
        <ele>0</ele>
        <time>2010-01-02T22:23:42Z</time>
      </trkpt>
      <trkpt lat="54.136771336197853" lon="10.690782302990556">
        <ele>0</ele>
        <time>2010-01-02T22:23:44Z</time>
      </trkpt>
      <trkpt lat="54.13675113581121" lon="10.691072149202228">
        <ele>0</ele>
        <time>2010-01-02T22:23:51Z</time>
      </trkpt>
      <trkpt lat="54.136704280972481" lon="10.69180958904326">
        <ele>0</ele>
        <time>2010-01-02T22:24:08Z</time>
      </trkpt>
      <trkpt lat="54.136624988168478" lon="10.693023959174752">
        <ele>0</ele>
        <time>2010-01-02T22:24:37Z</time>
      </trkpt>
      <trkpt lat="54.136583833023906" lon="10.693626534193754">
        <ele>0</ele>
        <time>2010-01-02T22:24:51Z</time>
      </trkpt>
      <trkpt lat="54.136564470827579" lon="10.693823006004095">
        <ele>0</ele>
        <time>2010-01-02T22:24:55Z</time>
      </trkpt>
      <trkpt lat="54.136549383401871" lon="10.693929037079215">
        <ele>0</ele>
        <time>2010-01-02T22:24:58Z</time>
      </trkpt>
      <trkpt lat="54.136534295976162" lon="10.694029033184052">
        <ele>0</ele>
        <time>2010-01-02T22:25:00Z</time>
      </trkpt>
      <trkpt lat="54.136510072275996" lon="10.694110840559006">
        <ele>0</ele>
        <time>2010-01-02T22:25:03Z</time>
      </trkpt>
      <trkpt lat="54.136470509693027" lon="10.694196252152324">
        <ele>0</ele>
        <time>2010-01-02T22:25:05Z</time>
      </trkpt>
      <trkpt lat="54.136447543278337" lon="10.694229109212756">
        <ele>0</ele>
        <time>2010-01-02T22:25:06Z</time>
      </trkpt>
      <trkpt lat="54.136359700933099" lon="10.694323405623436">
        <ele>0</ele>
        <time>2010-01-02T22:25:11Z</time>
      </trkpt>
      <trkpt lat="54.136179825291038" lon="10.694415187463164">
        <ele>0</ele>
        <time>2010-01-02T22:25:18Z</time>
      </trkpt>
      <trkpt lat="54.135944880545139" lon="10.694569163024426">
        <ele>0</ele>
        <time>2010-01-02T22:25:28Z</time>
      </trkpt>
      <trkpt lat="54.135861061513424" lon="10.694637726992369">
        <ele>0</ele>
        <time>2010-01-02T22:25:32Z</time>
      </trkpt>
      <trkpt lat="54.135672552511096" lon="10.694867810234427">
        <ele>0</ele>
        <time>2010-01-02T22:25:41Z</time>
      </trkpt>
      <trkpt lat="54.135657381266356" lon="10.694885244593024">
        <ele>0</ele>
        <time>2010-01-02T22:25:42Z</time>
      </trkpt>
      <trkpt lat="54.13559066131711" lon="10.694962190464139">
        <ele>0</ele>
        <time>2010-01-02T22:25:45Z</time>
      </trkpt>
      <trkpt lat="54.135552942752838" lon="10.695005441084504">
        <ele>0</ele>
        <time>2010-01-02T22:25:47Z</time>
      </trkpt>
      <trkpt lat="54.135457724332809" lon="10.695012398064137">
        <ele>0</ele>
        <time>2010-01-02T22:25:51Z</time>
      </trkpt>
      <trkpt lat="54.135336270555854" lon="10.695033352822065">
        <ele>0</ele>
        <time>2010-01-02T22:25:56Z</time>
      </trkpt>
      <trkpt lat="54.135215571150184" lon="10.695123290643096">
        <ele>0</ele>
        <time>2010-01-02T22:26:01Z</time>
      </trkpt>
      <trkpt lat="54.135059081017971" lon="10.695362174883485">
        <ele>0</ele>
        <time>2010-01-02T22:26:09Z</time>
      </trkpt>
      <trkpt lat="54.134995546191931" lon="10.695465104654431">
        <ele>0</ele>
        <time>2010-01-02T22:26:13Z</time>
      </trkpt>
      <trkpt lat="54.134938213974237" lon="10.695566358044744">
        <ele>0</ele>
        <time>2010-01-02T22:26:16Z</time>
      </trkpt>
      <trkpt lat="54.134884905070066" lon="10.695702731609344">
        <ele>0</ele>
        <time>2010-01-02T22:26:20Z</time>
      </trkpt>
      <trkpt lat="54.134830506518483" lon="10.695906411856413">
        <ele>0</ele>
        <time>2010-01-02T22:26:25Z</time>
      </trkpt>
      <trkpt lat="54.134651217609644" lon="10.696528600528836">
        <ele>0</ele>
        <time>2010-01-02T22:26:41Z</time>
      </trkpt>
      <trkpt lat="54.134617354720831" lon="10.696633709594607">
        <ele>0</ele>
        <time>2010-01-02T22:26:44Z</time>
      </trkpt>
      <trkpt lat="54.134563375264406" lon="10.696799084544182">
        <ele>0</ele>
        <time>2010-01-02T22:26:49Z</time>
      </trkpt>
      <trkpt lat="54.13448098115623" lon="10.697067892178893">
        <ele>0</ele>
        <time>2010-01-02T22:26:56Z</time>
      </trkpt>
      <trkpt lat="54.134403448551893" lon="10.697298310697079">
        <ele>0</ele>
        <time>2010-01-02T22:27:02Z</time>
      </trkpt>
      <trkpt lat="54.134317869320512" lon="10.697522861883044">
        <ele>0</ele>
        <time>2010-01-02T22:27:08Z</time>
      </trkpt>
      <trkpt lat="54.134259363636374" lon="10.697683794423938">
        <ele>0</ele>
        <time>2010-01-02T22:27:13Z</time>
      </trkpt>
      <trkpt lat="54.13416875526309" lon="10.697861071676016">
        <ele>0</ele>
        <time>2010-01-02T22:27:18Z</time>
      </trkpt>
      <trkpt lat="54.133889889344573" lon="10.69841293618083">
        <ele>0</ele>
        <time>2010-01-02T22:27:35Z</time>
      </trkpt>
      <trkpt lat="54.13386533036828" lon="10.698465742170811">
        <ele>0</ele>
        <time>2010-01-02T22:27:37Z</time>
      </trkpt>
      <trkpt lat="54.133612448349595" lon="10.699013751000166">
        <ele>0</ele>
        <time>2010-01-02T22:27:53Z</time>
      </trkpt>
      <trkpt lat="54.133415054529905" lon="10.699451370164752">
        <ele>0</ele>
        <time>2010-01-02T22:28:06Z</time>
      </trkpt>
      <trkpt lat="54.133289661258459" lon="10.699736857786775">
        <ele>0</ele>
        <time>2010-01-02T22:28:15Z</time>
      </trkpt>
      <trkpt lat="54.133231909945607" lon="10.699876332655549">
        <ele>0</ele>
        <time>2010-01-02T22:28:19Z</time>
      </trkpt>
      <trkpt lat="54.133190754801035" lon="10.699983201920986">
        <ele>0</ele>
        <time>2010-01-02T22:28:22Z</time>
      </trkpt>
      <trkpt lat="54.133169380947948" lon="10.700078755617142">
        <ele>0</ele>
        <time>2010-01-02T22:28:24Z</time>
      </trkpt>
      <trkpt lat="54.133146749809384" lon="10.70023549720645">
        <ele>0</ele>
        <time>2010-01-02T22:28:28Z</time>
      </trkpt>
      <trkpt lat="54.133103499189019" lon="10.700551997870207">
        <ele>0</ele>
        <time>2010-01-02T22:28:35Z</time>
      </trkpt>
      <trkpt lat="54.133067708462477" lon="10.700814770534635">
        <ele>0</ele>
        <time>2010-01-02T22:28:42Z</time>
      </trkpt>
      <trkpt lat="54.1330561414361" lon="10.700878640636802">
        <ele>0</ele>
        <time>2010-01-02T22:28:43Z</time>
      </trkpt>
      <trkpt lat="54.133028648793697" lon="10.701030185446143">
        <ele>0</ele>
        <time>2010-01-02T22:28:47Z</time>
      </trkpt>
      <trkpt lat="54.132977351546288" lon="10.701270410791039">
        <ele>0</ele>
        <time>2010-01-02T22:28:53Z</time>
      </trkpt>
      <trkpt lat="54.132930664345622" lon="10.701437126845121">
        <ele>0</ele>
        <time>2010-01-02T22:28:57Z</time>
      </trkpt>
      <trkpt lat="54.132902082055807" lon="10.701542068272829">
        <ele>0</ele>
        <time>2010-01-02T22:29:00Z</time>
      </trkpt>
      <trkpt lat="54.132838882505894" lon="10.701758237555623">
        <ele>0</ele>
        <time>2010-01-02T22:29:06Z</time>
      </trkpt>
      <trkpt lat="54.132758248597383" lon="10.702028470113873">
        <ele>0</ele>
        <time>2010-01-02T22:29:13Z</time>
      </trkpt>
      <trkpt lat="54.132704939693213" lon="10.702172471210361">
        <ele>0</ele>
        <time>2010-01-02T22:29:17Z</time>
      </trkpt>
      <trkpt lat="54.132614834234118" lon="10.702394088730216">
        <ele>0</ele>
        <time>2010-01-02T22:29:23Z</time>
      </trkpt>
      <trkpt lat="54.132547276094556" lon="10.70255066268146">
        <ele>0</ele>
        <time>2010-01-02T22:29:28Z</time>
      </trkpt>
      <trkpt lat="54.132460439577699" lon="10.702741602435708">
        <ele>0</ele>
        <time>2010-01-02T22:29:33Z</time>
      </trkpt>
      <trkpt lat="54.13243655115366" lon="10.702777560800314">
        <ele>0</ele>
        <time>2010-01-02T22:29:35Z</time>
      </trkpt>
      <trkpt lat="54.132386092096567" lon="10.702850986272097">
        <ele>0</ele>
        <time>2010-01-02T22:29:37Z</time>
      </trkpt>
      <trkpt lat="54.132265644147992" lon="10.70301384665072">
        <ele>0</ele>
        <time>2010-01-02T22:29:44Z</time>
      </trkpt>
      <trkpt lat="54.132157266139984" lon="10.703124320134521">
        <ele>0</ele>
        <time>2010-01-02T22:29:49Z</time>
      </trkpt>
      <trkpt lat="54.132061125710607" lon="10.70320688188076">
        <ele>0</ele>
        <time>2010-01-02T22:29:53Z</time>
      </trkpt>
      <trkpt lat="54.131980910897255" lon="10.703264465555549">
        <ele>0</ele>
        <time>2010-01-02T22:29:56Z</time>
      </trkpt>
      <trkpt lat="54.131885273382068" lon="10.703317942097783">
        <ele>0</ele>
        <time>2010-01-02T22:30:00Z</time>
      </trkpt>
      <trkpt lat="54.131762562319636" lon="10.703353900462389">
        <ele>0</ele>
        <time>2010-01-02T22:30:05Z</time>
      </trkpt>
      <trkpt lat="54.131555529311299" lon="10.703398659825325">
        <ele>0</ele>
        <time>2010-01-02T22:30:14Z</time>
      </trkpt>
      <trkpt lat="54.131390741094947" lon="10.703446604311466">
        <ele>0</ele>
        <time>2010-01-02T22:30:20Z</time>
      </trkpt>
      <trkpt lat="54.131248500198126" lon="10.703507624566555">
        <ele>0</ele>
        <time>2010-01-02T22:30:26Z</time>
      </trkpt>
      <trkpt lat="54.131104834377766" lon="10.703597813844681">
        <ele>0</ele>
        <time>2010-01-02T22:30:32Z</time>
      </trkpt>
      <trkpt lat="54.130981955677271" lon="10.703698061406612">
        <ele>0</ele>
        <time>2010-01-02T22:30:38Z</time>
      </trkpt>
      <trkpt lat="54.130794033408165" lon="10.703853880986571">
        <ele>0</ele>
        <time>2010-01-02T22:30:46Z</time>
      </trkpt>
      <trkpt lat="54.130450207740068" lon="10.704129226505756">
        <ele>0</ele>
        <time>2010-01-02T22:31:01Z</time>
      </trkpt>
      <trkpt lat="54.130066987127066" lon="10.704425778239965">
        <ele>0</ele>
        <time>2010-01-02T22:31:18Z</time>
      </trkpt>
      <trkpt lat="54.129754928871989" lon="10.704645048826933">
        <ele>0</ele>
        <time>2010-01-02T22:31:32Z</time>
      </trkpt>
      <trkpt lat="54.129657447338104" lon="10.704690897837281">
        <ele>0</ele>
        <time>2010-01-02T22:31:36Z</time>
      </trkpt>
      <trkpt lat="54.129484109580517" lon="10.704778991639614">
        <ele>0</ele>
        <time>2010-01-02T22:31:43Z</time>
      </trkpt>
      <trkpt lat="54.129321333020926" lon="10.704848309978843">
        <ele>0</ele>
        <time>2010-01-02T22:31:50Z</time>
      </trkpt>
      <trkpt lat="54.129152940586209" lon="10.704899439588189">
        <ele>0</ele>
        <time>2010-01-02T22:31:57Z</time>
      </trkpt>
      <trkpt lat="54.128972729668021" lon="10.704934140667319">
        <ele>0</ele>
        <time>2010-01-02T22:32:04Z</time>
      </trkpt>
      <trkpt lat="54.128950349986553" lon="10.704939421266317">
        <ele>0</ele>
        <time>2010-01-02T22:32:05Z</time>
      </trkpt>
      <trkpt lat="54.128720937296748" lon="10.704997004941106">
        <ele>0</ele>
        <time>2010-01-02T22:32:14Z</time>
      </trkpt>
      <trkpt lat="54.128539804369211" lon="10.705030700191855">
        <ele>0</ele>
        <time>2010-01-02T22:32:21Z</time>
      </trkpt>
      <trkpt lat="54.128383817151189" lon="10.705059533938766">
        <ele>0</ele>
        <time>2010-01-02T22:32:28Z</time>
      </trkpt>
      <trkpt lat="54.128191117197275" lon="10.705103790387511">
        <ele>0</ele>
        <time>2010-01-02T22:32:35Z</time>
      </trkpt>
      <trkpt lat="54.128149794414639" lon="10.705110412091017">
        <ele>0</ele>
        <time>2010-01-02T22:32:37Z</time>
      </trkpt>
      <trkpt lat="54.128037728369236" lon="10.705128433182836">
        <ele>0</ele>
        <time>2010-01-02T22:32:42Z</time>
      </trkpt>
      <trkpt lat="54.127965979278088" lon="10.705139916390181">
        <ele>0</ele>
        <time>2010-01-02T22:32:44Z</time>
      </trkpt>
      <trkpt lat="54.127853829413652" lon="10.705157183110714">
        <ele>0</ele>
        <time>2010-01-02T22:32:49Z</time>
      </trkpt>
      <trkpt lat="54.127839496359229" lon="10.705159110948443">
        <ele>0</ele>
        <time>2010-01-02T22:32:50Z</time>
      </trkpt>
      <trkpt lat="54.127601617947221" lon="10.705178808420897">
        <ele>0</ele>
        <time>2010-01-02T22:32:59Z</time>
      </trkpt>
      <trkpt lat="54.127312442287803" lon="10.705193895846605">
        <ele>0</ele>
        <time>2010-01-02T22:33:11Z</time>
      </trkpt>
      <trkpt lat="54.12713835015893" lon="10.705214599147439">
        <ele>0</ele>
        <time>2010-01-02T22:33:18Z</time>
      </trkpt>
      <trkpt lat="54.12712175399065" lon="10.705217281356454">
        <ele>0</ele>
        <time>2010-01-02T22:33:18Z</time>
      </trkpt>
      <trkpt lat="54.127002898603678" lon="10.705235721543431">
        <ele>0</ele>
        <time>2010-01-02T22:33:23Z</time>
      </trkpt>
      <trkpt lat="54.126900974661112" lon="10.70527863688767">
        <ele>0</ele>
        <time>2010-01-02T22:33:27Z</time>
      </trkpt>
      <trkpt lat="54.126826962456107" lon="10.705334460362792">
        <ele>0</ele>
        <time>2010-01-02T22:33:31Z</time>
      </trkpt>
      <trkpt lat="54.12676309235394" lon="10.70541450753808">
        <ele>0</ele>
        <time>2010-01-02T22:33:34Z</time>
      </trkpt>
      <trkpt lat="54.126715650781989" lon="10.705512324348092">
        <ele>0</ele>
        <time>2010-01-02T22:33:37Z</time>
      </trkpt>
      <trkpt lat="54.126647422090173" lon="10.705685829743743">
        <ele>0</ele>
        <time>2010-01-02T22:33:42Z</time>
      </trkpt>
      <trkpt lat="54.12660039961338" lon="10.705826478078961">
        <ele>0</ele>
        <time>2010-01-02T22:33:45Z</time>
      </trkpt>
      <trkpt lat="54.12653443403542" lon="10.705956984311342">
        <ele>0</ele>
        <time>2010-01-02T22:33:49Z</time>
      </trkpt>
      <trkpt lat="54.126454722136259" lon="10.706062009558082">
        <ele>0</ele>
        <time>2010-01-02T22:33:53Z</time>
      </trkpt>
      <trkpt lat="54.126332513988018" lon="10.706224869936705">
        <ele>0</ele>
        <time>2010-01-02T22:34:00Z</time>
      </trkpt>
      <trkpt lat="54.126229081302881" lon="10.706381108611822">
        <ele>0</ele>
        <time>2010-01-02T22:34:05Z</time>
      </trkpt>
      <trkpt lat="54.125991957262158" lon="10.70672501809895">
        <ele>0</ele>
        <time>2010-01-02T22:34:18Z</time>
      </trkpt>
      <trkpt lat="54.125854913145304" lon="10.70693121291697">
        <ele>0</ele>
        <time>2010-01-02T22:34:25Z</time>
      </trkpt>
      <trkpt lat="54.125763801857829" lon="10.707064066082239">
        <ele>0</ele>
        <time>2010-01-02T22:34:30Z</time>
      </trkpt>
      <trkpt lat="54.125754917040467" lon="10.707075046375394">
        <ele>0</ele>
        <time>2010-01-02T22:34:30Z</time>
      </trkpt>
      <trkpt lat="54.125656429678202" lon="10.707194320857525">
        <ele>0</ele>
        <time>2010-01-02T22:34:35Z</time>
      </trkpt>
      <trkpt lat="54.125556014478207" lon="10.707298424094915">
        <ele>0</ele>
        <time>2010-01-02T22:34:40Z</time>
      </trkpt>
      <trkpt lat="54.125342108309269" lon="10.707540661096573">
        <ele>0</ele>
        <time>2010-01-02T22:34:50Z</time>
      </trkpt>
      <trkpt lat="54.125158209353685" lon="10.707736043259501">
        <ele>0</ele>
        <time>2010-01-02T22:34:59Z</time>
      </trkpt>
      <trkpt lat="54.125011693686247" lon="10.707899741828442">
        <ele>0</ele>
        <time>2010-01-02T22:35:06Z</time>
      </trkpt>
      <trkpt lat="54.124962911009789" lon="10.707954727113247">
        <ele>0</ele>
        <time>2010-01-02T22:35:08Z</time>
      </trkpt>
      <trkpt lat="54.124852688983083" lon="10.70806528441608">
        <ele>0</ele>
        <time>2010-01-02T22:35:13Z</time>
      </trkpt>
      <trkpt lat="54.12473676726222" lon="10.708151450380683">
        <ele>0</ele>
        <time>2010-01-02T22:35:18Z</time>
      </trkpt>
      <trkpt lat="54.124600058421493" lon="10.708218421787024">
        <ele>0</ele>
        <time>2010-01-02T22:35:24Z</time>
      </trkpt>
      <trkpt lat="54.124452788382769" lon="10.708313221111894">
        <ele>0</ele>
        <time>2010-01-02T22:35:30Z</time>
      </trkpt>
      <trkpt lat="54.124330747872591" lon="10.708405757322907">
        <ele>0</ele>
        <time>2010-01-02T22:35:36Z</time>
      </trkpt>
      <trkpt lat="54.124235445633531" lon="10.708489827811718">
        <ele>0</ele>
        <time>2010-01-02T22:35:40Z</time>
      </trkpt>
      <trkpt lat="54.124138718470931" lon="10.708598373457789">
        <ele>0</ele>
        <time>2010-01-02T22:35:45Z</time>
      </trkpt>
      <trkpt lat="54.12385038100183" lon="10.708943791687489">
        <ele>0</ele>
        <time>2010-01-02T22:35:59Z</time>
      </trkpt>
      <trkpt lat="54.123588614165783" lon="10.709248725324869">
        <ele>0</ele>
        <time>2010-01-02T22:36:11Z</time>
      </trkpt>
      <trkpt lat="54.123110007494688" lon="10.709464559331536">
        <ele>0</ele>
        <time>2010-01-02T22:36:31Z</time>
      </trkpt>
      <trkpt lat="54.12264883518219" lon="10.709672514349222">
        <ele>0</ele>
        <time>2010-01-02T22:36:50Z</time>
      </trkpt>
      <trkpt lat="54.122591754421592" lon="10.709712579846382">
        <ele>0</ele>
        <time>2010-01-02T22:36:53Z</time>
      </trkpt>
      <trkpt lat="54.122533751651645" lon="10.70975105278194">
        <ele>0</ele>
        <time>2010-01-02T22:36:55Z</time>
      </trkpt>
      <trkpt lat="54.122264944016933" lon="10.709982728585601">
        <ele>0</ele>
        <time>2010-01-02T22:37:07Z</time>
      </trkpt>
      <trkpt lat="54.122101999819279" lon="10.71012387983501">
        <ele>0</ele>
        <time>2010-01-02T22:37:15Z</time>
      </trkpt>
      <trkpt lat="54.122048355638981" lon="10.710228066891432">
        <ele>0</ele>
        <time>2010-01-02T22:37:18Z</time>
      </trkpt>
      <trkpt lat="54.122001752257347" lon="10.710328901186585">
        <ele>0</ele>
        <time>2010-01-02T22:37:21Z</time>
      </trkpt>
      <trkpt lat="54.121958166360855" lon="10.710451109334826">
        <ele>0</ele>
        <time>2010-01-02T22:37:24Z</time>
      </trkpt>
      <trkpt lat="54.121922291815281" lon="10.710539370775223">
        <ele>0</ele>
        <time>2010-01-02T22:37:27Z</time>
      </trkpt>
      <trkpt lat="54.121862361207604" lon="10.710652945563197">
        <ele>0</ele>
        <time>2010-01-02T22:37:30Z</time>
      </trkpt>
      <trkpt lat="54.122056066989899" lon="10.711452998220921">
        <ele>0</ele>
        <time>2010-01-02T22:37:51Z</time>
      </trkpt>
      <trkpt lat="54.122067717835307" lon="10.711539834737778">
        <ele>0</ele>
        <time>2010-01-02T22:37:53Z</time>
      </trkpt>
      <trkpt lat="54.122075848281384" lon="10.711622145026922">
        <ele>0</ele>
        <time>2010-01-02T22:37:55Z</time>
      </trkpt>
      <trkpt lat="54.122091941535473" lon="10.712037719786167">
        <ele>0</ele>
        <time>2010-01-02T22:38:04Z</time>
      </trkpt>
      <trkpt lat="54.121946347877383" lon="10.712118688970804">
        <ele>0</ele>
        <time>2010-01-02T22:38:11Z</time>
      </trkpt>
      <trkpt lat="54.121805280447006" lon="10.712197981774807">
        <ele>0</ele>
        <time>2010-01-02T22:38:16Z</time>
      </trkpt>
      <trkpt lat="54.1217399854213" lon="10.712230587378144">
        <ele>0</ele>
        <time>2010-01-02T22:38:19Z</time>
      </trkpt>
      <trkpt lat="54.121701512485743" lon="10.712240980938077">
        <ele>0</ele>
        <time>2010-01-02T22:38:21Z</time>
      </trkpt>
      <trkpt lat="54.121657507494092" lon="10.712242322042584">
        <ele>0</ele>
        <time>2010-01-02T22:38:23Z</time>
      </trkpt>
      <trkpt lat="54.121604282408953" lon="10.712228743359447">
        <ele>0</ele>
        <time>2010-01-02T22:38:25Z</time>
      </trkpt>
      <trkpt lat="54.121073959395289" lon="10.712037133052945">
        <ele>0</ele>
        <time>2010-01-02T22:38:46Z</time>
      </trkpt>
      <trkpt lat="54.121038084849715" lon="10.712041324004531">
        <ele>0</ele>
        <time>2010-01-02T22:38:48Z</time>
      </trkpt>
      <trkpt lat="54.121010424569249" lon="10.712062027305365">
        <ele>0</ele>
        <time>2010-01-02T22:38:49Z</time>
      </trkpt>
      <trkpt lat="54.120983770117164" lon="10.712093459442258">
        <ele>0</ele>
        <time>2010-01-02T22:38:50Z</time>
      </trkpt>
      <trkpt lat="54.120956445112824" lon="10.712137129157782">
        <ele>0</ele>
        <time>2010-01-02T22:38:52Z</time>
      </trkpt>
      <trkpt lat="54.120825855061412" lon="10.712364530190825">
        <ele>0</ele>
        <time>2010-01-02T22:38:59Z</time>
      </trkpt>
      <trkpt lat="54.120600046589971" lon="10.712755378335714">
        <ele>0</ele>
        <time>2010-01-02T22:39:12Z</time>
      </trkpt>
      <trkpt lat="54.120550844818354" lon="10.712862415239215">
        <ele>0</ele>
        <time>2010-01-02T22:39:15Z</time>
      </trkpt>
      <trkpt lat="54.120509773492813" lon="10.712964674457908">
        <ele>0</ele>
        <time>2010-01-02T22:39:18Z</time>
      </trkpt>
      <trkpt lat="54.120199056342244" lon="10.713740587234497">
        <ele>0</ele>
        <time>2010-01-02T22:39:40Z</time>
      </trkpt>
      <trkpt lat="54.120154799893498" lon="10.713884169235826">
        <ele>0</ele>
        <time>2010-01-02T22:39:44Z</time>
      </trkpt>
      <trkpt lat="54.120076764374971" lon="10.714148115366697">
        <ele>0</ele>
        <time>2010-01-02T22:39:51Z</time>
      </trkpt>
      <trkpt lat="54.119993364438415" lon="10.714416839182377">
        <ele>0</ele>
        <time>2010-01-02T22:39:58Z</time>
      </trkpt>
      <trkpt lat="54.119946593418717" lon="10.714581962674856">
        <ele>0</ele>
        <time>2010-01-02T22:40:02Z</time>
      </trkpt>
      <trkpt lat="54.119909713044763" lon="10.71474825963378">
        <ele>0</ele>
        <time>2010-01-02T22:40:07Z</time>
      </trkpt>
      <trkpt lat="54.119873000308871" lon="10.714926794171333">
        <ele>0</ele>
        <time>2010-01-02T22:40:11Z</time>
      </trkpt>
      <trkpt lat="54.11983972415328" lon="10.715093007311225">
        <ele>0</ele>
        <time>2010-01-02T22:40:15Z</time>
      </trkpt>
      <trkpt lat="54.119819104671478" lon="10.715176239609718">
        <ele>0</ele>
        <time>2010-01-02T22:40:17Z</time>
      </trkpt>
      <trkpt lat="54.119778200984001" lon="10.715307500213385">
        <ele>0</ele>
        <time>2010-01-02T22:40:21Z</time>
      </trkpt>
      <trkpt lat="54.119716007262468" lon="10.715456278994679">
        <ele>0</ele>
        <time>2010-01-02T22:40:25Z</time>
      </trkpt>
      <trkpt lat="54.119605617597699" lon="10.715716620907187">
        <ele>0</ele>
        <time>2010-01-02T22:40:33Z</time>
      </trkpt>
      <trkpt lat="54.119459101930261" lon="10.71604996919632">
        <ele>0</ele>
        <time>2010-01-02T22:40:42Z</time>
      </trkpt>
      <trkpt lat="54.1193310264498" lon="10.716339983046055">
        <ele>0</ele>
        <time>2010-01-02T22:40:51Z</time>
      </trkpt>
      <trkpt lat="54.119163053110242" lon="10.716680120676756">
        <ele>0</ele>
        <time>2010-01-02T22:41:01Z</time>
      </trkpt>
      <trkpt lat="54.118995498865843" lon="10.717061497271061">
        <ele>0</ele>
        <time>2010-01-02T22:41:13Z</time>
      </trkpt>
      <trkpt lat="54.118818389251828" lon="10.717476904392242">
        <ele>0</ele>
        <time>2010-01-02T22:41:25Z</time>
      </trkpt>
      <trkpt lat="54.118729960173368" lon="10.717695252969861">
        <ele>0</ele>
        <time>2010-01-02T22:41:31Z</time>
      </trkpt>
      <trkpt lat="54.118648152798414" lon="10.717855347320437">
        <ele>0</ele>
        <time>2010-01-02T22:41:36Z</time>
      </trkpt>
      <trkpt lat="54.118574811145663" lon="10.717975376173854">
        <ele>0</ele>
        <time>2010-01-02T22:41:40Z</time>
      </trkpt>
      <trkpt lat="54.118509348481894" lon="10.718069169670343">
        <ele>0</ele>
        <time>2010-01-02T22:41:43Z</time>
      </trkpt>
      <trkpt lat="54.11844614893198" lon="10.718127675354481">
        <ele>0</ele>
        <time>2010-01-02T22:41:46Z</time>
      </trkpt>
      <trkpt lat="54.118378423154354" lon="10.718175619840622">
        <ele>0</ele>
        <time>2010-01-02T22:41:49Z</time>
      </trkpt>
      <trkpt lat="54.118263004347682" lon="10.718222055584192">
        <ele>0</ele>
        <time>2010-01-02T22:41:54Z</time>
      </trkpt>
      <trkpt lat="54.118165522813797" lon="10.718261701986194">
        <ele>0</ele>
        <time>2010-01-02T22:41:58Z</time>
      </trkpt>
      <trkpt lat="54.118080362677574" lon="10.718284249305725">
        <ele>0</ele>
        <time>2010-01-02T22:42:01Z</time>
      </trkpt>
      <trkpt lat="54.11797801963985" lon="10.718290451914072">
        <ele>0</ele>
        <time>2010-01-02T22:42:05Z</time>
      </trkpt>
      <trkpt lat="54.117856733500957" lon="10.718289613723755">
        <ele>0</ele>
        <time>2010-01-02T22:42:10Z</time>
      </trkpt>
      <trkpt lat="54.117695717141032" lon="10.718277711421251">
        <ele>0</ele>
        <time>2010-01-02T22:42:17Z</time>
      </trkpt>
      <trkpt lat="54.117502262815833" lon="10.718251559883356">
        <ele>0</ele>
        <time>2010-01-02T22:42:25Z</time>
      </trkpt>
      <trkpt lat="54.117279220372438" lon="10.718227922916412">
        <ele>0</ele>
        <time>2010-01-02T22:42:33Z</time>
      </trkpt>
      <trkpt lat="54.117013849318027" lon="10.7182009331882">
        <ele>0</ele>
        <time>2010-01-02T22:42:44Z</time>
      </trkpt>
      <trkpt lat="54.11682047881186" lon="10.718182409182191">
        <ele>0</ele>
        <time>2010-01-02T22:42:52Z</time>
      </trkpt>
      <trkpt lat="54.116623671725392" lon="10.718179307878017">
        <ele>0</ele>
        <time>2010-01-02T22:43:00Z</time>
      </trkpt>
      <trkpt lat="54.116400126367807" lon="10.718192299827933">
        <ele>0</ele>
        <time>2010-01-02T22:43:09Z</time>
      </trkpt>
      <trkpt lat="54.116008607670665" lon="10.718211997300386">
        <ele>0</ele>
        <time>2010-01-02T22:43:24Z</time>
      </trkpt>
      <trkpt lat="54.115798473358154" lon="10.718224653974175">
        <ele>0</ele>
        <time>2010-01-02T22:43:33Z</time>
      </trkpt>
      <trkpt lat="54.115562438964844" lon="10.718250218778849">
        <ele>0</ele>
        <time>2010-01-02T22:43:42Z</time>
      </trkpt>
      <trkpt lat="54.115445930510759" lon="10.718279890716076">
        <ele>0</ele>
        <time>2010-01-02T22:43:47Z</time>
      </trkpt>
      <trkpt lat="54.115318106487393" lon="10.718338815495372">
        <ele>0</ele>
        <time>2010-01-02T22:43:52Z</time>
      </trkpt>
      <trkpt lat="54.11520411260426" lon="10.71843110024929">
        <ele>0</ele>
        <time>2010-01-02T22:43:57Z</time>
      </trkpt>
      <trkpt lat="54.115107385441661" lon="10.718545680865645">
        <ele>0</ele>
        <time>2010-01-02T22:44:02Z</time>
      </trkpt>
      <trkpt lat="54.115037731826305" lon="10.718667134642601">
        <ele>0</ele>
        <time>2010-01-02T22:44:06Z</time>
      </trkpt>
      <trkpt lat="54.11497101187706" lon="10.718814488500357">
        <ele>0</ele>
        <time>2010-01-02T22:44:10Z</time>
      </trkpt>
      <trkpt lat="54.114883337169886" lon="10.719019006937742">
        <ele>0</ele>
        <time>2010-01-02T22:44:16Z</time>
      </trkpt>
      <trkpt lat="54.114837069064379" lon="10.719151943922043">
        <ele>0</ele>
        <time>2010-01-02T22:44:20Z</time>
      </trkpt>
      <trkpt lat="54.114806894212961" lon="10.719272140413523">
        <ele>0</ele>
        <time>2010-01-02T22:44:23Z</time>
      </trkpt>
      <trkpt lat="54.114791052415967" lon="10.719384290277958">
        <ele>0</ele>
        <time>2010-01-02T22:44:26Z</time>
      </trkpt>
      <trkpt lat="54.114788034930825" lon="10.719522004947066">
        <ele>0</ele>
        <time>2010-01-02T22:44:29Z</time>
      </trkpt>
      <trkpt lat="54.114800775423646" lon="10.719622587785125">
        <ele>0</ele>
        <time>2010-01-02T22:44:31Z</time>
      </trkpt>
      <trkpt lat="54.114826172590256" lon="10.719731887802482">
        <ele>0</ele>
        <time>2010-01-02T22:44:34Z</time>
      </trkpt>
      <trkpt lat="54.114860873669386" lon="10.719863902777433">
        <ele>0</ele>
        <time>2010-01-02T22:44:38Z</time>
      </trkpt>
      <trkpt lat="54.114907728508115" lon="10.720048975199461">
        <ele>0</ele>
        <time>2010-01-02T22:44:42Z</time>
      </trkpt>
      <trkpt lat="54.114926420152187" lon="10.720120305195451">
        <ele>0</ele>
        <time>2010-01-02T22:44:44Z</time>
      </trkpt>
      <trkpt lat="54.114982495084405" lon="10.720403026789427">
        <ele>0</ele>
        <time>2010-01-02T22:44:51Z</time>
      </trkpt>
      <trkpt lat="54.115036306902766" lon="10.720731681212783">
        <ele>0</ele>
        <time>2010-01-02T22:44:59Z</time>
      </trkpt>
      <trkpt lat="54.115063548088074" lon="10.720932763069868">
        <ele>0</ele>
        <time>2010-01-02T22:45:04Z</time>
      </trkpt>
      <trkpt lat="54.115097243338823" lon="10.721226884052157">
        <ele>0</ele>
        <time>2010-01-02T22:45:11Z</time>
      </trkpt>
      <trkpt lat="54.11512347869575" lon="10.721493680030107">
        <ele>0</ele>
        <time>2010-01-02T22:45:17Z</time>
      </trkpt>
      <trkpt lat="54.115144014358521" lon="10.721742287278175">
        <ele>0</ele>
        <time>2010-01-02T22:45:23Z</time>
      </trkpt>
      <trkpt lat="54.115165723487735" lon="10.722093405202031">
        <ele>0</ele>
        <time>2010-01-02T22:45:32Z</time>
      </trkpt>
      <trkpt lat="54.115171004086733" lon="10.72233178652823">
        <ele>0</ele>
        <time>2010-01-02T22:45:37Z</time>
      </trkpt>
      <trkpt lat="54.115160694345832" lon="10.722552314400673">
        <ele>0</ele>
        <time>2010-01-02T22:45:42Z</time>
      </trkpt>
      <trkpt lat="54.115159101784229" lon="10.722569162026048">
        <ele>0</ele>
        <time>2010-01-02T22:45:43Z</time>
      </trkpt>
      <trkpt lat="54.115143092349172" lon="10.722756246104836">
        <ele>0</ele>
        <time>2010-01-02T22:45:47Z</time>
      </trkpt>
      <trkpt lat="54.115109816193581" lon="10.722922459244728">
        <ele>0</ele>
        <time>2010-01-02T22:45:51Z</time>
      </trkpt>
      <trkpt lat="54.115045024082065" lon="10.72316151112318">
        <ele>0</ele>
        <time>2010-01-02T22:45:57Z</time>
      </trkpt>
      <trkpt lat="54.114970173686743" lon="10.723480358719826">
        <ele>0</ele>
        <time>2010-01-02T22:46:05Z</time>
      </trkpt>
      <trkpt lat="54.114926755428314" lon="10.72370340116322">
        <ele>0</ele>
        <time>2010-01-02T22:46:11Z</time>
      </trkpt>
      <trkpt lat="54.114903369918466" lon="10.723954942077398">
        <ele>0</ele>
        <time>2010-01-02T22:46:17Z</time>
      </trkpt>
      <trkpt lat="54.114902950823307" lon="10.724173625931144">
        <ele>0</ele>
        <time>2010-01-02T22:46:22Z</time>
      </trkpt>
      <trkpt lat="54.114905716851354" lon="10.724435057491064">
        <ele>0</ele>
        <time>2010-01-02T22:46:28Z</time>
      </trkpt>
      <trkpt lat="54.114914098754525" lon="10.72480034083128">
        <ele>0</ele>
        <time>2010-01-02T22:46:37Z</time>
      </trkpt>
      <trkpt lat="54.114915691316128" lon="10.725032687187195">
        <ele>0</ele>
        <time>2010-01-02T22:46:42Z</time>
      </trkpt>
      <trkpt lat="54.114916194230318" lon="10.725078620016575">
        <ele>0</ele>
        <time>2010-01-02T22:46:43Z</time>
      </trkpt>
      <trkpt lat="54.114915020763874" lon="10.725395204499364">
        <ele>0</ele>
        <time>2010-01-02T22:46:51Z</time>
      </trkpt>
      <trkpt lat="54.114918960258365" lon="10.725849252194166">
        <ele>0</ele>
        <time>2010-01-02T22:47:01Z</time>
      </trkpt>
      <trkpt lat="54.114921893924475" lon="10.726295756176114">
        <ele>0</ele>
        <time>2010-01-02T22:47:12Z</time>
      </trkpt>
      <trkpt lat="54.114926503971219" lon="10.726647293195128">
        <ele>0</ele>
        <time>2010-01-02T22:47:20Z</time>
      </trkpt>
      <trkpt lat="54.114926671609282" lon="10.727008217945695">
        <ele>0</ele>
        <time>2010-01-02T22:47:29Z</time>
      </trkpt>
      <trkpt lat="54.114925665780902" lon="10.727424211800098">
        <ele>0</ele>
        <time>2010-01-02T22:47:38Z</time>
      </trkpt>
      <trkpt lat="54.114925665780902" lon="10.727763678878546">
        <ele>0</ele>
        <time>2010-01-02T22:47:46Z</time>
      </trkpt>
      <trkpt lat="54.114925917237997" lon="10.727785136550665">
        <ele>0</ele>
        <time>2010-01-02T22:47:47Z</time>
      </trkpt>
      <trkpt lat="54.114937651902437" lon="10.728041706606746">
        <ele>0</ele>
        <time>2010-01-02T22:47:53Z</time>
      </trkpt>
      <trkpt lat="54.114939328283072" lon="10.728370444849133">
        <ele>0</ele>
        <time>2010-01-02T22:48:01Z</time>
      </trkpt>
      <trkpt lat="54.114931281656027" lon="10.728549566119909">
        <ele>0</ele>
        <time>2010-01-02T22:48:05Z</time>
      </trkpt>
      <trkpt lat="54.114911332726479" lon="10.728787276893854">
        <ele>0</ele>
        <time>2010-01-02T22:48:10Z</time>
      </trkpt>
      <trkpt lat="54.114887192845345" lon="10.728970002382994">
        <ele>0</ele>
        <time>2010-01-02T22:48:15Z</time>
      </trkpt>
      <trkpt lat="54.114855425432324" lon="10.729278288781643">
        <ele>0</ele>
        <time>2010-01-02T22:48:22Z</time>
      </trkpt>
      <trkpt lat="54.114837655797601" lon="10.729552628472447">
        <ele>0</ele>
        <time>2010-01-02T22:48:29Z</time>
      </trkpt>
      <trkpt lat="54.114816952496767" lon="10.729807103052735">
        <ele>0</ele>
        <time>2010-01-02T22:48:35Z</time>
      </trkpt>
      <trkpt lat="54.114806223660707" lon="10.729978680610657">
        <ele>0</ele>
        <time>2010-01-02T22:48:39Z</time>
      </trkpt>
      <trkpt lat="54.114799350500107" lon="10.730263330042362">
        <ele>0</ele>
        <time>2010-01-02T22:48:45Z</time>
      </trkpt>
      <trkpt lat="54.114811420440674" lon="10.730470949783921">
        <ele>0</ele>
        <time>2010-01-02T22:48:50Z</time>
      </trkpt>
      <trkpt lat="54.114831034094095" lon="10.730713522061706">
        <ele>0</ele>
        <time>2010-01-02T22:48:56Z</time>
      </trkpt>
      <trkpt lat="54.114835476502776" lon="10.730794491246343">
        <ele>0</ele>
        <time>2010-01-02T22:48:58Z</time>
      </trkpt>
      <trkpt lat="54.114865064620972" lon="10.731380805373192">
        <ele>0</ele>
        <time>2010-01-02T22:49:12Z</time>
      </trkpt>
      <trkpt lat="54.114878391847014" lon="10.731710717082024">
        <ele>0</ele>
        <time>2010-01-02T22:49:20Z</time>
      </trkpt>
      <trkpt lat="54.114887863397598" lon="10.731930658221245">
        <ele>0</ele>
        <time>2010-01-02T22:49:25Z</time>
      </trkpt>
      <trkpt lat="54.114906806498766" lon="10.732109025120735">
        <ele>0</ele>
        <time>2010-01-02T22:49:29Z</time>
      </trkpt>
      <trkpt lat="54.114935891702771" lon="10.732308430597186">
        <ele>0</ele>
        <time>2010-01-02T22:49:34Z</time>
      </trkpt>
      <trkpt lat="54.114974616095424" lon="10.732573382556438">
        <ele>0</ele>
        <time>2010-01-02T22:49:40Z</time>
      </trkpt>
      <trkpt lat="54.115014094859362" lon="10.732819894328713">
        <ele>0</ele>
        <time>2010-01-02T22:49:46Z</time>
      </trkpt>
      <trkpt lat="54.115043934434652" lon="10.733098844066262">
        <ele>0</ele>
        <time>2010-01-02T22:49:53Z</time>
      </trkpt>
      <trkpt lat="54.115071007981896" lon="10.733364131301641">
        <ele>0</ele>
        <time>2010-01-02T22:49:59Z</time>
      </trkpt>
      <trkpt lat="54.115097243338823" lon="10.733641656115651">
        <ele>0</ele>
        <time>2010-01-02T22:50:06Z</time>
      </trkpt>
      <trkpt lat="54.115055166184902" lon="10.733649032190442">
        <ele>0</ele>
        <time>2010-01-02T22:50:07Z</time>
      </trkpt>
      <trkpt lat="54.114997247233987" lon="10.733701251447201">
        <ele>0</ele>
        <time>2010-01-02T22:50:10Z</time>
      </trkpt>
      <trkpt lat="54.11491435021162" lon="10.733761936426163">
        <ele>0</ele>
        <time>2010-01-02T22:50:14Z</time>
      </trkpt>
      <trkpt lat="54.114825753495097" lon="10.733795212581754">
        <ele>0</ele>
        <time>2010-01-02T22:50:17Z</time>
      </trkpt>
      <trkpt lat="54.114728858694434" lon="10.733807366341352">
        <ele>0</ele>
        <time>2010-01-02T22:50:21Z</time>
      </trkpt>
      <trkpt lat="54.114569099619985" lon="10.733827482908964">
        <ele>0</ele>
        <time>2010-01-02T22:50:28Z</time>
      </trkpt>
      <trkpt lat="54.114460805431008" lon="10.73386293835938">
        <ele>0</ele>
        <time>2010-01-02T22:50:32Z</time>
      </trkpt>
      <trkpt lat="54.114375812932849" lon="10.733899148181081">
        <ele>0</ele>
        <time>2010-01-02T22:50:36Z</time>
      </trkpt>
      <trkpt lat="54.114314122125506" lon="10.733931586146355">
        <ele>0</ele>
        <time>2010-01-02T22:50:38Z</time>
      </trkpt>
      <trkpt lat="54.114304315298796" lon="10.733936531469226">
        <ele>0</ele>
        <time>2010-01-02T22:50:39Z</time>
      </trkpt>
      <trkpt lat="54.114238349720836" lon="10.73398900218308">
        <ele>0</ele>
        <time>2010-01-02T22:50:41Z</time>
      </trkpt>
      <trkpt lat="54.114124523475766" lon="10.73414976708591">
        <ele>0</ele>
        <time>2010-01-02T22:50:47Z</time>
      </trkpt>
      <trkpt lat="54.114026958122849" lon="10.734304329380393">
        <ele>0</ele>
        <time>2010-01-02T22:50:53Z</time>
      </trkpt>
      <trkpt lat="54.113978091627359" lon="10.734441876411438">
        <ele>0</ele>
        <time>2010-01-02T22:50:56Z</time>
      </trkpt>
      <trkpt lat="54.113939283415675" lon="10.734594510868192">
        <ele>0</ele>
        <time>2010-01-02T22:51:00Z</time>
      </trkpt>
      <trkpt lat="54.113911371678114" lon="10.734765082597733">
        <ele>0</ele>
        <time>2010-01-02T22:51:05Z</time>
      </trkpt>
      <trkpt lat="54.113891674205661" lon="10.734938504174352">
        <ele>0</ele>
        <time>2010-01-02T22:51:09Z</time>
      </trkpt>
      <trkpt lat="54.113864013925195" lon="10.735217621549964">
        <ele>0</ele>
        <time>2010-01-02T22:51:15Z</time>
      </trkpt>
      <trkpt lat="54.113850854337215" lon="10.735418368130922">
        <ele>0</ele>
        <time>2010-01-02T22:51:20Z</time>
      </trkpt>
      <trkpt lat="54.113846328109503" lon="10.735461618751287">
        <ele>0</ele>
        <time>2010-01-02T22:51:21Z</time>
      </trkpt>
      <trkpt lat="54.113829648122191" lon="10.735617857426405">
        <ele>0</ele>
        <time>2010-01-02T22:51:25Z</time>
      </trkpt>
      <trkpt lat="54.113797210156918" lon="10.735783986747265">
        <ele>0</ele>
        <time>2010-01-02T22:51:29Z</time>
      </trkpt>
      <trkpt lat="54.113737614825368" lon="10.736010549589992">
        <ele>0</ele>
        <time>2010-01-02T22:51:35Z</time>
      </trkpt>
      <trkpt lat="54.113680366426706" lon="10.736203501001">
        <ele>0</ele>
        <time>2010-01-02T22:51:40Z</time>
      </trkpt>
      <trkpt lat="54.113590931519866" lon="10.73650592006743">
        <ele>0</ele>
        <time>2010-01-02T22:51:48Z</time>
      </trkpt>
      <trkpt lat="54.113484565168619" lon="10.736816553398967">
        <ele>0</ele>
        <time>2010-01-02T22:51:56Z</time>
      </trkpt>
      <trkpt lat="54.113359171897173" lon="10.737190470099449">
        <ele>0</ele>
        <time>2010-01-02T22:52:06Z</time>
      </trkpt>
      <trkpt lat="54.113266551867127" lon="10.73752817697823">
        <ele>0</ele>
        <time>2010-01-02T22:52:15Z</time>
      </trkpt>
      <trkpt lat="54.113194718956947" lon="10.737788770347834">
        <ele>0</ele>
        <time>2010-01-02T22:52:22Z</time>
      </trkpt>
      <trkpt lat="54.113093549385667" lon="10.738171068951488">
        <ele>0</ele>
        <time>2010-01-02T22:52:32Z</time>
      </trkpt>
      <trkpt lat="54.113034792244434" lon="10.738388495519757">
        <ele>0</ele>
        <time>2010-01-02T22:52:37Z</time>
      </trkpt>
      <trkpt lat="54.112975196912885" lon="10.738532496616244">
        <ele>0</ele>
        <time>2010-01-02T22:52:41Z</time>
      </trkpt>
      <trkpt lat="54.112961199134588" lon="10.738566610962152">
        <ele>0</ele>
        <time>2010-01-02T22:52:42Z</time>
      </trkpt>
      <trkpt lat="54.112866651266813" lon="10.738725448027253">
        <ele>0</ele>
        <time>2010-01-02T22:52:48Z</time>
      </trkpt>
      <trkpt lat="54.112793225795031" lon="10.738834664225578">
        <ele>0</ele>
        <time>2010-01-02T22:52:52Z</time>
      </trkpt>
      <trkpt lat="54.112702030688524" lon="10.7389613147825">
        <ele>0</ele>
        <time>2010-01-02T22:52:56Z</time>
      </trkpt>
      <trkpt lat="54.112590970471501" lon="10.739077823236585">
        <ele>0</ele>
        <time>2010-01-02T22:53:02Z</time>
      </trkpt>
      <trkpt lat="54.112512767314911" lon="10.739158205688">
        <ele>0</ele>
        <time>2010-01-02T22:53:05Z</time>
      </trkpt>
      <trkpt lat="54.112491393461823" lon="10.739180250093341">
        <ele>0</ele>
        <time>2010-01-02T22:53:06Z</time>
      </trkpt>
      <trkpt lat="54.112455770373344" lon="10.7392134424299">
        <ele>0</ele>
        <time>2010-01-02T22:53:08Z</time>
      </trkpt>
      <trkpt lat="54.112392654642463" lon="10.73927354067564">
        <ele>0</ele>
        <time>2010-01-02T22:53:11Z</time>
      </trkpt>
      <trkpt lat="54.112295508384705" lon="10.739354426041245">
        <ele>0</ele>
        <time>2010-01-02T22:53:15Z</time>
      </trkpt>
      <trkpt lat="54.112185034900904" lon="10.739440340548754">
        <ele>0</ele>
        <time>2010-01-02T22:53:20Z</time>
      </trkpt>
      <trkpt lat="54.112071711570024" lon="10.739514101296663">
        <ele>0</ele>
        <time>2010-01-02T22:53:25Z</time>
      </trkpt>
      <trkpt lat="54.111974397674203" lon="10.739570595324039">
        <ele>0</ele>
        <time>2010-01-02T22:53:29Z</time>
      </trkpt>
      <trkpt lat="54.111860822886229" lon="10.739622982218862">
        <ele>0</ele>
        <time>2010-01-02T22:53:34Z</time>
      </trkpt>
      <trkpt lat="54.111751522868872" lon="10.739653827622533">
        <ele>0</ele>
        <time>2010-01-02T22:53:38Z</time>
      </trkpt>
      <trkpt lat="54.111635852605104" lon="10.739674111828208">
        <ele>0</ele>
        <time>2010-01-02T22:53:43Z</time>
      </trkpt>
      <trkpt lat="54.111481541767716" lon="10.739703280851245">
        <ele>0</ele>
        <time>2010-01-02T22:53:49Z</time>
      </trkpt>
      <trkpt lat="54.111312897875905" lon="10.739723732694983">
        <ele>0</ele>
        <time>2010-01-02T22:53:56Z</time>
      </trkpt>
      <trkpt lat="54.111217763274908" lon="10.739735718816519">
        <ele>0</ele>
        <time>2010-01-02T22:53:59Z</time>
      </trkpt>
      <trkpt lat="54.110930683091283" lon="10.739775029942393">
        <ele>0</ele>
        <time>2010-01-02T22:54:11Z</time>
      </trkpt>
      <trkpt lat="54.110852647572756" lon="10.739788105711341">
        <ele>0</ele>
        <time>2010-01-02T22:54:14Z</time>
      </trkpt>
      <trkpt lat="54.110815851017833" lon="10.739795314148068">
        <ele>0</ele>
        <time>2010-01-02T22:54:16Z</time>
      </trkpt>
      <trkpt lat="54.110677801072598" lon="10.739827081561089">
        <ele>0</ele>
        <time>2010-01-02T22:54:21Z</time>
      </trkpt>
      <trkpt lat="54.110559700056911" lon="10.739870416000485">
        <ele>0</ele>
        <time>2010-01-02T22:54:26Z</time>
      </trkpt>
      <trkpt lat="54.110480239614844" lon="10.739920204505324">
        <ele>0</ele>
        <time>2010-01-02T22:54:29Z</time>
      </trkpt>
      <trkpt lat="54.110399354249239" lon="10.740006789565086">
        <ele>0</ele>
        <time>2010-01-02T22:54:33Z</time>
      </trkpt>
      <trkpt lat="54.11033003591001" lon="10.740079209208488">
        <ele>0</ele>
        <time>2010-01-02T22:54:37Z</time>
      </trkpt>
      <trkpt lat="54.110231380909681" lon="10.740175433456898">
        <ele>0</ele>
        <time>2010-01-02T22:54:41Z</time>
      </trkpt>
      <trkpt lat="54.110163655132055" lon="10.740231005474925">
        <ele>0</ele>
        <time>2010-01-02T22:54:44Z</time>
      </trkpt>
      <trkpt lat="54.110143957659602" lon="10.740242321044207">
        <ele>0</ele>
        <time>2010-01-02T22:54:45Z</time>
      </trkpt>
      <trkpt lat="54.110066341236234" lon="10.740287499502301">
        <ele>0</ele>
        <time>2010-01-02T22:54:48Z</time>
      </trkpt>
      <trkpt lat="54.109970619902015" lon="10.740328654646873">
        <ele>0</ele>
        <time>2010-01-02T22:54:52Z</time>
      </trkpt>
      <trkpt lat="54.109860649332404" lon="10.740379365161061">
        <ele>0</ele>
        <time>2010-01-02T22:54:57Z</time>
      </trkpt>
      <trkpt lat="54.109758725389838" lon="10.740432925522327">
        <ele>0</ele>
        <time>2010-01-02T22:55:01Z</time>
      </trkpt>
      <trkpt lat="54.109675828367472" lon="10.740495035424829">
        <ele>0</ele>
        <time>2010-01-02T22:55:05Z</time>
      </trkpt>
      <trkpt lat="54.109615311026573" lon="10.740551948547363">
        <ele>0</ele>
        <time>2010-01-02T22:55:07Z</time>
      </trkpt>
      <trkpt lat="54.10959217697382" lon="10.740574076771736">
        <ele>0</ele>
        <time>2010-01-02T22:55:08Z</time>
      </trkpt>
      <trkpt lat="54.109506011009216" lon="10.740665355697274">
        <ele>0</ele>
        <time>2010-01-02T22:55:12Z</time>
      </trkpt>
      <trkpt lat="54.109422611072659" lon="10.740764178335667">
        <ele>0</ele>
        <time>2010-01-02T22:55:17Z</time>
      </trkpt>
      <trkpt lat="54.109354382380843" lon="10.740858055651188">
        <ele>0</ele>
        <time>2010-01-02T22:55:20Z</time>
      </trkpt>
      <trkpt lat="54.109280118718743" lon="10.740974983200431">
        <ele>0</ele>
        <time>2010-01-02T22:55:24Z</time>
      </trkpt>
      <trkpt lat="54.109200825914741" lon="10.741122588515282">
        <ele>0</ele>
        <time>2010-01-02T22:55:29Z</time>
      </trkpt>
      <trkpt lat="54.109138464555144" lon="10.741263655945659">
        <ele>0</ele>
        <time>2010-01-02T22:55:33Z</time>
      </trkpt>
      <trkpt lat="54.109094962477684" lon="10.741399526596069">
        <ele>0</ele>
        <time>2010-01-02T22:55:37Z</time>
      </trkpt>
      <trkpt lat="54.109003935009241" lon="10.741712674498558">
        <ele>0</ele>
        <time>2010-01-02T22:55:45Z</time>
      </trkpt>
      <trkpt lat="54.108969485387206" lon="10.741860531270504">
        <ele>0</ele>
        <time>2010-01-02T22:55:49Z</time>
      </trkpt>
      <trkpt lat="54.108939059078693" lon="10.742044933140278">
        <ele>0</ele>
        <time>2010-01-02T22:55:53Z</time>
      </trkpt>
      <trkpt lat="54.108928833156824" lon="10.742179797962308">
        <ele>0</ele>
        <time>2010-01-02T22:55:56Z</time>
      </trkpt>
      <trkpt lat="54.108923217281699" lon="10.742326732724905">
        <ele>0</ele>
        <time>2010-01-02T22:56:00Z</time>
      </trkpt>
      <trkpt lat="54.108919193968177" lon="10.742462938651443">
        <ele>0</ele>
        <time>2010-01-02T22:56:03Z</time>
      </trkpt>
      <trkpt lat="54.10890662111342" lon="10.74272177182138">
        <ele>0</ele>
        <time>2010-01-02T22:56:09Z</time>
      </trkpt>
      <trkpt lat="54.108887342736125" lon="10.743025112897158">
        <ele>0</ele>
        <time>2010-01-02T22:56:16Z</time>
      </trkpt>
      <trkpt lat="54.108865885064006" lon="10.743291825056076">
        <ele>0</ele>
        <time>2010-01-02T22:56:22Z</time>
      </trkpt>
      <trkpt lat="54.108846019953489" lon="10.743540097028017">
        <ele>0</ele>
        <time>2010-01-02T22:56:28Z</time>
      </trkpt>
      <trkpt lat="54.108822466805577" lon="10.743779316544533">
        <ele>0</ele>
        <time>2010-01-02T22:56:34Z</time>
      </trkpt>
      <trkpt lat="54.108797740191221" lon="10.743998754769564">
        <ele>0</ele>
        <time>2010-01-02T22:56:39Z</time>
      </trkpt>
      <trkpt lat="54.108771840110421" lon="10.744184581562877">
        <ele>0</ele>
        <time>2010-01-02T22:56:44Z</time>
      </trkpt>
      <trkpt lat="54.108742168173194" lon="10.744352135807276">
        <ele>0</ele>
        <time>2010-01-02T22:56:48Z</time>
      </trkpt>
      <trkpt lat="54.108718195930123" lon="10.744464453309774">
        <ele>0</ele>
        <time>2010-01-02T22:56:51Z</time>
      </trkpt>
      <trkpt lat="54.108687937259674" lon="10.744578531011939">
        <ele>0</ele>
        <time>2010-01-02T22:56:54Z</time>
      </trkpt>
      <trkpt lat="54.108659271150827" lon="10.744678778573871">
        <ele>0</ele>
        <time>2010-01-02T22:56:56Z</time>
      </trkpt>
      <trkpt lat="54.108338747173548" lon="10.745907062664628">
        <ele>0</ele>
        <time>2010-01-02T22:57:28Z</time>
      </trkpt>
      <trkpt lat="54.10821670666337" lon="10.746351135894656">
        <ele>0</ele>
        <time>2010-01-02T22:57:39Z</time>
      </trkpt>
      <trkpt lat="54.108143365010619" lon="10.746639305725694">
        <ele>0</ele>
        <time>2010-01-02T22:57:47Z</time>
      </trkpt>
      <trkpt lat="54.108062060549855" lon="10.746942982077599">
        <ele>0</ele>
        <time>2010-01-02T22:57:54Z</time>
      </trkpt>
      <trkpt lat="54.108005482703447" lon="10.747120510786772">
        <ele>0</ele>
        <time>2010-01-02T22:57:59Z</time>
      </trkpt>
      <trkpt lat="54.107937002554536" lon="10.747362580150366">
        <ele>0</ele>
        <time>2010-01-02T22:58:06Z</time>
      </trkpt>
      <trkpt lat="54.107733489945531" lon="10.748009411618114">
        <ele>0</ele>
        <time>2010-01-02T22:58:23Z</time>
      </trkpt>
      <trkpt lat="54.107699375599623" lon="10.748094571754336">
        <ele>0</ele>
        <time>2010-01-02T22:58:25Z</time>
      </trkpt>
      <trkpt lat="54.107658304274082" lon="10.748204290866852">
        <ele>0</ele>
        <time>2010-01-02T22:58:28Z</time>
      </trkpt>
      <trkpt lat="54.107473315671086" lon="10.74865180067718">
        <ele>0</ele>
        <time>2010-01-02T22:58:41Z</time>
      </trkpt>
      <trkpt lat="54.107418078929186" lon="10.748783396556973">
        <ele>0</ele>
        <time>2010-01-02T22:58:45Z</time>
      </trkpt>
      <trkpt lat="54.107354879379272" lon="10.74892295524478">
        <ele>0</ele>
        <time>2010-01-02T22:58:49Z</time>
      </trkpt>
      <trkpt lat="54.107196629047394" lon="10.749254878610373">
        <ele>0</ele>
        <time>2010-01-02T22:58:59Z</time>
      </trkpt>
      <trkpt lat="54.107117168605328" lon="10.749394856393337">
        <ele>0</ele>
        <time>2010-01-02T22:59:04Z</time>
      </trkpt>
      <trkpt lat="54.107036031782627" lon="10.749539528042078">
        <ele>0</ele>
        <time>2010-01-02T22:59:08Z</time>
      </trkpt>
      <trkpt lat="54.106956655159593" lon="10.749682607129216">
        <ele>0</ele>
        <time>2010-01-02T22:59:13Z</time>
      </trkpt>
      <trkpt lat="54.106881637126207" lon="10.74981328099966">
        <ele>0</ele>
        <time>2010-01-02T22:59:17Z</time>
      </trkpt>
      <trkpt lat="54.10672782920301" lon="10.750054931268096">
        <ele>0</ele>
        <time>2010-01-02T22:59:26Z</time>
      </trkpt>
      <trkpt lat="54.106633281335235" lon="10.750209074467421">
        <ele>0</ele>
        <time>2010-01-02T22:59:31Z</time>
      </trkpt>
      <trkpt lat="54.106286270543933" lon="10.750714922323823">
        <ele>0</ele>
        <time>2010-01-02T22:59:49Z</time>
      </trkpt>
      <trkpt lat="54.106223490089178" lon="10.75081005692482">
        <ele>0</ele>
        <time>2010-01-02T22:59:52Z</time>
      </trkpt>
      <trkpt lat="54.106185771524906" lon="10.750893792137504">
        <ele>0</ele>
        <time>2010-01-02T22:59:55Z</time>
      </trkpt>
      <trkpt lat="54.106061719357967" lon="10.751238455995917">
        <ele>0</ele>
        <time>2010-01-02T23:00:04Z</time>
      </trkpt>
      <trkpt lat="54.10600564442575" lon="10.751376254484057">
        <ele>0</ele>
        <time>2010-01-02T23:00:08Z</time>
      </trkpt>
      <trkpt lat="54.105955017730594" lon="10.751519920304418">
        <ele>0</ele>
        <time>2010-01-02T23:00:12Z</time>
      </trkpt>
      <trkpt lat="54.10589911043644" lon="10.751668363809586">
        <ele>0</ele>
        <time>2010-01-02T23:00:16Z</time>
      </trkpt>
      <trkpt lat="54.105846388265491" lon="10.751789230853319">
        <ele>0</ele>
        <time>2010-01-02T23:00:20Z</time>
      </trkpt>
      <trkpt lat="54.10580875352025" lon="10.751880593597889">
        <ele>0</ele>
        <time>2010-01-02T23:00:23Z</time>
      </trkpt>
      <trkpt lat="54.105772627517581" lon="10.751953516155481">
        <ele>0</ele>
        <time>2010-01-02T23:00:25Z</time>
      </trkpt>
      <trkpt lat="54.10573985427618" lon="10.75200037099421">
        <ele>0</ele>
        <time>2010-01-02T23:00:27Z</time>
      </trkpt>
      <trkpt lat="54.105696268379688" lon="10.752038341015577">
        <ele>0</ele>
        <time>2010-01-02T23:00:29Z</time>
      </trkpt>
      <trkpt lat="54.105643630027771" lon="10.752078155055642">
        <ele>0</ele>
        <time>2010-01-02T23:00:31Z</time>
      </trkpt>
      <trkpt lat="54.105584621429443" lon="10.752107491716743">
        <ele>0</ele>
        <time>2010-01-02T23:00:33Z</time>
      </trkpt>
      <trkpt lat="54.105525529012084" lon="10.752124506980181">
        <ele>0</ele>
        <time>2010-01-02T23:00:36Z</time>
      </trkpt>
      <trkpt lat="54.105478841811419" lon="10.75212593190372">
        <ele>0</ele>
        <time>2010-01-02T23:00:38Z</time>
      </trkpt>
      <trkpt lat="54.105379013344646" lon="10.752116711810231">
        <ele>0</ele>
        <time>2010-01-02T23:00:42Z</time>
      </trkpt>
      <trkpt lat="54.105052538216114" lon="10.752086704596877">
        <ele>0</ele>
        <time>2010-01-02T23:00:55Z</time>
      </trkpt>
      <trkpt lat="54.105029487982392" lon="10.752379484474659">
        <ele>0</ele>
        <time>2010-01-02T23:01:02Z</time>
      </trkpt>
      <trkpt lat="54.104967210441828" lon="10.752869071438909">
        <ele>0</ele>
        <time>2010-01-02T23:01:13Z</time>
      </trkpt>
      <trkpt lat="54.104944495484233" lon="10.75302111916244">
        <ele>0</ele>
        <time>2010-01-02T23:01:17Z</time>
      </trkpt>
      <trkpt lat="54.104930665344" lon="10.753073506057262">
        <ele>0</ele>
        <time>2010-01-02T23:01:18Z</time>
      </trkpt>
      <trkpt lat="54.10491063259542" lon="10.753135280683637">
        <ele>0</ele>
        <time>2010-01-02T23:01:20Z</time>
      </trkpt>
      <trkpt lat="54.104832094162703" lon="10.753272157162428">
        <ele>0</ele>
        <time>2010-01-02T23:01:25Z</time>
      </trkpt>
      <trkpt lat="54.104685997590423" lon="10.753567032516003">
        <ele>0</ele>
        <time>2010-01-02T23:01:34Z</time>
      </trkpt>
      <trkpt lat="54.104635789990425" lon="10.753664849326015">
        <ele>0</ele>
        <time>2010-01-02T23:01:37Z</time>
      </trkpt>
      <trkpt lat="54.10461307503283" lon="10.753725115209818">
        <ele>0</ele>
        <time>2010-01-02T23:01:38Z</time>
      </trkpt>
      <trkpt lat="54.104597317054868" lon="10.753765348345041">
        <ele>0</ele>
        <time>2010-01-02T23:01:39Z</time>
      </trkpt>
      <trkpt lat="54.104569489136338" lon="10.753853358328342">
        <ele>0</ele>
        <time>2010-01-02T23:01:42Z</time>
      </trkpt>
      <trkpt lat="54.104545349255204" lon="10.75395192950964">
        <ele>0</ele>
        <time>2010-01-02T23:01:44Z</time>
      </trkpt>
      <trkpt lat="54.104523891583085" lon="10.754048908129334">
        <ele>0</ele>
        <time>2010-01-02T23:01:47Z</time>
      </trkpt>
      <trkpt lat="54.104497488588095" lon="10.754188802093267">
        <ele>0</ele>
        <time>2010-01-02T23:01:50Z</time>
      </trkpt>
      <trkpt lat="54.104472426697612" lon="10.754368426278234">
        <ele>0</ele>
        <time>2010-01-02T23:01:55Z</time>
      </trkpt>
      <trkpt lat="54.1043746098876" lon="10.755077702924609">
        <ele>0</ele>
        <time>2010-01-02T23:02:12Z</time>
      </trkpt>
      <trkpt lat="54.104298083111644" lon="10.755668627098203">
        <ele>0</ele>
        <time>2010-01-02T23:02:26Z</time>
      </trkpt>
      <trkpt lat="54.104252317920327" lon="10.75602469034493">
        <ele>0</ele>
        <time>2010-01-02T23:02:34Z</time>
      </trkpt>
      <trkpt lat="54.104173025116324" lon="10.756525509059429">
        <ele>0</ele>
        <time>2010-01-02T23:02:47Z</time>
      </trkpt>
      <trkpt lat="54.104070933535695" lon="10.757170664146543">
        <ele>0</ele>
        <time>2010-01-02T23:03:02Z</time>
      </trkpt>
      <trkpt lat="54.104034723713994" lon="10.757398065179586">
        <ele>0</ele>
        <time>2010-01-02T23:03:08Z</time>
      </trkpt>
      <trkpt lat="54.103906899690628" lon="10.758247319608927">
        <ele>0</ele>
        <time>2010-01-02T23:03:28Z</time>
      </trkpt>
      <trkpt lat="54.103901786729693" lon="10.758278081193566">
        <ele>0</ele>
        <time>2010-01-02T23:03:29Z</time>
      </trkpt>
      <trkpt lat="54.103851160034537" lon="10.758592989295721">
        <ele>0</ele>
        <time>2010-01-02T23:03:37Z</time>
      </trkpt>
      <trkpt lat="54.103816542774439" lon="10.758809577673674">
        <ele>0</ele>
        <time>2010-01-02T23:03:42Z</time>
      </trkpt>
      <trkpt lat="54.103788295760751" lon="10.759035218507051">
        <ele>0</ele>
        <time>2010-01-02T23:03:47Z</time>
      </trkpt>
      <trkpt lat="54.103764239698648" lon="10.759228505194187">
        <ele>0</ele>
        <time>2010-01-02T23:03:52Z</time>
      </trkpt>
      <trkpt lat="54.103744626045227" lon="10.759414080530405">
        <ele>0</ele>
        <time>2010-01-02T23:03:57Z</time>
      </trkpt>
      <trkpt lat="54.103734651580453" lon="10.759585658088326">
        <ele>0</ele>
        <time>2010-01-02T23:04:01Z</time>
      </trkpt>
      <trkpt lat="54.103719480335712" lon="10.759943900629878">
        <ele>0</ele>
        <time>2010-01-02T23:04:09Z</time>
      </trkpt>
      <trkpt lat="54.103705985471606" lon="10.760204158723354">
        <ele>0</ele>
        <time>2010-01-02T23:04:15Z</time>
      </trkpt>
      <trkpt lat="54.103702884167433" lon="10.760248582810163">
        <ele>0</ele>
        <time>2010-01-02T23:04:16Z</time>
      </trkpt>
      <trkpt lat="54.103696681559086" lon="10.760346651077271">
        <ele>0</ele>
        <time>2010-01-02T23:04:18Z</time>
      </trkpt>
      <trkpt lat="54.103685701265931" lon="10.760502889752388">
        <ele>0</ele>
        <time>2010-01-02T23:04:22Z</time>
      </trkpt>
      <trkpt lat="54.10367245785892" lon="10.760610345751047">
        <ele>0</ele>
        <time>2010-01-02T23:04:25Z</time>
      </trkpt>
      <trkpt lat="54.103658376261592" lon="10.760722327977419">
        <ele>0</ele>
        <time>2010-01-02T23:04:27Z</time>
      </trkpt>
      <trkpt lat="54.103638930246234" lon="10.760843697935343">
        <ele>0</ele>
        <time>2010-01-02T23:04:30Z</time>
      </trkpt>
      <trkpt lat="54.103616047650576" lon="10.760974371805787">
        <ele>0</ele>
        <time>2010-01-02T23:04:34Z</time>
      </trkpt>
      <trkpt lat="54.103586794808507" lon="10.761103620752692">
        <ele>0</ele>
        <time>2010-01-02T23:04:37Z</time>
      </trkpt>
      <trkpt lat="54.103564582765102" lon="10.761218955740333">
        <ele>0</ele>
        <time>2010-01-02T23:04:40Z</time>
      </trkpt>
      <trkpt lat="54.103532731533051" lon="10.761346779763699">
        <ele>0</ele>
        <time>2010-01-02T23:04:43Z</time>
      </trkpt>
      <trkpt lat="54.103309689089656" lon="10.762119423598051">
        <ele>0</ele>
        <time>2010-01-02T23:05:03Z</time>
      </trkpt>
      <trkpt lat="54.103265600278974" lon="10.762279685586691">
        <ele>0</ele>
        <time>2010-01-02T23:05:07Z</time>
      </trkpt>
      <trkpt lat="54.103261241689324" lon="10.762296700850129">
        <ele>0</ele>
        <time>2010-01-02T23:05:08Z</time>
      </trkpt>
      <trkpt lat="54.103229977190495" lon="10.762398540973663">
        <ele>0</ele>
        <time>2010-01-02T23:05:10Z</time>
      </trkpt>
      <trkpt lat="54.103173986077309" lon="10.7625469006598">
        <ele>0</ele>
        <time>2010-01-02T23:05:15Z</time>
      </trkpt>
      <trkpt lat="54.103105673566461" lon="10.762720238417387">
        <ele>0</ele>
        <time>2010-01-02T23:05:20Z</time>
      </trkpt>
      <trkpt lat="54.103031158447266" lon="10.762901287525892">
        <ele>0</ele>
        <time>2010-01-02T23:05:25Z</time>
      </trkpt>
      <trkpt lat="54.102999642491341" lon="10.762984771281481">
        <ele>0</ele>
        <time>2010-01-02T23:05:27Z</time>
      </trkpt>
      <trkpt lat="54.102972652763128" lon="10.763068171218038">
        <ele>0</ele>
        <time>2010-01-02T23:05:29Z</time>
      </trkpt>
      <trkpt lat="54.102928228676319" lon="10.76320705935359">
        <ele>0</ele>
        <time>2010-01-02T23:05:33Z</time>
      </trkpt>
      <trkpt lat="54.102772073820233" lon="10.763659682124853">
        <ele>0</ele>
        <time>2010-01-02T23:05:45Z</time>
      </trkpt>
      <trkpt lat="54.102648356929421" lon="10.764037873595953">
        <ele>0</ele>
        <time>2010-01-02T23:05:55Z</time>
      </trkpt>
      <trkpt lat="54.102594126015902" lon="10.764178605750203">
        <ele>0</ele>
        <time>2010-01-02T23:05:59Z</time>
      </trkpt>
      <trkpt lat="54.102506367489696" lon="10.764468619599938">
        <ele>0</ele>
        <time>2010-01-02T23:06:07Z</time>
      </trkpt>
      <trkpt lat="54.102430175989866" lon="10.764747653156519">
        <ele>0</ele>
        <time>2010-01-02T23:06:14Z</time>
      </trkpt>
      <trkpt lat="54.102325234562159" lon="10.765114612877369">
        <ele>0</ele>
        <time>2010-01-02T23:06:24Z</time>
      </trkpt>
      <trkpt lat="54.10222414880991" lon="10.765512082725763">
        <ele>0</ele>
        <time>2010-01-02T23:06:34Z</time>
      </trkpt>
      <trkpt lat="54.102169079706073" lon="10.76574451290071">
        <ele>0</ele>
        <time>2010-01-02T23:06:40Z</time>
      </trkpt>
      <trkpt lat="54.102131277322769" lon="10.765913827344775">
        <ele>0</ele>
        <time>2010-01-02T23:06:44Z</time>
      </trkpt>
      <trkpt lat="54.102111663669348" lon="10.766019858419895">
        <ele>0</ele>
        <time>2010-01-02T23:06:47Z</time>
      </trkpt>
      <trkpt lat="54.102097414433956" lon="10.766119686886668">
        <ele>0</ele>
        <time>2010-01-02T23:06:49Z</time>
      </trkpt>
      <trkpt lat="54.102092804387212" lon="10.766193196177483">
        <ele>0</ele>
        <time>2010-01-02T23:06:51Z</time>
      </trkpt>
      <trkpt lat="54.102091798558831" lon="10.766275841742754">
        <ele>0</ele>
        <time>2010-01-02T23:06:53Z</time>
      </trkpt>
      <trkpt lat="54.102100934833288" lon="10.766373407095671">
        <ele>0</ele>
        <time>2010-01-02T23:06:55Z</time>
      </trkpt>
      <trkpt lat="54.102131947875023" lon="10.76659569516778">
        <ele>0</ele>
        <time>2010-01-02T23:07:01Z</time>
      </trkpt>
      <trkpt lat="54.102160781621933" lon="10.766866933554411">
        <ele>0</ele>
        <time>2010-01-02T23:07:07Z</time>
      </trkpt>
      <trkpt lat="54.102181233465672" lon="10.767109422013164">
        <ele>0</ele>
        <time>2010-01-02T23:07:13Z</time>
      </trkpt>
      <trkpt lat="54.102198500186205" lon="10.76730765402317">
        <ele>0</ele>
        <time>2010-01-02T23:07:17Z</time>
      </trkpt>
      <trkpt lat="54.102213336154819" lon="10.767521224915981">
        <ele>0</ele>
        <time>2010-01-02T23:07:23Z</time>
      </trkpt>
      <trkpt lat="54.102221634238958" lon="10.767721300944686">
        <ele>0</ele>
        <time>2010-01-02T23:07:27Z</time>
      </trkpt>
      <trkpt lat="54.102228926494718" lon="10.767910648137331">
        <ele>0</ele>
        <time>2010-01-02T23:07:32Z</time>
      </trkpt>
      <trkpt lat="54.102233033627272" lon="10.768046518787742">
        <ele>0</ele>
        <time>2010-01-02T23:07:35Z</time>
      </trkpt>
      <trkpt lat="54.102237224578857" lon="10.768194710835814">
        <ele>0</ele>
        <time>2010-01-02T23:07:38Z</time>
      </trkpt>
      <trkpt lat="54.102237056940794" lon="10.768349189311266">
        <ele>0</ele>
        <time>2010-01-02T23:07:42Z</time>
      </trkpt>
      <trkpt lat="54.102232195436954" lon="10.768489921465516">
        <ele>0</ele>
        <time>2010-01-02T23:07:45Z</time>
      </trkpt>
      <trkpt lat="54.102226328104734" lon="10.768623109906912">
        <ele>0</ele>
        <time>2010-01-02T23:07:48Z</time>
      </trkpt>
      <trkpt lat="54.102218868210912" lon="10.768767027184367">
        <ele>0</ele>
        <time>2010-01-02T23:07:52Z</time>
      </trkpt>
      <trkpt lat="54.102205876260996" lon="10.768906585872173">
        <ele>0</ele>
        <time>2010-01-02T23:07:55Z</time>
      </trkpt>
      <trkpt lat="54.10219238139689" lon="10.769075145944953">
        <ele>0</ele>
        <time>2010-01-02T23:07:59Z</time>
      </trkpt>
      <trkpt lat="54.102167654782534" lon="10.769297517836094">
        <ele>0</ele>
        <time>2010-01-02T23:08:04Z</time>
      </trkpt>
      <trkpt lat="54.102139659225941" lon="10.769544532522559">
        <ele>0</ele>
        <time>2010-01-02T23:08:10Z</time>
      </trkpt>
      <trkpt lat="54.102093474939466" lon="10.769947953522205">
        <ele>0</ele>
        <time>2010-01-02T23:08:20Z</time>
      </trkpt>
      <trkpt lat="54.102036729454994" lon="10.770373083651066">
        <ele>0</ele>
        <time>2010-01-02T23:08:30Z</time>
      </trkpt>
      <trkpt lat="54.102011919021606" lon="10.770497638732195">
        <ele>0</ele>
        <time>2010-01-02T23:08:33Z</time>
      </trkpt>
      <trkpt lat="54.10197445191443" lon="10.770610375329852">
        <ele>0</ele>
        <time>2010-01-02T23:08:36Z</time>
      </trkpt>
      <trkpt lat="54.101940840482712" lon="10.77075052075088">
        <ele>0</ele>
        <time>2010-01-02T23:08:40Z</time>
      </trkpt>
      <trkpt lat="54.101919550448656" lon="10.770862754434347">
        <ele>0</ele>
        <time>2010-01-02T23:08:43Z</time>
      </trkpt>
      <trkpt lat="54.101901696994901" lon="10.770964175462723">
        <ele>0</ele>
        <time>2010-01-02T23:08:45Z</time>
      </trkpt>
      <trkpt lat="54.101887280121446" lon="10.771053275093436">
        <ele>0</ele>
        <time>2010-01-02T23:08:47Z</time>
      </trkpt>
      <trkpt lat="54.1018723603338" lon="10.771172968670726">
        <ele>0</ele>
        <time>2010-01-02T23:08:50Z</time>
      </trkpt>
      <trkpt lat="54.101860960945487" lon="10.771292494609952">
        <ele>0</ele>
        <time>2010-01-02T23:08:53Z</time>
      </trkpt>
      <trkpt lat="54.101854171603918" lon="10.771411936730146">
        <ele>0</ele>
        <time>2010-01-02T23:08:56Z</time>
      </trkpt>
      <trkpt lat="54.101843442767859" lon="10.77159876935184">
        <ele>0</ele>
        <time>2010-01-02T23:09:00Z</time>
      </trkpt>
      <trkpt lat="54.101829528808594" lon="10.771817788481712">
        <ele>0</ele>
        <time>2010-01-02T23:09:05Z</time>
      </trkpt>
      <trkpt lat="54.101818548515439" lon="10.771977128461003">
        <ele>0</ele>
        <time>2010-01-02T23:09:09Z</time>
      </trkpt>
      <trkpt lat="54.101809160783887" lon="10.772113502025604">
        <ele>0</ele>
        <time>2010-01-02T23:09:12Z</time>
      </trkpt>
      <trkpt lat="54.101789966225624" lon="10.772257754579186">
        <ele>0</ele>
        <time>2010-01-02T23:09:16Z</time>
      </trkpt>
      <trkpt lat="54.10173355601728" lon="10.772711969912052">
        <ele>0</ele>
        <time>2010-01-02T23:09:27Z</time>
      </trkpt>
      <trkpt lat="54.101626435294747" lon="10.77357430011034">
        <ele>0</ele>
        <time>2010-01-02T23:09:48Z</time>
      </trkpt>
      <trkpt lat="54.101562313735485" lon="10.774074532091618">
        <ele>0</ele>
        <time>2010-01-02T23:10:00Z</time>
      </trkpt>
      <trkpt lat="54.101527947932482" lon="10.77431408688426">
        <ele>0</ele>
        <time>2010-01-02T23:10:05Z</time>
      </trkpt>
      <trkpt lat="54.101511184126139" lon="10.774436881765723">
        <ele>0</ele>
        <time>2010-01-02T23:10:08Z</time>
      </trkpt>
      <trkpt lat="54.101500790566206" lon="10.77455791644752">
        <ele>0</ele>
        <time>2010-01-02T23:10:11Z</time>
      </trkpt>
      <trkpt lat="54.10149022936821" lon="10.774674424901605">
        <ele>0</ele>
        <time>2010-01-02T23:10:14Z</time>
      </trkpt>
      <trkpt lat="54.101480673998594" lon="10.774789424613118">
        <ele>0</ele>
        <time>2010-01-02T23:10:17Z</time>
      </trkpt>
      <trkpt lat="54.101465670391917" lon="10.774993188679218">
        <ele>0</ele>
        <time>2010-01-02T23:10:21Z</time>
      </trkpt>
      <trkpt lat="54.101460389792919" lon="10.775097291916609">
        <ele>0</ele>
        <time>2010-01-02T23:10:24Z</time>
      </trkpt>
      <trkpt lat="54.101455109193921" lon="10.775196785107255">
        <ele>0</ele>
        <time>2010-01-02T23:10:26Z</time>
      </trkpt>
      <trkpt lat="54.101441781967878" lon="10.775472382083535">
        <ele>0</ele>
        <time>2010-01-02T23:10:33Z</time>
      </trkpt>
      <trkpt lat="54.101437339559197" lon="10.775651670992374">
        <ele>0</ele>
        <time>2010-01-02T23:10:37Z</time>
      </trkpt>
      <trkpt lat="54.101434741169214" lon="10.775753846392035">
        <ele>0</ele>
        <time>2010-01-02T23:10:39Z</time>
      </trkpt>
      <trkpt lat="54.101431723684072" lon="10.776163721457124">
        <ele>0</ele>
        <time>2010-01-02T23:10:49Z</time>
      </trkpt>
      <trkpt lat="54.101437004283071" lon="10.776597736403346">
        <ele>0</ele>
        <time>2010-01-02T23:10:59Z</time>
      </trkpt>
      <trkpt lat="54.101448655128479" lon="10.777210369706154">
        <ele>0</ele>
        <time>2010-01-02T23:11:14Z</time>
      </trkpt>
      <trkpt lat="54.101447649300098" lon="10.777733232825994">
        <ele>0</ele>
        <time>2010-01-02T23:11:26Z</time>
      </trkpt>
      <trkpt lat="54.101441279053688" lon="10.778164565563202">
        <ele>0</ele>
        <time>2010-01-02T23:11:36Z</time>
      </trkpt>
      <trkpt lat="54.101427448913455" lon="10.778379142284393">
        <ele>0</ele>
        <time>2010-01-02T23:11:41Z</time>
      </trkpt>
      <trkpt lat="54.101413367316127" lon="10.778599586337805">
        <ele>0</ele>
        <time>2010-01-02T23:11:46Z</time>
      </trkpt>
      <trkpt lat="54.101369781419635" lon="10.778999822214246">
        <ele>0</ele>
        <time>2010-01-02T23:11:56Z</time>
      </trkpt>
      <trkpt lat="54.10131923854351" lon="10.779336104169488">
        <ele>0</ele>
        <time>2010-01-02T23:12:04Z</time>
      </trkpt>
      <trkpt lat="54.101270455867052" lon="10.779658639803529">
        <ele>0</ele>
        <time>2010-01-02T23:12:12Z</time>
      </trkpt>
      <trkpt lat="54.101225109770894" lon="10.779976397752762">
        <ele>0</ele>
        <time>2010-01-02T23:12:19Z</time>
      </trkpt>
      <trkpt lat="54.101218404248357" lon="10.780024006962776">
        <ele>0</ele>
        <time>2010-01-02T23:12:21Z</time>
      </trkpt>
      <trkpt lat="54.101206669583917" lon="10.780105395242572">
        <ele>0</ele>
        <time>2010-01-02T23:12:23Z</time>
      </trkpt>
      <trkpt lat="54.101194934919477" lon="10.780186699703336">
        <ele>0</ele>
        <time>2010-01-02T23:12:25Z</time>
      </trkpt>
      <trkpt lat="54.101143721491098" lon="10.780544439330697">
        <ele>0</ele>
        <time>2010-01-02T23:12:33Z</time>
      </trkpt>
      <trkpt lat="54.101027213037014" lon="10.781370308250189">
        <ele>0</ele>
        <time>2010-01-02T23:12:53Z</time>
      </trkpt>
      <trkpt lat="54.100945070385933" lon="10.78195670619607">
        <ele>0</ele>
        <time>2010-01-02T23:13:07Z</time>
      </trkpt>
      <trkpt lat="54.100890168920159" lon="10.782386362552643">
        <ele>0</ele>
        <time>2010-01-02T23:13:18Z</time>
      </trkpt>
      <trkpt lat="54.100848510861397" lon="10.782795818522573">
        <ele>0</ele>
        <time>2010-01-02T23:13:27Z</time>
      </trkpt>
      <trkpt lat="54.10079687833786" lon="10.783295631408691">
        <ele>0</ele>
        <time>2010-01-02T23:13:39Z</time>
      </trkpt>
      <trkpt lat="54.100755304098129" lon="10.783798294141889">
        <ele>0</ele>
        <time>2010-01-02T23:13:51Z</time>
      </trkpt>
      <trkpt lat="54.100731499493122" lon="10.784289725124836">
        <ele>0</ele>
        <time>2010-01-02T23:14:03Z</time>
      </trkpt>
      <trkpt lat="54.10071381367743" lon="10.784767242148519">
        <ele>0</ele>
        <time>2010-01-02T23:14:14Z</time>
      </trkpt>
      <trkpt lat="54.100684644654393" lon="10.78534291125834">
        <ele>0</ele>
        <time>2010-01-02T23:14:28Z</time>
      </trkpt>
      <trkpt lat="54.100669138133526" lon="10.785857057198882">
        <ele>0</ele>
        <time>2010-01-02T23:14:40Z</time>
      </trkpt>
      <trkpt lat="54.100648015737534" lon="10.786522664129734">
        <ele>0</ele>
        <time>2010-01-02T23:14:55Z</time>
      </trkpt>
      <trkpt lat="54.100626055151224" lon="10.787110319361091">
        <ele>0</ele>
        <time>2010-01-02T23:15:09Z</time>
      </trkpt>
      <trkpt lat="54.100609878078103" lon="10.7873619440943">
        <ele>0</ele>
        <time>2010-01-02T23:15:15Z</time>
      </trkpt>
      <trkpt lat="54.100592695176601" lon="10.787629578262568">
        <ele>0</ele>
        <time>2010-01-02T23:15:21Z</time>
      </trkpt>
      <trkpt lat="54.100576769560575" lon="10.78783786855638">
        <ele>0</ele>
        <time>2010-01-02T23:15:26Z</time>
      </trkpt>
      <trkpt lat="54.100524466484785" lon="10.788265932351351">
        <ele>0</ele>
        <time>2010-01-02T23:15:37Z</time>
      </trkpt>
      <trkpt lat="54.100457578897476" lon="10.788673041388392">
        <ele>0</ele>
        <time>2010-01-02T23:15:46Z</time>
      </trkpt>
      <trkpt lat="54.100380716845393" lon="10.78906967304647">
        <ele>0</ele>
        <time>2010-01-02T23:15:56Z</time>
      </trkpt>
      <trkpt lat="54.100333945825696" lon="10.789330936968327">
        <ele>0</ele>
        <time>2010-01-02T23:16:03Z</time>
      </trkpt>
      <trkpt lat="54.100280720740557" lon="10.789574012160301">
        <ele>0</ele>
        <time>2010-01-02T23:16:09Z</time>
      </trkpt>
      <trkpt lat="54.10025691613555" lon="10.789678366854787">
        <ele>0</ele>
        <time>2010-01-02T23:16:11Z</time>
      </trkpt>
      <trkpt lat="54.10021098330617" lon="10.789880286902189">
        <ele>0</ele>
        <time>2010-01-02T23:16:16Z</time>
      </trkpt>
      <trkpt lat="54.100156249478459" lon="10.790069885551929">
        <ele>0</ele>
        <time>2010-01-02T23:16:21Z</time>
      </trkpt>
      <trkpt lat="54.100104197859764" lon="10.790251772850752">
        <ele>0</ele>
        <time>2010-01-02T23:16:26Z</time>
      </trkpt>
      <trkpt lat="54.099999088793993" lon="10.790611021220684">
        <ele>0</ele>
        <time>2010-01-02T23:16:36Z</time>
      </trkpt>
      <trkpt lat="54.099825834855437" lon="10.791076216846704">
        <ele>0</ele>
        <time>2010-01-02T23:16:49Z</time>
      </trkpt>
      <trkpt lat="54.099737573415041" lon="10.791318789124489">
        <ele>0</ele>
        <time>2010-01-02T23:16:55Z</time>
      </trkpt>
      <trkpt lat="54.099691305309534" lon="10.791457761079073">
        <ele>0</ele>
        <time>2010-01-02T23:16:59Z</time>
      </trkpt>
      <trkpt lat="54.099662974476814" lon="10.791585417464375">
        <ele>0</ele>
        <time>2010-01-02T23:17:02Z</time>
      </trkpt>
      <trkpt lat="54.09964176826179" lon="10.791711397469044">
        <ele>0</ele>
        <time>2010-01-02T23:17:05Z</time>
      </trkpt>
      <trkpt lat="54.099622322246432" lon="10.791829666122794">
        <ele>0</ele>
        <time>2010-01-02T23:17:08Z</time>
      </trkpt>
      <trkpt lat="54.099602540954947" lon="10.792012140154839">
        <ele>0</ele>
        <time>2010-01-02T23:17:13Z</time>
      </trkpt>
      <trkpt lat="54.099585022777319" lon="10.792237361893058">
        <ele>0</ele>
        <time>2010-01-02T23:17:18Z</time>
      </trkpt>
      <trkpt lat="54.099555099382997" lon="10.792675148695707">
        <ele>0</ele>
        <time>2010-01-02T23:17:28Z</time>
      </trkpt>
      <trkpt lat="54.099518219009042" lon="10.792879248037934">
        <ele>0</ele>
        <time>2010-01-02T23:17:33Z</time>
      </trkpt>
      <trkpt lat="54.099483853206038" lon="10.792948147282004">
        <ele>0</ele>
        <time>2010-01-02T23:17:35Z</time>
      </trkpt>
      <trkpt lat="54.099499192088842" lon="10.7929742988199">
        <ele>0</ele>
        <time>2010-01-02T23:17:36Z</time>
      </trkpt>
      <trkpt lat="54.099514363333583" lon="10.793057950213552">
        <ele>0</ele>
        <time>2010-01-02T23:17:38Z</time>
      </trkpt>
      <trkpt lat="54.099510675296187" lon="10.793126178905368">
        <ele>0</ele>
        <time>2010-01-02T23:17:40Z</time>
      </trkpt>
      <trkpt lat="54.099492402747273" lon="10.79317563213408">
        <ele>0</ele>
        <time>2010-01-02T23:17:41Z</time>
      </trkpt>
      <trkpt lat="54.09947806969285" lon="10.793192144483328">
        <ele>0</ele>
        <time>2010-01-02T23:17:42Z</time>
      </trkpt>
      <trkpt lat="54.100102018564939" lon="10.79451397061348">
        <ele>0</ele>
        <time>2010-01-02T23:18:22Z</time>
      </trkpt>
      <trkpt lat="54.101018998771906" lon="10.796450274065137">
        <ele>0</ele>
        <time>2010-01-02T23:19:20Z</time>
      </trkpt>
      <trkpt lat="54.101665075868368" lon="10.797804454341531">
        <ele>0</ele>
        <time>2010-01-02T23:20:01Z</time>
      </trkpt>
      <trkpt lat="54.1018136870116" lon="10.798116596415639">
        <ele>0</ele>
        <time>2010-01-02T23:20:11Z</time>
      </trkpt>
      <trkpt lat="54.101881580427289" lon="10.798253808170557">
        <ele>0</ele>
        <time>2010-01-02T23:20:15Z</time>
      </trkpt>
      <trkpt lat="54.102009069174528" lon="10.798513060435653">
        <ele>0</ele>
        <time>2010-01-02T23:20:23Z</time>
      </trkpt>
      <trkpt lat="54.102183245122433" lon="10.79886426217854">
        <ele>0</ele>
        <time>2010-01-02T23:20:34Z</time>
      </trkpt>
      <trkpt lat="54.102420536801219" lon="10.799364158883691">
        <ele>0</ele>
        <time>2010-01-02T23:20:49Z</time>
      </trkpt>
      <trkpt lat="54.102459512650967" lon="10.799446385353804">
        <ele>0</ele>
        <time>2010-01-02T23:20:51Z</time>
      </trkpt>
      <trkpt lat="54.102806439623237" lon="10.800176281481981">
        <ele>0</ele>
        <time>2010-01-02T23:21:13Z</time>
      </trkpt>
      <trkpt lat="54.103131322190166" lon="10.800860999152064">
        <ele>0</ele>
        <time>2010-01-02T23:21:34Z</time>
      </trkpt>
      <trkpt lat="54.103563576936722" lon="10.801770435646176">
        <ele>0</ele>
        <time>2010-01-02T23:22:01Z</time>
      </trkpt>
      <trkpt lat="54.103625016286969" lon="10.801900187507272">
        <ele>0</ele>
        <time>2010-01-02T23:22:05Z</time>
      </trkpt>
      <trkpt lat="54.103634236380458" lon="10.801919801160693">
        <ele>0</ele>
        <time>2010-01-02T23:22:06Z</time>
      </trkpt>
      <trkpt lat="54.103763652965426" lon="10.802200427278876">
        <ele>0</ele>
        <time>2010-01-02T23:22:14Z</time>
      </trkpt>
      <trkpt lat="54.104200433939695" lon="10.803111288696527">
        <ele>0</ele>
        <time>2010-01-02T23:22:42Z</time>
      </trkpt>
      <trkpt lat="54.104561945423484" lon="10.803865324705839">
        <ele>0</ele>
        <time>2010-01-02T23:23:05Z</time>
      </trkpt>
      <trkpt lat="54.104745425283909" lon="10.804252987727523">
        <ele>0</ele>
        <time>2010-01-02T23:23:16Z</time>
      </trkpt>
      <trkpt lat="54.105172231793404" lon="10.805159574374557">
        <ele>0</ele>
        <time>2010-01-02T23:23:44Z</time>
      </trkpt>
      <trkpt lat="54.10522093065083" lon="10.805265186354518">
        <ele>0</ele>
        <time>2010-01-02T23:23:47Z</time>
      </trkpt>
      <trkpt lat="54.105531228706241" lon="10.805930541828275">
        <ele>0</ele>
        <time>2010-01-02T23:24:07Z</time>
      </trkpt>
      <trkpt lat="54.105640361085534" lon="10.806153668090701">
        <ele>0</ele>
        <time>2010-01-02T23:24:14Z</time>
      </trkpt>
      <trkpt lat="54.105916377156973" lon="10.806720620021224">
        <ele>0</ele>
        <time>2010-01-02T23:24:31Z</time>
      </trkpt>
      <trkpt lat="54.105984438210726" lon="10.806874679401517">
        <ele>0</ele>
        <time>2010-01-02T23:24:35Z</time>
      </trkpt>
      <trkpt lat="54.106031460687518" lon="10.807001749053597">
        <ele>0</ele>
        <time>2010-01-02T23:24:39Z</time>
      </trkpt>
      <trkpt lat="54.10607404075563" lon="10.807124376296997">
        <ele>0</ele>
        <time>2010-01-02T23:24:42Z</time>
      </trkpt>
      <trkpt lat="54.106106562539935" lon="10.807230407372117">
        <ele>0</ele>
        <time>2010-01-02T23:24:45Z</time>
      </trkpt>
      <trkpt lat="54.106137407943606" lon="10.807353369891644">
        <ele>0</ele>
        <time>2010-01-02T23:24:48Z</time>
      </trkpt>
      <trkpt lat="54.106156434863806" lon="10.807462921366096">
        <ele>0</ele>
        <time>2010-01-02T23:24:51Z</time>
      </trkpt>
      <trkpt lat="54.106178395450115" lon="10.807592254132032">
        <ele>0</ele>
        <time>2010-01-02T23:24:54Z</time>
      </trkpt>
      <trkpt lat="54.106202283874154" lon="10.807738350704312">
        <ele>0</ele>
        <time>2010-01-02T23:24:58Z</time>
      </trkpt>
      <trkpt lat="54.106220975518227" lon="10.807895343750715">
        <ele>0</ele>
        <time>2010-01-02T23:25:01Z</time>
      </trkpt>
      <trkpt lat="54.106272608041763" lon="10.808395324274898">
        <ele>0</ele>
        <time>2010-01-02T23:25:13Z</time>
      </trkpt>
      <trkpt lat="54.106298256665468" lon="10.808622390031815">
        <ele>0</ele>
        <time>2010-01-02T23:25:19Z</time>
      </trkpt>
      <trkpt lat="54.10631594248116" lon="10.808780891820788">
        <ele>0</ele>
        <time>2010-01-02T23:25:23Z</time>
      </trkpt>
      <trkpt lat="54.106339160352945" lon="10.808943836018443">
        <ele>0</ele>
        <time>2010-01-02T23:25:26Z</time>
      </trkpt>
      <trkpt lat="54.106357181444764" lon="10.809074928984046">
        <ele>0</ele>
        <time>2010-01-02T23:25:30Z</time>
      </trkpt>
      <trkpt lat="54.10635944455862" lon="10.809091608971357">
        <ele>0</ele>
        <time>2010-01-02T23:25:30Z</time>
      </trkpt>
      <trkpt lat="54.106387691572309" lon="10.809217672795057">
        <ele>0</ele>
        <time>2010-01-02T23:25:33Z</time>
      </trkpt>
      <trkpt lat="54.106412334367633" lon="10.809349939227104">
        <ele>0</ele>
        <time>2010-01-02T23:25:36Z</time>
      </trkpt>
      <trkpt lat="54.106445191428065" lon="10.809494275599718">
        <ele>0</ele>
        <time>2010-01-02T23:25:40Z</time>
      </trkpt>
      <trkpt lat="54.10648550838232" lon="10.809661326929927">
        <ele>0</ele>
        <time>2010-01-02T23:25:44Z</time>
      </trkpt>
      <trkpt lat="54.106529345735908" lon="10.809828210622072">
        <ele>0</ele>
        <time>2010-01-02T23:25:49Z</time>
      </trkpt>
      <trkpt lat="54.106552731245756" lon="10.809920830652118">
        <ele>0</ele>
        <time>2010-01-02T23:25:51Z</time>
      </trkpt>
      <trkpt lat="54.106569495052099" lon="10.80998151563108">
        <ele>0</ele>
        <time>2010-01-02T23:25:53Z</time>
      </trkpt>
      <trkpt lat="54.106576032936573" lon="10.810005823150277">
        <ele>0</ele>
        <time>2010-01-02T23:25:53Z</time>
      </trkpt>
      <trkpt lat="54.10660863853991" lon="10.810124091804028">
        <ele>0</ele>
        <time>2010-01-02T23:25:56Z</time>
      </trkpt>
      <trkpt lat="54.106659684330225" lon="10.810289299115539">
        <ele>0</ele>
        <time>2010-01-02T23:26:01Z</time>
      </trkpt>
      <trkpt lat="54.106720117852092" lon="10.810499936342239">
        <ele>0</ele>
        <time>2010-01-02T23:26:06Z</time>
      </trkpt>
      <trkpt lat="54.106730595231056" lon="10.810554837808013">
        <ele>0</ele>
        <time>2010-01-02T23:26:07Z</time>
      </trkpt>
      <trkpt lat="54.106767140328884" lon="10.810706717893481">
        <ele>0</ele>
        <time>2010-01-02T23:26:11Z</time>
      </trkpt>
      <trkpt lat="54.106856742873788" lon="10.811040569096804">
        <ele>0</ele>
        <time>2010-01-02T23:26:20Z</time>
      </trkpt>
      <trkpt lat="54.107206854969263" lon="10.810743095353246">
        <ele>0</ele>
        <time>2010-01-02T23:26:36Z</time>
      </trkpt>
      <trkpt lat="54.107458312064409" lon="10.81054930575192">
        <ele>0</ele>
        <time>2010-01-02T23:26:47Z</time>
      </trkpt>
      <trkpt lat="54.107628799974918" lon="10.810431288555264">
        <ele>0</ele>
        <time>2010-01-02T23:26:54Z</time>
      </trkpt>
      <trkpt lat="54.107704823836684" lon="10.810400107875466">
        <ele>0</ele>
        <time>2010-01-02T23:26:57Z</time>
      </trkpt>
      <trkpt lat="54.107766430824995" lon="10.810355516150594">
        <ele>0</ele>
        <time>2010-01-02T23:27:00Z</time>
      </trkpt>
      <trkpt lat="54.10783801227808" lon="10.810333555564284">
        <ele>0</ele>
        <time>2010-01-02T23:27:03Z</time>
      </trkpt>
      <trkpt lat="54.107928788289428" lon="10.810334058478475">
        <ele>0</ele>
        <time>2010-01-02T23:27:06Z</time>
      </trkpt>
      <trkpt lat="54.108031550422311" lon="10.810366244986653">
        <ele>0</ele>
        <time>2010-01-02T23:27:11Z</time>
      </trkpt>
      <trkpt lat="54.10812827758491" lon="10.810429276898503">
        <ele>0</ele>
        <time>2010-01-02T23:27:15Z</time>
      </trkpt>
      <trkpt lat="54.108241852372885" lon="10.810554418712854">
        <ele>0</ele>
        <time>2010-01-02T23:27:20Z</time>
      </trkpt>
      <trkpt lat="54.108343943953514" lon="10.810704454779625">
        <ele>0</ele>
        <time>2010-01-02T23:27:26Z</time>
      </trkpt>
      <trkpt lat="54.108452489599586" lon="10.810866476967931">
        <ele>0</ele>
        <time>2010-01-02T23:27:31Z</time>
      </trkpt>
      <trkpt lat="54.10858953371644" lon="10.811093458905816">
        <ele>0</ele>
        <time>2010-01-02T23:27:39Z</time>
      </trkpt>
      <trkpt lat="54.108887426555157" lon="10.811474332585931">
        <ele>0</ele>
        <time>2010-01-02T23:27:54Z</time>
      </trkpt>
      <trkpt lat="54.108974765986204" lon="10.811541471630335">
        <ele>0</ele>
        <time>2010-01-02T23:27:58Z</time>
      </trkpt>
      <trkpt lat="54.109090436249971" lon="10.811597462743521">
        <ele>0</ele>
        <time>2010-01-02T23:28:02Z</time>
      </trkpt>
      <trkpt lat="54.109165538102388" lon="10.811653370037675">
        <ele>0</ele>
        <time>2010-01-02T23:28:06Z</time>
      </trkpt>
      <trkpt lat="54.109237287193537" lon="10.811730902642012">
        <ele>0</ele>
        <time>2010-01-02T23:28:09Z</time>
      </trkpt>
      <trkpt lat="54.109319094568491" lon="10.811824863776565">
        <ele>0</ele>
        <time>2010-01-02T23:28:13Z</time>
      </trkpt>
      <trkpt lat="54.109404673799872" lon="10.811940114945173">
        <ele>0</ele>
        <time>2010-01-02T23:28:17Z</time>
      </trkpt>
      <trkpt lat="54.10960097797215" lon="10.812252592295408">
        <ele>0</ele>
        <time>2010-01-02T23:28:28Z</time>
      </trkpt>
      <trkpt lat="54.10985997878015" lon="10.812648888677359">
        <ele>0</ele>
        <time>2010-01-02T23:28:42Z</time>
      </trkpt>
      <trkpt lat="54.110182682052255" lon="10.813116766512394">
        <ele>0</ele>
        <time>2010-01-02T23:28:59Z</time>
      </trkpt>
      <trkpt lat="54.110319390892982" lon="10.813308544456959">
        <ele>0</ele>
        <time>2010-01-02T23:29:06Z</time>
      </trkpt>
      <trkpt lat="54.110427685081959" lon="10.813452294096351">
        <ele>0</ele>
        <time>2010-01-02T23:29:12Z</time>
      </trkpt>
      <trkpt lat="54.110503289848566" lon="10.813560169190168">
        <ele>0</ele>
        <time>2010-01-02T23:29:16Z</time>
      </trkpt>
      <trkpt lat="54.110580738633871" lon="10.813669636845589">
        <ele>0</ele>
        <time>2010-01-02T23:29:20Z</time>
      </trkpt>
      <trkpt lat="54.110653074458241" lon="10.813803663477302">
        <ele>0</ele>
        <time>2010-01-02T23:29:24Z</time>
      </trkpt>
      <trkpt lat="54.110722057521343" lon="10.81396677531302">
        <ele>0</ele>
        <time>2010-01-02T23:29:29Z</time>
      </trkpt>
      <trkpt lat="54.110775450244546" lon="10.814099879935384">
        <ele>0</ele>
        <time>2010-01-02T23:29:32Z</time>
      </trkpt>
      <trkpt lat="54.11081425845623" lon="10.814207335934043">
        <ele>0</ele>
        <time>2010-01-02T23:29:35Z</time>
      </trkpt>
      <trkpt lat="54.110849713906646" lon="10.814339350908995">
        <ele>0</ele>
        <time>2010-01-02T23:29:39Z</time>
      </trkpt>
      <trkpt lat="54.110867818817496" lon="10.814447393640876">
        <ele>0</ele>
        <time>2010-01-02T23:29:41Z</time>
      </trkpt>
      <trkpt lat="54.110927665606141" lon="10.814497685059905">
        <ele>0</ele>
        <time>2010-01-02T23:29:44Z</time>
      </trkpt>
      <trkpt lat="54.110980220139027" lon="10.814540516585112">
        <ele>0</ele>
        <time>2010-01-02T23:29:46Z</time>
      </trkpt>
      <trkpt lat="54.111060099676251" lon="10.81462693400681">
        <ele>0</ele>
        <time>2010-01-02T23:29:50Z</time>
      </trkpt>
      <trkpt lat="54.111076444387436" lon="10.814646380022168">
        <ele>0</ele>
        <time>2010-01-02T23:29:51Z</time>
      </trkpt>
      <trkpt lat="54.111130172386765" lon="10.814713602885604">
        <ele>0</ele>
        <time>2010-01-02T23:29:54Z</time>
      </trkpt>
      <trkpt lat="54.111199490725994" lon="10.814817119389772">
        <ele>0</ele>
        <time>2010-01-02T23:29:57Z</time>
      </trkpt>
      <trkpt lat="54.111278196796775" lon="10.814966317266226">
        <ele>0</ele>
        <time>2010-01-02T23:30:02Z</time>
      </trkpt>
      <trkpt lat="54.111417839303613" lon="10.815193215385079">
        <ele>0</ele>
        <time>2010-01-02T23:30:10Z</time>
      </trkpt>
      <trkpt lat="54.111515656113625" lon="10.815357081592083">
        <ele>0</ele>
        <time>2010-01-02T23:30:15Z</time>
      </trkpt>
      <trkpt lat="54.11164591088891" lon="10.815535364672542">
        <ele>0</ele>
        <time>2010-01-02T23:30:22Z</time>
      </trkpt>
      <trkpt lat="54.111766526475549" lon="10.815652711316943">
        <ele>0</ele>
        <time>2010-01-02T23:30:28Z</time>
      </trkpt>
      <trkpt lat="54.111836263909936" lon="10.815711887553334">
        <ele>0</ele>
        <time>2010-01-02T23:30:31Z</time>
      </trkpt>
      <trkpt lat="54.11192880012095" lon="10.815804088488221">
        <ele>0</ele>
        <time>2010-01-02T23:30:35Z</time>
      </trkpt>
      <trkpt lat="54.111991664394736" lon="10.815884890034795">
        <ele>0</ele>
        <time>2010-01-02T23:30:38Z</time>
      </trkpt>
      <trkpt lat="54.112010691314936" lon="10.815915819257498">
        <ele>0</ele>
        <time>2010-01-02T23:30:39Z</time>
      </trkpt>
      <trkpt lat="54.112049164250493" lon="10.815978012979031">
        <ele>0</ele>
        <time>2010-01-02T23:30:41Z</time>
      </trkpt>
      <trkpt lat="54.112102556973696" lon="10.816108016297221">
        <ele>0</ele>
        <time>2010-01-02T23:30:45Z</time>
      </trkpt>
      <trkpt lat="54.112170869484544" lon="10.816300297155976">
        <ele>0</ele>
        <time>2010-01-02T23:30:50Z</time>
      </trkpt>
      <trkpt lat="54.112242199480534" lon="10.816512359306216">
        <ele>0</ele>
        <time>2010-01-02T23:30:56Z</time>
      </trkpt>
      <trkpt lat="54.112490136176348" lon="10.817243847995996">
        <ele>0</ele>
        <time>2010-01-02T23:31:16Z</time>
      </trkpt>
      <trkpt lat="54.112664479762316" lon="10.817790934816003">
        <ele>0</ele>
        <time>2010-01-02T23:31:30Z</time>
      </trkpt>
      <trkpt lat="54.112722901627421" lon="10.817981958389282">
        <ele>0</ele>
        <time>2010-01-02T23:31:36Z</time>
      </trkpt>
      <trkpt lat="54.112791968509555" lon="10.818146662786603">
        <ele>0</ele>
        <time>2010-01-02T23:31:40Z</time>
      </trkpt>
      <trkpt lat="54.112878805026412" lon="10.818304745480418">
        <ele>0</ele>
        <time>2010-01-02T23:31:45Z</time>
      </trkpt>
      <trkpt lat="54.112957092002034" lon="10.81840499304235">
        <ele>0</ele>
        <time>2010-01-02T23:31:49Z</time>
      </trkpt>
      <trkpt lat="54.11306781694293" lon="10.818519573658705">
        <ele>0</ele>
        <time>2010-01-02T23:31:54Z</time>
      </trkpt>
      <trkpt lat="54.113140488043427" lon="10.81859702244401">
        <ele>0</ele>
        <time>2010-01-02T23:31:58Z</time>
      </trkpt>
      <trkpt lat="54.113227911293507" lon="10.818716883659363">
        <ele>0</ele>
        <time>2010-01-02T23:32:02Z</time>
      </trkpt>
      <trkpt lat="54.113306617364287" lon="10.818864572793245">
        <ele>0</ele>
        <time>2010-01-02T23:32:07Z</time>
      </trkpt>
      <trkpt lat="54.113414911553264" lon="10.819098511710763">
        <ele>0</ele>
        <time>2010-01-02T23:32:14Z</time>
      </trkpt>
      <trkpt lat="54.113471824675798" lon="10.819217702373862">
        <ele>0</ele>
        <time>2010-01-02T23:32:18Z</time>
      </trkpt>
      <trkpt lat="54.11350610665977" lon="10.819329852238297">
        <ele>0</ele>
        <time>2010-01-02T23:32:21Z</time>
      </trkpt>
      <trkpt lat="54.1135339345783" lon="10.819416269659996">
        <ele>0</ele>
        <time>2010-01-02T23:32:23Z</time>
      </trkpt>
      <trkpt lat="54.113551704213023" lon="10.819487599655986">
        <ele>0</ele>
        <time>2010-01-02T23:32:25Z</time>
      </trkpt>
      <trkpt lat="54.113563690334558" lon="10.819520875811577">
        <ele>0</ele>
        <time>2010-01-02T23:32:26Z</time>
      </trkpt>
      <trkpt lat="54.113592859357595" lon="10.819564461708069">
        <ele>0</ele>
        <time>2010-01-02T23:32:27Z</time>
      </trkpt>
      <trkpt lat="54.113634349778295" lon="10.819578543305397">
        <ele>0</ele>
        <time>2010-01-02T23:32:29Z</time>
      </trkpt>
      <trkpt lat="54.113719677552581" lon="10.819573095068336">
        <ele>0</ele>
        <time>2010-01-02T23:32:32Z</time>
      </trkpt>
      <trkpt lat="54.113881196826696" lon="10.819551637396216">
        <ele>0</ele>
        <time>2010-01-02T23:32:39Z</time>
      </trkpt>
      <trkpt lat="54.114014217630029" lon="10.819555493071675">
        <ele>0</ele>
        <time>2010-01-02T23:32:44Z</time>
      </trkpt>
      <trkpt lat="54.114099629223347" lon="10.819566892459989">
        <ele>0</ele>
        <time>2010-01-02T23:32:48Z</time>
      </trkpt>
      <trkpt lat="54.114179005846381" lon="10.81959824077785">
        <ele>0</ele>
        <time>2010-01-02T23:32:51Z</time>
      </trkpt>
      <trkpt lat="54.114254107698798" lon="10.81964660435915">
        <ele>0</ele>
        <time>2010-01-02T23:32:54Z</time>
      </trkpt>
      <trkpt lat="54.114313367754221" lon="10.819733608514071">
        <ele>0</ele>
        <time>2010-01-02T23:32:57Z</time>
      </trkpt>
      <trkpt lat="54.114350415766239" lon="10.819845674559474">
        <ele>0</ele>
        <time>2010-01-02T23:33:00Z</time>
      </trkpt>
      <trkpt lat="54.114352595061064" lon="10.819887835532427">
        <ele>0</ele>
        <time>2010-01-02T23:33:01Z</time>
      </trkpt>
      <trkpt lat="54.114355864003301" lon="10.81995103508234">
        <ele>0</ele>
        <time>2010-01-02T23:33:03Z</time>
      </trkpt>
      <trkpt lat="54.114344129338861" lon="10.820032423362136">
        <ele>0</ele>
        <time>2010-01-02T23:33:05Z</time>
      </trkpt>
      <trkpt lat="54.114315379410982" lon="10.820126552134752">
        <ele>0</ele>
        <time>2010-01-02T23:33:07Z</time>
      </trkpt>
      <trkpt lat="54.114288054406643" lon="10.820180866867304">
        <ele>0</ele>
        <time>2010-01-02T23:33:09Z</time>
      </trkpt>
      <trkpt lat="54.114383524283767" lon="10.820199558511376">
        <ele>0</ele>
        <time>2010-01-02T23:33:13Z</time>
      </trkpt>
      <trkpt lat="54.114477066323161" lon="10.820216741412878">
        <ele>0</ele>
        <time>2010-01-02T23:33:16Z</time>
      </trkpt>
      <trkpt lat="54.114594999700785" lon="10.820240965113044">
        <ele>0</ele>
        <time>2010-01-02T23:33:21Z</time>
      </trkpt>
      <trkpt lat="54.114706059917808" lon="10.820288239046931">
        <ele>0</ele>
        <time>2010-01-02T23:33:26Z</time>
      </trkpt>
      <trkpt lat="54.114770935848355" lon="10.820313971489668">
        <ele>0</ele>
        <time>2010-01-02T23:33:28Z</time>
      </trkpt>
      <trkpt lat="54.11482784897089" lon="10.820344481617212">
        <ele>0</ele>
        <time>2010-01-02T23:33:31Z</time>
      </trkpt>
      <trkpt lat="54.114906555041671" lon="10.820401897653937">
        <ele>0</ele>
        <time>2010-01-02T23:33:34Z</time>
      </trkpt>
      <trkpt lat="54.114983836188912" lon="10.820489907637239">
        <ele>0</ele>
        <time>2010-01-02T23:33:38Z</time>
      </trkpt>
      <trkpt lat="54.115054998546839" lon="10.820599542930722">
        <ele>0</ele>
        <time>2010-01-02T23:33:42Z</time>
      </trkpt>
      <trkpt lat="54.115126328542829" lon="10.820732060819864">
        <ele>0</ele>
        <time>2010-01-02T23:33:46Z</time>
      </trkpt>
      <trkpt lat="54.115172093734145" lon="10.82081638276577">
        <ele>0</ele>
        <time>2010-01-02T23:33:49Z</time>
      </trkpt>
      <trkpt lat="54.115191455930471" lon="10.820866338908672">
        <ele>0</ele>
        <time>2010-01-02T23:33:50Z</time>
      </trkpt>
      <trkpt lat="54.115215679630637" lon="10.820949738845229">
        <ele>0</ele>
        <time>2010-01-02T23:33:52Z</time>
      </trkpt>
      <trkpt lat="54.115237388759851" lon="10.821063816547394">
        <ele>0</ele>
        <time>2010-01-02T23:33:55Z</time>
      </trkpt>
      <trkpt lat="54.115244261920452" lon="10.82112324424088">
        <ele>0</ele>
        <time>2010-01-02T23:33:57Z</time>
      </trkpt>
      <trkpt lat="54.115248285233974" lon="10.821162890642881">
        <ele>0</ele>
        <time>2010-01-02T23:33:57Z</time>
      </trkpt>
      <trkpt lat="54.115259852260351" lon="10.821242099627852">
        <ele>0</ele>
        <time>2010-01-02T23:33:59Z</time>
      </trkpt>
      <trkpt lat="54.115278543904424" lon="10.821411330252886">
        <ele>0</ele>
        <time>2010-01-02T23:34:03Z</time>
      </trkpt>
      <trkpt lat="54.115289021283388" lon="10.821560947224498">
        <ele>0</ele>
        <time>2010-01-02T23:34:07Z</time>
      </trkpt>
      <trkpt lat="54.11529497243464" lon="10.821709055453539">
        <ele>0</ele>
        <time>2010-01-02T23:34:10Z</time>
      </trkpt>
      <trkpt lat="54.115293547511101" lon="10.821840651333332">
        <ele>0</ele>
        <time>2010-01-02T23:34:14Z</time>
      </trkpt>
      <trkpt lat="54.115283908322453" lon="10.821960177272558">
        <ele>0</ele>
        <time>2010-01-02T23:34:16Z</time>
      </trkpt>
      <trkpt lat="54.11526027135551" lon="10.822109207510948">
        <ele>0</ele>
        <time>2010-01-02T23:34:20Z</time>
      </trkpt>
      <trkpt lat="54.115236969664693" lon="10.822209287434816">
        <ele>0</ele>
        <time>2010-01-02T23:34:23Z</time>
      </trkpt>
      <trkpt lat="54.115204615518451" lon="10.82229888997972">
        <ele>0</ele>
        <time>2010-01-02T23:34:25Z</time>
      </trkpt>
      <trkpt lat="54.115193216130137" lon="10.822332836687565">
        <ele>0</ele>
        <time>2010-01-02T23:34:26Z</time>
      </trkpt>
      <trkpt lat="54.114915858954191" lon="10.82318183965981">
        <ele>0</ele>
        <time>2010-01-02T23:34:49Z</time>
      </trkpt>
      <trkpt lat="54.115047538653016" lon="10.823324918746948">
        <ele>0</ele>
        <time>2010-01-02T23:34:55Z</time>
      </trkpt>
      <trkpt lat="54.115121718496084" lon="10.823384011164308">
        <ele>0</ele>
        <time>2010-01-02T23:34:58Z</time>
      </trkpt>
      <trkpt lat="54.115254739299417" lon="10.823476547375321">
        <ele>0</ele>
        <time>2010-01-02T23:35:04Z</time>
      </trkpt>
      <trkpt lat="54.115378623828292" lon="10.823560198768973">
        <ele>0</ele>
        <time>2010-01-02T23:35:09Z</time>
      </trkpt>
      <trkpt lat="54.115508627146482" lon="10.823622308671474">
        <ele>0</ele>
        <time>2010-01-02T23:35:15Z</time>
      </trkpt>
      <trkpt lat="54.115644749253988" lon="10.823668912053108">
        <ele>0</ele>
        <time>2010-01-02T23:35:20Z</time>
      </trkpt>
      <trkpt lat="54.115762682631612" lon="10.823694644495845">
        <ele>0</ele>
        <time>2010-01-02T23:35:25Z</time>
      </trkpt>
      <trkpt lat="54.1158651933074" lon="10.823703948408365">
        <ele>0</ele>
        <time>2010-01-02T23:35:29Z</time>
      </trkpt>
      <trkpt lat="54.115927219390869" lon="10.823700679466128">
        <ele>0</ele>
        <time>2010-01-02T23:35:32Z</time>
      </trkpt>
      <trkpt lat="54.116012379527092" lon="10.823689112439752">
        <ele>0</ele>
        <time>2010-01-02T23:35:35Z</time>
      </trkpt>
      <trkpt lat="54.116102065891027" lon="10.823668157681823">
        <ele>0</ele>
        <time>2010-01-02T23:35:39Z</time>
      </trkpt>
      <trkpt lat="54.116206839680672" lon="10.823630020022392">
        <ele>0</ele>
        <time>2010-01-02T23:35:43Z</time>
      </trkpt>
      <trkpt lat="54.116314128041267" lon="10.823579644784331">
        <ele>0</ele>
        <time>2010-01-02T23:35:47Z</time>
      </trkpt>
      <trkpt lat="54.116420410573483" lon="10.823516948148608">
        <ele>0</ele>
        <time>2010-01-02T23:35:52Z</time>
      </trkpt>
      <trkpt lat="54.116520406678319" lon="10.823446875438094">
        <ele>0</ele>
        <time>2010-01-02T23:35:56Z</time>
      </trkpt>
      <trkpt lat="54.116599783301353" lon="10.823389543220401">
        <ele>0</ele>
        <time>2010-01-02T23:36:00Z</time>
      </trkpt>
      <trkpt lat="54.116674633696675" lon="10.823326259851456">
        <ele>0</ele>
        <time>2010-01-02T23:36:03Z</time>
      </trkpt>
      <trkpt lat="54.116764487698674" lon="10.823230370879173">
        <ele>0</ele>
        <time>2010-01-02T23:36:07Z</time>
      </trkpt>
      <trkpt lat="54.11686297506094" lon="10.823109839111567">
        <ele>0</ele>
        <time>2010-01-02T23:36:12Z</time>
      </trkpt>
      <trkpt lat="54.116963893175125" lon="10.822954103350639">
        <ele>0</ele>
        <time>2010-01-02T23:36:18Z</time>
      </trkpt>
      <trkpt lat="54.116970263421535" lon="10.822941614314914">
        <ele>0</ele>
        <time>2010-01-02T23:36:18Z</time>
      </trkpt>
      <trkpt lat="54.117049472406507" lon="10.822787974029779">
        <ele>0</ele>
        <time>2010-01-02T23:36:23Z</time>
      </trkpt>
      <trkpt lat="54.11707503721118" lon="10.822741370648146">
        <ele>0</ele>
        <time>2010-01-02T23:36:24Z</time>
      </trkpt>
      <trkpt lat="54.11715617403388" lon="10.822587730363011">
        <ele>0</ele>
        <time>2010-01-02T23:36:29Z</time>
      </trkpt>
      <trkpt lat="54.117298079654574" lon="10.822302242740989">
        <ele>0</ele>
        <time>2010-01-02T23:36:38Z</time>
      </trkpt>
      <trkpt lat="54.1175333596766" lon="10.821829168125987">
        <ele>0</ele>
        <time>2010-01-02T23:36:52Z</time>
      </trkpt>
      <trkpt lat="54.117665626108646" lon="10.821573017165065">
        <ele>0</ele>
        <time>2010-01-02T23:37:00Z</time>
      </trkpt>
      <trkpt lat="54.117761682718992" lon="10.821386771276593">
        <ele>0</ele>
        <time>2010-01-02T23:37:06Z</time>
      </trkpt>
      <trkpt lat="54.117905432358384" lon="10.821110503748059">
        <ele>0</ele>
        <time>2010-01-02T23:37:15Z</time>
      </trkpt>
      <trkpt lat="54.117915155366063" lon="10.821091895923018">
        <ele>0</ele>
        <time>2010-01-02T23:37:16Z</time>
      </trkpt>
      <trkpt lat="54.117937870323658" lon="10.821053758263588">
        <ele>0</ele>
        <time>2010-01-02T23:37:17Z</time>
      </trkpt>
      <trkpt lat="54.11799025721848" lon="10.820965832099319">
        <ele>0</ele>
        <time>2010-01-02T23:37:20Z</time>
      </trkpt>
      <trkpt lat="54.11806988529861" lon="10.820833565667272">
        <ele>0</ele>
        <time>2010-01-02T23:37:24Z</time>
      </trkpt>
      <trkpt lat="54.1182257886976" lon="10.820612031966448">
        <ele>0</ele>
        <time>2010-01-02T23:37:32Z</time>
      </trkpt>
      <trkpt lat="54.118380267173052" lon="10.820421008393168">
        <ele>0</ele>
        <time>2010-01-02T23:37:40Z</time>
      </trkpt>
      <trkpt lat="54.118516305461526" lon="10.820274911820889">
        <ele>0</ele>
        <time>2010-01-02T23:37:46Z</time>
      </trkpt>
      <trkpt lat="54.118520747870207" lon="10.820270217955112">
        <ele>0</ele>
        <time>2010-01-02T23:37:47Z</time>
      </trkpt>
      <trkpt lat="54.11866600625217" lon="10.820145243778825">
        <ele>0</ele>
        <time>2010-01-02T23:37:53Z</time>
      </trkpt>
      <trkpt lat="54.118852419778705" lon="10.820006942376494">
        <ele>0</ele>
        <time>2010-01-02T23:38:01Z</time>
      </trkpt>
      <trkpt lat="54.119028355926275" lon="10.819894876331091">
        <ele>0</ele>
        <time>2010-01-02T23:38:09Z</time>
      </trkpt>
      <trkpt lat="54.119183924049139" lon="10.819820109754801">
        <ele>0</ele>
        <time>2010-01-02T23:38:15Z</time>
      </trkpt>
      <trkpt lat="54.1193378996104" lon="10.819760682061315">
        <ele>0</ele>
        <time>2010-01-02T23:38:22Z</time>
      </trkpt>
      <trkpt lat="54.119452564045787" lon="10.819728327915072">
        <ele>0</ele>
        <time>2010-01-02T23:38:26Z</time>
      </trkpt>
      <trkpt lat="54.119584327563643" lon="10.819695554673672">
        <ele>0</ele>
        <time>2010-01-02T23:38:32Z</time>
      </trkpt>
      <trkpt lat="54.119703602045774" lon="10.819676863029599">
        <ele>0</ele>
        <time>2010-01-02T23:38:36Z</time>
      </trkpt>
      <trkpt lat="54.119823966175318" lon="10.819670408964157">
        <ele>0</ele>
        <time>2010-01-02T23:38:41Z</time>
      </trkpt>
      <trkpt lat="54.119938043877482" lon="10.819670241326094">
        <ele>0</ele>
        <time>2010-01-02T23:38:46Z</time>
      </trkpt>
      <trkpt lat="54.120043236762285" lon="10.819674851372838">
        <ele>0</ele>
        <time>2010-01-02T23:38:50Z</time>
      </trkpt>
      <trkpt lat="54.120072908699512" lon="10.819677114486694">
        <ele>0</ele>
        <time>2010-01-02T23:38:51Z</time>
      </trkpt>
      <trkpt lat="54.12018271163106" lon="10.819692285731435">
        <ele>0</ele>
        <time>2010-01-02T23:38:56Z</time>
      </trkpt>
      <trkpt lat="54.120309613645077" lon="10.819717766717076">
        <ele>0</ele>
        <time>2010-01-02T23:39:01Z</time>
      </trkpt>
      <trkpt lat="54.120431235060096" lon="10.819754060357809">
        <ele>0</ele>
        <time>2010-01-02T23:39:06Z</time>
      </trkpt>
      <trkpt lat="54.120523268356919" lon="10.819792784750462">
        <ele>0</ele>
        <time>2010-01-02T23:39:09Z</time>
      </trkpt>
      <trkpt lat="54.120637010782957" lon="10.819843076169491">
        <ele>0</ele>
        <time>2010-01-02T23:39:14Z</time>
      </trkpt>
      <trkpt lat="54.120757961645722" lon="10.819906946271658">
        <ele>0</ele>
        <time>2010-01-02T23:39:19Z</time>
      </trkpt>
      <trkpt lat="54.120857371017337" lon="10.819963775575161">
        <ele>0</ele>
        <time>2010-01-02T23:39:23Z</time>
      </trkpt>
      <trkpt lat="54.120949739590287" lon="10.820039128884673">
        <ele>0</ele>
        <time>2010-01-02T23:39:27Z</time>
      </trkpt>
      <trkpt lat="54.120964240282774" lon="10.820050947368145">
        <ele>0</ele>
        <time>2010-01-02T23:39:28Z</time>
      </trkpt>
      <trkpt lat="54.121106564998627" lon="10.820175418630242">
        <ele>0</ele>
        <time>2010-01-02T23:39:35Z</time>
      </trkpt>
      <trkpt lat="54.121248889714479" lon="10.820304416120052">
        <ele>0</ele>
        <time>2010-01-02T23:39:41Z</time>
      </trkpt>
      <trkpt lat="54.121493138372898" lon="10.820568194612861">
        <ele>0</ele>
        <time>2010-01-02T23:39:53Z</time>
      </trkpt>
      <trkpt lat="54.121888093650341" lon="10.820991396903992">
        <ele>0</ele>
        <time>2010-01-02T23:40:11Z</time>
      </trkpt>
      <trkpt lat="54.12218757905066" lon="10.821294905617833">
        <ele>0</ele>
        <time>2010-01-02T23:40:25Z</time>
      </trkpt>
      <trkpt lat="54.12249343469739" lon="10.821608975529671">
        <ele>0</ele>
        <time>2010-01-02T23:40:39Z</time>
      </trkpt>
      <trkpt lat="54.122692840173841" lon="10.821789940819144">
        <ele>0</ele>
        <time>2010-01-02T23:40:48Z</time>
      </trkpt>
      <trkpt lat="54.122850587591529" lon="10.821929248049855">
        <ele>0</ele>
        <time>2010-01-02T23:40:56Z</time>
      </trkpt>
      <trkpt lat="54.123016213998199" lon="10.822049947455525">
        <ele>0</ele>
        <time>2010-01-02T23:41:03Z</time>
      </trkpt>
      <trkpt lat="54.123200448229909" lon="10.822153380140662">
        <ele>0</ele>
        <time>2010-01-02T23:41:11Z</time>
      </trkpt>
      <trkpt lat="54.123371187597513" lon="10.822241809219122">
        <ele>0</ele>
        <time>2010-01-02T23:41:18Z</time>
      </trkpt>
      <trkpt lat="54.123512841761112" lon="10.822306601330638">
        <ele>0</ele>
        <time>2010-01-02T23:41:24Z</time>
      </trkpt>
      <trkpt lat="54.123541675508022" lon="10.822318000718951">
        <ele>0</ele>
        <time>2010-01-02T23:41:25Z</time>
      </trkpt>
      <trkpt lat="54.123599426820874" lon="10.82234239205718">
        <ele>0</ele>
        <time>2010-01-02T23:41:27Z</time>
      </trkpt>
      <trkpt lat="54.123706799000502" lon="10.822382206097245">
        <ele>0</ele>
        <time>2010-01-02T23:41:32Z</time>
      </trkpt>
      <trkpt lat="54.123847279697657" lon="10.822417996823788">
        <ele>0</ele>
        <time>2010-01-02T23:41:37Z</time>
      </trkpt>
      <trkpt lat="54.123981390148401" lon="10.822446327656507">
        <ele>0</ele>
        <time>2010-01-02T23:41:43Z</time>
      </trkpt>
      <trkpt lat="54.124128827825189" lon="10.822454374283552">
        <ele>0</ele>
        <time>2010-01-02T23:41:49Z</time>
      </trkpt>
      <trkpt lat="54.124247515574098" lon="10.822461750358343">
        <ele>0</ele>
        <time>2010-01-02T23:41:53Z</time>
      </trkpt>
      <trkpt lat="54.124377770349383" lon="10.82246258854866">
        <ele>0</ele>
        <time>2010-01-02T23:41:59Z</time>
      </trkpt>
      <trkpt lat="54.124505259096622" lon="10.82245135679841">
        <ele>0</ele>
        <time>2010-01-02T23:42:04Z</time>
      </trkpt>
      <trkpt lat="54.124639872461557" lon="10.82243375480175">
        <ele>0</ele>
        <time>2010-01-02T23:42:09Z</time>
      </trkpt>
      <trkpt lat="54.124748418107629" lon="10.822415398433805">
        <ele>0</ele>
        <time>2010-01-02T23:42:13Z</time>
      </trkpt>
      <trkpt lat="54.124784879386425" lon="10.822403663769364">
        <ele>0</ele>
        <time>2010-01-02T23:42:15Z</time>
      </trkpt>
      <trkpt lat="54.125014459714293" lon="10.822329819202423">
        <ele>0</ele>
        <time>2010-01-02T23:42:24Z</time>
      </trkpt>
      <trkpt lat="54.125120909884572" lon="10.822285478934646">
        <ele>0</ele>
        <time>2010-01-02T23:42:29Z</time>
      </trkpt>
      <trkpt lat="54.125242531299591" lon="10.822222447022796">
        <ele>0</ele>
        <time>2010-01-02T23:42:34Z</time>
      </trkpt>
      <trkpt lat="54.125375719740987" lon="10.822152877226472">
        <ele>0</ele>
        <time>2010-01-02T23:42:39Z</time>
      </trkpt>
      <trkpt lat="54.125490970909595" lon="10.822091437876225">
        <ele>0</ele>
        <time>2010-01-02T23:42:44Z</time>
      </trkpt>
      <trkpt lat="54.125669756904244" lon="10.821997644379735">
        <ele>0</ele>
        <time>2010-01-02T23:42:52Z</time>
      </trkpt>
      <trkpt lat="54.125826833769679" lon="10.821889182552695">
        <ele>0</ele>
        <time>2010-01-02T23:42:58Z</time>
      </trkpt>
      <trkpt lat="54.12604090757668" lon="10.821730177849531">
        <ele>0</ele>
        <time>2010-01-02T23:43:08Z</time>
      </trkpt>
      <trkpt lat="54.126149034127593" lon="10.821665888652205">
        <ele>0</ele>
        <time>2010-01-02T23:43:12Z</time>
      </trkpt>
      <trkpt lat="54.126216927543283" lon="10.821625739336014">
        <ele>0</ele>
        <time>2010-01-02T23:43:15Z</time>
      </trkpt>
      <trkpt lat="54.126263363286853" lon="10.821598414331675">
        <ele>0</ele>
        <time>2010-01-02T23:43:17Z</time>
      </trkpt>
      <trkpt lat="54.126309799030423" lon="10.821571089327335">
        <ele>0</ele>
        <time>2010-01-02T23:43:19Z</time>
      </trkpt>
      <trkpt lat="54.126386577263474" lon="10.821524569764733">
        <ele>0</ele>
        <time>2010-01-02T23:43:22Z</time>
      </trkpt>
      <trkpt lat="54.126479532569647" lon="10.821469919756055">
        <ele>0</ele>
        <time>2010-01-02T23:43:26Z</time>
      </trkpt>
      <trkpt lat="54.127008598297834" lon="10.821272861212492">
        <ele>0</ele>
        <time>2010-01-02T23:43:48Z</time>
      </trkpt>
      <trkpt lat="54.127202304080129" lon="10.821228940039873">
        <ele>0</ele>
        <time>2010-01-02T23:43:56Z</time>
      </trkpt>
      <trkpt lat="54.127359045669436" lon="10.821210583671927">
        <ele>0</ele>
        <time>2010-01-02T23:44:02Z</time>
      </trkpt>
      <trkpt lat="54.127435656264424" lon="10.821202453225851">
        <ele>0</ele>
        <time>2010-01-02T23:44:05Z</time>
      </trkpt>
      <trkpt lat="54.127828432247043" lon="10.821225168183446">
        <ele>0</ele>
        <time>2010-01-02T23:44:21Z</time>
      </trkpt>
      <trkpt lat="54.128268985077739" lon="10.821351818740368">
        <ele>0</ele>
        <time>2010-01-02T23:44:39Z</time>
      </trkpt>
      <trkpt lat="54.128389935940504" lon="10.821405043825507">
        <ele>0</ele>
        <time>2010-01-02T23:44:44Z</time>
      </trkpt>
      <trkpt lat="54.128569643944502" lon="10.821496322751045">
        <ele>0</ele>
        <time>2010-01-02T23:44:51Z</time>
      </trkpt>
      <trkpt lat="54.128708783537149" lon="10.821576453745365">
        <ele>0</ele>
        <time>2010-01-02T23:44:57Z</time>
      </trkpt>
      <trkpt lat="54.128831746056676" lon="10.821657171472907">
        <ele>0</ele>
        <time>2010-01-02T23:45:02Z</time>
      </trkpt>
      <trkpt lat="54.128946745768189" lon="10.821744091808796">
        <ele>0</ele>
        <time>2010-01-02T23:45:08Z</time>
      </trkpt>
      <trkpt lat="54.129107845947146" lon="10.821868060156703">
        <ele>0</ele>
        <time>2010-01-02T23:45:15Z</time>
      </trkpt>
      <trkpt lat="54.129242040216923" lon="10.821994291618466">
        <ele>0</ele>
        <time>2010-01-02T23:45:21Z</time>
      </trkpt>
      <trkpt lat="54.129456952214241" lon="10.822196211665869">
        <ele>0</ele>
        <time>2010-01-02T23:45:31Z</time>
      </trkpt>
      <trkpt lat="54.129821816459298" lon="10.822568368166685">
        <ele>0</ele>
        <time>2010-01-02T23:45:48Z</time>
      </trkpt>
      <trkpt lat="54.130095737054944" lon="10.822837511077523">
        <ele>0</ele>
        <time>2010-01-02T23:46:00Z</time>
      </trkpt>
      <trkpt lat="54.130864860489964" lon="10.823572939261794">
        <ele>0</ele>
        <time>2010-01-02T23:46:35Z</time>
      </trkpt>
      <trkpt lat="54.130902076140046" lon="10.823608646169305">
        <ele>0</ele>
        <time>2010-01-02T23:46:37Z</time>
      </trkpt>
      <trkpt lat="54.131429884582758" lon="10.824115416035056">
        <ele>0</ele>
        <time>2010-01-02T23:47:01Z</time>
      </trkpt>
      <trkpt lat="54.131663152948022" lon="10.824356647208333">
        <ele>0</ele>
        <time>2010-01-02T23:47:12Z</time>
      </trkpt>
      <trkpt lat="54.132949355989695" lon="10.825602281838655">
        <ele>0</ele>
        <time>2010-01-02T23:48:12Z</time>
      </trkpt>
      <trkpt lat="54.132754141464829" lon="10.826687989756465">
        <ele>0</ele>
        <time>2010-01-02T23:48:38Z</time>
      </trkpt>
      <trkpt lat="54.132714997977018" lon="10.826910864561796">
        <ele>0</ele>
        <time>2010-01-02T23:48:44Z</time>
      </trkpt>
      <trkpt lat="54.132679291069508" lon="10.827113874256611">
        <ele>0</ele>
        <time>2010-01-02T23:48:49Z</time>
      </trkpt>
      <trkpt lat="54.1326486133039" lon="10.827287631109357">
        <ele>0</ele>
        <time>2010-01-02T23:48:53Z</time>
      </trkpt>
      <trkpt lat="54.132626987993717" lon="10.827373880892992">
        <ele>0</ele>
        <time>2010-01-02T23:48:55Z</time>
      </trkpt>
      <trkpt lat="54.132590275257826" lon="10.827480498701334">
        <ele>0</ele>
        <time>2010-01-02T23:48:58Z</time>
      </trkpt>
      <trkpt lat="54.132561273872852" lon="10.827545542269945">
        <ele>0</ele>
        <time>2010-01-02T23:49:00Z</time>
      </trkpt>
      <trkpt lat="54.132462283596396" lon="10.827761963009834">
        <ele>0</ele>
        <time>2010-01-02T23:49:06Z</time>
      </trkpt>
      <trkpt lat="54.132334291934967" lon="10.828041499480605">
        <ele>0</ele>
        <time>2010-01-02T23:49:15Z</time>
      </trkpt>
      <trkpt lat="54.132306296378374" lon="10.828120373189449">
        <ele>0</ele>
        <time>2010-01-02T23:49:17Z</time>
      </trkpt>
      <trkpt lat="54.132281988859177" lon="10.828202096745372">
        <ele>0</ele>
        <time>2010-01-02T23:49:19Z</time>
      </trkpt>
      <trkpt lat="54.132242342457175" lon="10.828380715101957">
        <ele>0</ele>
        <time>2010-01-02T23:49:23Z</time>
      </trkpt>
      <trkpt lat="54.132241252809763" lon="10.828455733135343">
        <ele>0</ele>
        <time>2010-01-02T23:49:25Z</time>
      </trkpt>
      <trkpt lat="54.13224552758038" lon="10.828519854694605">
        <ele>0</ele>
        <time>2010-01-02T23:49:27Z</time>
      </trkpt>
      <trkpt lat="54.132256172597408" lon="10.82860367372632">
        <ele>0</ele>
        <time>2010-01-02T23:49:29Z</time>
      </trkpt>
      <trkpt lat="54.132272517308593" lon="10.82870727404952">
        <ele>0</ele>
        <time>2010-01-02T23:49:31Z</time>
      </trkpt>
      <trkpt lat="54.132596980780363" lon="10.830572247505188">
        <ele>0</ele>
        <time>2010-01-02T23:50:17Z</time>
      </trkpt>
      <trkpt lat="54.132627574726939" lon="10.830758074298501">
        <ele>0</ele>
        <time>2010-01-02T23:50:21Z</time>
      </trkpt>
      <trkpt lat="54.132656827569008" lon="10.830904087051749">
        <ele>0</ele>
        <time>2010-01-02T23:50:25Z</time>
      </trkpt>
      <trkpt lat="54.132841480895877" lon="10.831689890474081">
        <ele>0</ele>
        <time>2010-01-02T23:50:45Z</time>
      </trkpt>
      <trkpt lat="54.133023535832763" lon="10.832491032779217">
        <ele>0</ele>
        <time>2010-01-02T23:51:05Z</time>
      </trkpt>
      <trkpt lat="54.133587386459112" lon="10.834868056699634">
        <ele>0</ele>
        <time>2010-01-02T23:52:05Z</time>
      </trkpt>
      <trkpt lat="54.133594678714871" lon="10.834965789690614">
        <ele>0</ele>
        <time>2010-01-02T23:52:07Z</time>
      </trkpt>
      <trkpt lat="54.133599791675806" lon="10.835031419992447">
        <ele>0</ele>
        <time>2010-01-02T23:52:09Z</time>
      </trkpt>
      <trkpt lat="54.133664835244417" lon="10.835721082985401">
        <ele>0</ele>
        <time>2010-01-02T23:52:25Z</time>
      </trkpt>
      <trkpt lat="54.133677827194333" lon="10.835856953635812">
        <ele>0</ele>
        <time>2010-01-02T23:52:29Z</time>
      </trkpt>
      <trkpt lat="54.133696435019374" lon="10.836108829826117">
        <ele>0</ele>
        <time>2010-01-02T23:52:35Z</time>
      </trkpt>
      <trkpt lat="54.133713115006685" lon="10.836209328845143">
        <ele>0</ele>
        <time>2010-01-02T23:52:37Z</time>
      </trkpt>
      <trkpt lat="54.133716635406017" lon="10.836230954155326">
        <ele>0</ele>
        <time>2010-01-02T23:52:38Z</time>
      </trkpt>
      <trkpt lat="54.133722167462111" lon="10.836264146491885">
        <ele>0</ele>
        <time>2010-01-02T23:52:38Z</time>
      </trkpt>
      <trkpt lat="54.133757119998336" lon="10.836434550583363">
        <ele>0</ele>
        <time>2010-01-02T23:52:43Z</time>
      </trkpt>
      <trkpt lat="54.133799616247416" lon="10.836554244160652">
        <ele>0</ele>
        <time>2010-01-02T23:52:46Z</time>
      </trkpt>
      <trkpt lat="54.133855439722538" lon="10.836661281064153">
        <ele>0</ele>
        <time>2010-01-02T23:52:49Z</time>
      </trkpt>
      <trkpt lat="54.133943449705839" lon="10.836756750941277">
        <ele>0</ele>
        <time>2010-01-02T23:52:53Z</time>
      </trkpt>
      <trkpt lat="54.136199103668332" lon="10.838948870077729">
        <ele>0</ele>
        <time>2010-01-02T23:54:37Z</time>
      </trkpt>
      <trkpt lat="54.13624051027" lon="10.838949205353856">
        <ele>0</ele>
        <time>2010-01-02T23:54:39Z</time>
      </trkpt>
      <trkpt lat="54.136263811960816" lon="10.83894400857389">
        <ele>0</ele>
        <time>2010-01-02T23:54:40Z</time>
      </trkpt>
      <trkpt lat="54.136296669021249" lon="10.838909391313791">
        <ele>0</ele>
        <time>2010-01-02T23:54:42Z</time>
      </trkpt>
      <trkpt lat="54.13632751442492" lon="10.838842755183578">
        <ele>0</ele>
        <time>2010-01-02T23:54:43Z</time>
      </trkpt>
      <trkpt lat="54.136346625164151" lon="10.838777963072062">
        <ele>0</ele>
        <time>2010-01-02T23:54:45Z</time>
      </trkpt>
      <trkpt lat="54.13645307533443" lon="10.837983945384622">
        <ele>0</ele>
        <time>2010-01-02T23:55:04Z</time>
      </trkpt>
      <trkpt lat="54.136500265449286" lon="10.837631486356258">
        <ele>0</ele>
        <time>2010-01-02T23:55:13Z</time>
      </trkpt>
      <trkpt lat="54.13655030541122" lon="10.837257485836744">
        <ele>0</ele>
        <time>2010-01-02T23:55:22Z</time>
      </trkpt>
      <trkpt lat="54.136559693142772" lon="10.837208284065127">
        <ele>0</ele>
        <time>2010-01-02T23:55:23Z</time>
      </trkpt>
      <trkpt lat="54.136579893529415" lon="10.837155729532242">
        <ele>0</ele>
        <time>2010-01-02T23:55:24Z</time>
      </trkpt>
      <trkpt lat="54.136598166078329" lon="10.837100073695183">
        <ele>0</ele>
        <time>2010-01-02T23:55:26Z</time>
      </trkpt>
      <trkpt lat="54.136696318164468" lon="10.836933609098196">
        <ele>0</ele>
        <time>2010-01-02T23:55:31Z</time>
      </trkpt>
      <trkpt lat="54.13659431040287" lon="10.837998362258077">
        <ele>0</ele>
        <time>2010-01-02T23:55:57Z</time>
      </trkpt>
      <trkpt lat="54.136478304862976" lon="10.839202674105763">
        <ele>0</ele>
        <time>2010-01-02T23:56:25Z</time>
      </trkpt>
      <trkpt lat="54.136454248800874" lon="10.839412976056337">
        <ele>0</ele>
        <time>2010-01-02T23:56:30Z</time>
      </trkpt>
      <trkpt lat="54.136445196345448" lon="10.839497381821275">
        <ele>0</ele>
        <time>2010-01-02T23:56:32Z</time>
      </trkpt>
      <trkpt lat="54.136435221880674" lon="10.839581871405244">
        <ele>0</ele>
        <time>2010-01-02T23:56:34Z</time>
      </trkpt>
      <trkpt lat="54.136402029544115" lon="10.839868867769837">
        <ele>0</ele>
        <time>2010-01-02T23:56:41Z</time>
      </trkpt>
      <trkpt lat="54.136383002623916" lon="10.840129544958472">
        <ele>0</ele>
        <time>2010-01-02T23:56:47Z</time>
      </trkpt>
      <trkpt lat="54.136384008452296" lon="10.840228954330087">
        <ele>0</ele>
        <time>2010-01-02T23:56:50Z</time>
      </trkpt>
      <trkpt lat="54.136388618499041" lon="10.840339008718729">
        <ele>0</ele>
        <time>2010-01-02T23:56:52Z</time>
      </trkpt>
      <trkpt lat="54.136418793350458" lon="10.840950133278966">
        <ele>0</ele>
        <time>2010-01-02T23:57:07Z</time>
      </trkpt>
      <trkpt lat="54.136423319578171" lon="10.841047950088978">
        <ele>0</ele>
        <time>2010-01-02T23:57:09Z</time>
      </trkpt>
      <trkpt lat="54.13641988299787" lon="10.841162782162428">
        <ele>0</ele>
        <time>2010-01-02T23:57:12Z</time>
      </trkpt>
      <trkpt lat="54.136413931846619" lon="10.841291528195143">
        <ele>0</ele>
        <time>2010-01-02T23:57:15Z</time>
      </trkpt>
      <trkpt lat="54.136399095878005" lon="10.841425051912665">
        <ele>0</ele>
        <time>2010-01-02T23:57:18Z</time>
      </trkpt>
      <trkpt lat="54.136387361213565" lon="10.84151566028595">
        <ele>0</ele>
        <time>2010-01-02T23:57:20Z</time>
      </trkpt>
      <trkpt lat="54.136341931298375" lon="10.841741804033518">
        <ele>0</ele>
        <time>2010-01-02T23:57:26Z</time>
      </trkpt>
      <trkpt lat="54.136340338736773" lon="10.841948417946696">
        <ele>0</ele>
        <time>2010-01-02T23:57:31Z</time>
      </trkpt>
      <trkpt lat="54.136334136128426" lon="10.842054197564721">
        <ele>0</ele>
        <time>2010-01-02T23:57:33Z</time>
      </trkpt>
      <trkpt lat="54.136325167492032" lon="10.842143129557371">
        <ele>0</ele>
        <time>2010-01-02T23:57:35Z</time>
      </trkpt>
      <trkpt lat="54.136309996247292" lon="10.842253770679235">
        <ele>0</ele>
        <time>2010-01-02T23:57:38Z</time>
      </trkpt>
      <trkpt lat="54.136292729526758" lon="10.842321580275893">
        <ele>0</ele>
        <time>2010-01-02T23:57:40Z</time>
      </trkpt>
      <trkpt lat="54.136196337640285" lon="10.84253397770226">
        <ele>0</ele>
        <time>2010-01-02T23:57:46Z</time>
      </trkpt>
      <trkpt lat="54.136180998757482" lon="10.842567924410105">
        <ele>0</ele>
        <time>2010-01-02T23:57:47Z</time>
      </trkpt>
      <trkpt lat="54.136131042614579" lon="10.842707064002752">
        <ele>0</ele>
        <time>2010-01-02T23:57:51Z</time>
      </trkpt>
      <trkpt lat="54.136071195825934" lon="10.84282960742712">
        <ele>0</ele>
        <time>2010-01-02T23:57:55Z</time>
      </trkpt>
      <trkpt lat="54.135764418169856" lon="10.843444000929594">
        <ele>0</ele>
        <time>2010-01-02T23:58:13Z</time>
      </trkpt>
      <trkpt lat="54.135727286338806" lon="10.843506278470159">
        <ele>0</ele>
        <time>2010-01-02T23:58:16Z</time>
      </trkpt>
      <trkpt lat="54.135666936635971" lon="10.84358599036932">
        <ele>0</ele>
        <time>2010-01-02T23:58:19Z</time>
      </trkpt>
      <trkpt lat="54.135512374341488" lon="10.843767710030079">
        <ele>0</ele>
        <time>2010-01-02T23:58:26Z</time>
      </trkpt>
      <trkpt lat="54.135492090135813" lon="10.843806602060795">
        <ele>0</ele>
        <time>2010-01-02T23:58:27Z</time>
      </trkpt>
      <trkpt lat="54.135475410148501" lon="10.843848343938589">
        <ele>0</ele>
        <time>2010-01-02T23:58:29Z</time>
      </trkpt>
      <trkpt lat="54.135461328551173" lon="10.843883883208036">
        <ele>0</ele>
        <time>2010-01-02T23:58:30Z</time>
      </trkpt>
      <trkpt lat="54.135357309132814" lon="10.844186721369624">
        <ele>0</ele>
        <time>2010-01-02T23:58:38Z</time>
      </trkpt>
      <trkpt lat="54.135311795398593" lon="10.844307336956263">
        <ele>0</ele>
        <time>2010-01-02T23:58:41Z</time>
      </trkpt>
      <trkpt lat="54.135256558656693" lon="10.844454187899828">
        <ele>0</ele>
        <time>2010-01-02T23:58:45Z</time>
      </trkpt>
      <trkpt lat="54.135162848979235" lon="10.844701621681452">
        <ele>0</ele>
        <time>2010-01-02T23:58:52Z</time>
      </trkpt>
      <trkpt lat="54.135149018839002" lon="10.844758618623018">
        <ele>0</ele>
        <time>2010-01-02T23:58:54Z</time>
      </trkpt>
      <trkpt lat="54.135130494832993" lon="10.844887616112828">
        <ele>0</ele>
        <time>2010-01-02T23:58:57Z</time>
      </trkpt>
      <trkpt lat="54.134902926161885" lon="10.844955174252391">
        <ele>0</ele>
        <time>2010-01-02T23:59:06Z</time>
      </trkpt>
      <trkpt lat="54.134869817644358" lon="10.844975961372256">
        <ele>0</ele>
        <time>2010-01-02T23:59:07Z</time>
      </trkpt>
      <trkpt lat="54.134839475154877" lon="10.844993647187948">
        <ele>0</ele>
        <time>2010-01-02T23:59:09Z</time>
      </trkpt>
      <trkpt lat="54.13477074354887" lon="10.845039915293455">
        <ele>0</ele>
        <time>2010-01-02T23:59:12Z</time>
      </trkpt>
      <trkpt lat="54.134644931182265" lon="10.845140414312482">
        <ele>0</ele>
        <time>2010-01-02T23:59:17Z</time>
      </trkpt>
      <trkpt lat="54.134151069447398" lon="10.845534531399608">
        <ele>0</ele>
        <time>2010-01-02T23:59:39Z</time>
      </trkpt>
      <trkpt lat="54.134060041978955" lon="10.845605861395597">
        <ele>0</ele>
        <time>2010-01-02T23:59:43Z</time>
      </trkpt>
      <trkpt lat="54.133989801630378" lon="10.845681298524141">
        <ele>0</ele>
        <time>2010-01-02T23:59:46Z</time>
      </trkpt>
      <trkpt lat="54.133936576545238" lon="10.845747012645006">
        <ele>0</ele>
        <time>2010-01-02T23:59:49Z</time>
      </trkpt>
      <trkpt lat="54.13388435728848" lon="10.845831083133817">
        <ele>0</ele>
        <time>2010-01-02T23:59:52Z</time>
      </trkpt>
      <trkpt lat="54.133835826069117" lon="10.845924206078053">
        <ele>0</ele>
        <time>2010-01-02T23:59:55Z</time>
      </trkpt>
      <trkpt lat="54.133784612640738" lon="10.846019005402923">
        <ele>0</ele>
        <time>2010-01-02T23:59:58Z</time>
      </trkpt>
      <trkpt lat="54.133704314008355" lon="10.846171136945486">
        <ele>0</ele>
        <time>2010-01-03T00:00:03Z</time>
      </trkpt>
      <trkpt lat="54.133662991225719" lon="10.846270211040974">
        <ele>0</ele>
        <time>2010-01-03T00:00:05Z</time>
      </trkpt>
      <trkpt lat="54.133467441424727" lon="10.846866248175502">
        <ele>0</ele>
        <time>2010-01-03T00:00:21Z</time>
      </trkpt>
      <trkpt lat="54.133427878841758" lon="10.846949899569154">
        <ele>0</ele>
        <time>2010-01-03T00:00:24Z</time>
      </trkpt>
      <trkpt lat="54.133381862193346" lon="10.847030784934759">
        <ele>0</ele>
        <time>2010-01-03T00:00:27Z</time>
      </trkpt>
      <trkpt lat="54.133330481126904" lon="10.847098007798195">
        <ele>0</ele>
        <time>2010-01-03T00:00:29Z</time>
      </trkpt>
      <trkpt lat="54.133282452821732" lon="10.847157435491681">
        <ele>0</ele>
        <time>2010-01-03T00:00:32Z</time>
      </trkpt>
      <trkpt lat="54.133214810863137" lon="10.847217449918389">
        <ele>0</ele>
        <time>2010-01-03T00:00:35Z</time>
      </trkpt>
      <trkpt lat="54.133144235238433" lon="10.847263801842928">
        <ele>0</ele>
        <time>2010-01-03T00:00:38Z</time>
      </trkpt>
      <trkpt lat="54.133101319894195" lon="10.847284840419888">
        <ele>0</ele>
        <time>2010-01-03T00:00:39Z</time>
      </trkpt>
      <trkpt lat="54.133042227476835" lon="10.847306381911039">
        <ele>0</ele>
        <time>2010-01-03T00:00:42Z</time>
      </trkpt>
      <trkpt lat="54.132497403770685" lon="10.847456166520715">
        <ele>0</ele>
        <time>2010-01-03T00:01:04Z</time>
      </trkpt>
      <trkpt lat="54.13243655115366" lon="10.84748231805861">
        <ele>0</ele>
        <time>2010-01-03T00:01:06Z</time>
      </trkpt>
      <trkpt lat="54.132348289713264" lon="10.847558174282312">
        <ele>0</ele>
        <time>2010-01-03T00:01:10Z</time>
      </trkpt>
      <trkpt lat="54.132154667750001" lon="10.847786916419864">
        <ele>0</ele>
        <time>2010-01-03T00:01:20Z</time>
      </trkpt>
      <trkpt lat="54.132133461534977" lon="10.847824215888977">
        <ele>0</ele>
        <time>2010-01-03T00:01:21Z</time>
      </trkpt>
      <trkpt lat="54.132109740749002" lon="10.847883056849241">
        <ele>0</ele>
        <time>2010-01-03T00:01:23Z</time>
      </trkpt>
      <trkpt lat="54.132068920880556" lon="10.848026471212506">
        <ele>0</ele>
        <time>2010-01-03T00:01:26Z</time>
      </trkpt>
      <trkpt lat="54.131822325289249" lon="10.847987411543727">
        <ele>0</ele>
        <time>2010-01-03T00:01:36Z</time>
      </trkpt>
      <trkpt lat="54.131604563444853" lon="10.847952123731375">
        <ele>0</ele>
        <time>2010-01-03T00:01:45Z</time>
      </trkpt>
      <trkpt lat="54.131466848775744" lon="10.847929157316685">
        <ele>0</ele>
        <time>2010-01-03T00:01:51Z</time>
      </trkpt>
      <trkpt lat="54.131298623979092" lon="10.847900910302997">
        <ele>0</ele>
        <time>2010-01-03T00:01:57Z</time>
      </trkpt>
      <trkpt lat="54.131342293694615" lon="10.849276632070541">
        <ele>0</ele>
        <time>2010-01-03T00:02:30Z</time>
      </trkpt>
      <trkpt lat="54.131505405530334" lon="10.854420103132725">
        <ele>0</ele>
        <time>2010-01-03T00:04:31Z</time>
      </trkpt>
      <trkpt lat="54.131533820182085" lon="10.855328114703298">
        <ele>0</ele>
        <time>2010-01-03T00:04:52Z</time>
      </trkpt>
      <trkpt lat="54.1315330658108" lon="10.855628019198775">
        <ele>0</ele>
        <time>2010-01-03T00:04:59Z</time>
      </trkpt>
      <trkpt lat="54.1315330658108" lon="10.855722818523645">
        <ele>0</ele>
        <time>2010-01-03T00:05:01Z</time>
      </trkpt>
      <trkpt lat="54.131522756069899" lon="10.855866903439164">
        <ele>0</ele>
        <time>2010-01-03T00:05:05Z</time>
      </trkpt>
      <trkpt lat="54.131505070254207" lon="10.855985172092915">
        <ele>0</ele>
        <time>2010-01-03T00:05:07Z</time>
      </trkpt>
      <trkpt lat="54.131465759128332" lon="10.856108721345663">
        <ele>0</ele>
        <time>2010-01-03T00:05:11Z</time>
      </trkpt>
      <trkpt lat="54.131422089412808" lon="10.856235371902585">
        <ele>0</ele>
        <time>2010-01-03T00:05:14Z</time>
      </trkpt>
      <trkpt lat="54.131367607042193" lon="10.856365375220776">
        <ele>0</ele>
        <time>2010-01-03T00:05:18Z</time>
      </trkpt>
      <trkpt lat="54.131315555423498" lon="10.856469310820103">
        <ele>0</ele>
        <time>2010-01-03T00:05:21Z</time>
      </trkpt>
      <trkpt lat="54.131258893758059" lon="10.856561092659831">
        <ele>0</ele>
        <time>2010-01-03T00:05:24Z</time>
      </trkpt>
      <trkpt lat="54.131109360605478" lon="10.856803832575679">
        <ele>0</ele>
        <time>2010-01-03T00:05:33Z</time>
      </trkpt>
      <trkpt lat="54.130851030349731" lon="10.857222508639097">
        <ele>0</ele>
        <time>2010-01-03T00:05:47Z</time>
      </trkpt>
      <trkpt lat="54.130444005131721" lon="10.857883924618363">
        <ele>0</ele>
        <time>2010-01-03T00:06:09Z</time>
      </trkpt>
      <trkpt lat="54.130379380658269" lon="10.857989704236388">
        <ele>0</ele>
        <time>2010-01-03T00:06:13Z</time>
      </trkpt>
      <trkpt lat="54.130310397595167" lon="10.858101770281792">
        <ele>0</ele>
        <time>2010-01-03T00:06:17Z</time>
      </trkpt>
      <trkpt lat="54.130206881090999" lon="10.858274437487125">
        <ele>0</ele>
        <time>2010-01-03T00:06:22Z</time>
      </trkpt>
      <trkpt lat="54.130058353766799" lon="10.858529331162572">
        <ele>0</ele>
        <time>2010-01-03T00:06:31Z</time>
      </trkpt>
      <trkpt lat="54.129938324913383" lon="10.858754469081759">
        <ele>0</ele>
        <time>2010-01-03T00:06:38Z</time>
      </trkpt>
      <trkpt lat="54.129820894449949" lon="10.858976505696774">
        <ele>0</ele>
        <time>2010-01-03T00:06:45Z</time>
      </trkpt>
      <trkpt lat="54.129766160622239" lon="10.859089661389589">
        <ele>0</ele>
        <time>2010-01-03T00:06:48Z</time>
      </trkpt>
      <trkpt lat="54.12952040322125" lon="10.859596682712436">
        <ele>0</ele>
        <time>2010-01-03T00:07:04Z</time>
      </trkpt>
      <trkpt lat="54.129379419609904" lon="10.859883511438966">
        <ele>0</ele>
        <time>2010-01-03T00:07:13Z</time>
      </trkpt>
      <trkpt lat="54.12926928140223" lon="10.860117534175515">
        <ele>0</ele>
        <time>2010-01-03T00:07:20Z</time>
      </trkpt>
      <trkpt lat="54.129155203700066" lon="10.860402183607221">
        <ele>0</ele>
        <time>2010-01-03T00:07:28Z</time>
      </trkpt>
      <trkpt lat="54.129129722714424" lon="10.860464042052627">
        <ele>0</ele>
        <time>2010-01-03T00:07:30Z</time>
      </trkpt>
      <trkpt lat="54.129038359969854" lon="10.860685324296355">
        <ele>0</ele>
        <time>2010-01-03T00:07:36Z</time>
      </trkpt>
      <trkpt lat="54.129002904519439" lon="10.860790768638253">
        <ele>0</ele>
        <time>2010-01-03T00:07:39Z</time>
      </trkpt>
      <trkpt lat="54.128923863172531" lon="10.861025042831898">
        <ele>0</ele>
        <time>2010-01-03T00:07:45Z</time>
      </trkpt>
      <trkpt lat="54.128907267004251" lon="10.861074412241578">
        <ele>0</ele>
        <time>2010-01-03T00:07:46Z</time>
      </trkpt>
      <trkpt lat="54.128479287028313" lon="10.862273275852203">
        <ele>0</ele>
        <time>2010-01-03T00:08:19Z</time>
      </trkpt>
      <trkpt lat="54.128416003659368" lon="10.862427921965718">
        <ele>0</ele>
        <time>2010-01-03T00:08:24Z</time>
      </trkpt>
      <trkpt lat="54.128334783017635" lon="10.862581646069884">
        <ele>0</ele>
        <time>2010-01-03T00:08:29Z</time>
      </trkpt>
      <trkpt lat="54.128309302031994" lon="10.862635876983404">
        <ele>0</ele>
        <time>2010-01-03T00:08:30Z</time>
      </trkpt>
      <trkpt lat="54.128281138837337" lon="10.862696310505271">
        <ele>0</ele>
        <time>2010-01-03T00:08:32Z</time>
      </trkpt>
      <trkpt lat="54.128238055855036" lon="10.862799994647503">
        <ele>0</ele>
        <time>2010-01-03T00:08:35Z</time>
      </trkpt>
      <trkpt lat="54.128194386139512" lon="10.862929662689567">
        <ele>0</ele>
        <time>2010-01-03T00:08:39Z</time>
      </trkpt>
      <trkpt lat="54.128163121640682" lon="10.863045249134302">
        <ele>0</ele>
        <time>2010-01-03T00:08:42Z</time>
      </trkpt>
      <trkpt lat="54.128123307600617" lon="10.863211546093225">
        <ele>0</ele>
        <time>2010-01-03T00:08:46Z</time>
      </trkpt>
      <trkpt lat="54.12806823849678" lon="10.863563418388367">
        <ele>0</ele>
        <time>2010-01-03T00:08:54Z</time>
      </trkpt>
      <trkpt lat="54.128032866865396" lon="10.863809091970325">
        <ele>0</ele>
        <time>2010-01-03T00:09:00Z</time>
      </trkpt>
      <trkpt lat="54.128001350909472" lon="10.863991985097528">
        <ele>0</ele>
        <time>2010-01-03T00:09:05Z</time>
      </trkpt>
      <trkpt lat="54.127903031185269" lon="10.864430693909526">
        <ele>0</ele>
        <time>2010-01-03T00:09:16Z</time>
      </trkpt>
      <trkpt lat="54.127870257943869" lon="10.864575365558267">
        <ele>0</ele>
        <time>2010-01-03T00:09:19Z</time>
      </trkpt>
      <trkpt lat="54.127843519672751" lon="10.864698495715857">
        <ele>0</ele>
        <time>2010-01-03T00:09:23Z</time>
      </trkpt>
      <trkpt lat="54.127826923504472" lon="10.864836629480124">
        <ele>0</ele>
        <time>2010-01-03T00:09:26Z</time>
      </trkpt>
      <trkpt lat="54.127818876877427" lon="10.864936290308833">
        <ele>0</ele>
        <time>2010-01-03T00:09:28Z</time>
      </trkpt>
      <trkpt lat="54.127811919897795" lon="10.865055732429028">
        <ele>0</ele>
        <time>2010-01-03T00:09:31Z</time>
      </trkpt>
      <trkpt lat="54.127816529944539" lon="10.865167295560241">
        <ele>0</ele>
        <time>2010-01-03T00:09:34Z</time>
      </trkpt>
      <trkpt lat="54.127820385619998" lon="10.865286570042372">
        <ele>0</ele>
        <time>2010-01-03T00:09:36Z</time>
      </trkpt>
      <trkpt lat="54.127821223810315" lon="10.865477761253715">
        <ele>0</ele>
        <time>2010-01-03T00:09:41Z</time>
      </trkpt>
      <trkpt lat="54.127814350649714" lon="10.865598795935512">
        <ele>0</ele>
        <time>2010-01-03T00:09:44Z</time>
      </trkpt>
      <trkpt lat="54.127783589065075" lon="10.86615183390677">
        <ele>0</ele>
        <time>2010-01-03T00:09:57Z</time>
      </trkpt>
      <trkpt lat="54.12777453660965" lon="10.866242358461022">
        <ele>0</ele>
        <time>2010-01-03T00:09:59Z</time>
      </trkpt>
      <trkpt lat="54.127763388678432" lon="10.866296170279384">
        <ele>0</ele>
        <time>2010-01-03T00:10:00Z</time>
      </trkpt>
      <trkpt lat="54.127753078937531" lon="10.866345372051001">
        <ele>0</ele>
        <time>2010-01-03T00:10:02Z</time>
      </trkpt>
      <trkpt lat="54.127719299867749" lon="10.866482499986887">
        <ele>0</ele>
        <time>2010-01-03T00:10:05Z</time>
      </trkpt>
      <trkpt lat="54.127678479999304" lon="10.866628931835294">
        <ele>0</ele>
        <time>2010-01-03T00:10:09Z</time>
      </trkpt>
      <trkpt lat="54.127634642645717" lon="10.866744853556156">
        <ele>0</ele>
        <time>2010-01-03T00:10:12Z</time>
      </trkpt>
      <trkpt lat="54.127577310428023" lon="10.866862703114748">
        <ele>0</ele>
        <time>2010-01-03T00:10:16Z</time>
      </trkpt>
      <trkpt lat="54.127521486952901" lon="10.866940654814243">
        <ele>0</ele>
        <time>2010-01-03T00:10:19Z</time>
      </trkpt>
      <trkpt lat="54.1274593770504" lon="10.86702648550272">
        <ele>0</ele>
        <time>2010-01-03T00:10:22Z</time>
      </trkpt>
      <trkpt lat="54.127417635172606" lon="10.867076609283686">
        <ele>0</ele>
        <time>2010-01-03T00:10:24Z</time>
      </trkpt>
      <trkpt lat="54.127391818910837" lon="10.867103263735771">
        <ele>0</ele>
        <time>2010-01-03T00:10:25Z</time>
      </trkpt>
      <trkpt lat="54.127367846667767" lon="10.867136120796204">
        <ele>0</ele>
        <time>2010-01-03T00:10:26Z</time>
      </trkpt>
      <trkpt lat="54.127295510843396" lon="10.867176270112395">
        <ele>0</ele>
        <time>2010-01-03T00:10:29Z</time>
      </trkpt>
      <trkpt lat="54.127205824479461" lon="10.867197141051292">
        <ele>0</ele>
        <time>2010-01-03T00:10:33Z</time>
      </trkpt>
      <trkpt lat="54.127115216106176" lon="10.867208791896701">
        <ele>0</ele>
        <time>2010-01-03T00:10:36Z</time>
      </trkpt>
      <trkpt lat="54.127002982422709" lon="10.8672209456563">
        <ele>0</ele>
        <time>2010-01-03T00:10:41Z</time>
      </trkpt>
      <trkpt lat="54.126881696283817" lon="10.867216670885682">
        <ele>0</ele>
        <time>2010-01-03T00:10:46Z</time>
      </trkpt>
      <trkpt lat="54.126761918887496" lon="10.867192363366485">
        <ele>0</ele>
        <time>2010-01-03T00:10:51Z</time>
      </trkpt>
      <trkpt lat="54.126594448462129" lon="10.867155650630593">
        <ele>0</ele>
        <time>2010-01-03T00:10:57Z</time>
      </trkpt>
      <trkpt lat="54.126489758491516" lon="10.867134192958474">
        <ele>0</ele>
        <time>2010-01-03T00:11:02Z</time>
      </trkpt>
      <trkpt lat="54.126417171210051" lon="10.867119189351797">
        <ele>0</ele>
        <time>2010-01-03T00:11:05Z</time>
      </trkpt>
      <trkpt lat="54.126355983316898" lon="10.867110136896372">
        <ele>0</ele>
        <time>2010-01-03T00:11:07Z</time>
      </trkpt>
      <trkpt lat="54.126304686069489" lon="10.867102341726422">
        <ele>0</ele>
        <time>2010-01-03T00:11:09Z</time>
      </trkpt>
      <trkpt lat="54.126193122938275" lon="10.867093121632934">
        <ele>0</ele>
        <time>2010-01-03T00:11:14Z</time>
      </trkpt>
      <trkpt lat="54.12610343657434" lon="10.867104772478342">
        <ele>0</ele>
        <time>2010-01-03T00:11:17Z</time>
      </trkpt>
      <trkpt lat="54.126020120456815" lon="10.867128493264318">
        <ele>0</ele>
        <time>2010-01-03T00:11:21Z</time>
      </trkpt>
      <trkpt lat="54.12593143992126" lon="10.867155399173498">
        <ele>0</ele>
        <time>2010-01-03T00:11:24Z</time>
      </trkpt>
      <trkpt lat="54.125865222886205" lon="10.867184735834599">
        <ele>0</ele>
        <time>2010-01-03T00:11:27Z</time>
      </trkpt>
      <trkpt lat="54.125774949789047" lon="10.867237625643611">
        <ele>0</ele>
        <time>2010-01-03T00:11:31Z</time>
      </trkpt>
      <trkpt lat="54.125638073310256" lon="10.867300992831588">
        <ele>0</ele>
        <time>2010-01-03T00:11:36Z</time>
      </trkpt>
      <trkpt lat="54.12548971362412" lon="10.867381542921066">
        <ele>0</ele>
        <time>2010-01-03T00:11:43Z</time>
      </trkpt>
      <trkpt lat="54.125366415828466" lon="10.867455303668976">
        <ele>0</ele>
        <time>2010-01-03T00:11:48Z</time>
      </trkpt>
      <trkpt lat="54.125181594863534" lon="10.867578098550439">
        <ele>0</ele>
        <time>2010-01-03T00:11:56Z</time>
      </trkpt>
      <trkpt lat="54.125097692012787" lon="10.867638532072306">
        <ele>0</ele>
        <time>2010-01-03T00:11:59Z</time>
      </trkpt>
      <trkpt lat="54.125051256269217" lon="10.867671892046928">
        <ele>0</ele>
        <time>2010-01-03T00:12:01Z</time>
      </trkpt>
      <trkpt lat="54.124987972900271" lon="10.867724111303687">
        <ele>0</ele>
        <time>2010-01-03T00:12:04Z</time>
      </trkpt>
      <trkpt lat="54.124681614339352" lon="10.868016975000501">
        <ele>0</ele>
        <time>2010-01-03T00:12:18Z</time>
      </trkpt>
      <trkpt lat="54.124114410951734" lon="10.868558613583446">
        <ele>0</ele>
        <time>2010-01-03T00:12:44Z</time>
      </trkpt>
      <trkpt lat="54.123593643307686" lon="10.869264118373394">
        <ele>0</ele>
        <time>2010-01-03T00:13:11Z</time>
      </trkpt>
      <trkpt lat="54.123011687770486" lon="10.870053945109248">
        <ele>0</ele>
        <time>2010-01-03T00:13:41Z</time>
      </trkpt>
      <trkpt lat="54.12295863032341" lon="10.87015176191926">
        <ele>0</ele>
        <time>2010-01-03T00:13:44Z</time>
      </trkpt>
      <trkpt lat="54.122893419116735" lon="10.870283525437117">
        <ele>0</ele>
        <time>2010-01-03T00:13:48Z</time>
      </trkpt>
      <trkpt lat="54.122847737744451" lon="10.870391819626093">
        <ele>0</ele>
        <time>2010-01-03T00:13:51Z</time>
      </trkpt>
      <trkpt lat="54.122803062200546" lon="10.870516961440444">
        <ele>0</ele>
        <time>2010-01-03T00:13:54Z</time>
      </trkpt>
      <trkpt lat="54.122746987268329" lon="10.870671439915895">
        <ele>0</ele>
        <time>2010-01-03T00:13:59Z</time>
      </trkpt>
      <trkpt lat="54.122711950913072" lon="10.870764143764973">
        <ele>0</ele>
        <time>2010-01-03T00:14:01Z</time>
      </trkpt>
      <trkpt lat="54.122382123023272" lon="10.871906513348222">
        <ele>0</ele>
        <time>2010-01-03T00:14:31Z</time>
      </trkpt>
      <trkpt lat="54.122332334518433" lon="10.872054705396295">
        <ele>0</ele>
        <time>2010-01-03T00:14:35Z</time>
      </trkpt>
      <trkpt lat="54.122276343405247" lon="10.872219828888774">
        <ele>0</ele>
        <time>2010-01-03T00:14:40Z</time>
      </trkpt>
      <trkpt lat="54.122100910171866" lon="10.872675804421306">
        <ele>0</ele>
        <time>2010-01-03T00:14:52Z</time>
      </trkpt>
      <trkpt lat="54.121837383136153" lon="10.873511983081698">
        <ele>0</ele>
        <time>2010-01-03T00:15:15Z</time>
      </trkpt>
      <trkpt lat="54.121812237426639" lon="10.873607536777854">
        <ele>0</ele>
        <time>2010-01-03T00:15:17Z</time>
      </trkpt>
      <trkpt lat="54.121790695935488" lon="10.87370753288269">
        <ele>0</ele>
        <time>2010-01-03T00:15:20Z</time>
      </trkpt>
      <trkpt lat="54.121739566326141" lon="10.87409888394177">
        <ele>0</ele>
        <time>2010-01-03T00:15:29Z</time>
      </trkpt>
      <trkpt lat="54.121712492778897" lon="10.874278591945767">
        <ele>0</ele>
        <time>2010-01-03T00:15:33Z</time>
      </trkpt>
      <trkpt lat="54.12168625742197" lon="10.87445218116045">
        <ele>0</ele>
        <time>2010-01-03T00:15:38Z</time>
      </trkpt>
      <trkpt lat="54.121669745072722" lon="10.874704979360104">
        <ele>0</ele>
        <time>2010-01-03T00:15:44Z</time>
      </trkpt>
      <trkpt lat="54.12166521884501" lon="10.874796845018864">
        <ele>0</ele>
        <time>2010-01-03T00:15:46Z</time>
      </trkpt>
      <trkpt lat="54.121652981266379" lon="10.875026592984796">
        <ele>0</ele>
        <time>2010-01-03T00:15:51Z</time>
      </trkpt>
      <trkpt lat="54.1215880215168" lon="10.875824633985758">
        <ele>0</ele>
        <time>2010-01-03T00:16:10Z</time>
      </trkpt>
      <trkpt lat="54.121557427570224" lon="10.876071564853191">
        <ele>0</ele>
        <time>2010-01-03T00:16:16Z</time>
      </trkpt>
      <trkpt lat="54.121534461155534" lon="10.876214308664203">
        <ele>0</ele>
        <time>2010-01-03T00:16:20Z</time>
      </trkpt>
      <trkpt lat="54.121499508619308" lon="10.876366524025798">
        <ele>0</ele>
        <time>2010-01-03T00:16:23Z</time>
      </trkpt>
      <trkpt lat="54.121430860832334" lon="10.876634325832129">
        <ele>0</ele>
        <time>2010-01-03T00:16:30Z</time>
      </trkpt>
      <trkpt lat="54.121312675997615" lon="10.877021737396717">
        <ele>0</ele>
        <time>2010-01-03T00:16:40Z</time>
      </trkpt>
      <trkpt lat="54.120761649683118" lon="10.878773052245378">
        <ele>0</ele>
        <time>2010-01-03T00:17:27Z</time>
      </trkpt>
      <trkpt lat="54.119762694463134" lon="10.881981644779444">
        <ele>0</ele>
        <time>2010-01-03T00:18:52Z</time>
      </trkpt>
      <trkpt lat="54.119479721412063" lon="10.882865935564041">
        <ele>0</ele>
        <time>2010-01-03T00:19:16Z</time>
      </trkpt>
      <trkpt lat="54.119476368650794" lon="10.882876412943006">
        <ele>0</ele>
        <time>2010-01-03T00:19:16Z</time>
      </trkpt>
      <trkpt lat="54.117618519812822" lon="10.888677109032869">
        <ele>0</ele>
        <time>2010-01-03T00:21:51Z</time>
      </trkpt>
      <trkpt lat="54.117508884519339" lon="10.889019258320332">
        <ele>0</ele>
        <time>2010-01-03T00:22:00Z</time>
      </trkpt>
      <trkpt lat="54.117178805172443" lon="10.890049645677209">
        <ele>0</ele>
        <time>2010-01-03T00:22:28Z</time>
      </trkpt>
      <trkpt lat="54.116541193798184" lon="10.892039509490132">
        <ele>0</ele>
        <time>2010-01-03T00:23:21Z</time>
      </trkpt>
      <trkpt lat="54.116139449179173" lon="10.893293526023626">
        <ele>0</ele>
        <time>2010-01-03T00:23:55Z</time>
      </trkpt>
      <trkpt lat="54.116115979850292" lon="10.893384385854006">
        <ele>0</ele>
        <time>2010-01-03T00:23:57Z</time>
      </trkpt>
      <trkpt lat="54.116091085597873" lon="10.89350282214582">
        <ele>0</ele>
        <time>2010-01-03T00:24:00Z</time>
      </trkpt>
      <trkpt lat="54.116072226315737" lon="10.893604243174195">
        <ele>0</ele>
        <time>2010-01-03T00:24:03Z</time>
      </trkpt>
      <trkpt lat="54.116022437810898" lon="10.893954271450639">
        <ele>0</ele>
        <time>2010-01-03T00:24:11Z</time>
      </trkpt>
      <trkpt lat="54.116010367870331" lon="10.894006574526429">
        <ele>0</ele>
        <time>2010-01-03T00:24:12Z</time>
      </trkpt>
      <trkpt lat="54.115993771702051" lon="10.894063571467996">
        <ele>0</ele>
        <time>2010-01-03T00:24:14Z</time>
      </trkpt>
      <trkpt lat="54.115978768095374" lon="10.894096093252301">
        <ele>0</ele>
        <time>2010-01-03T00:24:15Z</time>
      </trkpt>
      <trkpt lat="54.11591506563127" lon="10.894201789051294">
        <ele>0</ele>
        <time>2010-01-03T00:24:18Z</time>
      </trkpt>
      <trkpt lat="54.115674588829279" lon="10.894432961940765">
        <ele>0</ele>
        <time>2010-01-03T00:24:29Z</time>
      </trkpt>
      <trkpt lat="54.11561943590641" lon="10.894487947225571">
        <ele>0</ele>
        <time>2010-01-03T00:24:32Z</time>
      </trkpt>
      <trkpt lat="54.115563444793224" lon="10.894559780135751">
        <ele>0</ele>
        <time>2010-01-03T00:24:35Z</time>
      </trkpt>
      <trkpt lat="54.11531844176352" lon="10.894882902503014">
        <ele>0</ele>
        <time>2010-01-03T00:24:47Z</time>
      </trkpt>
      <trkpt lat="54.115252560004592" lon="10.894942749291658">
        <ele>0</ele>
        <time>2010-01-03T00:24:50Z</time>
      </trkpt>
      <trkpt lat="54.115202520042658" lon="10.894974684342742">
        <ele>0</ele>
        <time>2010-01-03T00:24:52Z</time>
      </trkpt>
      <trkpt lat="54.115139907225966" lon="10.895009972155094">
        <ele>0</ele>
        <time>2010-01-03T00:24:55Z</time>
      </trkpt>
      <trkpt lat="54.115079054608941" lon="10.895033022388816">
        <ele>0</ele>
        <time>2010-01-03T00:24:57Z</time>
      </trkpt>
      <trkpt lat="54.115013759583235" lon="10.895060766488314">
        <ele>0</ele>
        <time>2010-01-03T00:25:00Z</time>
      </trkpt>
      <trkpt lat="54.114954667165875" lon="10.895085241645575">
        <ele>0</ele>
        <time>2010-01-03T00:25:03Z</time>
      </trkpt>
      <trkpt lat="54.114898256957531" lon="10.895108124241233">
        <ele>0</ele>
        <time>2010-01-03T00:25:05Z</time>
      </trkpt>
      <trkpt lat="54.114831201732159" lon="10.895143579691648">
        <ele>0</ele>
        <time>2010-01-03T00:25:08Z</time>
      </trkpt>
      <trkpt lat="54.114783843979239" lon="10.895169312134385">
        <ele>0</ele>
        <time>2010-01-03T00:25:10Z</time>
      </trkpt>
      <trkpt lat="54.114742688834667" lon="10.895196385681629">
        <ele>0</ele>
        <time>2010-01-03T00:25:11Z</time>
      </trkpt>
      <trkpt lat="54.114625006914139" lon="10.895288251340389">
        <ele>0</ele>
        <time>2010-01-03T00:25:17Z</time>
      </trkpt>
      <trkpt lat="54.114545127376914" lon="10.895397383719683">
        <ele>0</ele>
        <time>2010-01-03T00:25:21Z</time>
      </trkpt>
      <trkpt lat="54.114511599764228" lon="10.895465528592467">
        <ele>0</ele>
        <time>2010-01-03T00:25:23Z</time>
      </trkpt>
      <trkpt lat="54.11447019316256" lon="10.895558400079608">
        <ele>0</ele>
        <time>2010-01-03T00:25:26Z</time>
      </trkpt>
      <trkpt lat="54.114447478204966" lon="10.895623276010156">
        <ele>0</ele>
        <time>2010-01-03T00:25:27Z</time>
      </trkpt>
      <trkpt lat="54.114419566467404" lon="10.89571732096374">
        <ele>0</ele>
        <time>2010-01-03T00:25:30Z</time>
      </trkpt>
      <trkpt lat="54.114404981955886" lon="10.89579108171165">
        <ele>0</ele>
        <time>2010-01-03T00:25:32Z</time>
      </trkpt>
      <trkpt lat="54.114393079653382" lon="10.89586635120213">
        <ele>0</ele>
        <time>2010-01-03T00:25:33Z</time>
      </trkpt>
      <trkpt lat="54.114388301968575" lon="10.895929131656885">
        <ele>0</ele>
        <time>2010-01-03T00:25:35Z</time>
      </trkpt>
      <trkpt lat="54.11439148709178" lon="10.895988726988435">
        <ele>0</ele>
        <time>2010-01-03T00:25:36Z</time>
      </trkpt>
      <trkpt lat="54.114394756034017" lon="10.896051339805126">
        <ele>0</ele>
        <time>2010-01-03T00:25:38Z</time>
      </trkpt>
      <trkpt lat="54.114403640851378" lon="10.896136751398444">
        <ele>0</ele>
        <time>2010-01-03T00:25:40Z</time>
      </trkpt>
      <trkpt lat="54.114415878430009" lon="10.89619911275804">
        <ele>0</ele>
        <time>2010-01-03T00:25:41Z</time>
      </trkpt>
      <trkpt lat="54.114438090473413" lon="10.896264240145683">
        <ele>0</ele>
        <time>2010-01-03T00:25:43Z</time>
      </trkpt>
      <trkpt lat="54.114544205367565" lon="10.896574957296252">
        <ele>0</ele>
        <time>2010-01-03T00:25:52Z</time>
      </trkpt>
      <trkpt lat="54.114562226459384" lon="10.896675372496247">
        <ele>0</ele>
        <time>2010-01-03T00:25:54Z</time>
      </trkpt>
      <trkpt lat="54.114565243944526" lon="10.896710492670536">
        <ele>0</ele>
        <time>2010-01-03T00:25:55Z</time>
      </trkpt>
      <trkpt lat="54.11456398665905" lon="10.896768663078547">
        <ele>0</ele>
        <time>2010-01-03T00:25:56Z</time>
      </trkpt>
      <trkpt lat="54.114563651382923" lon="10.896829850971699">
        <ele>0</ele>
        <time>2010-01-03T00:25:58Z</time>
      </trkpt>
      <trkpt lat="54.114564070478082" lon="10.896875699982047">
        <ele>0</ele>
        <time>2010-01-03T00:25:59Z</time>
      </trkpt>
      <trkpt lat="54.114526016637683" lon="10.897427229210734">
        <ele>0</ele>
        <time>2010-01-03T00:26:12Z</time>
      </trkpt>
      <trkpt lat="54.114496260881424" lon="10.897914301604033">
        <ele>0</ele>
        <time>2010-01-03T00:26:23Z</time>
      </trkpt>
      <trkpt lat="54.114491902291775" lon="10.898024523630738">
        <ele>0</ele>
        <time>2010-01-03T00:26:26Z</time>
      </trkpt>
      <trkpt lat="54.114491147920489" lon="10.898042879998684">
        <ele>0</ele>
        <time>2010-01-03T00:26:26Z</time>
      </trkpt>
      <trkpt lat="54.114476814866066" lon="10.898632043972611">
        <ele>0</ele>
        <time>2010-01-03T00:26:40Z</time>
      </trkpt>
      <trkpt lat="54.114491231739521" lon="10.899033872410655">
        <ele>0</ele>
        <time>2010-01-03T00:26:50Z</time>
      </trkpt>
      <trkpt lat="54.114500703290105" lon="10.899281306192279">
        <ele>0</ele>
        <time>2010-01-03T00:26:55Z</time>
      </trkpt>
      <trkpt lat="54.114519143477082" lon="10.899528572335839">
        <ele>0</ele>
        <time>2010-01-03T00:27:01Z</time>
      </trkpt>
      <trkpt lat="54.114522999152541" lon="10.899649104103446">
        <ele>0</ele>
        <time>2010-01-03T00:27:04Z</time>
      </trkpt>
      <trkpt lat="54.114534230902791" lon="10.899996114894748">
        <ele>0</ele>
        <time>2010-01-03T00:27:12Z</time>
      </trkpt>
      <trkpt lat="54.114582343026996" lon="10.900351172313094">
        <ele>0</ele>
        <time>2010-01-03T00:27:21Z</time>
      </trkpt>
      <trkpt lat="54.114595586434007" lon="10.900419652462006">
        <ele>0</ele>
        <time>2010-01-03T00:27:22Z</time>
      </trkpt>
      <trkpt lat="54.114609668031335" lon="10.900488048791885">
        <ele>0</ele>
        <time>2010-01-03T00:27:24Z</time>
      </trkpt>
      <trkpt lat="54.114632969722152" lon="10.900580752640963">
        <ele>0</ele>
        <time>2010-01-03T00:27:27Z</time>
      </trkpt>
      <trkpt lat="54.114663396030664" lon="10.900667086243629">
        <ele>0</ele>
        <time>2010-01-03T00:27:29Z</time>
      </trkpt>
      <trkpt lat="54.114700946956873" lon="10.900745624676347">
        <ele>0</ele>
        <time>2010-01-03T00:27:31Z</time>
      </trkpt>
      <trkpt lat="54.114804798737168" lon="10.900898845866323">
        <ele>0</ele>
        <time>2010-01-03T00:27:37Z</time>
      </trkpt>
      <trkpt lat="54.114903705194592" lon="10.901004793122411">
        <ele>0</ele>
        <time>2010-01-03T00:27:41Z</time>
      </trkpt>
      <trkpt lat="54.115092046558857" lon="10.901169581338763">
        <ele>0</ele>
        <time>2010-01-03T00:27:50Z</time>
      </trkpt>
      <trkpt lat="54.115130100399256" lon="10.901205288246274">
        <ele>0</ele>
        <time>2010-01-03T00:27:52Z</time>
      </trkpt>
      <trkpt lat="54.11516010761261" lon="10.901241162791848">
        <ele>0</ele>
        <time>2010-01-03T00:27:53Z</time>
      </trkpt>
      <trkpt lat="54.115181984379888" lon="10.901271170005202">
        <ele>0</ele>
        <time>2010-01-03T00:27:54Z</time>
      </trkpt>
      <trkpt lat="54.115215679630637" lon="10.901319282129407">
        <ele>0</ele>
        <time>2010-01-03T00:27:56Z</time>
      </trkpt>
      <trkpt lat="54.115245686843991" lon="10.901365885511041">
        <ele>0</ele>
        <time>2010-01-03T00:27:58Z</time>
      </trkpt>
      <trkpt lat="54.115276699885726" lon="10.901415506377816">
        <ele>0</ele>
        <time>2010-01-03T00:27:59Z</time>
      </trkpt>
      <trkpt lat="54.115303102880716" lon="10.901451548561454">
        <ele>0</ele>
        <time>2010-01-03T00:28:01Z</time>
      </trkpt>
      <trkpt lat="54.115348784253001" lon="10.901531344279647">
        <ele>0</ele>
        <time>2010-01-03T00:28:03Z</time>
      </trkpt>
      <trkpt lat="54.115555733442307" lon="10.901961755007505">
        <ele>0</ele>
        <time>2010-01-03T00:28:16Z</time>
      </trkpt>
      <trkpt lat="54.115573167800903" lon="10.902005592361093">
        <ele>0</ele>
        <time>2010-01-03T00:28:18Z</time>
      </trkpt>
      <trkpt lat="54.115604432299733" lon="10.902078179642558">
        <ele>0</ele>
        <time>2010-01-03T00:28:20Z</time>
      </trkpt>
      <trkpt lat="54.115619100630283" lon="10.90211296454072">
        <ele>0</ele>
        <time>2010-01-03T00:28:21Z</time>
      </trkpt>
      <trkpt lat="54.115642234683037" lon="10.902182701975107">
        <ele>0</ele>
        <time>2010-01-03T00:28:23Z</time>
      </trkpt>
      <trkpt lat="54.115658830851316" lon="10.902234250679612">
        <ele>0</ele>
        <time>2010-01-03T00:28:24Z</time>
      </trkpt>
      <trkpt lat="54.115672744810581" lon="10.902282865718007">
        <ele>0</ele>
        <time>2010-01-03T00:28:25Z</time>
      </trkpt>
      <trkpt lat="54.115681378170848" lon="10.90233919210732">
        <ele>0</ele>
        <time>2010-01-03T00:28:27Z</time>
      </trkpt>
      <trkpt lat="54.115689173340797" lon="10.902412449941039">
        <ele>0</ele>
        <time>2010-01-03T00:28:28Z</time>
      </trkpt>
      <trkpt lat="54.115685150027275" lon="10.90245989151299">
        <ele>0</ele>
        <time>2010-01-03T00:28:30Z</time>
      </trkpt>
      <trkpt lat="54.115522624924779" lon="10.903065232560039">
        <ele>0</ele>
        <time>2010-01-03T00:28:45Z</time>
      </trkpt>
      <trkpt lat="54.115503681823611" lon="10.903149805963039">
        <ele>0</ele>
        <time>2010-01-03T00:28:47Z</time>
      </trkpt>
      <trkpt lat="54.115490773692727" lon="10.903215939179063">
        <ele>0</ele>
        <time>2010-01-03T00:28:49Z</time>
      </trkpt>
      <trkpt lat="54.115479039028287" lon="10.903306463733315">
        <ele>0</ele>
        <time>2010-01-03T00:28:51Z</time>
      </trkpt>
      <trkpt lat="54.11547333933413" lon="10.903372345492244">
        <ele>0</ele>
        <time>2010-01-03T00:28:53Z</time>
      </trkpt>
      <trkpt lat="54.115470321848989" lon="10.903438227251172">
        <ele>0</ele>
        <time>2010-01-03T00:28:54Z</time>
      </trkpt>
      <trkpt lat="54.11549580283463" lon="10.903665376827121">
        <ele>0</ele>
        <time>2010-01-03T00:29:00Z</time>
      </trkpt>
      <trkpt lat="54.115508878603578" lon="10.903720110654831">
        <ele>0</ele>
        <time>2010-01-03T00:29:01Z</time>
      </trkpt>
      <trkpt lat="54.115529162809253" lon="10.903780795633793">
        <ele>0</ele>
        <time>2010-01-03T00:29:03Z</time>
      </trkpt>
      <trkpt lat="54.115543076768517" lon="10.903824716806412">
        <ele>0</ele>
        <time>2010-01-03T00:29:04Z</time>
      </trkpt>
      <trkpt lat="54.115572245791554" lon="10.903874421492219">
        <ele>0</ele>
        <time>2010-01-03T00:29:05Z</time>
      </trkpt>
      <trkpt lat="54.115600325167179" lon="10.903899651020765">
        <ele>0</ele>
        <time>2010-01-03T00:29:07Z</time>
      </trkpt>
      <trkpt lat="54.115614825859666" lon="10.903914570808411">
        <ele>0</ele>
        <time>2010-01-03T00:29:07Z</time>
      </trkpt>
      <trkpt lat="54.115640139207244" lon="10.90392773039639">
        <ele>0</ele>
        <time>2010-01-03T00:29:08Z</time>
      </trkpt>
      <trkpt lat="54.115668050944805" lon="10.903937704861164">
        <ele>0</ele>
        <time>2010-01-03T00:29:10Z</time>
      </trkpt>
      <trkpt lat="54.115695040673018" lon="10.903943069279194">
        <ele>0</ele>
        <time>2010-01-03T00:29:11Z</time>
      </trkpt>
      <trkpt lat="54.115718426182866" lon="10.903942482545972">
        <ele>0</ele>
        <time>2010-01-03T00:29:12Z</time>
      </trkpt>
      <trkpt lat="54.115756982937455" lon="10.903936866670847">
        <ele>0</ele>
        <time>2010-01-03T00:29:13Z</time>
      </trkpt>
      <trkpt lat="54.115808950737119" lon="10.903918677940965">
        <ele>0</ele>
        <time>2010-01-03T00:29:15Z</time>
      </trkpt>
      <trkpt lat="54.115930739790201" lon="10.903872661292553">
        <ele>0</ele>
        <time>2010-01-03T00:29:20Z</time>
      </trkpt>
      <trkpt lat="54.116489477455616" lon="10.903665209189057">
        <ele>0</ele>
        <time>2010-01-03T00:29:43Z</time>
      </trkpt>
      <trkpt lat="54.11649844609201" lon="10.90366194024682">
        <ele>0</ele>
        <time>2010-01-03T00:29:44Z</time>
      </trkpt>
      <trkpt lat="54.116511857137084" lon="10.903656994923949">
        <ele>0</ele>
        <time>2010-01-03T00:29:44Z</time>
      </trkpt>
      <trkpt lat="54.116575475782156" lon="10.903635369613767">
        <ele>0</ele>
        <time>2010-01-03T00:29:47Z</time>
      </trkpt>
      <trkpt lat="54.116629287600517" lon="10.9036232996732">
        <ele>0</ele>
        <time>2010-01-03T00:29:49Z</time>
      </trkpt>
      <trkpt lat="54.11667144857347" lon="10.903619108721614">
        <ele>0</ele>
        <time>2010-01-03T00:29:51Z</time>
      </trkpt>
      <trkpt lat="54.116709167137742" lon="10.903619611635804">
        <ele>0</ele>
        <time>2010-01-03T00:29:52Z</time>
      </trkpt>
      <trkpt lat="54.116719141602516" lon="10.903622461482882">
        <ele>0</ele>
        <time>2010-01-03T00:29:52Z</time>
      </trkpt>
      <trkpt lat="54.116752417758107" lon="10.903629250824451">
        <ele>0</ele>
        <time>2010-01-03T00:29:54Z</time>
      </trkpt>
      <trkpt lat="54.116795668378472" lon="10.903640314936638">
        <ele>0</ele>
        <time>2010-01-03T00:29:56Z</time>
      </trkpt>
      <trkpt lat="54.116844451054931" lon="10.903674177825451">
        <ele>0</ele>
        <time>2010-01-03T00:29:58Z</time>
      </trkpt>
      <trkpt lat="54.118162170052528" lon="10.904529551044106">
        <ele>0</ele>
        <time>2010-01-03T00:30:54Z</time>
      </trkpt>
      <trkpt lat="54.122499218210578" lon="10.907312175258994">
        <ele>0</ele>
        <time>2010-01-03T00:34:00Z</time>
      </trkpt>
      <trkpt lat="54.122613128274679" lon="10.907385600730777">
        <ele>0</ele>
        <time>2010-01-03T00:34:04Z</time>
      </trkpt>
      <trkpt lat="54.122707843780518" lon="10.907430527731776">
        <ele>0</ele>
        <time>2010-01-03T00:34:08Z</time>
      </trkpt>
      <trkpt lat="54.122724020853639" lon="10.907431617379189">
        <ele>0</ele>
        <time>2010-01-03T00:34:09Z</time>
      </trkpt>
      <trkpt lat="54.122732989490032" lon="10.907432958483696">
        <ele>0</ele>
        <time>2010-01-03T00:34:09Z</time>
      </trkpt>
      <trkpt lat="54.122766265645623" lon="10.907430527731776">
        <ele>0</ele>
        <time>2010-01-03T00:34:11Z</time>
      </trkpt>
      <trkpt lat="54.122797530144453" lon="10.907412925735116">
        <ele>0</ele>
        <time>2010-01-03T00:34:12Z</time>
      </trkpt>
      <trkpt lat="54.12306759506464" lon="10.907171778380871">
        <ele>0</ele>
        <time>2010-01-03T00:34:24Z</time>
      </trkpt>
      <trkpt lat="54.123109420761466" lon="10.907133975997567">
        <ele>0</ele>
        <time>2010-01-03T00:34:26Z</time>
      </trkpt>
      <trkpt lat="54.123174548149109" lon="10.907083265483379">
        <ele>0</ele>
        <time>2010-01-03T00:34:29Z</time>
      </trkpt>
      <trkpt lat="54.123232634738088" lon="10.907045044004917">
        <ele>0</ele>
        <time>2010-01-03T00:34:32Z</time>
      </trkpt>
      <trkpt lat="54.123272867873311" lon="10.907019563019276">
        <ele>0</ele>
        <time>2010-01-03T00:34:33Z</time>
      </trkpt>
      <trkpt lat="54.123312178999186" lon="10.906995590776205">
        <ele>0</ele>
        <time>2010-01-03T00:34:35Z</time>
      </trkpt>
      <trkpt lat="54.123365739360452" lon="10.906958961859345">
        <ele>0</ele>
        <time>2010-01-03T00:34:37Z</time>
      </trkpt>
      <trkpt lat="54.123429274186492" lon="10.906929792836308">
        <ele>0</ele>
        <time>2010-01-03T00:34:40Z</time>
      </trkpt>
      <trkpt lat="54.123472273349762" lon="10.906913364306092">
        <ele>0</ele>
        <time>2010-01-03T00:34:42Z</time>
      </trkpt>
      <trkpt lat="54.123542094603181" lon="10.906893163919449">
        <ele>0</ele>
        <time>2010-01-03T00:34:44Z</time>
      </trkpt>
      <trkpt lat="54.124475251883268" lon="10.906654447317123">
        <ele>0</ele>
        <time>2010-01-03T00:35:22Z</time>
      </trkpt>
      <trkpt lat="54.124515736475587" lon="10.906661069020629">
        <ele>0</ele>
        <time>2010-01-03T00:35:24Z</time>
      </trkpt>
      <trkpt lat="54.124552616849542" lon="10.906666181981564">
        <ele>0</ele>
        <time>2010-01-03T00:35:25Z</time>
      </trkpt>
      <trkpt lat="54.124584132805467" lon="10.906672971323133">
        <ele>0</ele>
        <time>2010-01-03T00:35:27Z</time>
      </trkpt>
      <trkpt lat="54.124629311263561" lon="10.906696273013949">
        <ele>0</ele>
        <time>2010-01-03T00:35:28Z</time>
      </trkpt>
      <trkpt lat="54.12554738111794" lon="10.907175382599235">
        <ele>0</ele>
        <time>2010-01-03T00:36:07Z</time>
      </trkpt>
      <trkpt lat="54.125672774389386" lon="10.907231708988547">
        <ele>0</ele>
        <time>2010-01-03T00:36:12Z</time>
      </trkpt>
      <trkpt lat="54.126138975843787" lon="10.907415272668004">
        <ele>0</ele>
        <time>2010-01-03T00:36:31Z</time>
      </trkpt>
      <trkpt lat="54.126403341069818" lon="10.907541420310736">
        <ele>0</ele>
        <time>2010-01-03T00:36:42Z</time>
      </trkpt>
      <trkpt lat="54.126701820641756" lon="10.907663544639945">
        <ele>0</ele>
        <time>2010-01-03T00:36:55Z</time>
      </trkpt>
      <trkpt lat="54.126835176721215" lon="10.907704448327422">
        <ele>0</ele>
        <time>2010-01-03T00:37:00Z</time>
      </trkpt>
      <trkpt lat="54.126893933862448" lon="10.907744178548455">
        <ele>0</ele>
        <time>2010-01-03T00:37:03Z</time>
      </trkpt>
      <trkpt lat="54.126909356564283" lon="10.907760607078671">
        <ele>0</ele>
        <time>2010-01-03T00:37:03Z</time>
      </trkpt>
      <trkpt lat="54.126929389312863" lon="10.907793715596199">
        <ele>0</ele>
        <time>2010-01-03T00:37:04Z</time>
      </trkpt>
      <trkpt lat="54.126959647983313" lon="10.90785875916481">
        <ele>0</ele>
        <time>2010-01-03T00:37:06Z</time>
      </trkpt>
      <trkpt lat="54.127028631046414" lon="10.908034360036254">
        <ele>0</ele>
        <time>2010-01-03T00:37:11Z</time>
      </trkpt>
      <trkpt lat="54.127074647694826" lon="10.908155478537083">
        <ele>0</ele>
        <time>2010-01-03T00:37:15Z</time>
      </trkpt>
      <trkpt lat="54.127134997397661" lon="10.908268634229898">
        <ele>0</ele>
        <time>2010-01-03T00:37:18Z</time>
      </trkpt>
      <trkpt lat="54.12721605040133" lon="10.908390423282981">
        <ele>0</ele>
        <time>2010-01-03T00:37:23Z</time>
      </trkpt>
      <trkpt lat="54.127308838069439" lon="10.908517995849252">
        <ele>0</ele>
        <time>2010-01-03T00:37:27Z</time>
      </trkpt>
      <trkpt lat="54.127417886629701" lon="10.908654369413853">
        <ele>0</ele>
        <time>2010-01-03T00:37:33Z</time>
      </trkpt>
      <trkpt lat="54.127542693167925" lon="10.908845392987132">
        <ele>0</ele>
        <time>2010-01-03T00:37:39Z</time>
      </trkpt>
      <trkpt lat="54.127686023712158" lon="10.909092491492629">
        <ele>0</ele>
        <time>2010-01-03T00:37:48Z</time>
      </trkpt>
      <trkpt lat="54.127719718962908" lon="10.909142028540373">
        <ele>0</ele>
        <time>2010-01-03T00:37:49Z</time>
      </trkpt>
      <trkpt lat="54.127783421427011" lon="10.909232217818499">
        <ele>0</ele>
        <time>2010-01-03T00:37:53Z</time>
      </trkpt>
      <trkpt lat="54.127943348139524" lon="10.909432964399457">
        <ele>0</ele>
        <time>2010-01-03T00:38:01Z</time>
      </trkpt>
      <trkpt lat="54.12807947024703" lon="10.909577803686261">
        <ele>0</ele>
        <time>2010-01-03T00:38:07Z</time>
      </trkpt>
      <trkpt lat="54.128271332010627" lon="10.909730270504951">
        <ele>0</ele>
        <time>2010-01-03T00:38:16Z</time>
      </trkpt>
      <trkpt lat="54.128446765244007" lon="10.909855747595429">
        <ele>0</ele>
        <time>2010-01-03T00:38:23Z</time>
      </trkpt>
      <trkpt lat="54.128538127988577" lon="10.90992322191596">
        <ele>0</ele>
        <time>2010-01-03T00:38:27Z</time>
      </trkpt>
      <trkpt lat="54.1286267247051" lon="10.90998868457973">
        <ele>0</ele>
        <time>2010-01-03T00:38:31Z</time>
      </trkpt>
      <trkpt lat="54.12866385653615" lon="10.910016763955355">
        <ele>0</ele>
        <time>2010-01-03T00:38:33Z</time>
      </trkpt>
      <trkpt lat="54.128804001957178" lon="10.910117095336318">
        <ele>0</ele>
        <time>2010-01-03T00:38:39Z</time>
      </trkpt>
      <trkpt lat="54.128877259790897" lon="10.910170320421457">
        <ele>0</ele>
        <time>2010-01-03T00:38:42Z</time>
      </trkpt>
      <trkpt lat="54.128969293087721" lon="10.910212229937315">
        <ele>0</ele>
        <time>2010-01-03T00:38:46Z</time>
      </trkpt>
      <trkpt lat="54.129021596163511" lon="10.910232262685895">
        <ele>0</ele>
        <time>2010-01-03T00:38:48Z</time>
      </trkpt>
      <trkpt lat="54.129061158746481" lon="10.91023737564683">
        <ele>0</ele>
        <time>2010-01-03T00:38:49Z</time>
      </trkpt>
      <trkpt lat="54.129109689965844" lon="10.910242237150669">
        <ele>0</ele>
        <time>2010-01-03T00:38:51Z</time>
      </trkpt>
      <trkpt lat="54.129152270033956" lon="10.910242907702923">
        <ele>0</ele>
        <time>2010-01-03T00:38:53Z</time>
      </trkpt>
      <trkpt lat="54.129213960841298" lon="10.910244081169367">
        <ele>0</ele>
        <time>2010-01-03T00:38:56Z</time>
      </trkpt>
      <trkpt lat="54.129386460408568" lon="10.910244081169367">
        <ele>0</ele>
        <time>2010-01-03T00:39:02Z</time>
      </trkpt>
      <trkpt lat="54.129439517855644" lon="10.910247350111604">
        <ele>0</ele>
        <time>2010-01-03T00:39:05Z</time>
      </trkpt>
      <trkpt lat="54.129534820094705" lon="10.910253971815109">
        <ele>0</ele>
        <time>2010-01-03T00:39:08Z</time>
      </trkpt>
      <trkpt lat="54.129623584449291" lon="10.910255648195744">
        <ele>0</ele>
        <time>2010-01-03T00:39:12Z</time>
      </trkpt>
      <trkpt lat="54.129652502015233" lon="10.910256989300251">
        <ele>0</ele>
        <time>2010-01-03T00:39:13Z</time>
      </trkpt>
      <trkpt lat="54.129741434007883" lon="10.910251624882221">
        <ele>0</ele>
        <time>2010-01-03T00:39:17Z</time>
      </trkpt>
      <trkpt lat="54.129964895546436" lon="10.910224383696914">
        <ele>0</ele>
        <time>2010-01-03T00:39:26Z</time>
      </trkpt>
      <trkpt lat="54.130115685984492" lon="10.910211224108934">
        <ele>0</ele>
        <time>2010-01-03T00:39:32Z</time>
      </trkpt>
      <trkpt lat="54.130208222195506" lon="10.91020418331027">
        <ele>0</ele>
        <time>2010-01-03T00:39:35Z</time>
      </trkpt>
      <trkpt lat="54.130308134481311" lon="10.910222958773375">
        <ele>0</ele>
        <time>2010-01-03T00:39:39Z</time>
      </trkpt>
      <trkpt lat="54.130462864413857" lon="10.910285487771034">
        <ele>0</ele>
        <time>2010-01-03T00:39:46Z</time>
      </trkpt>
      <trkpt lat="54.130542492493987" lon="10.910251708701253">
        <ele>0</ele>
        <time>2010-01-03T00:39:49Z</time>
      </trkpt>
      <trkpt lat="54.130572834983468" lon="10.910185491666198">
        <ele>0</ele>
        <time>2010-01-03T00:39:51Z</time>
      </trkpt>
      <trkpt lat="54.130605524405837" lon="10.91012648306787">
        <ele>0</ele>
        <time>2010-01-03T00:39:53Z</time>
      </trkpt>
      <trkpt lat="54.13064282387495" lon="10.910081136971712">
        <ele>0</ele>
        <time>2010-01-03T00:39:55Z</time>
      </trkpt>
      <trkpt lat="54.130788668990135" lon="10.909918192774057">
        <ele>0</ele>
        <time>2010-01-03T00:40:02Z</time>
      </trkpt>
      <trkpt lat="54.130953792482615" lon="10.90972138568759">
        <ele>0</ele>
        <time>2010-01-03T00:40:10Z</time>
      </trkpt>
      <trkpt lat="54.131402894854546" lon="10.909186117351055">
        <ele>0</ele>
        <time>2010-01-03T00:40:32Z</time>
      </trkpt>
      <trkpt lat="54.131746301427484" lon="10.908803818747401">
        <ele>0</ele>
        <time>2010-01-03T00:40:48Z</time>
      </trkpt>
      <trkpt lat="54.132093144580722" lon="10.908418335020542">
        <ele>0</ele>
        <time>2010-01-03T00:41:05Z</time>
      </trkpt>
      <trkpt lat="54.132551550865173" lon="10.907935118302703">
        <ele>0</ele>
        <time>2010-01-03T00:41:26Z</time>
      </trkpt>
      <trkpt lat="54.13263687863946" lon="10.908330576494336">
        <ele>0</ele>
        <time>2010-01-03T00:41:36Z</time>
      </trkpt>
      <trkpt lat="54.133649580180645" lon="10.907962191849947">
        <ele>0</ele>
        <time>2010-01-03T00:42:18Z</time>
      </trkpt>
      <trkpt lat="54.134731851518154" lon="10.907828081399202">
        <ele>0</ele>
        <time>2010-01-03T00:43:01Z</time>
      </trkpt>
      <trkpt lat="54.13525203242898" lon="10.90680968016386">
        <ele>0</ele>
        <time>2010-01-03T00:43:33Z</time>
      </trkpt>
      <trkpt lat="54.135656543076038" lon="10.906276507303119">
        <ele>0</ele>
        <time>2010-01-03T00:43:53Z</time>
      </trkpt>
      <trkpt lat="54.136237995699048" lon="10.905935363844037">
        <ele>0</ele>
        <time>2010-01-03T00:44:18Z</time>
      </trkpt>
      <trkpt lat="54.136753315106034" lon="10.905223237350583">
        <ele>0</ele>
        <time>2010-01-03T00:44:44Z</time>
      </trkpt>
      <trkpt lat="54.137340635061264" lon="10.904514463618398">
        <ele>0</ele>
        <time>2010-01-03T00:45:13Z</time>
      </trkpt>
      <trkpt lat="54.137916220352054" lon="10.904540866613388">
        <ele>0</ele>
        <time>2010-01-03T00:45:36Z</time>
      </trkpt>
      <trkpt lat="54.138275971636176" lon="10.904557378962636">
        <ele>0</ele>
        <time>2010-01-03T00:45:51Z</time>
      </trkpt>
      <trkpt lat="54.138527847826481" lon="10.904568945989013">
        <ele>0</ele>
        <time>2010-01-03T00:46:01Z</time>
      </trkpt>
      <trkpt lat="54.139047022908926" lon="10.903611732646823">
        <ele>0</ele>
        <time>2010-01-03T00:46:31Z</time>
      </trkpt>
      <trkpt lat="54.139456395059824" lon="10.902772033587098">
        <ele>0</ele>
        <time>2010-01-03T00:46:57Z</time>
      </trkpt>
      <trkpt lat="54.141001431271434" lon="10.902965571731329">
        <ele>0</ele>
        <time>2010-01-03T00:47:59Z</time>
      </trkpt>
      <trkpt lat="54.142184872180223" lon="10.90326514095068">
        <ele>0</ele>
        <time>2010-01-03T00:48:47Z</time>
      </trkpt>
      <trkpt lat="54.142829524353147" lon="10.903478711843491">
        <ele>0</ele>
        <time>2010-01-03T00:49:13Z</time>
      </trkpt>
      <trkpt lat="54.143297234550118" lon="10.90350016951561">
        <ele>0</ele>
        <time>2010-01-03T00:49:32Z</time>
      </trkpt>
      <trkpt lat="54.143702667206526" lon="10.902905557304621">
        <ele>0</ele>
        <time>2010-01-03T00:49:53Z</time>
      </trkpt>
      <trkpt lat="54.144712937995791" lon="10.902767926454544">
        <ele>0</ele>
        <time>2010-01-03T00:50:34Z</time>
      </trkpt>
      <trkpt lat="54.145687250420451" lon="10.902628619223833">
        <ele>0</ele>
        <time>2010-01-03T00:51:13Z</time>
      </trkpt>
      <trkpt lat="54.146192846819758" lon="10.902529209852219">
        <ele>0</ele>
        <time>2010-01-03T00:51:33Z</time>
      </trkpt>
      <trkpt lat="54.146516639739275" lon="10.902544045820832">
        <ele>0</ele>
        <time>2010-01-03T00:51:46Z</time>
      </trkpt>
      <trkpt lat="54.146545892581344" lon="10.902974708005786">
        <ele>0</ele>
        <time>2010-01-03T00:51:56Z</time>
      </trkpt>
      <trkpt lat="54.146460313349962" lon="10.903829326853156">
        <ele>0</ele>
        <time>2010-01-03T00:52:17Z</time>
      </trkpt>
      <trkpt lat="54.146899944171309" lon="10.905628083273768">
        <ele>0</ele>
        <time>2010-01-03T00:53:02Z</time>
      </trkpt>
      <trkpt lat="54.147204291075468" lon="10.906868604943156">
        <ele>0</ele>
        <time>2010-01-03T00:53:34Z</time>
      </trkpt>
      <trkpt lat="54.147445438429713" lon="10.90755432844162">
        <ele>0</ele>
        <time>2010-01-03T00:53:53Z</time>
      </trkpt>
      <trkpt lat="54.147902503609657" lon="10.908249942585826">
        <ele>0</ele>
        <time>2010-01-03T00:54:17Z</time>
      </trkpt>
      <trkpt lat="54.14835655130446" lon="10.909129455685616">
        <ele>0</ele>
        <time>2010-01-03T00:54:45Z</time>
      </trkpt>
      <trkpt lat="54.14873868227005" lon="10.910005699843168">
        <ele>0</ele>
        <time>2010-01-03T00:55:10Z</time>
      </trkpt>
      <trkpt lat="54.149557426571846" lon="10.910595450550318">
        <ele>0</ele>
        <time>2010-01-03T00:55:46Z</time>
      </trkpt>
      <trkpt lat="54.150443226099014" lon="10.911494912579656">
        <ele>0</ele>
        <time>2010-01-03T00:56:27Z</time>
      </trkpt>
      <trkpt lat="54.151079161092639" lon="10.912260264158249">
        <ele>0</ele>
        <time>2010-01-03T00:56:58Z</time>
      </trkpt>
      <trkpt lat="54.151470009237528" lon="10.912584979087114">
        <ele>0</ele>
        <time>2010-01-03T00:57:16Z</time>
      </trkpt>
      <trkpt lat="54.151822971180081" lon="10.913030561059713">
        <ele>0</ele>
        <time>2010-01-03T00:57:33Z</time>
      </trkpt>
      <trkpt lat="54.152214825153351" lon="10.913294004276395">
        <ele>0</ele>
        <time>2010-01-03T00:57:50Z</time>
      </trkpt>
      <trkpt lat="54.152788482606411" lon="10.913443118333817">
        <ele>0</ele>
        <time>2010-01-03T00:58:13Z</time>
      </trkpt>
      <trkpt lat="54.153072377666831" lon="10.913701616227627">
        <ele>0</ele>
        <time>2010-01-03T00:58:26Z</time>
      </trkpt>
      <trkpt lat="54.153855163604021" lon="10.914289774373174">
        <ele>0</ele>
        <time>2010-01-03T00:59:01Z</time>
      </trkpt>
      <trkpt lat="54.154421025887132" lon="10.914929313585162">
        <ele>0</ele>
        <time>2010-01-03T00:59:28Z</time>
      </trkpt>
      <trkpt lat="54.154773987829685" lon="10.915374979376793">
        <ele>0</ele>
        <time>2010-01-03T00:59:45Z</time>
      </trkpt>
      <trkpt lat="54.155020918697119" lon="10.915693072602153">
        <ele>0</ele>
        <time>2010-01-03T00:59:58Z</time>
      </trkpt>
      <trkpt lat="54.155452670529485" lon="10.915713021531701">
        <ele>0</ele>
        <time>2010-01-03T01:00:15Z</time>
      </trkpt>
      <trkpt lat="54.155705468729138" lon="10.915663400664926">
        <ele>0</ele>
        <time>2010-01-03T01:00:25Z</time>
      </trkpt>
      <trkpt lat="54.15588827803731" lon="10.915487799793482">
        <ele>0</ele>
        <time>2010-01-03T01:00:34Z</time>
      </trkpt>
      <trkpt lat="54.155999170616269" lon="10.915308929979801">
        <ele>0</ele>
        <time>2010-01-03T01:00:40Z</time>
      </trkpt>
      <trkpt lat="54.156114840880036" lon="10.914823533967137">
        <ele>0</ele>
        <time>2010-01-03T01:00:52Z</time>
      </trkpt>
      <trkpt lat="54.156695371493697" lon="10.914543578401208">
        <ele>0</ele>
        <time>2010-01-03T01:01:16Z</time>
      </trkpt>
      <trkpt lat="54.156949175521731" lon="10.914432685822248">
        <ele>0</ele>
        <time>2010-01-03T01:01:27Z</time>
      </trkpt>
      <trkpt lat="54.157238937914371" lon="10.914323385804892">
        <ele>0</ele>
        <time>2010-01-03T01:01:38Z</time>
      </trkpt>
      <trkpt lat="54.157636659219861" lon="10.914219031110406">
        <ele>0</ele>
        <time>2010-01-03T01:01:55Z</time>
      </trkpt>
      <trkpt lat="54.15743918158114" lon="10.915314126759768">
        <ele>0</ele>
        <time>2010-01-03T01:02:21Z</time>
      </trkpt>
      <trkpt lat="54.157311776652932" lon="10.916535118594766">
        <ele>0</ele>
        <time>2010-01-03T01:02:50Z</time>
      </trkpt>
      <trkpt lat="54.157439013943076" lon="10.917583778500557">
        <ele>0</ele>
        <time>2010-01-03T01:03:16Z</time>
      </trkpt>
      <trkpt lat="54.157572202384472" lon="10.918264724314213">
        <ele>0</ele>
        <time>2010-01-03T01:03:32Z</time>
      </trkpt>
      <trkpt lat="54.157520569860935" lon="10.919243898242712">
        <ele>0</ele>
        <time>2010-01-03T01:03:55Z</time>
      </trkpt>
      <trkpt lat="54.157102312892675" lon="10.920635377988219">
        <ele>0</ele>
        <time>2010-01-03T01:04:32Z</time>
      </trkpt>
      <trkpt lat="54.156908774748445" lon="10.921485219150782">
        <ele>0</ele>
        <time>2010-01-03T01:04:53Z</time>
      </trkpt>
      <trkpt lat="54.157262658700347" lon="10.92186969704926">
        <ele>0</ele>
        <time>2010-01-03T01:05:10Z</time>
      </trkpt>
      <trkpt lat="54.156727641820908" lon="10.923807928338647">
        <ele>0</ele>
        <time>2010-01-03T01:06:00Z</time>
      </trkpt>
      <trkpt lat="54.156417259946465" lon="10.925204353407025">
        <ele>0</ele>
        <time>2010-01-03T01:06:35Z</time>
      </trkpt>
      <trkpt lat="54.156176866963506" lon="10.926726758480072">
        <ele>0</ele>
        <time>2010-01-03T01:07:12Z</time>
      </trkpt>
      <trkpt lat="54.155924739316106" lon="10.928984675556421">
        <ele>0</ele>
        <time>2010-01-03T01:08:06Z</time>
      </trkpt>
      <trkpt lat="54.155823234468699" lon="10.930820228531957">
        <ele>0</ele>
        <time>2010-01-03T01:08:50Z</time>
      </trkpt>
      <trkpt lat="54.155575884506106" lon="10.932771619409323">
        <ele>0</ele>
        <time>2010-01-03T01:09:36Z</time>
      </trkpt>
      <trkpt lat="54.155437415465713" lon="10.934666767716408">
        <ele>0</ele>
        <time>2010-01-03T01:10:21Z</time>
      </trkpt>
      <trkpt lat="54.155116137117147" lon="10.936737349256873">
        <ele>0</ele>
        <time>2010-01-03T01:11:11Z</time>
      </trkpt>
      <trkpt lat="54.154658736661077" lon="10.938310800120234">
        <ele>0</ele>
        <time>2010-01-03T01:11:53Z</time>
      </trkpt>
      <trkpt lat="54.153684843331575" lon="10.94065748155117">
        <ele>0</ele>
        <time>2010-01-03T01:13:00Z</time>
      </trkpt>
      <trkpt lat="54.153487114235759" lon="10.941752325743437">
        <ele>0</ele>
        <time>2010-01-03T01:13:27Z</time>
      </trkpt>
      <trkpt lat="54.153356440365314" lon="10.943156965076923">
        <ele>0</ele>
        <time>2010-01-03T01:14:00Z</time>
      </trkpt>
      <trkpt lat="54.153160722926259" lon="10.94412918202579">
        <ele>0</ele>
        <time>2010-01-03T01:14:24Z</time>
      </trkpt>
      <trkpt lat="54.153003981336951" lon="10.94491926021874">
        <ele>0</ele>
        <time>2010-01-03T01:14:44Z</time>
      </trkpt>
      <trkpt lat="54.1527752391994" lon="10.945705901831388">
        <ele>0</ele>
        <time>2010-01-03T01:15:04Z</time>
      </trkpt>
      <trkpt lat="54.152803234755993" lon="10.946197919547558">
        <ele>0</ele>
        <time>2010-01-03T01:15:16Z</time>
      </trkpt>
      <trkpt lat="54.15279233828187" lon="10.946872076019645">
        <ele>0</ele>
        <time>2010-01-03T01:15:32Z</time>
      </trkpt>
      <trkpt lat="54.152602571994066" lon="10.947476578876376">
        <ele>0</ele>
        <time>2010-01-03T01:15:48Z</time>
      </trkpt>
      <trkpt lat="54.152150955051184" lon="10.948682064190507">
        <ele>0</ele>
        <time>2010-01-03T01:16:21Z</time>
      </trkpt>
      <trkpt lat="54.152021203190088" lon="10.95002543181181">
        <ele>0</ele>
        <time>2010-01-03T01:16:53Z</time>
      </trkpt>
      <trkpt lat="54.151872340589762" lon="10.950325084850192">
        <ele>0</ele>
        <time>2010-01-03T01:17:03Z</time>
      </trkpt>
      <trkpt lat="54.152251202613115" lon="10.951385647058487">
        <ele>0</ele>
        <time>2010-01-03T01:17:32Z</time>
      </trkpt>
      <trkpt lat="54.152564015239477" lon="10.952075058594346">
        <ele>0</ele>
        <time>2010-01-03T01:17:52Z</time>
      </trkpt>
      <trkpt lat="54.152910858392715" lon="10.952888773754239">
        <ele>0</ele>
        <time>2010-01-03T01:18:16Z</time>
      </trkpt>
      <trkpt lat="54.153150748461485" lon="10.953636104241014">
        <ele>0</ele>
        <time>2010-01-03T01:18:36Z</time>
      </trkpt>
      <trkpt lat="54.152602152898908" lon="10.954162320122123">
        <ele>0</ele>
        <time>2010-01-03T01:19:01Z</time>
      </trkpt>
      <trkpt lat="54.152271402999759" lon="10.95457605086267">
        <ele>0</ele>
        <time>2010-01-03T01:19:17Z</time>
      </trkpt>
      <trkpt lat="54.151863707229495" lon="10.9552928712219">
        <ele>0</ele>
        <time>2010-01-03T01:19:41Z</time>
      </trkpt>
      <trkpt lat="54.151527006179094" lon="10.956074399873614">
        <ele>0</ele>
        <time>2010-01-03T01:20:03Z</time>
      </trkpt>
      <trkpt lat="54.151337156072259" lon="10.956678735092282">
        <ele>0</ele>
        <time>2010-01-03T01:20:20Z</time>
      </trkpt>
      <trkpt lat="54.151278231292963" lon="10.958086727187037">
        <ele>0</ele>
        <time>2010-01-03T01:20:53Z</time>
      </trkpt>
      <trkpt lat="54.151190305128694" lon="10.959063889458776">
        <ele>0</ele>
        <time>2010-01-03T01:21:16Z</time>
      </trkpt>
      <trkpt lat="54.150929460301995" lon="10.959603600203991">
        <ele>0</ele>
        <time>2010-01-03T01:21:32Z</time>
      </trkpt>
      <trkpt lat="54.150597704574466" lon="10.960078602656722">
        <ele>0</ele>
        <time>2010-01-03T01:21:50Z</time>
      </trkpt>
      <trkpt lat="54.150334931910038" lon="10.960740856826305">
        <ele>0</ele>
        <time>2010-01-03T01:22:08Z</time>
      </trkpt>
      <trkpt lat="54.150290926918387" lon="10.961229437962174">
        <ele>0</ele>
        <time>2010-01-03T01:22:20Z</time>
      </trkpt>
      <trkpt lat="54.150211047381163" lon="10.961716342717409">
        <ele>0</ele>
        <time>2010-01-03T01:22:32Z</time>
      </trkpt>
      <trkpt lat="54.149818941950798" lon="10.962194530293345">
        <ele>0</ele>
        <time>2010-01-03T01:22:51Z</time>
      </trkpt>
      <trkpt lat="54.149680556729436" lon="10.962404664605856">
        <ele>0</ele>
        <time>2010-01-03T01:22:58Z</time>
      </trkpt>
      <trkpt lat="54.149648789316416" lon="10.962471216917038">
        <ele>0</ele>
        <time>2010-01-03T01:23:00Z</time>
      </trkpt>
      <trkpt lat="54.149619117379189" lon="10.962566854432225">
        <ele>0</ele>
        <time>2010-01-03T01:23:03Z</time>
      </trkpt>
      <trkpt lat="54.149598330259323" lon="10.96266383305192">
        <ele>0</ele>
        <time>2010-01-03T01:23:05Z</time>
      </trkpt>
      <trkpt lat="54.149582991376519" lon="10.962754525244236">
        <ele>0</ele>
        <time>2010-01-03T01:23:08Z</time>
      </trkpt>
      <trkpt lat="54.149571089074016" lon="10.962840523570776">
        <ele>0</ele>
        <time>2010-01-03T01:23:10Z</time>
      </trkpt>
      <trkpt lat="54.1494648065418" lon="10.964019354432821">
        <ele>0</ele>
        <time>2010-01-03T01:23:38Z</time>
      </trkpt>
      <trkpt lat="54.149414598941803" lon="10.964704742655158">
        <ele>0</ele>
        <time>2010-01-03T01:23:54Z</time>
      </trkpt>
      <trkpt lat="54.149319212883711" lon="10.966002261266112">
        <ele>0</ele>
        <time>2010-01-03T01:24:24Z</time>
      </trkpt>
      <trkpt lat="54.149288116022944" lon="10.966309793293476">
        <ele>0</ele>
        <time>2010-01-03T01:24:32Z</time>
      </trkpt>
      <trkpt lat="54.14927470497787" lon="10.966506768018007">
        <ele>0</ele>
        <time>2010-01-03T01:24:36Z</time>
      </trkpt>
      <trkpt lat="54.149282416328788" lon="10.966741964221001">
        <ele>0</ele>
        <time>2010-01-03T01:24:42Z</time>
      </trkpt>
      <trkpt lat="54.149297587573528" lon="10.966862160712481">
        <ele>0</ele>
        <time>2010-01-03T01:24:45Z</time>
      </trkpt>
      <trkpt lat="54.149315860122442" lon="10.966961653903127">
        <ele>0</ele>
        <time>2010-01-03T01:24:47Z</time>
      </trkpt>
      <trkpt lat="54.149330109357834" lon="10.967074306681752">
        <ele>0</ele>
        <time>2010-01-03T01:24:50Z</time>
      </trkpt>
      <trkpt lat="54.149368666112423" lon="10.967358285561204">
        <ele>0</ele>
        <time>2010-01-03T01:24:57Z</time>
      </trkpt>
      <trkpt lat="54.149389285594225" lon="10.967509914189577">
        <ele>0</ele>
        <time>2010-01-03T01:25:01Z</time>
      </trkpt>
      <trkpt lat="54.149635210633278" lon="10.968947242945433">
        <ele>0</ele>
        <time>2010-01-03T01:25:36Z</time>
      </trkpt>
      <trkpt lat="54.149816846475005" lon="10.969913089647889">
        <ele>0</ele>
        <time>2010-01-03T01:25:59Z</time>
      </trkpt>
      <trkpt lat="54.149874430149794" lon="10.970230009406805">
        <ele>0</ele>
        <time>2010-01-03T01:26:07Z</time>
      </trkpt>
      <trkpt lat="54.15024608373642" lon="10.972199840471148">
        <ele>0</ele>
        <time>2010-01-03T01:26:56Z</time>
      </trkpt>
      <trkpt lat="54.150575743988156" lon="10.973979318514466">
        <ele>0</ele>
        <time>2010-01-03T01:27:39Z</time>
      </trkpt>
      <trkpt lat="54.150839522480965" lon="10.975208021700382">
        <ele>0</ele>
        <time>2010-01-03T01:28:10Z</time>
      </trkpt>
      <trkpt lat="54.15089794434607" lon="10.975422346964478">
        <ele>0</ele>
        <time>2010-01-03T01:28:16Z</time>
      </trkpt>
      <trkpt lat="54.150923928245902" lon="10.975518152117729">
        <ele>0</ele>
        <time>2010-01-03T01:28:18Z</time>
      </trkpt>
      <trkpt lat="54.150930466130376" lon="10.975540950894356">
        <ele>0</ele>
        <time>2010-01-03T01:28:19Z</time>
      </trkpt>
      <trkpt lat="54.150953600183129" lon="10.975623009726405">
        <ele>0</ele>
        <time>2010-01-03T01:28:21Z</time>
      </trkpt>
      <trkpt lat="54.150999868288636" lon="10.975777991116047">
        <ele>0</ele>
        <time>2010-01-03T01:28:25Z</time>
      </trkpt>
      <trkpt lat="54.151380406692624" lon="10.976788010448217">
        <ele>0</ele>
        <time>2010-01-03T01:28:53Z</time>
      </trkpt>
      <trkpt lat="54.151428183540702" lon="10.976913822814822">
        <ele>0</ele>
        <time>2010-01-03T01:28:57Z</time>
      </trkpt>
      <trkpt lat="54.151787599548697" lon="10.977869275957346">
        <ele>0</ele>
        <time>2010-01-03T01:29:23Z</time>
      </trkpt>
      <trkpt lat="54.151857001706958" lon="10.978054935112596">
        <ele>0</ele>
        <time>2010-01-03T01:29:28Z</time>
      </trkpt>
      <trkpt lat="54.151996895670891" lon="10.978386523202062">
        <ele>0</ele>
        <time>2010-01-03T01:29:38Z</time>
      </trkpt>
      <trkpt lat="54.152029501274228" lon="10.978449052199721">
        <ele>0</ele>
        <time>2010-01-03T01:29:40Z</time>
      </trkpt>
      <trkpt lat="54.1520637832582" lon="10.978508731350303">
        <ele>0</ele>
        <time>2010-01-03T01:29:42Z</time>
      </trkpt>
      <trkpt lat="54.152104016393423" lon="10.9785589389503">
        <ele>0</ele>
        <time>2010-01-03T01:29:44Z</time>
      </trkpt>
      <trkpt lat="54.152340134605765" lon="10.978845516219735">
        <ele>0</ele>
        <time>2010-01-03T01:29:55Z</time>
      </trkpt>
      <trkpt lat="54.15258564054966" lon="10.979119101539254">
        <ele>0</ele>
        <time>2010-01-03T01:30:07Z</time>
      </trkpt>
      <trkpt lat="54.15284707210958" lon="10.979443732649088">
        <ele>0</ele>
        <time>2010-01-03T01:30:20Z</time>
      </trkpt>
      <trkpt lat="54.152954360470176" lon="10.97958505153656">
        <ele>0</ele>
        <time>2010-01-03T01:30:26Z</time>
      </trkpt>
      <trkpt lat="54.152979841455817" lon="10.979618327692151">
        <ele>0</ele>
        <time>2010-01-03T01:30:27Z</time>
      </trkpt>
      <trkpt lat="54.153159130364656" lon="10.979894511401653">
        <ele>0</ele>
        <time>2010-01-03T01:30:37Z</time>
      </trkpt>
      <trkpt lat="54.153320984914899" lon="10.98017631098628">
        <ele>0</ele>
        <time>2010-01-03T01:30:46Z</time>
      </trkpt>
      <trkpt lat="54.153402457013726" lon="10.98033607006073">
        <ele>0</ele>
        <time>2010-01-03T01:30:51Z</time>
      </trkpt>
      <trkpt lat="54.153488790616393" lon="10.980535391718149">
        <ele>0</ele>
        <time>2010-01-03T01:30:57Z</time>
      </trkpt>
      <trkpt lat="54.153583003208041" lon="10.980759356170893">
        <ele>0</ele>
        <time>2010-01-03T01:31:03Z</time>
      </trkpt>
      <trkpt lat="54.153656344860792" lon="10.980933699756861">
        <ele>0</ele>
        <time>2010-01-03T01:31:08Z</time>
      </trkpt>
      <trkpt lat="54.153717532753944" lon="10.981113156303763">
        <ele>0</ele>
        <time>2010-01-03T01:31:13Z</time>
      </trkpt>
      <trkpt lat="54.153759023174644" lon="10.981279453262687">
        <ele>0</ele>
        <time>2010-01-03T01:31:17Z</time>
      </trkpt>
      <trkpt lat="54.153815852478147" lon="10.98153661005199">
        <ele>0</ele>
        <time>2010-01-03T01:31:24Z</time>
      </trkpt>
      <trkpt lat="54.153895480558276" lon="10.981886219233274">
        <ele>0</ele>
        <time>2010-01-03T01:31:32Z</time>
      </trkpt>
      <trkpt lat="54.153979802504182" lon="10.982298022136092">
        <ele>0</ele>
        <time>2010-01-03T01:31:43Z</time>
      </trkpt>
      <trkpt lat="54.154033279046416" lon="10.982581581920385">
        <ele>0</ele>
        <time>2010-01-03T01:31:50Z</time>
      </trkpt>
      <trkpt lat="54.154253220185637" lon="10.98368271254003">
        <ele>0</ele>
        <time>2010-01-03T01:32:17Z</time>
      </trkpt>
      <trkpt lat="54.154474250972271" lon="10.984792560338974">
        <ele>0</ele>
        <time>2010-01-03T01:32:44Z</time>
      </trkpt>
      <trkpt lat="54.154653875157237" lon="10.98572563380003">
        <ele>0</ele>
        <time>2010-01-03T01:33:07Z</time>
      </trkpt>
      <trkpt lat="54.154739789664745" lon="10.986122097820044">
        <ele>0</ele>
        <time>2010-01-03T01:33:17Z</time>
      </trkpt>
      <trkpt lat="54.154780274257064" lon="10.986272050067782">
        <ele>0</ele>
        <time>2010-01-03T01:33:21Z</time>
      </trkpt>
      <trkpt lat="54.154822016134858" lon="10.98641705699265">
        <ele>0</ele>
        <time>2010-01-03T01:33:25Z</time>
      </trkpt>
      <trkpt lat="54.154858896508813" lon="10.986534068360925">
        <ele>0</ele>
        <time>2010-01-03T01:33:28Z</time>
      </trkpt>
      <trkpt lat="54.154904745519161" lon="10.986679578199983">
        <ele>0</ele>
        <time>2010-01-03T01:33:32Z</time>
      </trkpt>
      <trkpt lat="54.154948415234685" lon="10.986820813268423">
        <ele>0</ele>
        <time>2010-01-03T01:33:36Z</time>
      </trkpt>
      <trkpt lat="54.155005663633347" lon="10.98699364811182">
        <ele>0</ele>
        <time>2010-01-03T01:33:40Z</time>
      </trkpt>
      <trkpt lat="54.155391482636333" lon="10.988108441233635">
        <ele>0</ele>
        <time>2010-01-03T01:34:11Z</time>
      </trkpt>
      <trkpt lat="54.155418137088418" lon="10.988185806199908">
        <ele>0</ele>
        <time>2010-01-03T01:34:13Z</time>
      </trkpt>
      <trkpt lat="54.155544368550181" lon="10.988560812547803">
        <ele>0</ele>
        <time>2010-01-03T01:34:23Z</time>
      </trkpt>
      <trkpt lat="54.15557848289609" lon="10.988657958805561">
        <ele>0</ele>
        <time>2010-01-03T01:34:26Z</time>
      </trkpt>
      <trkpt lat="54.155607987195253" lon="10.988740855827928">
        <ele>0</ele>
        <time>2010-01-03T01:34:28Z</time>
      </trkpt>
      <trkpt lat="54.155800184234977" lon="10.989280147477984">
        <ele>0</ele>
        <time>2010-01-03T01:34:43Z</time>
      </trkpt>
      <trkpt lat="54.15586388669908" lon="10.989480642601848">
        <ele>0</ele>
        <time>2010-01-03T01:34:48Z</time>
      </trkpt>
      <trkpt lat="54.155909065157175" lon="10.98962196148932">
        <ele>0</ele>
        <time>2010-01-03T01:34:52Z</time>
      </trkpt>
      <trkpt lat="54.156369650736451" lon="10.990867512300611">
        <ele>0</ele>
        <time>2010-01-03T01:35:26Z</time>
      </trkpt>
      <trkpt lat="54.156417427584529" lon="10.990996425971389">
        <ele>0</ele>
        <time>2010-01-03T01:35:30Z</time>
      </trkpt>
      <trkpt lat="54.156603589653969" lon="10.990802133455873">
        <ele>0</ele>
        <time>2010-01-03T01:35:39Z</time>
      </trkpt>
      <trkpt lat="54.156816489994526" lon="10.990581102669239">
        <ele>0</ele>
        <time>2010-01-03T01:35:49Z</time>
      </trkpt>
      <trkpt lat="54.15756817907095" lon="10.989800496026874">
        <ele>0</ele>
        <time>2010-01-03T01:36:24Z</time>
      </trkpt>
      <trkpt lat="54.157663565129042" lon="10.989701673388481">
        <ele>0</ele>
        <time>2010-01-03T01:36:28Z</time>
      </trkpt>
      <trkpt lat="54.157913848757744" lon="10.989441499114037">
        <ele>0</ele>
        <time>2010-01-03T01:36:40Z</time>
      </trkpt>
      <trkpt lat="54.159063678234816" lon="10.988245401531458">
        <ele>0</ele>
        <time>2010-01-03T01:37:34Z</time>
      </trkpt>
      <trkpt lat="54.159225029870868" lon="10.988093018531799">
        <ele>0</ele>
        <time>2010-01-03T01:37:41Z</time>
      </trkpt>
      <trkpt lat="54.160213759168983" lon="10.987076880410314">
        <ele>0</ele>
        <time>2010-01-03T01:38:28Z</time>
      </trkpt>
      <trkpt lat="54.161136606708169" lon="10.986128132790327">
        <ele>0</ele>
        <time>2010-01-03T01:39:11Z</time>
      </trkpt>
      <trkpt lat="54.161223024129868" lon="10.986044900491834">
        <ele>0</ele>
        <time>2010-01-03T01:39:15Z</time>
      </trkpt>
      <trkpt lat="54.161302065476775" lon="10.986031321808696">
        <ele>0</ele>
        <time>2010-01-03T01:39:18Z</time>
      </trkpt>
      <trkpt lat="54.161483701318502" lon="10.98593819886446">
        <ele>0</ele>
        <time>2010-01-03T01:39:25Z</time>
      </trkpt>
      <trkpt lat="54.16170246899128" lon="10.985796628519893">
        <ele>0</ele>
        <time>2010-01-03T01:39:35Z</time>
      </trkpt>
      <trkpt lat="54.161829706281424" lon="10.985704259946942">
        <ele>0</ele>
        <time>2010-01-03T01:39:40Z</time>
      </trkpt>
      <trkpt lat="54.161908244714141" lon="10.985647346824408">
        <ele>0</ele>
        <time>2010-01-03T01:39:44Z</time>
      </trkpt>
      <trkpt lat="54.162049647420645" lon="10.9855199418962">
        <ele>0</ele>
        <time>2010-01-03T01:39:50Z</time>
      </trkpt>
      <trkpt lat="54.162131873890758" lon="10.985447270795703">
        <ele>0</ele>
        <time>2010-01-03T01:39:54Z</time>
      </trkpt>
      <trkpt lat="54.16217009536922" lon="10.985415168106556">
        <ele>0</ele>
        <time>2010-01-03T01:39:55Z</time>
      </trkpt>
      <trkpt lat="54.162946259602904" lon="10.984761128202081">
        <ele>0</ele>
        <time>2010-01-03T01:40:30Z</time>
      </trkpt>
      <trkpt lat="54.163010632619262" lon="10.984725840389729">
        <ele>0</ele>
        <time>2010-01-03T01:40:33Z</time>
      </trkpt>
      <trkpt lat="54.163055391982198" lon="10.9847048856318">
        <ele>0</ele>
        <time>2010-01-03T01:40:35Z</time>
      </trkpt>
      <trkpt lat="54.163105599582195" lon="10.984697509557009">
        <ele>0</ele>
        <time>2010-01-03T01:40:37Z</time>
      </trkpt>
      <trkpt lat="54.163247505202889" lon="10.984687870368361">
        <ele>0</ele>
        <time>2010-01-03T01:40:42Z</time>
      </trkpt>
      <trkpt lat="54.163331910967827" lon="10.984682757407427">
        <ele>0</ele>
        <time>2010-01-03T01:40:46Z</time>
      </trkpt>
      <trkpt lat="54.16338387876749" lon="10.984663143754005">
        <ele>0</ele>
        <time>2010-01-03T01:40:48Z</time>
      </trkpt>
      <trkpt lat="54.163416903465986" lon="10.984643949195743">
        <ele>0</ele>
        <time>2010-01-03T01:40:49Z</time>
      </trkpt>
      <trkpt lat="54.163473062217236" lon="10.984592065215111">
        <ele>0</ele>
        <time>2010-01-03T01:40:52Z</time>
      </trkpt>
      <trkpt lat="54.163557719439268" lon="10.984510341659188">
        <ele>0</ele>
        <time>2010-01-03T01:40:56Z</time>
      </trkpt>
      <trkpt lat="54.163665762171149" lon="10.984429623931646">
        <ele>0</ele>
        <time>2010-01-03T01:41:00Z</time>
      </trkpt>
      <trkpt lat="54.164742501452565" lon="10.983590763062239">
        <ele>0</ele>
        <time>2010-01-03T01:41:48Z</time>
      </trkpt>
      <trkpt lat="54.164757421240211" lon="10.983579196035862">
        <ele>0</ele>
        <time>2010-01-03T01:41:49Z</time>
      </trkpt>
      <trkpt lat="54.164796732366085" lon="10.983555307611823">
        <ele>0</ele>
        <time>2010-01-03T01:41:50Z</time>
      </trkpt>
      <trkpt lat="54.164801258593798" lon="10.983552122488618">
        <ele>0</ele>
        <time>2010-01-03T01:41:50Z</time>
      </trkpt>
      <trkpt lat="54.164827158674598" lon="10.983537705615163">
        <ele>0</ele>
        <time>2010-01-03T01:41:51Z</time>
      </trkpt>
      <trkpt lat="54.164856746792793" lon="10.983527731150389">
        <ele>0</ele>
        <time>2010-01-03T01:41:53Z</time>
      </trkpt>
      <trkpt lat="54.164916928857565" lon="10.983523204922676">
        <ele>0</ele>
        <time>2010-01-03T01:41:55Z</time>
      </trkpt>
      <trkpt lat="54.164955569431186" lon="10.983526892960072">
        <ele>0</ele>
        <time>2010-01-03T01:41:57Z</time>
      </trkpt>
      <trkpt lat="54.165358319878578" lon="10.983665529638529">
        <ele>0</ele>
        <time>2010-01-03T01:42:13Z</time>
      </trkpt>
      <trkpt lat="54.165574572980404" lon="10.98373987711966">
        <ele>0</ele>
        <time>2010-01-03T01:42:22Z</time>
      </trkpt>
      <trkpt lat="54.16566182859242" lon="10.983751527965069">
        <ele>0</ele>
        <time>2010-01-03T01:42:25Z</time>
      </trkpt>
      <trkpt lat="54.165715724229813" lon="10.983750186860561">
        <ele>0</ele>
        <time>2010-01-03T01:42:28Z</time>
      </trkpt>
      <trkpt lat="54.165757885202765" lon="10.983739960938692">
        <ele>0</ele>
        <time>2010-01-03T01:42:29Z</time>
      </trkpt>
      <trkpt lat="54.165790993720293" lon="10.983723867684603">
        <ele>0</ele>
        <time>2010-01-03T01:42:31Z</time>
      </trkpt>
      <trkpt lat="54.165835585445166" lon="10.983690591529012">
        <ele>0</ele>
        <time>2010-01-03T01:42:33Z</time>
      </trkpt>
      <trkpt lat="54.165887301787734" lon="10.983640300109982">
        <ele>0</ele>
        <time>2010-01-03T01:42:35Z</time>
      </trkpt>
      <trkpt lat="54.166220566257834" lon="10.983206536620855">
        <ele>0</ele>
        <time>2010-01-03T01:42:52Z</time>
      </trkpt>
      <trkpt lat="54.166325507685542" lon="10.983082987368107">
        <ele>0</ele>
        <time>2010-01-03T01:42:57Z</time>
      </trkpt>
      <trkpt lat="54.166416199877858" lon="10.982970502227545">
        <ele>0</ele>
        <time>2010-01-03T01:43:01Z</time>
      </trkpt>
      <trkpt lat="54.166498091071844" lon="10.982872014865279">
        <ele>0</ele>
        <time>2010-01-03T01:43:05Z</time>
      </trkpt>
      <trkpt lat="54.166549555957317" lon="10.982801858335733">
        <ele>0</ele>
        <time>2010-01-03T01:43:08Z</time>
      </trkpt>
      <trkpt lat="54.166783578693867" lon="10.982427103444934">
        <ele>0</ele>
        <time>2010-01-03T01:43:21Z</time>
      </trkpt>
      <trkpt lat="54.166853651404381" lon="10.982313612475991">
        <ele>0</ele>
        <time>2010-01-03T01:43:25Z</time>
      </trkpt>
      <trkpt lat="54.166918275877833" lon="10.982206407934427">
        <ele>0</ele>
        <time>2010-01-03T01:43:28Z</time>
      </trkpt>
      <trkpt lat="54.167000418528914" lon="10.982039021328092">
        <ele>0</ele>
        <time>2010-01-03T01:43:33Z</time>
      </trkpt>
      <trkpt lat="54.167261933907866" lon="10.982260722666979">
        <ele>0</ele>
        <time>2010-01-03T01:43:45Z</time>
      </trkpt>
      <trkpt lat="54.167306441813707" lon="10.982311684638262">
        <ele>0</ele>
        <time>2010-01-03T01:43:47Z</time>
      </trkpt>
      <trkpt lat="54.167361091822386" lon="10.982397682964802">
        <ele>0</ele>
        <time>2010-01-03T01:43:50Z</time>
      </trkpt>
      <trkpt lat="54.167681867256761" lon="10.982936387881637">
        <ele>0</ele>
        <time>2010-01-03T01:44:08Z</time>
      </trkpt>
      <trkpt lat="54.167719334363937" lon="10.983010567724705">
        <ele>0</ele>
        <time>2010-01-03T01:44:11Z</time>
      </trkpt>
      <trkpt lat="54.167761746793985" lon="10.983139649033546">
        <ele>0</ele>
        <time>2010-01-03T01:44:14Z</time>
      </trkpt>
      <trkpt lat="54.167804243043065" lon="10.983277950435877">
        <ele>0</ele>
        <time>2010-01-03T01:44:18Z</time>
      </trkpt>
      <trkpt lat="54.167927373200655" lon="10.983712803572416">
        <ele>0</ele>
        <time>2010-01-03T01:44:29Z</time>
      </trkpt>
      <trkpt lat="54.168041283264756" lon="10.984117314219475">
        <ele>0</ele>
        <time>2010-01-03T01:44:39Z</time>
      </trkpt>
      <trkpt lat="54.16806005872786" lon="10.984207252040505">
        <ele>0</ele>
        <time>2010-01-03T01:44:42Z</time>
      </trkpt>
      <trkpt lat="54.168069781735539" lon="10.984292747452855">
        <ele>0</ele>
        <time>2010-01-03T01:44:44Z</time>
      </trkpt>
      <trkpt lat="54.168198192492127" lon="10.985465543344617">
        <ele>0</ele>
        <time>2010-01-03T01:45:12Z</time>
      </trkpt>
      <trkpt lat="54.168324507772923" lon="10.98648838698864">
        <ele>0</ele>
        <time>2010-01-03T01:45:36Z</time>
      </trkpt>
      <trkpt lat="54.168323837220669" lon="10.986512945964932">
        <ele>0</ele>
        <time>2010-01-03T01:45:37Z</time>
      </trkpt>
      <trkpt lat="54.168323250487447" lon="10.986554268747568">
        <ele>0</ele>
        <time>2010-01-03T01:45:38Z</time>
      </trkpt>
      <trkpt lat="54.168314868584275" lon="10.986623335629702">
        <ele>0</ele>
        <time>2010-01-03T01:45:39Z</time>
      </trkpt>
      <trkpt lat="54.16829508729279" lon="10.986721822991967">
        <ele>0</ele>
        <time>2010-01-03T01:45:42Z</time>
      </trkpt>
      <trkpt lat="54.16815921664238" lon="10.987249882891774">
        <ele>0</ele>
        <time>2010-01-03T01:45:55Z</time>
      </trkpt>
      <trkpt lat="54.167939107865095" lon="10.987880453467369">
        <ele>0</ele>
        <time>2010-01-03T01:46:13Z</time>
      </trkpt>
      <trkpt lat="54.167721681296825" lon="10.988522758707404">
        <ele>0</ele>
        <time>2010-01-03T01:46:30Z</time>
      </trkpt>
      <trkpt lat="54.167709611356258" lon="10.988579671829939">
        <ele>0</ele>
        <time>2010-01-03T01:46:31Z</time>
      </trkpt>
      <trkpt lat="54.167705420404673" lon="10.988619653508067">
        <ele>0</ele>
        <time>2010-01-03T01:46:32Z</time>
      </trkpt>
      <trkpt lat="54.167702989652753" lon="10.988650331273675">
        <ele>0</ele>
        <time>2010-01-03T01:46:33Z</time>
      </trkpt>
      <trkpt lat="54.16770676150918" lon="10.988673213869333">
        <ele>0</ele>
        <time>2010-01-03T01:46:34Z</time>
      </trkpt>
      <trkpt lat="54.16771505959332" lon="10.988694420084357">
        <ele>0</ele>
        <time>2010-01-03T01:46:34Z</time>
      </trkpt>
      <trkpt lat="54.168534222990274" lon="10.989848859608173">
        <ele>0</ele>
        <time>2010-01-03T01:47:17Z</time>
      </trkpt>
      <trkpt lat="54.168685097247362" lon="10.990058071911335">
        <ele>0</ele>
        <time>2010-01-03T01:47:25Z</time>
      </trkpt>
      <trkpt lat="54.169435696676373" lon="10.990425618365407">
        <ele>0</ele>
        <time>2010-01-03T01:47:56Z</time>
      </trkpt>
      <trkpt lat="54.169694697484374" lon="10.990561740472913">
        <ele>0</ele>
        <time>2010-01-03T01:48:07Z</time>
      </trkpt>
      <trkpt lat="54.169768709689379" lon="10.990599794313312">
        <ele>0</ele>
        <time>2010-01-03T01:48:10Z</time>
      </trkpt>
      <trkpt lat="54.169922936707735" lon="10.990672549232841">
        <ele>0</ele>
        <time>2010-01-03T01:48:16Z</time>
      </trkpt>
      <trkpt lat="54.17111006565392" lon="10.991234807297587">
        <ele>0</ele>
        <time>2010-01-03T01:49:05Z</time>
      </trkpt>
      <trkpt lat="54.171168571338058" lon="10.991248721256852">
        <ele>0</ele>
        <time>2010-01-03T01:49:08Z</time>
      </trkpt>
      <trkpt lat="54.171205284073949" lon="10.991241680458188">
        <ele>0</ele>
        <time>2010-01-03T01:49:09Z</time>
      </trkpt>
      <trkpt lat="54.171237554401159" lon="10.991225587204099">
        <ele>0</ele>
        <time>2010-01-03T01:49:11Z</time>
      </trkpt>
      <trkpt lat="54.171337215229869" lon="10.99117043428123">
        <ele>0</ele>
        <time>2010-01-03T01:49:15Z</time>
      </trkpt>
      <trkpt lat="54.172219494357705" lon="10.990682523697615">
        <ele>0</ele>
        <time>2010-01-03T01:49:52Z</time>
      </trkpt>
      <trkpt lat="54.172988617792726" lon="10.990258064121008">
        <ele>0</ele>
        <time>2010-01-03T01:50:24Z</time>
      </trkpt>
      <trkpt lat="54.173036981374025" lon="10.990244569256902">
        <ele>0</ele>
        <time>2010-01-03T01:50:26Z</time>
      </trkpt>
      <trkpt lat="54.173080986365676" lon="10.990243563428521">
        <ele>0</ele>
        <time>2010-01-03T01:50:28Z</time>
      </trkpt>
      <trkpt lat="54.173119710758328" lon="10.990251777693629">
        <ele>0</ele>
        <time>2010-01-03T01:50:30Z</time>
      </trkpt>
      <trkpt lat="54.173413999378681" lon="10.990417655557394">
        <ele>0</ele>
        <time>2010-01-03T01:50:42Z</time>
      </trkpt>
      <trkpt lat="54.173470744863153" lon="10.990437688305974">
        <ele>0</ele>
        <time>2010-01-03T01:50:44Z</time>
      </trkpt>
      <trkpt lat="54.173532938584685" lon="10.990460738539696">
        <ele>0</ele>
        <time>2010-01-03T01:50:47Z</time>
      </trkpt>
      <trkpt lat="54.17358155362308" lon="10.990471802651882">
        <ele>0</ele>
        <time>2010-01-03T01:50:49Z</time>
      </trkpt>
      <trkpt lat="54.173656236380339" lon="10.990482196211815">
        <ele>0</ele>
        <time>2010-01-03T01:50:52Z</time>
      </trkpt>
      <trkpt lat="54.173731422051787" lon="10.990452775731683">
        <ele>0</ele>
        <time>2010-01-03T01:50:55Z</time>
      </trkpt>
      <trkpt lat="54.173854049295187" lon="10.991687178611755">
        <ele>0</ele>
        <time>2010-01-03T01:51:24Z</time>
      </trkpt>
      <trkpt lat="54.176688641309738" lon="10.992433084174991">
        <ele>0</ele>
        <time>2010-01-03T01:53:19Z</time>
      </trkpt>
      <trkpt lat="54.176737172529101" lon="10.992433419451118">
        <ele>0</ele>
        <time>2010-01-03T01:53:21Z</time>
      </trkpt>
      <trkpt lat="54.176789140328765" lon="10.99241841584444">
        <ele>0</ele>
        <time>2010-01-03T01:53:23Z</time>
      </trkpt>
      <trkpt lat="54.176848232746124" lon="10.992392431944609">
        <ele>0</ele>
        <time>2010-01-03T01:53:26Z</time>
      </trkpt>
      <trkpt lat="54.177371179684997" lon="10.991964703425765">
        <ele>0</ele>
        <time>2010-01-03T01:53:49Z</time>
      </trkpt>
      <trkpt lat="54.178120605647564" lon="10.991319548338652">
        <ele>0</ele>
        <time>2010-01-03T01:54:22Z</time>
      </trkpt>
      <trkpt lat="54.17822646908462" lon="10.991192478686571">
        <ele>0</ele>
        <time>2010-01-03T01:54:28Z</time>
      </trkpt>
      <trkpt lat="54.178625531494617" lon="10.990878324955702">
        <ele>0</ele>
        <time>2010-01-03T01:54:45Z</time>
      </trkpt>
      <trkpt lat="54.178795181214809" lon="10.990731725469232">
        <ele>0</ele>
        <time>2010-01-03T01:54:53Z</time>
      </trkpt>
      <trkpt lat="54.179542679339647" lon="10.990151446312666">
        <ele>0</ele>
        <time>2010-01-03T01:55:26Z</time>
      </trkpt>
      <trkpt lat="54.179947357624769" lon="10.989855816587806">
        <ele>0</ele>
        <time>2010-01-03T01:55:43Z</time>
      </trkpt>
      <trkpt lat="54.180019777268171" lon="10.989818768575788">
        <ele>0</ele>
        <time>2010-01-03T01:55:46Z</time>
      </trkpt>
      <trkpt lat="54.180060094222426" lon="10.98980862647295">
        <ele>0</ele>
        <time>2010-01-03T01:55:48Z</time>
      </trkpt>
      <trkpt lat="54.180082641541958" lon="10.989817259833217">
        <ele>0</ele>
        <time>2010-01-03T01:55:49Z</time>
      </trkpt>
      <trkpt lat="54.180177021771669" lon="10.98992832005024">
        <ele>0</ele>
        <time>2010-01-03T01:55:53Z</time>
      </trkpt>
      <trkpt lat="54.180246843025088" lon="10.990001661702991">
        <ele>0</ele>
        <time>2010-01-03T01:55:57Z</time>
      </trkpt>
      <trkpt lat="54.180294619873166" lon="10.990024963393807">
        <ele>0</ele>
        <time>2010-01-03T01:55:59Z</time>
      </trkpt>
      <trkpt lat="54.180364860221744" lon="10.990037117153406">
        <ele>0</ele>
        <time>2010-01-03T01:56:01Z</time>
      </trkpt>
      <trkpt lat="54.180428730323911" lon="10.990053880959749">
        <ele>0</ele>
        <time>2010-01-03T01:56:04Z</time>
      </trkpt>
      <trkpt lat="54.180443482473493" lon="10.990096461027861">
        <ele>0</ele>
        <time>2010-01-03T01:56:05Z</time>
      </trkpt>
      <trkpt lat="54.180464604869485" lon="10.990151027217507">
        <ele>0</ele>
        <time>2010-01-03T01:56:07Z</time>
      </trkpt>
      <trkpt lat="54.180500227957964" lon="10.990222189575434">
        <ele>0</ele>
        <time>2010-01-03T01:56:09Z</time>
      </trkpt>
      <trkpt lat="54.180546747520566" lon="10.990303745493293">
        <ele>0</ele>
        <time>2010-01-03T01:56:12Z</time>
      </trkpt>
      <trkpt lat="54.180630398914218" lon="10.9904242772609">
        <ele>0</ele>
        <time>2010-01-03T01:56:16Z</time>
      </trkpt>
      <trkpt lat="54.180763252079487" lon="10.990621671080589">
        <ele>0</ele>
        <time>2010-01-03T01:56:23Z</time>
      </trkpt>
      <trkpt lat="54.180890489369631" lon="10.990796266123652">
        <ele>0</ele>
        <time>2010-01-03T01:56:30Z</time>
      </trkpt>
      <trkpt lat="54.181031305342913" lon="10.990982763469219">
        <ele>0</ele>
        <time>2010-01-03T01:56:37Z</time>
      </trkpt>
      <trkpt lat="54.181160554289818" lon="10.991181749850512">
        <ele>0</ele>
        <time>2010-01-03T01:56:44Z</time>
      </trkpt>
      <trkpt lat="54.181166002526879" lon="10.991189293563366">
        <ele>0</ele>
        <time>2010-01-03T01:56:44Z</time>
      </trkpt>
      <trkpt lat="54.181275134906173" lon="10.991347460076213">
        <ele>0</ele>
        <time>2010-01-03T01:56:50Z</time>
      </trkpt>
      <trkpt lat="54.181383177638054" lon="10.991476541385055">
        <ele>0</ele>
        <time>2010-01-03T01:56:55Z</time>
      </trkpt>
      <trkpt lat="54.181490298360586" lon="10.991611825302243">
        <ele>0</ele>
        <time>2010-01-03T01:57:00Z</time>
      </trkpt>
      <trkpt lat="54.18156917206943" lon="10.991695644333959">
        <ele>0</ele>
        <time>2010-01-03T01:57:04Z</time>
      </trkpt>
      <trkpt lat="54.18165173381567" lon="10.99179781973362">
        <ele>0</ele>
        <time>2010-01-03T01:57:08Z</time>
      </trkpt>
      <trkpt lat="54.181742761284113" lon="10.991939641535282">
        <ele>0</ele>
        <time>2010-01-03T01:57:13Z</time>
      </trkpt>
      <trkpt lat="54.181813923642039" lon="10.992063442245126">
        <ele>0</ele>
        <time>2010-01-03T01:57:17Z</time>
      </trkpt>
      <trkpt lat="54.181835884228349" lon="10.992112895473838">
        <ele>0</ele>
        <time>2010-01-03T01:57:19Z</time>
      </trkpt>
      <trkpt lat="54.181867903098464" lon="10.992184728384018">
        <ele>0</ele>
        <time>2010-01-03T01:57:21Z</time>
      </trkpt>
      <trkpt lat="54.181913919746876" lon="10.992309199646115">
        <ele>0</ele>
        <time>2010-01-03T01:57:24Z</time>
      </trkpt>
      <trkpt lat="54.182051718235016" lon="10.992674985900521">
        <ele>0</ele>
        <time>2010-01-03T01:57:34Z</time>
      </trkpt>
      <trkpt lat="54.18220728635788" lon="10.993015794083476">
        <ele>0</ele>
        <time>2010-01-03T01:57:44Z</time>
      </trkpt>
      <trkpt lat="54.182266797870398" lon="10.993150742724538">
        <ele>0</ele>
        <time>2010-01-03T01:57:48Z</time>
      </trkpt>
      <trkpt lat="54.182320861145854" lon="10.993273453786969">
        <ele>0</ele>
        <time>2010-01-03T01:57:52Z</time>
      </trkpt>
      <trkpt lat="54.182368386536837" lon="10.993365738540888">
        <ele>0</ele>
        <time>2010-01-03T01:57:55Z</time>
      </trkpt>
      <trkpt lat="54.182424880564213" lon="10.993463974446058">
        <ele>0</ele>
        <time>2010-01-03T01:57:58Z</time>
      </trkpt>
      <trkpt lat="54.18247944675386" lon="10.993546871468425">
        <ele>0</ele>
        <time>2010-01-03T01:58:01Z</time>
      </trkpt>
      <trkpt lat="54.182554967701435" lon="10.993652231991291">
        <ele>0</ele>
        <time>2010-01-03T01:58:05Z</time>
      </trkpt>
      <trkpt lat="54.182643899694085" lon="10.993763459846377">
        <ele>0</ele>
        <time>2010-01-03T01:58:09Z</time>
      </trkpt>
      <trkpt lat="54.182749930769205" lon="10.993869658559561">
        <ele>0</ele>
        <time>2010-01-03T01:58:14Z</time>
      </trkpt>
      <trkpt lat="54.182897536084056" lon="10.994011564180255">
        <ele>0</ele>
        <time>2010-01-03T01:58:21Z</time>
      </trkpt>
      <trkpt lat="54.182957299053669" lon="10.994065208360553">
        <ele>0</ele>
        <time>2010-01-03T01:58:24Z</time>
      </trkpt>
      <trkpt lat="54.183049583807588" lon="10.994144165888429">
        <ele>0</ele>
        <time>2010-01-03T01:58:28Z</time>
      </trkpt>
      <trkpt lat="54.183126445859671" lon="10.994198983535171">
        <ele>0</ele>
        <time>2010-01-03T01:58:31Z</time>
      </trkpt>
      <trkpt lat="54.183165421709418" lon="10.994223793968558">
        <ele>0</ele>
        <time>2010-01-03T01:58:33Z</time>
      </trkpt>
      <trkpt lat="54.183577140793204" lon="10.994029669091105">
        <ele>0</ele>
        <time>2010-01-03T01:58:50Z</time>
      </trkpt>
      <trkpt lat="54.183866735547781" lon="10.993838058784604">
        <ele>0</ele>
        <time>2010-01-03T01:59:02Z</time>
      </trkpt>
      <trkpt lat="54.184156749397516" lon="10.993620716035366">
        <ele>0</ele>
        <time>2010-01-03T01:59:15Z</time>
      </trkpt>
      <trkpt lat="54.184446763247252" lon="10.993403289467096">
        <ele>0</ele>
        <time>2010-01-03T01:59:28Z</time>
      </trkpt>
      <trkpt lat="54.184782793745399" lon="10.993136828765273">
        <ele>0</ele>
        <time>2010-01-03T01:59:43Z</time>
      </trkpt>
      <trkpt lat="54.18507507070899" lon="10.992859052494168">
        <ele>0</ele>
        <time>2010-01-03T01:59:56Z</time>
      </trkpt>
      <trkpt lat="54.185318481177092" lon="10.992648499086499">
        <ele>0</ele>
        <time>2010-01-03T02:00:07Z</time>
      </trkpt>
      <trkpt lat="54.185670940205455" lon="10.992305679246783">
        <ele>0</ele>
        <time>2010-01-03T02:00:23Z</time>
      </trkpt>
      <trkpt lat="54.185918290168047" lon="10.991932014003396">
        <ele>0</ele>
        <time>2010-01-03T02:00:36Z</time>
      </trkpt>
      <trkpt lat="54.186275778338313" lon="10.991280907765031">
        <ele>0</ele>
        <time>2010-01-03T02:00:57Z</time>
      </trkpt>
      <trkpt lat="54.186493875458837" lon="10.990854436531663">
        <ele>0</ele>
        <time>2010-01-03T02:01:10Z</time>
      </trkpt>
      <trkpt lat="54.186779446899891" lon="10.9899942856282">
        <ele>0</ele>
        <time>2010-01-03T02:01:34Z</time>
      </trkpt>
      <trkpt lat="54.186985893175006" lon="10.989361619576812">
        <ele>0</ele>
        <time>2010-01-03T02:01:51Z</time>
      </trkpt>
      <trkpt lat="54.187083877623081" lon="10.988903716206551">
        <ele>0</ele>
        <time>2010-01-03T02:02:02Z</time>
      </trkpt>
      <trkpt lat="54.187181023880839" lon="10.988497110083699">
        <ele>0</ele>
        <time>2010-01-03T02:02:12Z</time>
      </trkpt>
      <trkpt lat="54.187204157933593" lon="10.988009870052338">
        <ele>0</ele>
        <time>2010-01-03T02:02:24Z</time>
      </trkpt>
      <trkpt lat="54.187437342479825" lon="10.987584069371223">
        <ele>0</ele>
        <time>2010-01-03T02:02:37Z</time>
      </trkpt>
      <trkpt lat="54.18764035217464" lon="10.98715684376657">
        <ele>0</ele>
        <time>2010-01-03T02:02:50Z</time>
      </trkpt>
      <trkpt lat="54.187779743224382" lon="10.986932208761573">
        <ele>0</ele>
        <time>2010-01-03T02:02:58Z</time>
      </trkpt>
      <trkpt lat="54.187860544770956" lon="10.986601961776614">
        <ele>0</ele>
        <time>2010-01-03T02:03:06Z</time>
      </trkpt>
      <trkpt lat="54.18812214396894" lon="10.986280348151922">
        <ele>0</ele>
        <time>2010-01-03T02:03:19Z</time>
      </trkpt>
      <trkpt lat="54.188309228047729" lon="10.985903749242425">
        <ele>0</ele>
        <time>2010-01-03T02:03:31Z</time>
      </trkpt>
      <trkpt lat="54.188502682372928" lon="10.985830742865801">
        <ele>0</ele>
        <time>2010-01-03T02:03:39Z</time>
      </trkpt>
      <trkpt lat="54.188496731221676" lon="10.985708199441433">
        <ele>0</ele>
        <time>2010-01-03T02:03:42Z</time>
      </trkpt>
      <trkpt lat="54.188502263277769" lon="10.985567718744278">
        <ele>0</ele>
        <time>2010-01-03T02:03:45Z</time>
      </trkpt>
      <trkpt lat="54.18846420943737" lon="10.985530335456133">
        <ele>0</ele>
        <time>2010-01-03T02:03:47Z</time>
      </trkpt>
      <trkpt lat="54.188286010175943" lon="10.985280470922589">
        <ele>0</ele>
        <time>2010-01-03T02:03:56Z</time>
      </trkpt>
      <trkpt lat="54.188008569180965" lon="10.984872104600072">
        <ele>0</ele>
        <time>2010-01-03T02:04:11Z</time>
      </trkpt>
      <trkpt lat="54.187800278887153" lon="10.984566165134311">
        <ele>0</ele>
        <time>2010-01-03T02:04:22Z</time>
      </trkpt>
      <trkpt lat="54.187722159549594" lon="10.984467007219791">
        <ele>0</ele>
        <time>2010-01-03T02:04:26Z</time>
      </trkpt>
      <trkpt lat="54.187673795968294" lon="10.984379332512617">
        <ele>0</ele>
        <time>2010-01-03T02:04:28Z</time>
      </trkpt>
      <trkpt lat="54.187666419893503" lon="10.984359551221132">
        <ele>0</ele>
        <time>2010-01-03T02:04:29Z</time>
      </trkpt>
      <trkpt lat="54.187642531469464" lon="10.98429886624217">
        <ele>0</ele>
        <time>2010-01-03T02:04:31Z</time>
      </trkpt>
      <trkpt lat="54.187631215900183" lon="10.984230218455195">
        <ele>0</ele>
        <time>2010-01-03T02:04:32Z</time>
      </trkpt>
      <trkpt lat="54.187628366053104" lon="10.984211945906281">
        <ele>0</ele>
        <time>2010-01-03T02:04:33Z</time>
      </trkpt>
      <trkpt lat="54.187624091282487" lon="10.984135419130325">
        <ele>0</ele>
        <time>2010-01-03T02:04:35Z</time>
      </trkpt>
      <trkpt lat="54.187619145959616" lon="10.983652956783772">
        <ele>0</ele>
        <time>2010-01-03T02:04:46Z</time>
      </trkpt>
      <trkpt lat="54.187618056312203" lon="10.983202680945396">
        <ele>0</ele>
        <time>2010-01-03T02:04:56Z</time>
      </trkpt>
      <trkpt lat="54.18762082234025" lon="10.983106037601829">
        <ele>0</ele>
        <time>2010-01-03T02:04:59Z</time>
      </trkpt>
      <trkpt lat="54.187635239213705" lon="10.983010735362768">
        <ele>0</ele>
        <time>2010-01-03T02:05:01Z</time>
      </trkpt>
      <trkpt lat="54.187660049647093" lon="10.98285692743957">
        <ele>0</ele>
        <time>2010-01-03T02:05:05Z</time>
      </trkpt>
      <trkpt lat="54.187757363542914" lon="10.982359712943435">
        <ele>0</ele>
        <time>2010-01-03T02:05:17Z</time>
      </trkpt>
      <trkpt lat="54.187788879498839" lon="10.982150584459305">
        <ele>0</ele>
        <time>2010-01-03T02:05:22Z</time>
      </trkpt>
      <trkpt lat="54.187796423211694" lon="10.982086043804884">
        <ele>0</ele>
        <time>2010-01-03T02:05:24Z</time>
      </trkpt>
      <trkpt lat="54.187804888933897" lon="10.982027621939778">
        <ele>0</ele>
        <time>2010-01-03T02:05:25Z</time>
      </trkpt>
      <trkpt lat="54.187902454286814" lon="10.982095766812563">
        <ele>0</ele>
        <time>2010-01-03T02:05:29Z</time>
      </trkpt>
      <trkpt lat="54.18800194747746" lon="10.982166845351458">
        <ele>0</ele>
        <time>2010-01-03T02:05:33Z</time>
      </trkpt>
      <trkpt lat="54.188092388212681" lon="10.982239684090018">
        <ele>0</ele>
        <time>2010-01-03T02:05:37Z</time>
      </trkpt>
      <trkpt lat="54.188159527257085" lon="10.982317719608545">
        <ele>0</ele>
        <time>2010-01-03T02:05:41Z</time>
      </trkpt>
      <trkpt lat="54.188465634360909" lon="10.982605805620551">
        <ele>0</ele>
        <time>2010-01-03T02:05:55Z</time>
      </trkpt>
      <trkpt lat="54.188854051753879" lon="10.982956336811185">
        <ele>0</ele>
        <time>2010-01-03T02:06:12Z</time>
      </trkpt>
      <trkpt lat="54.189174575731158" lon="10.983254816383123">
        <ele>0</ele>
        <time>2010-01-03T02:06:27Z</time>
      </trkpt>
      <trkpt lat="54.189514797180891" lon="10.983542148023844">
        <ele>0</ele>
        <time>2010-01-03T02:06:42Z</time>
      </trkpt>
      <trkpt lat="54.18956458568573" lon="10.983583889901638">
        <ele>0</ele>
        <time>2010-01-03T02:06:44Z</time>
      </trkpt>
      <trkpt lat="54.189792405813932" lon="10.983782038092613">
        <ele>0</ele>
        <time>2010-01-03T02:06:55Z</time>
      </trkpt>
      <trkpt lat="54.189818054437637" lon="10.983804417774081">
        <ele>0</ele>
        <time>2010-01-03T02:06:56Z</time>
      </trkpt>
      <trkpt lat="54.190030535683036" lon="10.983972307294607">
        <ele>0</ele>
        <time>2010-01-03T02:07:05Z</time>
      </trkpt>
      <trkpt lat="54.190199011936784" lon="10.984108932316303">
        <ele>0</ele>
        <time>2010-01-03T02:07:13Z</time>
      </trkpt>
      <trkpt lat="54.190237736329436" lon="10.984140364453197">
        <ele>0</ele>
        <time>2010-01-03T02:07:14Z</time>
      </trkpt>
      <trkpt lat="54.19042507186532" lon="10.984301213175058">
        <ele>0</ele>
        <time>2010-01-03T02:07:23Z</time>
      </trkpt>
      <trkpt lat="54.190461281687021" lon="10.984332477673888">
        <ele>0</ele>
        <time>2010-01-03T02:07:24Z</time>
      </trkpt>
      <trkpt lat="54.190616011619568" lon="10.984465079382062">
        <ele>0</ele>
        <time>2010-01-03T02:07:31Z</time>
      </trkpt>
      <trkpt lat="54.190788930281997" lon="10.98462475463748">
        <ele>0</ele>
        <time>2010-01-03T02:07:39Z</time>
      </trkpt>
      <trkpt lat="54.190856739878654" lon="10.984690804034472">
        <ele>0</ele>
        <time>2010-01-03T02:07:42Z</time>
      </trkpt>
      <trkpt lat="54.190913066267967" lon="10.984745789319277">
        <ele>0</ele>
        <time>2010-01-03T02:07:45Z</time>
      </trkpt>
      <trkpt lat="54.190968135371804" lon="10.984803875908256">
        <ele>0</ele>
        <time>2010-01-03T02:07:47Z</time>
      </trkpt>
      <trkpt lat="54.190988335758448" lon="10.984825165942311">
        <ele>0</ele>
        <time>2010-01-03T02:07:48Z</time>
      </trkpt>
      <trkpt lat="54.191017337143421" lon="10.984855089336634">
        <ele>0</ele>
        <time>2010-01-03T02:07:50Z</time>
      </trkpt>
      <trkpt lat="54.191158656030893" lon="10.984998671337962">
        <ele>0</ele>
        <time>2010-01-03T02:07:56Z</time>
      </trkpt>
      <trkpt lat="54.191274829208851" lon="10.985135296359658">
        <ele>0</ele>
        <time>2010-01-03T02:08:02Z</time>
      </trkpt>
      <trkpt lat="54.191410867497325" lon="10.985286673530936">
        <ele>0</ele>
        <time>2010-01-03T02:08:08Z</time>
      </trkpt>
      <trkpt lat="54.191524274647236" lon="10.985414078459144">
        <ele>0</ele>
        <time>2010-01-03T02:08:14Z</time>
      </trkpt>
      <trkpt lat="54.191563334316015" lon="10.985465291887522">
        <ele>0</ele>
        <time>2010-01-03T02:08:16Z</time>
      </trkpt>
      <trkpt lat="54.191714460030198" lon="10.985270077362657">
        <ele>0</ele>
        <time>2010-01-03T02:08:23Z</time>
      </trkpt>
      <trkpt lat="54.191794423386455" lon="10.985168488696218">
        <ele>0</ele>
        <time>2010-01-03T02:08:27Z</time>
      </trkpt>
      <trkpt lat="54.19182887300849" lon="10.985127501189709">
        <ele>0</ele>
        <time>2010-01-03T02:08:29Z</time>
      </trkpt>
      <trkpt lat="54.191874470561743" lon="10.985073102638125">
        <ele>0</ele>
        <time>2010-01-03T02:08:31Z</time>
      </trkpt>
      <trkpt lat="54.191974299028516" lon="10.984978722408414">
        <ele>0</ele>
        <time>2010-01-03T02:08:36Z</time>
      </trkpt>
      <trkpt lat="54.192103799432516" lon="10.984889790415764">
        <ele>0</ele>
        <time>2010-01-03T02:08:41Z</time>
      </trkpt>
      <trkpt lat="54.192117294296622" lon="10.984883420169353">
        <ele>0</ele>
        <time>2010-01-03T02:08:42Z</time>
      </trkpt>
      <trkpt lat="54.192251488566399" lon="10.98482022061944">
        <ele>0</ele>
        <time>2010-01-03T02:08:48Z</time>
      </trkpt>
      <trkpt lat="54.192398255690932" lon="10.984753835946321">
        <ele>0</ele>
        <time>2010-01-03T02:08:54Z</time>
      </trkpt>
      <trkpt lat="54.192506466060877" lon="10.984692983329296">
        <ele>0</ele>
        <time>2010-01-03T02:08:58Z</time>
      </trkpt>
      <trkpt lat="54.192590452730656" lon="10.984632717445493">
        <ele>0</ele>
        <time>2010-01-03T02:09:02Z</time>
      </trkpt>
      <trkpt lat="54.192675109952688" lon="10.984550910070539">
        <ele>0</ele>
        <time>2010-01-03T02:09:06Z</time>
      </trkpt>
      <trkpt lat="54.192703608423471" lon="10.98452115431428">
        <ele>0</ele>
        <time>2010-01-03T02:09:07Z</time>
      </trkpt>
      <trkpt lat="54.192759683355689" lon="10.98446155898273">
        <ele>0</ele>
        <time>2010-01-03T02:09:10Z</time>
      </trkpt>
      <trkpt lat="54.192848782986403" lon="10.984375141561031">
        <ele>0</ele>
        <time>2010-01-03T02:09:14Z</time>
      </trkpt>
      <trkpt lat="54.192865714430809" lon="10.984353264793754">
        <ele>0</ele>
        <time>2010-01-03T02:09:15Z</time>
      </trkpt>
      <trkpt lat="54.192927908152342" lon="10.984275145456195">
        <ele>0</ele>
        <time>2010-01-03T02:09:18Z</time>
      </trkpt>
      <trkpt lat="54.193020276725292" lon="10.984147237613797">
        <ele>0</ele>
        <time>2010-01-03T02:09:23Z</time>
      </trkpt>
      <trkpt lat="54.193080458790064" lon="10.98403693176806">
        <ele>0</ele>
        <time>2010-01-03T02:09:26Z</time>
      </trkpt>
      <trkpt lat="54.193136198446155" lon="10.983936013653874">
        <ele>0</ele>
        <time>2010-01-03T02:09:29Z</time>
      </trkpt>
      <trkpt lat="54.193204008042812" lon="10.983773488551378">
        <ele>0</ele>
        <time>2010-01-03T02:09:34Z</time>
      </trkpt>
      <trkpt lat="54.19324348680675" lon="10.98366217687726">
        <ele>0</ele>
        <time>2010-01-03T02:09:37Z</time>
      </trkpt>
      <trkpt lat="54.193326719105244" lon="10.983408875763416">
        <ele>0</ele>
        <time>2010-01-03T02:09:44Z</time>
      </trkpt>
      <trkpt lat="54.193386314436793" lon="10.98323117941618">
        <ele>0</ele>
        <time>2010-01-03T02:09:49Z</time>
      </trkpt>
      <trkpt lat="54.193416992202401" lon="10.983138559386134">
        <ele>0</ele>
        <time>2010-01-03T02:09:51Z</time>
      </trkpt>
      <trkpt lat="54.19346870854497" lon="10.982988607138395">
        <ele>0</ele>
        <time>2010-01-03T02:09:55Z</time>
      </trkpt>
      <trkpt lat="54.19351170770824" lon="10.982865057885647">
        <ele>0</ele>
        <time>2010-01-03T02:09:59Z</time>
      </trkpt>
      <trkpt lat="54.193554790690541" lon="10.982749052345753">
        <ele>0</ele>
        <time>2010-01-03T02:10:02Z</time>
      </trkpt>
      <trkpt lat="54.193597873672843" lon="10.982640758156776">
        <ele>0</ele>
        <time>2010-01-03T02:10:05Z</time>
      </trkpt>
      <trkpt lat="54.193649841472507" lon="10.982519974932075">
        <ele>0</ele>
        <time>2010-01-03T02:10:08Z</time>
      </trkpt>
      <trkpt lat="54.193744556978345" lon="10.982349067926407">
        <ele>0</ele>
        <time>2010-01-03T02:10:14Z</time>
      </trkpt>
      <trkpt lat="54.193823346868157" lon="10.982207749038935">
        <ele>0</ele>
        <time>2010-01-03T02:10:18Z</time>
      </trkpt>
      <trkpt lat="54.194022500887513" lon="10.98185813985765">
        <ele>0</ele>
        <time>2010-01-03T02:10:30Z</time>
      </trkpt>
      <trkpt lat="54.194337744265795" lon="10.981312561780214">
        <ele>0</ele>
        <time>2010-01-03T02:10:48Z</time>
      </trkpt>
      <trkpt lat="54.194629015401006" lon="10.98079975694418">
        <ele>0</ele>
        <time>2010-01-03T02:11:05Z</time>
      </trkpt>
      <trkpt lat="54.194960938766599" lon="10.98021243698895">
        <ele>0</ele>
        <time>2010-01-03T02:11:24Z</time>
      </trkpt>
      <trkpt lat="54.1952043492347" lon="10.97978051751852">
        <ele>0</ele>
        <time>2010-01-03T02:11:38Z</time>
      </trkpt>
      <trkpt lat="54.195635514333844" lon="10.979026732966304">
        <ele>0</ele>
        <time>2010-01-03T02:12:02Z</time>
      </trkpt>
      <trkpt lat="54.195929551497102" lon="10.978520046919584">
        <ele>0</ele>
        <time>2010-01-03T02:12:19Z</time>
      </trkpt>
      <trkpt lat="54.196213698014617" lon="10.978024257346988">
        <ele>0</ele>
        <time>2010-01-03T02:12:35Z</time>
      </trkpt>
      <trkpt lat="54.19645375572145" lon="10.977618405595422">
        <ele>0</ele>
        <time>2010-01-03T02:12:49Z</time>
      </trkpt>
      <trkpt lat="54.196623740717769" lon="10.977322440594435">
        <ele>0</ele>
        <time>2010-01-03T02:12:59Z</time>
      </trkpt>
      <trkpt lat="54.196674199774861" lon="10.977234514430165">
        <ele>0</ele>
        <time>2010-01-03T02:13:02Z</time>
      </trkpt>
      <trkpt lat="54.196842424571514" lon="10.976937711238861">
        <ele>0</ele>
        <time>2010-01-03T02:13:11Z</time>
      </trkpt>
      <trkpt lat="54.196979720145464" lon="10.976702934131026">
        <ele>0</ele>
        <time>2010-01-03T02:13:19Z</time>
      </trkpt>
      <trkpt lat="54.197073429822922" lon="10.976532027125359">
        <ele>0</ele>
        <time>2010-01-03T02:13:24Z</time>
      </trkpt>
      <trkpt lat="54.197688745334744" lon="10.977577166631818">
        <ele>0</ele>
        <time>2010-01-03T02:13:59Z</time>
      </trkpt>
      <trkpt lat="54.198047155514359" lon="10.978196589276195">
        <ele>0</ele>
        <time>2010-01-03T02:14:20Z</time>
      </trkpt>
      <trkpt lat="54.199610212817788" lon="10.980825908482075">
        <ele>0</ele>
        <time>2010-01-03T02:15:47Z</time>
      </trkpt>
      <trkpt lat="54.199866279959679" lon="10.981256319209933">
        <ele>0</ele>
        <time>2010-01-03T02:16:02Z</time>
      </trkpt>
      <trkpt lat="54.19990642927587" lon="10.981321278959513">
        <ele>0</ele>
        <time>2010-01-03T02:16:04Z</time>
      </trkpt>
      <trkpt lat="54.199949847534299" lon="10.981355477124453">
        <ele>0</ele>
        <time>2010-01-03T02:16:06Z</time>
      </trkpt>
      <trkpt lat="54.199991170316935" lon="10.981358997523785">
        <ele>0</ele>
        <time>2010-01-03T02:16:08Z</time>
      </trkpt>
      <trkpt lat="54.200033331289887" lon="10.981345754116774">
        <ele>0</ele>
        <time>2010-01-03T02:16:09Z</time>
      </trkpt>
      <trkpt lat="54.200062248855829" lon="10.98132262006402">
        <ele>0</ele>
        <time>2010-01-03T02:16:11Z</time>
      </trkpt>
      <trkpt lat="54.200080605223775" lon="10.981307784095407">
        <ele>0</ele>
        <time>2010-01-03T02:16:11Z</time>
      </trkpt>
      <trkpt lat="54.200237430632114" lon="10.981052638962865">
        <ele>0</ele>
        <time>2010-01-03T02:16:20Z</time>
      </trkpt>
      <trkpt lat="54.200617633759975" lon="10.980434892699122">
        <ele>0</ele>
        <time>2010-01-03T02:16:41Z</time>
      </trkpt>
      <trkpt lat="54.200999848544598" lon="10.979842711240053">
        <ele>0</ele>
        <time>2010-01-03T02:17:02Z</time>
      </trkpt>
      <trkpt lat="54.201073776930571" lon="10.979764256626368">
        <ele>0</ele>
        <time>2010-01-03T02:17:05Z</time>
      </trkpt>
      <trkpt lat="54.201140580698848" lon="10.979734752327204">
        <ele>0</ele>
        <time>2010-01-03T02:17:08Z</time>
      </trkpt>
      <trkpt lat="54.201192045584321" lon="10.979744475334883">
        <ele>0</ele>
        <time>2010-01-03T02:17:10Z</time>
      </trkpt>
      <trkpt lat="54.201593957841396" lon="10.979912364855409">
        <ele>0</ele>
        <time>2010-01-03T02:17:27Z</time>
      </trkpt>
      <trkpt lat="54.203357761725783" lon="10.980643602088094">
        <ele>0</ele>
        <time>2010-01-03T02:18:39Z</time>
      </trkpt>
      <trkpt lat="54.204184217378497" lon="10.980968233197927">
        <ele>0</ele>
        <time>2010-01-03T02:19:13Z</time>
      </trkpt>
      <trkpt lat="54.204409858211875" lon="10.981042413040996">
        <ele>0</ele>
        <time>2010-01-03T02:19:22Z</time>
      </trkpt>
      <trkpt lat="54.204570539295673" lon="10.981090608984232">
        <ele>0</ele>
        <time>2010-01-03T02:19:29Z</time>
      </trkpt>
      <trkpt lat="54.204702889546752" lon="10.981117514893413">
        <ele>0</ele>
        <time>2010-01-03T02:19:34Z</time>
      </trkpt>
      <trkpt lat="54.204826354980469" lon="10.981126567348838">
        <ele>0</ele>
        <time>2010-01-03T02:19:39Z</time>
      </trkpt>
      <trkpt lat="54.204924171790481" lon="10.981115167960525">
        <ele>0</ele>
        <time>2010-01-03T02:19:43Z</time>
      </trkpt>
      <trkpt lat="54.204996675252914" lon="10.981090357527137">
        <ele>0</ele>
        <time>2010-01-03T02:19:46Z</time>
      </trkpt>
      <trkpt lat="54.205665551126003" lon="10.980801098048687">
        <ele>0</ele>
        <time>2010-01-03T02:20:14Z</time>
      </trkpt>
      <trkpt lat="54.206009125337005" lon="10.980636309832335">
        <ele>0</ele>
        <time>2010-01-03T02:20:28Z</time>
      </trkpt>
      <trkpt lat="54.206062015146017" lon="10.980619713664055">
        <ele>0</ele>
        <time>2010-01-03T02:20:30Z</time>
      </trkpt>
      <trkpt lat="54.206140972673893" lon="10.980607056990266">
        <ele>0</ele>
        <time>2010-01-03T02:20:33Z</time>
      </trkpt>
      <trkpt lat="54.206520253792405" lon="10.980620719492435">
        <ele>0</ele>
        <time>2010-01-03T02:20:48Z</time>
      </trkpt>
      <trkpt lat="54.206587644293904" lon="10.980619043111801">
        <ele>0</ele>
        <time>2010-01-03T02:20:51Z</time>
      </trkpt>
      <trkpt lat="54.206784199923277" lon="10.980601944029331">
        <ele>0</ele>
        <time>2010-01-03T02:20:59Z</time>
      </trkpt>
      <trkpt lat="54.206833653151989" lon="10.980599178001285">
        <ele>0</ele>
        <time>2010-01-03T02:21:01Z</time>
      </trkpt>
      <trkpt lat="54.206884782761335" lon="10.980597920715809">
        <ele>0</ele>
        <time>2010-01-03T02:21:03Z</time>
      </trkpt>
      <trkpt lat="54.206941528245807" lon="10.980605715885758">
        <ele>0</ele>
        <time>2010-01-03T02:21:05Z</time>
      </trkpt>
      <trkpt lat="54.207065748050809" lon="10.980634884908795">
        <ele>0</ele>
        <time>2010-01-03T02:21:10Z</time>
      </trkpt>
      <trkpt lat="54.207803271710873" lon="10.980736222118139">
        <ele>0</ele>
        <time>2010-01-03T02:21:40Z</time>
      </trkpt>
      <trkpt lat="54.207875188440084" lon="10.980732953175902">
        <ele>0</ele>
        <time>2010-01-03T02:21:43Z</time>
      </trkpt>
      <trkpt lat="54.207965796813369" lon="10.980724571272731">
        <ele>0</ele>
        <time>2010-01-03T02:21:46Z</time>
      </trkpt>
      <trkpt lat="54.208023212850094" lon="10.980714010074735">
        <ele>0</ele>
        <time>2010-01-03T02:21:49Z</time>
      </trkpt>
      <trkpt lat="54.208078701049089" lon="10.980691127479076">
        <ele>0</ele>
        <time>2010-01-03T02:21:51Z</time>
      </trkpt>
      <trkpt lat="54.2081334348768" lon="10.980672938749194">
        <ele>0</ele>
        <time>2010-01-03T02:21:53Z</time>
      </trkpt>
      <trkpt lat="54.208187079057097" lon="10.980648631229997">
        <ele>0</ele>
        <time>2010-01-03T02:21:56Z</time>
      </trkpt>
      <trkpt lat="54.208218175917864" lon="10.98062826320529">
        <ele>0</ele>
        <time>2010-01-03T02:21:57Z</time>
      </trkpt>
      <trkpt lat="54.208230916410685" lon="10.98061996512115">
        <ele>0</ele>
        <time>2010-01-03T02:21:57Z</time>
      </trkpt>
      <trkpt lat="54.208287997171283" lon="10.980575624853373">
        <ele>0</ele>
        <time>2010-01-03T02:22:00Z</time>
      </trkpt>
      <trkpt lat="54.208352286368608" lon="10.980523489415646">
        <ele>0</ele>
        <time>2010-01-03T02:22:03Z</time>
      </trkpt>
      <trkpt lat="54.208422694355249" lon="10.98046506755054">
        <ele>0</ele>
        <time>2010-01-03T02:22:06Z</time>
      </trkpt>
      <trkpt lat="54.208515482023358" lon="10.980383092537522">
        <ele>0</ele>
        <time>2010-01-03T02:22:10Z</time>
      </trkpt>
      <trkpt lat="54.208578178659081" lon="10.980327688157558">
        <ele>0</ele>
        <time>2010-01-03T02:22:13Z</time>
      </trkpt>
      <trkpt lat="54.208583291620016" lon="10.980323161929846">
        <ele>0</ele>
        <time>2010-01-03T02:22:13Z</time>
      </trkpt>
      <trkpt lat="54.208619836717844" lon="10.980291645973921">
        <ele>0</ele>
        <time>2010-01-03T02:22:15Z</time>
      </trkpt>
      <trkpt lat="54.20896902680397" lon="10.979942791163921">
        <ele>0</ele>
        <time>2010-01-03T02:22:31Z</time>
      </trkpt>
      <trkpt lat="54.209043122828007" lon="10.979884201660752">
        <ele>0</ele>
        <time>2010-01-03T02:22:34Z</time>
      </trkpt>
      <trkpt lat="54.209102969616652" lon="10.979841370135546">
        <ele>0</ele>
        <time>2010-01-03T02:22:37Z</time>
      </trkpt>
      <trkpt lat="54.209170108661056" lon="10.979807507246733">
        <ele>0</ele>
        <time>2010-01-03T02:22:40Z</time>
      </trkpt>
      <trkpt lat="54.209240851923823" lon="10.979784289374948">
        <ele>0</ele>
        <time>2010-01-03T02:22:43Z</time>
      </trkpt>
      <trkpt lat="54.209315283223987" lon="10.97977171652019">
        <ele>0</ele>
        <time>2010-01-03T02:22:45Z</time>
      </trkpt>
      <trkpt lat="54.209527093917131" lon="10.979737434536219">
        <ele>0</ele>
        <time>2010-01-03T02:22:54Z</time>
      </trkpt>
      <trkpt lat="54.209649050608277" lon="10.979711450636387">
        <ele>0</ele>
        <time>2010-01-03T02:22:59Z</time>
      </trkpt>
      <trkpt lat="54.20975474640727" lon="10.979679683223367">
        <ele>0</ele>
        <time>2010-01-03T02:23:03Z</time>
      </trkpt>
      <trkpt lat="54.210087088868022" lon="10.979556553065777">
        <ele>0</ele>
        <time>2010-01-03T02:23:17Z</time>
      </trkpt>
      <trkpt lat="54.210244668647647" lon="10.979497460648417">
        <ele>0</ele>
        <time>2010-01-03T02:23:23Z</time>
      </trkpt>
      <trkpt lat="54.210309125483036" lon="10.979471392929554">
        <ele>0</ele>
        <time>2010-01-03T02:23:26Z</time>
      </trkpt>
      <trkpt lat="54.210383389145136" lon="10.979435853660107">
        <ele>0</ele>
        <time>2010-01-03T02:23:29Z</time>
      </trkpt>
      <trkpt lat="54.211339429020882" lon="10.978907961398363">
        <ele>0</ele>
        <time>2010-01-03T02:24:09Z</time>
      </trkpt>
      <trkpt lat="54.211450405418873" lon="10.978859262540936">
        <ele>0</ele>
        <time>2010-01-03T02:24:14Z</time>
      </trkpt>
      <trkpt lat="54.211569428443909" lon="10.978810312226415">
        <ele>0</ele>
        <time>2010-01-03T02:24:19Z</time>
      </trkpt>
      <trkpt lat="54.211890874430537" lon="10.978681314736605">
        <ele>0</ele>
        <time>2010-01-03T02:24:32Z</time>
      </trkpt>
      <trkpt lat="54.211976118385792" lon="10.978665389120579">
        <ele>0</ele>
        <time>2010-01-03T02:24:35Z</time>
      </trkpt>
      <trkpt lat="54.212084580212831" lon="10.97863513045013">
        <ele>0</ele>
        <time>2010-01-03T02:24:40Z</time>
      </trkpt>
      <trkpt lat="54.2123366240412" lon="10.9785814024508">
        <ele>0</ele>
        <time>2010-01-03T02:24:50Z</time>
      </trkpt>
      <trkpt lat="54.212807351723313" lon="10.978474784642458">
        <ele>0</ele>
        <time>2010-01-03T02:25:09Z</time>
      </trkpt>
      <trkpt lat="54.212869210168719" lon="10.978453326970339">
        <ele>0</ele>
        <time>2010-01-03T02:25:11Z</time>
      </trkpt>
      <trkpt lat="54.212949844077229" lon="10.978425247594714">
        <ele>0</ele>
        <time>2010-01-03T02:25:15Z</time>
      </trkpt>
      <trkpt lat="54.21302855014801" lon="10.978388115763664">
        <ele>0</ele>
        <time>2010-01-03T02:25:18Z</time>
      </trkpt>
      <trkpt lat="54.213090240955353" lon="10.978355929255486">
        <ele>0</ele>
        <time>2010-01-03T02:25:21Z</time>
      </trkpt>
      <trkpt lat="54.213192164897919" lon="10.978292059153318">
        <ele>0</ele>
        <time>2010-01-03T02:25:25Z</time>
      </trkpt>
      <trkpt lat="54.213330885395408" lon="10.978230368345976">
        <ele>0</ele>
        <time>2010-01-03T02:25:31Z</time>
      </trkpt>
      <trkpt lat="54.213859448209405" lon="10.977840274572372">
        <ele>0</ele>
        <time>2010-01-03T02:25:54Z</time>
      </trkpt>
      <trkpt lat="54.213936477899551" lon="10.977810770273209">
        <ele>0</ele>
        <time>2010-01-03T02:25:57Z</time>
      </trkpt>
      <trkpt lat="54.214029600843787" lon="10.977774728089571">
        <ele>0</ele>
        <time>2010-01-03T02:26:01Z</time>
      </trkpt>
      <trkpt lat="54.21410939656198" lon="10.977751342579722">
        <ele>0</ele>
        <time>2010-01-03T02:26:04Z</time>
      </trkpt>
      <trkpt lat="54.214208051562309" lon="10.977728962898254">
        <ele>0</ele>
        <time>2010-01-03T02:26:08Z</time>
      </trkpt>
      <trkpt lat="54.21498547308147" lon="10.977548835799098">
        <ele>0</ele>
        <time>2010-01-03T02:26:39Z</time>
      </trkpt>
      <trkpt lat="54.215041045099497" lon="10.977535173296928">
        <ele>0</ele>
        <time>2010-01-03T02:26:42Z</time>
      </trkpt>
      <trkpt lat="54.215111117810011" lon="10.977538023144007">
        <ele>0</ele>
        <time>2010-01-03T02:26:44Z</time>
      </trkpt>
      <trkpt lat="54.215182112529874" lon="10.977540872991085">
        <ele>0</ele>
        <time>2010-01-03T02:26:47Z</time>
      </trkpt>
      <trkpt lat="54.216011082753539" lon="10.977613963186741">
        <ele>0</ele>
        <time>2010-01-03T02:27:20Z</time>
      </trkpt>
      <trkpt lat="54.216215182095766" lon="10.977625781670213">
        <ele>0</ele>
        <time>2010-01-03T02:27:29Z</time>
      </trkpt>
      <trkpt lat="54.216454066336155" lon="10.977612202987075">
        <ele>0</ele>
        <time>2010-01-03T02:27:38Z</time>
      </trkpt>
      <trkpt lat="54.216707451269031" lon="10.977618237957358">
        <ele>0</ele>
        <time>2010-01-03T02:27:48Z</time>
      </trkpt>
      <trkpt lat="54.216834101825953" lon="10.977608934044838">
        <ele>0</ele>
        <time>2010-01-03T02:27:53Z</time>
      </trkpt>
      <trkpt lat="54.216953124850988" lon="10.977561576291919">
        <ele>0</ele>
        <time>2010-01-03T02:27:58Z</time>
      </trkpt>
      <trkpt lat="54.217100646346807" lon="10.977470548823476">
        <ele>0</ele>
        <time>2010-01-03T02:28:05Z</time>
      </trkpt>
      <trkpt lat="54.217214975506067" lon="10.977392597123981">
        <ele>0</ele>
        <time>2010-01-03T02:28:10Z</time>
      </trkpt>
      <trkpt lat="54.217361407354474" lon="10.977289332076907">
        <ele>0</ele>
        <time>2010-01-03T02:28:16Z</time>
      </trkpt>
      <trkpt lat="54.21762116253376" lon="10.977086657658219">
        <ele>0</ele>
        <time>2010-01-03T02:28:27Z</time>
      </trkpt>
      <trkpt lat="54.217856610193849" lon="10.976883061230183">
        <ele>0</ele>
        <time>2010-01-03T02:28:38Z</time>
      </trkpt>
      <trkpt lat="54.218099601566792" lon="10.976680554449558">
        <ele>0</ele>
        <time>2010-01-03T02:28:49Z</time>
      </trkpt>
      <trkpt lat="54.218207225203514" lon="10.976590784266591">
        <ele>0</ele>
        <time>2010-01-03T02:28:53Z</time>
      </trkpt>
      <trkpt lat="54.218370756134391" lon="10.976482490077615">
        <ele>0</ele>
        <time>2010-01-03T02:29:01Z</time>
      </trkpt>
      <trkpt lat="54.218545854091644" lon="10.976367825642228">
        <ele>0</ele>
        <time>2010-01-03T02:29:08Z</time>
      </trkpt>
      <trkpt lat="54.218827905133367" lon="10.97615391947329">
        <ele>0</ele>
        <time>2010-01-03T02:29:20Z</time>
      </trkpt>
      <trkpt lat="54.219071483239532" lon="10.975947054103017">
        <ele>0</ele>
        <time>2010-01-03T02:29:31Z</time>
      </trkpt>
      <trkpt lat="54.219252364709973" lon="10.975776985287666">
        <ele>0</ele>
        <time>2010-01-03T02:29:40Z</time>
      </trkpt>
      <trkpt lat="54.21939879655838" lon="10.975667601451278">
        <ele>0</ele>
        <time>2010-01-03T02:29:46Z</time>
      </trkpt>
      <trkpt lat="54.219532320275903" lon="10.975624434649944">
        <ele>0</ele>
        <time>2010-01-03T02:29:51Z</time>
      </trkpt>
      <trkpt lat="54.219576325267553" lon="10.975623345002532">
        <ele>0</ele>
        <time>2010-01-03T02:29:53Z</time>
      </trkpt>
      <trkpt lat="54.219654444605112" lon="10.975621417164803">
        <ele>0</ele>
        <time>2010-01-03T02:29:56Z</time>
      </trkpt>
      <trkpt lat="54.219744550064206" lon="10.97564522176981">
        <ele>0</ele>
        <time>2010-01-03T02:30:00Z</time>
      </trkpt>
      <trkpt lat="54.219839349389076" lon="10.975707247853279">
        <ele>0</ele>
        <time>2010-01-03T02:30:04Z</time>
      </trkpt>
      <trkpt lat="54.219936830922961" lon="10.975758545100689">
        <ele>0</ele>
        <time>2010-01-03T02:30:08Z</time>
      </trkpt>
      <trkpt lat="54.220071695744991" lon="10.975767429918051">
        <ele>0</ele>
        <time>2010-01-03T02:30:13Z</time>
      </trkpt>
      <trkpt lat="54.220193736255169" lon="10.975749073550105">
        <ele>0</ele>
        <time>2010-01-03T02:30:18Z</time>
      </trkpt>
      <trkpt lat="54.220515517517924" lon="10.975655280053616">
        <ele>0</ele>
        <time>2010-01-03T02:30:31Z</time>
      </trkpt>
      <trkpt lat="54.220457514747977" lon="10.975491162389517">
        <ele>0</ele>
        <time>2010-01-03T02:30:36Z</time>
      </trkpt>
      <trkpt lat="54.220390375703573" lon="10.975210703909397">
        <ele>0</ele>
        <time>2010-01-03T02:30:43Z</time>
      </trkpt>
      <trkpt lat="54.220331618562341" lon="10.974842654541135">
        <ele>0</ele>
        <time>2010-01-03T02:30:52Z</time>
      </trkpt>
      <trkpt lat="54.220178984105587" lon="10.973488055169582">
        <ele>0</ele>
        <time>2010-01-03T02:31:24Z</time>
      </trkpt>
      <trkpt lat="54.220161465927958" lon="10.973329050466418">
        <ele>0</ele>
        <time>2010-01-03T02:31:28Z</time>
      </trkpt>
      <trkpt lat="54.220167919993401" lon="10.973243052139878">
        <ele>0</ele>
        <time>2010-01-03T02:31:30Z</time>
      </trkpt>
      <trkpt lat="54.220171691849828" lon="10.973205836489797">
        <ele>0</ele>
        <time>2010-01-03T02:31:31Z</time>
      </trkpt>
      <trkpt lat="54.220179487019777" lon="10.973126292228699">
        <ele>0</ele>
        <time>2010-01-03T02:31:33Z</time>
      </trkpt>
      <trkpt lat="54.220208488404751" lon="10.972938537597656">
        <ele>0</ele>
        <time>2010-01-03T02:31:37Z</time>
      </trkpt>
      <trkpt lat="54.220256516709924" lon="10.972670568153262">
        <ele>0</ele>
        <time>2010-01-03T02:31:44Z</time>
      </trkpt>
      <trkpt lat="54.220296917483211" lon="10.972462529316545">
        <ele>0</ele>
        <time>2010-01-03T02:31:49Z</time>
      </trkpt>
      <trkpt lat="54.220317117869854" lon="10.97229958511889">
        <ele>0</ele>
        <time>2010-01-03T02:31:53Z</time>
      </trkpt>
      <trkpt lat="54.220321895554662" lon="10.972118536010385">
        <ele>0</ele>
        <time>2010-01-03T02:31:57Z</time>
      </trkpt>
      <trkpt lat="54.220310663804412" lon="10.971856601536274">
        <ele>0</ele>
        <time>2010-01-03T02:32:03Z</time>
      </trkpt>
      <trkpt lat="54.220303958281875" lon="10.971600785851479">
        <ele>0</ele>
        <time>2010-01-03T02:32:09Z</time>
      </trkpt>
      <trkpt lat="54.220284931361675" lon="10.971268527209759">
        <ele>0</ele>
        <time>2010-01-03T02:32:17Z</time>
      </trkpt>
      <trkpt lat="54.220262719318271" lon="10.970979351550341">
        <ele>0</ele>
        <time>2010-01-03T02:32:24Z</time>
      </trkpt>
      <trkpt lat="54.220242435112596" lon="10.970703838393092">
        <ele>0</ele>
        <time>2010-01-03T02:32:30Z</time>
      </trkpt>
      <trkpt lat="54.220231454819441" lon="10.970474174246192">
        <ele>0</ele>
        <time>2010-01-03T02:32:36Z</time>
      </trkpt>
      <trkpt lat="54.220230784267187" lon="10.970285581424832">
        <ele>0</ele>
        <time>2010-01-03T02:32:40Z</time>
      </trkpt>
      <trkpt lat="54.220242854207754" lon="10.970124313607812">
        <ele>0</ele>
        <time>2010-01-03T02:32:44Z</time>
      </trkpt>
      <trkpt lat="54.220296749845147" lon="10.969914514571428">
        <ele>0</ele>
        <time>2010-01-03T02:32:49Z</time>
      </trkpt>
      <trkpt lat="54.2203389108181" lon="10.969803035259247">
        <ele>0</ele>
        <time>2010-01-03T02:32:53Z</time>
      </trkpt>
      <trkpt lat="54.220412168651819" lon="10.969646377488971">
        <ele>0</ele>
        <time>2010-01-03T02:32:57Z</time>
      </trkpt>
      <trkpt lat="54.220491629093885" lon="10.969481924548745">
        <ele>0</ele>
        <time>2010-01-03T02:33:02Z</time>
      </trkpt>
      <trkpt lat="54.220546446740627" lon="10.969374720007181">
        <ele>0</ele>
        <time>2010-01-03T02:33:06Z</time>
      </trkpt>
      <trkpt lat="54.220561450347304" lon="10.969343706965446">
        <ele>0</ele>
        <time>2010-01-03T02:33:07Z</time>
      </trkpt>
      <trkpt lat="54.220620542764664" lon="10.969214960932732">
        <ele>0</ele>
        <time>2010-01-03T02:33:10Z</time>
      </trkpt>
      <trkpt lat="54.220679551362991" lon="10.969083197414875">
        <ele>0</ele>
        <time>2010-01-03T02:33:14Z</time>
      </trkpt>
      <trkpt lat="54.220707379281521" lon="10.968970628455281">
        <ele>0</ele>
        <time>2010-01-03T02:33:17Z</time>
      </trkpt>
      <trkpt lat="54.220732441172004" lon="10.968859568238258">
        <ele>0</ele>
        <time>2010-01-03T02:33:20Z</time>
      </trkpt>
      <trkpt lat="54.220767561346292" lon="10.968629317358136">
        <ele>0</ele>
        <time>2010-01-03T02:33:25Z</time>
      </trkpt>
      <trkpt lat="54.220973001793027" lon="10.966580947861075">
        <ele>0</ele>
        <time>2010-01-03T02:34:14Z</time>
      </trkpt>
      <trkpt lat="54.221007619053125" lon="10.966219939291477">
        <ele>0</ele>
        <time>2010-01-03T02:34:23Z</time>
      </trkpt>
      <trkpt lat="54.221031507477164" lon="10.96594643779099">
        <ele>0</ele>
        <time>2010-01-03T02:34:29Z</time>
      </trkpt>
      <trkpt lat="54.221048271283507" lon="10.965667655691504">
        <ele>0</ele>
        <time>2010-01-03T02:34:36Z</time>
      </trkpt>
      <trkpt lat="54.22105816192925" lon="10.96526968292892">
        <ele>0</ele>
        <time>2010-01-03T02:34:45Z</time>
      </trkpt>
      <trkpt lat="54.22105330042541" lon="10.965050831437111">
        <ele>0</ele>
        <time>2010-01-03T02:34:50Z</time>
      </trkpt>
      <trkpt lat="54.221040308475494" lon="10.964746735990047">
        <ele>0</ele>
        <time>2010-01-03T02:34:57Z</time>
      </trkpt>
      <trkpt lat="54.221133850514889" lon="10.964754028245807">
        <ele>0</ele>
        <time>2010-01-03T02:35:01Z</time>
      </trkpt>
      <trkpt lat="54.221231918781996" lon="10.964759811758995">
        <ele>0</ele>
        <time>2010-01-03T02:35:05Z</time>
      </trkpt>
      <trkpt lat="54.221331244334579" lon="10.964767355471849">
        <ele>0</ele>
        <time>2010-01-03T02:35:09Z</time>
      </trkpt>
      <trkpt lat="54.221386229619384" lon="10.964802475646138">
        <ele>0</ele>
        <time>2010-01-03T02:35:11Z</time>
      </trkpt>
      <trkpt lat="54.221420427784324" lon="10.964837595820427">
        <ele>0</ele>
        <time>2010-01-03T02:35:13Z</time>
      </trkpt>
      <trkpt lat="54.221450602635741" lon="10.964872129261494">
        <ele>0</ele>
        <time>2010-01-03T02:35:14Z</time>
      </trkpt>
      <trkpt lat="54.221482621505857" lon="10.964926527813077">
        <ele>0</ele>
        <time>2010-01-03T02:35:16Z</time>
      </trkpt>
      <trkpt lat="54.221603907644749" lon="10.965201957151294">
        <ele>0</ele>
        <time>2010-01-03T02:35:24Z</time>
      </trkpt>
      <trkpt lat="54.221764504909515" lon="10.965575873851776">
        <ele>0</ele>
        <time>2010-01-03T02:35:35Z</time>
      </trkpt>
      <trkpt lat="54.221907583996654" lon="10.965912658721209">
        <ele>0</ele>
        <time>2010-01-03T02:35:45Z</time>
      </trkpt>
      <trkpt lat="54.221924096345901" lon="10.965950544923544">
        <ele>0</ele>
        <time>2010-01-03T02:35:46Z</time>
      </trkpt>
      <trkpt lat="54.221984697505832" lon="10.966110052540898">
        <ele>0</ele>
        <time>2010-01-03T02:35:50Z</time>
      </trkpt>
      <trkpt lat="54.222095003351569" lon="10.966398557648063">
        <ele>0</ele>
        <time>2010-01-03T02:35:58Z</time>
      </trkpt>
      <trkpt lat="54.222151916474104" lon="10.966542810201645">
        <ele>0</ele>
        <time>2010-01-03T02:36:02Z</time>
      </trkpt>
      <trkpt lat="54.22223917208612" lon="10.966764511540532">
        <ele>0</ele>
        <time>2010-01-03T02:36:09Z</time>
      </trkpt>
      <trkpt lat="54.22233447432518" lon="10.966978250071406">
        <ele>0</ele>
        <time>2010-01-03T02:36:15Z</time>
      </trkpt>
      <trkpt lat="54.222350902855396" lon="10.967008508741856">
        <ele>0</ele>
        <time>2010-01-03T02:36:16Z</time>
      </trkpt>
      <trkpt lat="54.222467746585608" lon="10.967220319435">
        <ele>0</ele>
        <time>2010-01-03T02:36:23Z</time>
      </trkpt>
      <trkpt lat="54.222478810697794" lon="10.967236999422312">
        <ele>0</ele>
        <time>2010-01-03T02:36:23Z</time>
      </trkpt>
      <trkpt lat="54.222611580044031" lon="10.967437494546175">
        <ele>0</ele>
        <time>2010-01-03T02:36:30Z</time>
      </trkpt>
      <trkpt lat="54.222667068243027" lon="10.967523492872715">
        <ele>0</ele>
        <time>2010-01-03T02:36:33Z</time>
      </trkpt>
      <trkpt lat="54.222749043256044" lon="10.967650227248669">
        <ele>0</ele>
        <time>2010-01-03T02:36:38Z</time>
      </trkpt>
      <trkpt lat="54.222907712683082" lon="10.967864133417606">
        <ele>0</ele>
        <time>2010-01-03T02:36:46Z</time>
      </trkpt>
      <trkpt lat="54.223062610253692" lon="10.968027748167515">
        <ele>0</ele>
        <time>2010-01-03T02:36:53Z</time>
      </trkpt>
      <trkpt lat="54.223217004910111" lon="10.968196978792548">
        <ele>0</ele>
        <time>2010-01-03T02:37:01Z</time>
      </trkpt>
      <trkpt lat="54.223386319354177" lon="10.968373836949468">
        <ele>0</ele>
        <time>2010-01-03T02:37:09Z</time>
      </trkpt>
      <trkpt lat="54.22348128631711" lon="10.968496380373836">
        <ele>0</ele>
        <time>2010-01-03T02:37:13Z</time>
      </trkpt>
      <trkpt lat="54.223541719838977" lon="10.968599980697036">
        <ele>0</ele>
        <time>2010-01-03T02:37:17Z</time>
      </trkpt>
      <trkpt lat="54.223630065098405" lon="10.968763343989849">
        <ele>0</ele>
        <time>2010-01-03T02:37:22Z</time>
      </trkpt>
      <trkpt lat="54.223704328760505" lon="10.968870464712381">
        <ele>0</ele>
        <time>2010-01-03T02:37:26Z</time>
      </trkpt>
      <trkpt lat="54.223780939355493" lon="10.968952439725399">
        <ele>0</ele>
        <time>2010-01-03T02:37:29Z</time>
      </trkpt>
      <trkpt lat="54.223891161382198" lon="10.969044640660286">
        <ele>0</ele>
        <time>2010-01-03T02:37:34Z</time>
      </trkpt>
      <trkpt lat="54.224005909636617" lon="10.96911228261888">
        <ele>0</ele>
        <time>2010-01-03T02:37:39Z</time>
      </trkpt>
      <trkpt lat="54.224152090027928" lon="10.969185288995504">
        <ele>0</ele>
        <time>2010-01-03T02:37:45Z</time>
      </trkpt>
      <trkpt lat="54.224414443597198" lon="10.969298360869288">
        <ele>0</ele>
        <time>2010-01-03T02:37:56Z</time>
      </trkpt>
      <trkpt lat="54.224607646465302" lon="10.969407074153423">
        <ele>0</ele>
        <time>2010-01-03T02:38:04Z</time>
      </trkpt>
      <trkpt lat="54.224918028339744" lon="10.969577310606837">
        <ele>0</ele>
        <time>2010-01-03T02:38:17Z</time>
      </trkpt>
      <trkpt lat="54.225205108523369" lon="10.969740087166429">
        <ele>0</ele>
        <time>2010-01-03T02:38:29Z</time>
      </trkpt>
      <trkpt lat="54.225305439904332" lon="10.969780487939715">
        <ele>0</ele>
        <time>2010-01-03T02:38:34Z</time>
      </trkpt>
      <trkpt lat="54.225433599203825" lon="10.969813847914338">
        <ele>0</ele>
        <time>2010-01-03T02:38:39Z</time>
      </trkpt>
      <trkpt lat="54.225490428507328" lon="10.969822565093637">
        <ele>0</ele>
        <time>2010-01-03T02:38:41Z</time>
      </trkpt>
      <trkpt lat="54.225533008575439" lon="10.969829019159079">
        <ele>0</ele>
        <time>2010-01-03T02:38:43Z</time>
      </trkpt>
      <trkpt lat="54.22565178014338" lon="10.969838574528694">
        <ele>0</ele>
        <time>2010-01-03T02:38:48Z</time>
      </trkpt>
      <trkpt lat="54.22576954588294" lon="10.969849806278944">
        <ele>0</ele>
        <time>2010-01-03T02:38:52Z</time>
      </trkpt>
      <trkpt lat="54.225903153419495" lon="10.969865312799811">
        <ele>0</ele>
        <time>2010-01-03T02:38:58Z</time>
      </trkpt>
      <trkpt lat="54.226053860038519" lon="10.969905713573098">
        <ele>0</ele>
        <time>2010-01-03T02:39:04Z</time>
      </trkpt>
      <trkpt lat="54.226140528917313" lon="10.969931446015835">
        <ele>0</ele>
        <time>2010-01-03T02:39:07Z</time>
      </trkpt>
      <trkpt lat="54.226242201402783" lon="10.96996882930398">
        <ele>0</ele>
        <time>2010-01-03T02:39:11Z</time>
      </trkpt>
      <trkpt lat="54.226349154487252" lon="10.970028592273593">
        <ele>0</ele>
        <time>2010-01-03T02:39:16Z</time>
      </trkpt>
      <trkpt lat="54.226457616314292" lon="10.970097659155726">
        <ele>0</ele>
        <time>2010-01-03T02:39:21Z</time>
      </trkpt>
      <trkpt lat="54.226544704288244" lon="10.970152309164405">
        <ele>0</ele>
        <time>2010-01-03T02:39:24Z</time>
      </trkpt>
      <trkpt lat="54.226730279624462" lon="10.97024786286056">
        <ele>0</ele>
        <time>2010-01-03T02:39:32Z</time>
      </trkpt>
      <trkpt lat="54.226950891315937" lon="10.970345428213477">
        <ele>0</ele>
        <time>2010-01-03T02:39:41Z</time>
      </trkpt>
      <trkpt lat="54.227067986503243" lon="10.970400748774409">
        <ele>0</ele>
        <time>2010-01-03T02:39:46Z</time>
      </trkpt>
      <trkpt lat="54.227239396423101" lon="10.970480879768729">
        <ele>0</ele>
        <time>2010-01-03T02:39:53Z</time>
      </trkpt>
      <trkpt lat="54.227405358105898" lon="10.970559502020478">
        <ele>0</ele>
        <time>2010-01-03T02:40:00Z</time>
      </trkpt>
      <trkpt lat="54.227740718051791" lon="10.970687661319971">
        <ele>0</ele>
        <time>2010-01-03T02:40:14Z</time>
      </trkpt>
      <trkpt lat="54.22805143520236" lon="10.970672238618135">
        <ele>0</ele>
        <time>2010-01-03T02:40:26Z</time>
      </trkpt>
      <trkpt lat="54.228062247857451" lon="10.97067198716104">
        <ele>0</ele>
        <time>2010-01-03T02:40:27Z</time>
      </trkpt>
      <trkpt lat="54.228260479867458" lon="10.970644075423479">
        <ele>0</ele>
        <time>2010-01-03T02:40:35Z</time>
      </trkpt>
      <trkpt lat="54.22834019176662" lon="10.970612978562713">
        <ele>0</ele>
        <time>2010-01-03T02:40:38Z</time>
      </trkpt>
      <trkpt lat="54.228421496227384" lon="10.970555730164051">
        <ele>0</ele>
        <time>2010-01-03T02:40:41Z</time>
      </trkpt>
      <trkpt lat="54.228522162884474" lon="10.97045355476439">
        <ele>0</ele>
        <time>2010-01-03T02:40:46Z</time>
      </trkpt>
      <trkpt lat="54.228624254465103" lon="10.970316091552377">
        <ele>0</ele>
        <time>2010-01-03T02:40:51Z</time>
      </trkpt>
      <trkpt lat="54.228777810931206" lon="10.970095982775092">
        <ele>0</ele>
        <time>2010-01-03T02:40:59Z</time>
      </trkpt>
      <trkpt lat="54.22889775596559" lon="10.969935050234199">
        <ele>0</ele>
        <time>2010-01-03T02:41:05Z</time>
      </trkpt>
      <trkpt lat="54.229041673243046" lon="10.969741344451904">
        <ele>0</ele>
        <time>2010-01-03T02:41:13Z</time>
      </trkpt>
      <trkpt lat="54.229147201403975" lon="10.969585357233882">
        <ele>0</ele>
        <time>2010-01-03T02:41:18Z</time>
      </trkpt>
      <trkpt lat="54.229198917746544" lon="10.969512015581131">
        <ele>0</ele>
        <time>2010-01-03T02:41:21Z</time>
      </trkpt>
      <trkpt lat="54.229298997670412" lon="10.969370026141405">
        <ele>0</ele>
        <time>2010-01-03T02:41:26Z</time>
      </trkpt>
      <trkpt lat="54.229334536939859" lon="10.9693184774369">
        <ele>0</ele>
        <time>2010-01-03T02:41:28Z</time>
      </trkpt>
      <trkpt lat="54.229587418958545" lon="10.968953361734748">
        <ele>0</ele>
        <time>2010-01-03T02:41:41Z</time>
      </trkpt>
      <trkpt lat="54.22977383248508" lon="10.968687990680337">
        <ele>0</ele>
        <time>2010-01-03T02:41:51Z</time>
      </trkpt>
      <trkpt lat="54.229916743934155" lon="10.968480538576841">
        <ele>0</ele>
        <time>2010-01-03T02:41:59Z</time>
      </trkpt>
      <trkpt lat="54.230046328157187" lon="10.968299405649304">
        <ele>0</ele>
        <time>2010-01-03T02:42:05Z</time>
      </trkpt>
      <trkpt lat="54.230195945128798" lon="10.968036549165845">
        <ele>0</ele>
        <time>2010-01-03T02:42:14Z</time>
      </trkpt>
      <trkpt lat="54.230330055579543" lon="10.96775634214282">
        <ele>0</ele>
        <time>2010-01-03T02:42:22Z</time>
      </trkpt>
      <trkpt lat="54.230374228209257" lon="10.967664057388902">
        <ele>0</ele>
        <time>2010-01-03T02:42:25Z</time>
      </trkpt>
      <trkpt lat="54.230437763035297" lon="10.967529024928808">
        <ele>0</ele>
        <time>2010-01-03T02:42:29Z</time>
      </trkpt>
      <trkpt lat="54.230576818808913" lon="10.967192742973566">
        <ele>0</ele>
        <time>2010-01-03T02:42:39Z</time>
      </trkpt>
      <trkpt lat="54.230784690007567" lon="10.966707598417997">
        <ele>0</ele>
        <time>2010-01-03T02:42:53Z</time>
      </trkpt>
      <trkpt lat="54.230968924239278" lon="10.966294119134545">
        <ele>0</ele>
        <time>2010-01-03T02:43:05Z</time>
      </trkpt>
      <trkpt lat="54.231010414659977" lon="10.966187752783298">
        <ele>0</ele>
        <time>2010-01-03T02:43:08Z</time>
      </trkpt>
      <trkpt lat="54.231055676937103" lon="10.966052720323205">
        <ele>0</ele>
        <time>2010-01-03T02:43:12Z</time>
      </trkpt>
      <trkpt lat="54.23113564029336" lon="10.965819368138909">
        <ele>0</ele>
        <time>2010-01-03T02:43:18Z</time>
      </trkpt>
      <trkpt lat="54.231158690527081" lon="10.965710990130901">
        <ele>0</ele>
        <time>2010-01-03T02:43:21Z</time>
      </trkpt>
      <trkpt lat="54.231187859550118" lon="10.965712834149599">
        <ele>0</ele>
        <time>2010-01-03T02:43:22Z</time>
      </trkpt>
      <trkpt lat="54.231214430183172" lon="10.965701015666127">
        <ele>0</ele>
        <time>2010-01-03T02:43:23Z</time>
      </trkpt>
      <trkpt lat="54.231232199817896" lon="10.965679390355945">
        <ele>0</ele>
        <time>2010-01-03T02:43:24Z</time>
      </trkpt>
      <trkpt lat="54.231250388547778" lon="10.965647790580988">
        <ele>0</ele>
        <time>2010-01-03T02:43:25Z</time>
      </trkpt>
      <trkpt lat="54.231260865926743" lon="10.965609150007367">
        <ele>0</ele>
        <time>2010-01-03T02:43:26Z</time>
      </trkpt>
      <trkpt lat="54.231262458488345" lon="10.965564223006368">
        <ele>0</ele>
        <time>2010-01-03T02:43:27Z</time>
      </trkpt>
      <trkpt lat="54.231257680803537" lon="10.965520050376654">
        <ele>0</ele>
        <time>2010-01-03T02:43:28Z</time>
      </trkpt>
      <trkpt lat="54.231242090463638" lon="10.965474704280496">
        <ele>0</ele>
        <time>2010-01-03T02:43:29Z</time>
      </trkpt>
      <trkpt lat="54.23129741102457" lon="10.965426256880164">
        <ele>0</ele>
        <time>2010-01-03T02:43:32Z</time>
      </trkpt>
      <trkpt lat="54.231330687180161" lon="10.965370098128915">
        <ele>0</ele>
        <time>2010-01-03T02:43:34Z</time>
      </trkpt>
      <trkpt lat="54.231361113488674" lon="10.965270102024078">
        <ele>0</ele>
        <time>2010-01-03T02:43:36Z</time>
      </trkpt>
      <trkpt lat="54.231525482609868" lon="10.964667862281203">
        <ele>0</ele>
        <time>2010-01-03T02:43:52Z</time>
      </trkpt>
      <trkpt lat="54.231574013829231" lon="10.964459655806422">
        <ele>0</ele>
        <time>2010-01-03T02:43:57Z</time>
      </trkpt>
      <trkpt lat="54.231639225035906" lon="10.964198810979724">
        <ele>0</ele>
        <time>2010-01-03T02:44:04Z</time>
      </trkpt>
      <trkpt lat="54.231691276654601" lon="10.963985910639167">
        <ele>0</ele>
        <time>2010-01-03T02:44:09Z</time>
      </trkpt>
      <trkpt lat="54.231742573902011" lon="10.963786756619811">
        <ele>0</ele>
        <time>2010-01-03T02:44:14Z</time>
      </trkpt>
      <trkpt lat="54.231776520609856" lon="10.963655579835176">
        <ele>0</ele>
        <time>2010-01-03T02:44:17Z</time>
      </trkpt>
      <trkpt lat="54.231807785108685" lon="10.96353211440146">
        <ele>0</ele>
        <time>2010-01-03T02:44:21Z</time>
      </trkpt>
      <trkpt lat="54.231834439560771" lon="10.963398003950715">
        <ele>0</ele>
        <time>2010-01-03T02:44:24Z</time>
      </trkpt>
      <trkpt lat="54.231871655210853" lon="10.963128693401814">
        <ele>0</ele>
        <time>2010-01-03T02:44:30Z</time>
      </trkpt>
      <trkpt lat="54.231909541413188" lon="10.962831806391478">
        <ele>0</ele>
        <time>2010-01-03T02:44:38Z</time>
      </trkpt>
      <trkpt lat="54.231944158673286" lon="10.962571715936065">
        <ele>0</ele>
        <time>2010-01-03T02:44:44Z</time>
      </trkpt>
      <trkpt lat="54.231981709599495" lon="10.962339201942086">
        <ele>0</ele>
        <time>2010-01-03T02:44:49Z</time>
      </trkpt>
      <trkpt lat="54.232018422335386" lon="10.962220262736082">
        <ele>0</ele>
        <time>2010-01-03T02:44:53Z</time>
      </trkpt>
      <trkpt lat="54.232139959931374" lon="10.961944246664643">
        <ele>0</ele>
        <time>2010-01-03T02:45:01Z</time>
      </trkpt>
      <trkpt lat="54.232306675985456" lon="10.961680887266994">
        <ele>0</ele>
        <time>2010-01-03T02:45:10Z</time>
      </trkpt>
      <trkpt lat="54.232451682910323" lon="10.961517691612244">
        <ele>0</ele>
        <time>2010-01-03T02:45:17Z</time>
      </trkpt>
      <trkpt lat="54.232607502490282" lon="10.961358938366175">
        <ele>0</ele>
        <time>2010-01-03T02:45:24Z</time>
      </trkpt>
      <trkpt lat="54.232813697308302" lon="10.961186690256">
        <ele>0</ele>
        <time>2010-01-03T02:45:33Z</time>
      </trkpt>
      <trkpt lat="54.233029363676906" lon="10.961043778806925">
        <ele>0</ele>
        <time>2010-01-03T02:45:42Z</time>
      </trkpt>
      <trkpt lat="54.233135813847184" lon="10.960984015837312">
        <ele>0</ele>
        <time>2010-01-03T02:45:47Z</time>
      </trkpt>
      <trkpt lat="54.233219381421804" lon="10.960937160998583">
        <ele>0</ele>
        <time>2010-01-03T02:45:50Z</time>
      </trkpt>
      <trkpt lat="54.233384840190411" lon="10.960851749405265">
        <ele>0</ele>
        <time>2010-01-03T02:45:57Z</time>
      </trkpt>
      <trkpt lat="54.233564212918282" lon="10.960747478529811">
        <ele>0</ele>
        <time>2010-01-03T02:46:05Z</time>
      </trkpt>
      <trkpt lat="54.233834277838469" lon="10.960570033639669">
        <ele>0</ele>
        <time>2010-01-03T02:46:16Z</time>
      </trkpt>
      <trkpt lat="54.233945086598396" lon="10.960497194901109">
        <ele>0</ele>
        <time>2010-01-03T02:46:21Z</time>
      </trkpt>
      <trkpt lat="54.234036700800061" lon="10.960433827713132">
        <ele>0</ele>
        <time>2010-01-03T02:46:25Z</time>
      </trkpt>
      <trkpt lat="54.234342221170664" lon="10.960182035341859">
        <ele>0</ele>
        <time>2010-01-03T02:46:39Z</time>
      </trkpt>
      <trkpt lat="54.234540872275829" lon="10.959988329559565">
        <ele>0</ele>
        <time>2010-01-03T02:46:48Z</time>
      </trkpt>
      <trkpt lat="54.234646651893854" lon="10.959861511364579">
        <ele>0</ele>
        <time>2010-01-03T02:46:53Z</time>
      </trkpt>
      <trkpt lat="54.234757544472814" lon="10.959697645157576">
        <ele>0</ele>
        <time>2010-01-03T02:46:59Z</time>
      </trkpt>
      <trkpt lat="54.234890313819051" lon="10.959465801715851">
        <ele>0</ele>
        <time>2010-01-03T02:47:07Z</time>
      </trkpt>
      <trkpt lat="54.235030626878142" lon="10.959163215011358">
        <ele>0</ele>
        <time>2010-01-03T02:47:16Z</time>
      </trkpt>
      <trkpt lat="54.23512190580368" lon="10.95891703851521">
        <ele>0</ele>
        <time>2010-01-03T02:47:22Z</time>
      </trkpt>
      <trkpt lat="54.235139423981309" lon="10.958869094029069">
        <ele>0</ele>
        <time>2010-01-03T02:47:24Z</time>
      </trkpt>
      <trkpt lat="54.235262218862772" lon="10.958514790982008">
        <ele>0</ele>
        <time>2010-01-03T02:47:33Z</time>
      </trkpt>
      <trkpt lat="54.235575115308166" lon="10.957509968429804">
        <ele>0</ele>
        <time>2010-01-03T02:48:00Z</time>
      </trkpt>
      <trkpt lat="54.235660945996642" lon="10.957144349813461">
        <ele>0</ele>
        <time>2010-01-03T02:48:09Z</time>
      </trkpt>
      <trkpt lat="54.235780388116837" lon="10.95662291161716">
        <ele>0</ele>
        <time>2010-01-03T02:48:22Z</time>
      </trkpt>
      <trkpt lat="54.235858675092459" lon="10.95632191747427">
        <ele>0</ele>
        <time>2010-01-03T02:48:30Z</time>
      </trkpt>
      <trkpt lat="54.235965795814991" lon="10.955934254452586">
        <ele>0</ele>
        <time>2010-01-03T02:48:40Z</time>
      </trkpt>
      <trkpt lat="54.236070234328508" lon="10.955540472641587">
        <ele>0</ele>
        <time>2010-01-03T02:48:50Z</time>
      </trkpt>
      <trkpt lat="54.236156065016985" lon="10.955283734947443">
        <ele>0</ele>
        <time>2010-01-03T02:48:57Z</time>
      </trkpt>
      <trkpt lat="54.23628824763" lon="10.954887773841619">
        <ele>0</ele>
        <time>2010-01-03T02:49:08Z</time>
      </trkpt>
      <trkpt lat="54.236391093581915" lon="10.954619804397225">
        <ele>0</ele>
        <time>2010-01-03T02:49:15Z</time>
      </trkpt>
      <trkpt lat="54.236403331160545" lon="10.95458728261292">
        <ele>0</ele>
        <time>2010-01-03T02:49:16Z</time>
      </trkpt>
      <trkpt lat="54.236533837392926" lon="10.954297184944153">
        <ele>0</ele>
        <time>2010-01-03T02:49:25Z</time>
      </trkpt>
      <trkpt lat="54.236620841547847" lon="10.954130720347166">
        <ele>0</ele>
        <time>2010-01-03T02:49:30Z</time>
      </trkpt>
      <trkpt lat="54.236695189028978" lon="10.954019827768207">
        <ele>0</ele>
        <time>2010-01-03T02:49:34Z</time>
      </trkpt>
      <trkpt lat="54.236797196790576" lon="10.953908348456025">
        <ele>0</ele>
        <time>2010-01-03T02:49:39Z</time>
      </trkpt>
      <trkpt lat="54.236895265057683" lon="10.953814135864377">
        <ele>0</ele>
        <time>2010-01-03T02:49:43Z</time>
      </trkpt>
      <trkpt lat="54.237223332747817" lon="10.953512890264392">
        <ele>0</ele>
        <time>2010-01-03T02:49:58Z</time>
      </trkpt>
      <trkpt lat="54.237416116520762" lon="10.953363860026002">
        <ele>0</ele>
        <time>2010-01-03T02:50:07Z</time>
      </trkpt>
      <trkpt lat="54.237723229452968" lon="10.953141320496798">
        <ele>0</ele>
        <time>2010-01-03T02:50:20Z</time>
      </trkpt>
      <trkpt lat="54.238087758421898" lon="10.952911237254739">
        <ele>0</ele>
        <time>2010-01-03T02:50:36Z</time>
      </trkpt>
      <trkpt lat="54.238270232453942" lon="10.952817695215344">
        <ele>0</ele>
        <time>2010-01-03T02:50:43Z</time>
      </trkpt>
      <trkpt lat="54.238425968214869" lon="10.952746197581291">
        <ele>0</ele>
        <time>2010-01-03T02:50:50Z</time>
      </trkpt>
      <trkpt lat="54.238558569923043" lon="10.952701438218355">
        <ele>0</ele>
        <time>2010-01-03T02:50:55Z</time>
      </trkpt>
      <trkpt lat="54.238644568249583" lon="10.952676292508841">
        <ele>0</ele>
        <time>2010-01-03T02:50:58Z</time>
      </trkpt>
      <trkpt lat="54.238737439736724" lon="10.952615607529879">
        <ele>0</ele>
        <time>2010-01-03T02:51:02Z</time>
      </trkpt>
      <trkpt lat="54.238849924877286" lon="10.952526926994324">
        <ele>0</ele>
        <time>2010-01-03T02:51:07Z</time>
      </trkpt>
      <trkpt lat="54.238985124975443" lon="10.952370101585984">
        <ele>0</ele>
        <time>2010-01-03T02:51:14Z</time>
      </trkpt>
      <trkpt lat="54.239115798845887" lon="10.952213359996676">
        <ele>0</ele>
        <time>2010-01-03T02:51:20Z</time>
      </trkpt>
      <trkpt lat="54.239222332835197" lon="10.952066509053111">
        <ele>0</ele>
        <time>2010-01-03T02:51:26Z</time>
      </trkpt>
      <trkpt lat="54.239284358918667" lon="10.951965255662799">
        <ele>0</ele>
        <time>2010-01-03T02:51:29Z</time>
      </trkpt>
      <trkpt lat="54.239353174343705" lon="10.951819326728582">
        <ele>0</ele>
        <time>2010-01-03T02:51:34Z</time>
      </trkpt>
      <trkpt lat="54.239677637815475" lon="10.951113235205412">
        <ele>0</ele>
        <time>2010-01-03T02:51:55Z</time>
      </trkpt>
      <trkpt lat="54.23989824950695" lon="10.95064896158874">
        <ele>0</ele>
        <time>2010-01-03T02:52:09Z</time>
      </trkpt>
      <trkpt lat="54.240096565335989" lon="10.950208324939013">
        <ele>0</ele>
        <time>2010-01-03T02:52:22Z</time>
      </trkpt>
      <trkpt lat="54.24024224281311" lon="10.949914706870914">
        <ele>0</ele>
        <time>2010-01-03T02:52:31Z</time>
      </trkpt>
      <trkpt lat="54.240374928340316" lon="10.949679762125015">
        <ele>0</ele>
        <time>2010-01-03T02:52:38Z</time>
      </trkpt>
      <trkpt lat="54.240635437890887" lon="10.949252871796489">
        <ele>0</ele>
        <time>2010-01-03T02:52:53Z</time>
      </trkpt>
      <trkpt lat="54.240723196417093" lon="10.949117168784142">
        <ele>0</ele>
        <time>2010-01-03T02:52:58Z</time>
      </trkpt>
      <trkpt lat="54.240775248035789" lon="10.949013065546751">
        <ele>0</ele>
        <time>2010-01-03T02:53:01Z</time>
      </trkpt>
      <trkpt lat="54.240819336846471" lon="10.9489138238132">
        <ele>0</ele>
        <time>2010-01-03T02:53:04Z</time>
      </trkpt>
      <trkpt lat="54.240869209170341" lon="10.948757585138083">
        <ele>0</ele>
        <time>2010-01-03T02:53:08Z</time>
      </trkpt>
      <trkpt lat="54.240998961031437" lon="10.948294149711728">
        <ele>0</ele>
        <time>2010-01-03T02:53:20Z</time>
      </trkpt>
      <trkpt lat="54.241118570789695" lon="10.947892237454653">
        <ele>0</ele>
        <time>2010-01-03T02:53:30Z</time>
      </trkpt>
      <trkpt lat="54.241164168342948" lon="10.947762234136462">
        <ele>0</ele>
        <time>2010-01-03T02:53:34Z</time>
      </trkpt>
      <trkpt lat="54.241215968504548" lon="10.947625944390893">
        <ele>0</ele>
        <time>2010-01-03T02:53:38Z</time>
      </trkpt>
      <trkpt lat="54.241274138912559" lon="10.947498707100749">
        <ele>0</ele>
        <time>2010-01-03T02:53:41Z</time>
      </trkpt>
      <trkpt lat="54.241789458319545" lon="10.946427164599299">
        <ele>0</ele>
        <time>2010-01-03T02:54:14Z</time>
      </trkpt>
      <trkpt lat="54.242018535733223" lon="10.945966830477118">
        <ele>0</ele>
        <time>2010-01-03T02:54:28Z</time>
      </trkpt>
      <trkpt lat="54.242124985903502" lon="10.945752924308181">
        <ele>0</ele>
        <time>2010-01-03T02:54:35Z</time>
      </trkpt>
      <trkpt lat="54.242192208766937" lon="10.945626944303513">
        <ele>0</ele>
        <time>2010-01-03T02:54:39Z</time>
      </trkpt>
      <trkpt lat="54.242239901795983" lon="10.945538263767958">
        <ele>0</ele>
        <time>2010-01-03T02:54:41Z</time>
      </trkpt>
      <trkpt lat="54.242283487692475" lon="10.945485038682818">
        <ele>0</ele>
        <time>2010-01-03T02:54:44Z</time>
      </trkpt>
      <trkpt lat="54.242328079417348" lon="10.945450169965625">
        <ele>0</ele>
        <time>2010-01-03T02:54:46Z</time>
      </trkpt>
      <trkpt lat="54.242416089400649" lon="10.94543868675828">
        <ele>0</ele>
        <time>2010-01-03T02:54:49Z</time>
      </trkpt>
      <trkpt lat="54.24268439412117" lon="10.945402728393674">
        <ele>0</ele>
        <time>2010-01-03T02:55:00Z</time>
      </trkpt>
      <trkpt lat="54.242887068539858" lon="10.945359142497182">
        <ele>0</ele>
        <time>2010-01-03T02:55:08Z</time>
      </trkpt>
      <trkpt lat="54.243113799020648" lon="10.945292003452778">
        <ele>0</ele>
        <time>2010-01-03T02:55:17Z</time>
      </trkpt>
      <trkpt lat="54.243269618600607" lon="10.945237437263131">
        <ele>0</ele>
        <time>2010-01-03T02:55:24Z</time>
      </trkpt>
      <trkpt lat="54.243368776515126" lon="10.945173567160964">
        <ele>0</ele>
        <time>2010-01-03T02:55:28Z</time>
      </trkpt>
      <trkpt lat="54.243400041013956" lon="10.945154372602701">
        <ele>0</ele>
        <time>2010-01-03T02:55:29Z</time>
      </trkpt>
      <trkpt lat="54.243565248325467" lon="10.945039708167315">
        <ele>0</ele>
        <time>2010-01-03T02:55:36Z</time>
      </trkpt>
      <trkpt lat="54.243764318525791" lon="10.944885816425085">
        <ele>0</ele>
        <time>2010-01-03T02:55:45Z</time>
      </trkpt>
      <trkpt lat="54.244029186666012" lon="10.944664282724261">
        <ele>0</ele>
        <time>2010-01-03T02:55:57Z</time>
      </trkpt>
      <trkpt lat="54.244201434776187" lon="10.944529501721263">
        <ele>0</ele>
        <time>2010-01-03T02:56:04Z</time>
      </trkpt>
      <trkpt lat="54.244266478344798" lon="10.944475689902902">
        <ele>0</ele>
        <time>2010-01-03T02:56:07Z</time>
      </trkpt>
      <trkpt lat="54.244292378425598" lon="10.944453561678529">
        <ele>0</ele>
        <time>2010-01-03T02:56:09Z</time>
      </trkpt>
      <trkpt lat="54.244394553825259" lon="10.944421794265509">
        <ele>0</ele>
        <time>2010-01-03T02:56:13Z</time>
      </trkpt>
      <trkpt lat="54.244446521624923" lon="10.944506367668509">
        <ele>0</ele>
        <time>2010-01-03T02:56:16Z</time>
      </trkpt>
      <trkpt lat="54.244494717568159" lon="10.944580296054482">
        <ele>0</ele>
        <time>2010-01-03T02:56:18Z</time>
      </trkpt>
      <trkpt lat="54.244557581841946" lon="10.944681465625763">
        <ele>0</ele>
        <time>2010-01-03T02:56:22Z</time>
      </trkpt>
      <trkpt lat="54.244652967900038" lon="10.944902999326587">
        <ele>0</ele>
        <time>2010-01-03T02:56:28Z</time>
      </trkpt>
      <trkpt lat="54.24475078471005" lon="10.945195108652115">
        <ele>0</ele>
        <time>2010-01-03T02:56:36Z</time>
      </trkpt>
      <trkpt lat="54.244759082794189" lon="10.945217907428741">
        <ele>0</ele>
        <time>2010-01-03T02:56:37Z</time>
      </trkpt>
      <trkpt lat="54.244864946231246" lon="10.945508172735572">
        <ele>0</ele>
        <time>2010-01-03T02:56:45Z</time>
      </trkpt>
      <trkpt lat="54.244903670623899" lon="10.945623759180307">
        <ele>0</ele>
        <time>2010-01-03T02:56:48Z</time>
      </trkpt>
      <trkpt lat="54.244925966486335" lon="10.945692574605346">
        <ele>0</ele>
        <time>2010-01-03T02:56:50Z</time>
      </trkpt>
      <trkpt lat="54.244962763041258" lon="10.945806400850415">
        <ele>0</ele>
        <time>2010-01-03T02:56:53Z</time>
      </trkpt>
      <trkpt lat="54.245018921792507" lon="10.945956772193313">
        <ele>0</ele>
        <time>2010-01-03T02:56:57Z</time>
      </trkpt>
      <trkpt lat="54.24512947909534" lon="10.946173360571265">
        <ele>0</ele>
        <time>2010-01-03T02:57:03Z</time>
      </trkpt>
      <trkpt lat="54.245264260098338" lon="10.946377040818334">
        <ele>0</ele>
        <time>2010-01-03T02:57:11Z</time>
      </trkpt>
      <trkpt lat="54.245439525693655" lon="10.946591952815652">
        <ele>0</ele>
        <time>2010-01-03T02:57:19Z</time>
      </trkpt>
      <trkpt lat="54.245632477104664" lon="10.946775684133172">
        <ele>0</ele>
        <time>2010-01-03T02:57:28Z</time>
      </trkpt>
      <trkpt lat="54.245869182050228" lon="10.946926139295101">
        <ele>0</ele>
        <time>2010-01-03T02:57:38Z</time>
      </trkpt>
      <trkpt lat="54.246019721031189" lon="10.946980621665716">
        <ele>0</ele>
        <time>2010-01-03T02:57:44Z</time>
      </trkpt>
      <trkpt lat="54.246130445972085" lon="10.947008449584246">
        <ele>0</ele>
        <time>2010-01-03T02:57:49Z</time>
      </trkpt>
      <trkpt lat="54.24621962942183" lon="10.947030745446682">
        <ele>0</ele>
        <time>2010-01-03T02:57:52Z</time>
      </trkpt>
      <trkpt lat="54.246295904740691" lon="10.947025800123811">
        <ele>0</ele>
        <time>2010-01-03T02:57:56Z</time>
      </trkpt>
      <trkpt lat="54.246363127604127" lon="10.947001073509455">
        <ele>0</ele>
        <time>2010-01-03T02:57:58Z</time>
      </trkpt>
      <trkpt lat="54.246549708768725" lon="10.946868974715471">
        <ele>0</ele>
        <time>2010-01-03T02:58:06Z</time>
      </trkpt>
      <trkpt lat="54.246674682945013" lon="10.946770654991269">
        <ele>0</ele>
        <time>2010-01-03T02:58:12Z</time>
      </trkpt>
      <trkpt lat="54.246746012941003" lon="10.946713574230671">
        <ele>0</ele>
        <time>2010-01-03T02:58:15Z</time>
      </trkpt>
      <trkpt lat="54.246761184185743" lon="10.946702510118484">
        <ele>0</ele>
        <time>2010-01-03T02:58:16Z</time>
      </trkpt>
      <trkpt lat="54.246809715405107" lon="10.946698151528835">
        <ele>0</ele>
        <time>2010-01-03T02:58:18Z</time>
      </trkpt>
      <trkpt lat="54.246853217482567" lon="10.946743078529835">
        <ele>0</ele>
        <time>2010-01-03T02:58:20Z</time>
      </trkpt>
      <trkpt lat="54.246869729831815" lon="10.946782557293773">
        <ele>0</ele>
        <time>2010-01-03T02:58:21Z</time>
      </trkpt>
      <trkpt lat="54.246893115341663" lon="10.946886325255036">
        <ele>0</ele>
        <time>2010-01-03T02:58:23Z</time>
      </trkpt>
      <trkpt lat="54.246996631845832" lon="10.947327045723796">
        <ele>0</ele>
        <time>2010-01-03T02:58:35Z</time>
      </trkpt>
      <trkpt lat="54.247020855545998" lon="10.94742301851511">
        <ele>0</ele>
        <time>2010-01-03T02:58:37Z</time>
      </trkpt>
      <trkpt lat="54.247063854709268" lon="10.947510944679379">
        <ele>0</ele>
        <time>2010-01-03T02:58:40Z</time>
      </trkpt>
      <trkpt lat="54.247116493061185" lon="10.947572467848659">
        <ele>0</ele>
        <time>2010-01-03T02:58:42Z</time>
      </trkpt>
      <trkpt lat="54.247174831107259" lon="10.947569450363517">
        <ele>0</ele>
        <time>2010-01-03T02:58:45Z</time>
      </trkpt>
      <trkpt lat="54.247217830270529" lon="10.947554614394903">
        <ele>0</ele>
        <time>2010-01-03T02:58:46Z</time>
      </trkpt>
      <trkpt lat="54.247357808053493" lon="10.947465682402253">
        <ele>0</ele>
        <time>2010-01-03T02:58:52Z</time>
      </trkpt>
      <trkpt lat="54.247366189956665" lon="10.947460317984223">
        <ele>0</ele>
        <time>2010-01-03T02:58:53Z</time>
      </trkpt>
      <trkpt lat="54.247499965131283" lon="10.947348000481725">
        <ele>0</ele>
        <time>2010-01-03T02:58:59Z</time>
      </trkpt>
      <trkpt lat="54.247566852718592" lon="10.947294104844332">
        <ele>0</ele>
        <time>2010-01-03T02:59:02Z</time>
      </trkpt>
      <trkpt lat="54.247626531869173" lon="10.947231240570545">
        <ele>0</ele>
        <time>2010-01-03T02:59:04Z</time>
      </trkpt>
      <trkpt lat="54.247689731419086" lon="10.947168208658695">
        <ele>0</ele>
        <time>2010-01-03T02:59:07Z</time>
      </trkpt>
      <trkpt lat="54.247804312035441" lon="10.946909124031663">
        <ele>0</ele>
        <time>2010-01-03T02:59:15Z</time>
      </trkpt>
      <trkpt lat="54.247823674231768" lon="10.946865705773234">
        <ele>0</ele>
        <time>2010-01-03T02:59:16Z</time>
      </trkpt>
      <trkpt lat="54.247834235429764" lon="10.946840811520815">
        <ele>0</ele>
        <time>2010-01-03T02:59:17Z</time>
      </trkpt>
      <trkpt lat="54.248027941212058" lon="10.946389446035028">
        <ele>0</ele>
        <time>2010-01-03T02:59:30Z</time>
      </trkpt>
      <trkpt lat="54.248071108013391" lon="10.946284085512161">
        <ele>0</ele>
        <time>2010-01-03T02:59:33Z</time>
      </trkpt>
      <trkpt lat="54.248087871819735" lon="10.946251396089792">
        <ele>0</ele>
        <time>2010-01-03T02:59:34Z</time>
      </trkpt>
      <trkpt lat="54.248149730265141" lon="10.946242175996304">
        <ele>0</ele>
        <time>2010-01-03T02:59:36Z</time>
      </trkpt>
      <trkpt lat="54.248215612024069" lon="10.946268076077104">
        <ele>0</ele>
        <time>2010-01-03T02:59:39Z</time>
      </trkpt>
      <trkpt lat="54.248515600338578" lon="10.946464547887444">
        <ele>0</ele>
        <time>2010-01-03T02:59:52Z</time>
      </trkpt>
      <trkpt lat="54.248610232025385" lon="10.946519281715155">
        <ele>0</ele>
        <time>2010-01-03T02:59:56Z</time>
      </trkpt>
      <trkpt lat="54.248637473210692" lon="10.946535039693117">
        <ele>0</ele>
        <time>2010-01-03T02:59:57Z</time>
      </trkpt>
      <trkpt lat="54.248748533427715" lon="10.946601256728172">
        <ele>0</ele>
        <time>2010-01-03T03:00:02Z</time>
      </trkpt>
      <trkpt lat="54.24877024255693" lon="10.94661139883101">
        <ele>0</ele>
        <time>2010-01-03T03:00:03Z</time>
      </trkpt>
      <trkpt lat="54.248856827616692" lon="10.946653727442026">
        <ele>0</ele>
        <time>2010-01-03T03:00:06Z</time>
      </trkpt>
      <trkpt lat="54.249015664681792" lon="10.946731008589268">
        <ele>0</ele>
        <time>2010-01-03T03:00:13Z</time>
      </trkpt>
      <trkpt lat="54.249095125123858" lon="10.946776522323489">
        <ele>0</ele>
        <time>2010-01-03T03:00:16Z</time>
      </trkpt>
      <trkpt lat="54.249206017702818" lon="10.946821281686425">
        <ele>0</ele>
        <time>2010-01-03T03:00:21Z</time>
      </trkpt>
      <trkpt lat="54.249307606369257" lon="10.946834022179246">
        <ele>0</ele>
        <time>2010-01-03T03:00:25Z</time>
      </trkpt>
      <trkpt lat="54.249390084296465" lon="10.94680585898459">
        <ele>0</ele>
        <time>2010-01-03T03:00:28Z</time>
      </trkpt>
      <trkpt lat="54.249464180320501" lon="10.946753304451704">
        <ele>0</ele>
        <time>2010-01-03T03:00:32Z</time>
      </trkpt>
      <trkpt lat="54.249552441760898" lon="10.946672838181257">
        <ele>0</ele>
        <time>2010-01-03T03:00:36Z</time>
      </trkpt>
      <trkpt lat="54.249614551663399" lon="10.946585331112146">
        <ele>0</ele>
        <time>2010-01-03T03:00:39Z</time>
      </trkpt>
      <trkpt lat="54.249661909416318" lon="10.946458345279098">
        <ele>0</ele>
        <time>2010-01-03T03:00:42Z</time>
      </trkpt>
      <trkpt lat="54.249703735113144" lon="10.94630847685039">
        <ele>0</ele>
        <time>2010-01-03T03:00:46Z</time>
      </trkpt>
      <trkpt lat="54.249766934663057" lon="10.946059534326196">
        <ele>0</ele>
        <time>2010-01-03T03:00:53Z</time>
      </trkpt>
      <trkpt lat="54.249787135049701" lon="10.945979487150908">
        <ele>0</ele>
        <time>2010-01-03T03:00:55Z</time>
      </trkpt>
      <trkpt lat="54.249828876927495" lon="10.945714535191655">
        <ele>0</ele>
        <time>2010-01-03T03:01:01Z</time>
      </trkpt>
      <trkpt lat="54.249899620190263" lon="10.945280101150274">
        <ele>0</ele>
        <time>2010-01-03T03:01:12Z</time>
      </trkpt>
      <trkpt lat="54.250003304332495" lon="10.94449806958437">
        <ele>0</ele>
        <time>2010-01-03T03:01:30Z</time>
      </trkpt>
      <trkpt lat="54.250026773661375" lon="10.944310314953327">
        <ele>0</ele>
        <time>2010-01-03T03:01:35Z</time>
      </trkpt>
      <trkpt lat="54.250049069523811" lon="10.943933967500925">
        <ele>0</ele>
        <time>2010-01-03T03:01:44Z</time>
      </trkpt>
      <trkpt lat="54.250073712319136" lon="10.94379692338407">
        <ele>0</ele>
        <time>2010-01-03T03:01:47Z</time>
      </trkpt>
      <trkpt lat="54.250102881342173" lon="10.943692987784743">
        <ele>0</ele>
        <time>2010-01-03T03:01:50Z</time>
      </trkpt>
      <trkpt lat="54.250146802514791" lon="10.943557871505618">
        <ele>0</ele>
        <time>2010-01-03T03:01:53Z</time>
      </trkpt>
      <trkpt lat="54.250550474971533" lon="10.942667042836547">
        <ele>0</ele>
        <time>2010-01-03T03:02:20Z</time>
      </trkpt>
      <trkpt lat="54.250681232661009" lon="10.94233981333673">
        <ele>0</ele>
        <time>2010-01-03T03:02:29Z</time>
      </trkpt>
      <trkpt lat="54.250770583748817" lon="10.942111993208528">
        <ele>0</ele>
        <time>2010-01-03T03:02:35Z</time>
      </trkpt>
      <trkpt lat="54.25083814188838" lon="10.941949049010873">
        <ele>0</ele>
        <time>2010-01-03T03:02:40Z</time>
      </trkpt>
      <trkpt lat="54.250884158536792" lon="10.941774956882">
        <ele>0</ele>
        <time>2010-01-03T03:02:45Z</time>
      </trkpt>
      <trkpt lat="54.25093051046133" lon="10.941579239442945">
        <ele>0</ele>
        <time>2010-01-03T03:02:49Z</time>
      </trkpt>
      <trkpt lat="54.250960182398558" lon="10.941385868936777">
        <ele>0</ele>
        <time>2010-01-03T03:02:54Z</time>
      </trkpt>
      <trkpt lat="54.250989099964499" lon="10.941207334399223">
        <ele>0</ele>
        <time>2010-01-03T03:02:58Z</time>
      </trkpt>
      <trkpt lat="54.25099547021091" lon="10.941129717975855">
        <ele>0</ele>
        <time>2010-01-03T03:03:00Z</time>
      </trkpt>
      <trkpt lat="54.251009132713079" lon="10.941071212291718">
        <ele>0</ele>
        <time>2010-01-03T03:03:02Z</time>
      </trkpt>
      <trkpt lat="54.251045258715749" lon="10.941007677465677">
        <ele>0</ele>
        <time>2010-01-03T03:03:04Z</time>
      </trkpt>
      <trkpt lat="54.251118013635278" lon="10.94089150428772">
        <ele>0</ele>
        <time>2010-01-03T03:03:08Z</time>
      </trkpt>
      <trkpt lat="54.251215914264321" lon="10.940780192613602">
        <ele>0</ele>
        <time>2010-01-03T03:03:13Z</time>
      </trkpt>
      <trkpt lat="54.251279113814235" lon="10.940712634474039">
        <ele>0</ele>
        <time>2010-01-03T03:03:16Z</time>
      </trkpt>
      <trkpt lat="54.251357484608889" lon="10.940630827099085">
        <ele>0</ele>
        <time>2010-01-03T03:03:19Z</time>
      </trkpt>
      <trkpt lat="54.2513966280967" lon="10.940583804622293">
        <ele>0</ele>
        <time>2010-01-03T03:03:21Z</time>
      </trkpt>
      <trkpt lat="54.251424875110388" lon="10.940532423555851">
        <ele>0</ele>
        <time>2010-01-03T03:03:23Z</time>
      </trkpt>
      <trkpt lat="54.251469215378165" lon="10.940465368330479">
        <ele>0</ele>
        <time>2010-01-03T03:03:25Z</time>
      </trkpt>
      <trkpt lat="54.251512046903372" lon="10.940332263708115">
        <ele>0</ele>
        <time>2010-01-03T03:03:29Z</time>
      </trkpt>
      <trkpt lat="54.251623107120395" lon="10.93988299369812">
        <ele>0</ele>
        <time>2010-01-03T03:03:40Z</time>
      </trkpt>
      <trkpt lat="54.25170592032373" lon="10.939590884372592">
        <ele>0</ele>
        <time>2010-01-03T03:03:48Z</time>
      </trkpt>
      <trkpt lat="54.251827206462622" lon="10.939282430335879">
        <ele>0</ele>
        <time>2010-01-03T03:03:56Z</time>
      </trkpt>
      <trkpt lat="54.251988977193832" lon="10.938778091222048">
        <ele>0</ele>
        <time>2010-01-03T03:04:10Z</time>
      </trkpt>
      <trkpt lat="54.25209391862154" lon="10.938456226140261">
        <ele>0</ele>
        <time>2010-01-03T03:04:18Z</time>
      </trkpt>
      <trkpt lat="54.252155274152756" lon="10.938278194516897">
        <ele>0</ele>
        <time>2010-01-03T03:04:23Z</time>
      </trkpt>
      <trkpt lat="54.25223951227963" lon="10.938154896721244">
        <ele>0</ele>
        <time>2010-01-03T03:04:28Z</time>
      </trkpt>
      <trkpt lat="54.25234361551702" lon="10.938037130981684">
        <ele>0</ele>
        <time>2010-01-03T03:04:33Z</time>
      </trkpt>
      <trkpt lat="54.25246280618012" lon="10.93790209852159">
        <ele>0</ele>
        <time>2010-01-03T03:04:38Z</time>
      </trkpt>
      <trkpt lat="54.252579230815172" lon="10.937751810997725">
        <ele>0</ele>
        <time>2010-01-03T03:04:44Z</time>
      </trkpt>
      <trkpt lat="54.252732787281275" lon="10.937540754675865">
        <ele>0</ele>
        <time>2010-01-03T03:04:52Z</time>
      </trkpt>
      <trkpt lat="54.25285616889596" lon="10.937371859326959">
        <ele>0</ele>
        <time>2010-01-03T03:04:58Z</time>
      </trkpt>
      <trkpt lat="54.252937892451882" lon="10.937263900414109">
        <ele>0</ele>
        <time>2010-01-03T03:05:03Z</time>
      </trkpt>
      <trkpt lat="54.253019616007805" lon="10.937160551548004">
        <ele>0</ele>
        <time>2010-01-03T03:05:07Z</time>
      </trkpt>
      <trkpt lat="54.253193875774741" lon="10.936955027282238">
        <ele>0</ele>
        <time>2010-01-03T03:05:15Z</time>
      </trkpt>
      <trkpt lat="54.25330862402916" lon="10.936818569898605">
        <ele>0</ele>
        <time>2010-01-03T03:05:21Z</time>
      </trkpt>
      <trkpt lat="54.253912875428796" lon="10.936163188889623">
        <ele>0</ele>
        <time>2010-01-03T03:05:49Z</time>
      </trkpt>
      <trkpt lat="54.253959311172366" lon="10.93608682975173">
        <ele>0</ele>
        <time>2010-01-03T03:05:52Z</time>
      </trkpt>
      <trkpt lat="54.254093170166016" lon="10.936028156429529">
        <ele>0</ele>
        <time>2010-01-03T03:05:57Z</time>
      </trkpt>
      <trkpt lat="54.25433037802577" lon="10.935925394296646">
        <ele>0</ele>
        <time>2010-01-03T03:06:07Z</time>
      </trkpt>
      <trkpt lat="54.254586277529597" lon="10.935812909156084">
        <ele>0</ele>
        <time>2010-01-03T03:06:18Z</time>
      </trkpt>
      <trkpt lat="54.254778809845448" lon="10.935734286904335">
        <ele>0</ele>
        <time>2010-01-03T03:06:26Z</time>
      </trkpt>
      <trkpt lat="54.254825664684176" lon="10.935692796483636">
        <ele>0</ele>
        <time>2010-01-03T03:06:28Z</time>
      </trkpt>
      <trkpt lat="54.254857180640101" lon="10.935664800927043">
        <ele>0</ele>
        <time>2010-01-03T03:06:29Z</time>
      </trkpt>
      <trkpt lat="54.254935383796692" lon="10.93556304462254">
        <ele>0</ele>
        <time>2010-01-03T03:06:33Z</time>
      </trkpt>
      <trkpt lat="54.255333188921213" lon="10.934932893142104">
        <ele>0</ele>
        <time>2010-01-03T03:06:55Z</time>
      </trkpt>
      <trkpt lat="54.255733340978622" lon="10.934258149936795">
        <ele>0</ele>
        <time>2010-01-03T03:07:17Z</time>
      </trkpt>
      <trkpt lat="54.255840629339218" lon="10.934092774987221">
        <ele>0</ele>
        <time>2010-01-03T03:07:23Z</time>
      </trkpt>
      <trkpt lat="54.255893435329199" lon="10.933973249047995">
        <ele>0</ele>
        <time>2010-01-03T03:07:27Z</time>
      </trkpt>
      <trkpt lat="54.25592134706676" lon="10.933875851333141">
        <ele>0</ele>
        <time>2010-01-03T03:07:29Z</time>
      </trkpt>
      <trkpt lat="54.25594624131918" lon="10.933743249624968">
        <ele>0</ele>
        <time>2010-01-03T03:07:33Z</time>
      </trkpt>
      <trkpt lat="54.255970045924187" lon="10.933489445596933">
        <ele>0</ele>
        <time>2010-01-03T03:07:39Z</time>
      </trkpt>
      <trkpt lat="54.255993515253067" lon="10.93330311588943">
        <ele>0</ele>
        <time>2010-01-03T03:07:43Z</time>
      </trkpt>
      <trkpt lat="54.25603031180799" lon="10.933196330443025">
        <ele>0</ele>
        <time>2010-01-03T03:07:46Z</time>
      </trkpt>
      <trkpt lat="54.256103569641709" lon="10.933047132566571">
        <ele>0</ele>
        <time>2010-01-03T03:07:50Z</time>
      </trkpt>
      <trkpt lat="54.256182862445712" lon="10.932865580543876">
        <ele>0</ele>
        <time>2010-01-03T03:07:56Z</time>
      </trkpt>
      <trkpt lat="54.256287552416325" lon="10.932615799829364">
        <ele>0</ele>
        <time>2010-01-03T03:08:03Z</time>
      </trkpt>
      <trkpt lat="54.256375059485435" lon="10.93235420063138">
        <ele>0</ele>
        <time>2010-01-03T03:08:10Z</time>
      </trkpt>
      <trkpt lat="54.256528532132506" lon="10.931825470179319">
        <ele>0</ele>
        <time>2010-01-03T03:08:24Z</time>
      </trkpt>
      <trkpt lat="54.256634227931499" lon="10.931481560692191">
        <ele>0</ele>
        <time>2010-01-03T03:08:33Z</time>
      </trkpt>
      <trkpt lat="54.256785605102777" lon="10.931030111387372">
        <ele>0</ele>
        <time>2010-01-03T03:08:45Z</time>
      </trkpt>
      <trkpt lat="54.257260272279382" lon="10.929800905287266">
        <ele>0</ele>
        <time>2010-01-03T03:09:19Z</time>
      </trkpt>
      <trkpt lat="54.258082956075668" lon="10.928432643413544">
        <ele>0</ele>
        <time>2010-01-03T03:10:05Z</time>
      </trkpt>
      <trkpt lat="54.258223352953792" lon="10.928221503272653">
        <ele>0</ele>
        <time>2010-01-03T03:10:13Z</time>
      </trkpt>
      <trkpt lat="54.258287055417895" lon="10.928109353408217">
        <ele>0</ele>
        <time>2010-01-03T03:10:17Z</time>
      </trkpt>
      <trkpt lat="54.258361319079995" lon="10.927923275157809">
        <ele>0</ele>
        <time>2010-01-03T03:10:22Z</time>
      </trkpt>
      <trkpt lat="54.25842653028667" lon="10.927688498049974">
        <ele>0</ele>
        <time>2010-01-03T03:10:28Z</time>
      </trkpt>
      <trkpt lat="54.258471038192511" lon="10.927431844174862">
        <ele>0</ele>
        <time>2010-01-03T03:10:34Z</time>
      </trkpt>
      <trkpt lat="54.258507918566465" lon="10.927084665745497">
        <ele>0</ele>
        <time>2010-01-03T03:10:42Z</time>
      </trkpt>
      <trkpt lat="54.258540943264961" lon="10.926852151751518">
        <ele>0</ele>
        <time>2010-01-03T03:10:48Z</time>
      </trkpt>
      <trkpt lat="54.258580505847931" lon="10.926657691597939">
        <ele>0</ele>
        <time>2010-01-03T03:10:53Z</time>
      </trkpt>
      <trkpt lat="54.258657535538077" lon="10.926431715488434">
        <ele>0</ele>
        <time>2010-01-03T03:10:59Z</time>
      </trkpt>
      <trkpt lat="54.258730206638575" lon="10.926257958635688">
        <ele>0</ele>
        <time>2010-01-03T03:11:04Z</time>
      </trkpt>
      <trkpt lat="54.258887702599168" lon="10.92594045214355">
        <ele>0</ele>
        <time>2010-01-03T03:11:14Z</time>
      </trkpt>
      <trkpt lat="54.259022148326039" lon="10.925701232627034">
        <ele>0</ele>
        <time>2010-01-03T03:11:21Z</time>
      </trkpt>
      <trkpt lat="54.259155755862594" lon="10.925462516024709">
        <ele>0</ele>
        <time>2010-01-03T03:11:29Z</time>
      </trkpt>
      <trkpt lat="54.259274611249566" lon="10.925194127485156">
        <ele>0</ele>
        <time>2010-01-03T03:11:37Z</time>
      </trkpt>
      <trkpt lat="54.259310318157077" lon="10.925070410594344">
        <ele>0</ele>
        <time>2010-01-03T03:11:40Z</time>
      </trkpt>
      <trkpt lat="54.259408805519342" lon="10.924648968502879">
        <ele>0</ele>
        <time>2010-01-03T03:11:51Z</time>
      </trkpt>
      <trkpt lat="54.259492456912994" lon="10.924325091764331">
        <ele>0</ele>
        <time>2010-01-03T03:11:59Z</time>
      </trkpt>
      <trkpt lat="54.259522296488285" lon="10.924256192520261">
        <ele>0</ele>
        <time>2010-01-03T03:12:01Z</time>
      </trkpt>
      <trkpt lat="54.25964224152267" lon="10.924010602757335">
        <ele>0</ele>
        <time>2010-01-03T03:12:09Z</time>
      </trkpt>
      <trkpt lat="54.259946588426828" lon="10.923477848991752">
        <ele>0</ele>
        <time>2010-01-03T03:12:26Z</time>
      </trkpt>
      <trkpt lat="54.260135348886251" lon="10.923089263960719">
        <ele>0</ele>
        <time>2010-01-03T03:12:38Z</time>
      </trkpt>
      <trkpt lat="54.260220676660538" lon="10.922884494066238">
        <ele>0</ele>
        <time>2010-01-03T03:12:44Z</time>
      </trkpt>
      <trkpt lat="54.26027943380177" lon="10.922720292583108">
        <ele>0</ele>
        <time>2010-01-03T03:12:48Z</time>
      </trkpt>
      <trkpt lat="54.260319415479898" lon="10.922573441639543">
        <ele>0</ele>
        <time>2010-01-03T03:12:52Z</time>
      </trkpt>
      <trkpt lat="54.260352775454521" lon="10.922379232943058">
        <ele>0</ele>
        <time>2010-01-03T03:12:57Z</time>
      </trkpt>
      <trkpt lat="54.260364677757025" lon="10.922206984832883">
        <ele>0</ele>
        <time>2010-01-03T03:13:01Z</time>
      </trkpt>
      <trkpt lat="54.260367108508945" lon="10.921976733952761">
        <ele>0</ele>
        <time>2010-01-03T03:13:06Z</time>
      </trkpt>
      <trkpt lat="54.260344645008445" lon="10.921271396800876">
        <ele>0</ele>
        <time>2010-01-03T03:13:23Z</time>
      </trkpt>
      <trkpt lat="54.260291755199432" lon="10.920378137379885">
        <ele>0</ele>
        <time>2010-01-03T03:13:44Z</time>
      </trkpt>
      <trkpt lat="54.260274572297931" lon="10.920165237039328">
        <ele>0</ele>
        <time>2010-01-03T03:13:49Z</time>
      </trkpt>
      <trkpt lat="54.26028722897172" lon="10.919980751350522">
        <ele>0</ele>
        <time>2010-01-03T03:13:53Z</time>
      </trkpt>
      <trkpt lat="54.260303406044841" lon="10.919872876256704">
        <ele>0</ele>
        <time>2010-01-03T03:13:56Z</time>
      </trkpt>
      <trkpt lat="54.260319080203772" lon="10.919815711677074">
        <ele>0</ele>
        <time>2010-01-03T03:13:57Z</time>
      </trkpt>
      <trkpt lat="54.260345147922635" lon="10.919721415266395">
        <ele>0</ele>
        <time>2010-01-03T03:14:00Z</time>
      </trkpt>
      <trkpt lat="54.260363420471549" lon="10.919653438031673">
        <ele>0</ele>
        <time>2010-01-03T03:14:01Z</time>
      </trkpt>
      <trkpt lat="54.260423434898257" lon="10.919535253196955">
        <ele>0</ele>
        <time>2010-01-03T03:14:05Z</time>
      </trkpt>
      <trkpt lat="54.260472720488906" lon="10.919421929866076">
        <ele>0</ele>
        <time>2010-01-03T03:14:08Z</time>
      </trkpt>
      <trkpt lat="54.260518653318286" lon="10.919333249330521">
        <ele>0</ele>
        <time>2010-01-03T03:14:11Z</time>
      </trkpt>
      <trkpt lat="54.260571962222457" lon="10.919264350086451">
        <ele>0</ele>
        <time>2010-01-03T03:14:14Z</time>
      </trkpt>
      <trkpt lat="54.260615799576044" lon="10.919244736433029">
        <ele>0</ele>
        <time>2010-01-03T03:14:16Z</time>
      </trkpt>
      <trkpt lat="54.260681429877877" lon="10.919253788888454">
        <ele>0</ele>
        <time>2010-01-03T03:14:18Z</time>
      </trkpt>
      <trkpt lat="54.26076952368021" lon="10.919257644563913">
        <ele>0</ele>
        <time>2010-01-03T03:14:22Z</time>
      </trkpt>
      <trkpt lat="54.260883685201406" lon="10.919259237125516">
        <ele>0</ele>
        <time>2010-01-03T03:14:26Z</time>
      </trkpt>
      <trkpt lat="54.260939508676529" lon="10.919249514117837">
        <ele>0</ele>
        <time>2010-01-03T03:14:29Z</time>
      </trkpt>
      <trkpt lat="54.260955434292555" lon="10.919246580451727">
        <ele>0</ele>
        <time>2010-01-03T03:14:29Z</time>
      </trkpt>
      <trkpt lat="54.261235138401389" lon="10.919184051454067">
        <ele>0</ele>
        <time>2010-01-03T03:14:41Z</time>
      </trkpt>
      <trkpt lat="54.261657753959298" lon="10.919057736173272">
        <ele>0</ele>
        <time>2010-01-03T03:14:58Z</time>
      </trkpt>
      <trkpt lat="54.261780716478825" lon="10.919226380065084">
        <ele>0</ele>
        <time>2010-01-03T03:15:04Z</time>
      </trkpt>
      <trkpt lat="54.262153375893831" lon="10.919738598167896">
        <ele>0</ele>
        <time>2010-01-03T03:15:23Z</time>
      </trkpt>
      <trkpt lat="54.262248175218701" lon="10.919852675870061">
        <ele>0</ele>
        <time>2010-01-03T03:15:28Z</time>
      </trkpt>
      <trkpt lat="54.262355463579297" lon="10.919958371669054">
        <ele>0</ele>
        <time>2010-01-03T03:15:33Z</time>
      </trkpt>
      <trkpt lat="54.262584540992975" lon="10.920144030824304">
        <ele>0</ele>
        <time>2010-01-03T03:15:43Z</time>
      </trkpt>
      <trkpt lat="54.262719992548227" lon="10.920251738280058">
        <ele>0</ele>
        <time>2010-01-03T03:15:49Z</time>
      </trkpt>
      <trkpt lat="54.262849241495132" lon="10.920334300026298">
        <ele>0</ele>
        <time>2010-01-03T03:15:54Z</time>
      </trkpt>
      <trkpt lat="54.262910597026348" lon="10.920364977791905">
        <ele>0</ele>
        <time>2010-01-03T03:15:57Z</time>
      </trkpt>
      <trkpt lat="54.263033308088779" lon="10.92042775824666">
        <ele>0</ele>
        <time>2010-01-03T03:16:02Z</time>
      </trkpt>
      <trkpt lat="54.263135315850377" lon="10.920481905341148">
        <ele>0</ele>
        <time>2010-01-03T03:16:06Z</time>
      </trkpt>
      <trkpt lat="54.263195749372244" lon="10.920509481802583">
        <ele>0</ele>
        <time>2010-01-03T03:16:09Z</time>
      </trkpt>
      <trkpt lat="54.263287531211972" lon="10.92053035274148">
        <ele>0</ele>
        <time>2010-01-03T03:16:13Z</time>
      </trkpt>
      <trkpt lat="54.263355927541852" lon="10.920532867312431">
        <ele>0</ele>
        <time>2010-01-03T03:16:15Z</time>
      </trkpt>
      <trkpt lat="54.263526415452361" lon="10.920506967231631">
        <ele>0</ele>
        <time>2010-01-03T03:16:22Z</time>
      </trkpt>
      <trkpt lat="54.263889519497752" lon="10.920420717447996">
        <ele>0</ele>
        <time>2010-01-03T03:16:37Z</time>
      </trkpt>
      <trkpt lat="54.26400326192379" lon="10.92039012350142">
        <ele>0</ele>
        <time>2010-01-03T03:16:41Z</time>
      </trkpt>
      <trkpt lat="54.264097642153502" lon="10.920389201492071">
        <ele>0</ele>
        <time>2010-01-03T03:16:45Z</time>
      </trkpt>
      <trkpt lat="54.264178862795234" lon="10.92043312266469">
        <ele>0</ele>
        <time>2010-01-03T03:16:49Z</time>
      </trkpt>
      <trkpt lat="54.264255808666348" lon="10.920494059100747">
        <ele>0</ele>
        <time>2010-01-03T03:16:52Z</time>
      </trkpt>
      <trkpt lat="54.264341136440635" lon="10.920594641938806">
        <ele>0</ele>
        <time>2010-01-03T03:16:56Z</time>
      </trkpt>
      <trkpt lat="54.264396457001567" lon="10.920648453757167">
        <ele>0</ele>
        <time>2010-01-03T03:16:59Z</time>
      </trkpt>
      <trkpt lat="54.264449765905738" lon="10.920683909207582">
        <ele>0</ele>
        <time>2010-01-03T03:17:01Z</time>
      </trkpt>
      <trkpt lat="54.26450458355248" lon="10.920685585588217">
        <ele>0</ele>
        <time>2010-01-03T03:17:03Z</time>
      </trkpt>
      <trkpt lat="54.264532160013914" lon="10.920654153451324">
        <ele>0</ele>
        <time>2010-01-03T03:17:05Z</time>
      </trkpt>
      <trkpt lat="54.264582451432943" lon="10.920554576441646">
        <ele>0</ele>
        <time>2010-01-03T03:17:08Z</time>
      </trkpt>
      <trkpt lat="54.26483147777617" lon="10.91976223513484">
        <ele>0</ele>
        <time>2010-01-03T03:17:29Z</time>
      </trkpt>
      <trkpt lat="54.265181003138423" lon="10.918671078979969">
        <ele>0</ele>
        <time>2010-01-03T03:17:58Z</time>
      </trkpt>
      <trkpt lat="54.265309497714043" lon="10.918268663808703">
        <ele>0</ele>
        <time>2010-01-03T03:18:08Z</time>
      </trkpt>
      <trkpt lat="54.265710236504674" lon="10.917002409696579">
        <ele>0</ele>
        <time>2010-01-03T03:18:42Z</time>
      </trkpt>
      <trkpt lat="54.265838982537389" lon="10.916595635935664">
        <ele>0</ele>
        <time>2010-01-03T03:18:53Z</time>
      </trkpt>
      <trkpt lat="54.265851890668273" lon="10.916554983705282">
        <ele>0</ele>
        <time>2010-01-03T03:18:54Z</time>
      </trkpt>
      <trkpt lat="54.266300238668919" lon="10.915143890306354">
        <ele>0</ele>
        <time>2010-01-03T03:19:32Z</time>
      </trkpt>
      <trkpt lat="54.266398139297962" lon="10.914834346622229">
        <ele>0</ele>
        <time>2010-01-03T03:19:40Z</time>
      </trkpt>
      <trkpt lat="54.266647920012474" lon="10.914038820192218">
        <ele>0</ele>
        <time>2010-01-03T03:20:01Z</time>
      </trkpt>
      <trkpt lat="54.266744898632169" lon="10.913729360327125">
        <ele>0</ele>
        <time>2010-01-03T03:20:09Z</time>
      </trkpt>
      <trkpt lat="54.266914715990424" lon="10.913232145830989">
        <ele>0</ele>
        <time>2010-01-03T03:20:23Z</time>
      </trkpt>
      <trkpt lat="54.266960565000772" lon="10.913078254088759">
        <ele>0</ele>
        <time>2010-01-03T03:20:27Z</time>
      </trkpt>
      <trkpt lat="54.266995768994093" lon="10.912959901615977">
        <ele>0</ele>
        <time>2010-01-03T03:20:30Z</time>
      </trkpt>
      <trkpt lat="54.267044132575393" lon="10.912808692082763">
        <ele>0</ele>
        <time>2010-01-03T03:20:34Z</time>
      </trkpt>
      <trkpt lat="54.267168771475554" lon="10.912418179214001">
        <ele>0</ele>
        <time>2010-01-03T03:20:44Z</time>
      </trkpt>
      <trkpt lat="54.267338253557682" lon="10.911879558116198">
        <ele>0</ele>
        <time>2010-01-03T03:20:58Z</time>
      </trkpt>
      <trkpt lat="54.267612425610423" lon="10.91100356541574">
        <ele>0</ele>
        <time>2010-01-03T03:21:22Z</time>
      </trkpt>
      <trkpt lat="54.267795821651816" lon="10.910418508574367">
        <ele>0</ele>
        <time>2010-01-03T03:21:37Z</time>
      </trkpt>
      <trkpt lat="54.267908809706569" lon="10.910097816959023">
        <ele>0</ele>
        <time>2010-01-03T03:21:46Z</time>
      </trkpt>
      <trkpt lat="54.268238134682178" lon="10.909158959984779">
        <ele>0</ele>
        <time>2010-01-03T03:22:12Z</time>
      </trkpt>
      <trkpt lat="54.269327027723193" lon="10.91014944948256">
        <ele>0</ele>
        <time>2010-01-03T03:23:01Z</time>
      </trkpt>
      <trkpt lat="54.269736651331186" lon="10.910533173009753">
        <ele>0</ele>
        <time>2010-01-03T03:23:20Z</time>
      </trkpt>
      <trkpt lat="54.269833546131849" lon="10.910625793039799">
        <ele>0</ele>
        <time>2010-01-03T03:23:24Z</time>
      </trkpt>
      <trkpt lat="54.270787490531802" lon="10.911495583131909">
        <ele>0</ele>
        <time>2010-01-03T03:24:07Z</time>
      </trkpt>
      <trkpt lat="54.271375481039286" lon="10.912047112360597">
        <ele>0</ele>
        <time>2010-01-03T03:24:34Z</time>
      </trkpt>
      <trkpt lat="54.271618891507387" lon="10.911334399133921">
        <ele>0</ele>
        <time>2010-01-03T03:24:53Z</time>
      </trkpt>
      <trkpt lat="54.271716959774494" lon="10.911047570407391">
        <ele>0</ele>
        <time>2010-01-03T03:25:01Z</time>
      </trkpt>
      <trkpt lat="54.272022983059287" lon="10.910151628777385">
        <ele>0</ele>
        <time>2010-01-03T03:25:26Z</time>
      </trkpt>
      <trkpt lat="54.272106885910034" lon="10.909905955195427">
        <ele>0</ele>
        <time>2010-01-03T03:25:32Z</time>
      </trkpt>
      <trkpt lat="54.272312661632895" lon="10.909303380176425">
        <ele>0</ele>
        <time>2010-01-03T03:25:48Z</time>
      </trkpt>
      <trkpt lat="54.272471498697996" lon="10.908826952800155">
        <ele>0</ele>
        <time>2010-01-03T03:26:01Z</time>
      </trkpt>
      <trkpt lat="54.272493962198496" lon="10.908759478479624">
        <ele>0</ele>
        <time>2010-01-03T03:26:03Z</time>
      </trkpt>
      <trkpt lat="54.272560514509678" lon="10.908559821546078">
        <ele>0</ele>
        <time>2010-01-03T03:26:08Z</time>
      </trkpt>
      <trkpt lat="54.27267299965024" lon="10.908228065818548">
        <ele>0</ele>
        <time>2010-01-03T03:26:17Z</time>
      </trkpt>
      <trkpt lat="54.272749442607164" lon="10.908002341166139">
        <ele>0</ele>
        <time>2010-01-03T03:26:24Z</time>
      </trkpt>
      <trkpt lat="54.272860335186124" lon="10.907675195485353">
        <ele>0</ele>
        <time>2010-01-03T03:26:32Z</time>
      </trkpt>
      <trkpt lat="54.272915152832866" lon="10.907513676211238">
        <ele>0</ele>
        <time>2010-01-03T03:26:37Z</time>
      </trkpt>
      <trkpt lat="54.273142218589783" lon="10.906843543052673">
        <ele>0</ele>
        <time>2010-01-03T03:26:55Z</time>
      </trkpt>
      <trkpt lat="54.273351598531008" lon="10.906225461512804">
        <ele>0</ele>
        <time>2010-01-03T03:27:12Z</time>
      </trkpt>
      <trkpt lat="54.273414630442858" lon="10.906039634719491">
        <ele>0</ele>
        <time>2010-01-03T03:27:17Z</time>
      </trkpt>
      <trkpt lat="54.273544047027826" lon="10.905650882050395">
        <ele>0</ele>
        <time>2010-01-03T03:27:27Z</time>
      </trkpt>
      <trkpt lat="54.273683521896601" lon="10.905231786891818">
        <ele>0</ele>
        <time>2010-01-03T03:27:38Z</time>
      </trkpt>
      <trkpt lat="54.273728616535664" lon="10.905096419155598">
        <ele>0</ele>
        <time>2010-01-03T03:27:42Z</time>
      </trkpt>
      <trkpt lat="54.273803969845176" lon="10.904869353398681">
        <ele>0</ele>
        <time>2010-01-03T03:27:48Z</time>
      </trkpt>
      <trkpt lat="54.274161458015442" lon="10.90379236266017">
        <ele>0</ele>
        <time>2010-01-03T03:28:17Z</time>
      </trkpt>
      <trkpt lat="54.274236643686891" lon="10.903564710170031">
        <ele>0</ele>
        <time>2010-01-03T03:28:23Z</time>
      </trkpt>
      <trkpt lat="54.274705778807402" lon="10.902152024209499">
        <ele>0</ele>
        <time>2010-01-03T03:29:01Z</time>
      </trkpt>
      <trkpt lat="54.274928402155638" lon="10.901481555774808">
        <ele>0</ele>
        <time>2010-01-03T03:29:19Z</time>
      </trkpt>
      <trkpt lat="54.274993194267154" lon="10.901297070086002">
        <ele>0</ele>
        <time>2010-01-03T03:29:24Z</time>
      </trkpt>
      <trkpt lat="54.275048766285181" lon="10.901185087859631">
        <ele>0</ele>
        <time>2010-01-03T03:29:28Z</time>
      </trkpt>
      <trkpt lat="54.275048431009054" lon="10.901142088696361">
        <ele>0</ele>
        <time>2010-01-03T03:29:29Z</time>
      </trkpt>
      <trkpt lat="54.275063099339604" lon="10.901075704023242">
        <ele>0</ele>
        <time>2010-01-03T03:29:30Z</time>
      </trkpt>
      <trkpt lat="54.275086736306548" lon="10.901009067893028">
        <ele>0</ele>
        <time>2010-01-03T03:29:32Z</time>
      </trkpt>
      <trkpt lat="54.275210117921233" lon="10.90064805932343">
        <ele>0</ele>
        <time>2010-01-03T03:29:42Z</time>
      </trkpt>
      <trkpt lat="54.275665590539575" lon="10.899261943995953">
        <ele>0</ele>
        <time>2010-01-03T03:30:19Z</time>
      </trkpt>
      <trkpt lat="54.275742536410689" lon="10.899029681459069">
        <ele>0</ele>
        <time>2010-01-03T03:30:25Z</time>
      </trkpt>
      <trkpt lat="54.276187615469098" lon="10.897695953026414">
        <ele>0</ele>
        <time>2010-01-03T03:31:01Z</time>
      </trkpt>
      <trkpt lat="54.276221729815006" lon="10.897590676322579">
        <ele>0</ele>
        <time>2010-01-03T03:31:04Z</time>
      </trkpt>
      <trkpt lat="54.276238074526191" lon="10.897510377690196">
        <ele>0</ele>
        <time>2010-01-03T03:31:06Z</time>
      </trkpt>
      <trkpt lat="54.276244528591633" lon="10.897434940561652">
        <ele>0</ele>
        <time>2010-01-03T03:31:08Z</time>
      </trkpt>
      <trkpt lat="54.27623949944973" lon="10.897373668849468">
        <ele>0</ele>
        <time>2010-01-03T03:31:09Z</time>
      </trkpt>
      <trkpt lat="54.276216281577945" lon="10.897288341075182">
        <ele>0</ele>
        <time>2010-01-03T03:31:11Z</time>
      </trkpt>
      <trkpt lat="54.276182502508163" lon="10.897230925038457">
        <ele>0</ele>
        <time>2010-01-03T03:31:13Z</time>
      </trkpt>
      <trkpt lat="54.276143359020352" lon="10.897181304171681">
        <ele>0</ele>
        <time>2010-01-03T03:31:15Z</time>
      </trkpt>
      <trkpt lat="54.276068173348904" lon="10.897109638899565">
        <ele>0</ele>
        <time>2010-01-03T03:31:19Z</time>
      </trkpt>
      <trkpt lat="54.276009248569608" lon="10.897057419642806">
        <ele>0</ele>
        <time>2010-01-03T03:31:21Z</time>
      </trkpt>
      <trkpt lat="54.275942193344235" lon="10.896991705521941">
        <ele>0</ele>
        <time>2010-01-03T03:31:24Z</time>
      </trkpt>
      <trkpt lat="54.275981672108173" lon="10.89688315987587">
        <ele>0</ele>
        <time>2010-01-03T03:31:27Z</time>
      </trkpt>
      <trkpt lat="54.276211336255074" lon="10.896258372813463">
        <ele>0</ele>
        <time>2010-01-03T03:31:45Z</time>
      </trkpt>
      <trkpt lat="54.276247294619679" lon="10.89616684243083">
        <ele>0</ele>
        <time>2010-01-03T03:31:47Z</time>
      </trkpt>
      <trkpt lat="54.276327257975936" lon="10.89596358127892">
        <ele>0</ele>
        <time>2010-01-03T03:31:53Z</time>
      </trkpt>
      <trkpt lat="54.276383249089122" lon="10.895805498585105">
        <ele>0</ele>
        <time>2010-01-03T03:31:57Z</time>
      </trkpt>
      <trkpt lat="54.276480479165912" lon="10.8955311588943">
        <ele>0</ele>
        <time>2010-01-03T03:32:05Z</time>
      </trkpt>
      <trkpt lat="54.276695642620325" lon="10.894892876967788">
        <ele>0</ele>
        <time>2010-01-03T03:32:22Z</time>
      </trkpt>
      <trkpt lat="54.276896640658379" lon="10.894271861761808">
        <ele>0</ele>
        <time>2010-01-03T03:32:39Z</time>
      </trkpt>
      <trkpt lat="54.277083305642009" lon="10.893663503229618">
        <ele>0</ele>
        <time>2010-01-03T03:32:55Z</time>
      </trkpt>
      <trkpt lat="54.27723434753716" lon="10.893089845776558">
        <ele>0</ele>
        <time>2010-01-03T03:33:09Z</time>
      </trkpt>
      <trkpt lat="54.277480440214276" lon="10.892295660451055">
        <ele>0</ele>
        <time>2010-01-03T03:33:30Z</time>
      </trkpt>
      <trkpt lat="54.277519835159183" lon="10.892180996015668">
        <ele>0</ele>
        <time>2010-01-03T03:33:34Z</time>
      </trkpt>
      <trkpt lat="54.277631733566523" lon="10.891913361847401">
        <ele>0</ele>
        <time>2010-01-03T03:33:41Z</time>
      </trkpt>
      <trkpt lat="54.277647910639644" lon="10.891874385997653">
        <ele>0</ele>
        <time>2010-01-03T03:33:42Z</time>
      </trkpt>
      <trkpt lat="54.27769560366869" lon="10.891760224476457">
        <ele>0</ele>
        <time>2010-01-03T03:33:46Z</time>
      </trkpt>
      <trkpt lat="54.277746481820941" lon="10.89161915704608">
        <ele>0</ele>
        <time>2010-01-03T03:33:50Z</time>
      </trkpt>
      <trkpt lat="54.277796437963843" lon="10.89148429222405">
        <ele>0</ele>
        <time>2010-01-03T03:33:53Z</time>
      </trkpt>
      <trkpt lat="54.278041273355484" lon="10.890751462429762">
        <ele>0</ele>
        <time>2010-01-03T03:34:13Z</time>
      </trkpt>
      <trkpt lat="54.278083434328437" lon="10.890644425526261">
        <ele>0</ele>
        <time>2010-01-03T03:34:16Z</time>
      </trkpt>
      <trkpt lat="54.278124840930104" lon="10.890557337552309">
        <ele>0</ele>
        <time>2010-01-03T03:34:19Z</time>
      </trkpt>
      <trkpt lat="54.278173372149467" lon="10.890460861846805">
        <ele>0</ele>
        <time>2010-01-03T03:34:22Z</time>
      </trkpt>
      <trkpt lat="54.278214946389198" lon="10.890390621498227">
        <ele>0</ele>
        <time>2010-01-03T03:34:24Z</time>
      </trkpt>
      <trkpt lat="54.278255514800549" lon="10.890308143571019">
        <ele>0</ele>
        <time>2010-01-03T03:34:26Z</time>
      </trkpt>
      <trkpt lat="54.278271272778511" lon="10.890267826616764">
        <ele>0</ele>
        <time>2010-01-03T03:34:28Z</time>
      </trkpt>
      <trkpt lat="54.278290634974837" lon="10.890218205749989">
        <ele>0</ele>
        <time>2010-01-03T03:34:29Z</time>
      </trkpt>
      <trkpt lat="54.278511079028249" lon="10.889545306563377">
        <ele>0</ele>
        <time>2010-01-03T03:34:47Z</time>
      </trkpt>
      <trkpt lat="54.278884828090668" lon="10.888404361903667">
        <ele>0</ele>
        <time>2010-01-03T03:35:18Z</time>
      </trkpt>
      <trkpt lat="54.279063865542412" lon="10.888528497889638">
        <ele>0</ele>
        <time>2010-01-03T03:35:25Z</time>
      </trkpt>
      <trkpt lat="54.279128070920706" lon="10.888571329414845">
        <ele>0</ele>
        <time>2010-01-03T03:35:28Z</time>
      </trkpt>
      <trkpt lat="54.279244160279632" lon="10.888691022992134">
        <ele>0</ele>
        <time>2010-01-03T03:35:34Z</time>
      </trkpt>
      <trkpt lat="54.279296044260263" lon="10.88875874876976">
        <ele>0</ele>
        <time>2010-01-03T03:35:36Z</time>
      </trkpt>
      <trkpt lat="54.279388748109341" lon="10.888879029080272">
        <ele>0</ele>
        <time>2010-01-03T03:35:41Z</time>
      </trkpt>
      <trkpt lat="54.279463430866599" lon="10.888989083468914">
        <ele>0</ele>
        <time>2010-01-03T03:35:45Z</time>
      </trkpt>
      <trkpt lat="54.279547417536378" lon="10.889131156727672">
        <ele>0</ele>
        <time>2010-01-03T03:35:49Z</time>
      </trkpt>
      <trkpt lat="54.279677839949727" lon="10.889339530840516">
        <ele>0</ele>
        <time>2010-01-03T03:35:57Z</time>
      </trkpt>
      <trkpt lat="54.279768029227853" lon="10.889476826414466">
        <ele>0</ele>
        <time>2010-01-03T03:36:01Z</time>
      </trkpt>
      <trkpt lat="54.279962070286274" lon="10.889769522473216">
        <ele>0</ele>
        <time>2010-01-03T03:36:12Z</time>
      </trkpt>
      <trkpt lat="54.280406311154366" lon="10.890396237373352">
        <ele>0</ele>
        <time>2010-01-03T03:36:35Z</time>
      </trkpt>
      <trkpt lat="54.2805081512779" lon="10.890531688928604">
        <ele>0</ele>
        <time>2010-01-03T03:36:40Z</time>
      </trkpt>
      <trkpt lat="54.280844181776047" lon="10.890949526801705">
        <ele>0</ele>
        <time>2010-01-03T03:36:57Z</time>
      </trkpt>
      <trkpt lat="54.280910901725292" lon="10.891039883717895">
        <ele>0</ele>
        <time>2010-01-03T03:37:00Z</time>
      </trkpt>
      <trkpt lat="54.280939986929297" lon="10.891079027205706">
        <ele>0</ele>
        <time>2010-01-03T03:37:02Z</time>
      </trkpt>
      <trkpt lat="54.280961863696575" lon="10.891105178743601">
        <ele>0</ele>
        <time>2010-01-03T03:37:03Z</time>
      </trkpt>
      <trkpt lat="54.283817745745182" lon="10.887021264061332">
        <ele>0</ele>
        <time>2010-01-03T03:39:32Z</time>
      </trkpt>
      <trkpt lat="54.283871557563543" lon="10.886946748942137">
        <ele>0</ele>
        <time>2010-01-03T03:39:34Z</time>
      </trkpt>
      <trkpt lat="54.284645793959498" lon="10.885874954983592">
        <ele>0</ele>
        <time>2010-01-03T03:40:14Z</time>
      </trkpt>
      <trkpt lat="54.284768421202898" lon="10.885657109320164">
        <ele>0</ele>
        <time>2010-01-03T03:40:21Z</time>
      </trkpt>
      <trkpt lat="54.284816784784198" lon="10.885571194812655">
        <ele>0</ele>
        <time>2010-01-03T03:40:24Z</time>
      </trkpt>
      <trkpt lat="54.284916361793876" lon="10.885394420474768">
        <ele>0</ele>
        <time>2010-01-03T03:40:30Z</time>
      </trkpt>
      <trkpt lat="54.2851188685745" lon="10.88499485515058">
        <ele>0</ele>
        <time>2010-01-03T03:40:42Z</time>
      </trkpt>
      <trkpt lat="54.285500077530742" lon="10.884265461936593">
        <ele>0</ele>
        <time>2010-01-03T03:41:05Z</time>
      </trkpt>
      <trkpt lat="54.285585740581155" lon="10.884092124179006">
        <ele>0</ele>
        <time>2010-01-03T03:41:10Z</time>
      </trkpt>
      <trkpt lat="54.286235757172108" lon="10.882771722972393">
        <ele>0</ele>
        <time>2010-01-03T03:41:51Z</time>
      </trkpt>
      <trkpt lat="54.286262160167098" lon="10.882709277793765">
        <ele>0</ele>
        <time>2010-01-03T03:41:52Z</time>
      </trkpt>
      <trkpt lat="54.286270122975111" lon="10.882650688290596">
        <ele>0</ele>
        <time>2010-01-03T03:41:54Z</time>
      </trkpt>
      <trkpt lat="54.286275319755077" lon="10.882550776004791">
        <ele>0</ele>
        <time>2010-01-03T03:41:56Z</time>
      </trkpt>
      <trkpt lat="54.286282109096646" lon="10.882512470707297">
        <ele>0</ele>
        <time>2010-01-03T03:41:57Z</time>
      </trkpt>
      <trkpt lat="54.286287808790803" lon="10.882480703294277">
        <ele>0</ele>
        <time>2010-01-03T03:41:58Z</time>
      </trkpt>
      <trkpt lat="54.286314882338047" lon="10.882416749373078">
        <ele>0</ele>
        <time>2010-01-03T03:42:00Z</time>
      </trkpt>
      <trkpt lat="54.286333406344056" lon="10.882372744381428">
        <ele>0</ele>
        <time>2010-01-03T03:42:01Z</time>
      </trkpt>
      <trkpt lat="54.286442035809159" lon="10.882103266194463">
        <ele>0</ele>
        <time>2010-01-03T03:42:09Z</time>
      </trkpt>
      <trkpt lat="54.287046119570732" lon="10.880597960203886">
        <ele>0</ele>
        <time>2010-01-03T03:42:51Z</time>
      </trkpt>
      <trkpt lat="54.287577867507935" lon="10.879570171236992">
        <ele>0</ele>
        <time>2010-01-03T03:43:23Z</time>
      </trkpt>
      <trkpt lat="54.287607371807098" lon="10.879544019699097">
        <ele>0</ele>
        <time>2010-01-03T03:43:25Z</time>
      </trkpt>
      <trkpt lat="54.28763922303915" lon="10.87953781709075">
        <ele>0</ele>
        <time>2010-01-03T03:43:26Z</time>
      </trkpt>
      <trkpt lat="54.287675768136978" lon="10.879554580897093">
        <ele>0</ele>
        <time>2010-01-03T03:43:28Z</time>
      </trkpt>
      <trkpt lat="54.287713235244155" lon="10.87959892116487">
        <ele>0</ele>
        <time>2010-01-03T03:43:29Z</time>
      </trkpt>
      <trkpt lat="54.287761179730296" lon="10.879655499011278">
        <ele>0</ele>
        <time>2010-01-03T03:43:32Z</time>
      </trkpt>
      <trkpt lat="54.287847680971026" lon="10.879782568663359">
        <ele>0</ele>
        <time>2010-01-03T03:43:36Z</time>
      </trkpt>
      <trkpt lat="54.287954717874527" lon="10.879992954432964">
        <ele>0</ele>
        <time>2010-01-03T03:43:43Z</time>
      </trkpt>
      <trkpt lat="54.288048343732953" lon="10.880125304684043">
        <ele>0</ele>
        <time>2010-01-03T03:43:48Z</time>
      </trkpt>
      <trkpt lat="54.28813124075532" lon="10.880201663821936">
        <ele>0</ele>
        <time>2010-01-03T03:43:51Z</time>
      </trkpt>
      <trkpt lat="54.288195697590709" lon="10.880268551409245">
        <ele>0</ele>
        <time>2010-01-03T03:43:54Z</time>
      </trkpt>
      <trkpt lat="54.288260489702225" lon="10.880380030721426">
        <ele>0</ele>
        <time>2010-01-03T03:43:58Z</time>
      </trkpt>
      <trkpt lat="54.288328131660819" lon="10.880515147000551">
        <ele>0</ele>
        <time>2010-01-03T03:44:02Z</time>
      </trkpt>
      <trkpt lat="54.28837850689888" lon="10.880675325170159">
        <ele>0</ele>
        <time>2010-01-03T03:44:07Z</time>
      </trkpt>
      <trkpt lat="54.288365766406059" lon="10.880812620744109">
        <ele>0</ele>
        <time>2010-01-03T03:44:10Z</time>
      </trkpt>
      <trkpt lat="54.288379596546292" lon="10.880955280736089">
        <ele>0</ele>
        <time>2010-01-03T03:44:13Z</time>
      </trkpt>
      <trkpt lat="54.288412034511566" lon="10.881028370931745">
        <ele>0</ele>
        <time>2010-01-03T03:44:15Z</time>
      </trkpt>
      <trkpt lat="54.288448076695204" lon="10.881088217720389">
        <ele>0</ele>
        <time>2010-01-03T03:44:17Z</time>
      </trkpt>
      <trkpt lat="54.288506750017405" lon="10.881159547716379">
        <ele>0</ele>
        <time>2010-01-03T03:44:20Z</time>
      </trkpt>
      <trkpt lat="54.288517227396369" lon="10.881131635978818">
        <ele>0</ele>
        <time>2010-01-03T03:44:20Z</time>
      </trkpt>
      <trkpt lat="54.288532314822078" lon="10.881112860515714">
        <ele>0</ele>
        <time>2010-01-03T03:44:21Z</time>
      </trkpt>
      <trkpt lat="54.288550252094865" lon="10.881106154993176">
        <ele>0</ele>
        <time>2010-01-03T03:44:22Z</time>
      </trkpt>
      <trkpt lat="54.288579002022743" lon="10.881106909364462">
        <ele>0</ele>
        <time>2010-01-03T03:44:23Z</time>
      </trkpt>
      <trkpt lat="54.288616888225079" lon="10.88112585246563">
        <ele>0</ele>
        <time>2010-01-03T03:44:24Z</time>
      </trkpt>
      <trkpt lat="54.288706323131919" lon="10.881175640970469">
        <ele>0</ele>
        <time>2010-01-03T03:44:28Z</time>
      </trkpt>
      <trkpt lat="54.289312418550253" lon="10.881529357284307">
        <ele>0</ele>
        <time>2010-01-03T03:44:54Z</time>
      </trkpt>
      <trkpt lat="54.28998070769012" lon="10.881896736100316">
        <ele>0</ele>
        <time>2010-01-03T03:45:22Z</time>
      </trkpt>
      <trkpt lat="54.290143232792616" lon="10.881982902064919">
        <ele>0</ele>
        <time>2010-01-03T03:45:29Z</time>
      </trkpt>
      <trkpt lat="54.290243312716484" lon="10.882024811580777">
        <ele>0</ele>
        <time>2010-01-03T03:45:33Z</time>
      </trkpt>
      <trkpt lat="54.290339788421988" lon="10.882054399698973">
        <ele>0</ele>
        <time>2010-01-03T03:45:37Z</time>
      </trkpt>
      <trkpt lat="54.290450429543853" lon="10.882071414962411">
        <ele>0</ele>
        <time>2010-01-03T03:45:41Z</time>
      </trkpt>
      <trkpt lat="54.290503319352865" lon="10.882078120484948">
        <ele>0</ele>
        <time>2010-01-03T03:45:43Z</time>
      </trkpt>
      <trkpt lat="54.290561070665717" lon="10.882085245102644">
        <ele>0</ele>
        <time>2010-01-03T03:45:46Z</time>
      </trkpt>
      <trkpt lat="54.29062862880528" lon="10.882101841270924">
        <ele>0</ele>
        <time>2010-01-03T03:45:48Z</time>
      </trkpt>
      <trkpt lat="54.290698869153857" lon="10.882127657532692">
        <ele>0</ele>
        <time>2010-01-03T03:45:51Z</time>
      </trkpt>
      <trkpt lat="54.290747735649347" lon="10.882161604240537">
        <ele>0</ele>
        <time>2010-01-03T03:45:53Z</time>
      </trkpt>
      <trkpt lat="54.290773971006274" lon="10.882180882617831">
        <ele>0</ele>
        <time>2010-01-03T03:45:55Z</time>
      </trkpt>
      <trkpt lat="54.290796769782901" lon="10.882215583696961">
        <ele>0</ele>
        <time>2010-01-03T03:45:56Z</time>
      </trkpt>
      <trkpt lat="54.290852509438992" lon="10.88232153095305">
        <ele>0</ele>
        <time>2010-01-03T03:45:59Z</time>
      </trkpt>
      <trkpt lat="54.290981590747833" lon="10.882185995578766">
        <ele>0</ele>
        <time>2010-01-03T03:46:05Z</time>
      </trkpt>
      <trkpt lat="54.291069516912103" lon="10.88207921013236">
        <ele>0</ele>
        <time>2010-01-03T03:46:09Z</time>
      </trkpt>
      <trkpt lat="54.291293565183878" lon="10.882117683067918">
        <ele>0</ele>
        <time>2010-01-03T03:46:18Z</time>
      </trkpt>
      <trkpt lat="54.291411330923438" lon="10.882126735523343">
        <ele>0</ele>
        <time>2010-01-03T03:46:23Z</time>
      </trkpt>
      <trkpt lat="54.291425747796893" lon="10.882127908989787">
        <ele>0</ele>
        <time>2010-01-03T03:46:24Z</time>
      </trkpt>
      <trkpt lat="54.29161811247468" lon="10.88213344104588">
        <ele>0</ele>
        <time>2010-01-03T03:46:31Z</time>
      </trkpt>
      <trkpt lat="54.291893960908055" lon="10.882141320034862">
        <ele>0</ele>
        <time>2010-01-03T03:46:42Z</time>
      </trkpt>
      <trkpt lat="54.292015079408884" lon="10.882221031934023">
        <ele>0</ele>
        <time>2010-01-03T03:46:48Z</time>
      </trkpt>
      <trkpt lat="54.292130498215556" lon="10.882267048582435">
        <ele>0</ele>
        <time>2010-01-03T03:46:52Z</time>
      </trkpt>
      <trkpt lat="54.292253963649273" lon="10.882305186241865">
        <ele>0</ele>
        <time>2010-01-03T03:46:57Z</time>
      </trkpt>
      <trkpt lat="54.292393438518047" lon="10.882325973361731">
        <ele>0</ele>
        <time>2010-01-03T03:47:03Z</time>
      </trkpt>
      <trkpt lat="54.292528303340077" lon="10.882342234253883">
        <ele>0</ele>
        <time>2010-01-03T03:47:08Z</time>
      </trkpt>
      <trkpt lat="54.292543642222881" lon="10.882341815158725">
        <ele>0</ele>
        <time>2010-01-03T03:47:09Z</time>
      </trkpt>
      <trkpt lat="54.292584881186485" lon="10.882339216768742">
        <ele>0</ele>
        <time>2010-01-03T03:47:11Z</time>
      </trkpt>
      <trkpt lat="54.29262176156044" lon="10.882338210940361">
        <ele>0</ele>
        <time>2010-01-03T03:47:12Z</time>
      </trkpt>
      <trkpt lat="54.292712369933724" lon="10.88232496753335">
        <ele>0</ele>
        <time>2010-01-03T03:47:16Z</time>
      </trkpt>
      <trkpt lat="54.292800212278962" lon="10.882307281717658">
        <ele>0</ele>
        <time>2010-01-03T03:47:19Z</time>
      </trkpt>
      <trkpt lat="54.292906913906336" lon="10.882278280332685">
        <ele>0</ele>
        <time>2010-01-03T03:47:24Z</time>
      </trkpt>
      <trkpt lat="54.293012442067266" lon="10.882232431322336">
        <ele>0</ele>
        <time>2010-01-03T03:47:28Z</time>
      </trkpt>
      <trkpt lat="54.293111767619848" lon="10.882183648645878">
        <ele>0</ele>
        <time>2010-01-03T03:47:32Z</time>
      </trkpt>
      <trkpt lat="54.293209165334702" lon="10.882131848484278">
        <ele>0</ele>
        <time>2010-01-03T03:47:36Z</time>
      </trkpt>
      <trkpt lat="54.293296756222844" lon="10.882074180990458">
        <ele>0</ele>
        <time>2010-01-03T03:47:40Z</time>
      </trkpt>
      <trkpt lat="54.293387113139033" lon="10.882036378607154">
        <ele>0</ele>
        <time>2010-01-03T03:47:44Z</time>
      </trkpt>
      <trkpt lat="54.29341577924788" lon="10.882024895399809">
        <ele>0</ele>
        <time>2010-01-03T03:47:45Z</time>
      </trkpt>
      <trkpt lat="54.29347830824554" lon="10.881990948691964">
        <ele>0</ele>
        <time>2010-01-03T03:47:48Z</time>
      </trkpt>
      <trkpt lat="54.293546453118324" lon="10.881970664486289">
        <ele>0</ele>
        <time>2010-01-03T03:47:50Z</time>
      </trkpt>
      <trkpt lat="54.293581070378423" lon="10.881961109116673">
        <ele>0</ele>
        <time>2010-01-03T03:47:52Z</time>
      </trkpt>
      <trkpt lat="54.293580986559391" lon="10.882336534559727">
        <ele>0</ele>
        <time>2010-01-03T03:48:01Z</time>
      </trkpt>
      <trkpt lat="54.2935995105654" lon="10.882655801251531">
        <ele>0</ele>
        <time>2010-01-03T03:48:08Z</time>
      </trkpt>
      <trkpt lat="54.293646113947034" lon="10.882642222568393">
        <ele>0</ele>
        <time>2010-01-03T03:48:10Z</time>
      </trkpt>
      <trkpt lat="54.293726747855544" lon="10.882621603086591">
        <ele>0</ele>
        <time>2010-01-03T03:48:13Z</time>
      </trkpt>
      <trkpt lat="54.293786929920316" lon="10.882616909220815">
        <ele>0</ele>
        <time>2010-01-03T03:48:16Z</time>
      </trkpt>
      <trkpt lat="54.293801262974739" lon="10.882616490125656">
        <ele>0</ele>
        <time>2010-01-03T03:48:16Z</time>
      </trkpt>
      <trkpt lat="54.293865133076906" lon="10.882622441276908">
        <ele>0</ele>
        <time>2010-01-03T03:48:19Z</time>
      </trkpt>
      <trkpt lat="54.293946186080575" lon="10.882641803473234">
        <ele>0</ele>
        <time>2010-01-03T03:48:22Z</time>
      </trkpt>
      <trkpt lat="54.294038135558367" lon="10.882679186761379">
        <ele>0</ele>
        <time>2010-01-03T03:48:26Z</time>
      </trkpt>
      <trkpt lat="54.294131258502603" lon="10.882738111540675">
        <ele>0</ele>
        <time>2010-01-03T03:48:30Z</time>
      </trkpt>
      <trkpt lat="54.294190015643835" lon="10.882781110703945">
        <ele>0</ele>
        <time>2010-01-03T03:48:32Z</time>
      </trkpt>
      <trkpt lat="54.294248856604099" lon="10.882824026048183">
        <ele>0</ele>
        <time>2010-01-03T03:48:35Z</time>
      </trkpt>
      <trkpt lat="54.294323036447167" lon="10.882880436256528">
        <ele>0</ele>
        <time>2010-01-03T03:48:38Z</time>
      </trkpt>
      <trkpt lat="54.294404340907931" lon="10.882925782352686">
        <ele>0</ele>
        <time>2010-01-03T03:48:42Z</time>
      </trkpt>
      <trkpt lat="54.294492769986391" lon="10.882967943325639">
        <ele>0</ele>
        <time>2010-01-03T03:48:45Z</time>
      </trkpt>
      <trkpt lat="54.294624533504248" lon="10.883035082370043">
        <ele>0</ele>
        <time>2010-01-03T03:48:51Z</time>
      </trkpt>
      <trkpt lat="54.294766103848815" lon="10.883089564740658">
        <ele>0</ele>
        <time>2010-01-03T03:48:57Z</time>
      </trkpt>
      <trkpt lat="54.294860986992717" lon="10.883146896958351">
        <ele>0</ele>
        <time>2010-01-03T03:49:01Z</time>
      </trkpt>
      <trkpt lat="54.294936088845134" lon="10.883212443441153">
        <ele>0</ele>
        <time>2010-01-03T03:49:04Z</time>
      </trkpt>
      <trkpt lat="54.295022925361991" lon="10.883274637162685">
        <ele>0</ele>
        <time>2010-01-03T03:49:08Z</time>
      </trkpt>
      <trkpt lat="54.295126860961318" lon="10.883333226665854">
        <ele>0</ele>
        <time>2010-01-03T03:49:12Z</time>
      </trkpt>
      <trkpt lat="54.295237082988024" lon="10.883405562490225">
        <ele>0</ele>
        <time>2010-01-03T03:49:17Z</time>
      </trkpt>
      <trkpt lat="54.295341186225414" lon="10.883484100922942">
        <ele>0</ele>
        <time>2010-01-03T03:49:21Z</time>
      </trkpt>
      <trkpt lat="54.295481499284506" lon="10.883598597720265">
        <ele>0</ele>
        <time>2010-01-03T03:49:28Z</time>
      </trkpt>
      <trkpt lat="54.295580238103867" lon="10.883689625188708">
        <ele>0</ele>
        <time>2010-01-03T03:49:32Z</time>
      </trkpt>
      <trkpt lat="54.295631032437086" lon="10.88374050334096">
        <ele>0</ele>
        <time>2010-01-03T03:49:34Z</time>
      </trkpt>
      <trkpt lat="54.295694651082158" lon="10.883818622678518">
        <ele>0</ele>
        <time>2010-01-03T03:49:38Z</time>
      </trkpt>
      <trkpt lat="54.295768244192004" lon="10.883907219395041">
        <ele>0</ele>
        <time>2010-01-03T03:49:41Z</time>
      </trkpt>
      <trkpt lat="54.295830857008696" lon="10.883979303762317">
        <ele>0</ele>
        <time>2010-01-03T03:49:44Z</time>
      </trkpt>
      <trkpt lat="54.296081811189651" lon="10.884295050054789">
        <ele>0</ele>
        <time>2010-01-03T03:49:57Z</time>
      </trkpt>
      <trkpt lat="54.295932445675135" lon="10.88446956127882">
        <ele>0</ele>
        <time>2010-01-03T03:50:04Z</time>
      </trkpt>
      <trkpt lat="54.295724658295512" lon="10.884733255952597">
        <ele>0</ele>
        <time>2010-01-03T03:50:14Z</time>
      </trkpt>
      <trkpt lat="54.295623572543263" lon="10.884877257049084">
        <ele>0</ele>
        <time>2010-01-03T03:50:19Z</time>
      </trkpt>
      <trkpt lat="54.295510668307543" lon="10.885007847100496">
        <ele>0</ele>
        <time>2010-01-03T03:50:25Z</time>
      </trkpt>
      <trkpt lat="54.295439589768648" lon="10.885094180703163">
        <ele>0</ele>
        <time>2010-01-03T03:50:28Z</time>
      </trkpt>
      <trkpt lat="54.295421820133924" lon="10.885114632546902">
        <ele>0</ele>
        <time>2010-01-03T03:50:29Z</time>
      </trkpt>
      <trkpt lat="54.295352501794696" lon="10.885193338617682">
        <ele>0</ele>
        <time>2010-01-03T03:50:33Z</time>
      </trkpt>
      <trkpt lat="54.295256361365318" lon="10.885294172912836">
        <ele>0</ele>
        <time>2010-01-03T03:50:37Z</time>
      </trkpt>
      <trkpt lat="54.295159298926592" lon="10.885385954752564">
        <ele>0</ele>
        <time>2010-01-03T03:50:42Z</time>
      </trkpt>
      <trkpt lat="54.295087968930602" lon="10.885444711893797">
        <ele>0</ele>
        <time>2010-01-03T03:50:45Z</time>
      </trkpt>
      <trkpt lat="54.295016555115581" lon="10.885500367730856">
        <ele>0</ele>
        <time>2010-01-03T03:50:48Z</time>
      </trkpt>
      <trkpt lat="54.29494421929121" lon="10.885543785989285">
        <ele>0</ele>
        <time>2010-01-03T03:50:51Z</time>
      </trkpt>
      <trkpt lat="54.294845815747976" lon="10.885587874799967">
        <ele>0</ele>
        <time>2010-01-03T03:50:55Z</time>
      </trkpt>
      <trkpt lat="54.294763337820768" lon="10.885610086843371">
        <ele>0</ele>
        <time>2010-01-03T03:50:58Z</time>
      </trkpt>
      <trkpt lat="54.294670801609755" lon="10.885614110156894">
        <ele>0</ele>
        <time>2010-01-03T03:51:02Z</time>
      </trkpt>
      <trkpt lat="54.294635262340307" lon="10.885604303330183">
        <ele>0</ele>
        <time>2010-01-03T03:51:03Z</time>
      </trkpt>
      <trkpt lat="54.294594274833798" lon="10.885593155398965">
        <ele>0</ele>
        <time>2010-01-03T03:51:05Z</time>
      </trkpt>
      <trkpt lat="54.29455915465951" lon="10.885577229782939">
        <ele>0</ele>
        <time>2010-01-03T03:51:07Z</time>
      </trkpt>
      <trkpt lat="54.294530237093568" lon="10.885564154013991">
        <ele>0</ele>
        <time>2010-01-03T03:51:08Z</time>
      </trkpt>
      <trkpt lat="54.294483298435807" lon="10.88554697111249">
        <ele>0</ele>
        <time>2010-01-03T03:51:10Z</time>
      </trkpt>
      <trkpt lat="54.294414902105927" lon="10.885531967505813">
        <ele>0</ele>
        <time>2010-01-03T03:51:12Z</time>
      </trkpt>
      <trkpt lat="54.294351954013109" lon="10.885527525097132">
        <ele>0</ele>
        <time>2010-01-03T03:51:15Z</time>
      </trkpt>
      <trkpt lat="54.294275594875216" lon="10.885526519268751">
        <ele>0</ele>
        <time>2010-01-03T03:51:18Z</time>
      </trkpt>
      <trkpt lat="54.294052049517632" lon="10.885547893121839">
        <ele>0</ele>
        <time>2010-01-03T03:51:27Z</time>
      </trkpt>
      <trkpt lat="54.293976696208119" lon="10.885556107386947">
        <ele>0</ele>
        <time>2010-01-03T03:51:30Z</time>
      </trkpt>
      <trkpt lat="54.293851386755705" lon="10.885565159842372">
        <ele>0</ele>
        <time>2010-01-03T03:51:35Z</time>
      </trkpt>
      <trkpt lat="54.29356187582016" lon="10.885585695505142">
        <ele>0</ele>
        <time>2010-01-03T03:51:47Z</time>
      </trkpt>
      <trkpt lat="54.293459532782435" lon="10.88558997027576">
        <ele>0</ele>
        <time>2010-01-03T03:51:51Z</time>
      </trkpt>
      <trkpt lat="54.293382167816162" lon="10.885582845658064">
        <ele>0</ele>
        <time>2010-01-03T03:51:54Z</time>
      </trkpt>
      <trkpt lat="54.293294828385115" lon="10.885560633614659">
        <ele>0</ele>
        <time>2010-01-03T03:51:57Z</time>
      </trkpt>
      <trkpt lat="54.29321008734405" lon="10.885527608916163">
        <ele>0</ele>
        <time>2010-01-03T03:52:01Z</time>
      </trkpt>
      <trkpt lat="54.293146887794137" lon="10.885497098788619">
        <ele>0</ele>
        <time>2010-01-03T03:52:03Z</time>
      </trkpt>
      <trkpt lat="54.293114533647895" lon="10.885491818189621">
        <ele>0</ele>
        <time>2010-01-03T03:52:05Z</time>
      </trkpt>
      <trkpt lat="54.293097434565425" lon="10.885495338588953">
        <ele>0</ele>
        <time>2010-01-03T03:52:05Z</time>
      </trkpt>
      <trkpt lat="54.293078910559416" lon="10.885526519268751">
        <ele>0</ele>
        <time>2010-01-03T03:52:07Z</time>
      </trkpt>
      <trkpt lat="54.29306834936142" lon="10.885556023567915">
        <ele>0</ele>
        <time>2010-01-03T03:52:07Z</time>
      </trkpt>
      <trkpt lat="54.292911943048239" lon="10.8859349694103">
        <ele>0</ele>
        <time>2010-01-03T03:52:18Z</time>
      </trkpt>
      <trkpt lat="54.292895263060927" lon="10.885976878926158">
        <ele>0</ele>
        <time>2010-01-03T03:52:19Z</time>
      </trkpt>
      <trkpt lat="54.292787304148078" lon="10.886251637712121">
        <ele>0</ele>
        <time>2010-01-03T03:52:27Z</time>
      </trkpt>
      <trkpt lat="54.292759895324707" lon="10.886303102597594">
        <ele>0</ele>
        <time>2010-01-03T03:52:29Z</time>
      </trkpt>
      <trkpt lat="54.29269015789032" lon="10.886437045410275">
        <ele>0</ele>
        <time>2010-01-03T03:52:33Z</time>
      </trkpt>
      <trkpt lat="54.291768483817577" lon="10.887424852699041">
        <ele>0</ele>
        <time>2010-01-03T03:53:16Z</time>
      </trkpt>
      <trkpt lat="54.291785499081016" lon="10.887608667835593">
        <ele>0</ele>
        <time>2010-01-03T03:53:21Z</time>
      </trkpt>
      <trkpt lat="54.291793713346124" lon="10.887723667547107">
        <ele>0</ele>
        <time>2010-01-03T03:53:23Z</time>
      </trkpt>
      <trkpt lat="54.291796647012234" lon="10.887847971171141">
        <ele>0</ele>
        <time>2010-01-03T03:53:26Z</time>
      </trkpt>
      <trkpt lat="54.291789019480348" lon="10.887995576485991">
        <ele>0</ele>
        <time>2010-01-03T03:53:30Z</time>
      </trkpt>
      <trkpt lat="54.291772339493036" lon="10.888129686936736">
        <ele>0</ele>
        <time>2010-01-03T03:53:33Z</time>
      </trkpt>
      <trkpt lat="54.291739650070667" lon="10.888290284201503">
        <ele>0</ele>
        <time>2010-01-03T03:53:37Z</time>
      </trkpt>
      <trkpt lat="54.291702099144459" lon="10.888408049941063">
        <ele>0</ele>
        <time>2010-01-03T03:53:40Z</time>
      </trkpt>
      <trkpt lat="54.291626997292042" lon="10.888646515086293">
        <ele>0</ele>
        <time>2010-01-03T03:53:47Z</time>
      </trkpt>
      <trkpt lat="54.291537730023265" lon="10.888905432075262">
        <ele>0</ele>
        <time>2010-01-03T03:53:54Z</time>
      </trkpt>
      <trkpt lat="54.291465142741799" lon="10.889114728197455">
        <ele>0</ele>
        <time>2010-01-03T03:53:59Z</time>
      </trkpt>
      <trkpt lat="54.291410995647311" lon="10.889286641031504">
        <ele>0</ele>
        <time>2010-01-03T03:54:04Z</time>
      </trkpt>
      <trkpt lat="54.291352070868015" lon="10.889427959918976">
        <ele>0</ele>
        <time>2010-01-03T03:54:08Z</time>
      </trkpt>
      <trkpt lat="54.291300857439637" lon="10.88952150195837">
        <ele>0</ele>
        <time>2010-01-03T03:54:11Z</time>
      </trkpt>
      <trkpt lat="54.291221229359508" lon="10.889651086181402">
        <ele>0</ele>
        <time>2010-01-03T03:54:15Z</time>
      </trkpt>
      <trkpt lat="54.291076390072703" lon="10.889834649860859">
        <ele>0</ele>
        <time>2010-01-03T03:54:22Z</time>
      </trkpt>
      <trkpt lat="54.291005479171872" lon="10.889841187745333">
        <ele>0</ele>
        <time>2010-01-03T03:54:25Z</time>
      </trkpt>
      <trkpt lat="54.290906824171543" lon="10.88985619135201">
        <ele>0</ele>
        <time>2010-01-03T03:54:29Z</time>
      </trkpt>
      <trkpt lat="54.290825435891747" lon="10.889898268505931">
        <ele>0</ele>
        <time>2010-01-03T03:54:33Z</time>
      </trkpt>
      <trkpt lat="54.290739689022303" lon="10.889946632087231">
        <ele>0</ele>
        <time>2010-01-03T03:54:36Z</time>
      </trkpt>
      <trkpt lat="54.290629718452692" lon="10.890009496361017">
        <ele>0</ele>
        <time>2010-01-03T03:54:41Z</time>
      </trkpt>
      <trkpt lat="54.290581438690424" lon="10.890036905184388">
        <ele>0</ele>
        <time>2010-01-03T03:54:43Z</time>
      </trkpt>
      <trkpt lat="54.290537601336837" lon="10.89005651883781">
        <ele>0</ele>
        <time>2010-01-03T03:54:45Z</time>
      </trkpt>
      <trkpt lat="54.29048647172749" lon="10.890068588778377">
        <ele>0</ele>
        <time>2010-01-03T03:54:47Z</time>
      </trkpt>
      <trkpt lat="54.290439868345857" lon="10.89007755741477">
        <ele>0</ele>
        <time>2010-01-03T03:54:49Z</time>
      </trkpt>
      <trkpt lat="54.29034037515521" lon="10.890980204567313">
        <ele>0</ele>
        <time>2010-01-03T03:55:10Z</time>
      </trkpt>
      <trkpt lat="54.290334591642022" lon="10.89103720150888">
        <ele>0</ele>
        <time>2010-01-03T03:55:12Z</time>
      </trkpt>
      <trkpt lat="54.290297878906131" lon="10.891340710222721">
        <ele>0</ele>
        <time>2010-01-03T03:55:19Z</time>
      </trkpt>
      <trkpt lat="54.290207689628005" lon="10.892092566937208">
        <ele>0</ele>
        <time>2010-01-03T03:55:37Z</time>
      </trkpt>
      <trkpt lat="54.290130157023668" lon="10.892744259908795">
        <ele>0</ele>
        <time>2010-01-03T03:55:52Z</time>
      </trkpt>
      <trkpt lat="54.290006356313825" lon="10.893741203472018">
        <ele>0</ele>
        <time>2010-01-03T03:56:16Z</time>
      </trkpt>
      <trkpt lat="54.289932260289788" lon="10.894380491226912">
        <ele>0</ele>
        <time>2010-01-03T03:56:31Z</time>
      </trkpt>
      <trkpt lat="54.289905438199639" lon="10.894596241414547">
        <ele>0</ele>
        <time>2010-01-03T03:56:36Z</time>
      </trkpt>
      <trkpt lat="54.289897307753563" lon="10.894691711291671">
        <ele>0</ele>
        <time>2010-01-03T03:56:39Z</time>
      </trkpt>
      <trkpt lat="54.289894541725516" lon="10.894777709618211">
        <ele>0</ele>
        <time>2010-01-03T03:56:41Z</time>
      </trkpt>
      <trkpt lat="54.289896218106151" lon="10.894863707944751">
        <ele>0</ele>
        <time>2010-01-03T03:56:43Z</time>
      </trkpt>
      <trkpt lat="54.289900492876768" lon="10.894941911101341">
        <ele>0</ele>
        <time>2010-01-03T03:56:45Z</time>
      </trkpt>
      <trkpt lat="54.289912059903145" lon="10.895024556666613">
        <ele>0</ele>
        <time>2010-01-03T03:56:47Z</time>
      </trkpt>
      <trkpt lat="54.28992354311049" lon="10.895100999623537">
        <ele>0</ele>
        <time>2010-01-03T03:56:48Z</time>
      </trkpt>
      <trkpt lat="54.289951622486115" lon="10.895223123952746">
        <ele>0</ele>
        <time>2010-01-03T03:56:51Z</time>
      </trkpt>
      <trkpt lat="54.289968218654394" lon="10.895289592444897">
        <ele>0</ele>
        <time>2010-01-03T03:56:53Z</time>
      </trkpt>
      <trkpt lat="54.290126971900463" lon="10.895926365628839">
        <ele>0</ele>
        <time>2010-01-03T03:57:09Z</time>
      </trkpt>
      <trkpt lat="54.290571045130491" lon="10.897723697125912">
        <ele>0</ele>
        <time>2010-01-03T03:57:55Z</time>
      </trkpt>
      <trkpt lat="54.290847312659025" lon="10.898854248225689">
        <ele>0</ele>
        <time>2010-01-03T03:58:24Z</time>
      </trkpt>
      <trkpt lat="54.291032133623958" lon="10.899614151567221">
        <ele>0</ele>
        <time>2010-01-03T03:58:43Z</time>
      </trkpt>
      <trkpt lat="54.291316783055663" lon="10.900779906660318">
        <ele>0</ele>
        <time>2010-01-03T03:59:12Z</time>
      </trkpt>
      <trkpt lat="54.291434464976192" lon="10.90126178227365">
        <ele>0</ele>
        <time>2010-01-03T03:59:25Z</time>
      </trkpt>
      <trkpt lat="54.291854314506054" lon="10.902980240061879">
        <ele>0</ele>
        <time>2010-01-03T04:00:08Z</time>
      </trkpt>
      <trkpt lat="54.291895218193531" lon="10.903135808184743">
        <ele>0</ele>
        <time>2010-01-03T04:00:12Z</time>
      </trkpt>
      <trkpt lat="54.291922459378839" lon="10.903257932513952">
        <ele>0</ele>
        <time>2010-01-03T04:00:15Z</time>
      </trkpt>
      <trkpt lat="54.291961770504713" lon="10.903435042127967">
        <ele>0</ele>
        <time>2010-01-03T04:00:20Z</time>
      </trkpt>
      <trkpt lat="54.291992699727416" lon="10.903578624129295">
        <ele>0</ele>
        <time>2010-01-03T04:00:23Z</time>
      </trkpt>
      <trkpt lat="54.292020024731755" lon="10.903719188645482">
        <ele>0</ele>
        <time>2010-01-03T04:00:27Z</time>
      </trkpt>
      <trkpt lat="54.292035447433591" lon="10.903830919414759">
        <ele>0</ele>
        <time>2010-01-03T04:00:29Z</time>
      </trkpt>
      <trkpt lat="54.29204910993576" lon="10.903945751488209">
        <ele>0</ele>
        <time>2010-01-03T04:00:32Z</time>
      </trkpt>
      <trkpt lat="54.292053552344441" lon="10.904046921059489">
        <ele>0</ele>
        <time>2010-01-03T04:00:34Z</time>
      </trkpt>
      <trkpt lat="54.292058749124408" lon="10.904120514169335">
        <ele>0</ele>
        <time>2010-01-03T04:00:36Z</time>
      </trkpt>
      <trkpt lat="54.292059671133757" lon="10.904221851378679">
        <ele>0</ele>
        <time>2010-01-03T04:00:38Z</time>
      </trkpt>
      <trkpt lat="54.292072327807546" lon="10.90443198569119">
        <ele>0</ele>
        <time>2010-01-03T04:00:43Z</time>
      </trkpt>
      <trkpt lat="54.292079200968146" lon="10.904694423079491">
        <ele>0</ele>
        <time>2010-01-03T04:00:50Z</time>
      </trkpt>
      <trkpt lat="54.292082637548447" lon="10.905171940103173">
        <ele>0</ele>
        <time>2010-01-03T04:01:01Z</time>
      </trkpt>
      <trkpt lat="54.292085487395525" lon="10.905879875645041">
        <ele>0</ele>
        <time>2010-01-03T04:01:17Z</time>
      </trkpt>
      <trkpt lat="54.292089929804206" lon="10.907266577705741">
        <ele>0</ele>
        <time>2010-01-03T04:01:50Z</time>
      </trkpt>
      <trkpt lat="54.292091773822904" lon="10.907562961801887">
        <ele>0</ele>
        <time>2010-01-03T04:01:57Z</time>
      </trkpt>
      <trkpt lat="54.292090684175491" lon="10.90763982385397">
        <ele>0</ele>
        <time>2010-01-03T04:01:58Z</time>
      </trkpt>
      <trkpt lat="54.292085990309715" lon="10.907914834097028">
        <ele>0</ele>
        <time>2010-01-03T04:02:05Z</time>
      </trkpt>
      <trkpt lat="54.292082218453288" lon="10.908102253451943">
        <ele>0</ele>
        <time>2010-01-03T04:02:09Z</time>
      </trkpt>
      <trkpt lat="54.292080625891685" lon="10.908219097182155">
        <ele>0</ele>
        <time>2010-01-03T04:02:12Z</time>
      </trkpt>
      <trkpt lat="54.292079955339432" lon="10.908248266205192">
        <ele>0</ele>
        <time>2010-01-03T04:02:13Z</time>
      </trkpt>
      <trkpt lat="54.292072579264641" lon="10.908620087429881">
        <ele>0</ele>
        <time>2010-01-03T04:02:21Z</time>
      </trkpt>
      <trkpt lat="54.29206176660955" lon="10.908813290297985">
        <ele>0</ele>
        <time>2010-01-03T04:02:26Z</time>
      </trkpt>
      <trkpt lat="54.292057827115059" lon="10.908881602808833">
        <ele>0</ele>
        <time>2010-01-03T04:02:27Z</time>
      </trkpt>
      <trkpt lat="54.292043158784509" lon="10.909140016883612">
        <ele>0</ele>
        <time>2010-01-03T04:02:33Z</time>
      </trkpt>
      <trkpt lat="54.292026059702039" lon="10.909338584169745">
        <ele>0</ele>
        <time>2010-01-03T04:02:38Z</time>
      </trkpt>
      <trkpt lat="54.292024383321404" lon="10.909355515614152">
        <ele>0</ele>
        <time>2010-01-03T04:02:39Z</time>
      </trkpt>
      <trkpt lat="54.292008960619569" lon="10.909534050151706">
        <ele>0</ele>
        <time>2010-01-03T04:02:43Z</time>
      </trkpt>
      <trkpt lat="54.291973505169153" lon="10.909789949655533">
        <ele>0</ele>
        <time>2010-01-03T04:02:49Z</time>
      </trkpt>
      <trkpt lat="54.291928159072995" lon="10.910139810293913">
        <ele>0</ele>
        <time>2010-01-03T04:02:57Z</time>
      </trkpt>
      <trkpt lat="54.291881807148457" lon="10.910474248230457">
        <ele>0</ele>
        <time>2010-01-03T04:03:05Z</time>
      </trkpt>
      <trkpt lat="54.29182137362659" lon="10.910849086940289">
        <ele>0</ele>
        <time>2010-01-03T04:03:14Z</time>
      </trkpt>
      <trkpt lat="54.291718360036612" lon="10.911484519019723">
        <ele>0</ele>
        <time>2010-01-03T04:03:30Z</time>
      </trkpt>
      <trkpt lat="54.291587267071009" lon="10.912283565849066">
        <ele>0</ele>
        <time>2010-01-03T04:03:49Z</time>
      </trkpt>
      <trkpt lat="54.291391298174858" lon="10.913466671481729">
        <ele>0</ele>
        <time>2010-01-03T04:04:18Z</time>
      </trkpt>
      <trkpt lat="54.291252074763179" lon="10.914376443251967">
        <ele>0</ele>
        <time>2010-01-03T04:04:40Z</time>
      </trkpt>
      <trkpt lat="54.291172949597239" lon="10.914868377149105">
        <ele>0</ele>
        <time>2010-01-03T04:04:52Z</time>
      </trkpt>
      <trkpt lat="54.291125340387225" lon="10.915166018530726">
        <ele>0</ele>
        <time>2010-01-03T04:04:59Z</time>
      </trkpt>
      <trkpt lat="54.29110455326736" lon="10.915350923314691">
        <ele>0</ele>
        <time>2010-01-03T04:05:03Z</time>
      </trkpt>
      <trkpt lat="54.291063901036978" lon="10.915723666548729">
        <ele>0</ele>
        <time>2010-01-03T04:05:12Z</time>
      </trkpt>
      <trkpt lat="54.291026098653674" lon="10.916116274893284">
        <ele>0</ele>
        <time>2010-01-03T04:05:22Z</time>
      </trkpt>
      <trkpt lat="54.290989553555846" lon="10.916551798582077">
        <ele>0</ele>
        <time>2010-01-03T04:05:32Z</time>
      </trkpt>
      <trkpt lat="54.290987877175212" lon="10.916568730026484">
        <ele>0</ele>
        <time>2010-01-03T04:05:32Z</time>
      </trkpt>
      <trkpt lat="54.290964910760522" lon="10.916913393884897">
        <ele>0</ele>
        <time>2010-01-03T04:05:40Z</time>
      </trkpt>
      <trkpt lat="54.290942950174212" lon="10.91727021150291">
        <ele>0</ele>
        <time>2010-01-03T04:05:49Z</time>
      </trkpt>
      <trkpt lat="54.290921073406935" lon="10.917634824290872">
        <ele>0</ele>
        <time>2010-01-03T04:05:57Z</time>
      </trkpt>
      <trkpt lat="54.290903639048338" lon="10.917990049347281">
        <ele>0</ele>
        <time>2010-01-03T04:06:06Z</time>
      </trkpt>
      <trkpt lat="54.290888803079724" lon="10.918440409004688">
        <ele>0</ele>
        <time>2010-01-03T04:06:16Z</time>
      </trkpt>
      <trkpt lat="54.290880421176553" lon="10.918907448649406">
        <ele>0</ele>
        <time>2010-01-03T04:06:27Z</time>
      </trkpt>
      <trkpt lat="54.290883103385568" lon="10.919411117210984">
        <ele>0</ele>
        <time>2010-01-03T04:06:39Z</time>
      </trkpt>
      <trkpt lat="54.290889725089073" lon="10.920149646699429">
        <ele>0</ele>
        <time>2010-01-03T04:06:56Z</time>
      </trkpt>
      <trkpt lat="54.290903387591243" lon="10.921070817857981">
        <ele>0</ele>
        <time>2010-01-03T04:07:18Z</time>
      </trkpt>
      <trkpt lat="54.290912942960858" lon="10.921436017379165">
        <ele>0</ele>
        <time>2010-01-03T04:07:26Z</time>
      </trkpt>
      <trkpt lat="54.290914786979556" lon="10.921842958778143">
        <ele>0</ele>
        <time>2010-01-03T04:07:36Z</time>
      </trkpt>
      <trkpt lat="54.290927778929472" lon="10.922498423606157">
        <ele>0</ele>
        <time>2010-01-03T04:07:51Z</time>
      </trkpt>
      <trkpt lat="54.290945129469037" lon="10.923437867313623">
        <ele>0</ele>
        <time>2010-01-03T04:08:13Z</time>
      </trkpt>
      <trkpt lat="54.290945129469037" lon="10.92403675429523">
        <ele>0</ele>
        <time>2010-01-03T04:08:27Z</time>
      </trkpt>
      <trkpt lat="54.290945967659354" lon="10.924437576904893">
        <ele>0</ele>
        <time>2010-01-03T04:08:36Z</time>
      </trkpt>
      <trkpt lat="54.290935322642326" lon="10.925055239349604">
        <ele>0</ele>
        <time>2010-01-03T04:08:51Z</time>
      </trkpt>
      <trkpt lat="54.290931969881058" lon="10.925482297316194">
        <ele>0</ele>
        <time>2010-01-03T04:09:01Z</time>
      </trkpt>
      <trkpt lat="54.290932137519121" lon="10.925500737503171">
        <ele>0</ele>
        <time>2010-01-03T04:09:01Z</time>
      </trkpt>
      <trkpt lat="54.290925515815616" lon="10.925874067470431">
        <ele>0</ele>
        <time>2010-01-03T04:09:10Z</time>
      </trkpt>
      <trkpt lat="54.290906488895416" lon="10.926255444064736">
        <ele>0</ele>
        <time>2010-01-03T04:09:19Z</time>
      </trkpt>
      <trkpt lat="54.290904561057687" lon="10.926292827352881">
        <ele>0</ele>
        <time>2010-01-03T04:09:20Z</time>
      </trkpt>
      <trkpt lat="54.290878241881728" lon="10.926796915009618">
        <ele>0</ele>
        <time>2010-01-03T04:09:32Z</time>
      </trkpt>
      <trkpt lat="54.290836500003934" lon="10.927341990172863">
        <ele>0</ele>
        <time>2010-01-03T04:09:44Z</time>
      </trkpt>
      <trkpt lat="54.290783694013953" lon="10.927943391725421">
        <ele>0</ele>
        <time>2010-01-03T04:09:59Z</time>
      </trkpt>
      <trkpt lat="54.290720243006945" lon="10.928351674228907">
        <ele>0</ele>
        <time>2010-01-03T04:10:08Z</time>
      </trkpt>
      <trkpt lat="54.290672549977899" lon="10.928683849051595">
        <ele>0</ele>
        <time>2010-01-03T04:10:16Z</time>
      </trkpt>
      <trkpt lat="54.290471384301782" lon="10.929754469543695">
        <ele>0</ele>
        <time>2010-01-03T04:10:43Z</time>
      </trkpt>
      <trkpt lat="54.290348757058382" lon="10.930268280208111">
        <ele>0</ele>
        <time>2010-01-03T04:10:56Z</time>
      </trkpt>
      <trkpt lat="54.290223028510809" lon="10.93077982775867">
        <ele>0</ele>
        <time>2010-01-03T04:11:09Z</time>
      </trkpt>
      <trkpt lat="54.290080619975924" lon="10.931276539340615">
        <ele>0</ele>
        <time>2010-01-03T04:11:22Z</time>
      </trkpt>
      <trkpt lat="54.28996461443603" lon="10.931651461869478">
        <ele>0</ele>
        <time>2010-01-03T04:11:32Z</time>
      </trkpt>
      <trkpt lat="54.289884399622679" lon="10.931879617273808">
        <ele>0</ele>
        <time>2010-01-03T04:11:38Z</time>
      </trkpt>
      <trkpt lat="54.289822122082114" lon="10.932056307792664">
        <ele>0</ele>
        <time>2010-01-03T04:11:43Z</time>
      </trkpt>
      <trkpt lat="54.289625398814678" lon="10.932595683261752">
        <ele>0</ele>
        <time>2010-01-03T04:11:57Z</time>
      </trkpt>
      <trkpt lat="54.28944569081068" lon="10.933052832260728">
        <ele>0</ele>
        <time>2010-01-03T04:12:10Z</time>
      </trkpt>
      <trkpt lat="54.289244022220373" lon="10.93353227712214">
        <ele>0</ele>
        <time>2010-01-03T04:12:24Z</time>
      </trkpt>
      <trkpt lat="54.288985272869468" lon="10.934135774150491">
        <ele>0</ele>
        <time>2010-01-03T04:12:42Z</time>
      </trkpt>
      <trkpt lat="54.288738258183002" lon="10.934634497389197">
        <ele>0</ele>
        <time>2010-01-03T04:12:57Z</time>
      </trkpt>
      <trkpt lat="54.288366185501218" lon="10.935434130951762">
        <ele>0</ele>
        <time>2010-01-03T04:13:21Z</time>
      </trkpt>
      <trkpt lat="54.287941642105579" lon="10.936301993206143">
        <ele>0</ele>
        <time>2010-01-03T04:13:47Z</time>
      </trkpt>
      <trkpt lat="54.287929320707917" lon="10.936325378715992">
        <ele>0</ele>
        <time>2010-01-03T04:13:48Z</time>
      </trkpt>
      <trkpt lat="54.287819936871529" lon="10.936563089489937">
        <ele>0</ele>
        <time>2010-01-03T04:13:55Z</time>
      </trkpt>
      <trkpt lat="54.28773008286953" lon="10.936758974567056">
        <ele>0</ele>
        <time>2010-01-03T04:14:01Z</time>
      </trkpt>
      <trkpt lat="54.287625309079885" lon="10.937007330358028">
        <ele>0</ele>
        <time>2010-01-03T04:14:08Z</time>
      </trkpt>
      <trkpt lat="54.287537466734648" lon="10.937235318124294">
        <ele>0</ele>
        <time>2010-01-03T04:14:14Z</time>
      </trkpt>
      <trkpt lat="54.287394806742668" lon="10.937558440491557">
        <ele>0</ele>
        <time>2010-01-03T04:14:24Z</time>
      </trkpt>
      <trkpt lat="54.287283075973392" lon="10.937828505411744">
        <ele>0</ele>
        <time>2010-01-03T04:14:32Z</time>
      </trkpt>
      <trkpt lat="54.287224989384413" lon="10.937968231737614">
        <ele>0</ele>
        <time>2010-01-03T04:14:36Z</time>
      </trkpt>
      <trkpt lat="54.287155587226152" lon="10.938148107379675">
        <ele>0</ele>
        <time>2010-01-03T04:14:41Z</time>
      </trkpt>
      <trkpt lat="54.287130106240511" lon="10.938213234767318">
        <ele>0</ele>
        <time>2010-01-03T04:14:43Z</time>
      </trkpt>
      <trkpt lat="54.287024242803454" lon="10.938429404050112">
        <ele>0</ele>
        <time>2010-01-03T04:14:49Z</time>
      </trkpt>
      <trkpt lat="54.286956768482924" lon="10.938553120940924">
        <ele>0</ele>
        <time>2010-01-03T04:14:53Z</time>
      </trkpt>
      <trkpt lat="54.286918127909303" lon="10.938624115660787">
        <ele>0</ele>
        <time>2010-01-03T04:14:55Z</time>
      </trkpt>
      <trkpt lat="54.286822490394115" lon="10.938787814229727">
        <ele>0</ele>
        <time>2010-01-03T04:15:01Z</time>
      </trkpt>
      <trkpt lat="54.286903124302626" lon="10.938960816711187">
        <ele>0</ele>
        <time>2010-01-03T04:15:06Z</time>
      </trkpt>
      <trkpt lat="54.286955427378416" lon="10.939083863049746">
        <ele>0</ele>
        <time>2010-01-03T04:15:09Z</time>
      </trkpt>
      <trkpt lat="54.286993062123656" lon="10.939178075641394">
        <ele>0</ele>
        <time>2010-01-03T04:15:12Z</time>
      </trkpt>
      <trkpt lat="54.287022482603788" lon="10.939252590760589">
        <ele>0</ele>
        <time>2010-01-03T04:15:14Z</time>
      </trkpt>
      <trkpt lat="54.287052322179079" lon="10.93937773257494">
        <ele>0</ele>
        <time>2010-01-03T04:15:17Z</time>
      </trkpt>
      <trkpt lat="54.287075791507959" lon="10.939492313191295">
        <ele>0</ele>
        <time>2010-01-03T04:15:20Z</time>
      </trkpt>
      <trkpt lat="54.287100350484252" lon="10.939632961526513">
        <ele>0</ele>
        <time>2010-01-03T04:15:24Z</time>
      </trkpt>
      <trkpt lat="54.287123316898942" lon="10.939790541306138">
        <ele>0</ele>
        <time>2010-01-03T04:15:27Z</time>
      </trkpt>
      <trkpt lat="54.287136979401112" lon="10.940018948167562">
        <ele>0</ele>
        <time>2010-01-03T04:15:33Z</time>
      </trkpt>
      <trkpt lat="54.287152905017138" lon="10.940288845449686">
        <ele>0</ele>
        <time>2010-01-03T04:15:39Z</time>
      </trkpt>
      <trkpt lat="54.287169585004449" lon="10.940655469894409">
        <ele>0</ele>
        <time>2010-01-03T04:15:48Z</time>
      </trkpt>
      <trkpt lat="54.287192635238171" lon="10.940926624462008">
        <ele>0</ele>
        <time>2010-01-03T04:15:54Z</time>
      </trkpt>
      <trkpt lat="54.287240663543344" lon="10.941383019089699">
        <ele>0</ele>
        <time>2010-01-03T04:16:05Z</time>
      </trkpt>
      <trkpt lat="54.287286680191755" lon="10.941716618835926">
        <ele>0</ele>
        <time>2010-01-03T04:16:13Z</time>
      </trkpt>
      <trkpt lat="54.287320207804441" lon="10.941953742876649">
        <ele>0</ele>
        <time>2010-01-03T04:16:19Z</time>
      </trkpt>
      <trkpt lat="54.287374522536993" lon="10.942205786705017">
        <ele>0</ele>
        <time>2010-01-03T04:16:25Z</time>
      </trkpt>
      <trkpt lat="54.287449708208442" lon="10.942480294033885">
        <ele>0</ele>
        <time>2010-01-03T04:16:32Z</time>
      </trkpt>
      <trkpt lat="54.28750435821712" lon="10.942672323435545">
        <ele>0</ele>
        <time>2010-01-03T04:16:37Z</time>
      </trkpt>
      <trkpt lat="54.287529420107603" lon="10.942762345075607">
        <ele>0</ele>
        <time>2010-01-03T04:16:39Z</time>
      </trkpt>
      <trkpt lat="54.287556326016784" lon="10.942859910428524">
        <ele>0</ele>
        <time>2010-01-03T04:16:42Z</time>
      </trkpt>
      <trkpt lat="54.287588093429804" lon="10.942992679774761">
        <ele>0</ele>
        <time>2010-01-03T04:16:45Z</time>
      </trkpt>
      <trkpt lat="54.287622962146997" lon="10.94318219460547">
        <ele>0</ele>
        <time>2010-01-03T04:16:50Z</time>
      </trkpt>
      <trkpt lat="54.287674929946661" lon="10.943468017503619">
        <ele>0</ele>
        <time>2010-01-03T04:16:57Z</time>
      </trkpt>
      <trkpt lat="54.287710385397077" lon="10.943723581731319">
        <ele>0</ele>
        <time>2010-01-03T04:17:03Z</time>
      </trkpt>
      <trkpt lat="54.2877247184515" lon="10.943838749080896">
        <ele>0</ele>
        <time>2010-01-03T04:17:06Z</time>
      </trkpt>
      <trkpt lat="54.287737375125289" lon="10.943939415737987">
        <ele>0</ele>
        <time>2010-01-03T04:17:08Z</time>
      </trkpt>
      <trkpt lat="54.287754390388727" lon="10.944132450968027">
        <ele>0</ele>
        <time>2010-01-03T04:17:13Z</time>
      </trkpt>
      <trkpt lat="54.287774926051497" lon="10.944431433454156">
        <ele>0</ele>
        <time>2010-01-03T04:17:20Z</time>
      </trkpt>
      <trkpt lat="54.287777105346322" lon="10.944475857540965">
        <ele>0</ele>
        <time>2010-01-03T04:17:21Z</time>
      </trkpt>
      <trkpt lat="54.287794707342982" lon="10.944837871938944">
        <ele>0</ele>
        <time>2010-01-03T04:17:29Z</time>
      </trkpt>
      <trkpt lat="54.287825049832463" lon="10.945432903245091">
        <ele>0</ele>
        <time>2010-01-03T04:17:43Z</time>
      </trkpt>
      <trkpt lat="54.287864444777369" lon="10.946238152682781">
        <ele>0</ele>
        <time>2010-01-03T04:18:02Z</time>
      </trkpt>
      <trkpt lat="54.287888752296567" lon="10.946868639439344">
        <ele>0</ele>
        <time>2010-01-03T04:18:17Z</time>
      </trkpt>
      <trkpt lat="54.287900486961007" lon="10.947281448170543">
        <ele>0</ele>
        <time>2010-01-03T04:18:27Z</time>
      </trkpt>
      <trkpt lat="54.287901408970356" lon="10.947363758459687">
        <ele>0</ele>
        <time>2010-01-03T04:18:29Z</time>
      </trkpt>
      <trkpt lat="54.287904342636466" lon="10.947620747610927">
        <ele>0</ele>
        <time>2010-01-03T04:18:35Z</time>
      </trkpt>
      <trkpt lat="54.287893949076533" lon="10.947977229952812">
        <ele>0</ele>
        <time>2010-01-03T04:18:43Z</time>
      </trkpt>
      <trkpt lat="54.287887746468186" lon="10.948395151644945">
        <ele>0</ele>
        <time>2010-01-03T04:18:53Z</time>
      </trkpt>
      <trkpt lat="54.287886656820774" lon="10.948783652856946">
        <ele>0</ele>
        <time>2010-01-03T04:19:02Z</time>
      </trkpt>
      <trkpt lat="54.28788891993463" lon="10.949153713881969">
        <ele>0</ele>
        <time>2010-01-03T04:19:10Z</time>
      </trkpt>
      <trkpt lat="54.287897637113929" lon="10.949426796287298">
        <ele>0</ele>
        <time>2010-01-03T04:19:17Z</time>
      </trkpt>
      <trkpt lat="54.287913227453828" lon="10.949771963059902">
        <ele>0</ele>
        <time>2010-01-03T04:19:25Z</time>
      </trkpt>
      <trkpt lat="54.287947257980704" lon="10.950274793431163">
        <ele>0</ele>
        <time>2010-01-03T04:19:37Z</time>
      </trkpt>
      <trkpt lat="54.287996459752321" lon="10.95097535289824">
        <ele>0</ele>
        <time>2010-01-03T04:19:53Z</time>
      </trkpt>
      <trkpt lat="54.288048930466175" lon="10.951849333941936">
        <ele>0</ele>
        <time>2010-01-03T04:20:14Z</time>
      </trkpt>
      <trkpt lat="54.288091761991382" lon="10.952533129602671">
        <ele>0</ele>
        <time>2010-01-03T04:20:30Z</time>
      </trkpt>
      <trkpt lat="54.2881288100034" lon="10.953178703784943">
        <ele>0</ele>
        <time>2010-01-03T04:20:45Z</time>
      </trkpt>
      <trkpt lat="54.288164936006069" lon="10.9537214320153">
        <ele>0</ele>
        <time>2010-01-03T04:20:58Z</time>
      </trkpt>
      <trkpt lat="54.288169043138623" lon="10.95377859659493">
        <ele>0</ele>
        <time>2010-01-03T04:20:59Z</time>
      </trkpt>
      <trkpt lat="54.288200726732612" lon="10.954222669824958">
        <ele>0</ele>
        <time>2010-01-03T04:21:09Z</time>
      </trkpt>
      <trkpt lat="54.288428546860814" lon="10.957360602915287">
        <ele>0</ele>
        <time>2010-01-03T04:22:23Z</time>
      </trkpt>
      <trkpt lat="54.288478000089526" lon="10.958072477951646">
        <ele>0</ele>
        <time>2010-01-03T04:22:40Z</time>
      </trkpt>
      <trkpt lat="54.28852116689086" lon="10.958706233650446">
        <ele>0</ele>
        <time>2010-01-03T04:22:55Z</time>
      </trkpt>
      <trkpt lat="54.288558633998036" lon="10.959313167259097">
        <ele>0</ele>
        <time>2010-01-03T04:23:09Z</time>
      </trkpt>
      <trkpt lat="54.288594843819737" lon="10.959939965978265">
        <ele>0</ele>
        <time>2010-01-03T04:23:24Z</time>
      </trkpt>
      <trkpt lat="54.28862183354795" lon="10.960394013673067">
        <ele>0</ele>
        <time>2010-01-03T04:23:35Z</time>
      </trkpt>
      <trkpt lat="54.288637172430754" lon="10.960794501006603">
        <ele>0</ele>
        <time>2010-01-03T04:23:44Z</time>
      </trkpt>
      <trkpt lat="54.288657791912556" lon="10.961304120719433">
        <ele>0</ele>
        <time>2010-01-03T04:23:56Z</time>
      </trkpt>
      <trkpt lat="54.288686374202371" lon="10.961795886978507">
        <ele>0</ele>
        <time>2010-01-03T04:24:08Z</time>
      </trkpt>
      <trkpt lat="54.2887142021209" lon="10.962174497544765">
        <ele>0</ele>
        <time>2010-01-03T04:24:16Z</time>
      </trkpt>
      <trkpt lat="54.288757368922234" lon="10.962626617401838">
        <ele>0</ele>
        <time>2010-01-03T04:24:27Z</time>
      </trkpt>
      <trkpt lat="54.28880799561739" lon="10.963000953197479">
        <ele>0</ele>
        <time>2010-01-03T04:24:36Z</time>
      </trkpt>
      <trkpt lat="54.288908578455448" lon="10.963577376678586">
        <ele>0</ele>
        <time>2010-01-03T04:24:50Z</time>
      </trkpt>
      <trkpt lat="54.288933137431741" lon="10.963707296177745">
        <ele>0</ele>
        <time>2010-01-03T04:24:53Z</time>
      </trkpt>
      <trkpt lat="54.288990721106529" lon="10.964013403281569">
        <ele>0</ele>
        <time>2010-01-03T04:25:01Z</time>
      </trkpt>
      <trkpt lat="54.289111169055104" lon="10.964568955823779">
        <ele>0</ele>
        <time>2010-01-03T04:25:15Z</time>
      </trkpt>
      <trkpt lat="54.289230443537235" lon="10.965204052627087">
        <ele>0</ele>
        <time>2010-01-03T04:25:30Z</time>
      </trkpt>
      <trkpt lat="54.289272520691156" lon="10.965496161952615">
        <ele>0</ele>
        <time>2010-01-03T04:25:37Z</time>
      </trkpt>
      <trkpt lat="54.289299678057432" lon="10.965794892981648">
        <ele>0</ele>
        <time>2010-01-03T04:25:44Z</time>
      </trkpt>
      <trkpt lat="54.289317950606346" lon="10.966091360896826">
        <ele>0</ele>
        <time>2010-01-03T04:25:51Z</time>
      </trkpt>
      <trkpt lat="54.289324320852757" lon="10.966258998960257">
        <ele>0</ele>
        <time>2010-01-03T04:25:55Z</time>
      </trkpt>
      <trkpt lat="54.289327254518867" lon="10.966333597898483">
        <ele>0</ele>
        <time>2010-01-03T04:25:57Z</time>
      </trkpt>
      <trkpt lat="54.289318285882473" lon="10.966665940359235">
        <ele>0</ele>
        <time>2010-01-03T04:26:05Z</time>
      </trkpt>
      <trkpt lat="54.289300851523876" lon="10.967133231461048">
        <ele>0</ele>
        <time>2010-01-03T04:26:16Z</time>
      </trkpt>
      <trkpt lat="54.289260115474463" lon="10.967690963298082">
        <ele>0</ele>
        <time>2010-01-03T04:26:29Z</time>
      </trkpt>
      <trkpt lat="54.289220217615366" lon="10.968037052080035">
        <ele>0</ele>
        <time>2010-01-03T04:26:37Z</time>
      </trkpt>
      <trkpt lat="54.289204459637403" lon="10.968344248831272">
        <ele>0</ele>
        <time>2010-01-03T04:26:44Z</time>
      </trkpt>
      <trkpt lat="54.289200771600008" lon="10.968656558543444">
        <ele>0</ele>
        <time>2010-01-03T04:26:52Z</time>
      </trkpt>
      <trkpt lat="54.289210578426719" lon="10.968912625685334">
        <ele>0</ele>
        <time>2010-01-03T04:26:58Z</time>
      </trkpt>
      <trkpt lat="54.289232539013028" lon="10.969169782474637">
        <ele>0</ele>
        <time>2010-01-03T04:27:04Z</time>
      </trkpt>
      <trkpt lat="54.289277214556932" lon="10.969525091350079">
        <ele>0</ele>
        <time>2010-01-03T04:27:12Z</time>
      </trkpt>
      <trkpt lat="54.289348460733891" lon="10.969876712188125">
        <ele>0</ele>
        <time>2010-01-03T04:27:21Z</time>
      </trkpt>
      <trkpt lat="54.28942465223372" lon="10.970174437388778">
        <ele>0</ele>
        <time>2010-01-03T04:27:29Z</time>
      </trkpt>
      <trkpt lat="54.289541747421026" lon="10.970472916960716">
        <ele>0</ele>
        <time>2010-01-03T04:27:37Z</time>
      </trkpt>
      <trkpt lat="54.289665883406997" lon="10.970741976052523">
        <ele>0</ele>
        <time>2010-01-03T04:27:45Z</time>
      </trkpt>
      <trkpt lat="54.289806028828025" lon="10.970997540280223">
        <ele>0</ele>
        <time>2010-01-03T04:27:53Z</time>
      </trkpt>
      <trkpt lat="54.289933098480105" lon="10.971239022910595">
        <ele>0</ele>
        <time>2010-01-03T04:28:01Z</time>
      </trkpt>
      <trkpt lat="54.290096126496792" lon="10.9715426992625">
        <ele>0</ele>
        <time>2010-01-03T04:28:10Z</time>
      </trkpt>
      <trkpt lat="54.290222274139524" lon="10.971788708120584">
        <ele>0</ele>
        <time>2010-01-03T04:28:18Z</time>
      </trkpt>
      <trkpt lat="54.290378764271736" lon="10.972119458019733">
        <ele>0</ele>
        <time>2010-01-03T04:28:28Z</time>
      </trkpt>
      <trkpt lat="54.29055436514318" lon="10.972555233165622">
        <ele>0</ele>
        <time>2010-01-03T04:28:40Z</time>
      </trkpt>
      <trkpt lat="54.290731055662036" lon="10.973018584772944">
        <ele>0</ele>
        <time>2010-01-03T04:28:53Z</time>
      </trkpt>
      <trkpt lat="54.29087882861495" lon="10.973457209765911">
        <ele>0</ele>
        <time>2010-01-03T04:29:05Z</time>
      </trkpt>
      <trkpt lat="54.291580058634281" lon="10.975508764386177">
        <ele>0</ele>
        <time>2010-01-03T04:30:01Z</time>
      </trkpt>
      <trkpt lat="54.293593727052212" lon="10.981522696092725">
        <ele>0</ele>
        <time>2010-01-03T04:32:43Z</time>
      </trkpt>
      <trkpt lat="54.293727837502956" lon="10.981942377984524">
        <ele>0</ele>
        <time>2010-01-03T04:32:54Z</time>
      </trkpt>
      <trkpt lat="54.293855158612132" lon="10.982361473143101">
        <ele>0</ele>
        <time>2010-01-03T04:33:05Z</time>
      </trkpt>
      <trkpt lat="54.293975606560707" lon="10.98275232128799">
        <ele>0</ele>
        <time>2010-01-03T04:33:15Z</time>
      </trkpt>
      <trkpt lat="54.294085577130318" lon="10.98312322050333">
        <ele>0</ele>
        <time>2010-01-03T04:33:25Z</time>
      </trkpt>
      <trkpt lat="54.294123714789748" lon="10.983260851353407">
        <ele>0</ele>
        <time>2010-01-03T04:33:28Z</time>
      </trkpt>
      <trkpt lat="54.294160176068544" lon="10.983392195776105">
        <ele>0</ele>
        <time>2010-01-03T04:33:32Z</time>
      </trkpt>
      <trkpt lat="54.294266290962696" lon="10.983768459409475">
        <ele>0</ele>
        <time>2010-01-03T04:33:42Z</time>
      </trkpt>
      <trkpt lat="54.294405849650502" lon="10.984289227053523">
        <ele>0</ele>
        <time>2010-01-03T04:33:55Z</time>
      </trkpt>
      <trkpt lat="54.294530991464853" lon="10.984780238941312">
        <ele>0</ele>
        <time>2010-01-03T04:34:08Z</time>
      </trkpt>
      <trkpt lat="54.294606428593397" lon="10.985084502026439">
        <ele>0</ele>
        <time>2010-01-03T04:34:15Z</time>
      </trkpt>
      <trkpt lat="54.294734671711922" lon="10.985632259398699">
        <ele>0</ele>
        <time>2010-01-03T04:34:29Z</time>
      </trkpt>
      <trkpt lat="54.29485579021275" lon="10.986170712858438">
        <ele>0</ele>
        <time>2010-01-03T04:34:42Z</time>
      </trkpt>
      <trkpt lat="54.294969867914915" lon="10.98667848855257">
        <ele>0</ele>
        <time>2010-01-03T04:34:55Z</time>
      </trkpt>
      <trkpt lat="54.295059135183692" lon="10.987082663923502">
        <ele>0</ele>
        <time>2010-01-03T04:35:05Z</time>
      </trkpt>
      <trkpt lat="54.295276394113898" lon="10.988064939156175">
        <ele>0</ele>
        <time>2010-01-03T04:35:30Z</time>
      </trkpt>
      <trkpt lat="54.295478649437428" lon="10.988955935463309">
        <ele>0</ele>
        <time>2010-01-03T04:35:52Z</time>
      </trkpt>
      <trkpt lat="54.295577807351947" lon="10.98936983384192">
        <ele>0</ele>
        <time>2010-01-03T04:36:03Z</time>
      </trkpt>
      <trkpt lat="54.295696998015046" lon="10.989797143265605">
        <ele>0</ele>
        <time>2010-01-03T04:36:14Z</time>
      </trkpt>
      <trkpt lat="54.295850219205022" lon="10.990243898704648">
        <ele>0</ele>
        <time>2010-01-03T04:36:26Z</time>
      </trkpt>
      <trkpt lat="54.296009726822376" lon="10.990620916709304">
        <ele>0</ele>
        <time>2010-01-03T04:36:37Z</time>
      </trkpt>
      <trkpt lat="54.296190859749913" lon="10.990990810096264">
        <ele>0</ele>
        <time>2010-01-03T04:36:48Z</time>
      </trkpt>
      <trkpt lat="54.296442400664091" lon="10.991446366533637">
        <ele>0</ele>
        <time>2010-01-03T04:37:03Z</time>
      </trkpt>
      <trkpt lat="54.296946991235018" lon="10.992288496345282">
        <ele>0</ele>
        <time>2010-01-03T04:37:31Z</time>
      </trkpt>
      <trkpt lat="54.297213535755873" lon="10.992742041125894">
        <ele>0</ele>
        <time>2010-01-03T04:37:46Z</time>
      </trkpt>
      <trkpt lat="54.2973917350173" lon="10.99307362921536">
        <ele>0</ele>
        <time>2010-01-03T04:37:56Z</time>
      </trkpt>
      <trkpt lat="54.297629613429308" lon="10.99355299025774">
        <ele>0</ele>
        <time>2010-01-03T04:38:11Z</time>
      </trkpt>
      <trkpt lat="54.297850141301751" lon="10.994016425684094">
        <ele>0</ele>
        <time>2010-01-03T04:38:25Z</time>
      </trkpt>
      <trkpt lat="54.298023730516434" lon="10.994413895532489">
        <ele>0</ele>
        <time>2010-01-03T04:38:37Z</time>
      </trkpt>
      <trkpt lat="54.298249538987875" lon="10.994950756430626">
        <ele>0</ele>
        <time>2010-01-03T04:38:52Z</time>
      </trkpt>
      <trkpt lat="54.298476101830602" lon="10.995540004223585">
        <ele>0</ele>
        <time>2010-01-03T04:39:09Z</time>
      </trkpt>
      <trkpt lat="54.298832667991519" lon="10.996591681614518">
        <ele>0</ele>
        <time>2010-01-03T04:39:37Z</time>
      </trkpt>
      <trkpt lat="54.299027714878321" lon="10.997191071510315">
        <ele>0</ele>
        <time>2010-01-03T04:39:53Z</time>
      </trkpt>
      <trkpt lat="54.299194179475307" lon="10.997700355947018">
        <ele>0</ele>
        <time>2010-01-03T04:40:07Z</time>
      </trkpt>
      <trkpt lat="54.299383442848921" lon="10.99827166646719">
        <ele>0</ele>
        <time>2010-01-03T04:40:22Z</time>
      </trkpt>
      <trkpt lat="54.29942493326962" lon="10.998396556824446">
        <ele>0</ele>
        <time>2010-01-03T04:40:25Z</time>
      </trkpt>
      <trkpt lat="54.299682006239891" lon="10.999169619753957">
        <ele>0</ele>
        <time>2010-01-03T04:40:46Z</time>
      </trkpt>
      <trkpt lat="54.299815529957414" lon="10.999564239755273">
        <ele>0</ele>
        <time>2010-01-03T04:40:57Z</time>
      </trkpt>
      <trkpt lat="54.299904881045222" lon="10.999833969399333">
        <ele>0</ele>
        <time>2010-01-03T04:41:04Z</time>
      </trkpt>
      <trkpt lat="54.299977887421846" lon="11.000070255249739">
        <ele>0</ele>
        <time>2010-01-03T04:41:10Z</time>
      </trkpt>
      <trkpt lat="54.300039997324347" lon="11.000305283814669">
        <ele>0</ele>
        <time>2010-01-03T04:41:16Z</time>
      </trkpt>
      <trkpt lat="54.300111494958401" lon="11.000583143904805">
        <ele>0</ele>
        <time>2010-01-03T04:41:23Z</time>
      </trkpt>
      <trkpt lat="54.300116524100304" lon="11.000607283785939">
        <ele>0</ele>
        <time>2010-01-03T04:41:24Z</time>
      </trkpt>
      <trkpt lat="54.300148878246546" lon="11.000763522461057">
        <ele>0</ele>
        <time>2010-01-03T04:41:28Z</time>
      </trkpt>
      <trkpt lat="54.300188608467579" lon="11.000988241285086">
        <ele>0</ele>
        <time>2010-01-03T04:41:33Z</time>
      </trkpt>
      <trkpt lat="54.300256837159395" lon="11.001355201005936">
        <ele>0</ele>
        <time>2010-01-03T04:41:42Z</time>
      </trkpt>
      <trkpt lat="54.300287012010813" lon="11.001492915675044">
        <ele>0</ele>
        <time>2010-01-03T04:41:46Z</time>
      </trkpt>
      <trkpt lat="54.300321461632848" lon="11.001639515161514">
        <ele>0</ele>
        <time>2010-01-03T04:41:50Z</time>
      </trkpt>
      <trkpt lat="54.300373261794448" lon="11.001814948394895">
        <ele>0</ele>
        <time>2010-01-03T04:41:54Z</time>
      </trkpt>
      <trkpt lat="54.300409387797117" lon="11.001950735226274">
        <ele>0</ele>
        <time>2010-01-03T04:41:58Z</time>
      </trkpt>
      <trkpt lat="54.300430174916983" lon="11.002076212316751">
        <ele>0</ele>
        <time>2010-01-03T04:42:01Z</time>
      </trkpt>
      <trkpt lat="54.300436964258552" lon="11.002246532589197">
        <ele>0</ele>
        <time>2010-01-03T04:42:05Z</time>
      </trkpt>
      <trkpt lat="54.300428498536348" lon="11.002524811774492">
        <ele>0</ele>
        <time>2010-01-03T04:42:11Z</time>
      </trkpt>
      <trkpt lat="54.300411231815815" lon="11.003150437027216">
        <ele>0</ele>
        <time>2010-01-03T04:42:26Z</time>
      </trkpt>
      <trkpt lat="54.300401676446199" lon="11.003295024856925">
        <ele>0</ele>
        <time>2010-01-03T04:42:29Z</time>
      </trkpt>
      <trkpt lat="54.300403688102961" lon="11.003439361229539">
        <ele>0</ele>
        <time>2010-01-03T04:42:33Z</time>
      </trkpt>
      <trkpt lat="54.300410142168403" lon="11.003566766157746">
        <ele>0</ele>
        <time>2010-01-03T04:42:36Z</time>
      </trkpt>
      <trkpt lat="54.300427157431841" lon="11.003669276833534">
        <ele>0</ele>
        <time>2010-01-03T04:42:38Z</time>
      </trkpt>
      <trkpt lat="54.300463451072574" lon="11.003814283758402">
        <ele>0</ele>
        <time>2010-01-03T04:42:42Z</time>
      </trkpt>
      <trkpt lat="54.300504270941019" lon="11.0039715282619">
        <ele>0</ele>
        <time>2010-01-03T04:42:46Z</time>
      </trkpt>
      <trkpt lat="54.300530087202787" lon="11.004063226282597">
        <ele>0</ele>
        <time>2010-01-03T04:42:48Z</time>
      </trkpt>
      <trkpt lat="54.300575517117977" lon="11.004224829375744">
        <ele>0</ele>
        <time>2010-01-03T04:42:52Z</time>
      </trkpt>
      <trkpt lat="54.300627987831831" lon="11.004374111071229">
        <ele>0</ele>
        <time>2010-01-03T04:42:56Z</time>
      </trkpt>
      <trkpt lat="54.300672244280577" lon="11.004509730264544">
        <ele>0</ele>
        <time>2010-01-03T04:43:00Z</time>
      </trkpt>
      <trkpt lat="54.300758996978402" lon="11.004788763821125">
        <ele>0</ele>
        <time>2010-01-03T04:43:07Z</time>
      </trkpt>
      <trkpt lat="54.300852539017797" lon="11.005135187879205">
        <ele>0</ele>
        <time>2010-01-03T04:43:16Z</time>
      </trkpt>
      <trkpt lat="54.300983129069209" lon="11.005715802311897">
        <ele>0</ele>
        <time>2010-01-03T04:43:31Z</time>
      </trkpt>
      <trkpt lat="54.301004502922297" lon="11.005807416513562">
        <ele>0</ele>
        <time>2010-01-03T04:43:33Z</time>
      </trkpt>
      <trkpt lat="54.301049681380391" lon="11.00599835626781">
        <ele>0</ele>
        <time>2010-01-03T04:43:38Z</time>
      </trkpt>
      <trkpt lat="54.301091087982059" lon="11.006174040958285">
        <ele>0</ele>
        <time>2010-01-03T04:43:42Z</time>
      </trkpt>
      <trkpt lat="54.30126266553998" lon="11.006928747519851">
        <ele>0</ele>
        <time>2010-01-03T04:44:01Z</time>
      </trkpt>
      <trkpt lat="54.30128512904048" lon="11.007038801908493">
        <ele>0</ele>
        <time>2010-01-03T04:44:04Z</time>
      </trkpt>
      <trkpt lat="54.30130030028522" lon="11.007136786356568">
        <ele>0</ele>
        <time>2010-01-03T04:44:06Z</time>
      </trkpt>
      <trkpt lat="54.301313711330295" lon="11.007243990898132">
        <ele>0</ele>
        <time>2010-01-03T04:44:09Z</time>
      </trkpt>
      <trkpt lat="54.301330307498574" lon="11.007401738315821">
        <ele>0</ele>
        <time>2010-01-03T04:44:13Z</time>
      </trkpt>
      <trkpt lat="54.301324440166354" lon="11.007557054981589">
        <ele>0</ele>
        <time>2010-01-03T04:44:16Z</time>
      </trkpt>
      <trkpt lat="54.30129736661911" lon="11.007763585075736">
        <ele>0</ele>
        <time>2010-01-03T04:44:21Z</time>
      </trkpt>
      <trkpt lat="54.301226204261184" lon="11.008284520357847">
        <ele>0</ele>
        <time>2010-01-03T04:44:34Z</time>
      </trkpt>
      <trkpt lat="54.301140122115612" lon="11.0088534001261">
        <ele>0</ele>
        <time>2010-01-03T04:44:47Z</time>
      </trkpt>
      <trkpt lat="54.301086729392409" lon="11.009132685139775">
        <ele>0</ele>
        <time>2010-01-03T04:44:54Z</time>
      </trkpt>
      <trkpt lat="54.301043646410108" lon="11.009357990697026">
        <ele>0</ele>
        <time>2010-01-03T04:45:00Z</time>
      </trkpt>
      <trkpt lat="54.300979021936655" lon="11.009805081412196">
        <ele>0</ele>
        <time>2010-01-03T04:45:11Z</time>
      </trkpt>
      <trkpt lat="54.300949182361364" lon="11.00999778136611">
        <ele>0</ele>
        <time>2010-01-03T04:45:15Z</time>
      </trkpt>
      <trkpt lat="54.300937531515956" lon="11.010119402781129">
        <ele>0</ele>
        <time>2010-01-03T04:45:18Z</time>
      </trkpt>
      <trkpt lat="54.300937866792083" lon="11.010260721668601">
        <ele>0</ele>
        <time>2010-01-03T04:45:21Z</time>
      </trkpt>
      <trkpt lat="54.300939459353685" lon="11.01046197116375">
        <ele>0</ele>
        <time>2010-01-03T04:45:26Z</time>
      </trkpt>
      <trkpt lat="54.3013427965343" lon="11.009946567937732">
        <ele>0</ele>
        <time>2010-01-03T04:45:46Z</time>
      </trkpt>
      <trkpt lat="54.301505824550986" lon="11.009738696739078">
        <ele>0</ele>
        <time>2010-01-03T04:45:54Z</time>
      </trkpt>
      <trkpt lat="54.30194235406816" lon="11.009178198873997">
        <ele>0</ele>
        <time>2010-01-03T04:46:16Z</time>
      </trkpt>
      <trkpt lat="54.302610559388995" lon="11.008269684389234">
        <ele>0</ele>
        <time>2010-01-03T04:46:50Z</time>
      </trkpt>
      <trkpt lat="54.303042395040393" lon="11.007686303928494">
        <ele>0</ele>
        <time>2010-01-03T04:47:12Z</time>
      </trkpt>
      <trkpt lat="54.303308269008994" lon="11.007357314229012">
        <ele>0</ele>
        <time>2010-01-03T04:47:26Z</time>
      </trkpt>
      <trkpt lat="54.30343902669847" lon="11.007194370031357">
        <ele>0</ele>
        <time>2010-01-03T04:47:32Z</time>
      </trkpt>
      <trkpt lat="54.303614711388946" lon="11.006928998976946">
        <ele>0</ele>
        <time>2010-01-03T04:47:41Z</time>
      </trkpt>
      <trkpt lat="54.303676821291447" lon="11.006833780556917">
        <ele>0</ele>
        <time>2010-01-03T04:47:45Z</time>
      </trkpt>
      <trkpt lat="54.303803136572242" lon="11.00667561404407">
        <ele>0</ele>
        <time>2010-01-03T04:47:51Z</time>
      </trkpt>
      <trkpt lat="54.304044367745519" lon="11.006402531638741">
        <ele>0</ele>
        <time>2010-01-03T04:48:03Z</time>
      </trkpt>
      <trkpt lat="54.304294735193253" lon="11.006152164191008">
        <ele>0</ele>
        <time>2010-01-03T04:48:14Z</time>
      </trkpt>
      <trkpt lat="54.304474862292409" lon="11.005988130345941">
        <ele>0</ele>
        <time>2010-01-03T04:48:22Z</time>
      </trkpt>
      <trkpt lat="54.304642919450998" lon="11.005885703489184">
        <ele>0</ele>
        <time>2010-01-03T04:48:29Z</time>
      </trkpt>
      <trkpt lat="54.304896052926779" lon="11.005745977163315">
        <ele>0</ele>
        <time>2010-01-03T04:48:40Z</time>
      </trkpt>
      <trkpt lat="54.30509596131742" lon="11.005677245557308">
        <ele>0</ele>
        <time>2010-01-03T04:48:48Z</time>
      </trkpt>
      <trkpt lat="54.305265778675675" lon="11.005638102069497">
        <ele>0</ele>
        <time>2010-01-03T04:48:55Z</time>
      </trkpt>
      <trkpt lat="54.30528455413878" lon="11.005633659660816">
        <ele>0</ele>
        <time>2010-01-03T04:48:56Z</time>
      </trkpt>
      <trkpt lat="54.305446660146117" lon="11.005610441789031">
        <ele>0</ele>
        <time>2010-01-03T04:49:02Z</time>
      </trkpt>
      <trkpt lat="54.305596444755793" lon="11.005616644397378">
        <ele>0</ele>
        <time>2010-01-03T04:49:08Z</time>
      </trkpt>
      <trkpt lat="54.305691663175821" lon="11.0056206677109">
        <ele>0</ele>
        <time>2010-01-03T04:49:12Z</time>
      </trkpt>
      <trkpt lat="54.30592711083591" lon="11.005656123161316">
        <ele>0</ele>
        <time>2010-01-03T04:49:22Z</time>
      </trkpt>
      <trkpt lat="54.306089719757438" lon="11.005702139809728">
        <ele>0</ele>
        <time>2010-01-03T04:49:28Z</time>
      </trkpt>
      <trkpt lat="54.30618854239583" lon="11.005748156458139">
        <ele>0</ele>
        <time>2010-01-03T04:49:32Z</time>
      </trkpt>
      <trkpt lat="54.306534798815846" lon="11.005966169759631">
        <ele>0</ele>
        <time>2010-01-03T04:49:47Z</time>
      </trkpt>
      <trkpt lat="54.306738981977105" lon="11.006104135885835">
        <ele>0</ele>
        <time>2010-01-03T04:49:56Z</time>
      </trkpt>
      <trkpt lat="54.306929837912321" lon="11.006260793656111">
        <ele>0</ele>
        <time>2010-01-03T04:50:04Z</time>
      </trkpt>
      <trkpt lat="54.307086663320661" lon="11.006435304880142">
        <ele>0</ele>
        <time>2010-01-03T04:50:12Z</time>
      </trkpt>
      <trkpt lat="54.307241896167397" lon="11.006622053682804">
        <ele>0</ele>
        <time>2010-01-03T04:50:19Z</time>
      </trkpt>
      <trkpt lat="54.307386483997107" lon="11.006832104176283">
        <ele>0</ele>
        <time>2010-01-03T04:50:27Z</time>
      </trkpt>
      <trkpt lat="54.307572478428483" lon="11.007168721407652">
        <ele>0</ele>
        <time>2010-01-03T04:50:38Z</time>
      </trkpt>
      <trkpt lat="54.307688483968377" lon="11.007413556799293">
        <ele>0</ele>
        <time>2010-01-03T04:50:45Z</time>
      </trkpt>
      <trkpt lat="54.307872550562024" lon="11.007817396894097">
        <ele>0</ele>
        <time>2010-01-03T04:50:57Z</time>
      </trkpt>
      <trkpt lat="54.308157032355666" lon="11.008430952206254">
        <ele>0</ele>
        <time>2010-01-03T04:51:16Z</time>
      </trkpt>
      <trkpt lat="54.308344954624772" lon="11.008895477280021">
        <ele>0</ele>
        <time>2010-01-03T04:51:29Z</time>
      </trkpt>
      <trkpt lat="54.308562716469169" lon="11.009447341784835">
        <ele>0</ele>
        <time>2010-01-03T04:51:44Z</time>
      </trkpt>
      <trkpt lat="54.308816352859139" lon="11.00995427928865">
        <ele>0</ele>
        <time>2010-01-03T04:52:00Z</time>
      </trkpt>
      <trkpt lat="54.309041826054454" lon="11.010367590934038">
        <ele>0</ele>
        <time>2010-01-03T04:52:13Z</time>
      </trkpt>
      <trkpt lat="54.309213906526566" lon="11.01067160256207">
        <ele>0</ele>
        <time>2010-01-03T04:52:23Z</time>
      </trkpt>
      <trkpt lat="54.309366876259446" lon="11.010912917554379">
        <ele>0</ele>
        <time>2010-01-03T04:52:31Z</time>
      </trkpt>
      <trkpt lat="54.309798376634717" lon="11.01149252615869">
        <ele>0</ele>
        <time>2010-01-03T04:52:53Z</time>
      </trkpt>
      <trkpt lat="54.310125689953566" lon="11.011854959651828">
        <ele>0</ele>
        <time>2010-01-03T04:53:09Z</time>
      </trkpt>
      <trkpt lat="54.310500444844365" lon="11.012200964614749">
        <ele>0</ele>
        <time>2010-01-03T04:53:26Z</time>
      </trkpt>
      <trkpt lat="54.310616869479418" lon="11.012301882728934">
        <ele>0</ele>
        <time>2010-01-03T04:53:31Z</time>
      </trkpt>
      <trkpt lat="54.310738407075405" lon="11.012407327070832">
        <ele>0</ele>
        <time>2010-01-03T04:53:37Z</time>
      </trkpt>
      <trkpt lat="54.311077119782567" lon="11.0126265976578">
        <ele>0</ele>
        <time>2010-01-03T04:53:51Z</time>
      </trkpt>
      <trkpt lat="54.311370486393571" lon="11.012796247377992">
        <ele>0</ele>
        <time>2010-01-03T04:54:03Z</time>
      </trkpt>
      <trkpt lat="54.311601491644979" lon="11.012913677841425">
        <ele>0</ele>
        <time>2010-01-03T04:54:13Z</time>
      </trkpt>
      <trkpt lat="54.311817912384868" lon="11.013021385297179">
        <ele>0</ele>
        <time>2010-01-03T04:54:22Z</time>
      </trkpt>
      <trkpt lat="54.312270199880004" lon="11.01322908885777">
        <ele>0</ele>
        <time>2010-01-03T04:54:41Z</time>
      </trkpt>
      <trkpt lat="54.312615618109703" lon="11.013365713879466">
        <ele>0</ele>
        <time>2010-01-03T04:54:55Z</time>
      </trkpt>
      <trkpt lat="54.313437463715672" lon="11.013671401888132">
        <ele>0</ele>
        <time>2010-01-03T04:55:29Z</time>
      </trkpt>
      <trkpt lat="54.313777349889278" lon="11.013777432963252">
        <ele>0</ele>
        <time>2010-01-03T04:55:43Z</time>
      </trkpt>
      <trkpt lat="54.314195523038507" lon="11.013941047713161">
        <ele>0</ele>
        <time>2010-01-03T04:56:00Z</time>
      </trkpt>
      <trkpt lat="54.315021140500903" lon="11.014262493699789">
        <ele>0</ele>
        <time>2010-01-03T04:56:34Z</time>
      </trkpt>
      <trkpt lat="54.315754640847445" lon="11.014536917209625">
        <ele>0</ele>
        <time>2010-01-03T04:57:04Z</time>
      </trkpt>
      <trkpt lat="54.316359478980303" lon="11.014772951602936">
        <ele>0</ele>
        <time>2010-01-03T04:57:29Z</time>
      </trkpt>
      <trkpt lat="54.316821908578277" lon="11.014966322109103">
        <ele>0</ele>
        <time>2010-01-03T04:57:48Z</time>
      </trkpt>
      <trkpt lat="54.317655488848686" lon="11.015392038971186">
        <ele>0</ele>
        <time>2010-01-03T04:58:22Z</time>
      </trkpt>
      <trkpt lat="54.318049103021622" lon="11.015617763623595">
        <ele>0</ele>
        <time>2010-01-03T04:58:39Z</time>
      </trkpt>
      <trkpt lat="54.318551514297724" lon="11.015912219882011">
        <ele>0</ele>
        <time>2010-01-03T04:59:00Z</time>
      </trkpt>
      <trkpt lat="54.318568278104067" lon="11.015755897387862">
        <ele>0</ele>
        <time>2010-01-03T04:59:04Z</time>
      </trkpt>
      <trkpt lat="54.318605745211244" lon="11.01563461124897">
        <ele>0</ele>
        <time>2010-01-03T04:59:07Z</time>
      </trkpt>
      <trkpt lat="54.318633992224932" lon="11.015568310394883">
        <ele>0</ele>
        <time>2010-01-03T04:59:09Z</time>
      </trkpt>
      <trkpt lat="54.318673638626933" lon="11.015509888529778">
        <ele>0</ele>
        <time>2010-01-03T04:59:11Z</time>
      </trkpt>
      <trkpt lat="54.318724600598216" lon="11.015467643737793">
        <ele>0</ele>
        <time>2010-01-03T04:59:13Z</time>
      </trkpt>
      <trkpt lat="54.318798528984189" lon="11.015444425866008">
        <ele>0</ele>
        <time>2010-01-03T04:59:16Z</time>
      </trkpt>
      <trkpt lat="54.319019308313727" lon="11.015424644574523">
        <ele>0</ele>
        <time>2010-01-03T04:59:25Z</time>
      </trkpt>
      <trkpt lat="54.319189293310046" lon="11.015411820262671">
        <ele>0</ele>
        <time>2010-01-03T04:59:32Z</time>
      </trkpt>
      <trkpt lat="54.319478888064623" lon="11.01540494710207">
        <ele>0</ele>
        <time>2010-01-03T04:59:44Z</time>
      </trkpt>
      <trkpt lat="54.31964635848999" lon="11.015407545492053">
        <ele>0</ele>
        <time>2010-01-03T04:59:50Z</time>
      </trkpt>
      <trkpt lat="54.319880548864603" lon="11.015439480543137">
        <ele>0</ele>
        <time>2010-01-03T05:00:00Z</time>
      </trkpt>
      <trkpt lat="54.320143405348063" lon="11.015515588223934">
        <ele>0</ele>
        <time>2010-01-03T05:00:10Z</time>
      </trkpt>
      <trkpt lat="54.320154218003154" lon="11.015518354251981">
        <ele>0</ele>
        <time>2010-01-03T05:00:11Z</time>
      </trkpt>
      <trkpt lat="54.320484548807144" lon="11.015601167455316">
        <ele>0</ele>
        <time>2010-01-03T05:00:24Z</time>
      </trkpt>
      <trkpt lat="54.320653025060892" lon="11.015658667311072">
        <ele>0</ele>
        <time>2010-01-03T05:00:31Z</time>
      </trkpt>
      <trkpt lat="54.320894591510296" lon="11.015749694779515">
        <ele>0</ele>
        <time>2010-01-03T05:00:41Z</time>
      </trkpt>
      <trkpt lat="54.321078658103943" lon="11.015843655914068">
        <ele>0</ele>
        <time>2010-01-03T05:00:49Z</time>
      </trkpt>
      <trkpt lat="54.321339335292578" lon="11.015977347269654">
        <ele>0</ele>
        <time>2010-01-03T05:01:00Z</time>
      </trkpt>
      <trkpt lat="54.321389123797417" lon="11.016001487150788">
        <ele>0</ele>
        <time>2010-01-03T05:01:02Z</time>
      </trkpt>
      <trkpt lat="54.321545027196407" lon="11.016076924279332">
        <ele>0</ele>
        <time>2010-01-03T05:01:08Z</time>
      </trkpt>
      <trkpt lat="54.321663714945316" lon="11.01609100587666">
        <ele>0</ele>
        <time>2010-01-03T05:01:13Z</time>
      </trkpt>
      <trkpt lat="54.32171224616468" lon="11.016095951199532">
        <ele>0</ele>
        <time>2010-01-03T05:01:15Z</time>
      </trkpt>
      <trkpt lat="54.321859432384372" lon="11.016072481870651">
        <ele>0</ele>
        <time>2010-01-03T05:01:21Z</time>
      </trkpt>
      <trkpt lat="54.321926571428776" lon="11.016043229028583">
        <ele>0</ele>
        <time>2010-01-03T05:01:24Z</time>
      </trkpt>
      <trkpt lat="54.32203914038837" lon="11.0159698035568">
        <ele>0</ele>
        <time>2010-01-03T05:01:28Z</time>
      </trkpt>
      <trkpt lat="54.322198983281851" lon="11.015843069180846">
        <ele>0</ele>
        <time>2010-01-03T05:01:35Z</time>
      </trkpt>
      <trkpt lat="54.322336697950959" lon="11.015761429443955">
        <ele>0</ele>
        <time>2010-01-03T05:01:41Z</time>
      </trkpt>
      <trkpt lat="54.322599554434419" lon="11.015610639005899">
        <ele>0</ele>
        <time>2010-01-03T05:01:52Z</time>
      </trkpt>
      <trkpt lat="54.322832152247429" lon="11.015485245734453">
        <ele>0</ele>
        <time>2010-01-03T05:02:02Z</time>
      </trkpt>
      <trkpt lat="54.323079334571958" lon="11.015388686209917">
        <ele>0</ele>
        <time>2010-01-03T05:02:12Z</time>
      </trkpt>
      <trkpt lat="54.323299024254084" lon="11.015338813886046">
        <ele>0</ele>
        <time>2010-01-03T05:02:21Z</time>
      </trkpt>
      <trkpt lat="54.323573699221015" lon="11.015306124463677">
        <ele>0</ele>
        <time>2010-01-03T05:02:32Z</time>
      </trkpt>
      <trkpt lat="54.323812499642372" lon="11.01528818719089">
        <ele>0</ele>
        <time>2010-01-03T05:02:42Z</time>
      </trkpt>
      <trkpt lat="54.323807470500469" lon="11.015223730355501">
        <ele>0</ele>
        <time>2010-01-03T05:02:43Z</time>
      </trkpt>
      <trkpt lat="54.323801519349217" lon="11.015150053426623">
        <ele>0</ele>
        <time>2010-01-03T05:02:45Z</time>
      </trkpt>
      <trkpt lat="54.323778552934527" lon="11.014984678477049">
        <ele>0</ele>
        <time>2010-01-03T05:02:49Z</time>
      </trkpt>
      <trkpt lat="54.323750138282776" lon="11.014800863340497">
        <ele>0</ele>
        <time>2010-01-03T05:02:53Z</time>
      </trkpt>
      <trkpt lat="54.323742678388953" lon="11.014771861955523">
        <ele>0</ele>
        <time>2010-01-03T05:02:54Z</time>
      </trkpt>
      <trkpt lat="54.323728093877435" lon="11.014635404571891">
        <ele>0</ele>
        <time>2010-01-03T05:02:57Z</time>
      </trkpt>
      <trkpt lat="54.323715521022677" lon="11.014525014907122">
        <ele>0</ele>
        <time>2010-01-03T05:03:00Z</time>
      </trkpt>
      <trkpt lat="54.323728261515498" lon="11.014429461210966">
        <ele>0</ele>
        <time>2010-01-03T05:03:02Z</time>
      </trkpt>
      <trkpt lat="54.32373764924705" lon="11.014376990497112">
        <ele>0</ele>
        <time>2010-01-03T05:03:04Z</time>
      </trkpt>
      <trkpt lat="54.323752485215664" lon="11.01431823335588">
        <ele>0</ele>
        <time>2010-01-03T05:03:05Z</time>
      </trkpt>
      <trkpt lat="54.323781318962574" lon="11.014220668002963">
        <ele>0</ele>
        <time>2010-01-03T05:03:08Z</time>
      </trkpt>
      <trkpt lat="54.323819205164909" lon="11.01412913762033">
        <ele>0</ele>
        <time>2010-01-03T05:03:10Z</time>
      </trkpt>
      <trkpt lat="54.323866227641702" lon="11.014049593359232">
        <ele>0</ele>
        <time>2010-01-03T05:03:13Z</time>
      </trkpt>
      <trkpt lat="54.323933785781264" lon="11.013966528698802">
        <ele>0</ele>
        <time>2010-01-03T05:03:16Z</time>
      </trkpt>
      <trkpt lat="54.323981981724501" lon="11.013929983600974">
        <ele>0</ele>
        <time>2010-01-03T05:03:18Z</time>
      </trkpt>
      <trkpt lat="54.324124976992607" lon="11.01383744738996">
        <ele>0</ele>
        <time>2010-01-03T05:03:24Z</time>
      </trkpt>
      <trkpt lat="54.324191948398948" lon="11.013805260881782">
        <ele>0</ele>
        <time>2010-01-03T05:03:27Z</time>
      </trkpt>
      <trkpt lat="54.324290184304118" lon="11.013758154585958">
        <ele>0</ele>
        <time>2010-01-03T05:03:31Z</time>
      </trkpt>
      <trkpt lat="54.324377104640007" lon="11.013709120452404">
        <ele>0</ele>
        <time>2010-01-03T05:03:35Z</time>
      </trkpt>
      <trkpt lat="54.324458660557866" lon="11.013623038306832">
        <ele>0</ele>
        <time>2010-01-03T05:03:39Z</time>
      </trkpt>
      <trkpt lat="54.324514484032989" lon="11.013531675562263">
        <ele>0</ele>
        <time>2010-01-03T05:03:42Z</time>
      </trkpt>
      <trkpt lat="54.324527559801936" lon="11.013494879007339">
        <ele>0</ele>
        <time>2010-01-03T05:03:43Z</time>
      </trkpt>
      <trkpt lat="54.324553208425641" lon="11.013422710821033">
        <ele>0</ele>
        <time>2010-01-03T05:03:45Z</time>
      </trkpt>
      <trkpt lat="54.324571648612618" lon="11.013350794091821">
        <ele>0</ele>
        <time>2010-01-03T05:03:47Z</time>
      </trkpt>
      <trkpt lat="54.32461716234684" lon="11.01335171610117">
        <ele>0</ele>
        <time>2010-01-03T05:03:49Z</time>
      </trkpt>
      <trkpt lat="54.32469536550343" lon="11.01331165060401">
        <ele>0</ele>
        <time>2010-01-03T05:03:52Z</time>
      </trkpt>
      <trkpt lat="54.324876833707094" lon="11.013164715841413">
        <ele>0</ele>
        <time>2010-01-03T05:04:00Z</time>
      </trkpt>
      <trkpt lat="54.325000969693065" lon="11.013072598725557">
        <ele>0</ele>
        <time>2010-01-03T05:04:05Z</time>
      </trkpt>
      <trkpt lat="54.325637491419911" lon="11.01261192932725">
        <ele>0</ele>
        <time>2010-01-03T05:04:33Z</time>
      </trkpt>
      <trkpt lat="54.325977964326739" lon="11.012273635715246">
        <ele>0</ele>
        <time>2010-01-03T05:04:49Z</time>
      </trkpt>
      <trkpt lat="54.32626336812973" lon="11.01194397546351">
        <ele>0</ele>
        <time>2010-01-03T05:05:02Z</time>
      </trkpt>
      <trkpt lat="54.32636839337647" lon="11.01180961355567">
        <ele>0</ele>
        <time>2010-01-03T05:05:08Z</time>
      </trkpt>
      <trkpt lat="54.326447350904346" lon="11.011699642986059">
        <ele>0</ele>
        <time>2010-01-03T05:05:12Z</time>
      </trkpt>
      <trkpt lat="54.326631333678961" lon="11.011431170627475">
        <ele>0</ele>
        <time>2010-01-03T05:05:21Z</time>
      </trkpt>
      <trkpt lat="54.327033581212163" lon="11.010819459334016">
        <ele>0</ele>
        <time>2010-01-03T05:05:43Z</time>
      </trkpt>
      <trkpt lat="54.327317895367742" lon="11.010379744693637">
        <ele>0</ele>
        <time>2010-01-03T05:05:58Z</time>
      </trkpt>
      <trkpt lat="54.32756507769227" lon="11.009997865185142">
        <ele>0</ele>
        <time>2010-01-03T05:06:12Z</time>
      </trkpt>
      <trkpt lat="54.327624924480915" lon="11.00990834645927">
        <ele>0</ele>
        <time>2010-01-03T05:06:15Z</time>
      </trkpt>
      <trkpt lat="54.327957350760698" lon="11.009411131963134">
        <ele>0</ele>
        <time>2010-01-03T05:06:32Z</time>
      </trkpt>
      <trkpt lat="54.32801166549325" lon="11.009346758946776">
        <ele>0</ele>
        <time>2010-01-03T05:06:35Z</time>
      </trkpt>
      <trkpt lat="54.328080229461193" lon="11.009277524426579">
        <ele>0</ele>
        <time>2010-01-03T05:06:38Z</time>
      </trkpt>
      <trkpt lat="54.328149799257517" lon="11.00920669734478">
        <ele>0</ele>
        <time>2010-01-03T05:06:42Z</time>
      </trkpt>
      <trkpt lat="54.328318275511265" lon="11.009045848622918">
        <ele>0</ele>
        <time>2010-01-03T05:06:49Z</time>
      </trkpt>
      <trkpt lat="54.328574342653155" lon="11.008829092606902">
        <ele>0</ele>
        <time>2010-01-03T05:07:01Z</time>
      </trkpt>
      <trkpt lat="54.328671740368009" lon="11.008771425113082">
        <ele>0</ele>
        <time>2010-01-03T05:07:05Z</time>
      </trkpt>
      <trkpt lat="54.328741477802396" lon="11.008728258311749">
        <ele>0</ele>
        <time>2010-01-03T05:07:08Z</time>
      </trkpt>
      <trkpt lat="54.32881398126483" lon="11.008691126480699">
        <ele>0</ele>
        <time>2010-01-03T05:07:11Z</time>
      </trkpt>
      <trkpt lat="54.329209439456463" lon="11.008603200316429">
        <ele>0</ele>
        <time>2010-01-03T05:07:27Z</time>
      </trkpt>
      <trkpt lat="54.329306418076158" lon="11.008594734594226">
        <ele>0</ele>
        <time>2010-01-03T05:07:31Z</time>
      </trkpt>
      <trkpt lat="54.329653177410364" lon="11.008594064041972">
        <ele>0</ele>
        <time>2010-01-03T05:07:45Z</time>
      </trkpt>
      <trkpt lat="54.329887619242072" lon="11.008589956909418">
        <ele>0</ele>
        <time>2010-01-03T05:07:54Z</time>
      </trkpt>
      <trkpt lat="54.330088784918189" lon="11.008578976616263">
        <ele>0</ele>
        <time>2010-01-03T05:08:02Z</time>
      </trkpt>
      <trkpt lat="54.330386929214001" lon="11.008558021858335">
        <ele>0</ele>
        <time>2010-01-03T05:08:14Z</time>
      </trkpt>
      <trkpt lat="54.33060142211616" lon="11.008529774844646">
        <ele>0</ele>
        <time>2010-01-03T05:08:23Z</time>
      </trkpt>
      <trkpt lat="54.33086427859962" lon="11.008489625528455">
        <ele>0</ele>
        <time>2010-01-03T05:08:33Z</time>
      </trkpt>
      <trkpt lat="54.33136124163866" lon="11.004465473815799">
        <ele>0</ele>
        <time>2010-01-03T05:10:09Z</time>
      </trkpt>
      <trkpt lat="54.331368869170547" lon="11.004402274265885">
        <ele>0</ele>
        <time>2010-01-03T05:10:11Z</time>
      </trkpt>
      <trkpt lat="54.33156349696219" lon="11.003697020933032">
        <ele>0</ele>
        <time>2010-01-03T05:10:29Z</time>
      </trkpt>
      <trkpt lat="54.331836411729455" lon="11.002684151753783">
        <ele>0</ele>
        <time>2010-01-03T05:10:55Z</time>
      </trkpt>
      <trkpt lat="54.332292135804892" lon="11.001069713383913">
        <ele>0</ele>
        <time>2010-01-03T05:11:37Z</time>
      </trkpt>
      <trkpt lat="54.332418367266655" lon="11.000526566058397">
        <ele>0</ele>
        <time>2010-01-03T05:11:50Z</time>
      </trkpt>
      <trkpt lat="54.332557255402207" lon="10.99999020807445">
        <ele>0</ele>
        <time>2010-01-03T05:12:04Z</time>
      </trkpt>
      <trkpt lat="54.33270838111639" lon="10.999406073242426">
        <ele>0</ele>
        <time>2010-01-03T05:12:19Z</time>
      </trkpt>
      <trkpt lat="54.33274501003325" lon="10.999244721606374">
        <ele>0</ele>
        <time>2010-01-03T05:12:23Z</time>
      </trkpt>
      <trkpt lat="54.332759929820895" lon="10.999130895361304">
        <ele>0</ele>
        <time>2010-01-03T05:12:26Z</time>
      </trkpt>
      <trkpt lat="54.332805527374148" lon="10.998852448537946">
        <ele>0</ele>
        <time>2010-01-03T05:12:33Z</time>
      </trkpt>
      <trkpt lat="54.33283444494009" lon="10.998467886820436">
        <ele>0</ele>
        <time>2010-01-03T05:12:42Z</time>
      </trkpt>
      <trkpt lat="54.332893453538418" lon="10.998093048110604">
        <ele>0</ele>
        <time>2010-01-03T05:12:51Z</time>
      </trkpt>
      <trkpt lat="54.332946594804525" lon="10.997871430590749">
        <ele>0</ele>
        <time>2010-01-03T05:12:56Z</time>
      </trkpt>
      <trkpt lat="54.333031754940748" lon="10.997619973495603">
        <ele>0</ele>
        <time>2010-01-03T05:13:03Z</time>
      </trkpt>
      <trkpt lat="54.33340759947896" lon="10.996729983016849">
        <ele>0</ele>
        <time>2010-01-03T05:13:29Z</time>
      </trkpt>
      <trkpt lat="54.333467949181795" lon="10.996530828997493">
        <ele>0</ele>
        <time>2010-01-03T05:13:34Z</time>
      </trkpt>
      <trkpt lat="54.333487143740058" lon="10.996325891464949">
        <ele>0</ele>
        <time>2010-01-03T05:13:39Z</time>
      </trkpt>
      <trkpt lat="54.333500470966101" lon="10.995874777436256">
        <ele>0</ele>
        <time>2010-01-03T05:13:49Z</time>
      </trkpt>
      <trkpt lat="54.333537183701992" lon="10.995189808309078">
        <ele>0</ele>
        <time>2010-01-03T05:14:05Z</time>
      </trkpt>
      <trkpt lat="54.333579177036881" lon="10.994525877758861">
        <ele>0</ele>
        <time>2010-01-03T05:14:21Z</time>
      </trkpt>
      <trkpt lat="54.333603149279952" lon="10.994203509762883">
        <ele>0</ele>
        <time>2010-01-03T05:14:28Z</time>
      </trkpt>
      <trkpt lat="54.333608094602823" lon="10.994093623012304">
        <ele>0</ele>
        <time>2010-01-03T05:14:31Z</time>
      </trkpt>
      <trkpt lat="54.333604238927364" lon="10.993981137871742">
        <ele>0</ele>
        <time>2010-01-03T05:14:34Z</time>
      </trkpt>
      <trkpt lat="54.333583116531372" lon="10.993849458172917">
        <ele>0</ele>
        <time>2010-01-03T05:14:37Z</time>
      </trkpt>
      <trkpt lat="54.333532238379121" lon="10.993693890050054">
        <ele>0</ele>
        <time>2010-01-03T05:14:41Z</time>
      </trkpt>
      <trkpt lat="54.333280362188816" lon="10.993232885375619">
        <ele>0</ele>
        <time>2010-01-03T05:14:56Z</time>
      </trkpt>
      <trkpt lat="54.333176678046584" lon="10.992992911487818">
        <ele>0</ele>
        <time>2010-01-03T05:15:03Z</time>
      </trkpt>
      <trkpt lat="54.33307777158916" lon="10.992746483534575">
        <ele>0</ele>
        <time>2010-01-03T05:15:10Z</time>
      </trkpt>
      <trkpt lat="54.332975428551435" lon="10.992457056418061">
        <ele>0</ele>
        <time>2010-01-03T05:15:18Z</time>
      </trkpt>
      <trkpt lat="54.332888005301356" lon="10.992187242954969">
        <ele>0</ele>
        <time>2010-01-03T05:15:25Z</time>
      </trkpt>
      <trkpt lat="54.332867469638586" lon="10.992100071161985">
        <ele>0</ele>
        <time>2010-01-03T05:15:27Z</time>
      </trkpt>
      <trkpt lat="54.332858417183161" lon="10.992049109190702">
        <ele>0</ele>
        <time>2010-01-03T05:15:28Z</time>
      </trkpt>
      <trkpt lat="54.332847939804196" lon="10.991907203570008">
        <ele>0</ele>
        <time>2010-01-03T05:15:32Z</time>
      </trkpt>
      <trkpt lat="54.332840060815215" lon="10.991720706224442">
        <ele>0</ele>
        <time>2010-01-03T05:15:36Z</time>
      </trkpt>
      <trkpt lat="54.332811729982495" lon="10.99105610512197">
        <ele>0</ele>
        <time>2010-01-03T05:15:52Z</time>
      </trkpt>
      <trkpt lat="54.332772586494684" lon="10.990307433530688">
        <ele>0</ele>
        <time>2010-01-03T05:16:09Z</time>
      </trkpt>
      <trkpt lat="54.3325818143785" lon="10.987434452399611">
        <ele>0</ele>
        <time>2010-01-03T05:17:17Z</time>
      </trkpt>
      <trkpt lat="54.333681100979447" lon="10.986505318433046">
        <ele>0</ele>
        <time>2010-01-03T05:18:06Z</time>
      </trkpt>
      <trkpt lat="54.333819234743714" lon="10.986405657604337">
        <ele>0</ele>
        <time>2010-01-03T05:18:12Z</time>
      </trkpt>
      <trkpt lat="54.333911938592792" lon="10.986347403377295">
        <ele>0</ele>
        <time>2010-01-03T05:18:16Z</time>
      </trkpt>
      <trkpt lat="54.333970611914992" lon="10.986312283203006">
        <ele>0</ele>
        <time>2010-01-03T05:18:18Z</time>
      </trkpt>
      <trkpt lat="54.334035739302635" lon="10.986298117786646">
        <ele>0</ele>
        <time>2010-01-03T05:18:21Z</time>
      </trkpt>
      <trkpt lat="54.334143027663231" lon="10.98629929125309">
        <ele>0</ele>
        <time>2010-01-03T05:18:25Z</time>
      </trkpt>
      <trkpt lat="54.334230786189437" lon="10.986315719783306">
        <ele>0</ele>
        <time>2010-01-03T05:18:29Z</time>
      </trkpt>
      <trkpt lat="54.334393227472901" lon="10.986364167183638">
        <ele>0</ele>
        <time>2010-01-03T05:18:35Z</time>
      </trkpt>
      <trkpt lat="54.334498755633831" lon="10.986413871869445">
        <ele>0</ele>
        <time>2010-01-03T05:18:40Z</time>
      </trkpt>
      <trkpt lat="54.334608810022473" lon="10.986474808305502">
        <ele>0</ele>
        <time>2010-01-03T05:18:44Z</time>
      </trkpt>
      <trkpt lat="54.334758594632149" lon="10.986579498276114">
        <ele>0</ele>
        <time>2010-01-03T05:18:51Z</time>
      </trkpt>
      <trkpt lat="54.334954898804426" lon="10.986746717244387">
        <ele>0</ele>
        <time>2010-01-03T05:18:59Z</time>
      </trkpt>
      <trkpt lat="54.335051793605089" lon="10.986815365031362">
        <ele>0</ele>
        <time>2010-01-03T05:19:04Z</time>
      </trkpt>
      <trkpt lat="54.335152879357338" lon="10.986853921785951">
        <ele>0</ele>
        <time>2010-01-03T05:19:08Z</time>
      </trkpt>
      <trkpt lat="54.33527173474431" lon="10.986887030303478">
        <ele>0</ele>
        <time>2010-01-03T05:19:13Z</time>
      </trkpt>
      <trkpt lat="54.335410119965672" lon="10.986913600936532">
        <ele>0</ele>
        <time>2010-01-03T05:19:18Z</time>
      </trkpt>
      <trkpt lat="54.335620841011405" lon="10.986930867657065">
        <ele>0</ele>
        <time>2010-01-03T05:19:27Z</time>
      </trkpt>
      <trkpt lat="54.335998110473156" lon="10.98691787570715">
        <ele>0</ele>
        <time>2010-01-03T05:19:42Z</time>
      </trkpt>
      <trkpt lat="54.336228780448437" lon="10.986917456611991">
        <ele>0</ele>
        <time>2010-01-03T05:19:51Z</time>
      </trkpt>
      <trkpt lat="54.336341265588999" lon="10.986922821030021">
        <ele>0</ele>
        <time>2010-01-03T05:19:55Z</time>
      </trkpt>
      <trkpt lat="54.336434556171298" lon="10.986915025860071">
        <ele>0</ele>
        <time>2010-01-03T05:19:59Z</time>
      </trkpt>
      <trkpt lat="54.336587022989988" lon="10.986883090808988">
        <ele>0</ele>
        <time>2010-01-03T05:20:05Z</time>
      </trkpt>
      <trkpt lat="54.33671367354691" lon="10.98686465062201">
        <ele>0</ele>
        <time>2010-01-03T05:20:10Z</time>
      </trkpt>
      <trkpt lat="54.336850298568606" lon="10.986853754147887">
        <ele>0</ele>
        <time>2010-01-03T05:20:16Z</time>
      </trkpt>
      <trkpt lat="54.337370898574591" lon="10.986904297024012">
        <ele>0</ele>
        <time>2010-01-03T05:20:37Z</time>
      </trkpt>
      <trkpt lat="54.338476806879044" lon="10.987069169059396">
        <ele>0</ele>
        <time>2010-01-03T05:21:21Z</time>
      </trkpt>
      <trkpt lat="54.338486948981881" lon="10.987070761620998">
        <ele>0</ele>
        <time>2010-01-03T05:21:22Z</time>
      </trkpt>
      <trkpt lat="54.339509373530746" lon="10.987224318087101">
        <ele>0</ele>
        <time>2010-01-03T05:22:03Z</time>
      </trkpt>
      <trkpt lat="54.340815860778093" lon="10.987420370802283">
        <ele>0</ele>
        <time>2010-01-03T05:22:55Z</time>
      </trkpt>
      <trkpt lat="54.340901440009475" lon="10.987433195114136">
        <ele>0</ele>
        <time>2010-01-03T05:22:59Z</time>
      </trkpt>
      <trkpt lat="54.341876758262515" lon="10.987640228122473">
        <ele>0</ele>
        <time>2010-01-03T05:23:38Z</time>
      </trkpt>
      <trkpt lat="54.342024447396398" lon="10.987662440165877">
        <ele>0</ele>
        <time>2010-01-03T05:23:44Z</time>
      </trkpt>
      <trkpt lat="54.342130813747644" lon="10.987656740471721">
        <ele>0</ele>
        <time>2010-01-03T05:23:48Z</time>
      </trkpt>
      <trkpt lat="54.342211028560996" lon="10.987647939473391">
        <ele>0</ele>
        <time>2010-01-03T05:23:51Z</time>
      </trkpt>
      <trkpt lat="54.342333655804396" lon="10.987601168453693">
        <ele>0</ele>
        <time>2010-01-03T05:23:56Z</time>
      </trkpt>
      <trkpt lat="54.342514704912901" lon="10.98752380348742">
        <ele>0</ele>
        <time>2010-01-03T05:24:04Z</time>
      </trkpt>
      <trkpt lat="54.343121889978647" lon="10.987256839871407">
        <ele>0</ele>
        <time>2010-01-03T05:24:29Z</time>
      </trkpt>
      <trkpt lat="54.343291958793998" lon="10.987181989476085">
        <ele>0</ele>
        <time>2010-01-03T05:24:36Z</time>
      </trkpt>
      <trkpt lat="54.343479378148913" lon="10.987109402194619">
        <ele>0</ele>
        <time>2010-01-03T05:24:44Z</time>
      </trkpt>
      <trkpt lat="54.343673419207335" lon="10.987076964229345">
        <ele>0</ele>
        <time>2010-01-03T05:24:51Z</time>
      </trkpt>
      <trkpt lat="54.343880200758576" lon="10.98708157427609">
        <ele>0</ele>
        <time>2010-01-03T05:25:00Z</time>
      </trkpt>
      <trkpt lat="54.34392143972218" lon="10.98707964643836">
        <ele>0</ele>
        <time>2010-01-03T05:25:01Z</time>
      </trkpt>
      <trkpt lat="54.344018753618002" lon="10.987056428566575">
        <ele>0</ele>
        <time>2010-01-03T05:25:05Z</time>
      </trkpt>
      <trkpt lat="54.344089161604643" lon="10.987025834619999">
        <ele>0</ele>
        <time>2010-01-03T05:25:08Z</time>
      </trkpt>
      <trkpt lat="54.344163257628679" lon="10.986974788829684">
        <ele>0</ele>
        <time>2010-01-03T05:25:11Z</time>
      </trkpt>
      <trkpt lat="54.344225535169244" lon="10.986910667270422">
        <ele>0</ele>
        <time>2010-01-03T05:25:14Z</time>
      </trkpt>
      <trkpt lat="54.344282364472747" lon="10.986828859895468">
        <ele>0</ele>
        <time>2010-01-03T05:25:17Z</time>
      </trkpt>
      <trkpt lat="54.344311868771911" lon="10.986765576526523">
        <ele>0</ele>
        <time>2010-01-03T05:25:19Z</time>
      </trkpt>
      <trkpt lat="54.344340283423662" lon="10.986704556271434">
        <ele>0</ele>
        <time>2010-01-03T05:25:21Z</time>
      </trkpt>
      <trkpt lat="54.344420917332172" lon="10.986499283462763">
        <ele>0</ele>
        <time>2010-01-03T05:25:27Z</time>
      </trkpt>
      <trkpt lat="54.344731466844678" lon="10.985631588846445">
        <ele>0</ele>
        <time>2010-01-03T05:25:51Z</time>
      </trkpt>
      <trkpt lat="54.344862392172217" lon="10.985311567783356">
        <ele>0</ele>
        <time>2010-01-03T05:26:00Z</time>
      </trkpt>
      <trkpt lat="54.344988036900759" lon="10.985045693814754">
        <ele>0</ele>
        <time>2010-01-03T05:26:08Z</time>
      </trkpt>
      <trkpt lat="54.345111334696412" lon="10.984817622229457">
        <ele>0</ele>
        <time>2010-01-03T05:26:15Z</time>
      </trkpt>
      <trkpt lat="54.345245528966188" lon="10.984638249501586">
        <ele>0</ele>
        <time>2010-01-03T05:26:22Z</time>
      </trkpt>
      <trkpt lat="54.345335969701409" lon="10.98454705439508">
        <ele>0</ele>
        <time>2010-01-03T05:26:26Z</time>
      </trkpt>
      <trkpt lat="54.345426997169852" lon="10.984515873715281">
        <ele>0</ele>
        <time>2010-01-03T05:26:30Z</time>
      </trkpt>
      <trkpt lat="54.345526155084372" lon="10.984506653621793">
        <ele>0</ele>
        <time>2010-01-03T05:26:34Z</time>
      </trkpt>
      <trkpt lat="54.345674933865666" lon="10.984520819038153">
        <ele>0</ele>
        <time>2010-01-03T05:26:40Z</time>
      </trkpt>
      <trkpt lat="54.346223445609212" lon="10.98461402580142">
        <ele>0</ele>
        <time>2010-01-03T05:27:02Z</time>
      </trkpt>
      <trkpt lat="54.34642125852406" lon="10.984626850113273">
        <ele>0</ele>
        <time>2010-01-03T05:27:10Z</time>
      </trkpt>
      <trkpt lat="54.346608510240912" lon="10.984624503180385">
        <ele>0</ele>
        <time>2010-01-03T05:27:17Z</time>
      </trkpt>
      <trkpt lat="54.346983013674617" lon="10.984612097963691">
        <ele>0</ele>
        <time>2010-01-03T05:27:32Z</time>
      </trkpt>
      <trkpt lat="54.347730008885264" lon="10.9846047218889">
        <ele>0</ele>
        <time>2010-01-03T05:28:02Z</time>
      </trkpt>
      <trkpt lat="54.347960092127323" lon="10.984599525108933">
        <ele>0</ele>
        <time>2010-01-03T05:28:11Z</time>
      </trkpt>
      <trkpt lat="54.348191432654858" lon="10.984571697190404">
        <ele>0</ele>
        <time>2010-01-03T05:28:20Z</time>
      </trkpt>
      <trkpt lat="54.34864304959774" lon="10.984456781297922">
        <ele>0</ele>
        <time>2010-01-03T05:28:39Z</time>
      </trkpt>
      <trkpt lat="54.348780261352658" lon="10.984431551769376">
        <ele>0</ele>
        <time>2010-01-03T05:28:44Z</time>
      </trkpt>
      <trkpt lat="54.348923340439796" lon="10.984423756599426">
        <ele>0</ele>
        <time>2010-01-03T05:28:50Z</time>
      </trkpt>
      <trkpt lat="54.349092906340957" lon="10.98442199639976">
        <ele>0</ele>
        <time>2010-01-03T05:28:57Z</time>
      </trkpt>
      <trkpt lat="54.349265741184354" lon="10.984446639195085">
        <ele>0</ele>
        <time>2010-01-03T05:29:04Z</time>
      </trkpt>
      <trkpt lat="54.349466571584344" lon="10.984498439356685">
        <ele>0</ele>
        <time>2010-01-03T05:29:12Z</time>
      </trkpt>
      <trkpt lat="54.349661199375987" lon="10.984539678320289">
        <ele>0</ele>
        <time>2010-01-03T05:29:20Z</time>
      </trkpt>
      <trkpt lat="54.349849037826061" lon="10.984546048566699">
        <ele>0</ele>
        <time>2010-01-03T05:29:27Z</time>
      </trkpt>
      <trkpt lat="54.350059675052762" lon="10.984502714127302">
        <ele>0</ele>
        <time>2010-01-03T05:29:36Z</time>
      </trkpt>
      <trkpt lat="54.350221529603004" lon="10.984444627538323">
        <ele>0</ele>
        <time>2010-01-03T05:29:42Z</time>
      </trkpt>
      <trkpt lat="54.350416660308838" lon="10.984344128519297">
        <ele>0</ele>
        <time>2010-01-03T05:29:51Z</time>
      </trkpt>
      <trkpt lat="54.350592009723186" lon="10.984221752732992">
        <ele>0</ele>
        <time>2010-01-03T05:29:58Z</time>
      </trkpt>
      <trkpt lat="54.350666357204318" lon="10.984153021126986">
        <ele>0</ele>
        <time>2010-01-03T05:30:01Z</time>
      </trkpt>
      <trkpt lat="54.350793678313494" lon="10.9840037394315">
        <ele>0</ele>
        <time>2010-01-03T05:30:08Z</time>
      </trkpt>
      <trkpt lat="54.350910102948546" lon="10.983854122459888">
        <ele>0</ele>
        <time>2010-01-03T05:30:13Z</time>
      </trkpt>
      <trkpt lat="54.350995095446706" lon="10.983751611784101">
        <ele>0</ele>
        <time>2010-01-03T05:30:18Z</time>
      </trkpt>
      <trkpt lat="54.351097354665399" lon="10.983637869358063">
        <ele>0</ele>
        <time>2010-01-03T05:30:22Z</time>
      </trkpt>
      <trkpt lat="54.351201038807631" lon="10.983558157458901">
        <ele>0</ele>
        <time>2010-01-03T05:30:27Z</time>
      </trkpt>
      <trkpt lat="54.35131729580462" lon="10.983478194102645">
        <ele>0</ele>
        <time>2010-01-03T05:30:32Z</time>
      </trkpt>
      <trkpt lat="54.351411843672395" lon="10.983435865491629">
        <ele>0</ele>
        <time>2010-01-03T05:30:36Z</time>
      </trkpt>
      <trkpt lat="54.351508319377899" lon="10.983404265716672">
        <ele>0</ele>
        <time>2010-01-03T05:30:40Z</time>
      </trkpt>
      <trkpt lat="54.351643519476056" lon="10.983373755589128">
        <ele>0</ele>
        <time>2010-01-03T05:30:45Z</time>
      </trkpt>
      <trkpt lat="54.351824065670371" lon="10.983348526060581">
        <ele>0</ele>
        <time>2010-01-03T05:30:53Z</time>
      </trkpt>
      <trkpt lat="54.352027913555503" lon="10.983324889093637">
        <ele>0</ele>
        <time>2010-01-03T05:31:01Z</time>
      </trkpt>
      <trkpt lat="54.352289428934455" lon="10.983266131952405">
        <ele>0</ele>
        <time>2010-01-03T05:31:11Z</time>
      </trkpt>
      <trkpt lat="54.352700728923082" lon="10.983157837763429">
        <ele>0</ele>
        <time>2010-01-03T05:31:28Z</time>
      </trkpt>
      <trkpt lat="54.353039357811213" lon="10.983087178319693">
        <ele>0</ele>
        <time>2010-01-03T05:31:42Z</time>
      </trkpt>
      <trkpt lat="54.353219233453274" lon="10.983078293502331">
        <ele>0</ele>
        <time>2010-01-03T05:31:49Z</time>
      </trkpt>
      <trkpt lat="54.354285160079598" lon="10.983308544382453">
        <ele>0</ele>
        <time>2010-01-03T05:32:32Z</time>
      </trkpt>
      <trkpt lat="54.354769047349691" lon="10.983419185504317">
        <ele>0</ele>
        <time>2010-01-03T05:32:51Z</time>
      </trkpt>
      <trkpt lat="54.355143131688237" lon="10.983507195487618">
        <ele>0</ele>
        <time>2010-01-03T05:33:07Z</time>
      </trkpt>
      <trkpt lat="54.355239439755678" lon="10.983528988435864">
        <ele>0</ele>
        <time>2010-01-03T05:33:10Z</time>
      </trkpt>
      <trkpt lat="54.355307165533304" lon="10.983541728928685">
        <ele>0</ele>
        <time>2010-01-03T05:33:13Z</time>
      </trkpt>
      <trkpt lat="54.355419231578708" lon="10.983556983992457">
        <ele>0</ele>
        <time>2010-01-03T05:33:18Z</time>
      </trkpt>
      <trkpt lat="54.355713101103902" lon="10.98357860930264">
        <ele>0</ele>
        <time>2010-01-03T05:33:29Z</time>
      </trkpt>
      <trkpt lat="54.356777770444751" lon="10.983563102781773">
        <ele>0</ele>
        <time>2010-01-03T05:34:12Z</time>
      </trkpt>
      <trkpt lat="54.357010200619698" lon="10.983585063368082">
        <ele>0</ele>
        <time>2010-01-03T05:34:21Z</time>
      </trkpt>
      <trkpt lat="54.357134168967605" lon="10.983621273189783">
        <ele>0</ele>
        <time>2010-01-03T05:34:26Z</time>
      </trkpt>
      <trkpt lat="54.35722921974957" lon="10.983691848814487">
        <ele>0</ele>
        <time>2010-01-03T05:34:31Z</time>
      </trkpt>
      <trkpt lat="54.357291162014008" lon="10.983769800513983">
        <ele>0</ele>
        <time>2010-01-03T05:34:34Z</time>
      </trkpt>
      <trkpt lat="54.357343045994639" lon="10.983898714184761">
        <ele>0</ele>
        <time>2010-01-03T05:34:37Z</time>
      </trkpt>
      <trkpt lat="54.357393588870764" lon="10.984114296734333">
        <ele>0</ele>
        <time>2010-01-03T05:34:43Z</time>
      </trkpt>
      <trkpt lat="54.357450334355235" lon="10.984319066628814">
        <ele>0</ele>
        <time>2010-01-03T05:34:48Z</time>
      </trkpt>
      <trkpt lat="54.357504229992628" lon="10.984444292262197">
        <ele>0</ele>
        <time>2010-01-03T05:34:52Z</time>
      </trkpt>
      <trkpt lat="54.357598107308149" lon="10.98452509380877">
        <ele>0</ele>
        <time>2010-01-03T05:34:56Z</time>
      </trkpt>
      <trkpt lat="54.35769340954721" lon="10.984540851786733">
        <ele>0</ele>
        <time>2010-01-03T05:35:00Z</time>
      </trkpt>
      <trkpt lat="54.357913183048368" lon="10.984499277547002">
        <ele>0</ele>
        <time>2010-01-03T05:35:08Z</time>
      </trkpt>
      <trkpt lat="54.358194647356868" lon="10.984492404386401">
        <ele>0</ele>
        <time>2010-01-03T05:35:20Z</time>
      </trkpt>
      <trkpt lat="54.35831107199192" lon="10.98449676297605">
        <ele>0</ele>
        <time>2010-01-03T05:35:24Z</time>
      </trkpt>
      <trkpt lat="54.358472004532814" lon="10.984510760754347">
        <ele>0</ele>
        <time>2010-01-03T05:35:31Z</time>
      </trkpt>
      <trkpt lat="54.358597062528133" lon="10.984529536217451">
        <ele>0</ele>
        <time>2010-01-03T05:35:36Z</time>
      </trkpt>
      <trkpt lat="54.358771657571197" lon="10.984587036073208">
        <ele>0</ele>
        <time>2010-01-03T05:35:43Z</time>
      </trkpt>
      <trkpt lat="54.359039710834622" lon="10.98470781929791">
        <ele>0</ele>
        <time>2010-01-03T05:35:54Z</time>
      </trkpt>
      <trkpt lat="54.359523262828588" lon="10.984970675781369">
        <ele>0</ele>
        <time>2010-01-03T05:36:14Z</time>
      </trkpt>
      <trkpt lat="54.359711185097694" lon="10.98512171767652">
        <ele>0</ele>
        <time>2010-01-03T05:36:23Z</time>
      </trkpt>
      <trkpt lat="54.359825011342764" lon="10.985227497294545">
        <ele>0</ele>
        <time>2010-01-03T05:36:28Z</time>
      </trkpt>
      <trkpt lat="54.360006311908364" lon="10.985391195863485">
        <ele>0</ele>
        <time>2010-01-03T05:36:36Z</time>
      </trkpt>
      <trkpt lat="54.360156431794167" lon="10.985311316326261">
        <ele>0</ele>
        <time>2010-01-03T05:36:42Z</time>
      </trkpt>
      <trkpt lat="54.360487181693316" lon="10.985245183110237">
        <ele>0</ele>
        <time>2010-01-03T05:36:56Z</time>
      </trkpt>
      <trkpt lat="54.360979283228517" lon="10.985210901126266">
        <ele>0</ele>
        <time>2010-01-03T05:37:15Z</time>
      </trkpt>
      <trkpt lat="54.361703647300601" lon="10.985128423199058">
        <ele>0</ele>
        <time>2010-01-03T05:37:45Z</time>
      </trkpt>
      <trkpt lat="54.362146882340312" lon="10.985059104859829">
        <ele>0</ele>
        <time>2010-01-03T05:38:02Z</time>
      </trkpt>
      <trkpt lat="54.362284010276198" lon="10.985046029090881">
        <ele>0</ele>
        <time>2010-01-03T05:38:08Z</time>
      </trkpt>
      <trkpt lat="54.363087331876159" lon="10.98492817953229">
        <ele>0</ele>
        <time>2010-01-03T05:38:40Z</time>
      </trkpt>
      <trkpt lat="54.3654181715101" lon="10.984456446021795">
        <ele>0</ele>
        <time>2010-01-03T05:40:14Z</time>
      </trkpt>
      <trkpt lat="54.366127867251635" lon="10.984228709712625">
        <ele>0</ele>
        <time>2010-01-03T05:40:43Z</time>
      </trkpt>
      <trkpt lat="54.366530952975154" lon="10.984046654775739">
        <ele>0</ele>
        <time>2010-01-03T05:41:00Z</time>
      </trkpt>
      <trkpt lat="54.366902019828558" lon="10.983661590144038">
        <ele>0</ele>
        <time>2010-01-03T05:41:17Z</time>
      </trkpt>
      <trkpt lat="54.367917906492949" lon="10.982703035697341">
        <ele>0</ele>
        <time>2010-01-03T05:42:03Z</time>
      </trkpt>
      <trkpt lat="54.368372624740005" lon="10.982241276651621">
        <ele>0</ele>
        <time>2010-01-03T05:42:25Z</time>
      </trkpt>
      <trkpt lat="54.368890877813101" lon="10.982205821201205">
        <ele>0</ele>
        <time>2010-01-03T05:42:45Z</time>
      </trkpt>
      <trkpt lat="54.369336711242795" lon="10.982287796214223">
        <ele>0</ele>
        <time>2010-01-03T05:43:03Z</time>
      </trkpt>
      <trkpt lat="54.369698474183679" lon="10.982466414570808">
        <ele>0</ele>
        <time>2010-01-03T05:43:18Z</time>
      </trkpt>
      <trkpt lat="54.370210859924555" lon="10.98279339261353">
        <ele>0</ele>
        <time>2010-01-03T05:43:40Z</time>
      </trkpt>
      <trkpt lat="54.370418479666114" lon="10.983045268803835">
        <ele>0</ele>
        <time>2010-01-03T05:43:50Z</time>
      </trkpt>
      <trkpt lat="54.370522331446409" lon="10.983171164989471">
        <ele>0</ele>
        <time>2010-01-03T05:43:55Z</time>
      </trkpt>
      <trkpt lat="54.370616041123867" lon="10.983195807784796">
        <ele>0</ele>
        <time>2010-01-03T05:43:59Z</time>
      </trkpt>
      <trkpt lat="54.370772363618016" lon="10.983707187697291">
        <ele>0</ele>
        <time>2010-01-03T05:44:13Z</time>
      </trkpt>
      <trkpt lat="54.370814440771937" lon="10.984011450782418">
        <ele>0</ele>
        <time>2010-01-03T05:44:20Z</time>
      </trkpt>
      <trkpt lat="54.371123900637031" lon="10.984510090202093">
        <ele>0</ele>
        <time>2010-01-03T05:44:37Z</time>
      </trkpt>
      <trkpt lat="54.371338644996285" lon="10.985044352710247">
        <ele>0</ele>
        <time>2010-01-03T05:44:52Z</time>
      </trkpt>
      <trkpt lat="54.371487842872739" lon="10.985273262485862">
        <ele>0</ele>
        <time>2010-01-03T05:45:00Z</time>
      </trkpt>
      <trkpt lat="54.371613571420312" lon="10.985500998795033">
        <ele>0</ele>
        <time>2010-01-03T05:45:07Z</time>
      </trkpt>
      <trkpt lat="54.371683141216636" lon="10.9855648688972">
        <ele>0</ele>
        <time>2010-01-03T05:45:11Z</time>
      </trkpt>
      <trkpt lat="54.371812390163541" lon="10.985571071505547">
        <ele>0</ele>
        <time>2010-01-03T05:45:16Z</time>
      </trkpt>
      <trkpt lat="54.372098296880722" lon="10.985332354903221">
        <ele>0</ele>
        <time>2010-01-03T05:45:29Z</time>
      </trkpt>
      <trkpt lat="54.372258810326457" lon="10.985162705183029">
        <ele>0</ele>
        <time>2010-01-03T05:45:36Z</time>
      </trkpt>
      <trkpt lat="54.372505825012922" lon="10.984430210664868">
        <ele>0</ele>
        <time>2010-01-03T05:45:56Z</time>
      </trkpt>
      <trkpt lat="54.372631721198559" lon="10.984060317277908">
        <ele>0</ele>
        <time>2010-01-03T05:46:06Z</time>
      </trkpt>
      <trkpt lat="54.372876305133104" lon="10.982489632442594">
        <ele>0</ele>
        <time>2010-01-03T05:46:44Z</time>
      </trkpt>
      <trkpt lat="54.372979821637273" lon="10.981895523145795">
        <ele>0</ele>
        <time>2010-01-03T05:46:58Z</time>
      </trkpt>
      <trkpt lat="54.373106807470322" lon="10.981248524039984">
        <ele>0</ele>
        <time>2010-01-03T05:47:14Z</time>
      </trkpt>
      <trkpt lat="54.373305877670646" lon="10.981330331414938">
        <ele>0</ele>
        <time>2010-01-03T05:47:22Z</time>
      </trkpt>
      <trkpt lat="54.37341065146029" lon="10.981395877897739">
        <ele>0</ele>
        <time>2010-01-03T05:47:27Z</time>
      </trkpt>
      <trkpt lat="54.373241337016225" lon="10.982395336031914">
        <ele>0</ele>
        <time>2010-01-03T05:47:51Z</time>
      </trkpt>
      <trkpt lat="54.37310915440321" lon="10.983275771141052">
        <ele>0</ele>
        <time>2010-01-03T05:48:12Z</time>
      </trkpt>
      <trkpt lat="54.372927686199546" lon="10.984294842928648">
        <ele>0</ele>
        <time>2010-01-03T05:48:37Z</time>
      </trkpt>
      <trkpt lat="54.372728615999222" lon="10.984950223937631">
        <ele>0</ele>
        <time>2010-01-03T05:48:54Z</time>
      </trkpt>
      <trkpt lat="54.37250473536551" lon="10.985685149207711">
        <ele>0</ele>
        <time>2010-01-03T05:49:14Z</time>
      </trkpt>
      <trkpt lat="54.372735908254981" lon="10.985938115045428">
        <ele>0</ele>
        <time>2010-01-03T05:49:25Z</time>
      </trkpt>
      <trkpt lat="54.372827941551805" lon="10.986063508316875">
        <ele>0</ele>
        <time>2010-01-03T05:49:29Z</time>
      </trkpt>
      <trkpt lat="54.372776309028268" lon="10.986343128606677">
        <ele>0</ele>
        <time>2010-01-03T05:49:36Z</time>
      </trkpt>
      <trkpt lat="54.37260439619422" lon="10.98677814938128">
        <ele>0</ele>
        <time>2010-01-03T05:49:48Z</time>
      </trkpt>
      <trkpt lat="54.372359979897738" lon="10.987330684438348">
        <ele>0</ele>
        <time>2010-01-03T05:50:05Z</time>
      </trkpt>
      <trkpt lat="54.371949350461364" lon="10.987975839525461">
        <ele>0</ele>
        <time>2010-01-03T05:50:27Z</time>
      </trkpt>
      <trkpt lat="54.371527573093772" lon="10.988580174744129">
        <ele>0</ele>
        <time>2010-01-03T05:50:49Z</time>
      </trkpt>
      <trkpt lat="54.371223645284772" lon="10.989170093089342">
        <ele>0</ele>
        <time>2010-01-03T05:51:07Z</time>
      </trkpt>
      <trkpt lat="54.371018121019006" lon="10.989502687007189">
        <ele>0</ele>
        <time>2010-01-03T05:51:19Z</time>
      </trkpt>
      <trkpt lat="54.370937319472432" lon="10.98958189599216">
        <ele>0</ele>
        <time>2010-01-03T05:51:19Z</time>
      </trkpt>
      <trkpt lat="54.370872946456075" lon="10.989688765257597">
        <ele>0</ele>
        <time>2010-01-03T05:51:22Z</time>
      </trkpt>
      <trkpt lat="54.370801113545895" lon="10.989861264824867">
        <ele>0</ele>
        <time>2010-01-03T05:51:27Z</time>
      </trkpt>
      <trkpt lat="54.370738165453076" lon="10.990076847374439">
        <ele>0</ele>
        <time>2010-01-03T05:51:33Z</time>
      </trkpt>
      <trkpt lat="54.370640683919191" lon="10.990370381623507">
        <ele>0</ele>
        <time>2010-01-03T05:51:41Z</time>
      </trkpt>
      <trkpt lat="54.37061470001936" lon="10.990442130714655">
        <ele>0</ele>
        <time>2010-01-03T05:51:43Z</time>
      </trkpt>
      <trkpt lat="54.370589721947908" lon="10.990503067150712">
        <ele>0</ele>
        <time>2010-01-03T05:51:44Z</time>
      </trkpt>
      <trkpt lat="54.370577735826373" lon="10.990532319992781">
        <ele>0</ele>
        <time>2010-01-03T05:51:45Z</time>
      </trkpt>
      <trkpt lat="54.370549656450748" lon="10.990609936416149">
        <ele>0</ele>
        <time>2010-01-03T05:51:47Z</time>
      </trkpt>
      <trkpt lat="54.370520152151585" lon="10.990739855915308">
        <ele>0</ele>
        <time>2010-01-03T05:51:51Z</time>
      </trkpt>
      <trkpt lat="54.370498778298497" lon="10.990869691595435">
        <ele>0</ele>
        <time>2010-01-03T05:51:54Z</time>
      </trkpt>
      <trkpt lat="54.37048377469182" lon="10.991010088473558">
        <ele>0</ele>
        <time>2010-01-03T05:51:57Z</time>
      </trkpt>
      <trkpt lat="54.370474051684141" lon="10.991091728210449">
        <ele>0</ele>
        <time>2010-01-03T05:51:59Z</time>
      </trkpt>
      <trkpt lat="54.370443457737565" lon="10.991346454247832">
        <ele>0</ele>
        <time>2010-01-03T05:52:05Z</time>
      </trkpt>
      <trkpt lat="54.370394507423043" lon="10.991613920778036">
        <ele>0</ele>
        <time>2010-01-03T05:52:12Z</time>
      </trkpt>
      <trkpt lat="54.370347904041409" lon="10.991842746734619">
        <ele>0</ele>
        <time>2010-01-03T05:52:17Z</time>
      </trkpt>
      <trkpt lat="54.370246985927224" lon="10.99223761819303">
        <ele>0</ele>
        <time>2010-01-03T05:52:27Z</time>
      </trkpt>
      <trkpt lat="54.370190072804689" lon="10.992420595139265">
        <ele>0</ele>
        <time>2010-01-03T05:52:32Z</time>
      </trkpt>
      <trkpt lat="54.370146403089166" lon="10.992566272616386">
        <ele>0</ele>
        <time>2010-01-03T05:52:36Z</time>
      </trkpt>
      <trkpt lat="54.370095944032073" lon="10.992766013368964">
        <ele>0</ele>
        <time>2010-01-03T05:52:41Z</time>
      </trkpt>
      <trkpt lat="54.370056549087167" lon="10.992996850982308">
        <ele>0</ele>
        <time>2010-01-03T05:52:47Z</time>
      </trkpt>
      <trkpt lat="54.370027966797352" lon="10.993201537057757">
        <ele>0</ele>
        <time>2010-01-03T05:52:51Z</time>
      </trkpt>
      <trkpt lat="54.370001060888171" lon="10.993411503732204">
        <ele>0</ele>
        <time>2010-01-03T05:52:56Z</time>
      </trkpt>
      <trkpt lat="54.369949428364635" lon="10.993706379085779">
        <ele>0</ele>
        <time>2010-01-03T05:53:04Z</time>
      </trkpt>
      <trkpt lat="54.369891509413719" lon="10.994012150913477">
        <ele>0</ele>
        <time>2010-01-03T05:53:11Z</time>
      </trkpt>
      <trkpt lat="54.369858233258128" lon="10.994230918586254">
        <ele>0</ele>
        <time>2010-01-03T05:53:16Z</time>
      </trkpt>
      <trkpt lat="54.369833087548614" lon="10.994457732886076">
        <ele>0</ele>
        <time>2010-01-03T05:53:22Z</time>
      </trkpt>
      <trkpt lat="54.369812468066812" lon="10.994670800864697">
        <ele>0</ele>
        <time>2010-01-03T05:53:27Z</time>
      </trkpt>
      <trkpt lat="54.36979872174561" lon="10.994927287101746">
        <ele>0</ele>
        <time>2010-01-03T05:53:33Z</time>
      </trkpt>
      <trkpt lat="54.369767038151622" lon="10.995154269039631">
        <ele>0</ele>
        <time>2010-01-03T05:53:38Z</time>
      </trkpt>
      <trkpt lat="54.369727224111557" lon="10.995356943458319">
        <ele>0</ele>
        <time>2010-01-03T05:53:43Z</time>
      </trkpt>
      <trkpt lat="54.369681542739272" lon="10.995605969801545">
        <ele>0</ele>
        <time>2010-01-03T05:53:49Z</time>
      </trkpt>
      <trkpt lat="54.369632843881845" lon="10.995887937024236">
        <ele>0</ele>
        <time>2010-01-03T05:53:56Z</time>
      </trkpt>
      <trkpt lat="54.369601579383016" lon="10.996155822649598">
        <ele>0</ele>
        <time>2010-01-03T05:54:03Z</time>
      </trkpt>
      <trkpt lat="54.369578780606389" lon="10.996452877297997">
        <ele>0</ele>
        <time>2010-01-03T05:54:10Z</time>
      </trkpt>
      <trkpt lat="54.369553299620748" lon="10.996846910566092">
        <ele>0</ele>
        <time>2010-01-03T05:54:19Z</time>
      </trkpt>
      <trkpt lat="54.369536032900214" lon="10.997084956616163">
        <ele>0</ele>
        <time>2010-01-03T05:54:24Z</time>
      </trkpt>
      <trkpt lat="54.369510468095541" lon="10.997265921905637">
        <ele>0</ele>
        <time>2010-01-03T05:54:29Z</time>
      </trkpt>
      <trkpt lat="54.369472833350301" lon="10.997556271031499">
        <ele>0</ele>
        <time>2010-01-03T05:54:36Z</time>
      </trkpt>
      <trkpt lat="54.369421452283859" lon="10.997912585735321">
        <ele>0</ele>
        <time>2010-01-03T05:54:44Z</time>
      </trkpt>
      <trkpt lat="54.369383230805397" lon="10.998203437775373">
        <ele>0</ele>
        <time>2010-01-03T05:54:51Z</time>
      </trkpt>
      <trkpt lat="54.369358839467168" lon="10.998538043349981">
        <ele>0</ele>
        <time>2010-01-03T05:54:59Z</time>
      </trkpt>
      <trkpt lat="54.369349954649806" lon="10.998825710266829">
        <ele>0</ele>
        <time>2010-01-03T05:55:06Z</time>
      </trkpt>
      <trkpt lat="54.36935406178236" lon="10.999123938381672">
        <ele>0</ele>
        <time>2010-01-03T05:55:13Z</time>
      </trkpt>
      <trkpt lat="54.369369987398386" lon="10.999454855918884">
        <ele>0</ele>
        <time>2010-01-03T05:55:21Z</time>
      </trkpt>
      <trkpt lat="54.369394211098552" lon="10.999662894755602">
        <ele>0</ele>
        <time>2010-01-03T05:55:25Z</time>
      </trkpt>
      <trkpt lat="54.369424050673842" lon="10.999845284968615">
        <ele>0</ele>
        <time>2010-01-03T05:55:30Z</time>
      </trkpt>
      <trkpt lat="54.369462775066495" lon="10.999995907768607">
        <ele>0</ele>
        <time>2010-01-03T05:55:34Z</time>
      </trkpt>
      <trkpt lat="54.369537122547626" lon="11.000246610492468">
        <ele>0</ele>
        <time>2010-01-03T05:55:40Z</time>
      </trkpt>
      <trkpt lat="54.369585067033768" lon="11.000421037897468">
        <ele>0</ele>
        <time>2010-01-03T05:55:45Z</time>
      </trkpt>
      <trkpt lat="54.369641058146954" lon="11.000587083399296">
        <ele>0</ele>
        <time>2010-01-03T05:55:49Z</time>
      </trkpt>
      <trkpt lat="54.369681961834431" lon="11.000671153888106">
        <ele>0</ele>
        <time>2010-01-03T05:55:52Z</time>
      </trkpt>
      <trkpt lat="54.36976158991456" lon="11.000781711190939">
        <ele>0</ele>
        <time>2010-01-03T05:55:56Z</time>
      </trkpt>
      <trkpt lat="54.369805594906211" lon="11.000873912125826">
        <ele>0</ele>
        <time>2010-01-03T05:55:59Z</time>
      </trkpt>
      <trkpt lat="54.369846330955625" lon="11.001049848273396">
        <ele>0</ele>
        <time>2010-01-03T05:56:03Z</time>
      </trkpt>
      <trkpt lat="54.369899639859796" lon="11.001121513545513">
        <ele>0</ele>
        <time>2010-01-03T05:56:06Z</time>
      </trkpt>
      <trkpt lat="54.37010508030653" lon="11.001396272331476">
        <ele>0</ele>
        <time>2010-01-03T05:56:16Z</time>
      </trkpt>
      <trkpt lat="54.370279088616371" lon="11.001626020297408">
        <ele>0</ele>
        <time>2010-01-03T05:56:25Z</time>
      </trkpt>
      <trkpt lat="54.370444044470787" lon="11.001829952001572">
        <ele>0</ele>
        <time>2010-01-03T05:56:33Z</time>
      </trkpt>
      <trkpt lat="54.370516631752253" lon="11.001922320574522">
        <ele>0</ele>
        <time>2010-01-03T05:56:37Z</time>
      </trkpt>
      <trkpt lat="54.370556445792317" lon="11.00197110325098">
        <ele>0</ele>
        <time>2010-01-03T05:56:39Z</time>
      </trkpt>
      <trkpt lat="54.370586788281798" lon="11.00202726200223">
        <ele>0</ele>
        <time>2010-01-03T05:56:41Z</time>
      </trkpt>
      <trkpt lat="54.370603132992983" lon="11.00211133249104">
        <ele>0</ele>
        <time>2010-01-03T05:56:43Z</time>
      </trkpt>
      <trkpt lat="54.370622662827373" lon="11.002266481518745">
        <ele>0</ele>
        <time>2010-01-03T05:56:46Z</time>
      </trkpt>
      <trkpt lat="54.370679156854749" lon="11.003127554431558">
        <ele>0</ele>
        <time>2010-01-03T05:57:07Z</time>
      </trkpt>
      <trkpt lat="54.370731040835381" lon="11.004020143300295">
        <ele>0</ele>
        <time>2010-01-03T05:57:27Z</time>
      </trkpt>
      <trkpt lat="54.370774878188968" lon="11.004594387486577">
        <ele>0</ele>
        <time>2010-01-03T05:57:41Z</time>
      </trkpt>
      <trkpt lat="54.370785020291805" lon="11.004728330299258">
        <ele>0</ele>
        <time>2010-01-03T05:57:44Z</time>
      </trkpt>
      <trkpt lat="54.370843693614006" lon="11.005303328856826">
        <ele>0</ele>
        <time>2010-01-03T05:57:58Z</time>
      </trkpt>
      <trkpt lat="54.37083262950182" lon="11.005472391843796">
        <ele>0</ele>
        <time>2010-01-03T05:58:02Z</time>
      </trkpt>
      <trkpt lat="54.37079893425107" lon="11.005624439567327">
        <ele>0</ele>
        <time>2010-01-03T05:58:05Z</time>
      </trkpt>
      <trkpt lat="54.370736489072442" lon="11.005780594423413">
        <ele>0</ele>
        <time>2010-01-03T05:58:10Z</time>
      </trkpt>
      <trkpt lat="54.370624925941229" lon="11.005980251356959">
        <ele>0</ele>
        <time>2010-01-03T05:58:16Z</time>
      </trkpt>
      <trkpt lat="54.370493413880467" lon="11.006234306842089">
        <ele>0</ele>
        <time>2010-01-03T05:58:24Z</time>
      </trkpt>
      <trkpt lat="54.370450917631388" lon="11.00632332265377">
        <ele>0</ele>
        <time>2010-01-03T05:58:27Z</time>
      </trkpt>
      <trkpt lat="54.370406493544579" lon="11.00644058547914">
        <ele>0</ele>
        <time>2010-01-03T05:58:30Z</time>
      </trkpt>
      <trkpt lat="54.37038847245276" lon="11.006507892161608">
        <ele>0</ele>
        <time>2010-01-03T05:58:32Z</time>
      </trkpt>
      <trkpt lat="54.370360979810357" lon="11.006670584902167">
        <ele>0</ele>
        <time>2010-01-03T05:58:36Z</time>
      </trkpt>
      <trkpt lat="54.370334325358272" lon="11.006935453042388">
        <ele>0</ele>
        <time>2010-01-03T05:58:42Z</time>
      </trkpt>
      <trkpt lat="54.370281435549259" lon="11.0074666980654">
        <ele>0</ele>
        <time>2010-01-03T05:58:55Z</time>
      </trkpt>
      <trkpt lat="54.37020524404943" lon="11.008284352719784">
        <ele>0</ele>
        <time>2010-01-03T05:59:14Z</time>
      </trkpt>
      <trkpt lat="54.370159730315208" lon="11.008824901655316">
        <ele>0</ele>
        <time>2010-01-03T05:59:27Z</time>
      </trkpt>
      <trkpt lat="54.370138859376311" lon="11.009086333215237">
        <ele>0</ele>
        <time>2010-01-03T05:59:33Z</time>
      </trkpt>
      <trkpt lat="54.370122598484159" lon="11.009217090904713">
        <ele>0</ele>
        <time>2010-01-03T05:59:36Z</time>
      </trkpt>
      <trkpt lat="54.370070211589336" lon="11.009501488879323">
        <ele>0</ele>
        <time>2010-01-03T05:59:43Z</time>
      </trkpt>
      <trkpt lat="54.370024697855115" lon="11.009746324270964">
        <ele>0</ele>
        <time>2010-01-03T05:59:49Z</time>
      </trkpt>
      <trkpt lat="54.369983291253448" lon="11.009966265410185">
        <ele>0</ele>
        <time>2010-01-03T05:59:54Z</time>
      </trkpt>
      <trkpt lat="54.369911039248109" lon="11.010338673368096">
        <ele>0</ele>
        <time>2010-01-03T06:00:04Z</time>
      </trkpt>
      <trkpt lat="54.369857143610716" lon="11.010602787137032">
        <ele>0</ele>
        <time>2010-01-03T06:00:10Z</time>
      </trkpt>
      <trkpt lat="54.369822358712554" lon="11.010796576738358">
        <ele>0</ele>
        <time>2010-01-03T06:00:15Z</time>
      </trkpt>
      <trkpt lat="54.369782796129584" lon="11.010994892567396">
        <ele>0</ele>
        <time>2010-01-03T06:00:20Z</time>
      </trkpt>
      <trkpt lat="54.369733426719904" lon="11.011185832321644">
        <ele>0</ele>
        <time>2010-01-03T06:00:25Z</time>
      </trkpt>
      <trkpt lat="54.369664946570992" lon="11.011405354365706">
        <ele>0</ele>
        <time>2010-01-03T06:00:30Z</time>
      </trkpt>
      <trkpt lat="54.369540475308895" lon="11.011780528351665">
        <ele>0</ele>
        <time>2010-01-03T06:00:40Z</time>
      </trkpt>
      <trkpt lat="54.36935598962009" lon="11.012345803901553">
        <ele>0</ele>
        <time>2010-01-03T06:00:56Z</time>
      </trkpt>
      <trkpt lat="54.369099168106914" lon="11.013133199885488">
        <ele>0</ele>
        <time>2010-01-03T06:01:17Z</time>
      </trkpt>
      <trkpt lat="54.368906803429127" lon="11.013720938935876">
        <ele>0</ele>
        <time>2010-01-03T06:01:32Z</time>
      </trkpt>
      <trkpt lat="54.368821643292904" lon="11.013970049098134">
        <ele>0</ele>
        <time>2010-01-03T06:01:39Z</time>
      </trkpt>
      <trkpt lat="54.368550321087241" lon="11.014721570536494">
        <ele>0</ele>
        <time>2010-01-03T06:02:00Z</time>
      </trkpt>
      <trkpt lat="54.368212362751365" lon="11.015769895166159">
        <ele>0</ele>
        <time>2010-01-03T06:02:28Z</time>
      </trkpt>
      <trkpt lat="54.368087723851204" lon="11.016218662261963">
        <ele>0</ele>
        <time>2010-01-03T06:02:39Z</time>
      </trkpt>
      <trkpt lat="54.368008095771074" lon="11.016555530950427">
        <ele>0</ele>
        <time>2010-01-03T06:02:48Z</time>
      </trkpt>
      <trkpt lat="54.367902567610145" lon="11.017043944448233">
        <ele>0</ele>
        <time>2010-01-03T06:03:00Z</time>
      </trkpt>
      <trkpt lat="54.367798045277596" lon="11.017649117857218">
        <ele>0</ele>
        <time>2010-01-03T06:03:15Z</time>
      </trkpt>
      <trkpt lat="54.367736773565412" lon="11.018155971542001">
        <ele>0</ele>
        <time>2010-01-03T06:03:27Z</time>
      </trkpt>
      <trkpt lat="54.3677166569978" lon="11.018311874940991">
        <ele>0</ele>
        <time>2010-01-03T06:03:30Z</time>
      </trkpt>
      <trkpt lat="54.367697713896632" lon="11.01842662319541">
        <ele>0</ele>
        <time>2010-01-03T06:03:33Z</time>
      </trkpt>
      <trkpt lat="54.367657732218504" lon="11.018662825226784">
        <ele>0</ele>
        <time>2010-01-03T06:03:39Z</time>
      </trkpt>
      <trkpt lat="54.367601741105318" lon="11.018925933167338">
        <ele>0</ele>
        <time>2010-01-03T06:03:45Z</time>
      </trkpt>
      <trkpt lat="54.367560921236873" lon="11.019140258431435">
        <ele>0</ele>
        <time>2010-01-03T06:03:51Z</time>
      </trkpt>
      <trkpt lat="54.367438964545727" lon="11.019770661368966">
        <ele>0</ele>
        <time>2010-01-03T06:04:06Z</time>
      </trkpt>
      <trkpt lat="54.367437036707997" lon="11.019780552014709">
        <ele>0</ele>
        <time>2010-01-03T06:04:06Z</time>
      </trkpt>
      <trkpt lat="54.367368808016181" lon="11.020109290257096">
        <ele>0</ele>
        <time>2010-01-03T06:04:14Z</time>
      </trkpt>
      <trkpt lat="54.367282977327704" lon="11.02056828327477">
        <ele>0</ele>
        <time>2010-01-03T06:04:26Z</time>
      </trkpt>
      <trkpt lat="54.367227489128709" lon="11.020867014303803">
        <ele>0</ele>
        <time>2010-01-03T06:04:33Z</time>
      </trkpt>
      <trkpt lat="54.367188429459929" lon="11.021069521084428">
        <ele>0</ele>
        <time>2010-01-03T06:04:38Z</time>
      </trkpt>
      <trkpt lat="54.367083068937063" lon="11.021382668986917">
        <ele>0</ele>
        <time>2010-01-03T06:04:46Z</time>
      </trkpt>
      <trkpt lat="54.36681610532105" lon="11.022061016410589">
        <ele>0</ele>
        <time>2010-01-03T06:05:06Z</time>
      </trkpt>
      <trkpt lat="54.366685263812542" lon="11.022338038310409">
        <ele>0</ele>
        <time>2010-01-03T06:05:14Z</time>
      </trkpt>
      <trkpt lat="54.366616113111377" lon="11.022449685260653">
        <ele>0</ele>
        <time>2010-01-03T06:05:18Z</time>
      </trkpt>
      <trkpt lat="54.366566659882665" lon="11.022487320005894">
        <ele>0</ele>
        <time>2010-01-03T06:05:20Z</time>
      </trkpt>
      <trkpt lat="54.366480829194188" lon="11.022498300299048">
        <ele>0</ele>
        <time>2010-01-03T06:05:23Z</time>
      </trkpt>
      <trkpt lat="54.36639147810638" lon="11.022490421310067">
        <ele>0</ele>
        <time>2010-01-03T06:05:27Z</time>
      </trkpt>
      <trkpt lat="54.366249404847622" lon="11.022453624755144">
        <ele>0</ele>
        <time>2010-01-03T06:05:33Z</time>
      </trkpt>
      <trkpt lat="54.366034660488367" lon="11.022397298365831">
        <ele>0</ele>
        <time>2010-01-03T06:05:41Z</time>
      </trkpt>
      <trkpt lat="54.365874901413918" lon="11.0223522875458">
        <ele>0</ele>
        <time>2010-01-03T06:05:48Z</time>
      </trkpt>
      <trkpt lat="54.365890407934785" lon="11.021855492144823">
        <ele>0</ele>
        <time>2010-01-03T06:05:59Z</time>
      </trkpt>
      <trkpt lat="54.365904154255986" lon="11.02148249745369">
        <ele>0</ele>
        <time>2010-01-03T06:06:08Z</time>
      </trkpt>
      <trkpt lat="54.36590775847435" lon="11.021074214950204">
        <ele>0</ele>
        <time>2010-01-03T06:06:18Z</time>
      </trkpt>
      <trkpt lat="54.365907339379191" lon="11.020682696253061">
        <ele>0</ele>
        <time>2010-01-03T06:06:27Z</time>
      </trkpt>
      <trkpt lat="54.365906836465001" lon="11.020618071779609">
        <ele>0</ele>
        <time>2010-01-03T06:06:28Z</time>
      </trkpt>
      <trkpt lat="54.365903986617923" lon="11.020262595266104">
        <ele>0</ele>
        <time>2010-01-03T06:06:37Z</time>
      </trkpt>
      <trkpt lat="54.365901639685035" lon="11.019911058247089">
        <ele>0</ele>
        <time>2010-01-03T06:06:45Z</time>
      </trkpt>
      <trkpt lat="54.365900550037622" lon="11.019751550629735">
        <ele>0</ele>
        <time>2010-01-03T06:06:48Z</time>
      </trkpt>
      <trkpt lat="54.365895856171846" lon="11.018997011706233">
        <ele>0</ele>
        <time>2010-01-03T06:07:06Z</time>
      </trkpt>
      <trkpt lat="54.365896778181195" lon="11.018775561824441">
        <ele>0</ele>
        <time>2010-01-03T06:07:11Z</time>
      </trkpt>
      <trkpt lat="54.365871045738459" lon="11.018686965107918">
        <ele>0</ele>
        <time>2010-01-03T06:07:14Z</time>
      </trkpt>
      <trkpt lat="54.365837266668677" lon="11.018642373383045">
        <ele>0</ele>
        <time>2010-01-03T06:07:15Z</time>
      </trkpt>
      <trkpt lat="54.36580122448504" lon="11.018622927367687">
        <ele>0</ele>
        <time>2010-01-03T06:07:17Z</time>
      </trkpt>
      <trkpt lat="54.3657479993999" lon="11.018621167168021">
        <ele>0</ele>
        <time>2010-01-03T06:07:19Z</time>
      </trkpt>
      <trkpt lat="54.365345165133476" lon="11.018676068633795">
        <ele>0</ele>
        <time>2010-01-03T06:07:35Z</time>
      </trkpt>
      <trkpt lat="54.3654440715909" lon="11.019930252805352">
        <ele>0</ele>
        <time>2010-01-03T06:08:05Z</time>
      </trkpt>
      <trkpt lat="54.365541217848659" lon="11.021163230761886">
        <ele>0</ele>
        <time>2010-01-03T06:08:34Z</time>
      </trkpt>
      <trkpt lat="54.365608356893063" lon="11.022044755518436">
        <ele>0</ele>
        <time>2010-01-03T06:08:54Z</time>
      </trkpt>
      <trkpt lat="54.365619756281376" lon="11.022391011938453">
        <ele>0</ele>
        <time>2010-01-03T06:09:02Z</time>
      </trkpt>
      <trkpt lat="54.365624617785215" lon="11.022718911990523">
        <ele>0</ele>
        <time>2010-01-03T06:09:10Z</time>
      </trkpt>
      <trkpt lat="54.365621684119105" lon="11.024028584361076">
        <ele>0</ele>
        <time>2010-01-03T06:09:41Z</time>
      </trkpt>
      <trkpt lat="54.365602321922779" lon="11.024820422753692">
        <ele>0</ele>
        <time>2010-01-03T06:09:59Z</time>
      </trkpt>
      <trkpt lat="54.365570638328791" lon="11.025439510121942">
        <ele>0</ele>
        <time>2010-01-03T06:10:14Z</time>
      </trkpt>
      <trkpt lat="54.365537781268358" lon="11.025897581130266">
        <ele>0</ele>
        <time>2010-01-03T06:10:24Z</time>
      </trkpt>
      <trkpt lat="54.365520933642983" lon="11.026147194206715">
        <ele>0</ele>
        <time>2010-01-03T06:10:30Z</time>
      </trkpt>
      <trkpt lat="54.365467792376876" lon="11.026630830019712">
        <ele>0</ele>
        <time>2010-01-03T06:10:42Z</time>
      </trkpt>
      <trkpt lat="54.365377770736814" lon="11.027197446674109">
        <ele>0</ele>
        <time>2010-01-03T06:10:55Z</time>
      </trkpt>
      <trkpt lat="54.3652921076864" lon="11.027524257078767">
        <ele>0</ele>
        <time>2010-01-03T06:11:04Z</time>
      </trkpt>
      <trkpt lat="54.365197978913784" lon="11.027842434123158">
        <ele>0</ele>
        <time>2010-01-03T06:11:12Z</time>
      </trkpt>
      <trkpt lat="54.364519128575921" lon="11.029971772804856">
        <ele>0</ele>
        <time>2010-01-03T06:12:09Z</time>
      </trkpt>
      <trkpt lat="54.364446206018329" lon="11.030181907117367">
        <ele>0</ele>
        <time>2010-01-03T06:12:14Z</time>
      </trkpt>
      <trkpt lat="54.364392897114158" lon="11.030335379764438">
        <ele>0</ele>
        <time>2010-01-03T06:12:19Z</time>
      </trkpt>
      <trkpt lat="54.364362303167582" lon="11.030423473566771">
        <ele>0</ele>
        <time>2010-01-03T06:12:21Z</time>
      </trkpt>
      <trkpt lat="54.364292062819004" lon="11.030625896528363">
        <ele>0</ele>
        <time>2010-01-03T06:12:26Z</time>
      </trkpt>
      <trkpt lat="54.364173458889127" lon="11.030920101329684">
        <ele>0</ele>
        <time>2010-01-03T06:12:35Z</time>
      </trkpt>
      <trkpt lat="54.364019399508834" lon="11.031275410205126">
        <ele>0</ele>
        <time>2010-01-03T06:12:45Z</time>
      </trkpt>
      <trkpt lat="54.363804487511516" lon="11.03166600689292">
        <ele>0</ele>
        <time>2010-01-03T06:12:58Z</time>
      </trkpt>
      <trkpt lat="54.363593012094498" lon="11.032004216685891">
        <ele>0</ele>
        <time>2010-01-03T06:13:09Z</time>
      </trkpt>
      <trkpt lat="54.363254299387336" lon="11.032483410090208">
        <ele>0</ele>
        <time>2010-01-03T06:13:27Z</time>
      </trkpt>
      <trkpt lat="54.362998651340604" lon="11.032784739509225">
        <ele>0</ele>
        <time>2010-01-03T06:13:39Z</time>
      </trkpt>
      <trkpt lat="54.362789606675506" lon="11.033028569072485">
        <ele>0</ele>
        <time>2010-01-03T06:13:49Z</time>
      </trkpt>
      <trkpt lat="54.362650886178017" lon="11.033173073083162">
        <ele>0</ele>
        <time>2010-01-03T06:13:56Z</time>
      </trkpt>
      <trkpt lat="54.362501855939627" lon="11.03330684825778">
        <ele>0</ele>
        <time>2010-01-03T06:14:03Z</time>
      </trkpt>
      <trkpt lat="54.362222403287888" lon="11.033510947600007">
        <ele>0</ele>
        <time>2010-01-03T06:14:15Z</time>
      </trkpt>
      <trkpt lat="54.361669030040503" lon="11.033770870417356">
        <ele>0</ele>
        <time>2010-01-03T06:14:38Z</time>
      </trkpt>
      <trkpt lat="54.360960088670254" lon="11.034125760197639">
        <ele>0</ele>
        <time>2010-01-03T06:15:07Z</time>
      </trkpt>
      <trkpt lat="54.360907869413495" lon="11.034157024696469">
        <ele>0</ele>
        <time>2010-01-03T06:15:09Z</time>
      </trkpt>
      <trkpt lat="54.360864786431193" lon="11.034194324165583">
        <ele>0</ele>
        <time>2010-01-03T06:15:11Z</time>
      </trkpt>
      <trkpt lat="54.360715756192803" lon="11.034343941137195">
        <ele>0</ele>
        <time>2010-01-03T06:15:18Z</time>
      </trkpt>
      <trkpt lat="54.360625986009836" lon="11.034459108486772">
        <ele>0</ele>
        <time>2010-01-03T06:15:23Z</time>
      </trkpt>
      <trkpt lat="54.360555578023195" lon="11.0345992539078">
        <ele>0</ele>
        <time>2010-01-03T06:15:27Z</time>
      </trkpt>
      <trkpt lat="54.36052012257278" lon="11.034711403772235">
        <ele>0</ele>
        <time>2010-01-03T06:15:30Z</time>
      </trkpt>
      <trkpt lat="54.360493635758758" lon="11.03484895080328">
        <ele>0</ele>
        <time>2010-01-03T06:15:33Z</time>
      </trkpt>
      <trkpt lat="54.360495563596487" lon="11.034928159788251">
        <ele>0</ele>
        <time>2010-01-03T06:15:35Z</time>
      </trkpt>
      <trkpt lat="54.360512746497989" lon="11.035039136186242">
        <ele>0</ele>
        <time>2010-01-03T06:15:38Z</time>
      </trkpt>
      <trkpt lat="54.36055826023221" lon="11.035185232758522">
        <ele>0</ele>
        <time>2010-01-03T06:15:42Z</time>
      </trkpt>
      <trkpt lat="54.36072925105691" lon="11.035642297938466">
        <ele>0</ele>
        <time>2010-01-03T06:15:55Z</time>
      </trkpt>
      <trkpt lat="54.360823798924685" lon="11.035904651507735">
        <ele>0</ele>
        <time>2010-01-03T06:16:02Z</time>
      </trkpt>
      <trkpt lat="54.360897978767753" lon="11.03614722378552">
        <ele>0</ele>
        <time>2010-01-03T06:16:08Z</time>
      </trkpt>
      <trkpt lat="54.360924297943711" lon="11.036296924576163">
        <ele>0</ele>
        <time>2010-01-03T06:16:12Z</time>
      </trkpt>
      <trkpt lat="54.360947012901306" lon="11.036518206819892">
        <ele>0</ele>
        <time>2010-01-03T06:16:17Z</time>
      </trkpt>
      <trkpt lat="54.360973499715328" lon="11.036865888163447">
        <ele>0</ele>
        <time>2010-01-03T06:16:25Z</time>
      </trkpt>
      <trkpt lat="54.360994035378098" lon="11.037156488746405">
        <ele>0</ele>
        <time>2010-01-03T06:16:32Z</time>
      </trkpt>
      <trkpt lat="54.361013732850552" lon="11.037358744069934">
        <ele>0</ele>
        <time>2010-01-03T06:16:37Z</time>
      </trkpt>
      <trkpt lat="54.361081626266241" lon="11.03815158829093">
        <ele>0</ele>
        <time>2010-01-03T06:16:55Z</time>
      </trkpt>
      <trkpt lat="54.361116411164403" lon="11.038488792255521">
        <ele>0</ele>
        <time>2010-01-03T06:17:03Z</time>
      </trkpt>
      <trkpt lat="54.361161757260561" lon="11.038775704801083">
        <ele>0</ele>
        <time>2010-01-03T06:17:10Z</time>
      </trkpt>
      <trkpt lat="54.361188663169742" lon="11.038926411420107">
        <ele>0</ele>
        <time>2010-01-03T06:17:14Z</time>
      </trkpt>
      <trkpt lat="54.36123794876039" lon="11.039149705320597">
        <ele>0</ele>
        <time>2010-01-03T06:17:20Z</time>
      </trkpt>
      <trkpt lat="54.361270722001791" lon="11.039297729730606">
        <ele>0</ele>
        <time>2010-01-03T06:17:23Z</time>
      </trkpt>
      <trkpt lat="54.361466523259878" lon="11.039968533441424">
        <ele>0</ele>
        <time>2010-01-03T06:17:41Z</time>
      </trkpt>
      <trkpt lat="54.36158437281847" lon="11.040318394079804">
        <ele>0</ele>
        <time>2010-01-03T06:17:50Z</time>
      </trkpt>
      <trkpt lat="54.361641285941005" lon="11.040481003001332">
        <ele>0</ele>
        <time>2010-01-03T06:17:55Z</time>
      </trkpt>
      <trkpt lat="54.361796686425805" lon="11.040918789803982">
        <ele>0</ele>
        <time>2010-01-03T06:18:07Z</time>
      </trkpt>
      <trkpt lat="54.361875979229808" lon="11.041155410930514">
        <ele>0</ele>
        <time>2010-01-03T06:18:13Z</time>
      </trkpt>
      <trkpt lat="54.361939514055848" lon="11.041328497231007">
        <ele>0</ele>
        <time>2010-01-03T06:18:18Z</time>
      </trkpt>
      <trkpt lat="54.362044204026461" lon="11.041635274887085">
        <ele>0</ele>
        <time>2010-01-03T06:18:26Z</time>
      </trkpt>
      <trkpt lat="54.362063985317945" lon="11.041702246293426">
        <ele>0</ele>
        <time>2010-01-03T06:18:28Z</time>
      </trkpt>
      <trkpt lat="54.362167669460177" lon="11.042052526026964">
        <ele>0</ele>
        <time>2010-01-03T06:18:37Z</time>
      </trkpt>
      <trkpt lat="54.362231623381376" lon="11.042289230972528">
        <ele>0</ele>
        <time>2010-01-03T06:18:43Z</time>
      </trkpt>
      <trkpt lat="54.362295912578702" lon="11.042548818513751">
        <ele>0</ele>
        <time>2010-01-03T06:18:50Z</time>
      </trkpt>
      <trkpt lat="54.362329775467515" lon="11.042714780196548">
        <ele>0</ele>
        <time>2010-01-03T06:18:54Z</time>
      </trkpt>
      <trkpt lat="54.362359363585711" lon="11.042873449623585">
        <ele>0</ele>
        <time>2010-01-03T06:18:58Z</time>
      </trkpt>
      <trkpt lat="54.362465310841799" lon="11.043659169226885">
        <ele>0</ele>
        <time>2010-01-03T06:19:16Z</time>
      </trkpt>
      <trkpt lat="54.362599588930607" lon="11.044640438631177">
        <ele>0</ele>
        <time>2010-01-03T06:19:40Z</time>
      </trkpt>
      <trkpt lat="54.362659603357315" lon="11.045119045302272">
        <ele>0</ele>
        <time>2010-01-03T06:19:51Z</time>
      </trkpt>
      <trkpt lat="54.362712744623423" lon="11.045542415231466">
        <ele>0</ele>
        <time>2010-01-03T06:20:01Z</time>
      </trkpt>
      <trkpt lat="54.362747948616743" lon="11.045790854841471">
        <ele>0</ele>
        <time>2010-01-03T06:20:07Z</time>
      </trkpt>
      <trkpt lat="54.362769490107894" lon="11.045905686914921">
        <ele>0</ele>
        <time>2010-01-03T06:20:10Z</time>
      </trkpt>
      <trkpt lat="54.362792791798711" lon="11.046009790152311">
        <ele>0</ele>
        <time>2010-01-03T06:20:13Z</time>
      </trkpt>
      <trkpt lat="54.362817853689194" lon="11.046106098219752">
        <ele>0</ele>
        <time>2010-01-03T06:20:15Z</time>
      </trkpt>
      <trkpt lat="54.362842831760645" lon="11.046202490106225">
        <ele>0</ele>
        <time>2010-01-03T06:20:18Z</time>
      </trkpt>
      <trkpt lat="54.362865881994367" lon="11.046277340501547">
        <ele>0</ele>
        <time>2010-01-03T06:20:20Z</time>
      </trkpt>
      <trkpt lat="54.362885244190693" lon="11.046339953318238">
        <ele>0</ele>
        <time>2010-01-03T06:20:21Z</time>
      </trkpt>
      <trkpt lat="54.363093785941601" lon="11.047030538320541">
        <ele>0</ele>
        <time>2010-01-03T06:20:40Z</time>
      </trkpt>
      <trkpt lat="54.363120440393686" lon="11.047109914943576">
        <ele>0</ele>
        <time>2010-01-03T06:20:42Z</time>
      </trkpt>
      <trkpt lat="54.363147262483835" lon="11.047212341800332">
        <ele>0</ele>
        <time>2010-01-03T06:20:44Z</time>
      </trkpt>
      <trkpt lat="54.363161344081163" lon="11.047284342348576">
        <ele>0</ele>
        <time>2010-01-03T06:20:46Z</time>
      </trkpt>
      <trkpt lat="54.3631836399436" lon="11.047374531626701">
        <ele>0</ele>
        <time>2010-01-03T06:20:48Z</time>
      </trkpt>
      <trkpt lat="54.363194955512881" lon="11.047443514689803">
        <ele>0</ele>
        <time>2010-01-03T06:20:50Z</time>
      </trkpt>
      <trkpt lat="54.363212725147605" lon="11.047535464167595">
        <ele>0</ele>
        <time>2010-01-03T06:20:52Z</time>
      </trkpt>
      <trkpt lat="54.363302914425731" lon="11.048034857958555">
        <ele>0</ele>
        <time>2010-01-03T06:21:04Z</time>
      </trkpt>
      <trkpt lat="54.363323701545596" lon="11.048168214038014">
        <ele>0</ele>
        <time>2010-01-03T06:21:08Z</time>
      </trkpt>
      <trkpt lat="54.363341806456447" lon="11.048293942585588">
        <ele>0</ele>
        <time>2010-01-03T06:21:11Z</time>
      </trkpt>
      <trkpt lat="54.363716812804341" lon="11.051311511546373">
        <ele>0</ele>
        <time>2010-01-03T06:22:23Z</time>
      </trkpt>
      <trkpt lat="54.363736091181636" lon="11.051481831818819">
        <ele>0</ele>
        <time>2010-01-03T06:22:27Z</time>
      </trkpt>
      <trkpt lat="54.363747993484139" lon="11.051618456840515">
        <ele>0</ele>
        <time>2010-01-03T06:22:30Z</time>
      </trkpt>
      <trkpt lat="54.363759811967611" lon="11.05175357311964">
        <ele>0</ele>
        <time>2010-01-03T06:22:33Z</time>
      </trkpt>
      <trkpt lat="54.363769115880132" lon="11.051908722147346">
        <ele>0</ele>
        <time>2010-01-03T06:22:37Z</time>
      </trkpt>
      <trkpt lat="54.363771211355925" lon="11.05205942876637">
        <ele>0</ele>
        <time>2010-01-03T06:22:40Z</time>
      </trkpt>
      <trkpt lat="54.363769367337227" lon="11.0521718300879">
        <ele>0</ele>
        <time>2010-01-03T06:22:43Z</time>
      </trkpt>
      <trkpt lat="54.363760482519865" lon="11.05229202657938">
        <ele>0</ele>
        <time>2010-01-03T06:22:46Z</time>
      </trkpt>
      <trkpt lat="54.363753106445074" lon="11.052386071532965">
        <ele>0</ele>
        <time>2010-01-03T06:22:48Z</time>
      </trkpt>
      <trkpt lat="54.36367372982204" lon="11.053062742576003">
        <ele>0</ele>
        <time>2010-01-03T06:23:04Z</time>
      </trkpt>
      <trkpt lat="54.363617487251759" lon="11.053474042564631">
        <ele>0</ele>
        <time>2010-01-03T06:23:14Z</time>
      </trkpt>
      <trkpt lat="54.363595442846417" lon="11.053777970373631">
        <ele>0</ele>
        <time>2010-01-03T06:23:21Z</time>
      </trkpt>
      <trkpt lat="54.363579181954265" lon="11.054155575111508">
        <ele>0</ele>
        <time>2010-01-03T06:23:30Z</time>
      </trkpt>
      <trkpt lat="54.363573482260108" lon="11.054504597559571">
        <ele>0</ele>
        <time>2010-01-03T06:23:38Z</time>
      </trkpt>
      <trkpt lat="54.363585216924548" lon="11.054824786260724">
        <ele>0</ele>
        <time>2010-01-03T06:23:45Z</time>
      </trkpt>
      <trkpt lat="54.36359066516161" lon="11.055107591673732">
        <ele>0</ele>
        <time>2010-01-03T06:23:52Z</time>
      </trkpt>
      <trkpt lat="54.36360633932054" lon="11.055440185591578">
        <ele>0</ele>
        <time>2010-01-03T06:24:00Z</time>
      </trkpt>
      <trkpt lat="54.363662078976631" lon="11.055862549692392">
        <ele>0</ele>
        <time>2010-01-03T06:24:10Z</time>
      </trkpt>
      <trkpt lat="54.363803649321198" lon="11.056897044181824">
        <ele>0</ele>
        <time>2010-01-03T06:24:35Z</time>
      </trkpt>
      <trkpt lat="54.363896436989307" lon="11.057553179562092">
        <ele>0</ele>
        <time>2010-01-03T06:24:51Z</time>
      </trkpt>
      <trkpt lat="54.364145463332534" lon="11.059250766411424">
        <ele>0</ele>
        <time>2010-01-03T06:25:31Z</time>
      </trkpt>
      <trkpt lat="54.364189552143216" lon="11.059574978426099">
        <ele>0</ele>
        <time>2010-01-03T06:25:39Z</time>
      </trkpt>
      <trkpt lat="54.364220565184951" lon="11.059979656711221">
        <ele>0</ele>
        <time>2010-01-03T06:25:49Z</time>
      </trkpt>
      <trkpt lat="54.364235065877438" lon="11.060295486822724">
        <ele>0</ele>
        <time>2010-01-03T06:25:56Z</time>
      </trkpt>
      <trkpt lat="54.364251829683781" lon="11.060660015791655">
        <ele>0</ele>
        <time>2010-01-03T06:26:05Z</time>
      </trkpt>
      <trkpt lat="54.36426012776792" lon="11.060923291370273">
        <ele>0</ele>
        <time>2010-01-03T06:26:11Z</time>
      </trkpt>
      <trkpt lat="54.364281417801976" lon="11.061281114816666">
        <ele>0</ele>
        <time>2010-01-03T06:26:19Z</time>
      </trkpt>
      <trkpt lat="54.364307401701808" lon="11.061605745926499">
        <ele>0</ele>
        <time>2010-01-03T06:26:27Z</time>
      </trkpt>
      <trkpt lat="54.364335229620337" lon="11.061904979869723">
        <ele>0</ele>
        <time>2010-01-03T06:26:34Z</time>
      </trkpt>
      <trkpt lat="54.364370349794626" lon="11.062248637899756">
        <ele>0</ele>
        <time>2010-01-03T06:26:42Z</time>
      </trkpt>
      <trkpt lat="54.364583836868405" lon="11.064213356003165">
        <ele>0</ele>
        <time>2010-01-03T06:27:29Z</time>
      </trkpt>
      <trkpt lat="54.364590793848038" lon="11.064300863072276">
        <ele>0</ele>
        <time>2010-01-03T06:27:31Z</time>
      </trkpt>
      <trkpt lat="54.364598086103797" lon="11.064433045685291">
        <ele>0</ele>
        <time>2010-01-03T06:27:34Z</time>
      </trkpt>
      <trkpt lat="54.36460554599762" lon="11.064578974619508">
        <ele>0</ele>
        <time>2010-01-03T06:27:37Z</time>
      </trkpt>
      <trkpt lat="54.364609988406301" lon="11.064691208302975">
        <ele>0</ele>
        <time>2010-01-03T06:27:40Z</time>
      </trkpt>
      <trkpt lat="54.364615185186267" lon="11.064897235482931">
        <ele>0</ele>
        <time>2010-01-03T06:27:45Z</time>
      </trkpt>
      <trkpt lat="54.364614598453045" lon="11.064943419769406">
        <ele>0</ele>
        <time>2010-01-03T06:27:46Z</time>
      </trkpt>
      <trkpt lat="54.364614430814981" lon="11.065040314570069">
        <ele>0</ele>
        <time>2010-01-03T06:27:48Z</time>
      </trkpt>
      <trkpt lat="54.364609150215983" lon="11.065165121108294">
        <ele>0</ele>
        <time>2010-01-03T06:27:51Z</time>
      </trkpt>
      <trkpt lat="54.364602947607636" lon="11.065289843827486">
        <ele>0</ele>
        <time>2010-01-03T06:27:54Z</time>
      </trkpt>
      <trkpt lat="54.364595906808972" lon="11.065423870459199">
        <ele>0</ele>
        <time>2010-01-03T06:27:57Z</time>
      </trkpt>
      <trkpt lat="54.364593392238021" lon="11.065450021997094">
        <ele>0</ele>
        <time>2010-01-03T06:27:57Z</time>
      </trkpt>
      <trkpt lat="54.364591715857387" lon="11.065470138564706">
        <ele>0</ele>
        <time>2010-01-03T06:27:58Z</time>
      </trkpt>
      <trkpt lat="54.364522648975253" lon="11.066293241456151">
        <ele>0</ele>
        <time>2010-01-03T06:28:17Z</time>
      </trkpt>
      <trkpt lat="54.364251159131527" lon="11.069528656080365">
        <ele>0</ele>
        <time>2010-01-03T06:29:34Z</time>
      </trkpt>
      <trkpt lat="54.36414479278028" lon="11.070887949317694">
        <ele>0</ele>
        <time>2010-01-03T06:30:06Z</time>
      </trkpt>
      <trkpt lat="54.364140685647726" lon="11.070937318727374">
        <ele>0</ele>
        <time>2010-01-03T06:30:07Z</time>
      </trkpt>
      <trkpt lat="54.364054938778281" lon="11.072059236466885">
        <ele>0</ele>
        <time>2010-01-03T06:30:33Z</time>
      </trkpt>
      <trkpt lat="54.364018393680453" lon="11.072560055181384">
        <ele>0</ele>
        <time>2010-01-03T06:30:45Z</time>
      </trkpt>
      <trkpt lat="54.363997187465429" lon="11.072842106223106">
        <ele>0</ele>
        <time>2010-01-03T06:30:52Z</time>
      </trkpt>
      <trkpt lat="54.363977322354913" lon="11.073291795328259">
        <ele>0</ele>
        <time>2010-01-03T06:31:02Z</time>
      </trkpt>
      <trkpt lat="54.363981680944562" lon="11.073507042601705">
        <ele>0</ele>
        <time>2010-01-03T06:31:07Z</time>
      </trkpt>
      <trkpt lat="54.363987883552909" lon="11.073663281276822">
        <ele>0</ele>
        <time>2010-01-03T06:31:11Z</time>
      </trkpt>
      <trkpt lat="54.36398939229548" lon="11.073703849688172">
        <ele>0</ele>
        <time>2010-01-03T06:31:12Z</time>
      </trkpt>
      <trkpt lat="54.364000456407666" lon="11.073848186060786">
        <ele>0</ele>
        <time>2010-01-03T06:31:15Z</time>
      </trkpt>
      <trkpt lat="54.36400749720633" lon="11.073904512450099">
        <ele>0</ele>
        <time>2010-01-03T06:31:16Z</time>
      </trkpt>
      <trkpt lat="54.364016717299819" lon="11.073977015912533">
        <ele>0</ele>
        <time>2010-01-03T06:31:18Z</time>
      </trkpt>
      <trkpt lat="54.364039516076446" lon="11.074147336184978">
        <ele>0</ele>
        <time>2010-01-03T06:31:22Z</time>
      </trkpt>
      <trkpt lat="54.364062901586294" lon="11.074257558211684">
        <ele>0</ele>
        <time>2010-01-03T06:31:25Z</time>
      </trkpt>
      <trkpt lat="54.364078659564257" lon="11.074327966198325">
        <ele>0</ele>
        <time>2010-01-03T06:31:27Z</time>
      </trkpt>
      <trkpt lat="54.364087041467428" lon="11.07436778023839">
        <ele>0</ele>
        <time>2010-01-03T06:31:28Z</time>
      </trkpt>
      <trkpt lat="54.364106571301818" lon="11.074456544592977">
        <ele>0</ele>
        <time>2010-01-03T06:31:30Z</time>
      </trkpt>
      <trkpt lat="54.364134399220347" lon="11.074563665315509">
        <ele>0</ele>
        <time>2010-01-03T06:31:33Z</time>
      </trkpt>
      <trkpt lat="54.364162227138877" lon="11.074676821008325">
        <ele>0</ele>
        <time>2010-01-03T06:31:36Z</time>
      </trkpt>
      <trkpt lat="54.364194581285119" lon="11.074794586747885">
        <ele>0</ele>
        <time>2010-01-03T06:31:39Z</time>
      </trkpt>
      <trkpt lat="54.3642249237746" lon="11.074892403557897">
        <ele>0</ele>
        <time>2010-01-03T06:31:41Z</time>
      </trkpt>
      <trkpt lat="54.364271694794297" lon="11.075011342763901">
        <ele>0</ele>
        <time>2010-01-03T06:31:44Z</time>
      </trkpt>
      <trkpt lat="54.36427722685039" lon="11.075025675818324">
        <ele>0</ele>
        <time>2010-01-03T06:31:45Z</time>
      </trkpt>
      <trkpt lat="54.364410080015659" lon="11.075368244200945">
        <ele>0</ele>
        <time>2010-01-03T06:31:54Z</time>
      </trkpt>
      <trkpt lat="54.364613257348537" lon="11.075860597193241">
        <ele>0</ele>
        <time>2010-01-03T06:32:09Z</time>
      </trkpt>
      <trkpt lat="54.364733705297112" lon="11.076097888872027">
        <ele>0</ele>
        <time>2010-01-03T06:32:16Z</time>
      </trkpt>
      <trkpt lat="54.364854153245687" lon="11.076339790597558">
        <ele>0</ele>
        <time>2010-01-03T06:32:23Z</time>
      </trkpt>
      <trkpt lat="54.365072920918465" lon="11.076753437519073">
        <ele>0</ele>
        <time>2010-01-03T06:32:36Z</time>
      </trkpt>
      <trkpt lat="54.365238798782229" lon="11.077060466632247">
        <ele>0</ele>
        <time>2010-01-03T06:32:46Z</time>
      </trkpt>
      <trkpt lat="54.365358324721456" lon="11.077300859615207">
        <ele>0</ele>
        <time>2010-01-03T06:32:53Z</time>
      </trkpt>
      <trkpt lat="54.365469636395574" lon="11.077532200142741">
        <ele>0</ele>
        <time>2010-01-03T06:33:00Z</time>
      </trkpt>
      <trkpt lat="54.365567453205585" lon="11.077748537063599">
        <ele>0</ele>
        <time>2010-01-03T06:33:07Z</time>
      </trkpt>
      <trkpt lat="54.365652613341808" lon="11.077963532879949">
        <ele>0</ele>
        <time>2010-01-03T06:33:13Z</time>
      </trkpt>
      <trkpt lat="54.365747915580869" lon="11.078202920034528">
        <ele>0</ele>
        <time>2010-01-03T06:33:20Z</time>
      </trkpt>
      <trkpt lat="54.365874482318759" lon="11.078546326607466">
        <ele>0</ele>
        <time>2010-01-03T06:33:29Z</time>
      </trkpt>
      <trkpt lat="54.365977244451642" lon="11.078824019059539">
        <ele>0</ele>
        <time>2010-01-03T06:33:37Z</time>
      </trkpt>
      <trkpt lat="54.366022171452641" lon="11.078946059569716">
        <ele>0</ele>
        <time>2010-01-03T06:33:40Z</time>
      </trkpt>
      <trkpt lat="54.366063494235277" lon="11.079059047624469">
        <ele>0</ele>
        <time>2010-01-03T06:33:43Z</time>
      </trkpt>
      <trkpt lat="54.366193749010563" lon="11.079416116699576">
        <ele>0</ele>
        <time>2010-01-03T06:33:53Z</time>
      </trkpt>
      <trkpt lat="54.366341521963477" lon="11.079820543527603">
        <ele>0</ele>
        <time>2010-01-03T06:34:04Z</time>
      </trkpt>
      <trkpt lat="54.366597505286336" lon="11.080521019175649">
        <ele>0</ele>
        <time>2010-01-03T06:34:24Z</time>
      </trkpt>
      <trkpt lat="54.366614017635584" lon="11.080562174320221">
        <ele>0</ele>
        <time>2010-01-03T06:34:25Z</time>
      </trkpt>
      <trkpt lat="54.366856589913368" lon="11.081155277788639">
        <ele>0</ele>
        <time>2010-01-03T06:34:42Z</time>
      </trkpt>
      <trkpt lat="54.366899589076638" lon="11.081252759322524">
        <ele>0</ele>
        <time>2010-01-03T06:34:44Z</time>
      </trkpt>
      <trkpt lat="54.367092372849584" lon="11.081683924421668">
        <ele>0</ele>
        <time>2010-01-03T06:34:57Z</time>
      </trkpt>
      <trkpt lat="54.367229333147407" lon="11.0819654725492">
        <ele>0</ele>
        <time>2010-01-03T06:35:06Z</time>
      </trkpt>
      <trkpt lat="54.367301417514682" lon="11.08211156912148">
        <ele>0</ele>
        <time>2010-01-03T06:35:10Z</time>
      </trkpt>
      <trkpt lat="54.367308709770441" lon="11.082123722881079">
        <ele>0</ele>
        <time>2010-01-03T06:35:11Z</time>
      </trkpt>
      <trkpt lat="54.367363359779119" lon="11.082224054262042">
        <ele>0</ele>
        <time>2010-01-03T06:35:14Z</time>
      </trkpt>
      <trkpt lat="54.367427816614509" lon="11.082316506654024">
        <ele>0</ele>
        <time>2010-01-03T06:35:17Z</time>
      </trkpt>
      <trkpt lat="54.367519346997142" lon="11.08241599984467">
        <ele>0</ele>
        <time>2010-01-03T06:35:21Z</time>
      </trkpt>
      <trkpt lat="54.367606183513999" lon="11.082500237971544">
        <ele>0</ele>
        <time>2010-01-03T06:35:25Z</time>
      </trkpt>
      <trkpt lat="54.367689415812492" lon="11.082576848566532">
        <ele>0</ele>
        <time>2010-01-03T06:35:29Z</time>
      </trkpt>
      <trkpt lat="54.367781700566411" lon="11.082657901570201">
        <ele>0</ele>
        <time>2010-01-03T06:35:33Z</time>
      </trkpt>
      <trkpt lat="54.368089232593775" lon="11.082926457747817">
        <ele>0</ele>
        <time>2010-01-03T06:35:47Z</time>
      </trkpt>
      <trkpt lat="54.36859667301178" lon="11.083337003365159">
        <ele>0</ele>
        <time>2010-01-03T06:36:10Z</time>
      </trkpt>
      <trkpt lat="54.369080308824778" lon="11.083778310567141">
        <ele>0</ele>
        <time>2010-01-03T06:36:32Z</time>
      </trkpt>
      <trkpt lat="54.369273008778691" lon="11.083949469029903">
        <ele>0</ele>
        <time>2010-01-03T06:36:40Z</time>
      </trkpt>
      <trkpt lat="54.369400581344962" lon="11.084069749340415">
        <ele>0</ele>
        <time>2010-01-03T06:36:46Z</time>
      </trkpt>
      <trkpt lat="54.369532512500882" lon="11.084174439311028">
        <ele>0</ele>
        <time>2010-01-03T06:36:52Z</time>
      </trkpt>
      <trkpt lat="54.369615577161312" lon="11.084220288321376">
        <ele>0</ele>
        <time>2010-01-03T06:36:55Z</time>
      </trkpt>
      <trkpt lat="54.369536619633436" lon="11.085093598812819">
        <ele>0</ele>
        <time>2010-01-03T06:37:16Z</time>
      </trkpt>
      <trkpt lat="54.37015981413424" lon="11.085009025409818">
        <ele>0</ele>
        <time>2010-01-03T06:37:41Z</time>
      </trkpt>
      <trkpt lat="54.370756102725863" lon="11.085174735635519">
        <ele>0</ele>
        <time>2010-01-03T06:38:05Z</time>
      </trkpt>
      <trkpt lat="54.371430762112141" lon="11.085383193567395">
        <ele>0</ele>
        <time>2010-01-03T06:38:33Z</time>
      </trkpt>
      <trkpt lat="54.371577613055706" lon="11.085390653461218">
        <ele>0</ele>
        <time>2010-01-03T06:38:39Z</time>
      </trkpt>
      <trkpt lat="54.371726391837001" lon="11.085282023996115">
        <ele>0</ele>
        <time>2010-01-03T06:38:45Z</time>
      </trkpt>
      <trkpt lat="54.372977390885353" lon="11.085500372573733">
        <ele>0</ele>
        <time>2010-01-03T06:39:35Z</time>
      </trkpt>
      <trkpt lat="54.37317268922925" lon="11.085974955931306">
        <ele>0</ele>
        <time>2010-01-03T06:39:49Z</time>
      </trkpt>
      <trkpt lat="54.373371675610542" lon="11.086236722767353">
        <ele>0</ele>
        <time>2010-01-03T06:39:59Z</time>
      </trkpt>
      <trkpt lat="54.373774593695998" lon="11.08647015877068">
        <ele>0</ele>
        <time>2010-01-03T06:40:16Z</time>
      </trkpt>
      <trkpt lat="54.374503986909986" lon="11.086778277531266">
        <ele>0</ele>
        <time>2010-01-03T06:40:46Z</time>
      </trkpt>
      <trkpt lat="54.37446660362184" lon="11.088286684826016">
        <ele>0</ele>
        <time>2010-01-03T06:41:21Z</time>
      </trkpt>
      <trkpt lat="54.374372810125351" lon="11.089133843779564">
        <ele>0</ele>
        <time>2010-01-03T06:41:41Z</time>
      </trkpt>
      <trkpt lat="54.37570377252996" lon="11.089956611394882">
        <ele>0</ele>
        <time>2010-01-03T06:42:38Z</time>
      </trkpt>
      <trkpt lat="54.375998144969344" lon="11.089274492114782">
        <ele>0</ele>
        <time>2010-01-03T06:42:58Z</time>
      </trkpt>
      <trkpt lat="54.376076012849808" lon="11.088697565719485">
        <ele>0</ele>
        <time>2010-01-03T06:43:12Z</time>
      </trkpt>
      <trkpt lat="54.376047933474183" lon="11.087708584964275">
        <ele>0</ele>
        <time>2010-01-03T06:43:35Z</time>
      </trkpt>
      <trkpt lat="54.3759676348418" lon="11.086465297266841">
        <ele>0</ele>
        <time>2010-01-03T06:44:04Z</time>
      </trkpt>
      <trkpt lat="54.375956822186708" lon="11.0857870336622">
        <ele>0</ele>
        <time>2010-01-03T06:44:20Z</time>
      </trkpt>
      <trkpt lat="54.375959923490882" lon="11.085079098120332">
        <ele>0</ele>
        <time>2010-01-03T06:44:36Z</time>
      </trkpt>
      <trkpt lat="54.376312801614404" lon="11.08526467345655">
        <ele>0</ele>
        <time>2010-01-03T06:44:51Z</time>
      </trkpt>
      <trkpt lat="54.37647046521306" lon="11.085343463346362">
        <ele>0</ele>
        <time>2010-01-03T06:44:58Z</time>
      </trkpt>
      <trkpt lat="54.377469420433044" lon="11.085873618721962">
        <ele>0</ele>
        <time>2010-01-03T06:45:39Z</time>
      </trkpt>
      <trkpt lat="54.377704113721848" lon="11.085996329784393">
        <ele>0</ele>
        <time>2010-01-03T06:45:49Z</time>
      </trkpt>
      <trkpt lat="54.3778395652771" lon="11.086079478263855">
        <ele>0</ele>
        <time>2010-01-03T06:45:55Z</time>
      </trkpt>
      <trkpt lat="54.377937717363238" lon="11.086166314780712">
        <ele>0</ele>
        <time>2010-01-03T06:45:59Z</time>
      </trkpt>
      <trkpt lat="54.378004940226674" lon="11.086230939254165">
        <ele>0</ele>
        <time>2010-01-03T06:46:02Z</time>
      </trkpt>
      <trkpt lat="54.37821825966239" lon="11.086692865937948">
        <ele>0</ele>
        <time>2010-01-03T06:46:16Z</time>
      </trkpt>
      <trkpt lat="54.378297803923488" lon="11.086847260594368">
        <ele>0</ele>
        <time>2010-01-03T06:46:21Z</time>
      </trkpt>
      <trkpt lat="54.378390926867723" lon="11.087004337459803">
        <ele>0</ele>
        <time>2010-01-03T06:46:26Z</time>
      </trkpt>
      <trkpt lat="54.378511542454362" lon="11.087168203666806">
        <ele>0</ele>
        <time>2010-01-03T06:46:32Z</time>
      </trkpt>
      <trkpt lat="54.378607515245676" lon="11.087278258055449">
        <ele>0</ele>
        <time>2010-01-03T06:46:37Z</time>
      </trkpt>
      <trkpt lat="54.378743134438992" lon="11.087344055995345">
        <ele>0</ele>
        <time>2010-01-03T06:46:43Z</time>
      </trkpt>
      <trkpt lat="54.378800382837653" lon="11.087370375171304">
        <ele>0</ele>
        <time>2010-01-03T06:46:45Z</time>
      </trkpt>
      <trkpt lat="54.378853105008602" lon="11.087386552244425">
        <ele>0</ele>
        <time>2010-01-03T06:46:47Z</time>
      </trkpt>
      <trkpt lat="54.378908760845661" lon="11.087392838671803">
        <ele>0</ele>
        <time>2010-01-03T06:46:49Z</time>
      </trkpt>
      <trkpt lat="54.378959722816944" lon="11.08738680370152">
        <ele>0</ele>
        <time>2010-01-03T06:46:51Z</time>
      </trkpt>
      <trkpt lat="54.379025688394904" lon="11.087375320494175">
        <ele>0</ele>
        <time>2010-01-03T06:46:54Z</time>
      </trkpt>
      <trkpt lat="54.379094922915101" lon="11.087359478697181">
        <ele>0</ele>
        <time>2010-01-03T06:46:57Z</time>
      </trkpt>
      <trkpt lat="54.379320731386542" lon="11.087303068488836">
        <ele>0</ele>
        <time>2010-01-03T06:47:06Z</time>
      </trkpt>
      <trkpt lat="54.379520891234279" lon="11.087253112345934">
        <ele>0</ele>
        <time>2010-01-03T06:47:14Z</time>
      </trkpt>
      <trkpt lat="54.379685427993536" lon="11.087224949151278">
        <ele>0</ele>
        <time>2010-01-03T06:47:21Z</time>
      </trkpt>
      <trkpt lat="54.379766313359141" lon="11.087221680209041">
        <ele>0</ele>
        <time>2010-01-03T06:47:24Z</time>
      </trkpt>
      <trkpt lat="54.379838230088353" lon="11.087229894474149">
        <ele>0</ele>
        <time>2010-01-03T06:47:27Z</time>
      </trkpt>
      <trkpt lat="54.379914673045278" lon="11.08725436963141">
        <ele>0</ele>
        <time>2010-01-03T06:47:30Z</time>
      </trkpt>
      <trkpt lat="54.379971167072654" lon="11.087281862273812">
        <ele>0</ele>
        <time>2010-01-03T06:47:32Z</time>
      </trkpt>
      <trkpt lat="54.380022464320064" lon="11.087315725162625">
        <ele>0</ele>
        <time>2010-01-03T06:47:35Z</time>
      </trkpt>
      <trkpt lat="54.380075270310044" lon="11.08735453337431">
        <ele>0</ele>
        <time>2010-01-03T06:47:37Z</time>
      </trkpt>
      <trkpt lat="54.380122208967805" lon="11.087400885298848">
        <ele>0</ele>
        <time>2010-01-03T06:47:39Z</time>
      </trkpt>
      <trkpt lat="54.380160178989172" lon="11.087457463145256">
        <ele>0</ele>
        <time>2010-01-03T06:47:41Z</time>
      </trkpt>
      <trkpt lat="54.380191778764129" lon="11.087524686008692">
        <ele>0</ele>
        <time>2010-01-03T06:47:43Z</time>
      </trkpt>
      <trkpt lat="54.380268808454275" lon="11.0874879732728">
        <ele>0</ele>
        <time>2010-01-03T06:47:46Z</time>
      </trkpt>
      <trkpt lat="54.380305940285325" lon="11.087473975494504">
        <ele>0</ele>
        <time>2010-01-03T06:47:48Z</time>
      </trkpt>
      <trkpt lat="54.380347179248929" lon="11.087460732087493">
        <ele>0</ele>
        <time>2010-01-03T06:47:49Z</time>
      </trkpt>
      <trkpt lat="54.380340557545424" lon="11.087592411786318">
        <ele>0</ele>
        <time>2010-01-03T06:47:52Z</time>
      </trkpt>
      <trkpt lat="54.380327062681317" lon="11.087745716795325">
        <ele>0</ele>
        <time>2010-01-03T06:47:56Z</time>
      </trkpt>
      <trkpt lat="54.380309376865625" lon="11.087904050946236">
        <ele>0</ele>
        <time>2010-01-03T06:48:00Z</time>
      </trkpt>
      <trkpt lat="54.380287248641253" lon="11.088068168610334">
        <ele>0</ele>
        <time>2010-01-03T06:48:04Z</time>
      </trkpt>
      <trkpt lat="54.380269311368465" lon="11.088169673457742">
        <ele>0</ele>
        <time>2010-01-03T06:48:06Z</time>
      </trkpt>
      <trkpt lat="54.380252547562122" lon="11.08824678696692">
        <ele>0</ele>
        <time>2010-01-03T06:48:08Z</time>
      </trkpt>
      <trkpt lat="54.380218265578151" lon="11.088374527171254">
        <ele>0</ele>
        <time>2010-01-03T06:48:11Z</time>
      </trkpt>
      <trkpt lat="54.380199406296015" lon="11.088449796661735">
        <ele>0</ele>
        <time>2010-01-03T06:48:13Z</time>
      </trkpt>
      <trkpt lat="54.380186162889004" lon="11.088532442227006">
        <ele>0</ele>
        <time>2010-01-03T06:48:15Z</time>
      </trkpt>
      <trkpt lat="54.380177278071642" lon="11.088619530200958">
        <ele>0</ele>
        <time>2010-01-03T06:48:17Z</time>
      </trkpt>
      <trkpt lat="54.380176104605198" lon="11.088726818561554">
        <ele>0</ele>
        <time>2010-01-03T06:48:20Z</time>
      </trkpt>
      <trkpt lat="54.380187587812543" lon="11.088817678391933">
        <ele>0</ele>
        <time>2010-01-03T06:48:22Z</time>
      </trkpt>
      <trkpt lat="54.380206447094679" lon="11.08891130425036">
        <ele>0</ele>
        <time>2010-01-03T06:48:24Z</time>
      </trkpt>
      <trkpt lat="54.380239555612206" lon="11.089009121060371">
        <ele>0</ele>
        <time>2010-01-03T06:48:27Z</time>
      </trkpt>
      <trkpt lat="54.380480954423547" lon="11.089568613097072">
        <ele>0</ele>
        <time>2010-01-03T06:48:43Z</time>
      </trkpt>
      <trkpt lat="54.38094581477344" lon="11.090682148933411">
        <ele>0</ele>
        <time>2010-01-03T06:49:15Z</time>
      </trkpt>
      <trkpt lat="54.381259381771088" lon="11.091330489143729">
        <ele>0</ele>
        <time>2010-01-03T06:49:35Z</time>
      </trkpt>
      <trkpt lat="54.381668251007795" lon="11.092124423012137">
        <ele>0</ele>
        <time>2010-01-03T06:50:00Z</time>
      </trkpt>
      <trkpt lat="54.381905877962708" lon="11.092593977227807">
        <ele>0</ele>
        <time>2010-01-03T06:50:14Z</time>
      </trkpt>
      <trkpt lat="54.38196362927556" lon="11.09268844127655">
        <ele>0</ele>
        <time>2010-01-03T06:50:17Z</time>
      </trkpt>
      <trkpt lat="54.382027750834823" lon="11.092769075185061">
        <ele>0</ele>
        <time>2010-01-03T06:50:20Z</time>
      </trkpt>
      <trkpt lat="54.382086927071214" lon="11.092815008014441">
        <ele>0</ele>
        <time>2010-01-03T06:50:23Z</time>
      </trkpt>
      <trkpt lat="54.382161106914282" lon="11.092827245593071">
        <ele>0</ele>
        <time>2010-01-03T06:50:26Z</time>
      </trkpt>
      <trkpt lat="54.382231766358018" lon="11.092823809012771">
        <ele>0</ele>
        <time>2010-01-03T06:50:29Z</time>
      </trkpt>
      <trkpt lat="54.382305862382054" lon="11.09280277043581">
        <ele>0</ele>
        <time>2010-01-03T06:50:32Z</time>
      </trkpt>
      <trkpt lat="54.382426058873534" lon="11.092772008851171">
        <ele>0</ele>
        <time>2010-01-03T06:50:37Z</time>
      </trkpt>
      <trkpt lat="54.382511889562011" lon="11.092768823727965">
        <ele>0</ele>
        <time>2010-01-03T06:50:40Z</time>
      </trkpt>
      <trkpt lat="54.38256167806685" lon="11.09280469827354">
        <ele>0</ele>
        <time>2010-01-03T06:50:42Z</time>
      </trkpt>
      <trkpt lat="54.382632505148649" lon="11.092891450971365">
        <ele>0</ele>
        <time>2010-01-03T06:50:46Z</time>
      </trkpt>
      <trkpt lat="54.382836855947971" lon="11.093300236389041">
        <ele>0</ele>
        <time>2010-01-03T06:50:58Z</time>
      </trkpt>
      <trkpt lat="54.382864264771342" lon="11.093355054035783">
        <ele>0</ele>
        <time>2010-01-03T06:51:00Z</time>
      </trkpt>
      <trkpt lat="54.382933583110571" lon="11.093494947999716">
        <ele>0</ele>
        <time>2010-01-03T06:51:04Z</time>
      </trkpt>
      <trkpt lat="54.382988149300218" lon="11.093620341271162">
        <ele>0</ele>
        <time>2010-01-03T06:51:08Z</time>
      </trkpt>
      <trkpt lat="54.383028717711568" lon="11.093738526105881">
        <ele>0</ele>
        <time>2010-01-03T06:51:11Z</time>
      </trkpt>
      <trkpt lat="54.383069705218077" lon="11.093895435333252">
        <ele>0</ele>
        <time>2010-01-03T06:51:15Z</time>
      </trkpt>
      <trkpt lat="54.383104825392365" lon="11.094063660129905">
        <ele>0</ele>
        <time>2010-01-03T06:51:19Z</time>
      </trkpt>
      <trkpt lat="54.383148830384016" lon="11.09425988048315">
        <ele>0</ele>
        <time>2010-01-03T06:51:24Z</time>
      </trkpt>
      <trkpt lat="54.383173808455467" lon="11.094347974285483">
        <ele>0</ele>
        <time>2010-01-03T06:51:27Z</time>
      </trkpt>
      <trkpt lat="54.383201887831092" lon="11.094444449990988">
        <ele>0</ele>
        <time>2010-01-03T06:51:29Z</time>
      </trkpt>
      <trkpt lat="54.383214125409722" lon="11.09446506947279">
        <ele>0</ele>
        <time>2010-01-03T06:51:30Z</time>
      </trkpt>
      <trkpt lat="54.383238181471825" lon="11.094505721703172">
        <ele>0</ele>
        <time>2010-01-03T06:51:31Z</time>
      </trkpt>
      <trkpt lat="54.383302303031087" lon="11.094544613733888">
        <ele>0</ele>
        <time>2010-01-03T06:51:34Z</time>
      </trkpt>
      <trkpt lat="54.383432054892182" lon="11.094626588746905">
        <ele>0</ele>
        <time>2010-01-03T06:51:39Z</time>
      </trkpt>
      <trkpt lat="54.383490309119225" lon="11.094681741669774">
        <ele>0</ele>
        <time>2010-01-03T06:51:42Z</time>
      </trkpt>
      <trkpt lat="54.383545964956284" lon="11.094736894592643">
        <ele>0</ele>
        <time>2010-01-03T06:51:45Z</time>
      </trkpt>
      <trkpt lat="54.383609667420387" lon="11.094813672825694">
        <ele>0</ele>
        <time>2010-01-03T06:51:48Z</time>
      </trkpt>
      <trkpt lat="54.383681248873472" lon="11.094913668930531">
        <ele>0</ele>
        <time>2010-01-03T06:51:51Z</time>
      </trkpt>
      <trkpt lat="54.383732797577977" lon="11.094982568174601">
        <ele>0</ele>
        <time>2010-01-03T06:51:54Z</time>
      </trkpt>
      <trkpt lat="54.383778227493167" lon="11.095008384436369">
        <ele>0</ele>
        <time>2010-01-03T06:51:56Z</time>
      </trkpt>
      <trkpt lat="54.38382038846612" lon="11.095018861815333">
        <ele>0</ele>
        <time>2010-01-03T06:51:58Z</time>
      </trkpt>
      <trkpt lat="54.383908566087484" lon="11.09499623067677">
        <ele>0</ele>
        <time>2010-01-03T06:52:01Z</time>
      </trkpt>
      <trkpt lat="54.384021470323205" lon="11.094965469092131">
        <ele>0</ele>
        <time>2010-01-03T06:52:06Z</time>
      </trkpt>
      <trkpt lat="54.384147366508842" lon="11.094952560961246">
        <ele>0</ele>
        <time>2010-01-03T06:52:11Z</time>
      </trkpt>
      <trkpt lat="54.384251218289137" lon="11.094959517940879">
        <ele>0</ele>
        <time>2010-01-03T06:52:15Z</time>
      </trkpt>
      <trkpt lat="54.384374264627695" lon="11.094981981441379">
        <ele>0</ele>
        <time>2010-01-03T06:52:20Z</time>
      </trkpt>
      <trkpt lat="54.384555732831359" lon="11.095018023625016">
        <ele>0</ele>
        <time>2010-01-03T06:52:27Z</time>
      </trkpt>
      <trkpt lat="54.384780870750546" lon="11.095086671411991">
        <ele>0</ele>
        <time>2010-01-03T06:52:36Z</time>
      </trkpt>
      <trkpt lat="54.384948341175914" lon="11.095156576484442">
        <ele>0</ele>
        <time>2010-01-03T06:52:43Z</time>
      </trkpt>
      <trkpt lat="54.386327583342791" lon="11.095683295279741">
        <ele>0</ele>
        <time>2010-01-03T06:53:40Z</time>
      </trkpt>
      <trkpt lat="54.386758748441935" lon="11.095876414328814">
        <ele>0</ele>
        <time>2010-01-03T06:53:58Z</time>
      </trkpt>
      <trkpt lat="54.386943569406867" lon="11.095958556979895">
        <ele>0</ele>
        <time>2010-01-03T06:54:05Z</time>
      </trkpt>
      <trkpt lat="54.387235008180141" lon="11.096084117889404">
        <ele>0</ele>
        <time>2010-01-03T06:54:17Z</time>
      </trkpt>
      <trkpt lat="54.387517059221864" lon="11.096191825345159">
        <ele>0</ele>
        <time>2010-01-03T06:54:29Z</time>
      </trkpt>
      <trkpt lat="54.387988205999136" lon="11.096336329355836">
        <ele>0</ele>
        <time>2010-01-03T06:54:48Z</time>
      </trkpt>
      <trkpt lat="54.388076802715659" lon="11.096364660188556">
        <ele>0</ele>
        <time>2010-01-03T06:54:52Z</time>
      </trkpt>
      <trkpt lat="54.388093566522002" lon="11.096388967707753">
        <ele>0</ele>
        <time>2010-01-03T06:54:53Z</time>
      </trkpt>
      <trkpt lat="54.388096164911985" lon="11.096428949385881">
        <ele>0</ele>
        <time>2010-01-03T06:54:54Z</time>
      </trkpt>
      <trkpt lat="54.388088956475258" lon="11.096549145877361">
        <ele>0</ele>
        <time>2010-01-03T06:54:56Z</time>
      </trkpt>
      <trkpt lat="54.387982171028852" lon="11.100292336195707">
        <ele>0</ele>
        <time>2010-01-03T06:56:24Z</time>
      </trkpt>
      <trkpt lat="54.387963647022843" lon="11.10125508159399">
        <ele>0</ele>
        <time>2010-01-03T06:56:46Z</time>
      </trkpt>
      <trkpt lat="54.387966496869922" lon="11.101565212011337">
        <ele>0</ele>
        <time>2010-01-03T06:56:53Z</time>
      </trkpt>
      <trkpt lat="54.38797714188695" lon="11.10178423114121">
        <ele>0</ele>
        <time>2010-01-03T06:56:59Z</time>
      </trkpt>
      <trkpt lat="54.387989463284612" lon="11.101902332156897">
        <ele>0</ele>
        <time>2010-01-03T06:57:01Z</time>
      </trkpt>
      <trkpt lat="54.388007735833526" lon="11.101976428180933">
        <ele>0</ele>
        <time>2010-01-03T06:57:03Z</time>
      </trkpt>
      <trkpt lat="54.388044783845544" lon="11.102066868916154">
        <ele>0</ele>
        <time>2010-01-03T06:57:06Z</time>
      </trkpt>
      <trkpt lat="54.388016201555729" lon="11.102283541113138">
        <ele>0</ele>
        <time>2010-01-03T06:57:11Z</time>
      </trkpt>
      <trkpt lat="54.388109995052218" lon="11.102391248568892">
        <ele>0</ele>
        <time>2010-01-03T06:57:15Z</time>
      </trkpt>
      <trkpt lat="54.388335132971406" lon="11.102627199143171">
        <ele>0</ele>
        <time>2010-01-03T06:57:26Z</time>
      </trkpt>
      <trkpt lat="54.388428339734674" lon="11.102723674848676">
        <ele>0</ele>
        <time>2010-01-03T06:57:30Z</time>
      </trkpt>
      <trkpt lat="54.388492461293936" lon="11.102790310978889">
        <ele>0</ele>
        <time>2010-01-03T06:57:33Z</time>
      </trkpt>
      <trkpt lat="54.388614669442177" lon="11.102916961535811">
        <ele>0</ele>
        <time>2010-01-03T06:57:39Z</time>
      </trkpt>
      <trkpt lat="54.388902420178056" lon="11.10321351327002">
        <ele>0</ele>
        <time>2010-01-03T06:57:53Z</time>
      </trkpt>
      <trkpt lat="54.389186650514603" lon="11.103491205722094">
        <ele>0</ele>
        <time>2010-01-03T06:58:06Z</time>
      </trkpt>
      <trkpt lat="54.389570457860827" lon="11.103868810459971">
        <ele>0</ele>
        <time>2010-01-03T06:58:23Z</time>
      </trkpt>
      <trkpt lat="54.389946302399039" lon="11.10420785844326">
        <ele>0</ele>
        <time>2010-01-03T06:58:40Z</time>
      </trkpt>
      <trkpt lat="54.390242351219058" lon="11.104466859251261">
        <ele>0</ele>
        <time>2010-01-03T06:58:54Z</time>
      </trkpt>
      <trkpt lat="54.390488611534238" lon="11.104670707136393">
        <ele>0</ele>
        <time>2010-01-03T06:59:05Z</time>
      </trkpt>
      <trkpt lat="54.390752809122205" lon="11.104895509779453">
        <ele>0</ele>
        <time>2010-01-03T06:59:16Z</time>
      </trkpt>
      <trkpt lat="54.391101831570268" lon="11.105191977694631">
        <ele>0</ele>
        <time>2010-01-03T06:59:32Z</time>
      </trkpt>
      <trkpt lat="54.391683787107468" lon="11.105673518031836">
        <ele>0</ele>
        <time>2010-01-03T06:59:58Z</time>
      </trkpt>
      <trkpt lat="54.392210505902767" lon="11.106092697009444">
        <ele>0</ele>
        <time>2010-01-03T07:00:21Z</time>
      </trkpt>
      <trkpt lat="54.392456766217947" lon="11.10628548078239">
        <ele>0</ele>
        <time>2010-01-03T07:00:32Z</time>
      </trkpt>
      <trkpt lat="54.392692716792226" lon="11.106456974521279">
        <ele>0</ele>
        <time>2010-01-03T07:00:42Z</time>
      </trkpt>
      <trkpt lat="54.392804028466344" lon="11.106537776067853">
        <ele>0</ele>
        <time>2010-01-03T07:00:47Z</time>
      </trkpt>
      <trkpt lat="54.39308675006032" lon="11.106741707772017">
        <ele>0</ele>
        <time>2010-01-03T07:00:59Z</time>
      </trkpt>
      <trkpt lat="54.393485309556127" lon="11.107005989179015">
        <ele>0</ele>
        <time>2010-01-03T07:01:16Z</time>
      </trkpt>
      <trkpt lat="54.393802229315042" lon="11.107223918661475">
        <ele>0</ele>
        <time>2010-01-03T07:01:30Z</time>
      </trkpt>
      <trkpt lat="54.396543195471168" lon="11.109036672860384">
        <ele>0</ele>
        <time>2010-01-03T07:03:28Z</time>
      </trkpt>
      <trkpt lat="54.396716533228755" lon="11.109146811068058">
        <ele>0</ele>
        <time>2010-01-03T07:03:35Z</time>
      </trkpt>
      <trkpt lat="54.396739080548286" lon="11.109160222113132">
        <ele>0</ele>
        <time>2010-01-03T07:03:36Z</time>
      </trkpt>
      <trkpt lat="54.396817618981004" lon="11.109210848808289">
        <ele>0</ele>
        <time>2010-01-03T07:03:39Z</time>
      </trkpt>
      <trkpt lat="54.404194699600339" lon="11.11402340233326">
        <ele>0</ele>
        <time>2010-01-03T07:08:55Z</time>
      </trkpt>
      <trkpt lat="54.404231747612357" lon="11.114047542214394">
        <ele>0</ele>
        <time>2010-01-03T07:08:57Z</time>
      </trkpt>
      <trkpt lat="54.404596444219351" lon="11.114286091178656">
        <ele>0</ele>
        <time>2010-01-03T07:09:12Z</time>
      </trkpt>
      <trkpt lat="54.404830550774932" lon="11.114438893273473">
        <ele>0</ele>
        <time>2010-01-03T07:09:22Z</time>
      </trkpt>
      <trkpt lat="54.407901093363762" lon="11.115851076319814">
        <ele>0</ele>
        <time>2010-01-03T07:11:30Z</time>
      </trkpt>
      <trkpt lat="54.40790100954473" lon="11.115851579234004">
        <ele>0</ele>
        <time>2010-01-03T07:11:30Z</time>
      </trkpt>
      <trkpt lat="54.408197645097971" lon="11.116056684404612">
        <ele>0</ele>
        <time>2010-01-03T07:11:42Z</time>
      </trkpt>
      <trkpt lat="54.408241733908653" lon="11.116066491231322">
        <ele>0</ele>
        <time>2010-01-03T07:11:44Z</time>
      </trkpt>
      <trkpt lat="54.408252462744713" lon="11.116058528423309">
        <ele>0</ele>
        <time>2010-01-03T07:11:45Z</time>
      </trkpt>
      <trkpt lat="54.408281045034528" lon="11.116036400198936">
        <ele>0</ele>
        <time>2010-01-03T07:11:46Z</time>
      </trkpt>
      <trkpt lat="54.408320104703307" lon="11.115961633622646">
        <ele>0</ele>
        <time>2010-01-03T07:11:48Z</time>
      </trkpt>
      <trkpt lat="54.40839939750731" lon="11.115748900920153">
        <ele>0</ele>
        <time>2010-01-03T07:11:54Z</time>
      </trkpt>
      <trkpt lat="54.409405896440148" lon="11.113213710486889">
        <ele>0</ele>
        <time>2010-01-03T07:13:06Z</time>
      </trkpt>
      <trkpt lat="54.409497929736972" lon="11.113022267818451">
        <ele>0</ele>
        <time>2010-01-03T07:13:11Z</time>
      </trkpt>
      <trkpt lat="54.409604631364346" lon="11.112870555371046">
        <ele>0</ele>
        <time>2010-01-03T07:13:17Z</time>
      </trkpt>
      <trkpt lat="54.409709740430117" lon="11.112748179584742">
        <ele>0</ele>
        <time>2010-01-03T07:13:22Z</time>
      </trkpt>
      <trkpt lat="54.409840162843466" lon="11.112652961164713">
        <ele>0</ele>
        <time>2010-01-03T07:13:28Z</time>
      </trkpt>
      <trkpt lat="54.409961951896548" lon="11.112591773271561">
        <ele>0</ele>
        <time>2010-01-03T07:13:33Z</time>
      </trkpt>
      <trkpt lat="54.410117939114571" lon="11.112551456317306">
        <ele>0</ele>
        <time>2010-01-03T07:13:39Z</time>
      </trkpt>
      <trkpt lat="54.410276105627418" lon="11.11256193369627">
        <ele>0</ele>
        <time>2010-01-03T07:13:45Z</time>
      </trkpt>
      <trkpt lat="54.410441899672151" lon="11.112619936466217">
        <ele>0</ele>
        <time>2010-01-03T07:13:52Z</time>
      </trkpt>
      <trkpt lat="54.410605179145932" lon="11.112719597294927">
        <ele>0</ele>
        <time>2010-01-03T07:13:59Z</time>
      </trkpt>
      <trkpt lat="54.410817408934236" lon="11.112870639190078">
        <ele>0</ele>
        <time>2010-01-03T07:14:08Z</time>
      </trkpt>
      <trkpt lat="54.410911872982979" lon="11.112940041348338">
        <ele>0</ele>
        <time>2010-01-03T07:14:12Z</time>
      </trkpt>
      <trkpt lat="54.412472248077393" lon="11.114087188616395">
        <ele>0</ele>
        <time>2010-01-03T07:15:20Z</time>
      </trkpt>
      <trkpt lat="54.414755813777447" lon="11.115784691646695">
        <ele>0</ele>
        <time>2010-01-03T07:17:00Z</time>
      </trkpt>
      <trkpt lat="54.415140710771084" lon="11.116079902276397">
        <ele>0</ele>
        <time>2010-01-03T07:17:17Z</time>
      </trkpt>
      <trkpt lat="54.415571708232164" lon="11.116411071270704">
        <ele>0</ele>
        <time>2010-01-03T07:17:36Z</time>
      </trkpt>
      <trkpt lat="54.415620574727654" lon="11.116460859775543">
        <ele>0</ele>
        <time>2010-01-03T07:17:38Z</time>
      </trkpt>
      <trkpt lat="54.415681343525648" lon="11.1165442597121">
        <ele>0</ele>
        <time>2010-01-03T07:17:41Z</time>
      </trkpt>
      <trkpt lat="54.415702046826482" lon="11.116581726819277">
        <ele>0</ele>
        <time>2010-01-03T07:17:42Z</time>
      </trkpt>
      <trkpt lat="54.415735993534327" lon="11.116643249988556">
        <ele>0</ele>
        <time>2010-01-03T07:17:44Z</time>
      </trkpt>
      <trkpt lat="54.415790727362037" lon="11.116754477843642">
        <ele>0</ele>
        <time>2010-01-03T07:17:48Z</time>
      </trkpt>
      <trkpt lat="54.415913019329309" lon="11.117012221366167">
        <ele>0</ele>
        <time>2010-01-03T07:17:56Z</time>
      </trkpt>
      <trkpt lat="54.41595752723515" lon="11.117085143923759">
        <ele>0</ele>
        <time>2010-01-03T07:17:58Z</time>
      </trkpt>
      <trkpt lat="54.416004633530974" lon="11.117131914943457">
        <ele>0</ele>
        <time>2010-01-03T07:18:00Z</time>
      </trkpt>
      <trkpt lat="54.416048806160688" lon="11.117157144472003">
        <ele>0</ele>
        <time>2010-01-03T07:18:02Z</time>
      </trkpt>
      <trkpt lat="54.416099265217781" lon="11.117180697619915">
        <ele>0</ele>
        <time>2010-01-03T07:18:04Z</time>
      </trkpt>
      <trkpt lat="54.416162213310599" lon="11.117188660427928">
        <ele>0</ele>
        <time>2010-01-03T07:18:07Z</time>
      </trkpt>
      <trkpt lat="54.416191130876541" lon="11.117192935198545">
        <ele>0</ele>
        <time>2010-01-03T07:18:08Z</time>
      </trkpt>
      <trkpt lat="54.416279140859842" lon="11.117206094786525">
        <ele>0</ele>
        <time>2010-01-03T07:18:11Z</time>
      </trkpt>
      <trkpt lat="54.416394308209419" lon="11.117231408134103">
        <ele>0</ele>
        <time>2010-01-03T07:18:16Z</time>
      </trkpt>
      <trkpt lat="54.416536632925272" lon="11.117282286286354">
        <ele>0</ele>
        <time>2010-01-03T07:18:22Z</time>
      </trkpt>
      <trkpt lat="54.416689099743962" lon="11.11736367456615">
        <ele>0</ele>
        <time>2010-01-03T07:18:28Z</time>
      </trkpt>
      <trkpt lat="54.416704690083861" lon="11.117372727021575">
        <ele>0</ele>
        <time>2010-01-03T07:18:29Z</time>
      </trkpt>
      <trkpt lat="54.416830753907561" lon="11.117445398122072">
        <ele>0</ele>
        <time>2010-01-03T07:18:34Z</time>
      </trkpt>
      <trkpt lat="54.416973330080509" lon="11.117531647905707">
        <ele>0</ele>
        <time>2010-01-03T07:18:40Z</time>
      </trkpt>
      <trkpt lat="54.418609980493784" lon="11.118485508486629">
        <ele>0</ele>
        <time>2010-01-03T07:19:49Z</time>
      </trkpt>
      <trkpt lat="54.418803099542856" lon="11.118604950606823">
        <ele>0</ele>
        <time>2010-01-03T07:19:58Z</time>
      </trkpt>
      <trkpt lat="54.418952381238341" lon="11.118716849014163">
        <ele>0</ele>
        <time>2010-01-03T07:20:04Z</time>
      </trkpt>
      <trkpt lat="54.419095544144511" lon="11.11884425394237">
        <ele>0</ele>
        <time>2010-01-03T07:20:11Z</time>
      </trkpt>
      <trkpt lat="54.419181793928146" lon="11.118927905336022">
        <ele>0</ele>
        <time>2010-01-03T07:20:15Z</time>
      </trkpt>
      <trkpt lat="54.419274916872382" lon="11.119043407961726">
        <ele>0</ele>
        <time>2010-01-03T07:20:19Z</time>
      </trkpt>
      <trkpt lat="54.41935932263732" lon="11.119163772091269">
        <ele>0</ele>
        <time>2010-01-03T07:20:24Z</time>
      </trkpt>
      <trkpt lat="54.419435597956181" lon="11.11913301050663">
        <ele>0</ele>
        <time>2010-01-03T07:20:27Z</time>
      </trkpt>
      <trkpt lat="54.419502904638648" lon="11.119131753221154">
        <ele>0</ele>
        <time>2010-01-03T07:20:29Z</time>
      </trkpt>
      <trkpt lat="54.419605499133468" lon="11.119145918637514">
        <ele>0</ele>
        <time>2010-01-03T07:20:33Z</time>
      </trkpt>
      <trkpt lat="54.42032634280622" lon="11.119282208383083">
        <ele>0</ele>
        <time>2010-01-03T07:21:03Z</time>
      </trkpt>
      <trkpt lat="54.421610115095973" lon="11.119527379050851">
        <ele>0</ele>
        <time>2010-01-03T07:21:54Z</time>
      </trkpt>
      <trkpt lat="54.421811532229185" lon="11.119543053209782">
        <ele>0</ele>
        <time>2010-01-03T07:22:02Z</time>
      </trkpt>
      <trkpt lat="54.421865427866578" lon="11.11954347230494">
        <ele>0</ele>
        <time>2010-01-03T07:22:04Z</time>
      </trkpt>
      <trkpt lat="54.42194270901382" lon="11.119544897228479">
        <ele>0</ele>
        <time>2010-01-03T07:22:08Z</time>
      </trkpt>
      <trkpt lat="54.422551319003105" lon="11.119479518383741">
        <ele>0</ele>
        <time>2010-01-03T07:22:32Z</time>
      </trkpt>
      <trkpt lat="54.423524457961321" lon="11.119380025193095">
        <ele>0</ele>
        <time>2010-01-03T07:23:11Z</time>
      </trkpt>
      <trkpt lat="54.424159051850438" lon="11.119295619428158">
        <ele>0</ele>
        <time>2010-01-03T07:23:36Z</time>
      </trkpt>
      <trkpt lat="54.42461209371686" lon="11.119211968034506">
        <ele>0</ele>
        <time>2010-01-03T07:23:55Z</time>
      </trkpt>
      <trkpt lat="54.424934964627028" lon="11.119137201458216">
        <ele>0</ele>
        <time>2010-01-03T07:24:08Z</time>
      </trkpt>
      <trkpt lat="54.426006339490414" lon="11.118827657774091">
        <ele>0</ele>
        <time>2010-01-03T07:24:51Z</time>
      </trkpt>
      <trkpt lat="54.425766197964549" lon="11.112158177420497">
        <ele>0</ele>
        <time>2010-01-03T07:27:27Z</time>
      </trkpt>
      <trkpt lat="54.425764605402946" lon="11.112068826332688">
        <ele>0</ele>
        <time>2010-01-03T07:27:29Z</time>
      </trkpt>
      <trkpt lat="54.425762007012963" lon="11.111956425011158">
        <ele>0</ele>
        <time>2010-01-03T07:27:32Z</time>
      </trkpt>
      <trkpt lat="54.425740130245686" lon="11.111665656790137">
        <ele>0</ele>
        <time>2010-01-03T07:27:38Z</time>
      </trkpt>
      <trkpt lat="54.425717582926154" lon="11.111419647932053">
        <ele>0</ele>
        <time>2010-01-03T07:27:44Z</time>
      </trkpt>
      <trkpt lat="54.425684725865722" lon="11.111101387068629">
        <ele>0</ele>
        <time>2010-01-03T07:27:52Z</time>
      </trkpt>
      <trkpt lat="54.425652120262384" lon="11.110824784263968">
        <ele>0</ele>
        <time>2010-01-03T07:27:58Z</time>
      </trkpt>
      <trkpt lat="54.425649354234338" lon="11.110807852819562">
        <ele>0</ele>
        <time>2010-01-03T07:27:59Z</time>
      </trkpt>
      <trkpt lat="54.425618341192603" lon="11.11062060110271">
        <ele>0</ele>
        <time>2010-01-03T07:28:03Z</time>
      </trkpt>
      <trkpt lat="54.425582969561219" lon="11.110451873391867">
        <ele>0</ele>
        <time>2010-01-03T07:28:07Z</time>
      </trkpt>
      <trkpt lat="54.425535025075078" lon="11.11029420979321">
        <ele>0</ele>
        <time>2010-01-03T07:28:12Z</time>
      </trkpt>
      <trkpt lat="54.425483644008636" lon="11.110144341364503">
        <ele>0</ele>
        <time>2010-01-03T07:28:16Z</time>
      </trkpt>
      <trkpt lat="54.425449529662728" lon="11.110029509291053">
        <ele>0</ele>
        <time>2010-01-03T07:28:19Z</time>
      </trkpt>
      <trkpt lat="54.425420863553882" lon="11.109913000836968">
        <ele>0</ele>
        <time>2010-01-03T07:28:22Z</time>
      </trkpt>
      <trkpt lat="54.425415080040693" lon="11.109886933118105">
        <ele>0</ele>
        <time>2010-01-03T07:28:22Z</time>
      </trkpt>
      <trkpt lat="54.425398567691445" lon="11.109811831265688">
        <ele>0</ele>
        <time>2010-01-03T07:28:24Z</time>
      </trkpt>
      <trkpt lat="54.42539144307375" lon="11.109697921201587">
        <ele>0</ele>
        <time>2010-01-03T07:28:27Z</time>
      </trkpt>
      <trkpt lat="54.42538850940764" lon="11.109551656991243">
        <ele>0</ele>
        <time>2010-01-03T07:28:30Z</time>
      </trkpt>
      <trkpt lat="54.425400076434016" lon="11.109415786340833">
        <ele>0</ele>
        <time>2010-01-03T07:28:33Z</time>
      </trkpt>
      <trkpt lat="54.425421869382262" lon="11.109316712245345">
        <ele>0</ele>
        <time>2010-01-03T07:28:36Z</time>
      </trkpt>
      <trkpt lat="54.42544617690146" lon="11.109209842979908">
        <ele>0</ele>
        <time>2010-01-03T07:28:38Z</time>
      </trkpt>
      <trkpt lat="54.425461012870073" lon="11.109165837988257">
        <ele>0</ele>
        <time>2010-01-03T07:28:40Z</time>
      </trkpt>
      <trkpt lat="54.425474340096116" lon="11.109126107767224">
        <ele>0</ele>
        <time>2010-01-03T07:28:41Z</time>
      </trkpt>
      <trkpt lat="54.425492864102125" lon="11.109077911823988">
        <ele>0</ele>
        <time>2010-01-03T07:28:42Z</time>
      </trkpt>
      <trkpt lat="54.425525553524494" lon="11.109007839113474">
        <ele>0</ele>
        <time>2010-01-03T07:28:44Z</time>
      </trkpt>
      <trkpt lat="54.425608953461051" lon="11.108984453603625">
        <ele>0</ele>
        <time>2010-01-03T07:28:48Z</time>
      </trkpt>
      <trkpt lat="54.425687910988927" lon="11.108967354521155">
        <ele>0</ele>
        <time>2010-01-03T07:28:51Z</time>
      </trkpt>
      <trkpt lat="54.425808191299438" lon="11.108955536037683">
        <ele>0</ele>
        <time>2010-01-03T07:28:56Z</time>
      </trkpt>
      <trkpt lat="54.426220413297415" lon="11.108937347307801">
        <ele>0</ele>
        <time>2010-01-03T07:29:12Z</time>
      </trkpt>
      <trkpt lat="54.426672365516424" lon="11.108945980668068">
        <ele>0</ele>
        <time>2010-01-03T07:29:30Z</time>
      </trkpt>
      <trkpt lat="54.427110068500042" lon="11.1089719645679">
        <ele>0</ele>
        <time>2010-01-03T07:29:48Z</time>
      </trkpt>
      <trkpt lat="54.427312407642603" lon="11.108992248773575">
        <ele>0</ele>
        <time>2010-01-03T07:29:56Z</time>
      </trkpt>
      <trkpt lat="54.427434615790844" lon="11.109003480523825">
        <ele>0</ele>
        <time>2010-01-03T07:30:01Z</time>
      </trkpt>
      <trkpt lat="54.427564116194844" lon="11.109020663425326">
        <ele>0</ele>
        <time>2010-01-03T07:30:06Z</time>
      </trkpt>
      <trkpt lat="54.427723372355103" lon="11.109043378382921">
        <ele>0</ele>
        <time>2010-01-03T07:30:12Z</time>
      </trkpt>
      <trkpt lat="54.427864607423544" lon="11.109072715044022">
        <ele>0</ele>
        <time>2010-01-03T07:30:18Z</time>
      </trkpt>
      <trkpt lat="54.428235590457916" lon="11.109181763604283">
        <ele>0</ele>
        <time>2010-01-03T07:30:33Z</time>
      </trkpt>
      <trkpt lat="54.428460644558072" lon="11.109244711697102">
        <ele>0</ele>
        <time>2010-01-03T07:30:42Z</time>
      </trkpt>
      <trkpt lat="54.428552510216832" lon="11.109279664233327">
        <ele>0</ele>
        <time>2010-01-03T07:30:46Z</time>
      </trkpt>
      <trkpt lat="54.428602969273925" lon="11.109300199896097">
        <ele>0</ele>
        <time>2010-01-03T07:30:48Z</time>
      </trkpt>
      <trkpt lat="54.428636580705643" lon="11.109351832419634">
        <ele>0</ele>
        <time>2010-01-03T07:30:50Z</time>
      </trkpt>
      <trkpt lat="54.42866139113903" lon="11.109425257891417">
        <ele>0</ele>
        <time>2010-01-03T07:30:52Z</time>
      </trkpt>
      <trkpt lat="54.428677232936025" lon="11.10950505360961">
        <ele>0</ele>
        <time>2010-01-03T07:30:54Z</time>
      </trkpt>
      <trkpt lat="54.42868335172534" lon="11.109601948410273">
        <ele>0</ele>
        <time>2010-01-03T07:30:56Z</time>
      </trkpt>
      <trkpt lat="54.428662145510316" lon="11.11014174297452">
        <ele>0</ele>
        <time>2010-01-03T07:31:09Z</time>
      </trkpt>
      <trkpt lat="54.428653931245208" lon="11.110360762104392">
        <ele>0</ele>
        <time>2010-01-03T07:31:14Z</time>
      </trkpt>
      <trkpt lat="54.428643537685275" lon="11.110659912228584">
        <ele>0</ele>
        <time>2010-01-03T07:31:21Z</time>
      </trkpt>
      <trkpt lat="54.42864328622818" lon="11.110690841451287">
        <ele>0</ele>
        <time>2010-01-03T07:31:21Z</time>
      </trkpt>
      <trkpt lat="54.428641609847546" lon="11.110884882509708">
        <ele>0</ele>
        <time>2010-01-03T07:31:26Z</time>
      </trkpt>
      <trkpt lat="54.428644375875592" lon="11.111015807837248">
        <ele>0</ele>
        <time>2010-01-03T07:31:29Z</time>
      </trkpt>
      <trkpt lat="54.4286457169801" lon="11.111085126176476">
        <ele>0</ele>
        <time>2010-01-03T07:31:31Z</time>
      </trkpt>
      <trkpt lat="54.428667677566409" lon="11.111257206648588">
        <ele>0</ele>
        <time>2010-01-03T07:31:35Z</time>
      </trkpt>
      <trkpt lat="54.428708245977759" lon="11.111398106440902">
        <ele>0</ele>
        <time>2010-01-03T07:31:38Z</time>
      </trkpt>
      <trkpt lat="54.428751328960061" lon="11.111511178314686">
        <ele>0</ele>
        <time>2010-01-03T07:31:42Z</time>
      </trkpt>
      <trkpt lat="54.428813271224499" lon="11.111627016216516">
        <ele>0</ele>
        <time>2010-01-03T07:31:45Z</time>
      </trkpt>
      <trkpt lat="54.428887702524662" lon="11.111731706187129">
        <ele>0</ele>
        <time>2010-01-03T07:31:49Z</time>
      </trkpt>
      <trkpt lat="54.429000774398446" lon="11.111834049224854">
        <ele>0</ele>
        <time>2010-01-03T07:31:54Z</time>
      </trkpt>
      <trkpt lat="54.429175117984414" lon="11.111967405304313">
        <ele>0</ele>
        <time>2010-01-03T07:32:02Z</time>
      </trkpt>
      <trkpt lat="54.429578119888902" lon="11.112283822149038">
        <ele>0</ele>
        <time>2010-01-03T07:32:20Z</time>
      </trkpt>
      <trkpt lat="54.430336011573672" lon="11.112877847626805">
        <ele>0</ele>
        <time>2010-01-03T07:32:53Z</time>
      </trkpt>
      <trkpt lat="54.430345315486193" lon="11.112885139882565">
        <ele>0</ele>
        <time>2010-01-03T07:32:53Z</time>
      </trkpt>
      <trkpt lat="54.430374233052135" lon="11.112915398553014">
        <ele>0</ele>
        <time>2010-01-03T07:32:55Z</time>
      </trkpt>
      <trkpt lat="54.430393343791366" lon="11.112948842346668">
        <ele>0</ele>
        <time>2010-01-03T07:32:56Z</time>
      </trkpt>
      <trkpt lat="54.430400803685188" lon="11.11298262141645">
        <ele>0</ele>
        <time>2010-01-03T07:32:57Z</time>
      </trkpt>
      <trkpt lat="54.430410275235772" lon="11.113045569509268">
        <ele>0</ele>
        <time>2010-01-03T07:32:58Z</time>
      </trkpt>
      <trkpt lat="54.430581098422408" lon="11.11650905571878">
        <ele>0</ele>
        <time>2010-01-03T07:34:19Z</time>
      </trkpt>
      <trkpt lat="54.430612111464143" lon="11.116500254720449">
        <ele>0</ele>
        <time>2010-01-03T07:34:20Z</time>
      </trkpt>
      <trkpt lat="54.430744294077158" lon="11.116462368518114">
        <ele>0</ele>
        <time>2010-01-03T07:34:26Z</time>
      </trkpt>
      <trkpt lat="54.431386515498161" lon="11.116322223097086">
        <ele>0</ele>
        <time>2010-01-03T07:34:52Z</time>
      </trkpt>
      <trkpt lat="54.432725608348846" lon="11.11601603217423">
        <ele>0</ele>
        <time>2010-01-03T07:35:46Z</time>
      </trkpt>
      <trkpt lat="54.433379480615258" lon="11.115874042734504">
        <ele>0</ele>
        <time>2010-01-03T07:36:12Z</time>
      </trkpt>
      <trkpt lat="54.434140054509044" lon="11.115700537338853">
        <ele>0</ele>
        <time>2010-01-03T07:36:43Z</time>
      </trkpt>
      <trkpt lat="54.434511624276638" lon="11.115640103816986">
        <ele>0</ele>
        <time>2010-01-03T07:36:58Z</time>
      </trkpt>
      <trkpt lat="54.434578008949757" lon="11.115630967542529">
        <ele>0</ele>
        <time>2010-01-03T07:37:00Z</time>
      </trkpt>
      <trkpt lat="54.434629222378135" lon="11.115631386637688">
        <ele>0</ele>
        <time>2010-01-03T07:37:02Z</time>
      </trkpt>
      <trkpt lat="54.434670628979802" lon="11.115642869845033">
        <ele>0</ele>
        <time>2010-01-03T07:37:04Z</time>
      </trkpt>
      <trkpt lat="54.434723937883973" lon="11.115687964484096">
        <ele>0</ele>
        <time>2010-01-03T07:37:06Z</time>
      </trkpt>
      <trkpt lat="54.434776492416859" lon="11.115748481824994">
        <ele>0</ele>
        <time>2010-01-03T07:37:09Z</time>
      </trkpt>
      <trkpt lat="54.435376636683941" lon="11.116849780082703">
        <ele>0</ele>
        <time>2010-01-03T07:37:44Z</time>
      </trkpt>
      <trkpt lat="54.435434807091951" lon="11.116948686540127">
        <ele>0</ele>
        <time>2010-01-03T07:37:47Z</time>
      </trkpt>
      <trkpt lat="54.435474704951048" lon="11.116995625197887">
        <ele>0</ele>
        <time>2010-01-03T07:37:49Z</time>
      </trkpt>
      <trkpt lat="54.435507142916322" lon="11.11701188609004">
        <ele>0</ele>
        <time>2010-01-03T07:37:51Z</time>
      </trkpt>
      <trkpt lat="54.435550393536687" lon="11.117021692916751">
        <ele>0</ele>
        <time>2010-01-03T07:37:52Z</time>
      </trkpt>
      <trkpt lat="54.435613173991442" lon="11.117011131718755">
        <ele>0</ele>
        <time>2010-01-03T07:37:55Z</time>
      </trkpt>
      <trkpt lat="54.436586229130626" lon="11.116779120638967">
        <ele>0</ele>
        <time>2010-01-03T07:38:34Z</time>
      </trkpt>
      <trkpt lat="54.436982609331608" lon="11.11667962744832">
        <ele>0</ele>
        <time>2010-01-03T07:38:50Z</time>
      </trkpt>
      <trkpt lat="54.437401117756963" lon="11.116539649665356">
        <ele>0</ele>
        <time>2010-01-03T07:39:07Z</time>
      </trkpt>
      <trkpt lat="54.438054822385311" lon="11.116316858679056">
        <ele>0</ele>
        <time>2010-01-03T07:39:34Z</time>
      </trkpt>
      <trkpt lat="54.438556646928191" lon="11.118772756308317">
        <ele>0</ele>
        <time>2010-01-03T07:40:35Z</time>
      </trkpt>
      <trkpt lat="54.43870659917593" lon="11.119510866701603">
        <ele>0</ele>
        <time>2010-01-03T07:40:53Z</time>
      </trkpt>
      <trkpt lat="54.4387495983392" lon="11.119739608839154">
        <ele>0</ele>
        <time>2010-01-03T07:40:58Z</time>
      </trkpt>
      <trkpt lat="54.438790921121836" lon="11.119977571070194">
        <ele>0</ele>
        <time>2010-01-03T07:41:04Z</time>
      </trkpt>
      <trkpt lat="54.438839536160231" lon="11.12036339007318">
        <ele>0</ele>
        <time>2010-01-03T07:41:13Z</time>
      </trkpt>
      <trkpt lat="54.438890246674418" lon="11.120790783315897">
        <ele>0</ele>
        <time>2010-01-03T07:41:24Z</time>
      </trkpt>
      <trkpt lat="54.438922684639692" lon="11.121055232360959">
        <ele>0</ele>
        <time>2010-01-03T07:41:30Z</time>
      </trkpt>
      <trkpt lat="54.438942214474082" lon="11.121264360845089">
        <ele>0</ele>
        <time>2010-01-03T07:41:35Z</time>
      </trkpt>
      <trkpt lat="54.438955374062061" lon="11.121470639482141">
        <ele>0</ele>
        <time>2010-01-03T07:41:40Z</time>
      </trkpt>
      <trkpt lat="54.438962414860725" lon="11.121701644733548">
        <ele>0</ele>
        <time>2010-01-03T07:41:45Z</time>
      </trkpt>
      <trkpt lat="54.438956882804632" lon="11.121925273910165">
        <ele>0</ele>
        <time>2010-01-03T07:41:50Z</time>
      </trkpt>
      <trkpt lat="54.438931653276086" lon="11.122288042679429">
        <ele>0</ele>
        <time>2010-01-03T07:41:59Z</time>
      </trkpt>
      <trkpt lat="54.438925785943866" lon="11.122343614697456">
        <ele>0</ele>
        <time>2010-01-03T07:42:00Z</time>
      </trkpt>
      <trkpt lat="54.438923439010978" lon="11.122397594153881">
        <ele>0</ele>
        <time>2010-01-03T07:42:01Z</time>
      </trkpt>
      <trkpt lat="54.438921259716153" lon="11.122459368780255">
        <ele>0</ele>
        <time>2010-01-03T07:42:03Z</time>
      </trkpt>
      <trkpt lat="54.438928049057722" lon="11.122530112043023">
        <ele>0</ele>
        <time>2010-01-03T07:42:04Z</time>
      </trkpt>
      <trkpt lat="54.438942801207304" lon="11.122583672404289">
        <ele>0</ele>
        <time>2010-01-03T07:42:06Z</time>
      </trkpt>
      <trkpt lat="54.438964761793613" lon="11.122638741508126">
        <ele>0</ele>
        <time>2010-01-03T07:42:07Z</time>
      </trkpt>
      <trkpt lat="54.438993008807302" lon="11.1226936429739">
        <ele>0</ele>
        <time>2010-01-03T07:42:09Z</time>
      </trkpt>
      <trkpt lat="54.439025698229671" lon="11.122746868059039">
        <ele>0</ele>
        <time>2010-01-03T07:42:11Z</time>
      </trkpt>
      <trkpt lat="54.439055621623993" lon="11.122784754261374">
        <ele>0</ele>
        <time>2010-01-03T07:42:12Z</time>
      </trkpt>
      <trkpt lat="54.439122760668397" lon="11.1228680703789">
        <ele>0</ele>
        <time>2010-01-03T07:42:16Z</time>
      </trkpt>
      <trkpt lat="54.439219739288092" lon="11.122993966564536">
        <ele>0</ele>
        <time>2010-01-03T07:42:21Z</time>
      </trkpt>
      <trkpt lat="54.439323842525482" lon="11.123098069801927">
        <ele>0</ele>
        <time>2010-01-03T07:42:25Z</time>
      </trkpt>
      <trkpt lat="54.439435070380569" lon="11.123195886611938">
        <ele>0</ele>
        <time>2010-01-03T07:42:30Z</time>
      </trkpt>
      <trkpt lat="54.439442278817296" lon="11.123201921582222">
        <ele>0</ele>
        <time>2010-01-03T07:42:31Z</time>
      </trkpt>
      <trkpt lat="54.439546298235655" lon="11.12329370342195">
        <ele>0</ele>
        <time>2010-01-03T07:42:35Z</time>
      </trkpt>
      <trkpt lat="54.439684431999922" lon="11.123394034802914">
        <ele>0</ele>
        <time>2010-01-03T07:42:41Z</time>
      </trkpt>
      <trkpt lat="54.439912084490061" lon="11.123567959293723">
        <ele>0</ele>
        <time>2010-01-03T07:42:51Z</time>
      </trkpt>
      <trkpt lat="54.439943768084049" lon="11.123593440279365">
        <ele>0</ele>
        <time>2010-01-03T07:42:53Z</time>
      </trkpt>
      <trkpt lat="54.440280804410577" lon="11.123866774141788">
        <ele>0</ele>
        <time>2010-01-03T07:43:08Z</time>
      </trkpt>
      <trkpt lat="54.440371161326766" lon="11.123932655900717">
        <ele>0</ele>
        <time>2010-01-03T07:43:12Z</time>
      </trkpt>
      <trkpt lat="54.440383818000555" lon="11.123941708356142">
        <ele>0</ele>
        <time>2010-01-03T07:43:12Z</time>
      </trkpt>
      <trkpt lat="54.440458752214909" lon="11.123994011431932">
        <ele>0</ele>
        <time>2010-01-03T07:43:15Z</time>
      </trkpt>
      <trkpt lat="54.440537123009562" lon="11.124027790501714">
        <ele>0</ele>
        <time>2010-01-03T07:43:19Z</time>
      </trkpt>
      <trkpt lat="54.440608285367489" lon="11.124046314507723">
        <ele>0</ele>
        <time>2010-01-03T07:43:21Z</time>
      </trkpt>
      <trkpt lat="54.440679280087352" lon="11.124055618420243">
        <ele>0</ele>
        <time>2010-01-03T07:43:24Z</time>
      </trkpt>
      <trkpt lat="54.440732505172491" lon="11.124060731381178">
        <ele>0</ele>
        <time>2010-01-03T07:43:26Z</time>
      </trkpt>
      <trkpt lat="54.440873488783836" lon="11.124074561521411">
        <ele>0</ele>
        <time>2010-01-03T07:43:32Z</time>
      </trkpt>
      <trkpt lat="54.441015478223562" lon="11.124080764129758">
        <ele>0</ele>
        <time>2010-01-03T07:43:38Z</time>
      </trkpt>
      <trkpt lat="54.441185127943754" lon="11.124061737209558">
        <ele>0</ele>
        <time>2010-01-03T07:43:45Z</time>
      </trkpt>
      <trkpt lat="54.441215638071299" lon="11.124059557914734">
        <ele>0</ele>
        <time>2010-01-03T07:43:46Z</time>
      </trkpt>
      <trkpt lat="54.441242627799511" lon="11.124057462438941">
        <ele>0</ele>
        <time>2010-01-03T07:43:47Z</time>
      </trkpt>
      <trkpt lat="54.441339606419206" lon="11.124049248173833">
        <ele>0</ele>
        <time>2010-01-03T07:43:51Z</time>
      </trkpt>
      <trkpt lat="54.44145368412137" lon="11.124046817421913">
        <ele>0</ele>
        <time>2010-01-03T07:43:55Z</time>
      </trkpt>
      <trkpt lat="54.441560637205839" lon="11.124055283144116">
        <ele>0</ele>
        <time>2010-01-03T07:44:00Z</time>
      </trkpt>
      <trkpt lat="54.441610090434551" lon="11.124065006151795">
        <ele>0</ele>
        <time>2010-01-03T07:44:02Z</time>
      </trkpt>
      <trkpt lat="54.44166767410934" lon="11.124079171568155">
        <ele>0</ele>
        <time>2010-01-03T07:44:04Z</time>
      </trkpt>
      <trkpt lat="54.441720899194479" lon="11.124102724716067">
        <ele>0</ele>
        <time>2010-01-03T07:44:06Z</time>
      </trkpt>
      <trkpt lat="54.441780410706997" lon="11.124135414138436">
        <ele>0</ele>
        <time>2010-01-03T07:44:09Z</time>
      </trkpt>
      <trkpt lat="54.441828271374106" lon="11.124171372503042">
        <ele>0</ele>
        <time>2010-01-03T07:44:11Z</time>
      </trkpt>
      <trkpt lat="54.441870851442218" lon="11.124213617295027">
        <ele>0</ele>
        <time>2010-01-03T07:44:13Z</time>
      </trkpt>
      <trkpt lat="54.441906223073602" lon="11.124265249818563">
        <ele>0</ele>
        <time>2010-01-03T07:44:15Z</time>
      </trkpt>
      <trkpt lat="54.441924495622516" lon="11.124309590086341">
        <ele>0</ele>
        <time>2010-01-03T07:44:16Z</time>
      </trkpt>
      <trkpt lat="54.441960202530026" lon="11.124396678060293">
        <ele>0</ele>
        <time>2010-01-03T07:44:18Z</time>
      </trkpt>
      <trkpt lat="54.441990461200476" lon="11.124483849853277">
        <ele>0</ele>
        <time>2010-01-03T07:44:21Z</time>
      </trkpt>
      <trkpt lat="54.442036226391792" lon="11.124604633077979">
        <ele>0</ele>
        <time>2010-01-03T07:44:24Z</time>
      </trkpt>
      <trkpt lat="54.442079141736031" lon="11.124699348583817">
        <ele>0</ele>
        <time>2010-01-03T07:44:27Z</time>
      </trkpt>
      <trkpt lat="54.442118369042873" lon="11.124781742691994">
        <ele>0</ele>
        <time>2010-01-03T07:44:29Z</time>
      </trkpt>
      <trkpt lat="54.442163882777095" lon="11.124859359115362">
        <ele>0</ele>
        <time>2010-01-03T07:44:32Z</time>
      </trkpt>
      <trkpt lat="54.442188441753387" lon="11.124897412955761">
        <ele>0</ele>
        <time>2010-01-03T07:44:33Z</time>
      </trkpt>
      <trkpt lat="54.44220663048327" lon="11.124926246702671">
        <ele>0</ele>
        <time>2010-01-03T07:44:34Z</time>
      </trkpt>
      <trkpt lat="54.442232949659228" lon="11.124968910589814">
        <ele>0</ele>
        <time>2010-01-03T07:44:36Z</time>
      </trkpt>
      <trkpt lat="54.442255664616823" lon="11.12500537186861">
        <ele>0</ele>
        <time>2010-01-03T07:44:37Z</time>
      </trkpt>
      <trkpt lat="54.442292209714651" lon="11.125087849795818">
        <ele>0</ele>
        <time>2010-01-03T07:44:39Z</time>
      </trkpt>
      <trkpt lat="54.442319786176085" lon="11.125172004103661">
        <ele>0</ele>
        <time>2010-01-03T07:44:42Z</time>
      </trkpt>
      <trkpt lat="54.442337388172746" lon="11.125247189775109">
        <ele>0</ele>
        <time>2010-01-03T07:44:43Z</time>
      </trkpt>
      <trkpt lat="54.44234786555171" lon="11.125327069312334">
        <ele>0</ele>
        <time>2010-01-03T07:44:45Z</time>
      </trkpt>
      <trkpt lat="54.442342333495617" lon="11.125432010740042">
        <ele>0</ele>
        <time>2010-01-03T07:44:48Z</time>
      </trkpt>
      <trkpt lat="54.442329509183764" lon="11.125526390969753">
        <ele>0</ele>
        <time>2010-01-03T07:44:50Z</time>
      </trkpt>
      <trkpt lat="54.442312577739358" lon="11.125668548047543">
        <ele>0</ele>
        <time>2010-01-03T07:44:53Z</time>
      </trkpt>
      <trkpt lat="54.442298328503966" lon="11.125813722610474">
        <ele>0</ele>
        <time>2010-01-03T07:44:57Z</time>
      </trkpt>
      <trkpt lat="54.442294975742698" lon="11.125964848324656">
        <ele>0</ele>
        <time>2010-01-03T07:45:00Z</time>
      </trkpt>
      <trkpt lat="54.442294389009476" lon="11.126011116430163">
        <ele>0</ele>
        <time>2010-01-03T07:45:01Z</time>
      </trkpt>
      <trkpt lat="54.442293467000127" lon="11.126126702874899">
        <ele>0</ele>
        <time>2010-01-03T07:45:04Z</time>
      </trkpt>
      <trkpt lat="54.442299418151379" lon="11.12632853910327">
        <ele>0</ele>
        <time>2010-01-03T07:45:09Z</time>
      </trkpt>
      <trkpt lat="54.44230972789228" lon="11.126519395038486">
        <ele>0</ele>
        <time>2010-01-03T07:45:13Z</time>
      </trkpt>
      <trkpt lat="54.442319618538022" lon="11.12664713524282">
        <ele>0</ele>
        <time>2010-01-03T07:45:16Z</time>
      </trkpt>
      <trkpt lat="54.442335711792111" lon="11.126757776364684">
        <ele>0</ele>
        <time>2010-01-03T07:45:19Z</time>
      </trkpt>
      <trkpt lat="54.44234786555171" lon="11.126823825761676">
        <ele>0</ele>
        <time>2010-01-03T07:45:21Z</time>
      </trkpt>
      <trkpt lat="54.442369155585766" lon="11.126912757754326">
        <ele>0</ele>
        <time>2010-01-03T07:45:23Z</time>
      </trkpt>
      <trkpt lat="54.442597897723317" lon="11.127487504854798">
        <ele>0</ele>
        <time>2010-01-03T07:45:39Z</time>
      </trkpt>
      <trkpt lat="54.442798476666212" lon="11.128008859232068">
        <ele>0</ele>
        <time>2010-01-03T07:45:54Z</time>
      </trkpt>
      <trkpt lat="54.443086814135313" lon="11.128753423690796">
        <ele>0</ele>
        <time>2010-01-03T07:46:14Z</time>
      </trkpt>
      <trkpt lat="54.443291919305921" lon="11.12929011695087">
        <ele>0</ele>
        <time>2010-01-03T07:46:29Z</time>
      </trkpt>
      <trkpt lat="54.443485122174025" lon="11.129794623702765">
        <ele>0</ele>
        <time>2010-01-03T07:46:43Z</time>
      </trkpt>
      <trkpt lat="54.443641193211079" lon="11.130256885662675">
        <ele>0</ele>
        <time>2010-01-03T07:46:56Z</time>
      </trkpt>
      <trkpt lat="54.443838754668832" lon="11.130876978859305">
        <ele>0</ele>
        <time>2010-01-03T07:47:12Z</time>
      </trkpt>
      <trkpt lat="54.443992311134934" lon="11.13136388361454">
        <ele>0</ele>
        <time>2010-01-03T07:47:25Z</time>
      </trkpt>
      <trkpt lat="54.444207642227411" lon="11.132073076441884">
        <ele>0</ele>
        <time>2010-01-03T07:47:44Z</time>
      </trkpt>
      <trkpt lat="54.444490196183324" lon="11.132885618135333">
        <ele>0</ele>
        <time>2010-01-03T07:48:06Z</time>
      </trkpt>
      <trkpt lat="54.444567142054439" lon="11.133096674457192">
        <ele>0</ele>
        <time>2010-01-03T07:48:12Z</time>
      </trkpt>
      <trkpt lat="54.444611314684153" lon="11.133240675553679">
        <ele>0</ele>
        <time>2010-01-03T07:48:15Z</time>
      </trkpt>
      <trkpt lat="54.444631515070796" lon="11.133306557312608">
        <ele>0</ele>
        <time>2010-01-03T07:48:17Z</time>
      </trkpt>
      <trkpt lat="54.444669401273131" lon="11.133449133485556">
        <ele>0</ele>
        <time>2010-01-03T07:48:21Z</time>
      </trkpt>
      <trkpt lat="54.444701839238405" lon="11.133593302220106">
        <ele>0</ele>
        <time>2010-01-03T07:48:24Z</time>
      </trkpt>
      <trkpt lat="54.444725140929222" lon="11.13370687700808">
        <ele>0</ele>
        <time>2010-01-03T07:48:27Z</time>
      </trkpt>
      <trkpt lat="54.444734696298838" lon="11.133791450411081">
        <ele>0</ele>
        <time>2010-01-03T07:48:29Z</time>
      </trkpt>
      <trkpt lat="54.444737294688821" lon="11.13390083424747">
        <ele>0</ele>
        <time>2010-01-03T07:48:32Z</time>
      </trkpt>
      <trkpt lat="54.444731092080474" lon="11.134411208331585">
        <ele>0</ele>
        <time>2010-01-03T07:48:44Z</time>
      </trkpt>
      <trkpt lat="54.444731594994664" lon="11.134477509185672">
        <ele>0</ele>
        <time>2010-01-03T07:48:45Z</time>
      </trkpt>
      <trkpt lat="54.444735618308187" lon="11.13453752361238">
        <ele>0</ele>
        <time>2010-01-03T07:48:47Z</time>
      </trkpt>
      <trkpt lat="54.444753136485815" lon="11.134604997932911">
        <ele>0</ele>
        <time>2010-01-03T07:48:48Z</time>
      </trkpt>
      <trkpt lat="54.444771409034729" lon="11.134644644334912">
        <ele>0</ele>
        <time>2010-01-03T07:48:50Z</time>
      </trkpt>
      <trkpt lat="54.444799488410354" lon="11.134674903005362">
        <ele>0</ele>
        <time>2010-01-03T07:48:51Z</time>
      </trkpt>
      <trkpt lat="54.444949943572283" lon="11.134739611297846">
        <ele>0</ele>
        <time>2010-01-03T07:48:57Z</time>
      </trkpt>
      <trkpt lat="54.445453276857734" lon="11.134898532181978">
        <ele>0</ele>
        <time>2010-01-03T07:49:18Z</time>
      </trkpt>
      <trkpt lat="54.446184262633324" lon="11.135102044790983">
        <ele>0</ele>
        <time>2010-01-03T07:49:47Z</time>
      </trkpt>
      <trkpt lat="54.446216700598598" lon="11.135113695636392">
        <ele>0</ele>
        <time>2010-01-03T07:49:49Z</time>
      </trkpt>
      <trkpt lat="54.446234721690416" lon="11.13511947914958">
        <ele>0</ele>
        <time>2010-01-03T07:49:49Z</time>
      </trkpt>
      <trkpt lat="54.446264477446675" lon="11.13514194265008">
        <ele>0</ele>
        <time>2010-01-03T07:49:51Z</time>
      </trkpt>
      <trkpt lat="54.446300771087408" lon="11.135187456384301">
        <ele>0</ele>
        <time>2010-01-03T07:49:52Z</time>
      </trkpt>
      <trkpt lat="54.44631895981729" lon="11.135347383096814">
        <ele>0</ele>
        <time>2010-01-03T07:49:56Z</time>
      </trkpt>
      <trkpt lat="54.446327006444335" lon="11.13546590320766">
        <ele>0</ele>
        <time>2010-01-03T07:49:59Z</time>
      </trkpt>
      <trkpt lat="54.446329856291413" lon="11.135609233751893">
        <ele>0</ele>
        <time>2010-01-03T07:50:02Z</time>
      </trkpt>
      <trkpt lat="54.446331784129143" lon="11.135758683085442">
        <ele>0</ele>
        <time>2010-01-03T07:50:06Z</time>
      </trkpt>
      <trkpt lat="54.44635265506804" lon="11.136037297546864">
        <ele>0</ele>
        <time>2010-01-03T07:50:12Z</time>
      </trkpt>
      <trkpt lat="54.446356678381562" lon="11.136092701926827">
        <ele>0</ele>
        <time>2010-01-03T07:50:14Z</time>
      </trkpt>
      <trkpt lat="54.44636489264667" lon="11.136238966137171">
        <ele>0</ele>
        <time>2010-01-03T07:50:17Z</time>
      </trkpt>
      <trkpt lat="54.446367993950844" lon="11.136299064382911">
        <ele>0</ele>
        <time>2010-01-03T07:50:18Z</time>
      </trkpt>
      <trkpt lat="54.446370173245668" lon="11.136354468762875">
        <ele>0</ele>
        <time>2010-01-03T07:50:20Z</time>
      </trkpt>
      <trkpt lat="54.446435887366533" lon="11.137509243562818">
        <ele>0</ele>
        <time>2010-01-03T07:50:47Z</time>
      </trkpt>
      <trkpt lat="54.446442844346166" lon="11.137601612135768">
        <ele>0</ele>
        <time>2010-01-03T07:50:49Z</time>
      </trkpt>
      <trkpt lat="54.446452315896749" lon="11.13766766153276">
        <ele>0</ele>
        <time>2010-01-03T07:50:50Z</time>
      </trkpt>
      <trkpt lat="54.446458099409938" lon="11.137715354561806">
        <ele>0</ele>
        <time>2010-01-03T07:50:52Z</time>
      </trkpt>
      <trkpt lat="54.446467319503427" lon="11.137753743678331">
        <ele>0</ele>
        <time>2010-01-03T07:50:53Z</time>
      </trkpt>
      <trkpt lat="54.446494393050671" lon="11.137899588793516">
        <ele>0</ele>
        <time>2010-01-03T07:50:56Z</time>
      </trkpt>
      <trkpt lat="54.446543427184224" lon="11.138091282919049">
        <ele>0</ele>
        <time>2010-01-03T07:51:01Z</time>
      </trkpt>
      <trkpt lat="54.446609644219279" lon="11.138310302048922">
        <ele>0</ele>
        <time>2010-01-03T07:51:07Z</time>
      </trkpt>
      <trkpt lat="54.446710729971528" lon="11.138627305626869">
        <ele>0</ele>
        <time>2010-01-03T07:51:15Z</time>
      </trkpt>
      <trkpt lat="54.44680075161159" lon="11.138901310041547">
        <ele>0</ele>
        <time>2010-01-03T07:51:22Z</time>
      </trkpt>
      <trkpt lat="54.446874931454659" lon="11.139101721346378">
        <ele>0</ele>
        <time>2010-01-03T07:51:28Z</time>
      </trkpt>
      <trkpt lat="54.446977190673351" lon="11.139337001368403">
        <ele>0</ele>
        <time>2010-01-03T07:51:35Z</time>
      </trkpt>
      <trkpt lat="54.44723661057651" lon="11.139940498396754">
        <ele>0</ele>
        <time>2010-01-03T07:51:52Z</time>
      </trkpt>
      <trkpt lat="54.447285057976842" lon="11.140050468966365">
        <ele>0</ele>
        <time>2010-01-03T07:51:56Z</time>
      </trkpt>
      <trkpt lat="54.447310790419579" lon="11.14013621583581">
        <ele>0</ele>
        <time>2010-01-03T07:51:58Z</time>
      </trkpt>
      <trkpt lat="54.447330320253968" lon="11.140222130343318">
        <ele>0</ele>
        <time>2010-01-03T07:52:00Z</time>
      </trkpt>
      <trkpt lat="54.447342557832599" lon="11.140302093699574">
        <ele>0</ele>
        <time>2010-01-03T07:52:02Z</time>
      </trkpt>
      <trkpt lat="54.447348592802882" lon="11.14040058106184">
        <ele>0</ele>
        <time>2010-01-03T07:52:04Z</time>
      </trkpt>
      <trkpt lat="54.447348425164819" lon="11.140494626015425">
        <ele>0</ele>
        <time>2010-01-03T07:52:06Z</time>
      </trkpt>
      <trkpt lat="54.447342809289694" lon="11.140590347349644">
        <ele>0</ele>
        <time>2010-01-03T07:52:09Z</time>
      </trkpt>
      <trkpt lat="54.447338366881013" lon="11.140721440315247">
        <ele>0</ele>
        <time>2010-01-03T07:52:12Z</time>
      </trkpt>
      <trkpt lat="54.447333505377173" lon="11.140797128900886">
        <ele>0</ele>
        <time>2010-01-03T07:52:13Z</time>
      </trkpt>
      <trkpt lat="54.447329482063651" lon="11.140863513574004">
        <ele>0</ele>
        <time>2010-01-03T07:52:15Z</time>
      </trkpt>
      <trkpt lat="54.447248429059982" lon="11.141720730811357">
        <ele>0</ele>
        <time>2010-01-03T07:52:35Z</time>
      </trkpt>
      <trkpt lat="54.447183636948466" lon="11.142468228936195">
        <ele>0</ele>
        <time>2010-01-03T07:52:53Z</time>
      </trkpt>
      <trkpt lat="54.447151031345129" lon="11.142939124256372">
        <ele>0</ele>
        <time>2010-01-03T07:53:04Z</time>
      </trkpt>
      <trkpt lat="54.447117084637284" lon="11.143473219126463">
        <ele>0</ele>
        <time>2010-01-03T07:53:16Z</time>
      </trkpt>
      <trkpt lat="54.447733825072646" lon="11.144041512161493">
        <ele>0</ele>
        <time>2010-01-03T07:53:44Z</time>
      </trkpt>
      <trkpt lat="54.447841364890337" lon="11.144137904047966">
        <ele>0</ele>
        <time>2010-01-03T07:53:49Z</time>
      </trkpt>
      <trkpt lat="54.447908336296678" lon="11.144196661189198">
        <ele>0</ele>
        <time>2010-01-03T07:53:52Z</time>
      </trkpt>
      <trkpt lat="54.447994083166122" lon="11.144258100539446">
        <ele>0</ele>
        <time>2010-01-03T07:53:56Z</time>
      </trkpt>
      <trkpt lat="54.448084272444248" lon="11.144311744719744">
        <ele>0</ele>
        <time>2010-01-03T07:54:00Z</time>
      </trkpt>
      <trkpt lat="54.448200613260269" lon="11.144367819651961">
        <ele>0</ele>
        <time>2010-01-03T07:54:05Z</time>
      </trkpt>
      <trkpt lat="54.448479982092977" lon="11.144491536542773">
        <ele>0</ele>
        <time>2010-01-03T07:54:16Z</time>
      </trkpt>
      <trkpt lat="54.448573691770434" lon="11.144531182944775">
        <ele>0</ele>
        <time>2010-01-03T07:54:20Z</time>
      </trkpt>
      <trkpt lat="54.448925144970417" lon="11.144679626449943">
        <ele>0</ele>
        <time>2010-01-03T07:54:34Z</time>
      </trkpt>
      <trkpt lat="54.44909093901515" lon="11.144748609513044">
        <ele>0</ele>
        <time>2010-01-03T07:54:41Z</time>
      </trkpt>
      <trkpt lat="54.449282884597778" lon="11.144837122410536">
        <ele>0</ele>
        <time>2010-01-03T07:54:49Z</time>
      </trkpt>
      <trkpt lat="54.44932253099978" lon="11.144854808226228">
        <ele>0</ele>
        <time>2010-01-03T07:54:51Z</time>
      </trkpt>
      <trkpt lat="54.449519002810121" lon="11.144946254789829">
        <ele>0</ele>
        <time>2010-01-03T07:54:59Z</time>
      </trkpt>
      <trkpt lat="54.449648754671216" lon="11.145000569522381">
        <ele>0</ele>
        <time>2010-01-03T07:55:04Z</time>
      </trkpt>
      <trkpt lat="54.449677588418126" lon="11.145013896748424">
        <ele>0</ele>
        <time>2010-01-03T09:10:56Z</time>
      </trkpt>
      <trkpt lat="54.449899373576045" lon="11.145114060491323">
        <ele>0</ele>
        <time>2010-01-03T09:11:05Z</time>
      </trkpt>
      <trkpt lat="54.449998531490564" lon="11.145166028290987">
        <ele>0</ele>
        <time>2010-01-03T09:11:09Z</time>
      </trkpt>
      <trkpt lat="54.450095007196069" lon="11.14520869217813">
        <ele>0</ele>
        <time>2010-01-03T09:11:13Z</time>
      </trkpt>
      <trkpt lat="54.450196763500571" lon="11.145248170942068">
        <ele>0</ele>
        <time>2010-01-03T09:11:17Z</time>
      </trkpt>
      <trkpt lat="54.450290389358997" lon="11.14527708850801">
        <ele>0</ele>
        <time>2010-01-03T09:11:21Z</time>
      </trkpt>
      <trkpt lat="54.450358785688877" lon="11.145286476239562">
        <ele>0</ele>
        <time>2010-01-03T09:11:24Z</time>
      </trkpt>
      <trkpt lat="54.450463140383363" lon="11.145305838435888">
        <ele>0</ele>
        <time>2010-01-03T09:11:28Z</time>
      </trkpt>
      <trkpt lat="54.450483759865165" lon="11.145307011902332">
        <ele>0</ele>
        <time>2010-01-03T09:11:29Z</time>
      </trkpt>
      <trkpt lat="54.450813587754965" lon="11.145318578928709">
        <ele>0</ele>
        <time>2010-01-03T09:11:42Z</time>
      </trkpt>
      <trkpt lat="54.450904363766313" lon="11.1453259550035">
        <ele>0</ele>
        <time>2010-01-03T09:11:45Z</time>
      </trkpt>
      <trkpt lat="54.451101589947939" lon="11.145400470122695">
        <ele>0</ele>
        <time>2010-01-03T09:11:54Z</time>
      </trkpt>
      <trkpt lat="54.451209716498852" lon="11.145441373810172">
        <ele>0</ele>
        <time>2010-01-03T09:11:58Z</time>
      </trkpt>
      <trkpt lat="54.45128439925611" lon="11.145461406558752">
        <ele>0</ele>
        <time>2010-01-03T09:12:01Z</time>
      </trkpt>
      <trkpt lat="54.451410379260778" lon="11.145481942221522">
        <ele>0</ele>
        <time>2010-01-03T09:12:06Z</time>
      </trkpt>
      <trkpt lat="54.451576760038733" lon="11.145512368530035">
        <ele>0</ele>
        <time>2010-01-03T09:12:13Z</time>
      </trkpt>
      <trkpt lat="54.45182679221034" lon="11.145553439855576">
        <ele>0</ele>
        <time>2010-01-03T09:12:23Z</time>
      </trkpt>
      <trkpt lat="54.45185118354857" lon="11.145563749596477">
        <ele>0</ele>
        <time>2010-01-03T09:12:24Z</time>
      </trkpt>
      <trkpt lat="54.451867360621691" lon="11.145571125671268">
        <ele>0</ele>
        <time>2010-01-03T09:12:25Z</time>
      </trkpt>
      <trkpt lat="54.451926872134209" lon="11.145602222532034">
        <ele>0</ele>
        <time>2010-01-03T09:12:27Z</time>
      </trkpt>
      <trkpt lat="54.451926872134209" lon="11.145602222532034">
        <ele>0</ele>
        <time>2010-01-03T09:12:27Z</time>
      </trkpt>
      <trkpt lat="54.451867360621691" lon="11.145571125671268">
        <ele>0</ele>
        <time>2010-01-03T09:12:25Z</time>
      </trkpt>
      <trkpt lat="54.45185118354857" lon="11.145563749596477">
        <ele>0</ele>
        <time>2010-01-03T09:12:24Z</time>
      </trkpt>
      <trkpt lat="54.45182679221034" lon="11.145553439855576">
        <ele>0</ele>
        <time>2010-01-03T09:12:23Z</time>
      </trkpt>
      <trkpt lat="54.451576760038733" lon="11.145512368530035">
        <ele>0</ele>
        <time>2010-01-03T09:12:13Z</time>
      </trkpt>
      <trkpt lat="54.451410379260778" lon="11.145481942221522">
        <ele>0</ele>
        <time>2010-01-03T09:12:06Z</time>
      </trkpt>
      <trkpt lat="54.45128439925611" lon="11.145461406558752">
        <ele>0</ele>
        <time>2010-01-03T09:12:01Z</time>
      </trkpt>
      <trkpt lat="54.451209716498852" lon="11.145441373810172">
        <ele>0</ele>
        <time>2010-01-03T09:11:58Z</time>
      </trkpt>
      <trkpt lat="54.451101589947939" lon="11.145400470122695">
        <ele>0</ele>
        <time>2010-01-03T09:11:54Z</time>
      </trkpt>
      <trkpt lat="54.450904363766313" lon="11.1453259550035">
        <ele>0</ele>
        <time>2010-01-03T09:11:45Z</time>
      </trkpt>
      <trkpt lat="54.450813587754965" lon="11.145318578928709">
        <ele>0</ele>
        <time>2010-01-03T09:11:42Z</time>
      </trkpt>
      <trkpt lat="54.450483759865165" lon="11.145307011902332">
        <ele>0</ele>
        <time>2010-01-03T09:11:29Z</time>
      </trkpt>
      <trkpt lat="54.450463140383363" lon="11.145305838435888">
        <ele>0</ele>
        <time>2010-01-03T09:11:28Z</time>
      </trkpt>
      <trkpt lat="54.450358785688877" lon="11.145286476239562">
        <ele>0</ele>
        <time>2010-01-03T09:11:24Z</time>
      </trkpt>
      <trkpt lat="54.450290389358997" lon="11.14527708850801">
        <ele>0</ele>
        <time>2010-01-03T09:11:21Z</time>
      </trkpt>
      <trkpt lat="54.450196763500571" lon="11.145248170942068">
        <ele>0</ele>
        <time>2010-01-03T09:11:17Z</time>
      </trkpt>
      <trkpt lat="54.450095007196069" lon="11.14520869217813">
        <ele>0</ele>
        <time>2010-01-03T09:11:13Z</time>
      </trkpt>
      <trkpt lat="54.449998531490564" lon="11.145166028290987">
        <ele>0</ele>
        <time>2010-01-03T09:11:09Z</time>
      </trkpt>
      <trkpt lat="54.449899373576045" lon="11.145114060491323">
        <ele>0</ele>
        <time>2010-01-03T09:11:05Z</time>
      </trkpt>
      <trkpt lat="54.449677588418126" lon="11.145013896748424">
        <ele>0</ele>
        <time>2010-01-03T09:10:56Z</time>
      </trkpt>
      <trkpt lat="54.449648754671216" lon="11.145000569522381">
        <ele>0</ele>
        <time>2010-01-03T07:55:04Z</time>
      </trkpt>
      <trkpt lat="54.449648754671216" lon="11.145000569522381">
        <ele>0</ele>
        <time>2010-01-03T07:55:04Z</time>
      </trkpt>
      <trkpt lat="54.449605755507946" lon="11.145399212837219">
        <ele>0</ele>
        <time>2010-01-03T08:50:33Z</time>
      </trkpt>
      <trkpt lat="54.449564348906279" lon="11.145632900297642">
        <ele>0</ele>
        <time>2010-01-03T08:50:39Z</time>
      </trkpt>
      <trkpt lat="54.449524283409119" lon="11.145818727090955">
        <ele>0</ele>
        <time>2010-01-03T08:50:43Z</time>
      </trkpt>
      <trkpt lat="54.449500646442175" lon="11.145905563607812">
        <ele>0</ele>
        <time>2010-01-03T08:50:46Z</time>
      </trkpt>
      <trkpt lat="54.44949016906321" lon="11.145942779257894">
        <ele>0</ele>
        <time>2010-01-03T08:50:46Z</time>
      </trkpt>
      <trkpt lat="54.449458569288254" lon="11.146051324903965">
        <ele>0</ele>
        <time>2010-01-03T08:50:49Z</time>
      </trkpt>
      <trkpt lat="54.449416408315301" lon="11.146183256059885">
        <ele>0</ele>
        <time>2010-01-03T08:50:53Z</time>
      </trkpt>
      <trkpt lat="54.449376929551363" lon="11.146316695958376">
        <ele>0</ele>
        <time>2010-01-03T08:50:56Z</time>
      </trkpt>
      <trkpt lat="54.449331499636173" lon="11.146508809179068">
        <ele>0</ele>
        <time>2010-01-03T08:51:01Z</time>
      </trkpt>
      <trkpt lat="54.449275340884924" lon="11.146690361201763">
        <ele>0</ele>
        <time>2010-01-03T08:51:06Z</time>
      </trkpt>
      <trkpt lat="54.449256146326661" lon="11.146772420033813">
        <ele>0</ele>
        <time>2010-01-03T08:51:08Z</time>
      </trkpt>
      <trkpt lat="54.449233682826161" lon="11.146902423352003">
        <ele>0</ele>
        <time>2010-01-03T08:51:11Z</time>
      </trkpt>
      <trkpt lat="54.449218427762389" lon="11.147026056423783">
        <ele>0</ele>
        <time>2010-01-03T08:51:14Z</time>
      </trkpt>
      <trkpt lat="54.449212141335011" lon="11.147152623161674">
        <ele>0</ele>
        <time>2010-01-03T08:51:17Z</time>
      </trkpt>
      <trkpt lat="54.449207782745361" lon="11.14730685018003">
        <ele>0</ele>
        <time>2010-01-03T08:51:21Z</time>
      </trkpt>
      <trkpt lat="54.449212225154042" lon="11.147425454109907">
        <ele>0</ele>
        <time>2010-01-03T08:51:23Z</time>
      </trkpt>
      <trkpt lat="54.449219265952706" lon="11.147534754127264">
        <ele>0</ele>
        <time>2010-01-03T08:51:26Z</time>
      </trkpt>
      <trkpt lat="54.449229827150702" lon="11.14763324148953">
        <ele>0</ele>
        <time>2010-01-03T08:51:28Z</time>
      </trkpt>
      <trkpt lat="54.449251871556044" lon="11.147694429382682">
        <ele>0</ele>
        <time>2010-01-03T08:51:30Z</time>
      </trkpt>
      <trkpt lat="54.44926830008626" lon="11.147738769650459">
        <ele>0</ele>
        <time>2010-01-03T08:51:31Z</time>
      </trkpt>
      <trkpt lat="54.449303839355707" lon="11.147804399952292">
        <ele>0</ele>
        <time>2010-01-03T08:51:33Z</time>
      </trkpt>
      <trkpt lat="54.449354549869895" lon="11.147866509854794">
        <ele>0</ele>
        <time>2010-01-03T08:51:36Z</time>
      </trkpt>
      <trkpt lat="54.449405260384083" lon="11.147922500967979">
        <ele>0</ele>
        <time>2010-01-03T08:51:38Z</time>
      </trkpt>
      <trkpt lat="54.449491258710623" lon="11.148008583113551">
        <ele>0</ele>
        <time>2010-01-03T08:51:42Z</time>
      </trkpt>
      <trkpt lat="54.449599720537663" lon="11.148100364953279">
        <ele>0</ele>
        <time>2010-01-03T08:51:47Z</time>
      </trkpt>
      <trkpt lat="54.449697202071548" lon="11.148173874244094">
        <ele>0</ele>
        <time>2010-01-03T08:51:51Z</time>
      </trkpt>
      <trkpt lat="54.449789319187403" lon="11.148242941126227">
        <ele>0</ele>
        <time>2010-01-03T08:51:55Z</time>
      </trkpt>
      <trkpt lat="54.449886800721288" lon="11.14830412901938">
        <ele>0</ele>
        <time>2010-01-03T08:51:59Z</time>
      </trkpt>
      <trkpt lat="54.449911192059517" lon="11.148319048807025">
        <ele>0</ele>
        <time>2010-01-03T08:52:00Z</time>
      </trkpt>
      <trkpt lat="54.450124930590391" lon="11.148442514240742">
        <ele>0</ele>
        <time>2010-01-03T08:52:09Z</time>
      </trkpt>
      <trkpt lat="54.450188213959336" lon="11.148490542545915">
        <ele>0</ele>
        <time>2010-01-03T08:52:12Z</time>
      </trkpt>
      <trkpt lat="54.450432294979692" lon="11.148585677146912">
        <ele>0</ele>
        <time>2010-01-03T08:52:22Z</time>
      </trkpt>
      <trkpt lat="54.450498092919588" lon="11.148608978837729">
        <ele>0</ele>
        <time>2010-01-03T08:52:25Z</time>
      </trkpt>
      <trkpt lat="54.450600938871503" lon="11.148674692958593">
        <ele>0</ele>
        <time>2010-01-03T08:52:29Z</time>
      </trkpt>
      <trkpt lat="54.450695654377341" lon="11.148726744577289">
        <ele>0</ele>
        <time>2010-01-03T08:52:33Z</time>
      </trkpt>
      <trkpt lat="54.450748125091195" lon="11.148763038218021">
        <ele>0</ele>
        <time>2010-01-03T08:52:36Z</time>
      </trkpt>
      <trkpt lat="54.450810318812728" lon="11.148806037381291">
        <ele>0</ele>
        <time>2010-01-03T08:52:38Z</time>
      </trkpt>
      <trkpt lat="54.450929593294859" lon="11.148905279114842">
        <ele>0</ele>
        <time>2010-01-03T08:52:44Z</time>
      </trkpt>
      <trkpt lat="54.450968569144607" lon="11.14894769154489">
        <ele>0</ele>
        <time>2010-01-03T08:52:45Z</time>
      </trkpt>
      <trkpt lat="54.450930096209049" lon="11.148973172530532">
        <ele>0</ele>
        <time>2010-01-03T08:52:47Z</time>
      </trkpt>
      <trkpt lat="54.450831860303879" lon="11.149060009047389">
        <ele>0</ele>
        <time>2010-01-03T08:52:51Z</time>
      </trkpt>
      <trkpt lat="54.450756842270494" lon="11.149120107293129">
        <ele>0</ele>
        <time>2010-01-03T08:52:55Z</time>
      </trkpt>
      <trkpt lat="54.450682662427425" lon="11.149175595492125">
        <ele>0</ele>
        <time>2010-01-03T08:52:58Z</time>
      </trkpt>
      <trkpt lat="54.450662964954972" lon="11.149189928546548">
        <ele>0</ele>
        <time>2010-01-03T08:52:59Z</time>
      </trkpt>
      <trkpt lat="54.450566489249468" lon="11.149261258542538">
        <ele>0</ele>
        <time>2010-01-03T08:53:03Z</time>
      </trkpt>
      <trkpt lat="54.450499434024096" lon="11.149315070360899">
        <ele>0</ele>
        <time>2010-01-03T08:53:06Z</time>
      </trkpt>
      <trkpt lat="54.450445035472512" lon="11.149367121979594">
        <ele>0</ele>
        <time>2010-01-03T08:53:09Z</time>
      </trkpt>
      <trkpt lat="54.450398767367005" lon="11.149428142234683">
        <ele>0</ele>
        <time>2010-01-03T08:53:11Z</time>
      </trkpt>
      <trkpt lat="54.450325844809413" lon="11.149540711194277">
        <ele>0</ele>
        <time>2010-01-03T08:53:15Z</time>
      </trkpt>
      <trkpt lat="54.450258621945977" lon="11.149690076708794">
        <ele>0</ele>
        <time>2010-01-03T08:53:19Z</time>
      </trkpt>
      <trkpt lat="54.450198607519269" lon="11.149845477193594">
        <ele>0</ele>
        <time>2010-01-03T08:53:24Z</time>
      </trkpt>
      <trkpt lat="54.450137000530958" lon="11.150019401684403">
        <ele>0</ele>
        <time>2010-01-03T08:53:28Z</time>
      </trkpt>
      <trkpt lat="54.450110597535968" lon="11.150106322020292">
        <ele>0</ele>
        <time>2010-01-03T08:53:31Z</time>
      </trkpt>
      <trkpt lat="54.449564600363374" lon="11.151924440637231">
        <ele>0</ele>
        <time>2010-01-03T08:54:18Z</time>
      </trkpt>
      <trkpt lat="54.449532078579068" lon="11.152033070102334">
        <ele>0</ele>
        <time>2010-01-03T08:54:21Z</time>
      </trkpt>
      <trkpt lat="54.449270563200116" lon="11.152920294553041">
        <ele>0</ele>
        <time>2010-01-03T08:54:44Z</time>
      </trkpt>
      <trkpt lat="54.449168974533677" lon="11.153284655883908">
        <ele>0</ele>
        <time>2010-01-03T08:54:54Z</time>
      </trkpt>
      <trkpt lat="54.449129747226834" lon="11.15345967002213">
        <ele>0</ele>
        <time>2010-01-03T08:54:58Z</time>
      </trkpt>
      <trkpt lat="54.449090603739023" lon="11.15364390425384">
        <ele>0</ele>
        <time>2010-01-03T08:55:03Z</time>
      </trkpt>
      <trkpt lat="54.44904986768961" lon="11.153852865099907">
        <ele>0</ele>
        <time>2010-01-03T08:55:08Z</time>
      </trkpt>
      <trkpt lat="54.449012819677591" lon="11.154084876179695">
        <ele>0</ele>
        <time>2010-01-03T08:55:13Z</time>
      </trkpt>
      <trkpt lat="54.448987925425172" lon="11.154251927509904">
        <ele>0</ele>
        <time>2010-01-03T08:55:17Z</time>
      </trkpt>
      <trkpt lat="54.448959594592452" lon="11.154437502846122">
        <ele>0</ele>
        <time>2010-01-03T08:55:22Z</time>
      </trkpt>
      <trkpt lat="54.448908548802137" lon="11.154847042635083">
        <ele>0</ele>
        <time>2010-01-03T08:55:31Z</time>
      </trkpt>
      <trkpt lat="54.448870327323675" lon="11.155159268528223">
        <ele>0</ele>
        <time>2010-01-03T08:55:39Z</time>
      </trkpt>
      <trkpt lat="54.448849875479937" lon="11.155285919085145">
        <ele>0</ele>
        <time>2010-01-03T08:55:42Z</time>
      </trkpt>
      <trkpt lat="54.448830680921674" lon="11.155405193567276">
        <ele>0</ele>
        <time>2010-01-03T08:55:45Z</time>
      </trkpt>
      <trkpt lat="54.448781814426184" lon="11.155674923211336">
        <ele>0</ele>
        <time>2010-01-03T08:55:51Z</time>
      </trkpt>
      <trkpt lat="54.448778796941042" lon="11.155691519379616">
        <ele>0</ele>
        <time>2010-01-03T08:55:52Z</time>
      </trkpt>
      <trkpt lat="54.448722135275602" lon="11.155936270952225">
        <ele>0</ele>
        <time>2010-01-03T08:55:58Z</time>
      </trkpt>
      <trkpt lat="54.448634879663587" lon="11.156309517100453">
        <ele>0</ele>
        <time>2010-01-03T08:56:07Z</time>
      </trkpt>
      <trkpt lat="54.448581654578447" lon="11.156538845971227">
        <ele>0</ele>
        <time>2010-01-03T08:56:13Z</time>
      </trkpt>
      <trkpt lat="54.448501272127032" lon="11.156865740194917">
        <ele>0</ele>
        <time>2010-01-03T08:56:21Z</time>
      </trkpt>
      <trkpt lat="54.448436312377453" lon="11.157082915306091">
        <ele>0</ele>
        <time>2010-01-03T08:56:27Z</time>
      </trkpt>
      <trkpt lat="54.448411921039224" lon="11.15716589614749">
        <ele>0</ele>
        <time>2010-01-03T08:56:29Z</time>
      </trkpt>
      <trkpt lat="54.448344195261598" lon="11.157396230846643">
        <ele>0</ele>
        <time>2010-01-03T08:56:35Z</time>
      </trkpt>
      <trkpt lat="54.448267752304673" lon="11.157647520303726">
        <ele>0</ele>
        <time>2010-01-03T08:56:42Z</time>
      </trkpt>
      <trkpt lat="54.448196589946747" lon="11.157873999327421">
        <ele>0</ele>
        <time>2010-01-03T08:56:48Z</time>
      </trkpt>
      <trkpt lat="54.448151746764779" lon="11.158016826957464">
        <ele>0</ele>
        <time>2010-01-03T08:56:52Z</time>
      </trkpt>
      <trkpt lat="54.448091983795166" lon="11.158204581588507">
        <ele>0</ele>
        <time>2010-01-03T08:56:57Z</time>
      </trkpt>
      <trkpt lat="54.448025096207857" lon="11.158409435302019">
        <ele>0</ele>
        <time>2010-01-03T08:57:02Z</time>
      </trkpt>
      <trkpt lat="54.447913700714707" lon="11.158798607066274">
        <ele>0</ele>
        <time>2010-01-03T08:57:12Z</time>
      </trkpt>
      <trkpt lat="54.447815548628569" lon="11.159155257046223">
        <ele>0</ele>
        <time>2010-01-03T08:57:21Z</time>
      </trkpt>
      <trkpt lat="54.447731729596853" lon="11.159494556486607">
        <ele>0</ele>
        <time>2010-01-03T08:57:30Z</time>
      </trkpt>
      <trkpt lat="54.447658304125071" lon="11.159788928925991">
        <ele>0</ele>
        <time>2010-01-03T08:57:37Z</time>
      </trkpt>
      <trkpt lat="54.44755713455379" lon="11.160233421251178">
        <ele>0</ele>
        <time>2010-01-03T08:57:48Z</time>
      </trkpt>
      <trkpt lat="54.447431908920407" lon="11.16082183085382">
        <ele>0</ele>
        <time>2010-01-03T08:58:03Z</time>
      </trkpt>
      <trkpt lat="54.447372732684016" lon="11.161103630438447">
        <ele>0</ele>
        <time>2010-01-03T08:58:10Z</time>
      </trkpt>
      <trkpt lat="54.447352783754468" lon="11.161207314580679">
        <ele>0</ele>
        <time>2010-01-03T08:58:13Z</time>
      </trkpt>
      <trkpt lat="54.447332918643951" lon="11.161315608769655">
        <ele>0</ele>
        <time>2010-01-03T08:58:15Z</time>
      </trkpt>
      <trkpt lat="54.447265360504389" lon="11.161683909595013">
        <ele>0</ele>
        <time>2010-01-03T08:58:24Z</time>
      </trkpt>
      <trkpt lat="54.447205765172839" lon="11.162028908729553">
        <ele>0</ele>
        <time>2010-01-03T08:58:33Z</time>
      </trkpt>
      <trkpt lat="54.447147762402892" lon="11.162342978641391">
        <ele>0</ele>
        <time>2010-01-03T08:58:40Z</time>
      </trkpt>
      <trkpt lat="54.447095459327102" lon="11.162578342482448">
        <ele>0</ele>
        <time>2010-01-03T08:58:46Z</time>
      </trkpt>
      <trkpt lat="54.44706067442894" lon="11.162747154012322">
        <ele>0</ele>
        <time>2010-01-03T08:58:50Z</time>
      </trkpt>
      <trkpt lat="54.447011724114418" lon="11.162942368537188">
        <ele>0</ele>
        <time>2010-01-03T08:58:55Z</time>
      </trkpt>
      <trkpt lat="54.446948105469346" lon="11.163224251940846">
        <ele>0</ele>
        <time>2010-01-03T08:59:02Z</time>
      </trkpt>
      <trkpt lat="54.446883397176862" lon="11.163481408730149">
        <ele>0</ele>
        <time>2010-01-03T08:59:09Z</time>
      </trkpt>
      <trkpt lat="54.446798320859671" lon="11.163777625188231">
        <ele>0</ele>
        <time>2010-01-03T08:59:16Z</time>
      </trkpt>
      <trkpt lat="54.446714166551828" lon="11.164078367874026">
        <ele>0</ele>
        <time>2010-01-03T08:59:24Z</time>
      </trkpt>
      <trkpt lat="54.446592293679714" lon="11.164515567943454">
        <ele>0</ele>
        <time>2010-01-03T08:59:36Z</time>
      </trkpt>
      <trkpt lat="54.446142688393593" lon="11.166021544486284">
        <ele>0</ele>
        <time>2010-01-03T09:00:15Z</time>
      </trkpt>
      <trkpt lat="54.446104047819972" lon="11.166150290518999">
        <ele>0</ele>
        <time>2010-01-03T09:00:18Z</time>
      </trkpt>
      <trkpt lat="54.446057779714465" lon="11.166335279121995">
        <ele>0</ele>
        <time>2010-01-03T09:00:23Z</time>
      </trkpt>
      <trkpt lat="54.446053337305784" lon="11.166353300213814">
        <ele>0</ele>
        <time>2010-01-03T09:00:23Z</time>
      </trkpt>
      <trkpt lat="54.445993909612298" lon="11.166590340435505">
        <ele>0</ele>
        <time>2010-01-03T09:00:29Z</time>
      </trkpt>
      <trkpt lat="54.445888381451368" lon="11.167050339281559">
        <ele>0</ele>
        <time>2010-01-03T09:00:41Z</time>
      </trkpt>
      <trkpt lat="54.445830965414643" lon="11.167325852438807">
        <ele>0</ele>
        <time>2010-01-03T09:00:48Z</time>
      </trkpt>
      <trkpt lat="54.445823673158884" lon="11.167367175221443">
        <ele>0</ele>
        <time>2010-01-03T09:00:49Z</time>
      </trkpt>
      <trkpt lat="54.445786876603961" lon="11.167576471343637">
        <ele>0</ele>
        <time>2010-01-03T09:00:54Z</time>
      </trkpt>
      <trkpt lat="54.445766676217318" lon="11.167690632864833">
        <ele>0</ele>
        <time>2010-01-03T09:00:57Z</time>
      </trkpt>
      <trkpt lat="54.445746559649706" lon="11.167802950367332">
        <ele>0</ele>
        <time>2010-01-03T09:00:59Z</time>
      </trkpt>
      <trkpt lat="54.445687383413315" lon="11.168131604790688">
        <ele>0</ele>
        <time>2010-01-03T09:01:07Z</time>
      </trkpt>
      <trkpt lat="54.445683946833014" lon="11.168150464072824">
        <ele>0</ele>
        <time>2010-01-03T09:01:08Z</time>
      </trkpt>
      <trkpt lat="54.445630889385939" lon="11.168475765734911">
        <ele>0</ele>
        <time>2010-01-03T09:01:16Z</time>
      </trkpt>
      <trkpt lat="54.445533910766244" lon="11.169070713222027">
        <ele>0</ele>
        <time>2010-01-03T09:01:30Z</time>
      </trkpt>
      <trkpt lat="54.445473309606314" lon="11.169532891362906">
        <ele>0</ele>
        <time>2010-01-03T09:01:41Z</time>
      </trkpt>
      <trkpt lat="54.445468196645379" lon="11.169573040679097">
        <ele>0</ele>
        <time>2010-01-03T09:01:42Z</time>
      </trkpt>
      <trkpt lat="54.445434920489788" lon="11.169829610735178">
        <ele>0</ele>
        <time>2010-01-03T09:01:48Z</time>
      </trkpt>
      <trkpt lat="54.445420671254396" lon="11.169947208836675">
        <ele>0</ele>
        <time>2010-01-03T09:01:51Z</time>
      </trkpt>
      <trkpt lat="54.44539493881166" lon="11.170158768072724">
        <ele>0</ele>
        <time>2010-01-03T09:01:56Z</time>
      </trkpt>
      <trkpt lat="54.445364847779274" lon="11.170369908213615">
        <ele>0</ele>
        <time>2010-01-03T09:02:01Z</time>
      </trkpt>
      <trkpt lat="54.445357220247388" lon="11.170423133298755">
        <ele>0</ele>
        <time>2010-01-03T09:02:02Z</time>
      </trkpt>
      <trkpt lat="54.445336014032364" lon="11.170580880716443">
        <ele>0</ele>
        <time>2010-01-03T09:02:06Z</time>
      </trkpt>
      <trkpt lat="54.445327296853065" lon="11.170645672827959">
        <ele>0</ele>
        <time>2010-01-03T09:02:08Z</time>
      </trkpt>
      <trkpt lat="54.445294858887792" lon="11.170891430228949">
        <ele>0</ele>
        <time>2010-01-03T09:02:14Z</time>
      </trkpt>
      <trkpt lat="54.445281196385622" lon="11.170995030552149">
        <ele>0</ele>
        <time>2010-01-03T09:02:16Z</time>
      </trkpt>
      <trkpt lat="54.445222020149231" lon="11.171406246721745">
        <ele>0</ele>
        <time>2010-01-03T09:02:26Z</time>
      </trkpt>
      <trkpt lat="54.445162508636713" lon="11.171768177300692">
        <ele>0</ele>
        <time>2010-01-03T09:02:35Z</time>
      </trkpt>
      <trkpt lat="54.445110457018018" lon="11.172037404030561">
        <ele>0</ele>
        <time>2010-01-03T09:02:41Z</time>
      </trkpt>
      <trkpt lat="54.445045245811343" lon="11.172356251627207">
        <ele>0</ele>
        <time>2010-01-03T09:02:49Z</time>
      </trkpt>
      <trkpt lat="54.444978861138225" lon="11.17263201624155">
        <ele>0</ele>
        <time>2010-01-03T09:02:56Z</time>
      </trkpt>
      <trkpt lat="54.444890432059765" lon="11.172969806939363">
        <ele>0</ele>
        <time>2010-01-03T09:03:05Z</time>
      </trkpt>
      <trkpt lat="54.444777946919203" lon="11.173329725861549">
        <ele>0</ele>
        <time>2010-01-03T09:03:14Z</time>
      </trkpt>
      <trkpt lat="54.444652972742915" lon="11.173716047778726">
        <ele>0</ele>
        <time>2010-01-03T09:03:24Z</time>
      </trkpt>
      <trkpt lat="54.444522550329566" lon="11.174119636416435">
        <ele>0</ele>
        <time>2010-01-03T09:03:35Z</time>
      </trkpt>
      <trkpt lat="54.444462954998016" lon="11.174304122105241">
        <ele>0</ele>
        <time>2010-01-03T09:03:40Z</time>
      </trkpt>
      <trkpt lat="54.444337980821729" lon="11.174682732671499">
        <ele>0</ele>
        <time>2010-01-03T09:03:50Z</time>
      </trkpt>
      <trkpt lat="54.444308895617723" lon="11.174763450399041">
        <ele>0</ele>
        <time>2010-01-03T09:03:52Z</time>
      </trkpt>
      <trkpt lat="54.444267069920897" lon="11.174881299957633">
        <ele>0</ele>
        <time>2010-01-03T09:03:56Z</time>
      </trkpt>
      <trkpt lat="54.44418459199369" lon="11.175114316865802">
        <ele>0</ele>
        <time>2010-01-03T09:04:02Z</time>
      </trkpt>
      <trkpt lat="54.444023324176669" lon="11.175580015406013">
        <ele>0</ele>
        <time>2010-01-03T09:04:15Z</time>
      </trkpt>
      <trkpt lat="54.443888794630766" lon="11.175998859107494">
        <ele>0</ele>
        <time>2010-01-03T09:04:26Z</time>
      </trkpt>
      <trkpt lat="54.443759629502892" lon="11.176431532949209">
        <ele>0</ele>
        <time>2010-01-03T09:04:37Z</time>
      </trkpt>
      <trkpt lat="54.443729119375348" lon="11.176544101908803">
        <ele>0</ele>
        <time>2010-01-03T09:04:40Z</time>
      </trkpt>
      <trkpt lat="54.443691316992044" lon="11.176684163510799">
        <ele>0</ele>
        <time>2010-01-03T09:04:44Z</time>
      </trkpt>
      <trkpt lat="54.443655358627439" lon="11.176815927028656">
        <ele>0</ele>
        <time>2010-01-03T09:04:47Z</time>
      </trkpt>
      <trkpt lat="54.44355670362711" lon="11.177183054387569">
        <ele>0</ele>
        <time>2010-01-03T09:04:56Z</time>
      </trkpt>
      <trkpt lat="54.443536167964339" lon="11.177259162068367">
        <ele>0</ele>
        <time>2010-01-03T09:04:58Z</time>
      </trkpt>
      <trkpt lat="54.443453941494226" lon="11.177578344941139">
        <ele>0</ele>
        <time>2010-01-03T09:05:06Z</time>
      </trkpt>
      <trkpt lat="54.44334564730525" lon="11.178044462576509">
        <ele>0</ele>
        <time>2010-01-03T09:05:18Z</time>
      </trkpt>
      <trkpt lat="54.443246657028794" lon="11.178539749234915">
        <ele>0</ele>
        <time>2010-01-03T09:05:30Z</time>
      </trkpt>
      <trkpt lat="54.443138279020786" lon="11.179124554619193">
        <ele>0</ele>
        <time>2010-01-03T09:05:45Z</time>
      </trkpt>
      <trkpt lat="54.443102823570371" lon="11.179328737780452">
        <ele>0</ele>
        <time>2010-01-03T09:05:50Z</time>
      </trkpt>
      <trkpt lat="54.443069128319621" lon="11.179522108286619">
        <ele>0</ele>
        <time>2010-01-03T09:05:54Z</time>
      </trkpt>
      <trkpt lat="54.442953793331981" lon="11.180271953344345">
        <ele>0</ele>
        <time>2010-01-03T09:06:12Z</time>
      </trkpt>
      <trkpt lat="54.44261122494936" lon="11.182745033875108">
        <ele>0</ele>
        <time>2010-01-03T09:07:12Z</time>
      </trkpt>
      <trkpt lat="54.442419866099954" lon="11.184083707630634">
        <ele>0</ele>
        <time>2010-01-03T09:07:44Z</time>
      </trkpt>
      <trkpt lat="54.442363288253546" lon="11.184479417279363">
        <ele>0</ele>
        <time>2010-01-03T09:07:53Z</time>
      </trkpt>
      <trkpt lat="54.442197494208813" lon="11.185614075511694">
        <ele>0</ele>
        <time>2010-01-03T09:08:20Z</time>
      </trkpt>
      <trkpt lat="54.442148627713323" lon="11.185957230627537">
        <ele>0</ele>
        <time>2010-01-03T09:08:29Z</time>
      </trkpt>
      <trkpt lat="54.442143430933356" lon="11.185989752411842">
        <ele>0</ele>
        <time>2010-01-03T09:08:29Z</time>
      </trkpt>
      <trkpt lat="54.442094899713993" lon="11.186255794018507">
        <ele>0</ele>
        <time>2010-01-03T09:08:36Z</time>
      </trkpt>
      <trkpt lat="54.442040082067251" lon="11.186514291912317">
        <ele>0</ele>
        <time>2010-01-03T09:08:42Z</time>
      </trkpt>
      <trkpt lat="54.441976295784116" lon="11.186785278841853">
        <ele>0</ele>
        <time>2010-01-03T09:08:49Z</time>
      </trkpt>
      <trkpt lat="54.441902786493301" lon="11.187067329883575">
        <ele>0</ele>
        <time>2010-01-03T09:08:56Z</time>
      </trkpt>
      <trkpt lat="54.441802874207497" lon="11.187448455020785">
        <ele>0</ele>
        <time>2010-01-03T09:09:06Z</time>
      </trkpt>
      <trkpt lat="54.441786780953407" lon="11.18751022964716">
        <ele>0</ele>
        <time>2010-01-03T09:09:08Z</time>
      </trkpt>
      <trkpt lat="54.441674128174782" lon="11.187941143289208">
        <ele>0</ele>
        <time>2010-01-03T09:09:19Z</time>
      </trkpt>
      <trkpt lat="54.441607827320695" lon="11.188229145482183">
        <ele>0</ele>
        <time>2010-01-03T09:09:26Z</time>
      </trkpt>
      <trkpt lat="54.441546220332384" lon="11.188563331961632">
        <ele>0</ele>
        <time>2010-01-03T09:09:34Z</time>
      </trkpt>
      <trkpt lat="54.441489474847913" lon="11.188932806253433">
        <ele>0</ele>
        <time>2010-01-03T09:09:43Z</time>
      </trkpt>
      <trkpt lat="54.44143951870501" lon="11.18926053866744">
        <ele>0</ele>
        <time>2010-01-03T09:09:51Z</time>
      </trkpt>
      <trkpt lat="54.441402219235897" lon="11.189594222232699">
        <ele>0</ele>
        <time>2010-01-03T09:09:59Z</time>
      </trkpt>
      <trkpt lat="54.441337008029222" lon="11.190166035667062">
        <ele>0</ele>
        <time>2010-01-03T09:10:12Z</time>
      </trkpt>
      <trkpt lat="54.441225696355104" lon="11.191140599548817">
        <ele>0</ele>
        <time>2010-01-03T09:10:35Z</time>
      </trkpt>
      <trkpt lat="54.441125448793173" lon="11.191941574215889">
        <ele>0</ele>
        <time>2010-01-03T09:10:54Z</time>
      </trkpt>
      <trkpt lat="54.441125448793173" lon="11.191941574215889">
        <ele>0</ele>
        <time>2010-01-03T08:49:23Z</time>
      </trkpt>
      <trkpt lat="54.440883547067642" lon="11.193172624334693">
        <ele>0</ele>
        <time>2010-01-03T08:49:53Z</time>
      </trkpt>
      <trkpt lat="54.440883547067642" lon="11.193172624334693">
        <ele>0</ele>
        <time>2010-01-03T08:33:16Z</time>
      </trkpt>
      <trkpt lat="54.440650111064315" lon="11.193870836868882">
        <ele>0</ele>
        <time>2010-01-03T08:33:35Z</time>
      </trkpt>
      <trkpt lat="54.440541816875339" lon="11.19419664144516">
        <ele>0</ele>
        <time>2010-01-03T08:33:43Z</time>
      </trkpt>
      <trkpt lat="54.440529495477676" lon="11.194240059703588">
        <ele>0</ele>
        <time>2010-01-03T08:33:44Z</time>
      </trkpt>
      <trkpt lat="54.440498230978847" lon="11.19435103610158">
        <ele>0</ele>
        <time>2010-01-03T08:33:47Z</time>
      </trkpt>
      <trkpt lat="54.440434444695711" lon="11.194272078573704">
        <ele>0</ele>
        <time>2010-01-03T08:33:50Z</time>
      </trkpt>
      <trkpt lat="54.440370323136449" lon="11.194198736920953">
        <ele>0</ele>
        <time>2010-01-03T08:33:54Z</time>
      </trkpt>
      <trkpt lat="54.440264794975519" lon="11.194095890969038">
        <ele>0</ele>
        <time>2010-01-03T08:33:58Z</time>
      </trkpt>
      <trkpt lat="54.439983079209924" lon="11.193908303976059">
        <ele>0</ele>
        <time>2010-01-03T08:34:10Z</time>
      </trkpt>
      <trkpt lat="54.439271120354533" lon="11.193474037572742">
        <ele>0</ele>
        <time>2010-01-03T08:34:41Z</time>
      </trkpt>
      <trkpt lat="54.438972724601626" lon="11.193324252963066">
        <ele>0</ele>
        <time>2010-01-03T08:34:53Z</time>
      </trkpt>
      <trkpt lat="54.438825957477093" lon="11.193273207172751">
        <ele>0</ele>
        <time>2010-01-03T08:34:59Z</time>
      </trkpt>
      <trkpt lat="54.438645159825683" lon="11.193232052028179">
        <ele>0</ele>
        <time>2010-01-03T08:35:06Z</time>
      </trkpt>
      <trkpt lat="54.438419518992305" lon="11.193213360384107">
        <ele>0</ele>
        <time>2010-01-03T08:35:15Z</time>
      </trkpt>
      <trkpt lat="54.438190357759595" lon="11.193208582699299">
        <ele>0</ele>
        <time>2010-01-03T08:35:25Z</time>
      </trkpt>
      <trkpt lat="54.438149034976959" lon="11.19333422742784">
        <ele>0</ele>
        <time>2010-01-03T08:35:28Z</time>
      </trkpt>
      <trkpt lat="54.437984330579638" lon="11.193836806342006">
        <ele>0</ele>
        <time>2010-01-03T08:35:41Z</time>
      </trkpt>
      <trkpt lat="54.437947366386652" lon="11.19394694454968">
        <ele>0</ele>
        <time>2010-01-03T08:35:44Z</time>
      </trkpt>
      <trkpt lat="54.437918197363615" lon="11.194021543487906">
        <ele>0</ele>
        <time>2010-01-03T08:35:47Z</time>
      </trkpt>
      <trkpt lat="54.437855165451765" lon="11.194129083305597">
        <ele>0</ele>
        <time>2010-01-03T08:35:50Z</time>
      </trkpt>
      <trkpt lat="54.437789199873805" lon="11.194213656708598">
        <ele>0</ele>
        <time>2010-01-03T08:35:53Z</time>
      </trkpt>
      <trkpt lat="54.437681157141924" lon="11.194311305880547">
        <ele>0</ele>
        <time>2010-01-03T08:35:58Z</time>
      </trkpt>
      <trkpt lat="54.43757202476263" lon="11.194381294772029">
        <ele>0</ele>
        <time>2010-01-03T08:36:03Z</time>
      </trkpt>
      <trkpt lat="54.437462640926242" lon="11.194408033043146">
        <ele>0</ele>
        <time>2010-01-03T08:36:07Z</time>
      </trkpt>
      <trkpt lat="54.437388880178332" lon="11.194400237873197">
        <ele>0</ele>
        <time>2010-01-03T08:36:10Z</time>
      </trkpt>
      <trkpt lat="54.437305983155966" lon="11.194367967545986">
        <ele>0</ele>
        <time>2010-01-03T08:36:14Z</time>
      </trkpt>
      <trkpt lat="54.437226774170995" lon="11.194337205961347">
        <ele>0</ele>
        <time>2010-01-03T08:36:17Z</time>
      </trkpt>
      <trkpt lat="54.436941370368004" lon="11.194253386929631">
        <ele>0</ele>
        <time>2010-01-03T08:36:29Z</time>
      </trkpt>
      <trkpt lat="54.436706677079201" lon="11.194216338917613">
        <ele>0</ele>
        <time>2010-01-03T08:36:38Z</time>
      </trkpt>
      <trkpt lat="54.436513474211097" lon="11.194210890680552">
        <ele>0</ele>
        <time>2010-01-03T08:36:46Z</time>
      </trkpt>
      <trkpt lat="54.436335694044828" lon="11.194226732477546">
        <ele>0</ele>
        <time>2010-01-03T08:36:53Z</time>
      </trkpt>
      <trkpt lat="54.436182137578726" lon="11.194238970056176">
        <ele>0</ele>
        <time>2010-01-03T08:36:59Z</time>
      </trkpt>
      <trkpt lat="54.436068143695593" lon="11.194264953956008">
        <ele>0</ele>
        <time>2010-01-03T08:37:04Z</time>
      </trkpt>
      <trkpt lat="54.436056576669216" lon="11.194267636165023">
        <ele>0</ele>
        <time>2010-01-03T08:37:04Z</time>
      </trkpt>
      <trkpt lat="54.435898745432496" lon="11.194315413013101">
        <ele>0</ele>
        <time>2010-01-03T08:37:10Z</time>
      </trkpt>
      <trkpt lat="54.435665896162391" lon="11.194420186802745">
        <ele>0</ele>
        <time>2010-01-03T08:37:20Z</time>
      </trkpt>
      <trkpt lat="54.435412427410483" lon="11.194537617266178">
        <ele>0</ele>
        <time>2010-01-03T08:37:31Z</time>
      </trkpt>
      <trkpt lat="54.435536814853549" lon="11.194732496514916">
        <ele>0</ele>
        <time>2010-01-03T08:37:37Z</time>
      </trkpt>
      <trkpt lat="54.435608647763729" lon="11.194858979433775">
        <ele>0</ele>
        <time>2010-01-03T08:37:41Z</time>
      </trkpt>
      <trkpt lat="54.435657933354378" lon="11.194975152611732">
        <ele>0</ele>
        <time>2010-01-03T08:37:45Z</time>
      </trkpt>
      <trkpt lat="54.435680899769068" lon="11.195062575861812">
        <ele>0</ele>
        <time>2010-01-03T08:37:47Z</time>
      </trkpt>
      <trkpt lat="54.435696909204125" lon="11.195162404328585">
        <ele>0</ele>
        <time>2010-01-03T08:37:49Z</time>
      </trkpt>
      <trkpt lat="54.435700345784426" lon="11.195271788164973">
        <ele>0</ele>
        <time>2010-01-03T08:37:52Z</time>
      </trkpt>
      <trkpt lat="54.435694562271237" lon="11.195358205586672">
        <ele>0</ele>
        <time>2010-01-03T08:37:54Z</time>
      </trkpt>
      <trkpt lat="54.435679223388433" lon="11.195478653535247">
        <ele>0</ele>
        <time>2010-01-03T08:37:57Z</time>
      </trkpt>
      <trkpt lat="54.435656759887934" lon="11.195610081776977">
        <ele>0</ele>
        <time>2010-01-03T08:38:00Z</time>
      </trkpt>
      <trkpt lat="54.435601523146033" lon="11.195816192775965">
        <ele>0</ele>
        <time>2010-01-03T08:38:05Z</time>
      </trkpt>
      <trkpt lat="54.435552237555385" lon="11.195971257984638">
        <ele>0</ele>
        <time>2010-01-03T08:38:09Z</time>
      </trkpt>
      <trkpt lat="54.435539580881596" lon="11.196100926026702">
        <ele>0</ele>
        <time>2010-01-03T08:38:13Z</time>
      </trkpt>
      <trkpt lat="54.435540251433849" lon="11.196201089769602">
        <ele>0</ele>
        <time>2010-01-03T08:38:15Z</time>
      </trkpt>
      <trkpt lat="54.435558188706636" lon="11.196322543546557">
        <ele>0</ele>
        <time>2010-01-03T08:38:18Z</time>
      </trkpt>
      <trkpt lat="54.435598673298955" lon="11.196471238508821">
        <ele>0</ele>
        <time>2010-01-03T08:38:22Z</time>
      </trkpt>
      <trkpt lat="54.435749799013138" lon="11.196904415264726">
        <ele>0</ele>
        <time>2010-01-03T08:38:33Z</time>
      </trkpt>
      <trkpt lat="54.435526002198458" lon="11.197037603706121">
        <ele>0</ele>
        <time>2010-01-03T08:38:43Z</time>
      </trkpt>
      <trkpt lat="54.435487613081932" lon="11.197060570120811">
        <ele>0</ele>
        <time>2010-01-03T08:38:44Z</time>
      </trkpt>
      <trkpt lat="54.435341851785779" lon="11.197171295061707">
        <ele>0</ele>
        <time>2010-01-03T08:38:51Z</time>
      </trkpt>
      <trkpt lat="54.435233641415834" lon="11.197244301438332">
        <ele>0</ele>
        <time>2010-01-03T08:38:56Z</time>
      </trkpt>
      <trkpt lat="54.435111097991467" lon="11.197320660576224">
        <ele>0</ele>
        <time>2010-01-03T08:39:01Z</time>
      </trkpt>
      <trkpt lat="54.43497690372169" lon="11.197400288656354">
        <ele>0</ele>
        <time>2010-01-03T08:39:06Z</time>
      </trkpt>
      <trkpt lat="54.434820245951414" lon="11.197488131001592">
        <ele>0</ele>
        <time>2010-01-03T08:39:13Z</time>
      </trkpt>
      <trkpt lat="54.434596449136734" lon="11.197615787386894">
        <ele>0</ele>
        <time>2010-01-03T08:39:22Z</time>
      </trkpt>
      <trkpt lat="54.434633329510689" lon="11.197750736027956">
        <ele>0</ele>
        <time>2010-01-03T08:39:26Z</time>
      </trkpt>
      <trkpt lat="54.434675490483642" lon="11.197885517030954">
        <ele>0</ele>
        <time>2010-01-03T08:39:29Z</time>
      </trkpt>
      <trkpt lat="54.434715807437897" lon="11.197997247800231">
        <ele>0</ele>
        <time>2010-01-03T08:39:33Z</time>
      </trkpt>
      <trkpt lat="54.434766098856926" lon="11.198134962469339">
        <ele>0</ele>
        <time>2010-01-03T08:39:36Z</time>
      </trkpt>
      <trkpt lat="54.434845307841897" lon="11.198287513107061">
        <ele>0</ele>
        <time>2010-01-03T08:39:41Z</time>
      </trkpt>
      <trkpt lat="54.43491336889565" lon="11.198397148400545">
        <ele>0</ele>
        <time>2010-01-03T08:39:45Z</time>
      </trkpt>
      <trkpt lat="54.43497053347528" lon="11.198479207232594">
        <ele>0</ele>
        <time>2010-01-03T08:39:48Z</time>
      </trkpt>
      <trkpt lat="54.435024010017514" lon="11.198542909696698">
        <ele>0</ele>
        <time>2010-01-03T08:39:50Z</time>
      </trkpt>
      <trkpt lat="54.435107996687293" lon="11.198615245521069">
        <ele>0</ele>
        <time>2010-01-03T08:39:54Z</time>
      </trkpt>
      <trkpt lat="54.435171196237206" lon="11.198657155036926">
        <ele>0</ele>
        <time>2010-01-03T08:39:57Z</time>
      </trkpt>
      <trkpt lat="54.435230707749724" lon="11.198693616315722">
        <ele>0</ele>
        <time>2010-01-03T08:39:59Z</time>
      </trkpt>
      <trkpt lat="54.435494570061564" lon="11.198855387046933">
        <ele>0</ele>
        <time>2010-01-03T08:40:11Z</time>
      </trkpt>
      <trkpt lat="54.435823643580079" lon="11.199056971818209">
        <ele>0</ele>
        <time>2010-01-03T08:40:25Z</time>
      </trkpt>
      <trkpt lat="54.436348350718617" lon="11.199378585442901">
        <ele>0</ele>
        <time>2010-01-03T08:40:47Z</time>
      </trkpt>
      <trkpt lat="54.436245337128639" lon="11.199691900983453">
        <ele>0</ele>
        <time>2010-01-03T08:40:55Z</time>
      </trkpt>
      <trkpt lat="54.436167804524302" lon="11.199930785223842">
        <ele>0</ele>
        <time>2010-01-03T08:41:02Z</time>
      </trkpt>
      <trkpt lat="54.436158165335655" lon="11.199963307008147">
        <ele>0</ele>
        <time>2010-01-03T08:41:03Z</time>
      </trkpt>
      <trkpt lat="54.436085997149348" lon="11.200191294774413">
        <ele>0</ele>
        <time>2010-01-03T08:41:09Z</time>
      </trkpt>
      <trkpt lat="54.436009470373392" lon="11.200440907850862">
        <ele>0</ele>
        <time>2010-01-03T08:41:15Z</time>
      </trkpt>
      <trkpt lat="54.435948031023145" lon="11.200653221458197">
        <ele>0</ele>
        <time>2010-01-03T08:41:21Z</time>
      </trkpt>
      <trkpt lat="54.435852058231831" lon="11.20106091722846">
        <ele>0</ele>
        <time>2010-01-03T08:41:31Z</time>
      </trkpt>
      <trkpt lat="54.436291605234146" lon="11.201306590810418">
        <ele>0</ele>
        <time>2010-01-03T08:41:49Z</time>
      </trkpt>
      <trkpt lat="54.436442647129297" lon="11.201393846422434">
        <ele>0</ele>
        <time>2010-01-03T08:41:56Z</time>
      </trkpt>
      <trkpt lat="54.436599221080542" lon="11.201440868899226">
        <ele>0</ele>
        <time>2010-01-03T08:42:02Z</time>
      </trkpt>
      <trkpt lat="54.436752442270517" lon="11.201457800343633">
        <ele>0</ele>
        <time>2010-01-03T08:42:08Z</time>
      </trkpt>
      <trkpt lat="54.437028793618083" lon="11.201471714302897">
        <ele>0</ele>
        <time>2010-01-03T08:42:19Z</time>
      </trkpt>
      <trkpt lat="54.437353508546948" lon="11.201471211388707">
        <ele>0</ele>
        <time>2010-01-03T08:42:32Z</time>
      </trkpt>
      <trkpt lat="54.437418635934591" lon="11.201467690989375">
        <ele>0</ele>
        <time>2010-01-03T08:42:35Z</time>
      </trkpt>
      <trkpt lat="54.438410885632038" lon="11.201522340998054">
        <ele>0</ele>
        <time>2010-01-03T08:43:15Z</time>
      </trkpt>
      <trkpt lat="54.439481673762202" lon="11.201486801728606">
        <ele>0</ele>
        <time>2010-01-03T08:43:58Z</time>
      </trkpt>
      <trkpt lat="54.440215257927775" lon="11.201852587983012">
        <ele>0</ele>
        <time>2010-01-03T08:44:28Z</time>
      </trkpt>
      <trkpt lat="54.440321289002895" lon="11.201541870832443">
        <ele>0</ele>
        <time>2010-01-03T08:49:15Z</time>
      </trkpt>
      <trkpt lat="54.441023441031575" lon="11.201647985726595">
        <ele>0</ele>
        <time>2010-01-03T08:48:46Z</time>
      </trkpt>
      <trkpt lat="54.441228713840246" lon="11.201317068189383">
        <ele>0</ele>
        <time>2010-01-03T08:48:35Z</time>
      </trkpt>
      <trkpt lat="54.441725760698318" lon="11.201487220823765">
        <ele>0</ele>
        <time>2010-01-03T08:48:15Z</time>
      </trkpt>
      <trkpt lat="54.44170874543488" lon="11.201089834794402">
        <ele>0</ele>
        <time>2010-01-03T08:48:05Z</time>
      </trkpt>
      <trkpt lat="54.441689215600491" lon="11.200586250051856">
        <ele>0</ele>
        <time>2010-01-03T08:47:54Z</time>
      </trkpt>
      <trkpt lat="54.441663650795817" lon="11.200121222063899">
        <ele>0</ele>
        <time>2010-01-03T08:47:43Z</time>
      </trkpt>
      <trkpt lat="54.441667506471276" lon="11.199107011780143">
        <ele>0</ele>
        <time>2010-01-03T08:47:19Z</time>
      </trkpt>
      <trkpt lat="54.441682007163763" lon="11.198310060426593">
        <ele>0</ele>
        <time>2010-01-03T08:47:01Z</time>
      </trkpt>
      <trkpt lat="54.441738417372108" lon="11.197401378303766">
        <ele>0</ele>
        <time>2010-01-03T08:46:39Z</time>
      </trkpt>
      <trkpt lat="54.44144731387496" lon="11.197340190410614">
        <ele>0</ele>
        <time>2010-01-03T08:46:28Z</time>
      </trkpt>
      <trkpt lat="54.441238269209862" lon="11.197146652266383">
        <ele>0</ele>
        <time>2010-01-03T08:46:18Z</time>
      </trkpt>
      <trkpt lat="54.441227037459612" lon="11.19703215546906">
        <ele>0</ele>
        <time>2010-01-03T08:46:15Z</time>
      </trkpt>
      <trkpt lat="54.441321166232228" lon="11.196239478886127">
        <ele>0</ele>
        <time>2010-01-03T08:45:57Z</time>
      </trkpt>
      <trkpt lat="54.441473381593823" lon="11.195176402106881">
        <ele>0</ele>
        <time>2010-01-03T08:45:31Z</time>
      </trkpt>
      <trkpt lat="54.441566253080964" lon="11.194452038034797">
        <ele>0</ele>
        <time>2010-01-03T08:45:14Z</time>
      </trkpt>
      <trkpt lat="54.441551249474287" lon="11.193813001736999">
        <ele>0</ele>
        <time>2010-01-03T08:44:59Z</time>
      </trkpt>
      <trkpt lat="54.441421832889318" lon="11.193623738363385">
        <ele>0</ele>
        <time>2010-01-03T08:44:52Z</time>
      </trkpt>
      <trkpt lat="54.441252686083317" lon="11.193432379513979">
        <ele>0</ele>
        <time>2010-01-03T08:44:44Z</time>
      </trkpt>
      <trkpt lat="54.440883547067642" lon="11.193172624334693">
        <ele>0</ele>
        <time>2010-01-03T08:44:28Z</time>
      </trkpt>
      <trkpt lat="54.440883547067642" lon="11.193172624334693">
        <ele>0</ele>
        <time>2010-01-03T08:44:28Z</time>
      </trkpt>
      <trkpt lat="54.441252686083317" lon="11.193432379513979">
        <ele>0</ele>
        <time>2010-01-03T08:44:44Z</time>
      </trkpt>
      <trkpt lat="54.441421832889318" lon="11.193623738363385">
        <ele>0</ele>
        <time>2010-01-03T08:44:52Z</time>
      </trkpt>
      <trkpt lat="54.441551249474287" lon="11.193813001736999">
        <ele>0</ele>
        <time>2010-01-03T08:44:59Z</time>
      </trkpt>
      <trkpt lat="54.441566253080964" lon="11.194452038034797">
        <ele>0</ele>
        <time>2010-01-03T08:45:14Z</time>
      </trkpt>
      <trkpt lat="54.441473381593823" lon="11.195176402106881">
        <ele>0</ele>
        <time>2010-01-03T08:45:31Z</time>
      </trkpt>
      <trkpt lat="54.441321166232228" lon="11.196239478886127">
        <ele>0</ele>
        <time>2010-01-03T08:45:57Z</time>
      </trkpt>
      <trkpt lat="54.441227037459612" lon="11.19703215546906">
        <ele>0</ele>
        <time>2010-01-03T08:46:15Z</time>
      </trkpt>
      <trkpt lat="54.441238269209862" lon="11.197146652266383">
        <ele>0</ele>
        <time>2010-01-03T08:46:18Z</time>
      </trkpt>
      <trkpt lat="54.44144731387496" lon="11.197340190410614">
        <ele>0</ele>
        <time>2010-01-03T08:46:28Z</time>
      </trkpt>
      <trkpt lat="54.441738417372108" lon="11.197401378303766">
        <ele>0</ele>
        <time>2010-01-03T08:46:39Z</time>
      </trkpt>
      <trkpt lat="54.441682007163763" lon="11.198310060426593">
        <ele>0</ele>
        <time>2010-01-03T08:47:01Z</time>
      </trkpt>
      <trkpt lat="54.441667506471276" lon="11.199107011780143">
        <ele>0</ele>
        <time>2010-01-03T08:47:19Z</time>
      </trkpt>
      <trkpt lat="54.441663650795817" lon="11.200121222063899">
        <ele>0</ele>
        <time>2010-01-03T08:47:43Z</time>
      </trkpt>
      <trkpt lat="54.441689215600491" lon="11.200586250051856">
        <ele>0</ele>
        <time>2010-01-03T08:47:54Z</time>
      </trkpt>
      <trkpt lat="54.44170874543488" lon="11.201089834794402">
        <ele>0</ele>
        <time>2010-01-03T08:48:05Z</time>
      </trkpt>
      <trkpt lat="54.441725760698318" lon="11.201487220823765">
        <ele>0</ele>
        <time>2010-01-03T08:48:15Z</time>
      </trkpt>
      <trkpt lat="54.441228713840246" lon="11.201317068189383">
        <ele>0</ele>
        <time>2010-01-03T08:48:35Z</time>
      </trkpt>
      <trkpt lat="54.441023441031575" lon="11.201647985726595">
        <ele>0</ele>
        <time>2010-01-03T08:48:46Z</time>
      </trkpt>
      <trkpt lat="54.440321289002895" lon="11.201541870832443">
        <ele>0</ele>
        <time>2010-01-03T08:49:15Z</time>
      </trkpt>
      <trkpt lat="54.440215257927775" lon="11.201852587983012">
        <ele>0</ele>
        <time>2010-01-03T07:55:04Z</time>
      </trkpt>
      <trkpt lat="54.440134791657329" lon="11.202187025919557">
        <ele>0</ele>
        <time>2010-01-03T07:55:13Z</time>
      </trkpt>
      <trkpt lat="54.440033873543143" lon="11.202549710869789">
        <ele>0</ele>
        <time>2010-01-03T07:55:22Z</time>
      </trkpt>
      <trkpt lat="54.439976206049323" lon="11.202798988670111">
        <ele>0</ele>
        <time>2010-01-03T07:55:28Z</time>
      </trkpt>
      <trkpt lat="54.439926669001579" lon="11.203055726364255">
        <ele>0</ele>
        <time>2010-01-03T07:55:35Z</time>
      </trkpt>
      <trkpt lat="54.43988174200058" lon="11.203318666666746">
        <ele>0</ele>
        <time>2010-01-03T07:55:41Z</time>
      </trkpt>
      <trkpt lat="54.439830193296075" lon="11.20368336327374">
        <ele>0</ele>
        <time>2010-01-03T07:55:50Z</time>
      </trkpt>
      <trkpt lat="54.439794989302754" lon="11.204060129821301">
        <ele>0</ele>
        <time>2010-01-03T07:55:59Z</time>
      </trkpt>
      <trkpt lat="54.439750732854009" lon="11.204435555264354">
        <ele>0</ele>
        <time>2010-01-03T07:56:08Z</time>
      </trkpt>
      <trkpt lat="54.439745368435979" lon="11.204494563862681">
        <ele>0</ele>
        <time>2010-01-03T07:56:09Z</time>
      </trkpt>
      <trkpt lat="54.43971804343164" lon="11.204792205244303">
        <ele>0</ele>
        <time>2010-01-03T07:56:16Z</time>
      </trkpt>
      <trkpt lat="54.439701279625297" lon="11.204980546608567">
        <ele>0</ele>
        <time>2010-01-03T07:56:20Z</time>
      </trkpt>
      <trkpt lat="54.439677642658353" lon="11.205213814973831">
        <ele>0</ele>
        <time>2010-01-03T07:56:26Z</time>
      </trkpt>
      <trkpt lat="54.439651574939489" lon="11.205477844923735">
        <ele>0</ele>
        <time>2010-01-03T07:56:32Z</time>
      </trkpt>
      <trkpt lat="54.439630368724465" lon="11.205806583166122">
        <ele>0</ele>
        <time>2010-01-03T07:56:40Z</time>
      </trkpt>
      <trkpt lat="54.439613521099091" lon="11.206113612279296">
        <ele>0</ele>
        <time>2010-01-03T07:56:47Z</time>
      </trkpt>
      <trkpt lat="54.439601367339492" lon="11.206454420462251">
        <ele>0</ele>
        <time>2010-01-03T07:56:55Z</time>
      </trkpt>
      <trkpt lat="54.439562475308776" lon="11.207096390426159">
        <ele>0</ele>
        <time>2010-01-03T07:57:10Z</time>
      </trkpt>
      <trkpt lat="54.439541772007942" lon="11.207371149212122">
        <ele>0</ele>
        <time>2010-01-03T07:57:17Z</time>
      </trkpt>
      <trkpt lat="54.439512938261032" lon="11.20762906037271">
        <ele>0</ele>
        <time>2010-01-03T07:57:23Z</time>
      </trkpt>
      <trkpt lat="54.439478321000934" lon="11.207825448364019">
        <ele>0</ele>
        <time>2010-01-03T07:57:27Z</time>
      </trkpt>
      <trkpt lat="54.4394351541996" lon="11.208096016198397">
        <ele>0</ele>
        <time>2010-01-03T07:57:34Z</time>
      </trkpt>
      <trkpt lat="54.439383773133159" lon="11.208345210179687">
        <ele>0</ele>
        <time>2010-01-03T07:57:40Z</time>
      </trkpt>
      <trkpt lat="54.439361980184913" lon="11.208444200456142">
        <ele>0</ele>
        <time>2010-01-03T07:57:43Z</time>
      </trkpt>
      <trkpt lat="54.43932618945837" lon="11.208611419424415">
        <ele>0</ele>
        <time>2010-01-03T07:57:47Z</time>
      </trkpt>
      <trkpt lat="54.439269443973899" lon="11.208852902054787">
        <ele>0</ele>
        <time>2010-01-03T07:57:53Z</time>
      </trkpt>
      <trkpt lat="54.439209764823318" lon="11.209076028317213">
        <ele>0</ele>
        <time>2010-01-03T07:57:58Z</time>
      </trkpt>
      <trkpt lat="54.439174560829997" lon="11.209189184010029">
        <ele>0</ele>
        <time>2010-01-03T07:58:01Z</time>
      </trkpt>
      <trkpt lat="54.439105913043022" lon="11.209407867863774">
        <ele>0</ele>
        <time>2010-01-03T07:58:07Z</time>
      </trkpt>
      <trkpt lat="54.439086718484759" lon="11.209462601691484">
        <ele>0</ele>
        <time>2010-01-03T07:58:09Z</time>
      </trkpt>
      <trkpt lat="54.439038941636682" lon="11.20959872379899">
        <ele>0</ele>
        <time>2010-01-03T07:58:12Z</time>
      </trkpt>
      <trkpt lat="54.438952440395951" lon="11.209839284420013">
        <ele>0</ele>
        <time>2010-01-03T07:58:19Z</time>
      </trkpt>
      <trkpt lat="54.438864681869745" lon="11.21002284809947">
        <ele>0</ele>
        <time>2010-01-03T07:58:25Z</time>
      </trkpt>
      <trkpt lat="54.438782958313823" lon="11.210156958550215">
        <ele>0</ele>
        <time>2010-01-03T07:58:29Z</time>
      </trkpt>
      <trkpt lat="54.438712717965245" lon="11.210272377356887">
        <ele>0</ele>
        <time>2010-01-03T07:58:33Z</time>
      </trkpt>
      <trkpt lat="54.438660247251391" lon="11.210356615483761">
        <ele>0</ele>
        <time>2010-01-03T07:58:36Z</time>
      </trkpt>
      <trkpt lat="54.438647758215666" lon="11.210375307127833">
        <ele>0</ele>
        <time>2010-01-03T07:58:37Z</time>
      </trkpt>
      <trkpt lat="54.438594868406653" lon="11.210524253547192">
        <ele>0</ele>
        <time>2010-01-03T07:58:41Z</time>
      </trkpt>
      <trkpt lat="54.438560670241714" lon="11.210657525807619">
        <ele>0</ele>
        <time>2010-01-03T07:58:44Z</time>
      </trkpt>
      <trkpt lat="54.438487496227026" lon="11.211004117503762">
        <ele>0</ele>
        <time>2010-01-03T07:58:53Z</time>
      </trkpt>
      <trkpt lat="54.438165128231049" lon="11.212405152618885">
        <ele>0</ele>
        <time>2010-01-03T07:59:28Z</time>
      </trkpt>
      <trkpt lat="54.438142916187644" lon="11.212491234764457">
        <ele>0</ele>
        <time>2010-01-03T07:59:30Z</time>
      </trkpt>
      <trkpt lat="54.438107460737228" lon="11.212667003273964">
        <ele>0</ele>
        <time>2010-01-03T07:59:34Z</time>
      </trkpt>
      <trkpt lat="54.438103772699833" lon="11.212794408202171">
        <ele>0</ele>
        <time>2010-01-03T07:59:37Z</time>
      </trkpt>
      <trkpt lat="54.438119530677795" lon="11.212842520326376">
        <ele>0</ele>
        <time>2010-01-03T07:59:38Z</time>
      </trkpt>
      <trkpt lat="54.438134953379631" lon="11.212889375165105">
        <ele>0</ele>
        <time>2010-01-03T07:59:40Z</time>
      </trkpt>
      <trkpt lat="54.438202092424035" lon="11.212996076792479">
        <ele>0</ele>
        <time>2010-01-03T07:59:43Z</time>
      </trkpt>
      <trkpt lat="54.438278954476118" lon="11.213065562769771">
        <ele>0</ele>
        <time>2010-01-03T07:59:47Z</time>
      </trkpt>
      <trkpt lat="54.438343914225698" lon="11.213111327961087">
        <ele>0</ele>
        <time>2010-01-03T07:59:50Z</time>
      </trkpt>
      <trkpt lat="54.43837383762002" lon="11.213136306032538">
        <ele>0</ele>
        <time>2010-01-03T07:59:51Z</time>
      </trkpt>
      <trkpt lat="54.438901897519827" lon="11.213386673480272">
        <ele>0</ele>
        <time>2010-01-03T08:00:13Z</time>
      </trkpt>
      <trkpt lat="54.440377112478018" lon="11.2140828743577">
        <ele>0</ele>
        <time>2010-01-03T08:01:14Z</time>
      </trkpt>
      <trkpt lat="54.440845157951117" lon="11.214305832982063">
        <ele>0</ele>
        <time>2010-01-03T08:01:34Z</time>
      </trkpt>
      <trkpt lat="54.440964767709374" lon="11.214393423870206">
        <ele>0</ele>
        <time>2010-01-03T08:01:39Z</time>
      </trkpt>
      <trkpt lat="54.441046072170138" lon="11.214456623420119">
        <ele>0</ele>
        <time>2010-01-03T08:01:42Z</time>
      </trkpt>
      <trkpt lat="54.441085886210203" lon="11.214575311169028">
        <ele>0</ele>
        <time>2010-01-03T08:01:46Z</time>
      </trkpt>
      <trkpt lat="54.441096782684326" lon="11.214665416628122">
        <ele>0</ele>
        <time>2010-01-03T08:01:48Z</time>
      </trkpt>
      <trkpt lat="54.44107792340219" lon="11.214799275621772">
        <ele>0</ele>
        <time>2010-01-03T08:01:51Z</time>
      </trkpt>
      <trkpt lat="54.440808026120067" lon="11.216557212173939">
        <ele>0</ele>
        <time>2010-01-03T08:02:33Z</time>
      </trkpt>
      <trkpt lat="54.440680956467986" lon="11.21738500893116">
        <ele>0</ele>
        <time>2010-01-03T08:02:53Z</time>
      </trkpt>
      <trkpt lat="54.440657570958138" lon="11.217636214569211">
        <ele>0</ele>
        <time>2010-01-03T08:02:59Z</time>
      </trkpt>
      <trkpt lat="54.440660253167152" lon="11.21785213239491">
        <ele>0</ele>
        <time>2010-01-03T08:03:04Z</time>
      </trkpt>
      <trkpt lat="54.440692691132426" lon="11.218074420467019">
        <ele>0</ele>
        <time>2010-01-03T08:03:09Z</time>
      </trkpt>
      <trkpt lat="54.440753795206547" lon="11.218347921967506">
        <ele>0</ele>
        <time>2010-01-03T08:03:16Z</time>
      </trkpt>
      <trkpt lat="54.440818084403872" lon="11.218618908897042">
        <ele>0</ele>
        <time>2010-01-03T08:03:23Z</time>
      </trkpt>
      <trkpt lat="54.441078007221222" lon="11.219511749222875">
        <ele>0</ele>
        <time>2010-01-03T08:03:46Z</time>
      </trkpt>
      <trkpt lat="54.441135926172137" lon="11.219721967354417">
        <ele>0</ele>
        <time>2010-01-03T08:03:52Z</time>
      </trkpt>
      <trkpt lat="54.44118931889534" lon="11.219919780269265">
        <ele>0</ele>
        <time>2010-01-03T08:03:57Z</time>
      </trkpt>
      <trkpt lat="54.441258888691664" lon="11.220124969258904">
        <ele>0</ele>
        <time>2010-01-03T08:04:02Z</time>
      </trkpt>
      <trkpt lat="54.441517889499664" lon="11.220864588394761">
        <ele>0</ele>
        <time>2010-01-03T08:04:22Z</time>
      </trkpt>
      <trkpt lat="54.441536664962769" lon="11.220921836793423">
        <ele>0</ele>
        <time>2010-01-03T08:04:24Z</time>
      </trkpt>
      <trkpt lat="54.441780159249902" lon="11.22163949534297">
        <ele>0</ele>
        <time>2010-01-03T08:04:43Z</time>
      </trkpt>
      <trkpt lat="54.441820560023189" lon="11.221712753176689">
        <ele>0</ele>
        <time>2010-01-03T08:04:46Z</time>
      </trkpt>
      <trkpt lat="54.441873449832201" lon="11.221758769825101">
        <ele>0</ele>
        <time>2010-01-03T08:04:48Z</time>
      </trkpt>
      <trkpt lat="54.441940924152732" lon="11.22177679091692">
        <ele>0</ele>
        <time>2010-01-03T08:04:51Z</time>
      </trkpt>
      <trkpt lat="54.44286041893065" lon="11.221812078729272">
        <ele>0</ele>
        <time>2010-01-03T08:05:28Z</time>
      </trkpt>
      <trkpt lat="54.442916829138994" lon="11.221855664625764">
        <ele>0</ele>
        <time>2010-01-03T08:05:30Z</time>
      </trkpt>
      <trkpt lat="54.44294692017138" lon="11.221929844468832">
        <ele>0</ele>
        <time>2010-01-03T08:05:32Z</time>
      </trkpt>
      <trkpt lat="54.442955804988742" lon="11.222049286589026">
        <ele>0</ele>
        <time>2010-01-03T08:05:35Z</time>
      </trkpt>
      <trkpt lat="54.442963767796755" lon="11.223007421940565">
        <ele>0</ele>
        <time>2010-01-03T08:05:57Z</time>
      </trkpt>
      <trkpt lat="54.442970892414451" lon="11.223417297005653">
        <ele>0</ele>
        <time>2010-01-03T08:06:07Z</time>
      </trkpt>
      <trkpt lat="54.442981788888574" lon="11.224138475954533">
        <ele>0</ele>
        <time>2010-01-03T08:06:24Z</time>
      </trkpt>
      <trkpt lat="54.443001570180058" lon="11.224985886365175">
        <ele>0</ele>
        <time>2010-01-03T08:06:43Z</time>
      </trkpt>
      <trkpt lat="54.443028895184398" lon="11.225600447505713">
        <ele>0</ele>
        <time>2010-01-03T08:06:58Z</time>
      </trkpt>
      <trkpt lat="54.443030906841159" lon="11.225626850500703">
        <ele>0</ele>
        <time>2010-01-03T08:06:58Z</time>
      </trkpt>
      <trkpt lat="54.443039707839489" lon="11.225745119154453">
        <ele>0</ele>
        <time>2010-01-03T08:07:01Z</time>
      </trkpt>
      <trkpt lat="54.443044736981392" lon="11.225792141631246">
        <ele>0</ele>
        <time>2010-01-03T08:07:02Z</time>
      </trkpt>
      <trkpt lat="54.443046245723963" lon="11.22580605559051">
        <ele>0</ele>
        <time>2010-01-03T08:07:02Z</time>
      </trkpt>
      <trkpt lat="54.443054040893912" lon="11.225878978148103">
        <ele>0</ele>
        <time>2010-01-03T08:07:04Z</time>
      </trkpt>
      <trkpt lat="54.443095615133643" lon="11.226056925952435">
        <ele>0</ele>
        <time>2010-01-03T08:07:09Z</time>
      </trkpt>
      <trkpt lat="54.443134004250169" lon="11.226299749687314">
        <ele>0</ele>
        <time>2010-01-03T08:07:15Z</time>
      </trkpt>
      <trkpt lat="54.443157725036144" lon="11.22649353928864">
        <ele>0</ele>
        <time>2010-01-03T08:07:19Z</time>
      </trkpt>
      <trkpt lat="54.443174907937646" lon="11.226658159866929">
        <ele>0</ele>
        <time>2010-01-03T08:07:23Z</time>
      </trkpt>
      <trkpt lat="54.443192258477211" lon="11.226841220632195">
        <ele>0</ele>
        <time>2010-01-03T08:07:27Z</time>
      </trkpt>
      <trkpt lat="54.443202903494239" lon="11.227096952497959">
        <ele>0</ele>
        <time>2010-01-03T08:07:33Z</time>
      </trkpt>
      <trkpt lat="54.443223271518946" lon="11.227333908900619">
        <ele>0</ele>
        <time>2010-01-03T08:07:39Z</time>
      </trkpt>
      <trkpt lat="54.443241795524955" lon="11.227421415969729">
        <ele>0</ele>
        <time>2010-01-03T08:07:41Z</time>
      </trkpt>
      <trkpt lat="54.443274904042482" lon="11.227544127032161">
        <ele>0</ele>
        <time>2010-01-03T08:07:44Z</time>
      </trkpt>
      <trkpt lat="54.443322848528624" lon="11.227735904976726">
        <ele>0</ele>
        <time>2010-01-03T08:07:49Z</time>
      </trkpt>
      <trkpt lat="54.443435249850154" lon="11.228032875806093">
        <ele>0</ele>
        <time>2010-01-03T08:07:57Z</time>
      </trkpt>
      <trkpt lat="54.443502221256495" lon="11.228248961269855">
        <ele>0</ele>
        <time>2010-01-03T08:08:03Z</time>
      </trkpt>
      <trkpt lat="54.443539939820766" lon="11.228388519957662">
        <ele>0</ele>
        <time>2010-01-03T08:08:07Z</time>
      </trkpt>
      <trkpt lat="54.443571288138628" lon="11.228512739762664">
        <ele>0</ele>
        <time>2010-01-03T08:08:10Z</time>
      </trkpt>
      <trkpt lat="54.443589057773352" lon="11.228629583492875">
        <ele>0</ele>
        <time>2010-01-03T08:08:13Z</time>
      </trkpt>
      <trkpt lat="54.443597188219428" lon="11.228772746399045">
        <ele>0</ele>
        <time>2010-01-03T08:08:16Z</time>
      </trkpt>
      <trkpt lat="54.443602384999394" lon="11.228882130235434">
        <ele>0</ele>
        <time>2010-01-03T08:08:18Z</time>
      </trkpt>
      <trkpt lat="54.443603055551648" lon="11.228990005329251">
        <ele>0</ele>
        <time>2010-01-03T08:08:21Z</time>
      </trkpt>
      <trkpt lat="54.443603055551648" lon="11.229196703061461">
        <ele>0</ele>
        <time>2010-01-03T08:08:26Z</time>
      </trkpt>
      <trkpt lat="54.443581849336624" lon="11.229932550340891">
        <ele>0</ele>
        <time>2010-01-03T08:08:43Z</time>
      </trkpt>
      <trkpt lat="54.443560726940632" lon="11.230665128678083">
        <ele>0</ele>
        <time>2010-01-03T08:09:00Z</time>
      </trkpt>
      <trkpt lat="54.443533569574356" lon="11.231202492490411">
        <ele>0</ele>
        <time>2010-01-03T08:09:13Z</time>
      </trkpt>
      <trkpt lat="54.443521834909916" lon="11.231618151068687">
        <ele>0</ele>
        <time>2010-01-03T08:09:22Z</time>
      </trkpt>
      <trkpt lat="54.443518733605742" lon="11.232111426070333">
        <ele>0</ele>
        <time>2010-01-03T08:09:34Z</time>
      </trkpt>
      <trkpt lat="54.443531725555658" lon="11.232456509023905">
        <ele>0</ele>
        <time>2010-01-03T08:09:42Z</time>
      </trkpt>
      <trkpt lat="54.443558128550649" lon="11.232805866748095">
        <ele>0</ele>
        <time>2010-01-03T08:09:50Z</time>
      </trkpt>
      <trkpt lat="54.443589560687542" lon="11.233229152858257">
        <ele>0</ele>
        <time>2010-01-03T08:10:00Z</time>
      </trkpt>
      <trkpt lat="54.443624345585704" lon="11.233613882213831">
        <ele>0</ele>
        <time>2010-01-03T08:10:09Z</time>
      </trkpt>
      <trkpt lat="54.443636666983366" lon="11.23370767571032">
        <ele>0</ele>
        <time>2010-01-03T08:10:11Z</time>
      </trkpt>
      <trkpt lat="54.443647898733616" lon="11.233778418973088">
        <ele>0</ele>
        <time>2010-01-03T08:10:13Z</time>
      </trkpt>
      <trkpt lat="54.443666338920593" lon="11.233859723433852">
        <ele>0</ele>
        <time>2010-01-03T08:10:15Z</time>
      </trkpt>
      <trkpt lat="54.443693915382028" lon="11.233957875519991">
        <ele>0</ele>
        <time>2010-01-03T08:10:18Z</time>
      </trkpt>
      <trkpt lat="54.444163385778666" lon="11.235316414386034">
        <ele>0</ele>
        <time>2010-01-03T08:10:54Z</time>
      </trkpt>
      <trkpt lat="54.444363629445434" lon="11.235864507034421">
        <ele>0</ele>
        <time>2010-01-03T08:11:09Z</time>
      </trkpt>
      <trkpt lat="54.444563118740916" lon="11.236443445086479">
        <ele>0</ele>
        <time>2010-01-03T08:11:25Z</time>
      </trkpt>
      <trkpt lat="54.444726398214698" lon="11.236972259357572">
        <ele>0</ele>
        <time>2010-01-03T08:11:39Z</time>
      </trkpt>
      <trkpt lat="54.444821029901505" lon="11.237303428351879">
        <ele>0</ele>
        <time>2010-01-03T08:11:48Z</time>
      </trkpt>
      <trkpt lat="54.444892611354589" lon="11.237544156610966">
        <ele>0</ele>
        <time>2010-01-03T08:11:54Z</time>
      </trkpt>
      <trkpt lat="54.444939298555255" lon="11.237689750269055">
        <ele>0</ele>
        <time>2010-01-03T08:11:58Z</time>
      </trkpt>
      <trkpt lat="54.445017836987972" lon="11.237891754135489">
        <ele>0</ele>
        <time>2010-01-03T08:12:03Z</time>
      </trkpt>
      <trkpt lat="54.445156054571271" lon="11.238293079659343">
        <ele>0</ele>
        <time>2010-01-03T08:12:14Z</time>
      </trkpt>
      <trkpt lat="54.445341546088457" lon="11.238784426823258">
        <ele>0</ele>
        <time>2010-01-03T08:12:28Z</time>
      </trkpt>
      <trkpt lat="54.445539023727179" lon="11.23933419585228">
        <ele>0</ele>
        <time>2010-01-03T08:12:43Z</time>
      </trkpt>
      <trkpt lat="54.445609515532851" lon="11.239542486146092">
        <ele>0</ele>
        <time>2010-01-03T08:12:49Z</time>
      </trkpt>
      <trkpt lat="54.445690987631679" lon="11.239786064252257">
        <ele>0</ele>
        <time>2010-01-03T08:12:55Z</time>
      </trkpt>
      <trkpt lat="54.445772962644696" lon="11.240100553259254">
        <ele>0</ele>
        <time>2010-01-03T08:13:03Z</time>
      </trkpt>
      <trkpt lat="54.445885615423322" lon="11.24058410525322">
        <ele>0</ele>
        <time>2010-01-03T08:13:15Z</time>
      </trkpt>
      <trkpt lat="54.446105808019638" lon="11.241603596135974">
        <ele>0</ele>
        <time>2010-01-03T08:13:41Z</time>
      </trkpt>
      <trkpt lat="54.446295741945505" lon="11.242376994341612">
        <ele>0</ele>
        <time>2010-01-03T08:14:00Z</time>
      </trkpt>
      <trkpt lat="54.446427002549171" lon="11.242975797504187">
        <ele>0</ele>
        <time>2010-01-03T08:14:15Z</time>
      </trkpt>
      <trkpt lat="54.446518700569868" lon="11.243413416668773">
        <ele>0</ele>
        <time>2010-01-03T08:14:26Z</time>
      </trkpt>
      <trkpt lat="54.446593886241317" lon="11.243791272863746">
        <ele>0</ele>
        <time>2010-01-03T08:14:35Z</time>
      </trkpt>
      <trkpt lat="54.446651889011264" lon="11.244160160422325">
        <ele>0</ele>
        <time>2010-01-03T08:14:44Z</time>
      </trkpt>
      <trkpt lat="54.446695977821946" lon="11.244464591145515">
        <ele>0</ele>
        <time>2010-01-03T08:14:51Z</time>
      </trkpt>
      <trkpt lat="54.446741156280041" lon="11.244789054617286">
        <ele>0</ele>
        <time>2010-01-03T08:14:59Z</time>
      </trkpt>
      <trkpt lat="54.446769738569856" lon="11.245059790089726">
        <ele>0</ele>
        <time>2010-01-03T08:15:05Z</time>
      </trkpt>
      <trkpt lat="54.446792034432292" lon="11.245316863059998">
        <ele>0</ele>
        <time>2010-01-03T08:15:12Z</time>
      </trkpt>
      <trkpt lat="54.446801673620939" lon="11.24556178227067">
        <ele>0</ele>
        <time>2010-01-03T08:15:17Z</time>
      </trkpt>
      <trkpt lat="54.446803098544478" lon="11.24579144641757">
        <ele>0</ele>
        <time>2010-01-03T08:15:23Z</time>
      </trkpt>
      <trkpt lat="54.446802511811256" lon="11.246280111372471">
        <ele>0</ele>
        <time>2010-01-03T08:15:34Z</time>
      </trkpt>
      <trkpt lat="54.446799661964178" lon="11.246832059696317">
        <ele>0</ele>
        <time>2010-01-03T08:15:47Z</time>
      </trkpt>
      <trkpt lat="54.446794046089053" lon="11.247228356078267">
        <ele>0</ele>
        <time>2010-01-03T08:15:56Z</time>
      </trkpt>
      <trkpt lat="54.446783317252994" lon="11.247806623578072">
        <ele>0</ele>
        <time>2010-01-03T08:16:09Z</time>
      </trkpt>
      <trkpt lat="54.446763535961509" lon="11.248380448669195">
        <ele>0</ele>
        <time>2010-01-03T08:16:23Z</time>
      </trkpt>
      <trkpt lat="54.44673671387136" lon="11.24884488992393">
        <ele>0</ele>
        <time>2010-01-03T08:16:34Z</time>
      </trkpt>
      <trkpt lat="54.446707461029291" lon="11.24919231981039">
        <ele>0</ele>
        <time>2010-01-03T08:16:42Z</time>
      </trkpt>
      <trkpt lat="54.446631520986557" lon="11.249982984736562">
        <ele>0</ele>
        <time>2010-01-03T08:17:01Z</time>
      </trkpt>
      <trkpt lat="54.446622300893068" lon="11.250214073807001">
        <ele>0</ele>
        <time>2010-01-03T08:17:06Z</time>
      </trkpt>
      <trkpt lat="54.447033600881696" lon="11.250066552311182">
        <ele>0</ele>
        <time>2010-01-03T08:17:23Z</time>
      </trkpt>
      <trkpt lat="54.447678169235587" lon="11.249837474897504">
        <ele>0</ele>
        <time>2010-01-03T08:17:49Z</time>
      </trkpt>
      <trkpt lat="54.448568411171436" lon="11.249574534595013">
        <ele>0</ele>
        <time>2010-01-03T08:18:25Z</time>
      </trkpt>
      <trkpt lat="54.449737351387739" lon="11.249227859079838">
        <ele>0</ele>
        <time>2010-01-03T08:19:13Z</time>
      </trkpt>
      <trkpt lat="54.449779512360692" lon="11.249212268739939">
        <ele>0</ele>
        <time>2010-01-03T08:19:14Z</time>
      </trkpt>
      <trkpt lat="54.449807005003095" lon="11.249190727248788">
        <ele>0</ele>
        <time>2010-01-03T08:19:16Z</time>
      </trkpt>
      <trkpt lat="54.449832066893578" lon="11.249147392809391">
        <ele>0</ele>
        <time>2010-01-03T08:19:17Z</time>
      </trkpt>
      <trkpt lat="54.44984782487154" lon="11.249100202694535">
        <ele>0</ele>
        <time>2010-01-03T08:19:18Z</time>
      </trkpt>
      <trkpt lat="54.449858134612441" lon="11.249033147469163">
        <ele>0</ele>
        <time>2010-01-03T08:19:20Z</time>
      </trkpt>
      <trkpt lat="54.449860313907266" lon="11.248934995383024">
        <ele>0</ele>
        <time>2010-01-03T08:19:22Z</time>
      </trkpt>
      <trkpt lat="54.449829217046499" lon="11.248165871948004">
        <ele>0</ele>
        <time>2010-01-03T08:19:40Z</time>
      </trkpt>
      <trkpt lat="54.449835503473878" lon="11.248081717640162">
        <ele>0</ele>
        <time>2010-01-03T08:19:42Z</time>
      </trkpt>
      <trkpt lat="54.449864169582725" lon="11.247996808961034">
        <ele>0</ele>
        <time>2010-01-03T08:19:44Z</time>
      </trkpt>
      <trkpt lat="54.449891829863191" lon="11.247954396530986">
        <ele>0</ele>
        <time>2010-01-03T08:19:46Z</time>
      </trkpt>
      <trkpt lat="54.449928626418114" lon="11.247923551127315">
        <ele>0</ele>
        <time>2010-01-03T08:19:48Z</time>
      </trkpt>
      <trkpt lat="54.45081970654428" lon="11.24750604853034">
        <ele>0</ele>
        <time>2010-01-03T08:20:25Z</time>
      </trkpt>
      <trkpt lat="54.450987763702869" lon="11.247436981648207">
        <ele>0</ele>
        <time>2010-01-03T08:20:31Z</time>
      </trkpt>
      <trkpt lat="54.451072253286839" lon="11.247411416843534">
        <ele>0</ele>
        <time>2010-01-03T08:20:35Z</time>
      </trkpt>
      <trkpt lat="54.451581789180636" lon="11.247253082692623">
        <ele>0</ele>
        <time>2010-01-03T08:20:56Z</time>
      </trkpt>
      <trkpt lat="54.453273843973875" lon="11.246747234836221">
        <ele>0</ele>
        <time>2010-01-03T08:22:04Z</time>
      </trkpt>
      <trkpt lat="54.453298151493073" lon="11.246738601475954">
        <ele>0</ele>
        <time>2010-01-03T08:22:05Z</time>
      </trkpt>
      <trkpt lat="54.453925536945462" lon="11.246516313403845">
        <ele>0</ele>
        <time>2010-01-03T08:22:31Z</time>
      </trkpt>
      <trkpt lat="54.454880319535732" lon="11.246187323704362">
        <ele>0</ele>
        <time>2010-01-03T08:23:10Z</time>
      </trkpt>
      <trkpt lat="54.455125741660595" lon="11.246074922382832">
        <ele>0</ele>
        <time>2010-01-03T08:23:20Z</time>
      </trkpt>
      <trkpt lat="54.455519104376435" lon="11.245910469442606">
        <ele>0</ele>
        <time>2010-01-03T08:23:36Z</time>
      </trkpt>
      <trkpt lat="54.45653859525919" lon="11.245453823357821">
        <ele>0</ele>
        <time>2010-01-03T08:24:19Z</time>
      </trkpt>
      <trkpt lat="54.45721241645515" lon="11.245170012116432">
        <ele>0</ele>
        <time>2010-01-03T08:24:46Z</time>
      </trkpt>
      <trkpt lat="54.457394471392035" lon="11.245114272460341">
        <ele>0</ele>
        <time>2010-01-03T08:24:54Z</time>
      </trkpt>
      <trkpt lat="54.457415007054806" lon="11.245108069851995">
        <ele>0</ele>
        <time>2010-01-03T08:24:55Z</time>
      </trkpt>
      <trkpt lat="54.457925297319889" lon="11.24495493248105">
        <ele>0</ele>
        <time>2010-01-03T08:25:15Z</time>
      </trkpt>
      <trkpt lat="54.458695510402322" lon="11.244709510356188">
        <ele>0</ele>
        <time>2010-01-03T08:25:47Z</time>
      </trkpt>
      <trkpt lat="54.458824675530195" lon="11.244671624153852">
        <ele>0</ele>
        <time>2010-01-03T08:25:52Z</time>
      </trkpt>
      <trkpt lat="54.459201274439692" lon="11.244561402127147">
        <ele>0</ele>
        <time>2010-01-03T08:26:07Z</time>
      </trkpt>
      <trkpt lat="54.459373438730836" lon="11.244513541460037">
        <ele>0</ele>
        <time>2010-01-03T08:26:14Z</time>
      </trkpt>
      <trkpt lat="54.459486594423652" lon="11.244500633329153">
        <ele>0</ele>
        <time>2010-01-03T08:26:19Z</time>
      </trkpt>
      <trkpt lat="54.459662782028317" lon="11.24452049843967">
        <ele>0</ele>
        <time>2010-01-03T08:26:26Z</time>
      </trkpt>
      <trkpt lat="54.460273822769523" lon="11.244541620835662">
        <ele>0</ele>
        <time>2010-01-03T08:26:50Z</time>
      </trkpt>
      <trkpt lat="54.460651008412242" lon="11.244517732411623">
        <ele>0</ele>
        <time>2010-01-03T08:27:05Z</time>
      </trkpt>
      <trkpt lat="54.460817137733102" lon="11.244500800967216">
        <ele>0</ele>
        <time>2010-01-03T08:27:12Z</time>
      </trkpt>
      <trkpt lat="54.461046801880002" lon="11.244456460699439">
        <ele>0</ele>
        <time>2010-01-03T08:27:21Z</time>
      </trkpt>
      <trkpt lat="54.461160711944103" lon="11.244418909773231">
        <ele>0</ele>
        <time>2010-01-03T08:27:26Z</time>
      </trkpt>
      <trkpt lat="54.461234221234918" lon="11.244392925873399">
        <ele>0</ele>
        <time>2010-01-03T08:27:29Z</time>
      </trkpt>
      <trkpt lat="54.461303036659956" lon="11.244345400482416">
        <ele>0</ele>
        <time>2010-01-03T08:27:32Z</time>
      </trkpt>
      <trkpt lat="54.46148986928165" lon="11.244193855673075">
        <ele>0</ele>
        <time>2010-01-03T08:27:40Z</time>
      </trkpt>
      <trkpt lat="54.461669577285647" lon="11.244056392461061">
        <ele>0</ele>
        <time>2010-01-03T08:27:48Z</time>
      </trkpt>
      <trkpt lat="54.461729424074292" lon="11.243992103263736">
        <ele>0</ele>
        <time>2010-01-03T08:27:51Z</time>
      </trkpt>
      <trkpt lat="54.461776446551085" lon="11.243898728862405">
        <ele>0</ele>
        <time>2010-01-03T08:27:54Z</time>
      </trkpt>
      <trkpt lat="54.461794970557094" lon="11.243844414129853">
        <ele>0</ele>
        <time>2010-01-03T08:27:55Z</time>
      </trkpt>
      <trkpt lat="54.461811650544405" lon="11.243793200701475">
        <ele>0</ele>
        <time>2010-01-03T08:27:57Z</time>
      </trkpt>
      <trkpt lat="54.462004099041224" lon="11.242956854403019">
        <ele>0</ele>
        <time>2010-01-03T08:28:17Z</time>
      </trkpt>
      <trkpt lat="54.462116751819849" lon="11.242575477808714">
        <ele>0</ele>
        <time>2010-01-03T08:28:27Z</time>
      </trkpt>
      <trkpt lat="54.462142400443554" lon="11.242519486695528">
        <ele>0</ele>
        <time>2010-01-03T08:28:29Z</time>
      </trkpt>
      <trkpt lat="54.462169893085957" lon="11.242457292973995">
        <ele>0</ele>
        <time>2010-01-03T08:28:31Z</time>
      </trkpt>
      <trkpt lat="54.462227812036872" lon="11.242380598559976">
        <ele>0</ele>
        <time>2010-01-03T08:28:34Z</time>
      </trkpt>
      <trkpt lat="54.46232688613236" lon="11.242284709587693">
        <ele>0</ele>
        <time>2010-01-03T08:28:38Z</time>
      </trkpt>
      <trkpt lat="54.462446831166744" lon="11.24220541678369">
        <ele>0</ele>
        <time>2010-01-03T08:28:44Z</time>
      </trkpt>
      <trkpt lat="54.462553365156054" lon="11.242151018232107">
        <ele>0</ele>
        <time>2010-01-03T08:28:48Z</time>
      </trkpt>
      <trkpt lat="54.462670711800456" lon="11.242091758176684">
        <ele>0</ele>
        <time>2010-01-03T08:28:53Z</time>
      </trkpt>
      <trkpt lat="54.463076228275895" lon="11.241871481761336">
        <ele>0</ele>
        <time>2010-01-03T08:29:10Z</time>
      </trkpt>
      <trkpt lat="54.463533041998744" lon="11.241650199517608">
        <ele>0</ele>
        <time>2010-01-03T08:29:29Z</time>
      </trkpt>
      <trkpt lat="54.463699841871858" lon="11.241591610014439">
        <ele>0</ele>
        <time>2010-01-03T08:29:36Z</time>
      </trkpt>
      <trkpt lat="54.463729346171021" lon="11.241580294445157">
        <ele>0</ele>
        <time>2010-01-03T08:29:37Z</time>
      </trkpt>
      <trkpt lat="54.463793132454157" lon="11.241571409627795">
        <ele>0</ele>
        <time>2010-01-03T08:29:39Z</time>
      </trkpt>
      <trkpt lat="54.463856834918261" lon="11.241562524810433">
        <ele>0</ele>
        <time>2010-01-03T08:29:42Z</time>
      </trkpt>
      <trkpt lat="54.463981725275517" lon="11.241560177877545">
        <ele>0</ele>
        <time>2010-01-03T08:29:47Z</time>
      </trkpt>
      <trkpt lat="54.464088762179017" lon="11.241587502881885">
        <ele>0</ele>
        <time>2010-01-03T08:29:51Z</time>
      </trkpt>
      <trkpt lat="54.464142741635442" lon="11.241600411012769">
        <ele>0</ele>
        <time>2010-01-03T08:29:54Z</time>
      </trkpt>
      <trkpt lat="54.464260507375002" lon="11.241609044373035">
        <ele>0</ele>
        <time>2010-01-03T08:29:58Z</time>
      </trkpt>
      <trkpt lat="54.464362850412726" lon="11.241596303880215">
        <ele>0</ele>
        <time>2010-01-03T08:30:02Z</time>
      </trkpt>
      <trkpt lat="54.464466869831085" lon="11.241571241989732">
        <ele>0</ele>
        <time>2010-01-03T08:30:07Z</time>
      </trkpt>
      <trkpt lat="54.464579690247774" lon="11.241505946964025">
        <ele>0</ele>
        <time>2010-01-03T08:30:11Z</time>
      </trkpt>
      <trkpt lat="54.464636016637087" lon="11.241469485685229">
        <ele>0</ele>
        <time>2010-01-03T08:30:14Z</time>
      </trkpt>
      <trkpt lat="54.464685218408704" lon="11.241437718272209">
        <ele>0</ele>
        <time>2010-01-03T08:30:16Z</time>
      </trkpt>
      <trkpt lat="54.464759565889835" lon="11.241390025243163">
        <ele>0</ele>
        <time>2010-01-03T08:30:19Z</time>
      </trkpt>
      <trkpt lat="54.464800637215376" lon="11.241360018029809">
        <ele>0</ele>
        <time>2010-01-03T08:30:21Z</time>
      </trkpt>
      <trkpt lat="54.465211099013686" lon="11.241053240373731">
        <ele>0</ele>
        <time>2010-01-03T08:30:39Z</time>
      </trkpt>
      <trkpt lat="54.465688616037369" lon="11.24069893732667">
        <ele>0</ele>
        <time>2010-01-03T08:31:00Z</time>
      </trkpt>
      <trkpt lat="54.465868240222335" lon="11.240550661459565">
        <ele>0</ele>
        <time>2010-01-03T08:31:08Z</time>
      </trkpt>
      <trkpt lat="54.46594518609345" lon="11.240499867126346">
        <ele>0</ele>
        <time>2010-01-03T08:31:11Z</time>
      </trkpt>
      <trkpt lat="54.466163786128163" lon="11.240394003689289">
        <ele>0</ele>
        <time>2010-01-03T08:31:20Z</time>
      </trkpt>
      <trkpt lat="54.466259591281414" lon="11.240353686735034">
        <ele>0</ele>
        <time>2010-01-03T08:31:24Z</time>
      </trkpt>
      <trkpt lat="54.466340895742178" lon="11.240308675915003">
        <ele>0</ele>
        <time>2010-01-03T08:31:27Z</time>
      </trkpt>
      <trkpt lat="54.466721015051007" lon="11.240021092817187">
        <ele>0</ele>
        <time>2010-01-03T08:31:44Z</time>
      </trkpt>
      <trkpt lat="54.467076407745481" lon="11.23977592214942">
        <ele>0</ele>
        <time>2010-01-03T08:31:59Z</time>
      </trkpt>
      <trkpt lat="54.467640509828925" lon="11.239456236362457">
        <ele>0</ele>
        <time>2010-01-03T08:32:23Z</time>
      </trkpt>
      <trkpt lat="54.467899091541767" lon="11.239302260801196">
        <ele>0</ele>
        <time>2010-01-03T08:32:34Z</time>
      </trkpt>
      <trkpt lat="54.467930607497692" lon="11.239259596914053">
        <ele>0</ele>
        <time>2010-01-03T08:32:36Z</time>
      </trkpt>
      <trkpt lat="54.46794074960053" lon="11.239010151475668">
        <ele>0</ele>
        <time>2010-01-03T08:32:41Z</time>
      </trkpt>
      <trkpt lat="54.46792365051806" lon="11.238724663853645">
        <ele>0</ele>
        <time>2010-01-03T08:32:48Z</time>
      </trkpt>
      <trkpt lat="54.467941671609879" lon="11.238576890900731">
        <ele>0</ele>
        <time>2010-01-03T08:32:52Z</time>
      </trkpt>
      <trkpt lat="54.468008726835251" lon="11.238466752693057">
        <ele>0</ele>
        <time>2010-01-03T08:32:55Z</time>
      </trkpt>
      <trkpt lat="54.468078967183828" lon="11.238422747701406">
        <ele>0</ele>
        <time>2010-01-03T08:32:58Z</time>
      </trkpt>
      <trkpt lat="54.468499235808849" lon="11.238209009170532">
        <ele>0</ele>
        <time>2010-01-03T08:33:16Z</time>
      </trkpt>
      <trkpt lat="54.468499235808849" lon="11.238209009170532">
        <ele>0</ele>
        <time>2010-01-03T09:12:27Z</time>
      </trkpt>
      <trkpt lat="54.468997456133366" lon="11.238082610070705">
        <ele>0</ele>
        <time>2010-01-03T09:12:47Z</time>
      </trkpt>
      <trkpt lat="54.469172721728683" lon="11.238053273409605">
        <ele>0</ele>
        <time>2010-01-03T09:12:54Z</time>
      </trkpt>
      <trkpt lat="54.469491820782423" lon="11.238031145185232">
        <ele>0</ele>
        <time>2010-01-03T09:13:07Z</time>
      </trkpt>
      <trkpt lat="54.470291789621115" lon="11.2379499245435">
        <ele>0</ele>
        <time>2010-01-03T09:13:39Z</time>
      </trkpt>
      <trkpt lat="54.470497313886881" lon="11.237923018634319">
        <ele>0</ele>
        <time>2010-01-03T09:13:47Z</time>
      </trkpt>
      <trkpt lat="54.470613151788712" lon="11.237911619246006">
        <ele>0</ele>
        <time>2010-01-03T09:13:52Z</time>
      </trkpt>
      <trkpt lat="54.470735108479857" lon="11.237884629517794">
        <ele>0</ele>
        <time>2010-01-03T09:13:57Z</time>
      </trkpt>
      <trkpt lat="54.470893861725926" lon="11.237833919003606">
        <ele>0</ele>
        <time>2010-01-03T09:14:03Z</time>
      </trkpt>
      <trkpt lat="54.471101062372327" lon="11.237780693918467">
        <ele>0</ele>
        <time>2010-01-03T09:14:12Z</time>
      </trkpt>
      <trkpt lat="54.471101062372327" lon="11.237780693918467">
        <ele>0</ele>
        <time>2010-01-03T09:14:12Z</time>
      </trkpt>
      <trkpt lat="54.470893861725926" lon="11.237833919003606">
        <ele>0</ele>
        <time>2010-01-03T09:14:03Z</time>
      </trkpt>
      <trkpt lat="54.470735108479857" lon="11.237884629517794">
        <ele>0</ele>
        <time>2010-01-03T09:13:57Z</time>
      </trkpt>
      <trkpt lat="54.470613151788712" lon="11.237911619246006">
        <ele>0</ele>
        <time>2010-01-03T09:13:52Z</time>
      </trkpt>
      <trkpt lat="54.470497313886881" lon="11.237923018634319">
        <ele>0</ele>
        <time>2010-01-03T09:13:47Z</time>
      </trkpt>
      <trkpt lat="54.470291789621115" lon="11.2379499245435">
        <ele>0</ele>
        <time>2010-01-03T09:13:39Z</time>
      </trkpt>
      <trkpt lat="54.469491820782423" lon="11.238031145185232">
        <ele>0</ele>
        <time>2010-01-03T09:13:07Z</time>
      </trkpt>
      <trkpt lat="54.469172721728683" lon="11.238053273409605">
        <ele>0</ele>
        <time>2010-01-03T09:12:54Z</time>
      </trkpt>
      <trkpt lat="54.468997456133366" lon="11.238082610070705">
        <ele>0</ele>
        <time>2010-01-03T09:12:47Z</time>
      </trkpt>
      <trkpt lat="54.468499235808849" lon="11.238209009170532">
        <ele>0</ele>
        <time>2010-01-03T09:12:27Z</time>
      </trkpt>
      <trkpt lat="54.468499235808849" lon="11.238209009170532">
        <ele>0</ele>
        <time>2010-01-03T09:14:12Z</time>
      </trkpt>
      <trkpt lat="54.46825347840786" lon="11.235251789912581">
        <ele>0</ele>
        <time>2010-01-03T09:15:21Z</time>
      </trkpt>
      <trkpt lat="54.468200169503689" lon="11.234576459974051">
        <ele>0</ele>
        <time>2010-01-03T09:15:37Z</time>
      </trkpt>
      <trkpt lat="54.468181142583489" lon="11.234328355640173">
        <ele>0</ele>
        <time>2010-01-03T09:15:43Z</time>
      </trkpt>
      <trkpt lat="54.468153063207865" lon="11.234083771705627">
        <ele>0</ele>
        <time>2010-01-03T09:15:49Z</time>
      </trkpt>
      <trkpt lat="54.468068238347769" lon="11.233298974111676">
        <ele>0</ele>
        <time>2010-01-03T09:16:07Z</time>
      </trkpt>
      <trkpt lat="54.467939827591181" lon="11.232314435765147">
        <ele>0</ele>
        <time>2010-01-03T09:16:31Z</time>
      </trkpt>
      <trkpt lat="54.467894565314054" lon="11.231931550428271">
        <ele>0</ele>
        <time>2010-01-03T09:16:40Z</time>
      </trkpt>
      <trkpt lat="54.467840502038598" lon="11.23165394179523">
        <ele>0</ele>
        <time>2010-01-03T09:16:47Z</time>
      </trkpt>
      <trkpt lat="54.467779733240604" lon="11.231457386165857">
        <ele>0</ele>
        <time>2010-01-03T09:16:52Z</time>
      </trkpt>
      <trkpt lat="54.467704966664314" lon="11.231297124177217">
        <ele>0</ele>
        <time>2010-01-03T09:16:57Z</time>
      </trkpt>
      <trkpt lat="54.467329205945134" lon="11.230487348511815">
        <ele>0</ele>
        <time>2010-01-03T09:17:21Z</time>
      </trkpt>
      <trkpt lat="54.466828806325793" lon="11.22934372164309">
        <ele>0</ele>
        <time>2010-01-03T09:17:54Z</time>
      </trkpt>
      <trkpt lat="54.466657899320126" lon="11.22894206084311">
        <ele>0</ele>
        <time>2010-01-03T09:18:06Z</time>
      </trkpt>
      <trkpt lat="54.466549018397927" lon="11.22868993319571">
        <ele>0</ele>
        <time>2010-01-03T09:18:13Z</time>
      </trkpt>
      <trkpt lat="54.466484393924475" lon="11.228512404486537">
        <ele>0</ele>
        <time>2010-01-03T09:18:18Z</time>
      </trkpt>
      <trkpt lat="54.466412309557199" lon="11.228231862187386">
        <ele>0</ele>
        <time>2010-01-03T09:18:25Z</time>
      </trkpt>
      <trkpt lat="54.466350032016635" lon="11.22796481475234">
        <ele>0</ele>
        <time>2010-01-03T09:18:32Z</time>
      </trkpt>
      <trkpt lat="54.466297728940845" lon="11.227633561939001">
        <ele>0</ele>
        <time>2010-01-03T09:18:40Z</time>
      </trkpt>
      <trkpt lat="54.466271409764886" lon="11.22730415314436">
        <ele>0</ele>
        <time>2010-01-03T09:18:47Z</time>
      </trkpt>
      <trkpt lat="54.466227907687426" lon="11.226692693307996">
        <ele>0</ele>
        <time>2010-01-03T09:19:02Z</time>
      </trkpt>
      <trkpt lat="54.466208210214972" lon="11.226435536518693">
        <ele>0</ele>
        <time>2010-01-03T09:19:08Z</time>
      </trkpt>
      <trkpt lat="54.46619781665504" lon="11.226202854886651">
        <ele>0</ele>
        <time>2010-01-03T09:19:13Z</time>
      </trkpt>
      <trkpt lat="54.466190943494439" lon="11.225977800786495">
        <ele>0</ele>
        <time>2010-01-03T09:19:18Z</time>
      </trkpt>
      <trkpt lat="54.466199744492769" lon="11.225669179111719">
        <ele>0</ele>
        <time>2010-01-03T09:19:26Z</time>
      </trkpt>
      <trkpt lat="54.466204354539514" lon="11.225410010665655">
        <ele>0</ele>
        <time>2010-01-03T09:19:32Z</time>
      </trkpt>
      <trkpt lat="54.466213239356875" lon="11.225244803354144">
        <ele>0</ele>
        <time>2010-01-03T09:19:35Z</time>
      </trkpt>
      <trkpt lat="54.466269565746188" lon="11.224230425432324">
        <ele>0</ele>
        <time>2010-01-03T09:19:59Z</time>
      </trkpt>
      <trkpt lat="54.466307116672397" lon="11.22363748960197">
        <ele>0</ele>
        <time>2010-01-03T09:20:13Z</time>
      </trkpt>
      <trkpt lat="54.466340309008956" lon="11.223070872947574">
        <ele>0</ele>
        <time>2010-01-03T09:20:26Z</time>
      </trkpt>
      <trkpt lat="54.466352630406618" lon="11.22289476916194">
        <ele>0</ele>
        <time>2010-01-03T09:20:30Z</time>
      </trkpt>
      <trkpt lat="54.466369394212961" lon="11.222707852721214">
        <ele>0</ele>
        <time>2010-01-03T09:20:35Z</time>
      </trkpt>
      <trkpt lat="54.466417590156198" lon="11.222367631271482">
        <ele>0</ele>
        <time>2010-01-03T09:20:43Z</time>
      </trkpt>
      <trkpt lat="54.466448854655027" lon="11.222057081758976">
        <ele>0</ele>
        <time>2010-01-03T09:20:50Z</time>
      </trkpt>
      <trkpt lat="54.466455560177565" lon="11.221990613266826">
        <ele>0</ele>
        <time>2010-01-03T09:20:52Z</time>
      </trkpt>
      <trkpt lat="54.466477772220969" lon="11.221818951889873">
        <ele>0</ele>
        <time>2010-01-03T09:20:56Z</time>
      </trkpt>
      <trkpt lat="54.466510629281402" lon="11.221471354365349">
        <ele>0</ele>
        <time>2010-01-03T09:21:04Z</time>
      </trkpt>
      <trkpt lat="54.466546252369881" lon="11.221146807074547">
        <ele>0</ele>
        <time>2010-01-03T09:21:12Z</time>
      </trkpt>
      <trkpt lat="54.46657014079392" lon="11.220955112949014">
        <ele>0</ele>
        <time>2010-01-03T09:21:16Z</time>
      </trkpt>
      <trkpt lat="54.466601321473718" lon="11.220767861232162">
        <ele>0</ele>
        <time>2010-01-03T09:21:21Z</time>
      </trkpt>
      <trkpt lat="54.466628227382898" lon="11.220623943954706">
        <ele>0</ele>
        <time>2010-01-03T09:21:24Z</time>
      </trkpt>
      <trkpt lat="54.466642811894417" lon="11.220514141023159">
        <ele>0</ele>
        <time>2010-01-03T09:21:27Z</time>
      </trkpt>
      <trkpt lat="54.466681452468038" lon="11.220374582335353">
        <ele>0</ele>
        <time>2010-01-03T09:21:31Z</time>
      </trkpt>
      <trkpt lat="54.466743813827634" lon="11.220159083604813">
        <ele>0</ele>
        <time>2010-01-03T09:21:36Z</time>
      </trkpt>
      <trkpt lat="54.466848336160183" lon="11.219786927103996">
        <ele>0</ele>
        <time>2010-01-03T09:21:46Z</time>
      </trkpt>
      <trkpt lat="54.466881696134806" lon="11.219667484983802">
        <ele>0</ele>
        <time>2010-01-03T09:21:49Z</time>
      </trkpt>
      <trkpt lat="54.466890497133136" lon="11.219634963199496">
        <ele>0</ele>
        <time>2010-01-03T09:21:50Z</time>
      </trkpt>
      <trkpt lat="54.466906255111098" lon="11.219579139724374">
        <ele>0</ele>
        <time>2010-01-03T09:21:51Z</time>
      </trkpt>
      <trkpt lat="54.466919247061014" lon="11.219497164711356">
        <ele>0</ele>
        <time>2010-01-03T09:21:53Z</time>
      </trkpt>
      <trkpt lat="54.466931149363518" lon="11.219392055645585">
        <ele>0</ele>
        <time>2010-01-03T09:21:56Z</time>
      </trkpt>
      <trkpt lat="54.466948751360178" lon="11.219203546643257">
        <ele>0</ele>
        <time>2010-01-03T09:22:00Z</time>
      </trkpt>
      <trkpt lat="54.466963084414601" lon="11.219056779518723">
        <ele>0</ele>
        <time>2010-01-03T09:22:04Z</time>
      </trkpt>
      <trkpt lat="54.466973226517439" lon="11.218953263014555">
        <ele>0</ele>
        <time>2010-01-03T09:22:06Z</time>
      </trkpt>
      <trkpt lat="54.467002814635634" lon="11.218806160613894">
        <ele>0</ele>
        <time>2010-01-03T09:22:10Z</time>
      </trkpt>
      <trkpt lat="54.467036174610257" lon="11.2186867184937">
        <ele>0</ele>
        <time>2010-01-03T09:22:13Z</time>
      </trkpt>
      <trkpt lat="54.467199202626944" lon="11.218894924968481">
        <ele>0</ele>
        <time>2010-01-03T09:22:21Z</time>
      </trkpt>
      <trkpt lat="54.467266090214252" lon="11.218949155882001">
        <ele>0</ele>
        <time>2010-01-03T09:22:24Z</time>
      </trkpt>
      <trkpt lat="54.467325517907739" lon="11.218975810334086">
        <ele>0</ele>
        <time>2010-01-03T09:22:26Z</time>
      </trkpt>
      <trkpt lat="54.467396596446633" lon="11.218996094539762">
        <ele>0</ele>
        <time>2010-01-03T09:22:29Z</time>
      </trkpt>
      <trkpt lat="54.467472955584526" lon="11.218991568312049">
        <ele>0</ele>
        <time>2010-01-03T09:22:32Z</time>
      </trkpt>
      <trkpt lat="54.467590553686023" lon="11.218981593847275">
        <ele>0</ele>
        <time>2010-01-03T09:22:37Z</time>
      </trkpt>
      <trkpt lat="54.467690298333764" lon="11.21897354722023">
        <ele>0</ele>
        <time>2010-01-03T09:22:41Z</time>
      </trkpt>
      <trkpt lat="54.467941336333752" lon="11.218954268842936">
        <ele>0</ele>
        <time>2010-01-03T09:22:51Z</time>
      </trkpt>
      <trkpt lat="54.468410387635231" lon="11.218918142840266">
        <ele>0</ele>
        <time>2010-01-03T09:23:10Z</time>
      </trkpt>
      <trkpt lat="54.468913050368428" lon="11.218851506710052">
        <ele>0</ele>
        <time>2010-01-03T09:23:30Z</time>
      </trkpt>
      <trkpt lat="54.468953534960747" lon="11.219268757849932">
        <ele>0</ele>
        <time>2010-01-03T09:23:40Z</time>
      </trkpt>
      <trkpt lat="54.468987733125687" lon="11.219558101147413">
        <ele>0</ele>
        <time>2010-01-03T09:23:47Z</time>
      </trkpt>
      <trkpt lat="54.469020087271929" lon="11.219845851883292">
        <ele>0</ele>
        <time>2010-01-03T09:23:54Z</time>
      </trkpt>
      <trkpt lat="54.469066355377436" lon="11.2203324213624">
        <ele>0</ele>
        <time>2010-01-03T09:24:05Z</time>
      </trkpt>
      <trkpt lat="54.469093512743711" lon="11.220640372484922">
        <ele>0</ele>
        <time>2010-01-03T09:24:12Z</time>
      </trkpt>
      <trkpt lat="54.469120586290956" lon="11.220932900905609">
        <ele>0</ele>
        <time>2010-01-03T09:24:19Z</time>
      </trkpt>
      <trkpt lat="54.469170207157731" lon="11.221243534237146">
        <ele>0</ele>
        <time>2010-01-03T09:24:27Z</time>
      </trkpt>
      <trkpt lat="54.469210943207145" lon="11.221443274989724">
        <ele>0</ele>
        <time>2010-01-03T09:24:32Z</time>
      </trkpt>
      <trkpt lat="54.46927229873836" lon="11.22175675816834">
        <ele>0</ele>
        <time>2010-01-03T09:24:39Z</time>
      </trkpt>
      <trkpt lat="54.469391573220491" lon="11.222286578267813">
        <ele>0</ele>
        <time>2010-01-03T09:24:52Z</time>
      </trkpt>
      <trkpt lat="54.469646718353033" lon="11.223403131589293">
        <ele>0</ele>
        <time>2010-01-03T09:25:20Z</time>
      </trkpt>
      <trkpt lat="54.470063885673881" lon="11.225131982937455">
        <ele>0</ele>
        <time>2010-01-03T09:26:04Z</time>
      </trkpt>
      <trkpt lat="54.470458840951324" lon="11.226768800988793">
        <ele>0</ele>
        <time>2010-01-03T09:26:45Z</time>
      </trkpt>
      <trkpt lat="54.47055883705616" lon="11.227223435416818">
        <ele>0</ele>
        <time>2010-01-03T09:26:56Z</time>
      </trkpt>
      <trkpt lat="54.470706945285201" lon="11.227913266047835">
        <ele>0</ele>
        <time>2010-01-03T09:27:14Z</time>
      </trkpt>
      <trkpt lat="54.470773413777351" lon="11.22819883748889">
        <ele>0</ele>
        <time>2010-01-03T09:27:21Z</time>
      </trkpt>
      <trkpt lat="54.470830829814076" lon="11.228456916287541">
        <ele>0</ele>
        <time>2010-01-03T09:27:27Z</time>
      </trkpt>
      <trkpt lat="54.47087349370122" lon="11.228672079741955">
        <ele>0</ele>
        <time>2010-01-03T09:27:32Z</time>
      </trkpt>
      <trkpt lat="54.470924539491534" lon="11.228928733617067">
        <ele>0</ele>
        <time>2010-01-03T09:27:39Z</time>
      </trkpt>
      <trkpt lat="54.470993522554636" lon="11.229325365275145">
        <ele>0</ele>
        <time>2010-01-03T09:27:48Z</time>
      </trkpt>
      <trkpt lat="54.471051441505551" lon="11.229668268933892">
        <ele>0</ele>
        <time>2010-01-03T09:27:57Z</time>
      </trkpt>
      <trkpt lat="54.471065606921911" lon="11.229772875085473">
        <ele>0</ele>
        <time>2010-01-03T09:27:59Z</time>
      </trkpt>
      <trkpt lat="54.471083376556635" lon="11.229892820119858">
        <ele>0</ele>
        <time>2010-01-03T09:28:02Z</time>
      </trkpt>
      <trkpt lat="54.47109586559236" lon="11.230011340230703">
        <ele>0</ele>
        <time>2010-01-03T09:28:05Z</time>
      </trkpt>
      <trkpt lat="54.471101062372327" lon="11.230123909190297">
        <ele>0</ele>
        <time>2010-01-03T09:28:08Z</time>
      </trkpt>
      <trkpt lat="54.471110869199038" lon="11.230257852002978">
        <ele>0</ele>
        <time>2010-01-03T09:28:11Z</time>
      </trkpt>
      <trkpt lat="54.471117155626416" lon="11.230393471196294">
        <ele>0</ele>
        <time>2010-01-03T09:28:14Z</time>
      </trkpt>
      <trkpt lat="54.471124699339271" lon="11.230592373758554">
        <ele>0</ele>
        <time>2010-01-03T09:28:18Z</time>
      </trkpt>
      <trkpt lat="54.471131069585681" lon="11.230749534443021">
        <ele>0</ele>
        <time>2010-01-03T09:28:22Z</time>
      </trkpt>
      <trkpt lat="54.47116426192224" lon="11.231584958732128">
        <ele>0</ele>
        <time>2010-01-03T09:28:42Z</time>
      </trkpt>
      <trkpt lat="54.471183540299535" lon="11.232217038050294">
        <ele>0</ele>
        <time>2010-01-03T09:28:56Z</time>
      </trkpt>
      <trkpt lat="54.471200052648783" lon="11.23298641294241">
        <ele>0</ele>
        <time>2010-01-03T09:29:14Z</time>
      </trkpt>
      <trkpt lat="54.471216900274158" lon="11.233513634651899">
        <ele>0</ele>
        <time>2010-01-03T09:29:27Z</time>
      </trkpt>
      <trkpt lat="54.47121899574995" lon="11.233980925753713">
        <ele>0</ele>
        <time>2010-01-03T09:29:37Z</time>
      </trkpt>
      <trkpt lat="54.471212793141603" lon="11.234423741698265">
        <ele>0</ele>
        <time>2010-01-03T09:29:48Z</time>
      </trkpt>
      <trkpt lat="54.471208099275827" lon="11.234959093853831">
        <ele>0</ele>
        <time>2010-01-03T09:30:00Z</time>
      </trkpt>
      <trkpt lat="54.471196196973324" lon="11.235488327220082">
        <ele>0</ele>
        <time>2010-01-03T09:30:12Z</time>
      </trkpt>
      <trkpt lat="54.471183624118567" lon="11.235922006890178">
        <ele>0</ele>
        <time>2010-01-03T09:30:23Z</time>
      </trkpt>
      <trkpt lat="54.471169877797365" lon="11.236303299665451">
        <ele>0</ele>
        <time>2010-01-03T09:30:31Z</time>
      </trkpt>
      <trkpt lat="54.471139619126916" lon="11.236913083121181">
        <ele>0</ele>
        <time>2010-01-03T09:30:46Z</time>
      </trkpt>
      <trkpt lat="54.471101062372327" lon="11.237780693918467">
        <ele>0</ele>
        <time>2010-01-03T09:31:06Z</time>
      </trkpt>
      <trkpt lat="54.471101062372327" lon="11.237780693918467">
        <ele>0</ele>
        <time>2010-01-03T09:31:06Z</time>
      </trkpt>
      <trkpt lat="54.471209608018398" lon="11.237758649513125">
        <ele>0</ele>
        <time>2010-01-03T09:31:10Z</time>
      </trkpt>
      <trkpt lat="54.471386130899191" lon="11.237740963697433">
        <ele>0</ele>
        <time>2010-01-03T09:31:17Z</time>
      </trkpt>
      <trkpt lat="54.471905054524541" lon="11.237731324508786">
        <ele>0</ele>
        <time>2010-01-03T09:31:38Z</time>
      </trkpt>
      <trkpt lat="54.472864950075746" lon="11.237700143828988">
        <ele>0</ele>
        <time>2010-01-03T09:32:17Z</time>
      </trkpt>
      <trkpt lat="54.473163178190589" lon="11.237689917907119">
        <ele>0</ele>
        <time>2010-01-03T09:32:29Z</time>
      </trkpt>
      <trkpt lat="54.473489234223962" lon="11.237680781632662">
        <ele>0</ele>
        <time>2010-01-03T09:32:42Z</time>
      </trkpt>
      <trkpt lat="54.473630134016275" lon="11.237655049189925">
        <ele>0</ele>
        <time>2010-01-03T09:32:47Z</time>
      </trkpt>
      <trkpt lat="54.473887793719769" lon="11.237637950107455">
        <ele>0</ele>
        <time>2010-01-03T09:32:58Z</time>
      </trkpt>
      <trkpt lat="54.473964152857661" lon="11.237633423879743">
        <ele>0</ele>
        <time>2010-01-03T09:33:01Z</time>
      </trkpt>
      <trkpt lat="54.474574103951454" lon="11.237625125795603">
        <ele>0</ele>
        <time>2010-01-03T09:33:25Z</time>
      </trkpt>
      <trkpt lat="54.475075341761112" lon="11.237611211836338">
        <ele>0</ele>
        <time>2010-01-03T09:33:45Z</time>
      </trkpt>
      <trkpt lat="54.475610693916678" lon="11.23760593123734">
        <ele>0</ele>
        <time>2010-01-03T09:34:07Z</time>
      </trkpt>
      <trkpt lat="54.475730219855905" lon="11.237605260685086">
        <ele>0</ele>
        <time>2010-01-03T09:34:11Z</time>
      </trkpt>
      <trkpt lat="54.475964913144708" lon="11.237642979249358">
        <ele>0</ele>
        <time>2010-01-03T09:34:21Z</time>
      </trkpt>
      <trkpt lat="54.476217376068234" lon="11.23771003447473">
        <ele>0</ele>
        <time>2010-01-03T09:34:31Z</time>
      </trkpt>
      <trkpt lat="54.476430024951696" lon="11.23780969530344">
        <ele>0</ele>
        <time>2010-01-03T09:34:40Z</time>
      </trkpt>
      <trkpt lat="54.47654795832932" lon="11.23785856179893">
        <ele>0</ele>
        <time>2010-01-03T09:34:45Z</time>
      </trkpt>
      <trkpt lat="54.476708471775055" lon="11.237997198477387">
        <ele>0</ele>
        <time>2010-01-03T09:34:52Z</time>
      </trkpt>
      <trkpt lat="54.47678642347455" lon="11.238115048035979">
        <ele>0</ele>
        <time>2010-01-03T09:34:56Z</time>
      </trkpt>
      <trkpt lat="54.476859346032143" lon="11.238298527896404">
        <ele>0</ele>
        <time>2010-01-03T09:35:01Z</time>
      </trkpt>
      <trkpt lat="54.476862531155348" lon="11.23837404884398">
        <ele>0</ele>
        <time>2010-01-03T09:35:03Z</time>
      </trkpt>
      <trkpt lat="54.476867476478219" lon="11.238449569791555">
        <ele>0</ele>
        <time>2010-01-03T09:35:05Z</time>
      </trkpt>
      <trkpt lat="54.476895220577717" lon="11.238904874771833">
        <ele>0</ele>
        <time>2010-01-03T09:35:15Z</time>
      </trkpt>
      <trkpt lat="54.476994629949331" lon="11.239849766716361">
        <ele>0</ele>
        <time>2010-01-03T09:35:38Z</time>
      </trkpt>
      <trkpt lat="54.477076269686222" lon="11.240929355844855">
        <ele>0</ele>
        <time>2010-01-03T09:36:03Z</time>
      </trkpt>
      <trkpt lat="54.477168638259172" lon="11.240906054154038">
        <ele>0</ele>
        <time>2010-01-03T09:36:07Z</time>
      </trkpt>
      <trkpt lat="54.477545320987701" lon="11.240803459659219">
        <ele>0</ele>
        <time>2010-01-03T09:36:22Z</time>
      </trkpt>
      <trkpt lat="54.477626960724592" lon="11.240788036957383">
        <ele>0</ele>
        <time>2010-01-03T09:36:25Z</time>
      </trkpt>
      <trkpt lat="54.477664679288864" lon="11.240787366405129">
        <ele>0</ele>
        <time>2010-01-03T09:36:27Z</time>
      </trkpt>
      <trkpt lat="54.477687142789364" lon="11.240786947309971">
        <ele>0</ele>
        <time>2010-01-03T09:36:28Z</time>
      </trkpt>
      <trkpt lat="54.477762747555971" lon="11.240805638954043">
        <ele>0</ele>
        <time>2010-01-03T09:36:31Z</time>
      </trkpt>
      <trkpt lat="54.477854613214731" lon="11.240840926766396">
        <ele>0</ele>
        <time>2010-01-03T09:36:35Z</time>
      </trkpt>
      <trkpt lat="54.477980760857463" lon="11.240900354459882">
        <ele>0</ele>
        <time>2010-01-03T09:36:40Z</time>
      </trkpt>
      <trkpt lat="54.478080840781331" lon="11.240958608686924">
        <ele>0</ele>
        <time>2010-01-03T09:36:44Z</time>
      </trkpt>
      <trkpt lat="54.478175556287169" lon="11.241023233160377">
        <ele>0</ele>
        <time>2010-01-03T09:36:48Z</time>
      </trkpt>
      <trkpt lat="54.478307403624058" lon="11.241146782413125">
        <ele>0</ele>
        <time>2010-01-03T09:36:54Z</time>
      </trkpt>
      <trkpt lat="54.478501696139574" lon="11.241339482367039">
        <ele>0</ele>
        <time>2010-01-03T09:37:03Z</time>
      </trkpt>
      <trkpt lat="54.478537486866117" lon="11.241373009979725">
        <ele>0</ele>
        <time>2010-01-03T09:37:05Z</time>
      </trkpt>
      <trkpt lat="54.478574031963944" lon="11.241402933374047">
        <ele>0</ele>
        <time>2010-01-03T09:37:06Z</time>
      </trkpt>
      <trkpt lat="54.478840492665768" lon="11.241661012172699">
        <ele>0</ele>
        <time>2010-01-03T09:37:19Z</time>
      </trkpt>
      <trkpt lat="54.478919114917517" lon="11.241794368252158">
        <ele>0</ele>
        <time>2010-01-03T09:37:23Z</time>
      </trkpt>
      <trkpt lat="54.478940991684794" lon="11.241886150091887">
        <ele>0</ele>
        <time>2010-01-03T09:37:25Z</time>
      </trkpt>
      <trkpt lat="54.478954905644059" lon="11.241999557241797">
        <ele>0</ele>
        <time>2010-01-03T09:37:28Z</time>
      </trkpt>
      <trkpt lat="54.478954486548901" lon="11.242099972441792">
        <ele>0</ele>
        <time>2010-01-03T09:37:30Z</time>
      </trkpt>
      <trkpt lat="54.478944847360253" lon="11.242238860577345">
        <ele>0</ele>
        <time>2010-01-03T09:37:34Z</time>
      </trkpt>
      <trkpt lat="54.478929257020354" lon="11.242541531100869">
        <ele>0</ele>
        <time>2010-01-03T09:37:41Z</time>
      </trkpt>
      <trkpt lat="54.478928502649069" lon="11.24272869899869">
        <ele>0</ele>
        <time>2010-01-03T09:37:45Z</time>
      </trkpt>
      <trkpt lat="54.478937806561589" lon="11.242926176637411">
        <ele>0</ele>
        <time>2010-01-03T09:37:50Z</time>
      </trkpt>
      <trkpt lat="54.479017686098814" lon="11.243571247905493">
        <ele>0</ele>
        <time>2010-01-03T09:38:05Z</time>
      </trkpt>
      <trkpt lat="54.479093877598643" lon="11.244149934500456">
        <ele>0</ele>
        <time>2010-01-03T09:38:19Z</time>
      </trkpt>
      <trkpt lat="54.479109132662416" lon="11.244317656382918">
        <ele>0</ele>
        <time>2010-01-03T09:38:23Z</time>
      </trkpt>
      <trkpt lat="54.479129249230027" lon="11.24463927000761">
        <ele>0</ele>
        <time>2010-01-03T09:38:30Z</time>
      </trkpt>
      <trkpt lat="54.479131260886788" lon="11.24480539932847">
        <ele>0</ele>
        <time>2010-01-03T09:38:34Z</time>
      </trkpt>
      <trkpt lat="54.47909421287477" lon="11.245471928268671">
        <ele>0</ele>
        <time>2010-01-03T09:38:50Z</time>
      </trkpt>
      <trkpt lat="54.479051800444722" lon="11.246087830513716">
        <ele>0</ele>
        <time>2010-01-03T09:39:04Z</time>
      </trkpt>
      <trkpt lat="54.479070492088795" lon="11.246216576546431">
        <ele>0</ele>
        <time>2010-01-03T09:39:07Z</time>
      </trkpt>
      <trkpt lat="54.479092620313168" lon="11.246310286223888">
        <ele>0</ele>
        <time>2010-01-03T09:39:10Z</time>
      </trkpt>
      <trkpt lat="54.479092620313168" lon="11.246310286223888">
        <ele>0</ele>
        <time>2010-01-03T09:39:10Z</time>
      </trkpt>
      <trkpt lat="54.479126483201981" lon="11.246409947052598">
        <ele>0</ele>
        <time>2010-01-03T09:39:12Z</time>
      </trkpt>
      <trkpt lat="54.479092620313168" lon="11.246310286223888">
        <ele>0</ele>
        <time>2010-01-03T09:39:12Z</time>
      </trkpt>
      <trkpt lat="54.478979296982288" lon="11.247256435453892">
        <ele>0</ele>
        <time>2010-01-03T09:39:35Z</time>
      </trkpt>
      <trkpt lat="54.479095805436373" lon="11.247262805700302">
        <ele>0</ele>
        <time>2010-01-03T09:39:39Z</time>
      </trkpt>
      <trkpt lat="54.479489671066403" lon="11.247404627501965">
        <ele>0</ele>
        <time>2010-01-03T09:39:55Z</time>
      </trkpt>
      <trkpt lat="54.480127701535821" lon="11.246958961710334">
        <ele>0</ele>
        <time>2010-01-03T09:40:23Z</time>
      </trkpt>
      <trkpt lat="54.480859776958823" lon="11.246478343382478">
        <ele>0</ele>
        <time>2010-01-03T09:40:54Z</time>
      </trkpt>
      <trkpt lat="54.481542147696018" lon="11.246155304834247">
        <ele>0</ele>
        <time>2010-01-03T09:41:23Z</time>
      </trkpt>
      <trkpt lat="54.482481675222516" lon="11.245806198567152">
        <ele>0</ele>
        <time>2010-01-03T09:42:01Z</time>
      </trkpt>
      <trkpt lat="54.48363452218473" lon="11.245268583297729">
        <ele>0</ele>
        <time>2010-01-03T09:42:49Z</time>
      </trkpt>
      <trkpt lat="54.484950564801693" lon="11.244739852845669">
        <ele>0</ele>
        <time>2010-01-03T09:43:43Z</time>
      </trkpt>
      <trkpt lat="54.48669190518558" lon="11.243913900107145">
        <ele>0</ele>
        <time>2010-01-03T09:44:55Z</time>
      </trkpt>
      <trkpt lat="54.489326169714332" lon="11.242736075073481">
        <ele>0</ele>
        <time>2010-01-03T09:46:44Z</time>
      </trkpt>
      <trkpt lat="54.489481067284942" lon="11.243185261264443">
        <ele>0</ele>
        <time>2010-01-03T09:46:56Z</time>
      </trkpt>
      <trkpt lat="54.490844467654824" lon="11.242618896067142">
        <ele>0</ele>
        <time>2010-01-03T09:47:53Z</time>
      </trkpt>
      <trkpt lat="54.490657718852162" lon="11.241366639733315">
        <ele>0</ele>
        <time>2010-01-03T09:48:23Z</time>
      </trkpt>
      <trkpt lat="54.490841617807746" lon="11.240254864096642">
        <ele>0</ele>
        <time>2010-01-03T09:48:50Z</time>
      </trkpt>
      <trkpt lat="54.491005903109908" lon="11.238941671326756">
        <ele>0</ele>
        <time>2010-01-03T09:49:21Z</time>
      </trkpt>
      <trkpt lat="54.491632115095854" lon="11.239136215299368">
        <ele>0</ele>
        <time>2010-01-03T09:49:46Z</time>
      </trkpt>
      <trkpt lat="54.491865886375308" lon="11.239108890295029">
        <ele>0</ele>
        <time>2010-01-03T09:49:56Z</time>
      </trkpt>
      <trkpt lat="54.492707680910826" lon="11.238994644954801">
        <ele>0</ele>
        <time>2010-01-03T09:50:29Z</time>
      </trkpt>
      <trkpt lat="54.49312711134553" lon="11.239017611369491">
        <ele>0</ele>
        <time>2010-01-03T09:50:46Z</time>
      </trkpt>
      <trkpt lat="54.493180755525827" lon="11.237377775833011">
        <ele>0</ele>
        <time>2010-01-03T09:51:24Z</time>
      </trkpt>
      <trkpt lat="54.493222245946527" lon="11.235136203467846">
        <ele>0</ele>
        <time>2010-01-03T09:52:17Z</time>
      </trkpt>
      <trkpt lat="54.493399439379573" lon="11.231860220432281">
        <ele>0</ele>
        <time>2010-01-03T09:53:33Z</time>
      </trkpt>
      <trkpt lat="54.493416035547853" lon="11.229697437956929">
        <ele>0</ele>
        <time>2010-01-03T09:54:23Z</time>
      </trkpt>
      <trkpt lat="54.493422657251358" lon="11.226812889799476">
        <ele>0</ele>
        <time>2010-01-03T09:55:30Z</time>
      </trkpt>
      <trkpt lat="54.493701606988907" lon="11.223061569035053">
        <ele>0</ele>
        <time>2010-01-03T09:56:58Z</time>
      </trkpt>
      <trkpt lat="54.491097014397383" lon="11.220942875370383">
        <ele>0</ele>
        <time>2010-01-03T09:58:54Z</time>
      </trkpt>
      <trkpt lat="54.491024762392044" lon="11.220890237018466">
        <ele>0</ele>
        <time>2010-01-03T09:58:57Z</time>
      </trkpt>
      <trkpt lat="54.490973129868507" lon="11.220815638080239">
        <ele>0</ele>
        <time>2010-01-03T09:58:59Z</time>
      </trkpt>
      <trkpt lat="54.490914791822433" lon="11.220693262293935">
        <ele>0</ele>
        <time>2010-01-03T09:59:03Z</time>
      </trkpt>
      <trkpt lat="54.490880845114589" lon="11.220587398856878">
        <ele>0</ele>
        <time>2010-01-03T09:59:06Z</time>
      </trkpt>
      <trkpt lat="54.490861482918262" lon="11.220509111881256">
        <ele>0</ele>
        <time>2010-01-03T09:59:08Z</time>
      </trkpt>
      <trkpt lat="54.490849245339632" lon="11.22042135335505">
        <ele>0</ele>
        <time>2010-01-03T09:59:10Z</time>
      </trkpt>
      <trkpt lat="54.49084865860641" lon="11.220328817144036">
        <ele>0</ele>
        <time>2010-01-03T09:59:12Z</time>
      </trkpt>
      <trkpt lat="54.490852011367679" lon="11.220283973962069">
        <ele>0</ele>
        <time>2010-01-03T09:59:13Z</time>
      </trkpt>
      <trkpt lat="54.490857040509582" lon="11.220231419429183">
        <ele>0</ele>
        <time>2010-01-03T09:59:15Z</time>
      </trkpt>
      <trkpt lat="54.490871792659163" lon="11.220153970643878">
        <ele>0</ele>
        <time>2010-01-03T09:59:16Z</time>
      </trkpt>
      <trkpt lat="54.49090532027185" lon="11.220057662576437">
        <ele>0</ele>
        <time>2010-01-03T09:59:19Z</time>
      </trkpt>
      <trkpt lat="54.490951923653483" lon="11.219896227121353">
        <ele>0</ele>
        <time>2010-01-03T09:59:23Z</time>
      </trkpt>
      <trkpt lat="54.4910011254251" lon="11.219727080315351">
        <ele>0</ele>
        <time>2010-01-03T09:59:28Z</time>
      </trkpt>
      <trkpt lat="54.491138085722923" lon="11.219236822798848">
        <ele>0</ele>
        <time>2010-01-03T09:59:40Z</time>
      </trkpt>
      <trkpt lat="54.491186449304223" lon="11.219066167250276">
        <ele>0</ele>
        <time>2010-01-03T09:59:45Z</time>
      </trkpt>
      <trkpt lat="54.491208326071501" lon="11.218987042084336">
        <ele>0</ele>
        <time>2010-01-03T09:59:47Z</time>
      </trkpt>
      <trkpt lat="54.491229448467493" lon="11.21891101822257">
        <ele>0</ele>
        <time>2010-01-03T09:59:49Z</time>
      </trkpt>
      <trkpt lat="54.491246966645122" lon="11.218847399577498">
        <ele>0</ele>
        <time>2010-01-03T09:59:50Z</time>
      </trkpt>
      <trkpt lat="54.491406390443444" lon="11.218230156227946">
        <ele>0</ele>
        <time>2010-01-03T10:00:06Z</time>
      </trkpt>
      <trkpt lat="54.491414353251457" lon="11.218199143186212">
        <ele>0</ele>
        <time>2010-01-03T10:00:07Z</time>
      </trkpt>
      <trkpt lat="54.491572435945272" lon="11.217634370550513">
        <ele>0</ele>
        <time>2010-01-03T10:00:21Z</time>
      </trkpt>
      <trkpt lat="54.491647789254785" lon="11.217339746654034">
        <ele>0</ele>
        <time>2010-01-03T10:00:29Z</time>
      </trkpt>
      <trkpt lat="54.491653069853783" lon="11.217321138828993">
        <ele>0</ele>
        <time>2010-01-03T10:00:29Z</time>
      </trkpt>
      <trkpt lat="54.491778630763292" lon="11.216869689524174">
        <ele>0</ele>
        <time>2010-01-03T10:00:41Z</time>
      </trkpt>
      <trkpt lat="54.491956327110529" lon="11.216154797002673">
        <ele>0</ele>
        <time>2010-01-03T10:00:59Z</time>
      </trkpt>
      <trkpt lat="54.491990525275469" lon="11.21601683087647">
        <ele>0</ele>
        <time>2010-01-03T10:01:03Z</time>
      </trkpt>
      <trkpt lat="54.492166461423039" lon="11.215303530916572">
        <ele>0</ele>
        <time>2010-01-03T10:01:21Z</time>
      </trkpt>
      <trkpt lat="54.492222117260098" lon="11.215070514008403">
        <ele>0</ele>
        <time>2010-01-03T10:01:26Z</time>
      </trkpt>
      <trkpt lat="54.492260003462434" lon="11.214911341667175">
        <ele>0</ele>
        <time>2010-01-03T10:01:30Z</time>
      </trkpt>
      <trkpt lat="54.492309037595987" lon="11.214706655591726">
        <ele>0</ele>
        <time>2010-01-03T10:01:36Z</time>
      </trkpt>
      <trkpt lat="54.492345666512847" lon="11.21453776024282">
        <ele>0</ele>
        <time>2010-01-03T10:01:40Z</time>
      </trkpt>
      <trkpt lat="54.492397550493479" lon="11.214228132739663">
        <ele>0</ele>
        <time>2010-01-03T10:01:47Z</time>
      </trkpt>
      <trkpt lat="54.492516070604324" lon="11.213529836386442">
        <ele>0</ele>
        <time>2010-01-03T10:02:04Z</time>
      </trkpt>
      <trkpt lat="54.492541132494807" lon="11.213368820026517">
        <ele>0</ele>
        <time>2010-01-03T10:02:08Z</time>
      </trkpt>
      <trkpt lat="54.492546916007996" lon="11.213300842791796">
        <ele>0</ele>
        <time>2010-01-03T10:02:10Z</time>
      </trkpt>
      <trkpt lat="54.492551945149899" lon="11.21323898434639">
        <ele>0</ele>
        <time>2010-01-03T10:02:11Z</time>
      </trkpt>
      <trkpt lat="54.492554292082787" lon="11.21318181976676">
        <ele>0</ele>
        <time>2010-01-03T10:02:12Z</time>
      </trkpt>
      <trkpt lat="54.492556471377611" lon="11.21310462243855">
        <ele>0</ele>
        <time>2010-01-03T10:02:14Z</time>
      </trkpt>
      <trkpt lat="54.492555633187294" lon="11.212837658822536">
        <ele>0</ele>
        <time>2010-01-03T10:02:20Z</time>
      </trkpt>
      <trkpt lat="54.492555381730199" lon="11.212727352976799">
        <ele>0</ele>
        <time>2010-01-03T10:02:23Z</time>
      </trkpt>
      <trkpt lat="54.49255445972085" lon="11.212383946403861">
        <ele>0</ele>
        <time>2010-01-03T10:02:31Z</time>
      </trkpt>
      <trkpt lat="54.492556555196643" lon="11.212291326373816">
        <ele>0</ele>
        <time>2010-01-03T10:02:33Z</time>
      </trkpt>
      <trkpt lat="54.492560662329197" lon="11.212095273658633">
        <ele>0</ele>
        <time>2010-01-03T10:02:38Z</time>
      </trkpt>
      <trkpt lat="54.492559907957911" lon="11.211837530136108">
        <ele>0</ele>
        <time>2010-01-03T10:02:44Z</time>
      </trkpt>
      <trkpt lat="54.492563428357244" lon="11.211698558181524">
        <ele>0</ele>
        <time>2010-01-03T10:02:47Z</time>
      </trkpt>
      <trkpt lat="54.492587568238378" lon="11.211392534896731">
        <ele>0</ele>
        <time>2010-01-03T10:02:54Z</time>
      </trkpt>
      <trkpt lat="54.492625705897808" lon="11.211047619581223">
        <ele>0</ele>
        <time>2010-01-03T10:03:02Z</time>
      </trkpt>
      <trkpt lat="54.49263266287744" lon="11.211007386445999">
        <ele>0</ele>
        <time>2010-01-03T10:03:03Z</time>
      </trkpt>
      <trkpt lat="54.492675913497806" lon="11.210758108645678">
        <ele>0</ele>
        <time>2010-01-03T10:03:09Z</time>
      </trkpt>
      <trkpt lat="54.492695778608322" lon="11.210634224116802">
        <ele>0</ele>
        <time>2010-01-03T10:03:12Z</time>
      </trkpt>
      <trkpt lat="54.492702316492796" lon="11.210540011525154">
        <ele>0</ele>
        <time>2010-01-03T10:03:14Z</time>
      </trkpt>
      <trkpt lat="54.492700640112162" lon="11.210416546091437">
        <ele>0</ele>
        <time>2010-01-03T10:03:17Z</time>
      </trkpt>
      <trkpt lat="54.492698963731527" lon="11.21029157191515">
        <ele>0</ele>
        <time>2010-01-03T10:03:20Z</time>
      </trkpt>
      <trkpt lat="54.493345711380243" lon="11.210197610780597">
        <ele>0</ele>
        <time>2010-01-03T10:03:46Z</time>
      </trkpt>
      <trkpt lat="54.493553163483739" lon="11.210183948278427">
        <ele>0</ele>
        <time>2010-01-03T10:03:55Z</time>
      </trkpt>
      <trkpt lat="54.493659362196922" lon="11.210197443142533">
        <ele>0</ele>
        <time>2010-01-03T10:03:59Z</time>
      </trkpt>
      <trkpt lat="54.493769751861691" lon="11.210253350436687">
        <ele>0</ele>
        <time>2010-01-03T10:04:03Z</time>
      </trkpt>
      <trkpt lat="54.493847787380219" lon="11.210320238023996">
        <ele>0</ele>
        <time>2010-01-03T10:04:07Z</time>
      </trkpt>
      <trkpt lat="54.493918782100081" lon="11.210381258279085">
        <ele>0</ele>
        <time>2010-01-03T10:04:10Z</time>
      </trkpt>
      <trkpt lat="54.494199240580201" lon="11.210619639605284">
        <ele>0</ele>
        <time>2010-01-03T10:04:23Z</time>
      </trkpt>
      <trkpt lat="54.494808269664645" lon="11.211238726973534">
        <ele>0</ele>
        <time>2010-01-03T10:04:51Z</time>
      </trkpt>
      <trkpt lat="54.494891418144107" lon="11.211320450529456">
        <ele>0</ele>
        <time>2010-01-03T10:04:55Z</time>
      </trkpt>
      <trkpt lat="54.49512560851872" lon="11.211549025028944">
        <ele>0</ele>
        <time>2010-01-03T10:05:06Z</time>
      </trkpt>
      <trkpt lat="54.495133738964796" lon="11.211558077484369">
        <ele>0</ele>
        <time>2010-01-03T10:05:06Z</time>
      </trkpt>
      <trkpt lat="54.495223173871636" lon="11.211649272590876">
        <ele>0</ele>
        <time>2010-01-03T10:05:10Z</time>
      </trkpt>
      <trkpt lat="54.495355188846588" lon="11.211783802136779">
        <ele>0</ele>
        <time>2010-01-03T10:05:16Z</time>
      </trkpt>
      <trkpt lat="54.495475636795163" lon="11.21190651319921">
        <ele>0</ele>
        <time>2010-01-03T10:05:22Z</time>
      </trkpt>
      <trkpt lat="54.495665486901999" lon="11.212089573964477">
        <ele>0</ele>
        <time>2010-01-03T10:05:31Z</time>
      </trkpt>
      <trkpt lat="54.495765818282962" lon="11.21218646876514">
        <ele>0</ele>
        <time>2010-01-03T10:05:35Z</time>
      </trkpt>
      <trkpt lat="54.496028004214168" lon="11.212439183145761">
        <ele>0</ele>
        <time>2010-01-03T10:05:47Z</time>
      </trkpt>
      <trkpt lat="54.496515244245529" lon="11.212909827008843">
        <ele>0</ele>
        <time>2010-01-03T10:06:10Z</time>
      </trkpt>
      <trkpt lat="54.496549610048532" lon="11.212943103164434">
        <ele>0</ele>
        <time>2010-01-03T10:06:11Z</time>
      </trkpt>
      <trkpt lat="54.496566876769066" lon="11.212969003245234">
        <ele>0</ele>
        <time>2010-01-03T10:06:12Z</time>
      </trkpt>
      <trkpt lat="54.496597889810801" lon="11.213039411231875">
        <ele>0</ele>
        <time>2010-01-03T10:06:14Z</time>
      </trkpt>
      <trkpt lat="54.496611887589097" lon="11.21311635710299">
        <ele>0</ele>
        <time>2010-01-03T10:06:16Z</time>
      </trkpt>
      <trkpt lat="54.496632171794772" lon="11.213208558037877">
        <ele>0</ele>
        <time>2010-01-03T10:06:18Z</time>
      </trkpt>
      <trkpt lat="54.496673159301281" lon="11.213423805311322">
        <ele>0</ele>
        <time>2010-01-03T10:06:23Z</time>
      </trkpt>
      <trkpt lat="54.496708195656538" lon="11.213702503591776">
        <ele>0</ele>
        <time>2010-01-03T10:06:30Z</time>
      </trkpt>
      <trkpt lat="54.49672345072031" lon="11.213836530223489">
        <ele>0</ele>
        <time>2010-01-03T10:06:33Z</time>
      </trkpt>
      <trkpt lat="54.496736861765385" lon="11.213968964293599">
        <ele>0</ele>
        <time>2010-01-03T10:06:36Z</time>
      </trkpt>
      <trkpt lat="54.496743567287922" lon="11.21403057128191">
        <ele>0</ele>
        <time>2010-01-03T10:06:38Z</time>
      </trkpt>
      <trkpt lat="54.496769802644849" lon="11.214335672557354">
        <ele>0</ele>
        <time>2010-01-03T10:06:45Z</time>
      </trkpt>
      <trkpt lat="54.496784135699272" lon="11.214605486020446">
        <ele>0</ele>
        <time>2010-01-03T10:06:51Z</time>
      </trkpt>
      <trkpt lat="54.496797882020473" lon="11.214920142665505">
        <ele>0</ele>
        <time>2010-01-03T10:06:59Z</time>
      </trkpt>
      <trkpt lat="54.496812215074897" lon="11.215189956128597">
        <ele>0</ele>
        <time>2010-01-03T10:07:05Z</time>
      </trkpt>
      <trkpt lat="54.496815651655197" lon="11.215586503967643">
        <ele>0</ele>
        <time>2010-01-03T10:07:14Z</time>
      </trkpt>
      <trkpt lat="54.496817411854863" lon="11.215858161449432">
        <ele>0</ele>
        <time>2010-01-03T10:07:21Z</time>
      </trkpt>
      <trkpt lat="54.496816657483578" lon="11.216432321816683">
        <ele>0</ele>
        <time>2010-01-03T10:07:34Z</time>
      </trkpt>
      <trkpt lat="54.496804000809789" lon="11.217113183811307">
        <ele>0</ele>
        <time>2010-01-03T10:07:50Z</time>
      </trkpt>
      <trkpt lat="54.496782291680574" lon="11.217655409127474">
        <ele>0</ele>
        <time>2010-01-03T10:08:02Z</time>
      </trkpt>
      <trkpt lat="54.496758906170726" lon="11.218200651928782">
        <ele>0</ele>
        <time>2010-01-03T10:08:15Z</time>
      </trkpt>
      <trkpt lat="54.496736777946353" lon="11.218674900010228">
        <ele>0</ele>
        <time>2010-01-03T10:08:26Z</time>
      </trkpt>
      <trkpt lat="54.496726887300611" lon="11.218806328251958">
        <ele>0</ele>
        <time>2010-01-03T10:08:29Z</time>
      </trkpt>
      <trkpt lat="54.496696377173066" lon="11.219232883304358">
        <ele>0</ele>
        <time>2010-01-03T10:08:39Z</time>
      </trkpt>
      <trkpt lat="54.496673997491598" lon="11.219528093934059">
        <ele>0</ele>
        <time>2010-01-03T10:08:46Z</time>
      </trkpt>
      <trkpt lat="54.496651450172067" lon="11.219781646504998">
        <ele>0</ele>
        <time>2010-01-03T10:08:52Z</time>
      </trkpt>
      <trkpt lat="54.496610965579748" lon="11.220061769708991">
        <ele>0</ele>
        <time>2010-01-03T10:08:59Z</time>
      </trkpt>
      <trkpt lat="54.496548855677247" lon="11.220461167395115">
        <ele>0</ele>
        <time>2010-01-03T10:09:08Z</time>
      </trkpt>
      <trkpt lat="54.49641709215939" lon="11.221340345218778">
        <ele>0</ele>
        <time>2010-01-03T10:09:30Z</time>
      </trkpt>
      <trkpt lat="54.496404100209475" lon="11.221420811489224">
        <ele>0</ele>
        <time>2010-01-03T10:09:31Z</time>
      </trkpt>
      <trkpt lat="54.496398065239191" lon="11.22145333327353">
        <ele>0</ele>
        <time>2010-01-03T10:09:32Z</time>
      </trkpt>
      <trkpt lat="54.49637895449996" lon="11.221557101234794">
        <ele>0</ele>
        <time>2010-01-03T10:09:35Z</time>
      </trkpt>
      <trkpt lat="54.49635892175138" lon="11.221659360453486">
        <ele>0</ele>
        <time>2010-01-03T10:09:37Z</time>
      </trkpt>
      <trkpt lat="54.496334698051214" lon="11.221795063465834">
        <ele>0</ele>
        <time>2010-01-03T10:09:41Z</time>
      </trkpt>
      <trkpt lat="54.49628759175539" lon="11.222018776461482">
        <ele>0</ele>
        <time>2010-01-03T10:09:46Z</time>
      </trkpt>
      <trkpt lat="54.496241491287947" lon="11.222251206636429">
        <ele>0</ele>
        <time>2010-01-03T10:09:52Z</time>
      </trkpt>
      <trkpt lat="54.496691934764385" lon="11.222873898223042">
        <ele>0</ele>
        <time>2010-01-03T10:10:15Z</time>
      </trkpt>
      <trkpt lat="54.496853202581406" lon="11.223076153546572">
        <ele>0</ele>
        <time>2010-01-03T10:10:23Z</time>
      </trkpt>
      <trkpt lat="54.496962670236826" lon="11.223197523504496">
        <ele>0</ele>
        <time>2010-01-03T10:10:28Z</time>
      </trkpt>
      <trkpt lat="54.497066522017121" lon="11.223275810480118">
        <ele>0</ele>
        <time>2010-01-03T10:10:33Z</time>
      </trkpt>
      <trkpt lat="54.497267687693238" lon="11.223415536805987">
        <ele>0</ele>
        <time>2010-01-03T10:10:41Z</time>
      </trkpt>
      <trkpt lat="54.498635614290833" lon="11.224337378516793">
        <ele>0</ele>
        <time>2010-01-03T10:11:40Z</time>
      </trkpt>
      <trkpt lat="54.498836863785982" lon="11.224478613585234">
        <ele>0</ele>
        <time>2010-01-03T10:11:49Z</time>
      </trkpt>
      <trkpt lat="54.500409392639995" lon="11.225583096966147">
        <ele>0</ele>
        <time>2010-01-03T10:12:57Z</time>
      </trkpt>
      <trkpt lat="54.500944912433624" lon="11.225959192961454">
        <ele>0</ele>
        <time>2010-01-03T10:13:20Z</time>
      </trkpt>
      <trkpt lat="54.5010204333812" lon="11.22598827816546">
        <ele>0</ele>
        <time>2010-01-03T10:13:23Z</time>
      </trkpt>
    </trkseg>
  </trk>

</gpx>
